<?xml version="1.0" encoding="UTF-8" standalone="no" ?>
<gpx xmlns="http://www.topografix.com/GPX/1/1" xmlns:xsi="http://www.w3.org/2001/XMLSchema-instance" xsi:schemaLocation="http://www.topografix.com/GPX/1/1 http://www.topografix.com/GPX/1/1/gpx.xsd" version="1.1" creator="VisuGPX - https://www.visugpx.com">
  <metadata>
    <name>Samara, Saint-Sauveur</name>
  </metadata>
  <trk>
    <name><![CDATA[Samara, Saint-Sauveur_1]]></name>
    <trkseg>
      <trkpt lat="49.94904" lon="2.17067">
        <ele>15</ele>
        <time>2022-03-02T13:01:28Z</time>
      </trkpt>
      <trkpt lat="49.94904" lon="2.17067">
        <ele>15</ele>
        <time>2022-03-02T13:01:29Z</time>
      </trkpt>
      <trkpt lat="49.94904" lon="2.17067">
        <ele>15</ele>
        <time>2022-03-02T13:01:30Z</time>
      </trkpt>
      <trkpt lat="49.94904" lon="2.17067">
        <ele>15</ele>
        <time>2022-03-02T13:01:31Z</time>
      </trkpt>
      <trkpt lat="49.94904" lon="2.17067">
        <ele>15</ele>
        <time>2022-03-02T13:01:32Z</time>
      </trkpt>
      <trkpt lat="49.94904" lon="2.17067">
        <ele>15</ele>
        <time>2022-03-02T13:01:33Z</time>
      </trkpt>
      <trkpt lat="49.94904" lon="2.17067">
        <ele>15</ele>
        <time>2022-03-02T13:01:34Z</time>
      </trkpt>
      <trkpt lat="49.94904" lon="2.17067">
        <ele>15</ele>
        <time>2022-03-02T13:01:35Z</time>
      </trkpt>
      <trkpt lat="49.94904" lon="2.17067">
        <ele>15</ele>
        <time>2022-03-02T13:01:36Z</time>
      </trkpt>
      <trkpt lat="49.94904" lon="2.17067">
        <ele>15</ele>
        <time>2022-03-02T13:01:37Z</time>
      </trkpt>
      <trkpt lat="49.94904" lon="2.17067">
        <ele>15</ele>
        <time>2022-03-02T13:01:38Z</time>
      </trkpt>
      <trkpt lat="49.94904" lon="2.17067">
        <ele>15</ele>
        <time>2022-03-02T13:01:39Z</time>
      </trkpt>
      <trkpt lat="49.94904" lon="2.17067">
        <ele>15</ele>
        <time>2022-03-02T13:01:40Z</time>
      </trkpt>
      <trkpt lat="49.94904" lon="2.17067">
        <ele>15</ele>
        <time>2022-03-02T13:01:41Z</time>
      </trkpt>
      <trkpt lat="49.94904" lon="2.17067">
        <ele>15</ele>
        <time>2022-03-02T13:01:42Z</time>
      </trkpt>
      <trkpt lat="49.94904" lon="2.17067">
        <ele>15</ele>
        <time>2022-03-02T13:01:43Z</time>
      </trkpt>
      <trkpt lat="49.94904" lon="2.17067">
        <ele>15</ele>
        <time>2022-03-02T13:01:44Z</time>
      </trkpt>
      <trkpt lat="49.94904" lon="2.17067">
        <ele>15</ele>
        <time>2022-03-02T13:01:45Z</time>
      </trkpt>
      <trkpt lat="49.94904" lon="2.17067">
        <ele>15</ele>
        <time>2022-03-02T13:01:46Z</time>
      </trkpt>
      <trkpt lat="49.94904" lon="2.17067">
        <ele>15</ele>
        <time>2022-03-02T13:01:47Z</time>
      </trkpt>
      <trkpt lat="49.94904" lon="2.17067">
        <ele>15</ele>
        <time>2022-03-02T13:01:48Z</time>
      </trkpt>
      <trkpt lat="49.94904" lon="2.17067">
        <ele>15</ele>
        <time>2022-03-02T13:01:49Z</time>
      </trkpt>
      <trkpt lat="49.94904" lon="2.17067">
        <ele>15</ele>
        <time>2022-03-02T13:01:50Z</time>
      </trkpt>
      <trkpt lat="49.94904" lon="2.17067">
        <ele>15</ele>
        <time>2022-03-02T13:01:51Z</time>
      </trkpt>
      <trkpt lat="49.94904" lon="2.17067">
        <ele>15</ele>
        <time>2022-03-02T13:01:52Z</time>
      </trkpt>
      <trkpt lat="49.94904" lon="2.17067">
        <ele>15</ele>
        <time>2022-03-02T13:01:53Z</time>
      </trkpt>
      <trkpt lat="49.94904" lon="2.17067">
        <ele>15</ele>
        <time>2022-03-02T13:01:54Z</time>
      </trkpt>
      <trkpt lat="49.94904" lon="2.17067">
        <ele>15</ele>
        <time>2022-03-02T13:01:55Z</time>
      </trkpt>
      <trkpt lat="49.94904" lon="2.17067">
        <ele>15</ele>
        <time>2022-03-02T13:01:56Z</time>
      </trkpt>
      <trkpt lat="49.94904" lon="2.17067">
        <ele>15</ele>
        <time>2022-03-02T13:01:57Z</time>
      </trkpt>
      <trkpt lat="49.94904" lon="2.17067">
        <ele>15</ele>
        <time>2022-03-02T13:01:58Z</time>
      </trkpt>
      <trkpt lat="49.94904" lon="2.17067">
        <ele>15</ele>
        <time>2022-03-02T13:01:59Z</time>
      </trkpt>
      <trkpt lat="49.94904" lon="2.17067">
        <ele>15</ele>
        <time>2022-03-02T13:02:00Z</time>
      </trkpt>
      <trkpt lat="49.94904" lon="2.17067">
        <ele>15</ele>
        <time>2022-03-02T13:02:01Z</time>
      </trkpt>
      <trkpt lat="49.94904" lon="2.17067">
        <ele>15</ele>
        <time>2022-03-02T13:02:02Z</time>
      </trkpt>
      <trkpt lat="49.94904" lon="2.17067">
        <ele>15</ele>
        <time>2022-03-02T13:02:03Z</time>
      </trkpt>
      <trkpt lat="49.94904" lon="2.17067">
        <ele>15</ele>
        <time>2022-03-02T13:02:04Z</time>
      </trkpt>
      <trkpt lat="49.94904" lon="2.17067">
        <ele>15</ele>
        <time>2022-03-02T13:02:05Z</time>
      </trkpt>
      <trkpt lat="49.94904" lon="2.17067">
        <ele>15</ele>
        <time>2022-03-02T13:02:06Z</time>
      </trkpt>
      <trkpt lat="49.94904" lon="2.17067">
        <ele>15</ele>
        <time>2022-03-02T13:02:07Z</time>
      </trkpt>
      <trkpt lat="49.94904" lon="2.17067">
        <ele>15</ele>
        <time>2022-03-02T13:02:08Z</time>
      </trkpt>
      <trkpt lat="49.94904" lon="2.17067">
        <ele>15</ele>
        <time>2022-03-02T13:02:09Z</time>
      </trkpt>
      <trkpt lat="49.94904" lon="2.17067">
        <ele>15</ele>
        <time>2022-03-02T13:02:10Z</time>
      </trkpt>
      <trkpt lat="49.94904" lon="2.17067">
        <ele>15</ele>
        <time>2022-03-02T13:02:11Z</time>
      </trkpt>
      <trkpt lat="49.94904" lon="2.17067">
        <ele>15</ele>
        <time>2022-03-02T13:02:12Z</time>
      </trkpt>
      <trkpt lat="49.94904" lon="2.17067">
        <ele>15</ele>
        <time>2022-03-02T13:02:13Z</time>
      </trkpt>
      <trkpt lat="49.94904" lon="2.17067">
        <ele>15</ele>
        <time>2022-03-02T13:02:14Z</time>
      </trkpt>
      <trkpt lat="49.94904" lon="2.17067">
        <ele>15</ele>
        <time>2022-03-02T13:02:15Z</time>
      </trkpt>
      <trkpt lat="49.94904" lon="2.17067">
        <ele>15</ele>
        <time>2022-03-02T13:02:16Z</time>
      </trkpt>
      <trkpt lat="49.94904" lon="2.17067">
        <ele>15</ele>
        <time>2022-03-02T13:02:17Z</time>
      </trkpt>
      <trkpt lat="49.94904" lon="2.17067">
        <ele>15</ele>
        <time>2022-03-02T13:02:18Z</time>
      </trkpt>
      <trkpt lat="49.94904" lon="2.17067">
        <ele>15</ele>
        <time>2022-03-02T13:02:19Z</time>
      </trkpt>
      <trkpt lat="49.94904" lon="2.17067">
        <ele>15</ele>
        <time>2022-03-02T13:02:20Z</time>
      </trkpt>
      <trkpt lat="49.94904" lon="2.17067">
        <ele>15</ele>
        <time>2022-03-02T13:02:21Z</time>
      </trkpt>
      <trkpt lat="49.94904" lon="2.17067">
        <ele>15</ele>
        <time>2022-03-02T13:02:22Z</time>
      </trkpt>
      <trkpt lat="49.94904" lon="2.17067">
        <ele>15</ele>
        <time>2022-03-02T13:02:23Z</time>
      </trkpt>
      <trkpt lat="49.94904" lon="2.17067">
        <ele>15</ele>
        <time>2022-03-02T13:02:24Z</time>
      </trkpt>
      <trkpt lat="49.94904" lon="2.17067">
        <ele>15</ele>
        <time>2022-03-02T13:02:25Z</time>
      </trkpt>
      <trkpt lat="49.94904" lon="2.17067">
        <ele>15</ele>
        <time>2022-03-02T13:02:26Z</time>
      </trkpt>
      <trkpt lat="49.94904" lon="2.17067">
        <ele>15</ele>
        <time>2022-03-02T13:02:27Z</time>
      </trkpt>
      <trkpt lat="49.94904" lon="2.17067">
        <ele>15</ele>
        <time>2022-03-02T13:02:28Z</time>
      </trkpt>
      <trkpt lat="49.94904" lon="2.17067">
        <ele>15</ele>
        <time>2022-03-02T13:02:29Z</time>
      </trkpt>
      <trkpt lat="49.94904" lon="2.17067">
        <ele>15</ele>
        <time>2022-03-02T13:02:30Z</time>
      </trkpt>
      <trkpt lat="49.94904" lon="2.17067">
        <ele>15</ele>
        <time>2022-03-02T13:02:31Z</time>
      </trkpt>
      <trkpt lat="49.94904" lon="2.17067">
        <ele>15</ele>
        <time>2022-03-02T13:02:32Z</time>
      </trkpt>
      <trkpt lat="49.94904" lon="2.17067">
        <ele>15</ele>
        <time>2022-03-02T13:02:33Z</time>
      </trkpt>
      <trkpt lat="49.94904" lon="2.17067">
        <ele>15</ele>
        <time>2022-03-02T13:02:34Z</time>
      </trkpt>
      <trkpt lat="49.94904" lon="2.17067">
        <ele>15</ele>
        <time>2022-03-02T13:02:35Z</time>
      </trkpt>
      <trkpt lat="49.94904" lon="2.17067">
        <ele>15</ele>
        <time>2022-03-02T13:02:36Z</time>
      </trkpt>
      <trkpt lat="49.94904" lon="2.17067">
        <ele>15</ele>
        <time>2022-03-02T13:02:37Z</time>
      </trkpt>
      <trkpt lat="49.94904" lon="2.17067">
        <ele>15</ele>
        <time>2022-03-02T13:02:38Z</time>
      </trkpt>
      <trkpt lat="49.94904" lon="2.17067">
        <ele>15</ele>
        <time>2022-03-02T13:02:39Z</time>
      </trkpt>
      <trkpt lat="49.94904" lon="2.17067">
        <ele>15</ele>
        <time>2022-03-02T13:02:40Z</time>
      </trkpt>
      <trkpt lat="49.94904" lon="2.17067">
        <ele>15</ele>
        <time>2022-03-02T13:02:41Z</time>
      </trkpt>
      <trkpt lat="49.94904" lon="2.17067">
        <ele>15</ele>
        <time>2022-03-02T13:02:42Z</time>
      </trkpt>
      <trkpt lat="49.94904" lon="2.17067">
        <ele>15</ele>
        <time>2022-03-02T13:02:43Z</time>
      </trkpt>
      <trkpt lat="49.94904" lon="2.17067">
        <ele>15</ele>
        <time>2022-03-02T13:02:44Z</time>
      </trkpt>
      <trkpt lat="49.94904" lon="2.17067">
        <ele>15</ele>
        <time>2022-03-02T13:02:45Z</time>
      </trkpt>
      <trkpt lat="49.94904" lon="2.17067">
        <ele>15</ele>
        <time>2022-03-02T13:02:46Z</time>
      </trkpt>
      <trkpt lat="49.94904" lon="2.17067">
        <ele>15</ele>
        <time>2022-03-02T13:02:47Z</time>
      </trkpt>
      <trkpt lat="49.94904" lon="2.17067">
        <ele>15</ele>
        <time>2022-03-02T13:02:48Z</time>
      </trkpt>
      <trkpt lat="49.94904" lon="2.17067">
        <ele>15</ele>
        <time>2022-03-02T13:02:49Z</time>
      </trkpt>
      <trkpt lat="49.94904" lon="2.17067">
        <ele>15</ele>
        <time>2022-03-02T13:02:50Z</time>
      </trkpt>
      <trkpt lat="49.94904" lon="2.17067">
        <ele>15</ele>
        <time>2022-03-02T13:02:51Z</time>
      </trkpt>
      <trkpt lat="49.94904" lon="2.17067">
        <ele>15</ele>
        <time>2022-03-02T13:02:52Z</time>
      </trkpt>
      <trkpt lat="49.94904" lon="2.17067">
        <ele>15</ele>
        <time>2022-03-02T13:02:53Z</time>
      </trkpt>
      <trkpt lat="49.94904" lon="2.17067">
        <ele>15</ele>
        <time>2022-03-02T13:02:54Z</time>
      </trkpt>
      <trkpt lat="49.94904" lon="2.17067">
        <ele>15</ele>
        <time>2022-03-02T13:02:55Z</time>
      </trkpt>
      <trkpt lat="49.94904" lon="2.17067">
        <ele>15</ele>
        <time>2022-03-02T13:02:56Z</time>
      </trkpt>
      <trkpt lat="49.94904" lon="2.17067">
        <ele>15</ele>
        <time>2022-03-02T13:02:57Z</time>
      </trkpt>
      <trkpt lat="49.94904" lon="2.17067">
        <ele>15</ele>
        <time>2022-03-02T13:02:58Z</time>
      </trkpt>
      <trkpt lat="49.94904" lon="2.17067">
        <ele>15</ele>
        <time>2022-03-02T13:02:59Z</time>
      </trkpt>
      <trkpt lat="49.94904" lon="2.17067">
        <ele>15</ele>
        <time>2022-03-02T13:03:00Z</time>
      </trkpt>
      <trkpt lat="49.94904" lon="2.17067">
        <ele>15</ele>
        <time>2022-03-02T13:03:01Z</time>
      </trkpt>
      <trkpt lat="49.94904" lon="2.17067">
        <ele>15</ele>
        <time>2022-03-02T13:03:02Z</time>
      </trkpt>
      <trkpt lat="49.94904" lon="2.17067">
        <ele>15</ele>
        <time>2022-03-02T13:03:03Z</time>
      </trkpt>
      <trkpt lat="49.94904" lon="2.17067">
        <ele>15</ele>
        <time>2022-03-02T13:03:04Z</time>
      </trkpt>
      <trkpt lat="49.94904" lon="2.17067">
        <ele>15</ele>
        <time>2022-03-02T13:03:05Z</time>
      </trkpt>
      <trkpt lat="49.94904" lon="2.17067">
        <ele>15</ele>
        <time>2022-03-02T13:03:06Z</time>
      </trkpt>
      <trkpt lat="49.94904" lon="2.17067">
        <ele>15</ele>
        <time>2022-03-02T13:03:07Z</time>
      </trkpt>
      <trkpt lat="49.94904" lon="2.17067">
        <ele>15</ele>
        <time>2022-03-02T13:03:08Z</time>
      </trkpt>
      <trkpt lat="49.94904" lon="2.17067">
        <ele>15</ele>
        <time>2022-03-02T13:03:09Z</time>
      </trkpt>
      <trkpt lat="49.94904" lon="2.17067">
        <ele>15</ele>
        <time>2022-03-02T13:03:10Z</time>
      </trkpt>
      <trkpt lat="49.94904" lon="2.17067">
        <ele>15</ele>
        <time>2022-03-02T13:03:11Z</time>
      </trkpt>
      <trkpt lat="49.94904" lon="2.17067">
        <ele>15</ele>
        <time>2022-03-02T13:03:12Z</time>
      </trkpt>
      <trkpt lat="49.94904" lon="2.17067">
        <ele>15</ele>
        <time>2022-03-02T13:03:13Z</time>
      </trkpt>
      <trkpt lat="49.94904" lon="2.17067">
        <ele>15</ele>
        <time>2022-03-02T13:03:14Z</time>
      </trkpt>
      <trkpt lat="49.94904" lon="2.17067">
        <ele>15</ele>
        <time>2022-03-02T13:03:15Z</time>
      </trkpt>
      <trkpt lat="49.94904" lon="2.17067">
        <ele>15</ele>
        <time>2022-03-02T13:03:16Z</time>
      </trkpt>
      <trkpt lat="49.94904" lon="2.17067">
        <ele>15</ele>
        <time>2022-03-02T13:03:17Z</time>
      </trkpt>
      <trkpt lat="49.94904" lon="2.17067">
        <ele>15</ele>
        <time>2022-03-02T13:03:18Z</time>
      </trkpt>
      <trkpt lat="49.94904" lon="2.17067">
        <ele>15</ele>
        <time>2022-03-02T13:03:19Z</time>
      </trkpt>
      <trkpt lat="49.94904" lon="2.17067">
        <ele>15</ele>
        <time>2022-03-02T13:03:20Z</time>
      </trkpt>
      <trkpt lat="49.94904" lon="2.17067">
        <ele>15</ele>
        <time>2022-03-02T13:03:21Z</time>
      </trkpt>
      <trkpt lat="49.94904" lon="2.17067">
        <ele>15</ele>
        <time>2022-03-02T13:03:22Z</time>
      </trkpt>
      <trkpt lat="49.94904" lon="2.17067">
        <ele>15</ele>
        <time>2022-03-02T13:03:23Z</time>
      </trkpt>
      <trkpt lat="49.94904" lon="2.17067">
        <ele>15</ele>
        <time>2022-03-02T13:03:24Z</time>
      </trkpt>
      <trkpt lat="49.94904" lon="2.17067">
        <ele>15</ele>
        <time>2022-03-02T13:03:25Z</time>
      </trkpt>
      <trkpt lat="49.94904" lon="2.17067">
        <ele>15</ele>
        <time>2022-03-02T13:03:26Z</time>
      </trkpt>
      <trkpt lat="49.94904" lon="2.17067">
        <ele>15</ele>
        <time>2022-03-02T13:03:27Z</time>
      </trkpt>
      <trkpt lat="49.94904" lon="2.17067">
        <ele>15</ele>
        <time>2022-03-02T13:03:28Z</time>
      </trkpt>
      <trkpt lat="49.94904" lon="2.17067">
        <ele>15</ele>
        <time>2022-03-02T13:03:29Z</time>
      </trkpt>
      <trkpt lat="49.94904" lon="2.17067">
        <ele>15</ele>
        <time>2022-03-02T13:03:30Z</time>
      </trkpt>
      <trkpt lat="49.94904" lon="2.17067">
        <ele>15</ele>
        <time>2022-03-02T13:03:31Z</time>
      </trkpt>
      <trkpt lat="49.94904" lon="2.17067">
        <ele>15</ele>
        <time>2022-03-02T13:03:32Z</time>
      </trkpt>
      <trkpt lat="49.94904" lon="2.17067">
        <ele>15</ele>
        <time>2022-03-02T13:03:33Z</time>
      </trkpt>
      <trkpt lat="49.94904" lon="2.17067">
        <ele>15</ele>
        <time>2022-03-02T13:03:34Z</time>
      </trkpt>
      <trkpt lat="49.94904" lon="2.17067">
        <ele>15</ele>
        <time>2022-03-02T13:03:35Z</time>
      </trkpt>
      <trkpt lat="49.94904" lon="2.17067">
        <ele>15</ele>
        <time>2022-03-02T13:03:36Z</time>
      </trkpt>
      <trkpt lat="49.94904" lon="2.17067">
        <ele>15</ele>
        <time>2022-03-02T13:03:37Z</time>
      </trkpt>
      <trkpt lat="49.94904" lon="2.17067">
        <ele>15</ele>
        <time>2022-03-02T13:03:38Z</time>
      </trkpt>
      <trkpt lat="49.94904" lon="2.17067">
        <ele>15</ele>
        <time>2022-03-02T13:03:39Z</time>
      </trkpt>
      <trkpt lat="49.94904" lon="2.17067">
        <ele>15</ele>
        <time>2022-03-02T13:03:40Z</time>
      </trkpt>
      <trkpt lat="49.94904" lon="2.17067">
        <ele>15</ele>
        <time>2022-03-02T13:03:41Z</time>
      </trkpt>
      <trkpt lat="49.94904" lon="2.17067">
        <ele>15</ele>
        <time>2022-03-02T13:03:42Z</time>
      </trkpt>
      <trkpt lat="49.94904" lon="2.17067">
        <ele>15</ele>
        <time>2022-03-02T13:03:43Z</time>
      </trkpt>
      <trkpt lat="49.94904" lon="2.17067">
        <ele>15</ele>
        <time>2022-03-02T13:03:44Z</time>
      </trkpt>
      <trkpt lat="49.94904" lon="2.17067">
        <ele>15</ele>
        <time>2022-03-02T13:03:45Z</time>
      </trkpt>
      <trkpt lat="49.94904" lon="2.17067">
        <ele>15</ele>
        <time>2022-03-02T13:03:46Z</time>
      </trkpt>
      <trkpt lat="49.94904" lon="2.17067">
        <ele>15</ele>
        <time>2022-03-02T13:03:47Z</time>
      </trkpt>
      <trkpt lat="49.94904" lon="2.17067">
        <ele>15</ele>
        <time>2022-03-02T13:03:48Z</time>
      </trkpt>
      <trkpt lat="49.94904" lon="2.17067">
        <ele>15</ele>
        <time>2022-03-02T13:03:49Z</time>
      </trkpt>
      <trkpt lat="49.94904" lon="2.17067">
        <ele>15</ele>
        <time>2022-03-02T13:03:50Z</time>
      </trkpt>
      <trkpt lat="49.94904" lon="2.17067">
        <ele>15</ele>
        <time>2022-03-02T13:03:51Z</time>
      </trkpt>
      <trkpt lat="49.94904" lon="2.17067">
        <ele>15</ele>
        <time>2022-03-02T13:03:52Z</time>
      </trkpt>
      <trkpt lat="49.94904" lon="2.17067">
        <ele>15</ele>
        <time>2022-03-02T13:03:53Z</time>
      </trkpt>
      <trkpt lat="49.94904" lon="2.17067">
        <ele>15</ele>
        <time>2022-03-02T13:03:54Z</time>
      </trkpt>
      <trkpt lat="49.94904" lon="2.17067">
        <ele>15</ele>
        <time>2022-03-02T13:03:55Z</time>
      </trkpt>
      <trkpt lat="49.94904" lon="2.17067">
        <ele>15</ele>
        <time>2022-03-02T13:03:56Z</time>
      </trkpt>
      <trkpt lat="49.94904" lon="2.17067">
        <ele>15</ele>
        <time>2022-03-02T13:03:57Z</time>
      </trkpt>
      <trkpt lat="49.94904" lon="2.17067">
        <ele>15</ele>
        <time>2022-03-02T13:03:58Z</time>
      </trkpt>
      <trkpt lat="49.94904" lon="2.17067">
        <ele>15</ele>
        <time>2022-03-02T13:03:59Z</time>
      </trkpt>
      <trkpt lat="49.94904" lon="2.17067">
        <ele>15</ele>
        <time>2022-03-02T13:04:00Z</time>
      </trkpt>
      <trkpt lat="49.94904" lon="2.17067">
        <ele>15</ele>
        <time>2022-03-02T13:04:01Z</time>
      </trkpt>
      <trkpt lat="49.94904" lon="2.17067">
        <ele>15</ele>
        <time>2022-03-02T13:04:02Z</time>
      </trkpt>
      <trkpt lat="49.94904" lon="2.17067">
        <ele>15</ele>
        <time>2022-03-02T13:04:03Z</time>
      </trkpt>
      <trkpt lat="49.94904" lon="2.17067">
        <ele>15</ele>
        <time>2022-03-02T13:04:04Z</time>
      </trkpt>
      <trkpt lat="49.94904" lon="2.17067">
        <ele>15</ele>
        <time>2022-03-02T13:04:05Z</time>
      </trkpt>
      <trkpt lat="49.94904" lon="2.17067">
        <ele>15</ele>
        <time>2022-03-02T13:04:06Z</time>
      </trkpt>
      <trkpt lat="49.94904" lon="2.17067">
        <ele>15</ele>
        <time>2022-03-02T13:04:07Z</time>
      </trkpt>
      <trkpt lat="49.94904" lon="2.17067">
        <ele>15</ele>
        <time>2022-03-02T13:04:08Z</time>
      </trkpt>
      <trkpt lat="49.94904" lon="2.17067">
        <ele>15</ele>
        <time>2022-03-02T13:04:09Z</time>
      </trkpt>
      <trkpt lat="49.94904" lon="2.17067">
        <ele>15</ele>
        <time>2022-03-02T13:04:11Z</time>
      </trkpt>
      <trkpt lat="49.94904" lon="2.17067">
        <ele>15</ele>
        <time>2022-03-02T13:04:12Z</time>
      </trkpt>
      <trkpt lat="49.94904" lon="2.17067">
        <ele>15</ele>
        <time>2022-03-02T13:04:13Z</time>
      </trkpt>
      <trkpt lat="49.94904" lon="2.17067">
        <ele>15</ele>
        <time>2022-03-02T13:04:14Z</time>
      </trkpt>
      <trkpt lat="49.94904" lon="2.17067">
        <ele>15</ele>
        <time>2022-03-02T13:04:16Z</time>
      </trkpt>
      <trkpt lat="49.94904" lon="2.17067">
        <ele>15</ele>
        <time>2022-03-02T13:04:17Z</time>
      </trkpt>
      <trkpt lat="49.94904" lon="2.17067">
        <ele>15</ele>
        <time>2022-03-02T13:04:18Z</time>
      </trkpt>
      <trkpt lat="49.94904" lon="2.17067">
        <ele>15</ele>
        <time>2022-03-02T13:04:20Z</time>
      </trkpt>
      <trkpt lat="49.94904" lon="2.17067">
        <ele>15</ele>
        <time>2022-03-02T13:04:22Z</time>
      </trkpt>
      <trkpt lat="49.94904" lon="2.17067">
        <ele>15</ele>
        <time>2022-03-02T13:04:23Z</time>
      </trkpt>
      <trkpt lat="49.94904" lon="2.17067">
        <ele>15</ele>
        <time>2022-03-02T13:04:24Z</time>
      </trkpt>
      <trkpt lat="49.94904" lon="2.17067">
        <ele>15</ele>
        <time>2022-03-02T13:04:25Z</time>
      </trkpt>
      <trkpt lat="49.94904" lon="2.17067">
        <ele>15</ele>
        <time>2022-03-02T13:04:26Z</time>
      </trkpt>
      <trkpt lat="49.94905" lon="2.17067">
        <ele>14.9</ele>
        <time>2022-03-02T13:04:27Z</time>
      </trkpt>
      <trkpt lat="49.94905" lon="2.17067">
        <ele>14.9</ele>
        <time>2022-03-02T13:04:29Z</time>
      </trkpt>
      <trkpt lat="49.94905" lon="2.17067">
        <ele>14.9</ele>
        <time>2022-03-02T13:04:30Z</time>
      </trkpt>
      <trkpt lat="49.94905" lon="2.17067">
        <ele>14.9</ele>
        <time>2022-03-02T13:04:31Z</time>
      </trkpt>
      <trkpt lat="49.94905" lon="2.17067">
        <ele>14.9</ele>
        <time>2022-03-02T13:04:32Z</time>
      </trkpt>
      <trkpt lat="49.94905" lon="2.17067">
        <ele>14.9</ele>
        <time>2022-03-02T13:04:33Z</time>
      </trkpt>
      <trkpt lat="49.94905" lon="2.17067">
        <ele>14.9</ele>
        <time>2022-03-02T13:04:34Z</time>
      </trkpt>
      <trkpt lat="49.94905" lon="2.17067">
        <ele>14.9</ele>
        <time>2022-03-02T13:04:35Z</time>
      </trkpt>
      <trkpt lat="49.94905" lon="2.17067">
        <ele>14.9</ele>
        <time>2022-03-02T13:04:36Z</time>
      </trkpt>
      <trkpt lat="49.94905" lon="2.17067">
        <ele>14.9</ele>
        <time>2022-03-02T13:04:37Z</time>
      </trkpt>
      <trkpt lat="49.94905" lon="2.17067">
        <ele>14.9</ele>
        <time>2022-03-02T13:04:38Z</time>
      </trkpt>
      <trkpt lat="49.94905" lon="2.17068">
        <ele>14.9</ele>
        <time>2022-03-02T13:04:39Z</time>
      </trkpt>
      <trkpt lat="49.94905" lon="2.17068">
        <ele>14.9</ele>
        <time>2022-03-02T13:04:40Z</time>
      </trkpt>
      <trkpt lat="49.94905" lon="2.17068">
        <ele>14.9</ele>
        <time>2022-03-02T13:04:41Z</time>
      </trkpt>
      <trkpt lat="49.94905" lon="2.17068">
        <ele>14.9</ele>
        <time>2022-03-02T13:04:42Z</time>
      </trkpt>
      <trkpt lat="49.94905" lon="2.17068">
        <ele>14.9</ele>
        <time>2022-03-02T13:04:43Z</time>
      </trkpt>
      <trkpt lat="49.94905" lon="2.17068">
        <ele>14.9</ele>
        <time>2022-03-02T13:04:44Z</time>
      </trkpt>
      <trkpt lat="49.94905" lon="2.17068">
        <ele>14.9</ele>
        <time>2022-03-02T13:04:45Z</time>
      </trkpt>
      <trkpt lat="49.94905" lon="2.17067">
        <ele>14.9</ele>
        <time>2022-03-02T13:04:46Z</time>
      </trkpt>
      <trkpt lat="49.94904" lon="2.17067">
        <ele>14.9</ele>
        <time>2022-03-02T13:04:47Z</time>
      </trkpt>
      <trkpt lat="49.94904" lon="2.17067">
        <ele>14.9</ele>
        <time>2022-03-02T13:04:48Z</time>
      </trkpt>
      <trkpt lat="49.94904" lon="2.17067">
        <ele>14.9</ele>
        <time>2022-03-02T13:04:49Z</time>
      </trkpt>
      <trkpt lat="49.94904" lon="2.17067">
        <ele>14.9</ele>
        <time>2022-03-02T13:04:50Z</time>
      </trkpt>
      <trkpt lat="49.94904" lon="2.17067">
        <ele>14.9</ele>
        <time>2022-03-02T13:04:51Z</time>
      </trkpt>
      <trkpt lat="49.94904" lon="2.17067">
        <ele>14.9</ele>
        <time>2022-03-02T13:04:52Z</time>
      </trkpt>
      <trkpt lat="49.94904" lon="2.17067">
        <ele>14.9</ele>
        <time>2022-03-02T13:04:53Z</time>
      </trkpt>
      <trkpt lat="49.94904" lon="2.17067">
        <ele>14.9</ele>
        <time>2022-03-02T13:04:55Z</time>
      </trkpt>
      <trkpt lat="49.94904" lon="2.17067">
        <ele>14.9</ele>
        <time>2022-03-02T13:04:56Z</time>
      </trkpt>
      <trkpt lat="49.94904" lon="2.17068">
        <ele>14.9</ele>
        <time>2022-03-02T13:04:57Z</time>
      </trkpt>
      <trkpt lat="49.94905" lon="2.17068">
        <ele>14.9</ele>
        <time>2022-03-02T13:04:59Z</time>
      </trkpt>
      <trkpt lat="49.94905" lon="2.17069">
        <ele>14.9</ele>
        <time>2022-03-02T13:05:00Z</time>
      </trkpt>
      <trkpt lat="49.94907" lon="2.1707">
        <ele>14.9</ele>
        <time>2022-03-02T13:05:01Z</time>
      </trkpt>
      <trkpt lat="49.94907" lon="2.17072">
        <ele>14.9</ele>
        <time>2022-03-02T13:05:03Z</time>
      </trkpt>
      <trkpt lat="49.94908" lon="2.17073">
        <ele>14.9</ele>
        <time>2022-03-02T13:05:04Z</time>
      </trkpt>
      <trkpt lat="49.94908" lon="2.17074">
        <ele>14.9</ele>
        <time>2022-03-02T13:05:05Z</time>
      </trkpt>
      <trkpt lat="49.94907" lon="2.17077">
        <ele>14.9</ele>
        <time>2022-03-02T13:05:06Z</time>
      </trkpt>
      <trkpt lat="49.94906" lon="2.17078">
        <ele>14.9</ele>
        <time>2022-03-02T13:05:07Z</time>
      </trkpt>
      <trkpt lat="49.94906" lon="2.1708">
        <ele>14.9</ele>
        <time>2022-03-02T13:05:08Z</time>
      </trkpt>
      <trkpt lat="49.94904" lon="2.17082">
        <ele>14.9</ele>
        <time>2022-03-02T13:05:09Z</time>
      </trkpt>
      <trkpt lat="49.94903" lon="2.17083">
        <ele>14.9</ele>
        <time>2022-03-02T13:05:11Z</time>
      </trkpt>
      <trkpt lat="49.94903" lon="2.17085">
        <ele>14.9</ele>
        <time>2022-03-02T13:05:12Z</time>
      </trkpt>
      <trkpt lat="49.94903" lon="2.17085">
        <ele>14.9</ele>
        <time>2022-03-02T13:05:13Z</time>
      </trkpt>
      <trkpt lat="49.94902" lon="2.17086">
        <ele>14.9</ele>
        <time>2022-03-02T13:05:14Z</time>
      </trkpt>
      <trkpt lat="49.94901" lon="2.17086">
        <ele>14.9</ele>
        <time>2022-03-02T13:05:15Z</time>
      </trkpt>
      <trkpt lat="49.949" lon="2.17087">
        <ele>14.9</ele>
        <time>2022-03-02T13:05:16Z</time>
      </trkpt>
      <trkpt lat="49.94899" lon="2.17088">
        <ele>14.9</ele>
        <time>2022-03-02T13:05:18Z</time>
      </trkpt>
      <trkpt lat="49.94898" lon="2.17089">
        <ele>14.9</ele>
        <time>2022-03-02T13:05:19Z</time>
      </trkpt>
      <trkpt lat="49.94898" lon="2.1709">
        <ele>14.9</ele>
        <time>2022-03-02T13:05:21Z</time>
      </trkpt>
      <trkpt lat="49.94897" lon="2.17092">
        <ele>14.9</ele>
        <time>2022-03-02T13:05:22Z</time>
      </trkpt>
      <trkpt lat="49.94896" lon="2.17093">
        <ele>14.9</ele>
        <time>2022-03-02T13:05:23Z</time>
      </trkpt>
      <trkpt lat="49.94896" lon="2.17093">
        <ele>14.8</ele>
        <time>2022-03-02T13:05:24Z</time>
      </trkpt>
      <trkpt lat="49.94895" lon="2.17094">
        <ele>14.8</ele>
        <time>2022-03-02T13:05:25Z</time>
      </trkpt>
      <trkpt lat="49.94894" lon="2.17095">
        <ele>14.8</ele>
        <time>2022-03-02T13:05:26Z</time>
      </trkpt>
      <trkpt lat="49.94894" lon="2.17096">
        <ele>14.8</ele>
        <time>2022-03-02T13:05:28Z</time>
      </trkpt>
      <trkpt lat="49.94893" lon="2.17097">
        <ele>14.8</ele>
        <time>2022-03-02T13:05:29Z</time>
      </trkpt>
      <trkpt lat="49.94893" lon="2.17098">
        <ele>14.8</ele>
        <time>2022-03-02T13:05:30Z</time>
      </trkpt>
      <trkpt lat="49.94893" lon="2.171">
        <ele>14.8</ele>
        <time>2022-03-02T13:05:31Z</time>
      </trkpt>
      <trkpt lat="49.94892" lon="2.17101">
        <ele>14.8</ele>
        <time>2022-03-02T13:05:32Z</time>
      </trkpt>
      <trkpt lat="49.94892" lon="2.17102">
        <ele>14.8</ele>
        <time>2022-03-02T13:05:33Z</time>
      </trkpt>
      <trkpt lat="49.94891" lon="2.17104">
        <ele>14.8</ele>
        <time>2022-03-02T13:05:34Z</time>
      </trkpt>
      <trkpt lat="49.9489" lon="2.17106">
        <ele>14.8</ele>
        <time>2022-03-02T13:05:36Z</time>
      </trkpt>
      <trkpt lat="49.94889" lon="2.17107">
        <ele>14.8</ele>
        <time>2022-03-02T13:05:37Z</time>
      </trkpt>
      <trkpt lat="49.94888" lon="2.17108">
        <ele>14.8</ele>
        <time>2022-03-02T13:05:38Z</time>
      </trkpt>
      <trkpt lat="49.94888" lon="2.1711">
        <ele>14.8</ele>
        <time>2022-03-02T13:05:39Z</time>
      </trkpt>
      <trkpt lat="49.94887" lon="2.17111">
        <ele>14.8</ele>
        <time>2022-03-02T13:05:40Z</time>
      </trkpt>
      <trkpt lat="49.94887" lon="2.17111">
        <ele>14.8</ele>
        <time>2022-03-02T13:05:41Z</time>
      </trkpt>
      <trkpt lat="49.94886" lon="2.17111">
        <ele>14.8</ele>
        <time>2022-03-02T13:05:42Z</time>
      </trkpt>
      <trkpt lat="49.94885" lon="2.17112">
        <ele>14.8</ele>
        <time>2022-03-02T13:05:43Z</time>
      </trkpt>
      <trkpt lat="49.94885" lon="2.17113">
        <ele>14.8</ele>
        <time>2022-03-02T13:05:45Z</time>
      </trkpt>
      <trkpt lat="49.94884" lon="2.17114">
        <ele>14.8</ele>
        <time>2022-03-02T13:05:46Z</time>
      </trkpt>
      <trkpt lat="49.94883" lon="2.17116">
        <ele>14.8</ele>
        <time>2022-03-02T13:05:47Z</time>
      </trkpt>
      <trkpt lat="49.94882" lon="2.17117">
        <ele>14.8</ele>
        <time>2022-03-02T13:05:48Z</time>
      </trkpt>
      <trkpt lat="49.94882" lon="2.17117">
        <ele>14.8</ele>
        <time>2022-03-02T13:05:49Z</time>
      </trkpt>
      <trkpt lat="49.94881" lon="2.17117">
        <ele>14.8</ele>
        <time>2022-03-02T13:05:50Z</time>
      </trkpt>
      <trkpt lat="49.9488" lon="2.17117">
        <ele>14.8</ele>
        <time>2022-03-02T13:05:52Z</time>
      </trkpt>
      <trkpt lat="49.94878" lon="2.17117">
        <ele>14.8</ele>
        <time>2022-03-02T13:05:53Z</time>
      </trkpt>
      <trkpt lat="49.94877" lon="2.17117">
        <ele>14.8</ele>
        <time>2022-03-02T13:05:54Z</time>
      </trkpt>
      <trkpt lat="49.94876" lon="2.17117">
        <ele>14.8</ele>
        <time>2022-03-02T13:05:55Z</time>
      </trkpt>
      <trkpt lat="49.94875" lon="2.17116">
        <ele>14.8</ele>
        <time>2022-03-02T13:05:57Z</time>
      </trkpt>
      <trkpt lat="49.94874" lon="2.17116">
        <ele>14.8</ele>
        <time>2022-03-02T13:05:58Z</time>
      </trkpt>
      <trkpt lat="49.94873" lon="2.17115">
        <ele>14.8</ele>
        <time>2022-03-02T13:05:59Z</time>
      </trkpt>
      <trkpt lat="49.94872" lon="2.17115">
        <ele>14.8</ele>
        <time>2022-03-02T13:06:00Z</time>
      </trkpt>
      <trkpt lat="49.9487" lon="2.17114">
        <ele>14.8</ele>
        <time>2022-03-02T13:06:01Z</time>
      </trkpt>
      <trkpt lat="49.94869" lon="2.17115">
        <ele>14.8</ele>
        <time>2022-03-02T13:06:02Z</time>
      </trkpt>
      <trkpt lat="49.94868" lon="2.17115">
        <ele>14.8</ele>
        <time>2022-03-02T13:06:03Z</time>
      </trkpt>
      <trkpt lat="49.94866" lon="2.17116">
        <ele>14.8</ele>
        <time>2022-03-02T13:06:04Z</time>
      </trkpt>
      <trkpt lat="49.94864" lon="2.17118">
        <ele>14.8</ele>
        <time>2022-03-02T13:06:06Z</time>
      </trkpt>
      <trkpt lat="49.94863" lon="2.17118">
        <ele>14.8</ele>
        <time>2022-03-02T13:06:07Z</time>
      </trkpt>
      <trkpt lat="49.94863" lon="2.17119">
        <ele>14.8</ele>
        <time>2022-03-02T13:06:08Z</time>
      </trkpt>
      <trkpt lat="49.94862" lon="2.1712">
        <ele>14.8</ele>
        <time>2022-03-02T13:06:09Z</time>
      </trkpt>
      <trkpt lat="49.94861" lon="2.1712">
        <ele>14.8</ele>
        <time>2022-03-02T13:06:10Z</time>
      </trkpt>
      <trkpt lat="49.9486" lon="2.17121">
        <ele>14.8</ele>
        <time>2022-03-02T13:06:12Z</time>
      </trkpt>
      <trkpt lat="49.94858" lon="2.17122">
        <ele>14.8</ele>
        <time>2022-03-02T13:06:13Z</time>
      </trkpt>
      <trkpt lat="49.94857" lon="2.17122">
        <ele>14.8</ele>
        <time>2022-03-02T13:06:14Z</time>
      </trkpt>
      <trkpt lat="49.94856" lon="2.17122">
        <ele>14.8</ele>
        <time>2022-03-02T13:06:15Z</time>
      </trkpt>
      <trkpt lat="49.94858" lon="2.1712">
        <ele>14.8</ele>
        <time>2022-03-02T13:06:16Z</time>
      </trkpt>
      <trkpt lat="49.94858" lon="2.17119">
        <ele>14.8</ele>
        <time>2022-03-02T13:06:17Z</time>
      </trkpt>
      <trkpt lat="49.94858" lon="2.17118">
        <ele>14.8</ele>
        <time>2022-03-02T13:06:18Z</time>
      </trkpt>
      <trkpt lat="49.94857" lon="2.17118">
        <ele>14.8</ele>
        <time>2022-03-02T13:06:19Z</time>
      </trkpt>
      <trkpt lat="49.94858" lon="2.17118">
        <ele>14.8</ele>
        <time>2022-03-02T13:06:20Z</time>
      </trkpt>
      <trkpt lat="49.94857" lon="2.17118">
        <ele>14.9</ele>
        <time>2022-03-02T13:06:21Z</time>
      </trkpt>
      <trkpt lat="49.94857" lon="2.17118">
        <ele>14.9</ele>
        <time>2022-03-02T13:06:23Z</time>
      </trkpt>
      <trkpt lat="49.94857" lon="2.17117">
        <ele>14.9</ele>
        <time>2022-03-02T13:06:24Z</time>
      </trkpt>
      <trkpt lat="49.94856" lon="2.17117">
        <ele>14.9</ele>
        <time>2022-03-02T13:06:25Z</time>
      </trkpt>
      <trkpt lat="49.94856" lon="2.17117">
        <ele>14.9</ele>
        <time>2022-03-02T13:06:26Z</time>
      </trkpt>
      <trkpt lat="49.94855" lon="2.17117">
        <ele>14.9</ele>
        <time>2022-03-02T13:06:27Z</time>
      </trkpt>
      <trkpt lat="49.94854" lon="2.17117">
        <ele>14.9</ele>
        <time>2022-03-02T13:06:28Z</time>
      </trkpt>
      <trkpt lat="49.94853" lon="2.17118">
        <ele>14.9</ele>
        <time>2022-03-02T13:06:29Z</time>
      </trkpt>
      <trkpt lat="49.94853" lon="2.17119">
        <ele>14.9</ele>
        <time>2022-03-02T13:06:30Z</time>
      </trkpt>
      <trkpt lat="49.94852" lon="2.1712">
        <ele>14.9</ele>
        <time>2022-03-02T13:06:31Z</time>
      </trkpt>
      <trkpt lat="49.94852" lon="2.17121">
        <ele>14.9</ele>
        <time>2022-03-02T13:06:32Z</time>
      </trkpt>
      <trkpt lat="49.94851" lon="2.17123">
        <ele>14.9</ele>
        <time>2022-03-02T13:06:34Z</time>
      </trkpt>
      <trkpt lat="49.9485" lon="2.17124">
        <ele>14.9</ele>
        <time>2022-03-02T13:06:35Z</time>
      </trkpt>
      <trkpt lat="49.94849" lon="2.17125">
        <ele>14.9</ele>
        <time>2022-03-02T13:06:36Z</time>
      </trkpt>
      <trkpt lat="49.94848" lon="2.17124">
        <ele>14.9</ele>
        <time>2022-03-02T13:06:37Z</time>
      </trkpt>
      <trkpt lat="49.94848" lon="2.17123">
        <ele>14.9</ele>
        <time>2022-03-02T13:06:38Z</time>
      </trkpt>
      <trkpt lat="49.94847" lon="2.17124">
        <ele>14.9</ele>
        <time>2022-03-02T13:06:39Z</time>
      </trkpt>
      <trkpt lat="49.94846" lon="2.17125">
        <ele>14.9</ele>
        <time>2022-03-02T13:06:40Z</time>
      </trkpt>
      <trkpt lat="49.94845" lon="2.17127">
        <ele>14.9</ele>
        <time>2022-03-02T13:06:42Z</time>
      </trkpt>
      <trkpt lat="49.94844" lon="2.17128">
        <ele>14.9</ele>
        <time>2022-03-02T13:06:43Z</time>
      </trkpt>
      <trkpt lat="49.94843" lon="2.17129">
        <ele>14.9</ele>
        <time>2022-03-02T13:06:44Z</time>
      </trkpt>
      <trkpt lat="49.94842" lon="2.1713">
        <ele>14.9</ele>
        <time>2022-03-02T13:06:45Z</time>
      </trkpt>
      <trkpt lat="49.94841" lon="2.17131">
        <ele>14.9</ele>
        <time>2022-03-02T13:06:46Z</time>
      </trkpt>
      <trkpt lat="49.9484" lon="2.17132">
        <ele>15</ele>
        <time>2022-03-02T13:06:47Z</time>
      </trkpt>
      <trkpt lat="49.94838" lon="2.17134">
        <ele>15</ele>
        <time>2022-03-02T13:06:48Z</time>
      </trkpt>
      <trkpt lat="49.94837" lon="2.17135">
        <ele>15</ele>
        <time>2022-03-02T13:06:49Z</time>
      </trkpt>
      <trkpt lat="49.94836" lon="2.17137">
        <ele>15</ele>
        <time>2022-03-02T13:06:51Z</time>
      </trkpt>
      <trkpt lat="49.94836" lon="2.17137">
        <ele>15</ele>
        <time>2022-03-02T13:06:52Z</time>
      </trkpt>
      <trkpt lat="49.94835" lon="2.17138">
        <ele>15</ele>
        <time>2022-03-02T13:06:53Z</time>
      </trkpt>
      <trkpt lat="49.94834" lon="2.17139">
        <ele>15</ele>
        <time>2022-03-02T13:06:54Z</time>
      </trkpt>
      <trkpt lat="49.94833" lon="2.1714">
        <ele>15</ele>
        <time>2022-03-02T13:06:55Z</time>
      </trkpt>
      <trkpt lat="49.94833" lon="2.1714">
        <ele>15</ele>
        <time>2022-03-02T13:06:57Z</time>
      </trkpt>
      <trkpt lat="49.94832" lon="2.17141">
        <ele>15</ele>
        <time>2022-03-02T13:06:58Z</time>
      </trkpt>
      <trkpt lat="49.94832" lon="2.17141">
        <ele>15</ele>
        <time>2022-03-02T13:06:59Z</time>
      </trkpt>
      <trkpt lat="49.94831" lon="2.17142">
        <ele>15</ele>
        <time>2022-03-02T13:07:00Z</time>
      </trkpt>
      <trkpt lat="49.94831" lon="2.17143">
        <ele>15</ele>
        <time>2022-03-02T13:07:01Z</time>
      </trkpt>
      <trkpt lat="49.9483" lon="2.17143">
        <ele>15</ele>
        <time>2022-03-02T13:07:03Z</time>
      </trkpt>
      <trkpt lat="49.94829" lon="2.17144">
        <ele>15</ele>
        <time>2022-03-02T13:07:04Z</time>
      </trkpt>
      <trkpt lat="49.94828" lon="2.17144">
        <ele>15</ele>
        <time>2022-03-02T13:07:05Z</time>
      </trkpt>
      <trkpt lat="49.94827" lon="2.17144">
        <ele>15</ele>
        <time>2022-03-02T13:07:06Z</time>
      </trkpt>
      <trkpt lat="49.94827" lon="2.17144">
        <ele>15</ele>
        <time>2022-03-02T13:07:07Z</time>
      </trkpt>
      <trkpt lat="49.94826" lon="2.17145">
        <ele>15</ele>
        <time>2022-03-02T13:07:08Z</time>
      </trkpt>
      <trkpt lat="49.94826" lon="2.17145">
        <ele>15</ele>
        <time>2022-03-02T13:07:09Z</time>
      </trkpt>
      <trkpt lat="49.94825" lon="2.17146">
        <ele>15</ele>
        <time>2022-03-02T13:07:10Z</time>
      </trkpt>
      <trkpt lat="49.94824" lon="2.17147">
        <ele>15</ele>
        <time>2022-03-02T13:07:11Z</time>
      </trkpt>
      <trkpt lat="49.94823" lon="2.17148">
        <ele>15</ele>
        <time>2022-03-02T13:07:12Z</time>
      </trkpt>
      <trkpt lat="49.94822" lon="2.17149">
        <ele>15</ele>
        <time>2022-03-02T13:07:13Z</time>
      </trkpt>
      <trkpt lat="49.94821" lon="2.1715">
        <ele>15</ele>
        <time>2022-03-02T13:07:14Z</time>
      </trkpt>
      <trkpt lat="49.9482" lon="2.17151">
        <ele>15</ele>
        <time>2022-03-02T13:07:15Z</time>
      </trkpt>
      <trkpt lat="49.94819" lon="2.17152">
        <ele>15</ele>
        <time>2022-03-02T13:07:16Z</time>
      </trkpt>
      <trkpt lat="49.94817" lon="2.17154">
        <ele>15</ele>
        <time>2022-03-02T13:07:17Z</time>
      </trkpt>
      <trkpt lat="49.94815" lon="2.17157">
        <ele>15</ele>
        <time>2022-03-02T13:07:19Z</time>
      </trkpt>
      <trkpt lat="49.94814" lon="2.17158">
        <ele>15</ele>
        <time>2022-03-02T13:07:20Z</time>
      </trkpt>
      <trkpt lat="49.94812" lon="2.17162">
        <ele>15</ele>
        <time>2022-03-02T13:07:21Z</time>
      </trkpt>
      <trkpt lat="49.9481" lon="2.17165">
        <ele>15.1</ele>
        <time>2022-03-02T13:07:22Z</time>
      </trkpt>
      <trkpt lat="49.9481" lon="2.17166">
        <ele>15.1</ele>
        <time>2022-03-02T13:07:23Z</time>
      </trkpt>
      <trkpt lat="49.94808" lon="2.17167">
        <ele>15.1</ele>
        <time>2022-03-02T13:07:24Z</time>
      </trkpt>
      <trkpt lat="49.94806" lon="2.17169">
        <ele>15.1</ele>
        <time>2022-03-02T13:07:26Z</time>
      </trkpt>
      <trkpt lat="49.94805" lon="2.17169">
        <ele>15.1</ele>
        <time>2022-03-02T13:07:27Z</time>
      </trkpt>
      <trkpt lat="49.94805" lon="2.1717">
        <ele>15.1</ele>
        <time>2022-03-02T13:07:28Z</time>
      </trkpt>
      <trkpt lat="49.94804" lon="2.17171">
        <ele>15.1</ele>
        <time>2022-03-02T13:07:29Z</time>
      </trkpt>
      <trkpt lat="49.94803" lon="2.17171">
        <ele>15.1</ele>
        <time>2022-03-02T13:07:30Z</time>
      </trkpt>
      <trkpt lat="49.94802" lon="2.17172">
        <ele>15.1</ele>
        <time>2022-03-02T13:07:31Z</time>
      </trkpt>
      <trkpt lat="49.94802" lon="2.17174">
        <ele>15.1</ele>
        <time>2022-03-02T13:07:32Z</time>
      </trkpt>
      <trkpt lat="49.948" lon="2.17176">
        <ele>15.1</ele>
        <time>2022-03-02T13:07:33Z</time>
      </trkpt>
      <trkpt lat="49.948" lon="2.17177">
        <ele>15.1</ele>
        <time>2022-03-02T13:07:34Z</time>
      </trkpt>
      <trkpt lat="49.94799" lon="2.17178">
        <ele>15.1</ele>
        <time>2022-03-02T13:07:35Z</time>
      </trkpt>
      <trkpt lat="49.94799" lon="2.1718">
        <ele>15.1</ele>
        <time>2022-03-02T13:07:36Z</time>
      </trkpt>
      <trkpt lat="49.94798" lon="2.17181">
        <ele>15.1</ele>
        <time>2022-03-02T13:07:37Z</time>
      </trkpt>
      <trkpt lat="49.94797" lon="2.17183">
        <ele>15.1</ele>
        <time>2022-03-02T13:07:39Z</time>
      </trkpt>
      <trkpt lat="49.94796" lon="2.17185">
        <ele>15.1</ele>
        <time>2022-03-02T13:07:40Z</time>
      </trkpt>
      <trkpt lat="49.94795" lon="2.17185">
        <ele>15.2</ele>
        <time>2022-03-02T13:07:41Z</time>
      </trkpt>
      <trkpt lat="49.94794" lon="2.17186">
        <ele>15.2</ele>
        <time>2022-03-02T13:07:42Z</time>
      </trkpt>
      <trkpt lat="49.94794" lon="2.17188">
        <ele>15.2</ele>
        <time>2022-03-02T13:07:44Z</time>
      </trkpt>
      <trkpt lat="49.94793" lon="2.17189">
        <ele>15.2</ele>
        <time>2022-03-02T13:07:45Z</time>
      </trkpt>
      <trkpt lat="49.94792" lon="2.1719">
        <ele>15.2</ele>
        <time>2022-03-02T13:07:46Z</time>
      </trkpt>
      <trkpt lat="49.94791" lon="2.17192">
        <ele>15.2</ele>
        <time>2022-03-02T13:07:47Z</time>
      </trkpt>
      <trkpt lat="49.94791" lon="2.17193">
        <ele>15.2</ele>
        <time>2022-03-02T13:07:48Z</time>
      </trkpt>
      <trkpt lat="49.9479" lon="2.17194">
        <ele>15.2</ele>
        <time>2022-03-02T13:07:49Z</time>
      </trkpt>
      <trkpt lat="49.94789" lon="2.17195">
        <ele>15.2</ele>
        <time>2022-03-02T13:07:50Z</time>
      </trkpt>
      <trkpt lat="49.94789" lon="2.17196">
        <ele>15.3</ele>
        <time>2022-03-02T13:07:51Z</time>
      </trkpt>
      <trkpt lat="49.94788" lon="2.17198">
        <ele>15.3</ele>
        <time>2022-03-02T13:07:52Z</time>
      </trkpt>
      <trkpt lat="49.94788" lon="2.17199">
        <ele>15.3</ele>
        <time>2022-03-02T13:07:53Z</time>
      </trkpt>
      <trkpt lat="49.94787" lon="2.17199">
        <ele>15.3</ele>
        <time>2022-03-02T13:07:54Z</time>
      </trkpt>
      <trkpt lat="49.94787" lon="2.172">
        <ele>15.3</ele>
        <time>2022-03-02T13:07:55Z</time>
      </trkpt>
      <trkpt lat="49.94786" lon="2.17201">
        <ele>15.3</ele>
        <time>2022-03-02T13:07:56Z</time>
      </trkpt>
      <trkpt lat="49.94785" lon="2.17202">
        <ele>15.3</ele>
        <time>2022-03-02T13:07:57Z</time>
      </trkpt>
      <trkpt lat="49.94784" lon="2.17203">
        <ele>15.3</ele>
        <time>2022-03-02T13:07:58Z</time>
      </trkpt>
      <trkpt lat="49.94784" lon="2.17204">
        <ele>15.3</ele>
        <time>2022-03-02T13:07:59Z</time>
      </trkpt>
      <trkpt lat="49.94783" lon="2.17205">
        <ele>15.3</ele>
        <time>2022-03-02T13:08:00Z</time>
      </trkpt>
      <trkpt lat="49.94782" lon="2.17206">
        <ele>15.3</ele>
        <time>2022-03-02T13:08:01Z</time>
      </trkpt>
      <trkpt lat="49.94782" lon="2.17207">
        <ele>15.4</ele>
        <time>2022-03-02T13:08:03Z</time>
      </trkpt>
      <trkpt lat="49.94781" lon="2.17208">
        <ele>15.4</ele>
        <time>2022-03-02T13:08:04Z</time>
      </trkpt>
      <trkpt lat="49.9478" lon="2.17209">
        <ele>15.4</ele>
        <time>2022-03-02T13:08:05Z</time>
      </trkpt>
      <trkpt lat="49.94779" lon="2.1721">
        <ele>15.4</ele>
        <time>2022-03-02T13:08:06Z</time>
      </trkpt>
      <trkpt lat="49.94778" lon="2.17212">
        <ele>15.4</ele>
        <time>2022-03-02T13:08:07Z</time>
      </trkpt>
      <trkpt lat="49.94777" lon="2.17213">
        <ele>15.4</ele>
        <time>2022-03-02T13:08:08Z</time>
      </trkpt>
      <trkpt lat="49.94776" lon="2.17215">
        <ele>15.4</ele>
        <time>2022-03-02T13:08:10Z</time>
      </trkpt>
      <trkpt lat="49.94775" lon="2.17216">
        <ele>15.4</ele>
        <time>2022-03-02T13:08:11Z</time>
      </trkpt>
      <trkpt lat="49.94774" lon="2.17217">
        <ele>15.4</ele>
        <time>2022-03-02T13:08:12Z</time>
      </trkpt>
      <trkpt lat="49.94773" lon="2.17218">
        <ele>15.5</ele>
        <time>2022-03-02T13:08:13Z</time>
      </trkpt>
      <trkpt lat="49.94772" lon="2.17219">
        <ele>15.5</ele>
        <time>2022-03-02T13:08:14Z</time>
      </trkpt>
      <trkpt lat="49.94771" lon="2.17221">
        <ele>15.5</ele>
        <time>2022-03-02T13:08:15Z</time>
      </trkpt>
      <trkpt lat="49.9477" lon="2.17222">
        <ele>15.5</ele>
        <time>2022-03-02T13:08:16Z</time>
      </trkpt>
      <trkpt lat="49.94769" lon="2.17224">
        <ele>15.5</ele>
        <time>2022-03-02T13:08:18Z</time>
      </trkpt>
      <trkpt lat="49.94768" lon="2.17224">
        <ele>15.5</ele>
        <time>2022-03-02T13:08:19Z</time>
      </trkpt>
      <trkpt lat="49.94767" lon="2.17225">
        <ele>15.5</ele>
        <time>2022-03-02T13:08:20Z</time>
      </trkpt>
      <trkpt lat="49.94766" lon="2.17226">
        <ele>15.5</ele>
        <time>2022-03-02T13:08:21Z</time>
      </trkpt>
      <trkpt lat="49.94765" lon="2.17228">
        <ele>15.5</ele>
        <time>2022-03-02T13:08:22Z</time>
      </trkpt>
      <trkpt lat="49.94763" lon="2.17229">
        <ele>15.4</ele>
        <time>2022-03-02T13:08:23Z</time>
      </trkpt>
      <trkpt lat="49.94762" lon="2.17231">
        <ele>15.4</ele>
        <time>2022-03-02T13:08:24Z</time>
      </trkpt>
      <trkpt lat="49.94761" lon="2.17232">
        <ele>15.4</ele>
        <time>2022-03-02T13:08:25Z</time>
      </trkpt>
      <trkpt lat="49.94759" lon="2.17234">
        <ele>15.4</ele>
        <time>2022-03-02T13:08:26Z</time>
      </trkpt>
      <trkpt lat="49.94758" lon="2.17235">
        <ele>15.4</ele>
        <time>2022-03-02T13:08:27Z</time>
      </trkpt>
      <trkpt lat="49.94756" lon="2.17236">
        <ele>15.4</ele>
        <time>2022-03-02T13:08:28Z</time>
      </trkpt>
      <trkpt lat="49.94755" lon="2.17238">
        <ele>15.4</ele>
        <time>2022-03-02T13:08:29Z</time>
      </trkpt>
      <trkpt lat="49.94753" lon="2.17239">
        <ele>15.4</ele>
        <time>2022-03-02T13:08:31Z</time>
      </trkpt>
      <trkpt lat="49.94752" lon="2.1724">
        <ele>15.4</ele>
        <time>2022-03-02T13:08:32Z</time>
      </trkpt>
      <trkpt lat="49.9475" lon="2.17241">
        <ele>15.4</ele>
        <time>2022-03-02T13:08:33Z</time>
      </trkpt>
      <trkpt lat="49.94749" lon="2.17243">
        <ele>15.4</ele>
        <time>2022-03-02T13:08:34Z</time>
      </trkpt>
      <trkpt lat="49.94748" lon="2.17245">
        <ele>15.3</ele>
        <time>2022-03-02T13:08:35Z</time>
      </trkpt>
      <trkpt lat="49.94746" lon="2.17247">
        <ele>15.3</ele>
        <time>2022-03-02T13:08:37Z</time>
      </trkpt>
      <trkpt lat="49.94745" lon="2.17248">
        <ele>15.3</ele>
        <time>2022-03-02T13:08:38Z</time>
      </trkpt>
      <trkpt lat="49.94745" lon="2.17249">
        <ele>15.3</ele>
        <time>2022-03-02T13:08:39Z</time>
      </trkpt>
      <trkpt lat="49.94744" lon="2.17251">
        <ele>15.3</ele>
        <time>2022-03-02T13:08:40Z</time>
      </trkpt>
      <trkpt lat="49.94743" lon="2.17253">
        <ele>15.3</ele>
        <time>2022-03-02T13:08:41Z</time>
      </trkpt>
      <trkpt lat="49.94741" lon="2.17258">
        <ele>15.3</ele>
        <time>2022-03-02T13:08:43Z</time>
      </trkpt>
      <trkpt lat="49.94741" lon="2.17259">
        <ele>15.3</ele>
        <time>2022-03-02T13:08:44Z</time>
      </trkpt>
      <trkpt lat="49.9474" lon="2.17261">
        <ele>15.3</ele>
        <time>2022-03-02T13:08:45Z</time>
      </trkpt>
      <trkpt lat="49.94739" lon="2.17263">
        <ele>15.3</ele>
        <time>2022-03-02T13:08:46Z</time>
      </trkpt>
      <trkpt lat="49.94738" lon="2.17265">
        <ele>15.3</ele>
        <time>2022-03-02T13:08:47Z</time>
      </trkpt>
      <trkpt lat="49.94737" lon="2.17267">
        <ele>15.3</ele>
        <time>2022-03-02T13:08:48Z</time>
      </trkpt>
      <trkpt lat="49.94736" lon="2.1727">
        <ele>15.3</ele>
        <time>2022-03-02T13:08:49Z</time>
      </trkpt>
      <trkpt lat="49.94735" lon="2.17273">
        <ele>15.3</ele>
        <time>2022-03-02T13:08:51Z</time>
      </trkpt>
      <trkpt lat="49.94734" lon="2.17275">
        <ele>15.3</ele>
        <time>2022-03-02T13:08:52Z</time>
      </trkpt>
      <trkpt lat="49.94733" lon="2.17277">
        <ele>15.3</ele>
        <time>2022-03-02T13:08:53Z</time>
      </trkpt>
      <trkpt lat="49.94731" lon="2.17281">
        <ele>15.3</ele>
        <time>2022-03-02T13:08:54Z</time>
      </trkpt>
      <trkpt lat="49.9473" lon="2.17282">
        <ele>15.3</ele>
        <time>2022-03-02T13:08:55Z</time>
      </trkpt>
      <trkpt lat="49.94729" lon="2.17286">
        <ele>15.3</ele>
        <time>2022-03-02T13:08:56Z</time>
      </trkpt>
      <trkpt lat="49.94729" lon="2.17287">
        <ele>15.3</ele>
        <time>2022-03-02T13:08:57Z</time>
      </trkpt>
      <trkpt lat="49.94727" lon="2.17291">
        <ele>15.3</ele>
        <time>2022-03-02T13:08:58Z</time>
      </trkpt>
      <trkpt lat="49.94727" lon="2.17292">
        <ele>15.3</ele>
        <time>2022-03-02T13:08:59Z</time>
      </trkpt>
      <trkpt lat="49.94727" lon="2.17295">
        <ele>15.3</ele>
        <time>2022-03-02T13:09:00Z</time>
      </trkpt>
      <trkpt lat="49.94727" lon="2.17298">
        <ele>15.3</ele>
        <time>2022-03-02T13:09:02Z</time>
      </trkpt>
      <trkpt lat="49.94727" lon="2.173">
        <ele>15.2</ele>
        <time>2022-03-02T13:09:03Z</time>
      </trkpt>
      <trkpt lat="49.94727" lon="2.17303">
        <ele>15.2</ele>
        <time>2022-03-02T13:09:04Z</time>
      </trkpt>
      <trkpt lat="49.94727" lon="2.17305">
        <ele>15.2</ele>
        <time>2022-03-02T13:09:05Z</time>
      </trkpt>
      <trkpt lat="49.94728" lon="2.17308">
        <ele>15.2</ele>
        <time>2022-03-02T13:09:06Z</time>
      </trkpt>
      <trkpt lat="49.94728" lon="2.1731">
        <ele>15.2</ele>
        <time>2022-03-02T13:09:07Z</time>
      </trkpt>
      <trkpt lat="49.94728" lon="2.17312">
        <ele>15.2</ele>
        <time>2022-03-02T13:09:08Z</time>
      </trkpt>
      <trkpt lat="49.94728" lon="2.17314">
        <ele>15.1</ele>
        <time>2022-03-02T13:09:10Z</time>
      </trkpt>
      <trkpt lat="49.94729" lon="2.17317">
        <ele>15.1</ele>
        <time>2022-03-02T13:09:11Z</time>
      </trkpt>
      <trkpt lat="49.94729" lon="2.17319">
        <ele>15.1</ele>
        <time>2022-03-02T13:09:12Z</time>
      </trkpt>
      <trkpt lat="49.94729" lon="2.1732">
        <ele>15.1</ele>
        <time>2022-03-02T13:09:13Z</time>
      </trkpt>
      <trkpt lat="49.94729" lon="2.17322">
        <ele>15.1</ele>
        <time>2022-03-02T13:09:14Z</time>
      </trkpt>
      <trkpt lat="49.94729" lon="2.17324">
        <ele>15</ele>
        <time>2022-03-02T13:09:16Z</time>
      </trkpt>
      <trkpt lat="49.94729" lon="2.17327">
        <ele>15</ele>
        <time>2022-03-02T13:09:17Z</time>
      </trkpt>
      <trkpt lat="49.9473" lon="2.17329">
        <ele>15</ele>
        <time>2022-03-02T13:09:18Z</time>
      </trkpt>
      <trkpt lat="49.9473" lon="2.1733">
        <ele>15</ele>
        <time>2022-03-02T13:09:19Z</time>
      </trkpt>
      <trkpt lat="49.9473" lon="2.17332">
        <ele>15</ele>
        <time>2022-03-02T13:09:20Z</time>
      </trkpt>
      <trkpt lat="49.94729" lon="2.17333">
        <ele>15</ele>
        <time>2022-03-02T13:09:21Z</time>
      </trkpt>
      <trkpt lat="49.94729" lon="2.17335">
        <ele>14.9</ele>
        <time>2022-03-02T13:09:22Z</time>
      </trkpt>
      <trkpt lat="49.94729" lon="2.17338">
        <ele>14.9</ele>
        <time>2022-03-02T13:09:23Z</time>
      </trkpt>
      <trkpt lat="49.94728" lon="2.17339">
        <ele>14.9</ele>
        <time>2022-03-02T13:09:25Z</time>
      </trkpt>
      <trkpt lat="49.94728" lon="2.17341">
        <ele>14.9</ele>
        <time>2022-03-02T13:09:26Z</time>
      </trkpt>
      <trkpt lat="49.94727" lon="2.17344">
        <ele>14.9</ele>
        <time>2022-03-02T13:09:27Z</time>
      </trkpt>
      <trkpt lat="49.94726" lon="2.17345">
        <ele>14.8</ele>
        <time>2022-03-02T13:09:28Z</time>
      </trkpt>
      <trkpt lat="49.94726" lon="2.17346">
        <ele>14.8</ele>
        <time>2022-03-02T13:09:29Z</time>
      </trkpt>
      <trkpt lat="49.94725" lon="2.17348">
        <ele>14.8</ele>
        <time>2022-03-02T13:09:30Z</time>
      </trkpt>
      <trkpt lat="49.94724" lon="2.17349">
        <ele>14.8</ele>
        <time>2022-03-02T13:09:31Z</time>
      </trkpt>
      <trkpt lat="49.94723" lon="2.17351">
        <ele>14.8</ele>
        <time>2022-03-02T13:09:33Z</time>
      </trkpt>
      <trkpt lat="49.94721" lon="2.17353">
        <ele>14.8</ele>
        <time>2022-03-02T13:09:34Z</time>
      </trkpt>
      <trkpt lat="49.9472" lon="2.17353">
        <ele>14.8</ele>
        <time>2022-03-02T13:09:35Z</time>
      </trkpt>
      <trkpt lat="49.94719" lon="2.17354">
        <ele>14.8</ele>
        <time>2022-03-02T13:09:36Z</time>
      </trkpt>
      <trkpt lat="49.94718" lon="2.17356">
        <ele>14.8</ele>
        <time>2022-03-02T13:09:37Z</time>
      </trkpt>
      <trkpt lat="49.94718" lon="2.17357">
        <ele>14.8</ele>
        <time>2022-03-02T13:09:38Z</time>
      </trkpt>
      <trkpt lat="49.94717" lon="2.17358">
        <ele>14.8</ele>
        <time>2022-03-02T13:09:39Z</time>
      </trkpt>
      <trkpt lat="49.94715" lon="2.17359">
        <ele>14.8</ele>
        <time>2022-03-02T13:09:40Z</time>
      </trkpt>
      <trkpt lat="49.94714" lon="2.1736">
        <ele>14.8</ele>
        <time>2022-03-02T13:09:41Z</time>
      </trkpt>
      <trkpt lat="49.94714" lon="2.17361">
        <ele>14.8</ele>
        <time>2022-03-02T13:09:43Z</time>
      </trkpt>
      <trkpt lat="49.94713" lon="2.17362">
        <ele>14.8</ele>
        <time>2022-03-02T13:09:44Z</time>
      </trkpt>
      <trkpt lat="49.94712" lon="2.17363">
        <ele>14.8</ele>
        <time>2022-03-02T13:09:45Z</time>
      </trkpt>
      <trkpt lat="49.94711" lon="2.17364">
        <ele>14.8</ele>
        <time>2022-03-02T13:09:46Z</time>
      </trkpt>
      <trkpt lat="49.9471" lon="2.17364">
        <ele>14.8</ele>
        <time>2022-03-02T13:09:47Z</time>
      </trkpt>
      <trkpt lat="49.94709" lon="2.17364">
        <ele>14.8</ele>
        <time>2022-03-02T13:09:49Z</time>
      </trkpt>
      <trkpt lat="49.94708" lon="2.17365">
        <ele>14.8</ele>
        <time>2022-03-02T13:09:50Z</time>
      </trkpt>
      <trkpt lat="49.94707" lon="2.17364">
        <ele>14.8</ele>
        <time>2022-03-02T13:09:51Z</time>
      </trkpt>
      <trkpt lat="49.94707" lon="2.17365">
        <ele>14.8</ele>
        <time>2022-03-02T13:09:52Z</time>
      </trkpt>
      <trkpt lat="49.94706" lon="2.17365">
        <ele>14.8</ele>
        <time>2022-03-02T13:09:53Z</time>
      </trkpt>
      <trkpt lat="49.94705" lon="2.17365">
        <ele>14.8</ele>
        <time>2022-03-02T13:09:54Z</time>
      </trkpt>
      <trkpt lat="49.94704" lon="2.17366">
        <ele>14.8</ele>
        <time>2022-03-02T13:09:55Z</time>
      </trkpt>
      <trkpt lat="49.94703" lon="2.17367">
        <ele>14.8</ele>
        <time>2022-03-02T13:09:56Z</time>
      </trkpt>
      <trkpt lat="49.94702" lon="2.17368">
        <ele>14.8</ele>
        <time>2022-03-02T13:09:57Z</time>
      </trkpt>
      <trkpt lat="49.94701" lon="2.17369">
        <ele>14.9</ele>
        <time>2022-03-02T13:09:58Z</time>
      </trkpt>
      <trkpt lat="49.947" lon="2.17371">
        <ele>14.9</ele>
        <time>2022-03-02T13:10:00Z</time>
      </trkpt>
      <trkpt lat="49.947" lon="2.17373">
        <ele>14.9</ele>
        <time>2022-03-02T13:10:01Z</time>
      </trkpt>
      <trkpt lat="49.94699" lon="2.17376">
        <ele>14.9</ele>
        <time>2022-03-02T13:10:02Z</time>
      </trkpt>
      <trkpt lat="49.94699" lon="2.17378">
        <ele>14.9</ele>
        <time>2022-03-02T13:10:03Z</time>
      </trkpt>
      <trkpt lat="49.94699" lon="2.17379">
        <ele>14.9</ele>
        <time>2022-03-02T13:10:04Z</time>
      </trkpt>
      <trkpt lat="49.94699" lon="2.17383">
        <ele>14.9</ele>
        <time>2022-03-02T13:10:05Z</time>
      </trkpt>
      <trkpt lat="49.94699" lon="2.17385">
        <ele>14.9</ele>
        <time>2022-03-02T13:10:06Z</time>
      </trkpt>
      <trkpt lat="49.94699" lon="2.17387">
        <ele>14.9</ele>
        <time>2022-03-02T13:10:08Z</time>
      </trkpt>
      <trkpt lat="49.94699" lon="2.1739">
        <ele>14.9</ele>
        <time>2022-03-02T13:10:09Z</time>
      </trkpt>
      <trkpt lat="49.94699" lon="2.17393">
        <ele>14.9</ele>
        <time>2022-03-02T13:10:10Z</time>
      </trkpt>
      <trkpt lat="49.94699" lon="2.17395">
        <ele>14.9</ele>
        <time>2022-03-02T13:10:11Z</time>
      </trkpt>
      <trkpt lat="49.94699" lon="2.17397">
        <ele>14.9</ele>
        <time>2022-03-02T13:10:12Z</time>
      </trkpt>
      <trkpt lat="49.947" lon="2.17399">
        <ele>14.9</ele>
        <time>2022-03-02T13:10:13Z</time>
      </trkpt>
      <trkpt lat="49.947" lon="2.174">
        <ele>14.9</ele>
        <time>2022-03-02T13:10:14Z</time>
      </trkpt>
      <trkpt lat="49.94699" lon="2.17402">
        <ele>14.9</ele>
        <time>2022-03-02T13:10:15Z</time>
      </trkpt>
      <trkpt lat="49.94699" lon="2.17404">
        <ele>14.9</ele>
        <time>2022-03-02T13:10:16Z</time>
      </trkpt>
      <trkpt lat="49.94698" lon="2.17405">
        <ele>14.9</ele>
        <time>2022-03-02T13:10:17Z</time>
      </trkpt>
      <trkpt lat="49.94698" lon="2.17407">
        <ele>14.9</ele>
        <time>2022-03-02T13:10:18Z</time>
      </trkpt>
      <trkpt lat="49.94697" lon="2.17408">
        <ele>14.9</ele>
        <time>2022-03-02T13:10:20Z</time>
      </trkpt>
      <trkpt lat="49.94697" lon="2.1741">
        <ele>14.9</ele>
        <time>2022-03-02T13:10:21Z</time>
      </trkpt>
      <trkpt lat="49.94697" lon="2.17411">
        <ele>14.9</ele>
        <time>2022-03-02T13:10:22Z</time>
      </trkpt>
      <trkpt lat="49.94696" lon="2.17413">
        <ele>14.9</ele>
        <time>2022-03-02T13:10:23Z</time>
      </trkpt>
      <trkpt lat="49.94696" lon="2.17415">
        <ele>14.9</ele>
        <time>2022-03-02T13:10:24Z</time>
      </trkpt>
      <trkpt lat="49.94695" lon="2.17417">
        <ele>14.9</ele>
        <time>2022-03-02T13:10:25Z</time>
      </trkpt>
      <trkpt lat="49.94695" lon="2.17419">
        <ele>14.9</ele>
        <time>2022-03-02T13:10:26Z</time>
      </trkpt>
      <trkpt lat="49.94694" lon="2.1742">
        <ele>14.9</ele>
        <time>2022-03-02T13:10:27Z</time>
      </trkpt>
      <trkpt lat="49.94694" lon="2.17422">
        <ele>14.8</ele>
        <time>2022-03-02T13:10:29Z</time>
      </trkpt>
      <trkpt lat="49.94694" lon="2.17424">
        <ele>14.8</ele>
        <time>2022-03-02T13:10:30Z</time>
      </trkpt>
      <trkpt lat="49.94693" lon="2.17426">
        <ele>14.8</ele>
        <time>2022-03-02T13:10:31Z</time>
      </trkpt>
      <trkpt lat="49.94693" lon="2.17428">
        <ele>14.8</ele>
        <time>2022-03-02T13:10:32Z</time>
      </trkpt>
      <trkpt lat="49.94693" lon="2.1743">
        <ele>14.8</ele>
        <time>2022-03-02T13:10:33Z</time>
      </trkpt>
      <trkpt lat="49.94692" lon="2.17434">
        <ele>14.8</ele>
        <time>2022-03-02T13:10:34Z</time>
      </trkpt>
      <trkpt lat="49.94692" lon="2.17435">
        <ele>14.8</ele>
        <time>2022-03-02T13:10:36Z</time>
      </trkpt>
      <trkpt lat="49.94691" lon="2.17437">
        <ele>14.8</ele>
        <time>2022-03-02T13:10:37Z</time>
      </trkpt>
      <trkpt lat="49.94691" lon="2.17438">
        <ele>14.8</ele>
        <time>2022-03-02T13:10:38Z</time>
      </trkpt>
      <trkpt lat="49.94691" lon="2.1744">
        <ele>14.8</ele>
        <time>2022-03-02T13:10:39Z</time>
      </trkpt>
      <trkpt lat="49.9469" lon="2.17441">
        <ele>14.8</ele>
        <time>2022-03-02T13:10:40Z</time>
      </trkpt>
      <trkpt lat="49.94688" lon="2.17444">
        <ele>14.8</ele>
        <time>2022-03-02T13:10:42Z</time>
      </trkpt>
      <trkpt lat="49.94687" lon="2.17446">
        <ele>14.8</ele>
        <time>2022-03-02T13:10:43Z</time>
      </trkpt>
      <trkpt lat="49.94686" lon="2.17449">
        <ele>14.8</ele>
        <time>2022-03-02T13:10:44Z</time>
      </trkpt>
      <trkpt lat="49.94685" lon="2.1745">
        <ele>14.8</ele>
        <time>2022-03-02T13:10:45Z</time>
      </trkpt>
      <trkpt lat="49.94684" lon="2.17453">
        <ele>14.8</ele>
        <time>2022-03-02T13:10:46Z</time>
      </trkpt>
      <trkpt lat="49.94683" lon="2.17455">
        <ele>14.8</ele>
        <time>2022-03-02T13:10:47Z</time>
      </trkpt>
      <trkpt lat="49.94683" lon="2.17457">
        <ele>14.7</ele>
        <time>2022-03-02T13:10:48Z</time>
      </trkpt>
      <trkpt lat="49.94682" lon="2.17458">
        <ele>14.7</ele>
        <time>2022-03-02T13:10:49Z</time>
      </trkpt>
      <trkpt lat="49.94681" lon="2.1746">
        <ele>14.7</ele>
        <time>2022-03-02T13:10:50Z</time>
      </trkpt>
      <trkpt lat="49.94681" lon="2.17461">
        <ele>14.7</ele>
        <time>2022-03-02T13:10:51Z</time>
      </trkpt>
      <trkpt lat="49.9468" lon="2.17463">
        <ele>14.7</ele>
        <time>2022-03-02T13:10:52Z</time>
      </trkpt>
      <trkpt lat="49.9468" lon="2.17464">
        <ele>14.7</ele>
        <time>2022-03-02T13:10:53Z</time>
      </trkpt>
      <trkpt lat="49.9468" lon="2.17465">
        <ele>14.7</ele>
        <time>2022-03-02T13:10:54Z</time>
      </trkpt>
      <trkpt lat="49.9468" lon="2.17465">
        <ele>14.7</ele>
        <time>2022-03-02T13:10:55Z</time>
      </trkpt>
      <trkpt lat="49.9468" lon="2.17465">
        <ele>14.7</ele>
        <time>2022-03-02T13:10:56Z</time>
      </trkpt>
      <trkpt lat="49.9468" lon="2.17466">
        <ele>14.7</ele>
        <time>2022-03-02T13:10:57Z</time>
      </trkpt>
      <trkpt lat="49.9468" lon="2.17468">
        <ele>14.7</ele>
        <time>2022-03-02T13:10:58Z</time>
      </trkpt>
      <trkpt lat="49.94679" lon="2.17469">
        <ele>14.7</ele>
        <time>2022-03-02T13:11:00Z</time>
      </trkpt>
      <trkpt lat="49.94679" lon="2.1747">
        <ele>14.7</ele>
        <time>2022-03-02T13:11:01Z</time>
      </trkpt>
      <trkpt lat="49.94678" lon="2.17473">
        <ele>14.7</ele>
        <time>2022-03-02T13:11:02Z</time>
      </trkpt>
      <trkpt lat="49.94678" lon="2.17474">
        <ele>14.7</ele>
        <time>2022-03-02T13:11:03Z</time>
      </trkpt>
      <trkpt lat="49.94677" lon="2.17475">
        <ele>14.7</ele>
        <time>2022-03-02T13:11:04Z</time>
      </trkpt>
      <trkpt lat="49.94677" lon="2.17478">
        <ele>14.7</ele>
        <time>2022-03-02T13:11:06Z</time>
      </trkpt>
      <trkpt lat="49.94677" lon="2.1748">
        <ele>14.7</ele>
        <time>2022-03-02T13:11:07Z</time>
      </trkpt>
      <trkpt lat="49.94676" lon="2.17482">
        <ele>14.7</ele>
        <time>2022-03-02T13:11:08Z</time>
      </trkpt>
      <trkpt lat="49.94676" lon="2.17484">
        <ele>14.6</ele>
        <time>2022-03-02T13:11:09Z</time>
      </trkpt>
      <trkpt lat="49.94676" lon="2.17487">
        <ele>14.6</ele>
        <time>2022-03-02T13:11:11Z</time>
      </trkpt>
      <trkpt lat="49.94676" lon="2.17489">
        <ele>14.6</ele>
        <time>2022-03-02T13:11:12Z</time>
      </trkpt>
      <trkpt lat="49.94677" lon="2.17492">
        <ele>14.6</ele>
        <time>2022-03-02T13:11:13Z</time>
      </trkpt>
      <trkpt lat="49.94677" lon="2.17494">
        <ele>14.6</ele>
        <time>2022-03-02T13:11:14Z</time>
      </trkpt>
      <trkpt lat="49.94677" lon="2.17496">
        <ele>14.6</ele>
        <time>2022-03-02T13:11:15Z</time>
      </trkpt>
      <trkpt lat="49.94678" lon="2.17499">
        <ele>14.6</ele>
        <time>2022-03-02T13:11:16Z</time>
      </trkpt>
      <trkpt lat="49.94678" lon="2.17502">
        <ele>14.5</ele>
        <time>2022-03-02T13:11:18Z</time>
      </trkpt>
      <trkpt lat="49.94678" lon="2.17503">
        <ele>14.5</ele>
        <time>2022-03-02T13:11:19Z</time>
      </trkpt>
      <trkpt lat="49.94678" lon="2.17504">
        <ele>14.5</ele>
        <time>2022-03-02T13:11:20Z</time>
      </trkpt>
      <trkpt lat="49.94678" lon="2.17506">
        <ele>14.5</ele>
        <time>2022-03-02T13:11:21Z</time>
      </trkpt>
      <trkpt lat="49.94678" lon="2.17508">
        <ele>14.5</ele>
        <time>2022-03-02T13:11:22Z</time>
      </trkpt>
      <trkpt lat="49.94678" lon="2.17509">
        <ele>14.5</ele>
        <time>2022-03-02T13:11:23Z</time>
      </trkpt>
      <trkpt lat="49.94677" lon="2.1751">
        <ele>14.5</ele>
        <time>2022-03-02T13:11:24Z</time>
      </trkpt>
      <trkpt lat="49.94676" lon="2.17511">
        <ele>14.5</ele>
        <time>2022-03-02T13:11:25Z</time>
      </trkpt>
      <trkpt lat="49.94676" lon="2.17512">
        <ele>14.5</ele>
        <time>2022-03-02T13:11:27Z</time>
      </trkpt>
      <trkpt lat="49.94675" lon="2.17512">
        <ele>14.5</ele>
        <time>2022-03-02T13:11:28Z</time>
      </trkpt>
      <trkpt lat="49.94674" lon="2.17515">
        <ele>14.5</ele>
        <time>2022-03-02T13:11:29Z</time>
      </trkpt>
      <trkpt lat="49.94673" lon="2.17516">
        <ele>14.5</ele>
        <time>2022-03-02T13:11:30Z</time>
      </trkpt>
      <trkpt lat="49.94673" lon="2.17517">
        <ele>14.5</ele>
        <time>2022-03-02T13:11:31Z</time>
      </trkpt>
      <trkpt lat="49.94671" lon="2.17518">
        <ele>14.5</ele>
        <time>2022-03-02T13:11:32Z</time>
      </trkpt>
      <trkpt lat="49.9467" lon="2.17519">
        <ele>14.5</ele>
        <time>2022-03-02T13:11:33Z</time>
      </trkpt>
      <trkpt lat="49.94668" lon="2.17522">
        <ele>14.5</ele>
        <time>2022-03-02T13:11:34Z</time>
      </trkpt>
      <trkpt lat="49.94667" lon="2.17523">
        <ele>14.5</ele>
        <time>2022-03-02T13:11:36Z</time>
      </trkpt>
      <trkpt lat="49.94667" lon="2.17524">
        <ele>14.5</ele>
        <time>2022-03-02T13:11:37Z</time>
      </trkpt>
      <trkpt lat="49.94666" lon="2.17525">
        <ele>14.5</ele>
        <time>2022-03-02T13:11:38Z</time>
      </trkpt>
      <trkpt lat="49.94665" lon="2.17526">
        <ele>14.5</ele>
        <time>2022-03-02T13:11:39Z</time>
      </trkpt>
      <trkpt lat="49.94663" lon="2.17528">
        <ele>14.6</ele>
        <time>2022-03-02T13:11:40Z</time>
      </trkpt>
      <trkpt lat="49.94663" lon="2.17529">
        <ele>14.6</ele>
        <time>2022-03-02T13:11:41Z</time>
      </trkpt>
      <trkpt lat="49.94662" lon="2.1753">
        <ele>14.6</ele>
        <time>2022-03-02T13:11:42Z</time>
      </trkpt>
      <trkpt lat="49.94662" lon="2.17531">
        <ele>14.6</ele>
        <time>2022-03-02T13:11:43Z</time>
      </trkpt>
      <trkpt lat="49.94661" lon="2.17533">
        <ele>14.6</ele>
        <time>2022-03-02T13:11:44Z</time>
      </trkpt>
      <trkpt lat="49.94661" lon="2.17535">
        <ele>14.6</ele>
        <time>2022-03-02T13:11:45Z</time>
      </trkpt>
      <trkpt lat="49.94661" lon="2.17538">
        <ele>14.6</ele>
        <time>2022-03-02T13:11:47Z</time>
      </trkpt>
      <trkpt lat="49.9466" lon="2.17539">
        <ele>14.6</ele>
        <time>2022-03-02T13:11:48Z</time>
      </trkpt>
      <trkpt lat="49.9466" lon="2.1754">
        <ele>14.6</ele>
        <time>2022-03-02T13:11:49Z</time>
      </trkpt>
      <trkpt lat="49.9466" lon="2.17542">
        <ele>14.6</ele>
        <time>2022-03-02T13:11:50Z</time>
      </trkpt>
      <trkpt lat="49.94659" lon="2.17544">
        <ele>14.6</ele>
        <time>2022-03-02T13:11:51Z</time>
      </trkpt>
      <trkpt lat="49.94659" lon="2.17548">
        <ele>14.7</ele>
        <time>2022-03-02T13:11:52Z</time>
      </trkpt>
      <trkpt lat="49.94659" lon="2.17549">
        <ele>14.7</ele>
        <time>2022-03-02T13:11:53Z</time>
      </trkpt>
      <trkpt lat="49.94659" lon="2.1755">
        <ele>14.7</ele>
        <time>2022-03-02T13:11:54Z</time>
      </trkpt>
      <trkpt lat="49.94659" lon="2.17554">
        <ele>14.7</ele>
        <time>2022-03-02T13:11:55Z</time>
      </trkpt>
      <trkpt lat="49.94659" lon="2.17555">
        <ele>14.7</ele>
        <time>2022-03-02T13:11:57Z</time>
      </trkpt>
      <trkpt lat="49.94659" lon="2.17557">
        <ele>14.7</ele>
        <time>2022-03-02T13:11:58Z</time>
      </trkpt>
      <trkpt lat="49.94659" lon="2.17559">
        <ele>14.7</ele>
        <time>2022-03-02T13:11:59Z</time>
      </trkpt>
      <trkpt lat="49.94659" lon="2.1756">
        <ele>14.7</ele>
        <time>2022-03-02T13:12:00Z</time>
      </trkpt>
      <trkpt lat="49.9466" lon="2.17562">
        <ele>14.7</ele>
        <time>2022-03-02T13:12:01Z</time>
      </trkpt>
      <trkpt lat="49.9466" lon="2.17563">
        <ele>14.7</ele>
        <time>2022-03-02T13:12:02Z</time>
      </trkpt>
      <trkpt lat="49.94661" lon="2.17564">
        <ele>14.7</ele>
        <time>2022-03-02T13:12:03Z</time>
      </trkpt>
      <trkpt lat="49.94661" lon="2.17567">
        <ele>14.7</ele>
        <time>2022-03-02T13:12:05Z</time>
      </trkpt>
      <trkpt lat="49.94662" lon="2.17568">
        <ele>14.7</ele>
        <time>2022-03-02T13:12:06Z</time>
      </trkpt>
      <trkpt lat="49.94662" lon="2.17571">
        <ele>14.7</ele>
        <time>2022-03-02T13:12:07Z</time>
      </trkpt>
      <trkpt lat="49.94662" lon="2.17573">
        <ele>14.7</ele>
        <time>2022-03-02T13:12:08Z</time>
      </trkpt>
      <trkpt lat="49.94663" lon="2.17576">
        <ele>14.7</ele>
        <time>2022-03-02T13:12:09Z</time>
      </trkpt>
      <trkpt lat="49.94663" lon="2.17577">
        <ele>14.7</ele>
        <time>2022-03-02T13:12:10Z</time>
      </trkpt>
      <trkpt lat="49.94663" lon="2.17579">
        <ele>14.7</ele>
        <time>2022-03-02T13:12:11Z</time>
      </trkpt>
      <trkpt lat="49.94663" lon="2.1758">
        <ele>14.7</ele>
        <time>2022-03-02T13:12:12Z</time>
      </trkpt>
      <trkpt lat="49.94663" lon="2.17582">
        <ele>14.6</ele>
        <time>2022-03-02T13:12:13Z</time>
      </trkpt>
      <trkpt lat="49.94663" lon="2.17584">
        <ele>14.6</ele>
        <time>2022-03-02T13:12:15Z</time>
      </trkpt>
      <trkpt lat="49.94663" lon="2.17587">
        <ele>14.6</ele>
        <time>2022-03-02T13:12:16Z</time>
      </trkpt>
      <trkpt lat="49.94664" lon="2.17591">
        <ele>14.6</ele>
        <time>2022-03-02T13:12:18Z</time>
      </trkpt>
      <trkpt lat="49.94664" lon="2.17594">
        <ele>14.6</ele>
        <time>2022-03-02T13:12:19Z</time>
      </trkpt>
      <trkpt lat="49.94664" lon="2.17595">
        <ele>14.6</ele>
        <time>2022-03-02T13:12:20Z</time>
      </trkpt>
      <trkpt lat="49.94664" lon="2.17598">
        <ele>14.6</ele>
        <time>2022-03-02T13:12:22Z</time>
      </trkpt>
      <trkpt lat="49.94664" lon="2.176">
        <ele>14.6</ele>
        <time>2022-03-02T13:12:23Z</time>
      </trkpt>
      <trkpt lat="49.94664" lon="2.17602">
        <ele>14.6</ele>
        <time>2022-03-02T13:12:24Z</time>
      </trkpt>
      <trkpt lat="49.94664" lon="2.17604">
        <ele>14.5</ele>
        <time>2022-03-02T13:12:25Z</time>
      </trkpt>
      <trkpt lat="49.94664" lon="2.17606">
        <ele>14.5</ele>
        <time>2022-03-02T13:12:26Z</time>
      </trkpt>
      <trkpt lat="49.94663" lon="2.17609">
        <ele>14.5</ele>
        <time>2022-03-02T13:12:27Z</time>
      </trkpt>
      <trkpt lat="49.94662" lon="2.17611">
        <ele>14.5</ele>
        <time>2022-03-02T13:12:29Z</time>
      </trkpt>
      <trkpt lat="49.94661" lon="2.17612">
        <ele>14.5</ele>
        <time>2022-03-02T13:12:30Z</time>
      </trkpt>
      <trkpt lat="49.94661" lon="2.17614">
        <ele>14.5</ele>
        <time>2022-03-02T13:12:31Z</time>
      </trkpt>
      <trkpt lat="49.9466" lon="2.17616">
        <ele>14.4</ele>
        <time>2022-03-02T13:12:32Z</time>
      </trkpt>
      <trkpt lat="49.94659" lon="2.17617">
        <ele>14.4</ele>
        <time>2022-03-02T13:12:33Z</time>
      </trkpt>
      <trkpt lat="49.94657" lon="2.17618">
        <ele>14.4</ele>
        <time>2022-03-02T13:12:34Z</time>
      </trkpt>
      <trkpt lat="49.94656" lon="2.17619">
        <ele>14.4</ele>
        <time>2022-03-02T13:12:35Z</time>
      </trkpt>
      <trkpt lat="49.94655" lon="2.1762">
        <ele>14.4</ele>
        <time>2022-03-02T13:12:36Z</time>
      </trkpt>
      <trkpt lat="49.94653" lon="2.17621">
        <ele>14.3</ele>
        <time>2022-03-02T13:12:38Z</time>
      </trkpt>
      <trkpt lat="49.94652" lon="2.17621">
        <ele>14.3</ele>
        <time>2022-03-02T13:12:39Z</time>
      </trkpt>
      <trkpt lat="49.94651" lon="2.17621">
        <ele>14.3</ele>
        <time>2022-03-02T13:12:40Z</time>
      </trkpt>
      <trkpt lat="49.94649" lon="2.17621">
        <ele>14.3</ele>
        <time>2022-03-02T13:12:41Z</time>
      </trkpt>
      <trkpt lat="49.94648" lon="2.17622">
        <ele>14.3</ele>
        <time>2022-03-02T13:12:42Z</time>
      </trkpt>
      <trkpt lat="49.94647" lon="2.17624">
        <ele>14.3</ele>
        <time>2022-03-02T13:12:43Z</time>
      </trkpt>
      <trkpt lat="49.94647" lon="2.17625">
        <ele>14.3</ele>
        <time>2022-03-02T13:12:45Z</time>
      </trkpt>
      <trkpt lat="49.94646" lon="2.17627">
        <ele>14.3</ele>
        <time>2022-03-02T13:12:46Z</time>
      </trkpt>
      <trkpt lat="49.94646" lon="2.17628">
        <ele>14.3</ele>
        <time>2022-03-02T13:12:47Z</time>
      </trkpt>
      <trkpt lat="49.94647" lon="2.1763">
        <ele>14.3</ele>
        <time>2022-03-02T13:12:48Z</time>
      </trkpt>
      <trkpt lat="49.94647" lon="2.17632">
        <ele>14.2</ele>
        <time>2022-03-02T13:12:49Z</time>
      </trkpt>
      <trkpt lat="49.94649" lon="2.17633">
        <ele>14.2</ele>
        <time>2022-03-02T13:12:50Z</time>
      </trkpt>
      <trkpt lat="49.94651" lon="2.17633">
        <ele>14.2</ele>
        <time>2022-03-02T13:12:51Z</time>
      </trkpt>
      <trkpt lat="49.94654" lon="2.17634">
        <ele>14.2</ele>
        <time>2022-03-02T13:12:52Z</time>
      </trkpt>
      <trkpt lat="49.94655" lon="2.17635">
        <ele>14.2</ele>
        <time>2022-03-02T13:12:53Z</time>
      </trkpt>
      <trkpt lat="49.94655" lon="2.17637">
        <ele>14.2</ele>
        <time>2022-03-02T13:12:55Z</time>
      </trkpt>
      <trkpt lat="49.94655" lon="2.17638">
        <ele>14.2</ele>
        <time>2022-03-02T13:12:56Z</time>
      </trkpt>
      <trkpt lat="49.94655" lon="2.1764">
        <ele>14.2</ele>
        <time>2022-03-02T13:12:57Z</time>
      </trkpt>
      <trkpt lat="49.94654" lon="2.17643">
        <ele>14.2</ele>
        <time>2022-03-02T13:12:58Z</time>
      </trkpt>
      <trkpt lat="49.94653" lon="2.17644">
        <ele>14.2</ele>
        <time>2022-03-02T13:12:59Z</time>
      </trkpt>
      <trkpt lat="49.94652" lon="2.17645">
        <ele>14.2</ele>
        <time>2022-03-02T13:13:00Z</time>
      </trkpt>
      <trkpt lat="49.94652" lon="2.17647">
        <ele>14.2</ele>
        <time>2022-03-02T13:13:01Z</time>
      </trkpt>
      <trkpt lat="49.9465" lon="2.17648">
        <ele>14.2</ele>
        <time>2022-03-02T13:13:03Z</time>
      </trkpt>
      <trkpt lat="49.94649" lon="2.17649">
        <ele>14.1</ele>
        <time>2022-03-02T13:13:04Z</time>
      </trkpt>
      <trkpt lat="49.94648" lon="2.17651">
        <ele>14.1</ele>
        <time>2022-03-02T13:13:05Z</time>
      </trkpt>
      <trkpt lat="49.94647" lon="2.17652">
        <ele>14.1</ele>
        <time>2022-03-02T13:13:06Z</time>
      </trkpt>
      <trkpt lat="49.94647" lon="2.17653">
        <ele>14.1</ele>
        <time>2022-03-02T13:13:07Z</time>
      </trkpt>
      <trkpt lat="49.94646" lon="2.17655">
        <ele>14.1</ele>
        <time>2022-03-02T13:13:08Z</time>
      </trkpt>
      <trkpt lat="49.94645" lon="2.17656">
        <ele>14.1</ele>
        <time>2022-03-02T13:13:09Z</time>
      </trkpt>
      <trkpt lat="49.94644" lon="2.17658">
        <ele>14.1</ele>
        <time>2022-03-02T13:13:10Z</time>
      </trkpt>
      <trkpt lat="49.94644" lon="2.17659">
        <ele>14.1</ele>
        <time>2022-03-02T13:13:12Z</time>
      </trkpt>
      <trkpt lat="49.94643" lon="2.17662">
        <ele>14.1</ele>
        <time>2022-03-02T13:13:13Z</time>
      </trkpt>
      <trkpt lat="49.94643" lon="2.17664">
        <ele>14.1</ele>
        <time>2022-03-02T13:13:14Z</time>
      </trkpt>
      <trkpt lat="49.94643" lon="2.17665">
        <ele>14.1</ele>
        <time>2022-03-02T13:13:15Z</time>
      </trkpt>
      <trkpt lat="49.94643" lon="2.17667">
        <ele>14.1</ele>
        <time>2022-03-02T13:13:16Z</time>
      </trkpt>
      <trkpt lat="49.94643" lon="2.17669">
        <ele>14.1</ele>
        <time>2022-03-02T13:13:17Z</time>
      </trkpt>
      <trkpt lat="49.94642" lon="2.1767">
        <ele>14.1</ele>
        <time>2022-03-02T13:13:18Z</time>
      </trkpt>
      <trkpt lat="49.94642" lon="2.17672">
        <ele>14.1</ele>
        <time>2022-03-02T13:13:20Z</time>
      </trkpt>
      <trkpt lat="49.94641" lon="2.17673">
        <ele>14.1</ele>
        <time>2022-03-02T13:13:21Z</time>
      </trkpt>
      <trkpt lat="49.94641" lon="2.17674">
        <ele>14.1</ele>
        <time>2022-03-02T13:13:22Z</time>
      </trkpt>
      <trkpt lat="49.9464" lon="2.17675">
        <ele>14.1</ele>
        <time>2022-03-02T13:13:23Z</time>
      </trkpt>
      <trkpt lat="49.94639" lon="2.17677">
        <ele>14.1</ele>
        <time>2022-03-02T13:13:24Z</time>
      </trkpt>
      <trkpt lat="49.94638" lon="2.17678">
        <ele>14.1</ele>
        <time>2022-03-02T13:13:25Z</time>
      </trkpt>
      <trkpt lat="49.94637" lon="2.17679">
        <ele>14.1</ele>
        <time>2022-03-02T13:13:27Z</time>
      </trkpt>
      <trkpt lat="49.94637" lon="2.1768">
        <ele>14.1</ele>
        <time>2022-03-02T13:13:28Z</time>
      </trkpt>
      <trkpt lat="49.94636" lon="2.17682">
        <ele>14.1</ele>
        <time>2022-03-02T13:13:29Z</time>
      </trkpt>
      <trkpt lat="49.94636" lon="2.17684">
        <ele>14.1</ele>
        <time>2022-03-02T13:13:30Z</time>
      </trkpt>
      <trkpt lat="49.94635" lon="2.17685">
        <ele>14.1</ele>
        <time>2022-03-02T13:13:31Z</time>
      </trkpt>
      <trkpt lat="49.94635" lon="2.17687">
        <ele>14.1</ele>
        <time>2022-03-02T13:13:32Z</time>
      </trkpt>
      <trkpt lat="49.94635" lon="2.17689">
        <ele>14.1</ele>
        <time>2022-03-02T13:13:33Z</time>
      </trkpt>
      <trkpt lat="49.94634" lon="2.17691">
        <ele>14.1</ele>
        <time>2022-03-02T13:13:34Z</time>
      </trkpt>
      <trkpt lat="49.94634" lon="2.17693">
        <ele>14.1</ele>
        <time>2022-03-02T13:13:35Z</time>
      </trkpt>
      <trkpt lat="49.94634" lon="2.17695">
        <ele>14.1</ele>
        <time>2022-03-02T13:13:36Z</time>
      </trkpt>
      <trkpt lat="49.94633" lon="2.17698">
        <ele>14.1</ele>
        <time>2022-03-02T13:13:38Z</time>
      </trkpt>
      <trkpt lat="49.94633" lon="2.177">
        <ele>14.1</ele>
        <time>2022-03-02T13:13:39Z</time>
      </trkpt>
      <trkpt lat="49.94633" lon="2.17703">
        <ele>14.1</ele>
        <time>2022-03-02T13:13:40Z</time>
      </trkpt>
      <trkpt lat="49.94632" lon="2.17704">
        <ele>14.1</ele>
        <time>2022-03-02T13:13:41Z</time>
      </trkpt>
      <trkpt lat="49.94632" lon="2.17706">
        <ele>14.1</ele>
        <time>2022-03-02T13:13:42Z</time>
      </trkpt>
      <trkpt lat="49.94632" lon="2.17708">
        <ele>14.1</ele>
        <time>2022-03-02T13:13:43Z</time>
      </trkpt>
      <trkpt lat="49.94632" lon="2.1771">
        <ele>14.1</ele>
        <time>2022-03-02T13:13:44Z</time>
      </trkpt>
      <trkpt lat="49.94631" lon="2.17712">
        <ele>14.1</ele>
        <time>2022-03-02T13:13:45Z</time>
      </trkpt>
      <trkpt lat="49.94631" lon="2.17714">
        <ele>14.1</ele>
        <time>2022-03-02T13:13:46Z</time>
      </trkpt>
      <trkpt lat="49.94631" lon="2.17717">
        <ele>14.1</ele>
        <time>2022-03-02T13:13:48Z</time>
      </trkpt>
      <trkpt lat="49.9463" lon="2.1772">
        <ele>14.1</ele>
        <time>2022-03-02T13:13:49Z</time>
      </trkpt>
      <trkpt lat="49.9463" lon="2.17721">
        <ele>14.1</ele>
        <time>2022-03-02T13:13:50Z</time>
      </trkpt>
      <trkpt lat="49.9463" lon="2.17722">
        <ele>14.1</ele>
        <time>2022-03-02T13:13:51Z</time>
      </trkpt>
      <trkpt lat="49.94629" lon="2.17724">
        <ele>14.1</ele>
        <time>2022-03-02T13:13:52Z</time>
      </trkpt>
      <trkpt lat="49.94629" lon="2.17727">
        <ele>14.1</ele>
        <time>2022-03-02T13:13:53Z</time>
      </trkpt>
      <trkpt lat="49.94629" lon="2.17729">
        <ele>14.1</ele>
        <time>2022-03-02T13:13:54Z</time>
      </trkpt>
      <trkpt lat="49.94628" lon="2.17731">
        <ele>14.1</ele>
        <time>2022-03-02T13:13:55Z</time>
      </trkpt>
      <trkpt lat="49.94628" lon="2.17733">
        <ele>14.1</ele>
        <time>2022-03-02T13:13:57Z</time>
      </trkpt>
      <trkpt lat="49.94627" lon="2.17735">
        <ele>14.1</ele>
        <time>2022-03-02T13:13:58Z</time>
      </trkpt>
      <trkpt lat="49.94626" lon="2.17738">
        <ele>14.1</ele>
        <time>2022-03-02T13:13:59Z</time>
      </trkpt>
      <trkpt lat="49.94626" lon="2.17739">
        <ele>14.1</ele>
        <time>2022-03-02T13:14:00Z</time>
      </trkpt>
      <trkpt lat="49.94626" lon="2.1774">
        <ele>14.1</ele>
        <time>2022-03-02T13:14:01Z</time>
      </trkpt>
      <trkpt lat="49.94624" lon="2.17743">
        <ele>14.1</ele>
        <time>2022-03-02T13:14:02Z</time>
      </trkpt>
      <trkpt lat="49.94624" lon="2.17744">
        <ele>14.1</ele>
        <time>2022-03-02T13:14:03Z</time>
      </trkpt>
      <trkpt lat="49.94624" lon="2.17745">
        <ele>14.1</ele>
        <time>2022-03-02T13:14:04Z</time>
      </trkpt>
      <trkpt lat="49.94623" lon="2.17748">
        <ele>14.1</ele>
        <time>2022-03-02T13:14:05Z</time>
      </trkpt>
      <trkpt lat="49.94622" lon="2.17749">
        <ele>14.1</ele>
        <time>2022-03-02T13:14:06Z</time>
      </trkpt>
      <trkpt lat="49.94622" lon="2.1775">
        <ele>14.1</ele>
        <time>2022-03-02T13:14:07Z</time>
      </trkpt>
      <trkpt lat="49.94621" lon="2.17752">
        <ele>14.1</ele>
        <time>2022-03-02T13:14:08Z</time>
      </trkpt>
      <trkpt lat="49.9462" lon="2.17754">
        <ele>14.1</ele>
        <time>2022-03-02T13:14:09Z</time>
      </trkpt>
      <trkpt lat="49.94619" lon="2.17756">
        <ele>14.1</ele>
        <time>2022-03-02T13:14:11Z</time>
      </trkpt>
      <trkpt lat="49.94619" lon="2.17758">
        <ele>14.1</ele>
        <time>2022-03-02T13:14:12Z</time>
      </trkpt>
      <trkpt lat="49.94618" lon="2.1776">
        <ele>14.2</ele>
        <time>2022-03-02T13:14:13Z</time>
      </trkpt>
      <trkpt lat="49.94618" lon="2.17762">
        <ele>14.2</ele>
        <time>2022-03-02T13:14:14Z</time>
      </trkpt>
      <trkpt lat="49.94617" lon="2.17764">
        <ele>14.2</ele>
        <time>2022-03-02T13:14:15Z</time>
      </trkpt>
      <trkpt lat="49.94617" lon="2.17767">
        <ele>14.2</ele>
        <time>2022-03-02T13:14:16Z</time>
      </trkpt>
      <trkpt lat="49.94616" lon="2.17769">
        <ele>14.2</ele>
        <time>2022-03-02T13:14:18Z</time>
      </trkpt>
      <trkpt lat="49.94616" lon="2.17771">
        <ele>14.2</ele>
        <time>2022-03-02T13:14:19Z</time>
      </trkpt>
      <trkpt lat="49.94615" lon="2.17773">
        <ele>14.2</ele>
        <time>2022-03-02T13:14:20Z</time>
      </trkpt>
      <trkpt lat="49.94615" lon="2.17776">
        <ele>14.2</ele>
        <time>2022-03-02T13:14:21Z</time>
      </trkpt>
      <trkpt lat="49.94614" lon="2.17778">
        <ele>14.2</ele>
        <time>2022-03-02T13:14:22Z</time>
      </trkpt>
      <trkpt lat="49.94614" lon="2.17779">
        <ele>14.2</ele>
        <time>2022-03-02T13:14:23Z</time>
      </trkpt>
      <trkpt lat="49.94613" lon="2.17782">
        <ele>14.2</ele>
        <time>2022-03-02T13:14:24Z</time>
      </trkpt>
      <trkpt lat="49.94613" lon="2.17784">
        <ele>14.2</ele>
        <time>2022-03-02T13:14:25Z</time>
      </trkpt>
      <trkpt lat="49.94613" lon="2.17785">
        <ele>14.2</ele>
        <time>2022-03-02T13:14:26Z</time>
      </trkpt>
      <trkpt lat="49.94612" lon="2.17788">
        <ele>14.2</ele>
        <time>2022-03-02T13:14:28Z</time>
      </trkpt>
      <trkpt lat="49.94612" lon="2.17789">
        <ele>14.2</ele>
        <time>2022-03-02T13:14:29Z</time>
      </trkpt>
      <trkpt lat="49.94612" lon="2.17791">
        <ele>14.2</ele>
        <time>2022-03-02T13:14:30Z</time>
      </trkpt>
      <trkpt lat="49.94612" lon="2.17794">
        <ele>14.2</ele>
        <time>2022-03-02T13:14:31Z</time>
      </trkpt>
      <trkpt lat="49.94612" lon="2.17795">
        <ele>14.2</ele>
        <time>2022-03-02T13:14:32Z</time>
      </trkpt>
      <trkpt lat="49.94611" lon="2.17796">
        <ele>14.2</ele>
        <time>2022-03-02T13:14:33Z</time>
      </trkpt>
      <trkpt lat="49.94611" lon="2.17799">
        <ele>14.2</ele>
        <time>2022-03-02T13:14:34Z</time>
      </trkpt>
      <trkpt lat="49.94611" lon="2.178">
        <ele>14.2</ele>
        <time>2022-03-02T13:14:35Z</time>
      </trkpt>
      <trkpt lat="49.94611" lon="2.17801">
        <ele>14.2</ele>
        <time>2022-03-02T13:14:36Z</time>
      </trkpt>
      <trkpt lat="49.94611" lon="2.17802">
        <ele>14.2</ele>
        <time>2022-03-02T13:14:37Z</time>
      </trkpt>
      <trkpt lat="49.94611" lon="2.17804">
        <ele>14.2</ele>
        <time>2022-03-02T13:14:39Z</time>
      </trkpt>
      <trkpt lat="49.9461" lon="2.17806">
        <ele>14.2</ele>
        <time>2022-03-02T13:14:40Z</time>
      </trkpt>
      <trkpt lat="49.9461" lon="2.17808">
        <ele>14.2</ele>
        <time>2022-03-02T13:14:41Z</time>
      </trkpt>
      <trkpt lat="49.9461" lon="2.17811">
        <ele>14.2</ele>
        <time>2022-03-02T13:14:42Z</time>
      </trkpt>
      <trkpt lat="49.94609" lon="2.17814">
        <ele>14.2</ele>
        <time>2022-03-02T13:14:43Z</time>
      </trkpt>
      <trkpt lat="49.94609" lon="2.17815">
        <ele>14.2</ele>
        <time>2022-03-02T13:14:44Z</time>
      </trkpt>
      <trkpt lat="49.94609" lon="2.17816">
        <ele>14.2</ele>
        <time>2022-03-02T13:14:45Z</time>
      </trkpt>
      <trkpt lat="49.94608" lon="2.17817">
        <ele>14.2</ele>
        <time>2022-03-02T13:14:46Z</time>
      </trkpt>
      <trkpt lat="49.94608" lon="2.17819">
        <ele>14.2</ele>
        <time>2022-03-02T13:14:48Z</time>
      </trkpt>
      <trkpt lat="49.94608" lon="2.1782">
        <ele>14.2</ele>
        <time>2022-03-02T13:14:49Z</time>
      </trkpt>
      <trkpt lat="49.94607" lon="2.17821">
        <ele>14.2</ele>
        <time>2022-03-02T13:14:50Z</time>
      </trkpt>
      <trkpt lat="49.94607" lon="2.17823">
        <ele>14.2</ele>
        <time>2022-03-02T13:14:51Z</time>
      </trkpt>
      <trkpt lat="49.94606" lon="2.17824">
        <ele>14.2</ele>
        <time>2022-03-02T13:14:52Z</time>
      </trkpt>
      <trkpt lat="49.94606" lon="2.17826">
        <ele>14.2</ele>
        <time>2022-03-02T13:14:54Z</time>
      </trkpt>
      <trkpt lat="49.94605" lon="2.17827">
        <ele>14.2</ele>
        <time>2022-03-02T13:14:55Z</time>
      </trkpt>
      <trkpt lat="49.94604" lon="2.17829">
        <ele>14.2</ele>
        <time>2022-03-02T13:14:56Z</time>
      </trkpt>
      <trkpt lat="49.94603" lon="2.17832">
        <ele>14.2</ele>
        <time>2022-03-02T13:14:57Z</time>
      </trkpt>
      <trkpt lat="49.94602" lon="2.17833">
        <ele>14.2</ele>
        <time>2022-03-02T13:14:59Z</time>
      </trkpt>
      <trkpt lat="49.94601" lon="2.17834">
        <ele>14.2</ele>
        <time>2022-03-02T13:15:00Z</time>
      </trkpt>
      <trkpt lat="49.946" lon="2.17836">
        <ele>14.2</ele>
        <time>2022-03-02T13:15:01Z</time>
      </trkpt>
      <trkpt lat="49.946" lon="2.17837">
        <ele>14.2</ele>
        <time>2022-03-02T13:15:02Z</time>
      </trkpt>
      <trkpt lat="49.94599" lon="2.17838">
        <ele>14.2</ele>
        <time>2022-03-02T13:15:03Z</time>
      </trkpt>
      <trkpt lat="49.94598" lon="2.1784">
        <ele>14.2</ele>
        <time>2022-03-02T13:15:04Z</time>
      </trkpt>
      <trkpt lat="49.94597" lon="2.17841">
        <ele>14.2</ele>
        <time>2022-03-02T13:15:05Z</time>
      </trkpt>
      <trkpt lat="49.94597" lon="2.17843">
        <ele>14.2</ele>
        <time>2022-03-02T13:15:06Z</time>
      </trkpt>
      <trkpt lat="49.94596" lon="2.17844">
        <ele>14.2</ele>
        <time>2022-03-02T13:15:07Z</time>
      </trkpt>
      <trkpt lat="49.94595" lon="2.17846">
        <ele>14.2</ele>
        <time>2022-03-02T13:15:08Z</time>
      </trkpt>
      <trkpt lat="49.94595" lon="2.17849">
        <ele>14.3</ele>
        <time>2022-03-02T13:15:10Z</time>
      </trkpt>
      <trkpt lat="49.94594" lon="2.1785">
        <ele>14.3</ele>
        <time>2022-03-02T13:15:11Z</time>
      </trkpt>
      <trkpt lat="49.94593" lon="2.17852">
        <ele>14.3</ele>
        <time>2022-03-02T13:15:12Z</time>
      </trkpt>
      <trkpt lat="49.94592" lon="2.17854">
        <ele>14.3</ele>
        <time>2022-03-02T13:15:13Z</time>
      </trkpt>
      <trkpt lat="49.94591" lon="2.17856">
        <ele>14.3</ele>
        <time>2022-03-02T13:15:14Z</time>
      </trkpt>
      <trkpt lat="49.9459" lon="2.17858">
        <ele>14.3</ele>
        <time>2022-03-02T13:15:15Z</time>
      </trkpt>
      <trkpt lat="49.94589" lon="2.1786">
        <ele>14.3</ele>
        <time>2022-03-02T13:15:16Z</time>
      </trkpt>
      <trkpt lat="49.94588" lon="2.17863">
        <ele>14.4</ele>
        <time>2022-03-02T13:15:18Z</time>
      </trkpt>
      <trkpt lat="49.94587" lon="2.17864">
        <ele>14.4</ele>
        <time>2022-03-02T13:15:19Z</time>
      </trkpt>
      <trkpt lat="49.94586" lon="2.17867">
        <ele>14.4</ele>
        <time>2022-03-02T13:15:20Z</time>
      </trkpt>
      <trkpt lat="49.94586" lon="2.17868">
        <ele>14.4</ele>
        <time>2022-03-02T13:15:21Z</time>
      </trkpt>
      <trkpt lat="49.94585" lon="2.17869">
        <ele>14.4</ele>
        <time>2022-03-02T13:15:22Z</time>
      </trkpt>
      <trkpt lat="49.94584" lon="2.17871">
        <ele>14.4</ele>
        <time>2022-03-02T13:15:23Z</time>
      </trkpt>
      <trkpt lat="49.94583" lon="2.17874">
        <ele>14.5</ele>
        <time>2022-03-02T13:15:25Z</time>
      </trkpt>
      <trkpt lat="49.94583" lon="2.17876">
        <ele>14.5</ele>
        <time>2022-03-02T13:15:26Z</time>
      </trkpt>
      <trkpt lat="49.94582" lon="2.17878">
        <ele>14.5</ele>
        <time>2022-03-02T13:15:27Z</time>
      </trkpt>
      <trkpt lat="49.94582" lon="2.1788">
        <ele>14.6</ele>
        <time>2022-03-02T13:15:28Z</time>
      </trkpt>
      <trkpt lat="49.94581" lon="2.17882">
        <ele>14.6</ele>
        <time>2022-03-02T13:15:29Z</time>
      </trkpt>
      <trkpt lat="49.9458" lon="2.17885">
        <ele>14.6</ele>
        <time>2022-03-02T13:15:30Z</time>
      </trkpt>
      <trkpt lat="49.9458" lon="2.17886">
        <ele>14.6</ele>
        <time>2022-03-02T13:15:31Z</time>
      </trkpt>
      <trkpt lat="49.9458" lon="2.17888">
        <ele>14.7</ele>
        <time>2022-03-02T13:15:32Z</time>
      </trkpt>
      <trkpt lat="49.94579" lon="2.1789">
        <ele>14.7</ele>
        <time>2022-03-02T13:15:33Z</time>
      </trkpt>
      <trkpt lat="49.94579" lon="2.17892">
        <ele>14.7</ele>
        <time>2022-03-02T13:15:34Z</time>
      </trkpt>
      <trkpt lat="49.94578" lon="2.17894">
        <ele>14.7</ele>
        <time>2022-03-02T13:15:36Z</time>
      </trkpt>
      <trkpt lat="49.94578" lon="2.17896">
        <ele>14.8</ele>
        <time>2022-03-02T13:15:37Z</time>
      </trkpt>
      <trkpt lat="49.94577" lon="2.17898">
        <ele>14.8</ele>
        <time>2022-03-02T13:15:38Z</time>
      </trkpt>
      <trkpt lat="49.94576" lon="2.179">
        <ele>14.9</ele>
        <time>2022-03-02T13:15:39Z</time>
      </trkpt>
      <trkpt lat="49.94575" lon="2.17901">
        <ele>14.9</ele>
        <time>2022-03-02T13:15:40Z</time>
      </trkpt>
      <trkpt lat="49.94574" lon="2.17903">
        <ele>14.9</ele>
        <time>2022-03-02T13:15:41Z</time>
      </trkpt>
      <trkpt lat="49.94573" lon="2.17904">
        <ele>15</ele>
        <time>2022-03-02T13:15:43Z</time>
      </trkpt>
      <trkpt lat="49.94572" lon="2.17906">
        <ele>15</ele>
        <time>2022-03-02T13:15:44Z</time>
      </trkpt>
      <trkpt lat="49.94571" lon="2.17907">
        <ele>15</ele>
        <time>2022-03-02T13:15:45Z</time>
      </trkpt>
      <trkpt lat="49.9457" lon="2.17909">
        <ele>15.1</ele>
        <time>2022-03-02T13:15:46Z</time>
      </trkpt>
      <trkpt lat="49.94569" lon="2.1791">
        <ele>15.1</ele>
        <time>2022-03-02T13:15:47Z</time>
      </trkpt>
      <trkpt lat="49.94568" lon="2.17912">
        <ele>15.2</ele>
        <time>2022-03-02T13:15:48Z</time>
      </trkpt>
      <trkpt lat="49.94567" lon="2.17913">
        <ele>15.2</ele>
        <time>2022-03-02T13:15:49Z</time>
      </trkpt>
      <trkpt lat="49.94566" lon="2.17915">
        <ele>15.3</ele>
        <time>2022-03-02T13:15:50Z</time>
      </trkpt>
      <trkpt lat="49.94564" lon="2.17916">
        <ele>15.3</ele>
        <time>2022-03-02T13:15:51Z</time>
      </trkpt>
      <trkpt lat="49.94563" lon="2.17917">
        <ele>15.4</ele>
        <time>2022-03-02T13:15:52Z</time>
      </trkpt>
      <trkpt lat="49.94562" lon="2.17919">
        <ele>15.4</ele>
        <time>2022-03-02T13:15:54Z</time>
      </trkpt>
      <trkpt lat="49.94561" lon="2.1792">
        <ele>15.5</ele>
        <time>2022-03-02T13:15:55Z</time>
      </trkpt>
      <trkpt lat="49.9456" lon="2.17922">
        <ele>15.5</ele>
        <time>2022-03-02T13:15:56Z</time>
      </trkpt>
      <trkpt lat="49.94559" lon="2.17923">
        <ele>15.6</ele>
        <time>2022-03-02T13:15:57Z</time>
      </trkpt>
      <trkpt lat="49.94558" lon="2.17925">
        <ele>15.6</ele>
        <time>2022-03-02T13:15:58Z</time>
      </trkpt>
      <trkpt lat="49.94558" lon="2.17926">
        <ele>15.6</ele>
        <time>2022-03-02T13:15:59Z</time>
      </trkpt>
      <trkpt lat="49.94557" lon="2.17929">
        <ele>15.6</ele>
        <time>2022-03-02T13:16:00Z</time>
      </trkpt>
      <trkpt lat="49.94557" lon="2.1793">
        <ele>15.6</ele>
        <time>2022-03-02T13:16:01Z</time>
      </trkpt>
      <trkpt lat="49.94556" lon="2.17931">
        <ele>15.6</ele>
        <time>2022-03-02T13:16:02Z</time>
      </trkpt>
      <trkpt lat="49.94555" lon="2.17934">
        <ele>15.5</ele>
        <time>2022-03-02T13:16:04Z</time>
      </trkpt>
      <trkpt lat="49.94555" lon="2.17935">
        <ele>15.5</ele>
        <time>2022-03-02T13:16:05Z</time>
      </trkpt>
      <trkpt lat="49.94553" lon="2.17938">
        <ele>15.5</ele>
        <time>2022-03-02T13:16:06Z</time>
      </trkpt>
      <trkpt lat="49.94553" lon="2.17939">
        <ele>15.5</ele>
        <time>2022-03-02T13:16:07Z</time>
      </trkpt>
      <trkpt lat="49.94552" lon="2.1794">
        <ele>15.5</ele>
        <time>2022-03-02T13:16:08Z</time>
      </trkpt>
      <trkpt lat="49.94551" lon="2.17941">
        <ele>15.5</ele>
        <time>2022-03-02T13:16:09Z</time>
      </trkpt>
      <trkpt lat="49.9455" lon="2.17942">
        <ele>15.4</ele>
        <time>2022-03-02T13:16:10Z</time>
      </trkpt>
      <trkpt lat="49.94549" lon="2.17943">
        <ele>15.4</ele>
        <time>2022-03-02T13:16:12Z</time>
      </trkpt>
      <trkpt lat="49.94548" lon="2.17944">
        <ele>15.4</ele>
        <time>2022-03-02T13:16:13Z</time>
      </trkpt>
      <trkpt lat="49.94547" lon="2.17944">
        <ele>15.4</ele>
        <time>2022-03-02T13:16:14Z</time>
      </trkpt>
      <trkpt lat="49.94546" lon="2.17945">
        <ele>15.4</ele>
        <time>2022-03-02T13:16:15Z</time>
      </trkpt>
      <trkpt lat="49.94546" lon="2.17945">
        <ele>15.4</ele>
        <time>2022-03-02T13:16:16Z</time>
      </trkpt>
      <trkpt lat="49.94545" lon="2.17946">
        <ele>15.4</ele>
        <time>2022-03-02T13:16:17Z</time>
      </trkpt>
      <trkpt lat="49.94544" lon="2.17946">
        <ele>15.4</ele>
        <time>2022-03-02T13:16:18Z</time>
      </trkpt>
      <trkpt lat="49.94543" lon="2.17946">
        <ele>15.4</ele>
        <time>2022-03-02T13:16:20Z</time>
      </trkpt>
      <trkpt lat="49.94543" lon="2.17946">
        <ele>15.4</ele>
        <time>2022-03-02T13:16:21Z</time>
      </trkpt>
      <trkpt lat="49.94542" lon="2.17946">
        <ele>15.4</ele>
        <time>2022-03-02T13:16:22Z</time>
      </trkpt>
      <trkpt lat="49.94542" lon="2.17946">
        <ele>15.4</ele>
        <time>2022-03-02T13:16:23Z</time>
      </trkpt>
      <trkpt lat="49.94541" lon="2.17947">
        <ele>15.4</ele>
        <time>2022-03-02T13:16:24Z</time>
      </trkpt>
      <trkpt lat="49.9454" lon="2.17947">
        <ele>15.4</ele>
        <time>2022-03-02T13:16:25Z</time>
      </trkpt>
      <trkpt lat="49.94539" lon="2.17948">
        <ele>15.4</ele>
        <time>2022-03-02T13:16:27Z</time>
      </trkpt>
      <trkpt lat="49.94538" lon="2.17948">
        <ele>15.5</ele>
        <time>2022-03-02T13:16:28Z</time>
      </trkpt>
      <trkpt lat="49.94537" lon="2.17948">
        <ele>15.5</ele>
        <time>2022-03-02T13:16:29Z</time>
      </trkpt>
      <trkpt lat="49.94536" lon="2.17949">
        <ele>15.5</ele>
        <time>2022-03-02T13:16:30Z</time>
      </trkpt>
      <trkpt lat="49.94535" lon="2.17949">
        <ele>15.5</ele>
        <time>2022-03-02T13:16:31Z</time>
      </trkpt>
      <trkpt lat="49.94535" lon="2.1795">
        <ele>15.5</ele>
        <time>2022-03-02T13:16:32Z</time>
      </trkpt>
      <trkpt lat="49.94534" lon="2.17951">
        <ele>15.5</ele>
        <time>2022-03-02T13:16:34Z</time>
      </trkpt>
      <trkpt lat="49.94534" lon="2.17951">
        <ele>15.5</ele>
        <time>2022-03-02T13:16:35Z</time>
      </trkpt>
      <trkpt lat="49.94534" lon="2.17951">
        <ele>15.5</ele>
        <time>2022-03-02T13:16:36Z</time>
      </trkpt>
      <trkpt lat="49.94535" lon="2.17951">
        <ele>15.5</ele>
        <time>2022-03-02T13:16:38Z</time>
      </trkpt>
      <trkpt lat="49.94535" lon="2.17951">
        <ele>15.5</ele>
        <time>2022-03-02T13:16:39Z</time>
      </trkpt>
      <trkpt lat="49.94534" lon="2.17951">
        <ele>15.6</ele>
        <time>2022-03-02T13:16:40Z</time>
      </trkpt>
      <trkpt lat="49.94534" lon="2.17952">
        <ele>15.6</ele>
        <time>2022-03-02T13:16:41Z</time>
      </trkpt>
      <trkpt lat="49.94533" lon="2.17952">
        <ele>15.6</ele>
        <time>2022-03-02T13:16:42Z</time>
      </trkpt>
      <trkpt lat="49.94533" lon="2.17953">
        <ele>15.6</ele>
        <time>2022-03-02T13:16:44Z</time>
      </trkpt>
      <trkpt lat="49.94534" lon="2.17953">
        <ele>15.6</ele>
        <time>2022-03-02T13:16:45Z</time>
      </trkpt>
      <trkpt lat="49.94533" lon="2.17954">
        <ele>15.6</ele>
        <time>2022-03-02T13:16:46Z</time>
      </trkpt>
      <trkpt lat="49.94532" lon="2.17955">
        <ele>15.6</ele>
        <time>2022-03-02T13:16:47Z</time>
      </trkpt>
      <trkpt lat="49.94532" lon="2.17955">
        <ele>15.7</ele>
        <time>2022-03-02T13:16:48Z</time>
      </trkpt>
      <trkpt lat="49.94531" lon="2.17956">
        <ele>15.7</ele>
        <time>2022-03-02T13:16:49Z</time>
      </trkpt>
      <trkpt lat="49.94531" lon="2.17957">
        <ele>15.7</ele>
        <time>2022-03-02T13:16:50Z</time>
      </trkpt>
      <trkpt lat="49.94529" lon="2.17959">
        <ele>15.8</ele>
        <time>2022-03-02T13:16:52Z</time>
      </trkpt>
      <trkpt lat="49.9453" lon="2.17959">
        <ele>15.8</ele>
        <time>2022-03-02T13:16:53Z</time>
      </trkpt>
      <trkpt lat="49.9453" lon="2.17959">
        <ele>15.8</ele>
        <time>2022-03-02T13:16:54Z</time>
      </trkpt>
      <trkpt lat="49.94529" lon="2.1796">
        <ele>15.8</ele>
        <time>2022-03-02T13:16:55Z</time>
      </trkpt>
      <trkpt lat="49.94528" lon="2.1796">
        <ele>15.8</ele>
        <time>2022-03-02T13:16:56Z</time>
      </trkpt>
      <trkpt lat="49.94527" lon="2.17961">
        <ele>15.9</ele>
        <time>2022-03-02T13:16:57Z</time>
      </trkpt>
      <trkpt lat="49.94526" lon="2.17962">
        <ele>15.9</ele>
        <time>2022-03-02T13:16:58Z</time>
      </trkpt>
      <trkpt lat="49.94525" lon="2.17963">
        <ele>15.9</ele>
        <time>2022-03-02T13:17:00Z</time>
      </trkpt>
      <trkpt lat="49.94524" lon="2.17964">
        <ele>16</ele>
        <time>2022-03-02T13:17:01Z</time>
      </trkpt>
      <trkpt lat="49.94523" lon="2.17965">
        <ele>16</ele>
        <time>2022-03-02T13:17:02Z</time>
      </trkpt>
      <trkpt lat="49.94522" lon="2.17965">
        <ele>16.1</ele>
        <time>2022-03-02T13:17:03Z</time>
      </trkpt>
      <trkpt lat="49.94521" lon="2.17966">
        <ele>16.1</ele>
        <time>2022-03-02T13:17:04Z</time>
      </trkpt>
      <trkpt lat="49.9452" lon="2.17967">
        <ele>16.2</ele>
        <time>2022-03-02T13:17:05Z</time>
      </trkpt>
      <trkpt lat="49.94519" lon="2.17967">
        <ele>16.2</ele>
        <time>2022-03-02T13:17:06Z</time>
      </trkpt>
      <trkpt lat="49.94518" lon="2.17968">
        <ele>16.2</ele>
        <time>2022-03-02T13:17:07Z</time>
      </trkpt>
      <trkpt lat="49.94517" lon="2.17968">
        <ele>16.3</ele>
        <time>2022-03-02T13:17:08Z</time>
      </trkpt>
      <trkpt lat="49.94517" lon="2.17969">
        <ele>16.3</ele>
        <time>2022-03-02T13:17:09Z</time>
      </trkpt>
      <trkpt lat="49.94515" lon="2.17972">
        <ele>16.4</ele>
        <time>2022-03-02T13:17:11Z</time>
      </trkpt>
      <trkpt lat="49.94515" lon="2.17973">
        <ele>16.4</ele>
        <time>2022-03-02T13:17:12Z</time>
      </trkpt>
      <trkpt lat="49.94514" lon="2.17974">
        <ele>16.4</ele>
        <time>2022-03-02T13:17:13Z</time>
      </trkpt>
      <trkpt lat="49.94513" lon="2.17976">
        <ele>16.5</ele>
        <time>2022-03-02T13:17:14Z</time>
      </trkpt>
      <trkpt lat="49.94512" lon="2.17977">
        <ele>16.5</ele>
        <time>2022-03-02T13:17:15Z</time>
      </trkpt>
      <trkpt lat="49.94511" lon="2.17978">
        <ele>16.6</ele>
        <time>2022-03-02T13:17:16Z</time>
      </trkpt>
      <trkpt lat="49.94509" lon="2.17979">
        <ele>16.7</ele>
        <time>2022-03-02T13:17:17Z</time>
      </trkpt>
      <trkpt lat="49.94508" lon="2.1798">
        <ele>16.7</ele>
        <time>2022-03-02T13:17:19Z</time>
      </trkpt>
      <trkpt lat="49.94507" lon="2.17981">
        <ele>16.8</ele>
        <time>2022-03-02T13:17:20Z</time>
      </trkpt>
      <trkpt lat="49.94506" lon="2.17982">
        <ele>16.8</ele>
        <time>2022-03-02T13:17:21Z</time>
      </trkpt>
      <trkpt lat="49.94505" lon="2.17982">
        <ele>16.8</ele>
        <time>2022-03-02T13:17:22Z</time>
      </trkpt>
      <trkpt lat="49.94504" lon="2.17983">
        <ele>16.9</ele>
        <time>2022-03-02T13:17:23Z</time>
      </trkpt>
      <trkpt lat="49.94502" lon="2.17984">
        <ele>16.9</ele>
        <time>2022-03-02T13:17:25Z</time>
      </trkpt>
      <trkpt lat="49.94501" lon="2.17986">
        <ele>16.9</ele>
        <time>2022-03-02T13:17:26Z</time>
      </trkpt>
      <trkpt lat="49.945" lon="2.17987">
        <ele>17</ele>
        <time>2022-03-02T13:17:27Z</time>
      </trkpt>
      <trkpt lat="49.94498" lon="2.1799">
        <ele>17.1</ele>
        <time>2022-03-02T13:17:29Z</time>
      </trkpt>
      <trkpt lat="49.94497" lon="2.17991">
        <ele>17.1</ele>
        <time>2022-03-02T13:17:30Z</time>
      </trkpt>
      <trkpt lat="49.94496" lon="2.17992">
        <ele>17.1</ele>
        <time>2022-03-02T13:17:31Z</time>
      </trkpt>
      <trkpt lat="49.94495" lon="2.17993">
        <ele>17.1</ele>
        <time>2022-03-02T13:17:32Z</time>
      </trkpt>
      <trkpt lat="49.94494" lon="2.17994">
        <ele>17.1</ele>
        <time>2022-03-02T13:17:33Z</time>
      </trkpt>
      <trkpt lat="49.94493" lon="2.17995">
        <ele>17.2</ele>
        <time>2022-03-02T13:17:34Z</time>
      </trkpt>
      <trkpt lat="49.94492" lon="2.17996">
        <ele>17.2</ele>
        <time>2022-03-02T13:17:35Z</time>
      </trkpt>
      <trkpt lat="49.94491" lon="2.17997">
        <ele>17.2</ele>
        <time>2022-03-02T13:17:36Z</time>
      </trkpt>
      <trkpt lat="49.94489" lon="2.17998">
        <ele>17.2</ele>
        <time>2022-03-02T13:17:37Z</time>
      </trkpt>
      <trkpt lat="49.94487" lon="2.17999">
        <ele>17.2</ele>
        <time>2022-03-02T13:17:38Z</time>
      </trkpt>
      <trkpt lat="49.94487" lon="2.18">
        <ele>17.2</ele>
        <time>2022-03-02T13:17:40Z</time>
      </trkpt>
      <trkpt lat="49.94486" lon="2.18">
        <ele>17.2</ele>
        <time>2022-03-02T13:17:41Z</time>
      </trkpt>
      <trkpt lat="49.94485" lon="2.18001">
        <ele>17.2</ele>
        <time>2022-03-02T13:17:42Z</time>
      </trkpt>
      <trkpt lat="49.94483" lon="2.18002">
        <ele>17.2</ele>
        <time>2022-03-02T13:17:43Z</time>
      </trkpt>
      <trkpt lat="49.94482" lon="2.18004">
        <ele>17.2</ele>
        <time>2022-03-02T13:17:44Z</time>
      </trkpt>
      <trkpt lat="49.94481" lon="2.18004">
        <ele>17.2</ele>
        <time>2022-03-02T13:17:45Z</time>
      </trkpt>
      <trkpt lat="49.9448" lon="2.18005">
        <ele>17.2</ele>
        <time>2022-03-02T13:17:46Z</time>
      </trkpt>
      <trkpt lat="49.94479" lon="2.18006">
        <ele>17.3</ele>
        <time>2022-03-02T13:17:47Z</time>
      </trkpt>
      <trkpt lat="49.94477" lon="2.18007">
        <ele>17.3</ele>
        <time>2022-03-02T13:17:48Z</time>
      </trkpt>
      <trkpt lat="49.94476" lon="2.18008">
        <ele>17.3</ele>
        <time>2022-03-02T13:17:49Z</time>
      </trkpt>
      <trkpt lat="49.94475" lon="2.18009">
        <ele>17.3</ele>
        <time>2022-03-02T13:17:50Z</time>
      </trkpt>
      <trkpt lat="49.94474" lon="2.1801">
        <ele>17.2</ele>
        <time>2022-03-02T13:17:51Z</time>
      </trkpt>
      <trkpt lat="49.94472" lon="2.18011">
        <ele>17.2</ele>
        <time>2022-03-02T13:17:52Z</time>
      </trkpt>
      <trkpt lat="49.94471" lon="2.18012">
        <ele>17.2</ele>
        <time>2022-03-02T13:17:53Z</time>
      </trkpt>
      <trkpt lat="49.9447" lon="2.18013">
        <ele>17.2</ele>
        <time>2022-03-02T13:17:54Z</time>
      </trkpt>
      <trkpt lat="49.94468" lon="2.18014">
        <ele>17.2</ele>
        <time>2022-03-02T13:17:55Z</time>
      </trkpt>
      <trkpt lat="49.94467" lon="2.18014">
        <ele>17.2</ele>
        <time>2022-03-02T13:17:56Z</time>
      </trkpt>
      <trkpt lat="49.94465" lon="2.18016">
        <ele>17.2</ele>
        <time>2022-03-02T13:17:57Z</time>
      </trkpt>
      <trkpt lat="49.94464" lon="2.18016">
        <ele>17.2</ele>
        <time>2022-03-02T13:17:59Z</time>
      </trkpt>
      <trkpt lat="49.94464" lon="2.18016">
        <ele>17.2</ele>
        <time>2022-03-02T13:18:00Z</time>
      </trkpt>
      <trkpt lat="49.94462" lon="2.18016">
        <ele>17.2</ele>
        <time>2022-03-02T13:18:01Z</time>
      </trkpt>
      <trkpt lat="49.94461" lon="2.18017">
        <ele>17.1</ele>
        <time>2022-03-02T13:18:02Z</time>
      </trkpt>
      <trkpt lat="49.9446" lon="2.18017">
        <ele>17.1</ele>
        <time>2022-03-02T13:18:03Z</time>
      </trkpt>
      <trkpt lat="49.94459" lon="2.18018">
        <ele>17.1</ele>
        <time>2022-03-02T13:18:04Z</time>
      </trkpt>
      <trkpt lat="49.94458" lon="2.18019">
        <ele>17.1</ele>
        <time>2022-03-02T13:18:05Z</time>
      </trkpt>
      <trkpt lat="49.94457" lon="2.18019">
        <ele>17.1</ele>
        <time>2022-03-02T13:18:06Z</time>
      </trkpt>
      <trkpt lat="49.94456" lon="2.1802">
        <ele>17.1</ele>
        <time>2022-03-02T13:18:07Z</time>
      </trkpt>
      <trkpt lat="49.94454" lon="2.1802">
        <ele>17.1</ele>
        <time>2022-03-02T13:18:08Z</time>
      </trkpt>
      <trkpt lat="49.94453" lon="2.18021">
        <ele>17.1</ele>
        <time>2022-03-02T13:18:10Z</time>
      </trkpt>
      <trkpt lat="49.94451" lon="2.18022">
        <ele>17</ele>
        <time>2022-03-02T13:18:11Z</time>
      </trkpt>
      <trkpt lat="49.9445" lon="2.18022">
        <ele>17</ele>
        <time>2022-03-02T13:18:12Z</time>
      </trkpt>
      <trkpt lat="49.94449" lon="2.18023">
        <ele>17</ele>
        <time>2022-03-02T13:18:13Z</time>
      </trkpt>
      <trkpt lat="49.94447" lon="2.18024">
        <ele>17</ele>
        <time>2022-03-02T13:18:14Z</time>
      </trkpt>
      <trkpt lat="49.94446" lon="2.18025">
        <ele>17</ele>
        <time>2022-03-02T13:18:15Z</time>
      </trkpt>
      <trkpt lat="49.94445" lon="2.18025">
        <ele>17</ele>
        <time>2022-03-02T13:18:16Z</time>
      </trkpt>
      <trkpt lat="49.94444" lon="2.18026">
        <ele>17</ele>
        <time>2022-03-02T13:18:18Z</time>
      </trkpt>
      <trkpt lat="49.94443" lon="2.18028">
        <ele>17</ele>
        <time>2022-03-02T13:18:19Z</time>
      </trkpt>
      <trkpt lat="49.94442" lon="2.18028">
        <ele>17</ele>
        <time>2022-03-02T13:18:20Z</time>
      </trkpt>
      <trkpt lat="49.94441" lon="2.18029">
        <ele>17</ele>
        <time>2022-03-02T13:18:21Z</time>
      </trkpt>
      <trkpt lat="49.9444" lon="2.1803">
        <ele>17</ele>
        <time>2022-03-02T13:18:22Z</time>
      </trkpt>
      <trkpt lat="49.94438" lon="2.18033">
        <ele>16.9</ele>
        <time>2022-03-02T13:18:24Z</time>
      </trkpt>
      <trkpt lat="49.94438" lon="2.18034">
        <ele>16.9</ele>
        <time>2022-03-02T13:18:25Z</time>
      </trkpt>
      <trkpt lat="49.94437" lon="2.18034">
        <ele>16.9</ele>
        <time>2022-03-02T13:18:26Z</time>
      </trkpt>
      <trkpt lat="49.94436" lon="2.18037">
        <ele>16.9</ele>
        <time>2022-03-02T13:18:27Z</time>
      </trkpt>
      <trkpt lat="49.94435" lon="2.18038">
        <ele>16.9</ele>
        <time>2022-03-02T13:18:28Z</time>
      </trkpt>
      <trkpt lat="49.94435" lon="2.18039">
        <ele>16.9</ele>
        <time>2022-03-02T13:18:29Z</time>
      </trkpt>
      <trkpt lat="49.94434" lon="2.1804">
        <ele>16.9</ele>
        <time>2022-03-02T13:18:30Z</time>
      </trkpt>
      <trkpt lat="49.94433" lon="2.18042">
        <ele>16.8</ele>
        <time>2022-03-02T13:18:32Z</time>
      </trkpt>
      <trkpt lat="49.94433" lon="2.18043">
        <ele>16.8</ele>
        <time>2022-03-02T13:18:33Z</time>
      </trkpt>
      <trkpt lat="49.94433" lon="2.18046">
        <ele>16.8</ele>
        <time>2022-03-02T13:18:34Z</time>
      </trkpt>
      <trkpt lat="49.94433" lon="2.18048">
        <ele>16.8</ele>
        <time>2022-03-02T13:18:35Z</time>
      </trkpt>
      <trkpt lat="49.94433" lon="2.18049">
        <ele>16.8</ele>
        <time>2022-03-02T13:18:36Z</time>
      </trkpt>
      <trkpt lat="49.94432" lon="2.18051">
        <ele>16.7</ele>
        <time>2022-03-02T13:18:37Z</time>
      </trkpt>
      <trkpt lat="49.94432" lon="2.18053">
        <ele>16.7</ele>
        <time>2022-03-02T13:18:38Z</time>
      </trkpt>
      <trkpt lat="49.94431" lon="2.18055">
        <ele>16.7</ele>
        <time>2022-03-02T13:18:39Z</time>
      </trkpt>
      <trkpt lat="49.94431" lon="2.18058">
        <ele>16.7</ele>
        <time>2022-03-02T13:18:41Z</time>
      </trkpt>
      <trkpt lat="49.9443" lon="2.18061">
        <ele>16.6</ele>
        <time>2022-03-02T13:18:42Z</time>
      </trkpt>
      <trkpt lat="49.94429" lon="2.18063">
        <ele>16.6</ele>
        <time>2022-03-02T13:18:43Z</time>
      </trkpt>
      <trkpt lat="49.94428" lon="2.18065">
        <ele>16.6</ele>
        <time>2022-03-02T13:18:44Z</time>
      </trkpt>
      <trkpt lat="49.94427" lon="2.18067">
        <ele>16.5</ele>
        <time>2022-03-02T13:18:46Z</time>
      </trkpt>
      <trkpt lat="49.94426" lon="2.18069">
        <ele>16.5</ele>
        <time>2022-03-02T13:18:47Z</time>
      </trkpt>
      <trkpt lat="49.94424" lon="2.1807">
        <ele>16.5</ele>
        <time>2022-03-02T13:18:48Z</time>
      </trkpt>
      <trkpt lat="49.94423" lon="2.18072">
        <ele>16.4</ele>
        <time>2022-03-02T13:18:49Z</time>
      </trkpt>
      <trkpt lat="49.94422" lon="2.18074">
        <ele>16.4</ele>
        <time>2022-03-02T13:18:50Z</time>
      </trkpt>
      <trkpt lat="49.94421" lon="2.18076">
        <ele>16.3</ele>
        <time>2022-03-02T13:18:51Z</time>
      </trkpt>
      <trkpt lat="49.9442" lon="2.18077">
        <ele>16.3</ele>
        <time>2022-03-02T13:18:52Z</time>
      </trkpt>
      <trkpt lat="49.94419" lon="2.18079">
        <ele>16.3</ele>
        <time>2022-03-02T13:18:53Z</time>
      </trkpt>
      <trkpt lat="49.94418" lon="2.18081">
        <ele>16.3</ele>
        <time>2022-03-02T13:18:54Z</time>
      </trkpt>
      <trkpt lat="49.94415" lon="2.18083">
        <ele>16.2</ele>
        <time>2022-03-02T13:18:55Z</time>
      </trkpt>
      <trkpt lat="49.94414" lon="2.18085">
        <ele>16.2</ele>
        <time>2022-03-02T13:18:56Z</time>
      </trkpt>
      <trkpt lat="49.94411" lon="2.18086">
        <ele>16.1</ele>
        <time>2022-03-02T13:18:57Z</time>
      </trkpt>
      <trkpt lat="49.94407" lon="2.18089">
        <ele>16</ele>
        <time>2022-03-02T13:18:59Z</time>
      </trkpt>
      <trkpt lat="49.94405" lon="2.1809">
        <ele>16</ele>
        <time>2022-03-02T13:19:00Z</time>
      </trkpt>
      <trkpt lat="49.94404" lon="2.18091">
        <ele>15.9</ele>
        <time>2022-03-02T13:19:01Z</time>
      </trkpt>
      <trkpt lat="49.94403" lon="2.18092">
        <ele>15.9</ele>
        <time>2022-03-02T13:19:02Z</time>
      </trkpt>
      <trkpt lat="49.94402" lon="2.18093">
        <ele>15.9</ele>
        <time>2022-03-02T13:19:03Z</time>
      </trkpt>
      <trkpt lat="49.944" lon="2.18094">
        <ele>15.9</ele>
        <time>2022-03-02T13:19:04Z</time>
      </trkpt>
      <trkpt lat="49.94399" lon="2.18095">
        <ele>15.9</ele>
        <time>2022-03-02T13:19:05Z</time>
      </trkpt>
      <trkpt lat="49.94397" lon="2.18096">
        <ele>15.8</ele>
        <time>2022-03-02T13:19:06Z</time>
      </trkpt>
      <trkpt lat="49.94396" lon="2.18097">
        <ele>15.8</ele>
        <time>2022-03-02T13:19:07Z</time>
      </trkpt>
      <trkpt lat="49.94396" lon="2.18098">
        <ele>15.8</ele>
        <time>2022-03-02T13:19:08Z</time>
      </trkpt>
      <trkpt lat="49.94394" lon="2.18099">
        <ele>15.8</ele>
        <time>2022-03-02T13:19:10Z</time>
      </trkpt>
      <trkpt lat="49.94392" lon="2.181">
        <ele>15.8</ele>
        <time>2022-03-02T13:19:11Z</time>
      </trkpt>
      <trkpt lat="49.94391" lon="2.18101">
        <ele>15.8</ele>
        <time>2022-03-02T13:19:12Z</time>
      </trkpt>
      <trkpt lat="49.9439" lon="2.18101">
        <ele>15.8</ele>
        <time>2022-03-02T13:19:14Z</time>
      </trkpt>
      <trkpt lat="49.94389" lon="2.18102">
        <ele>15.8</ele>
        <time>2022-03-02T13:19:15Z</time>
      </trkpt>
      <trkpt lat="49.94389" lon="2.18102">
        <ele>15.8</ele>
        <time>2022-03-02T13:19:16Z</time>
      </trkpt>
      <trkpt lat="49.94388" lon="2.18103">
        <ele>15.8</ele>
        <time>2022-03-02T13:19:17Z</time>
      </trkpt>
      <trkpt lat="49.94387" lon="2.18103">
        <ele>15.8</ele>
        <time>2022-03-02T13:19:18Z</time>
      </trkpt>
      <trkpt lat="49.94386" lon="2.18104">
        <ele>15.8</ele>
        <time>2022-03-02T13:19:19Z</time>
      </trkpt>
      <trkpt lat="49.94384" lon="2.18105">
        <ele>15.8</ele>
        <time>2022-03-02T13:19:20Z</time>
      </trkpt>
      <trkpt lat="49.94383" lon="2.18106">
        <ele>15.8</ele>
        <time>2022-03-02T13:19:21Z</time>
      </trkpt>
      <trkpt lat="49.94382" lon="2.18106">
        <ele>15.8</ele>
        <time>2022-03-02T13:19:22Z</time>
      </trkpt>
      <trkpt lat="49.94381" lon="2.18107">
        <ele>15.8</ele>
        <time>2022-03-02T13:19:23Z</time>
      </trkpt>
      <trkpt lat="49.94381" lon="2.18108">
        <ele>15.8</ele>
        <time>2022-03-02T13:19:25Z</time>
      </trkpt>
      <trkpt lat="49.9438" lon="2.18109">
        <ele>15.8</ele>
        <time>2022-03-02T13:19:26Z</time>
      </trkpt>
      <trkpt lat="49.94379" lon="2.1811">
        <ele>15.8</ele>
        <time>2022-03-02T13:19:27Z</time>
      </trkpt>
      <trkpt lat="49.94378" lon="2.1811">
        <ele>15.8</ele>
        <time>2022-03-02T13:19:28Z</time>
      </trkpt>
      <trkpt lat="49.94377" lon="2.18111">
        <ele>15.8</ele>
        <time>2022-03-02T13:19:29Z</time>
      </trkpt>
      <trkpt lat="49.94376" lon="2.18112">
        <ele>15.8</ele>
        <time>2022-03-02T13:19:30Z</time>
      </trkpt>
      <trkpt lat="49.94375" lon="2.18113">
        <ele>15.8</ele>
        <time>2022-03-02T13:19:31Z</time>
      </trkpt>
      <trkpt lat="49.94375" lon="2.18114">
        <ele>15.8</ele>
        <time>2022-03-02T13:19:32Z</time>
      </trkpt>
      <trkpt lat="49.94374" lon="2.18115">
        <ele>15.8</ele>
        <time>2022-03-02T13:19:33Z</time>
      </trkpt>
      <trkpt lat="49.94372" lon="2.18116">
        <ele>15.8</ele>
        <time>2022-03-02T13:19:35Z</time>
      </trkpt>
      <trkpt lat="49.94371" lon="2.18117">
        <ele>15.8</ele>
        <time>2022-03-02T13:19:36Z</time>
      </trkpt>
      <trkpt lat="49.94371" lon="2.18117">
        <ele>15.8</ele>
        <time>2022-03-02T13:19:37Z</time>
      </trkpt>
      <trkpt lat="49.94369" lon="2.1812">
        <ele>15.8</ele>
        <time>2022-03-02T13:19:38Z</time>
      </trkpt>
      <trkpt lat="49.94369" lon="2.18121">
        <ele>15.8</ele>
        <time>2022-03-02T13:19:39Z</time>
      </trkpt>
      <trkpt lat="49.94369" lon="2.18122">
        <ele>15.8</ele>
        <time>2022-03-02T13:19:40Z</time>
      </trkpt>
      <trkpt lat="49.94367" lon="2.18124">
        <ele>15.8</ele>
        <time>2022-03-02T13:19:41Z</time>
      </trkpt>
      <trkpt lat="49.94366" lon="2.18124">
        <ele>15.7</ele>
        <time>2022-03-02T13:19:42Z</time>
      </trkpt>
      <trkpt lat="49.94366" lon="2.18125">
        <ele>15.7</ele>
        <time>2022-03-02T13:19:43Z</time>
      </trkpt>
      <trkpt lat="49.94363" lon="2.18127">
        <ele>15.7</ele>
        <time>2022-03-02T13:19:44Z</time>
      </trkpt>
      <trkpt lat="49.94362" lon="2.18128">
        <ele>15.7</ele>
        <time>2022-03-02T13:19:46Z</time>
      </trkpt>
      <trkpt lat="49.94361" lon="2.18129">
        <ele>15.7</ele>
        <time>2022-03-02T13:19:47Z</time>
      </trkpt>
      <trkpt lat="49.9436" lon="2.1813">
        <ele>15.6</ele>
        <time>2022-03-02T13:19:48Z</time>
      </trkpt>
      <trkpt lat="49.94359" lon="2.18131">
        <ele>15.6</ele>
        <time>2022-03-02T13:19:49Z</time>
      </trkpt>
      <trkpt lat="49.94358" lon="2.18132">
        <ele>15.6</ele>
        <time>2022-03-02T13:19:50Z</time>
      </trkpt>
      <trkpt lat="49.94356" lon="2.18133">
        <ele>15.6</ele>
        <time>2022-03-02T13:19:51Z</time>
      </trkpt>
      <trkpt lat="49.94355" lon="2.18134">
        <ele>15.6</ele>
        <time>2022-03-02T13:19:52Z</time>
      </trkpt>
      <trkpt lat="49.94353" lon="2.18135">
        <ele>15.5</ele>
        <time>2022-03-02T13:19:53Z</time>
      </trkpt>
      <trkpt lat="49.94352" lon="2.18136">
        <ele>15.5</ele>
        <time>2022-03-02T13:19:55Z</time>
      </trkpt>
      <trkpt lat="49.94351" lon="2.18137">
        <ele>15.5</ele>
        <time>2022-03-02T13:19:56Z</time>
      </trkpt>
      <trkpt lat="49.94349" lon="2.18138">
        <ele>15.5</ele>
        <time>2022-03-02T13:19:57Z</time>
      </trkpt>
      <trkpt lat="49.94348" lon="2.18139">
        <ele>15.5</ele>
        <time>2022-03-02T13:19:58Z</time>
      </trkpt>
      <trkpt lat="49.94346" lon="2.1814">
        <ele>15.5</ele>
        <time>2022-03-02T13:20:00Z</time>
      </trkpt>
      <trkpt lat="49.94345" lon="2.18141">
        <ele>15.5</ele>
        <time>2022-03-02T13:20:01Z</time>
      </trkpt>
      <trkpt lat="49.94343" lon="2.18141">
        <ele>15.5</ele>
        <time>2022-03-02T13:20:02Z</time>
      </trkpt>
      <trkpt lat="49.94342" lon="2.18141">
        <ele>15.5</ele>
        <time>2022-03-02T13:20:03Z</time>
      </trkpt>
      <trkpt lat="49.94341" lon="2.18141">
        <ele>15.5</ele>
        <time>2022-03-02T13:20:04Z</time>
      </trkpt>
      <trkpt lat="49.94339" lon="2.18142">
        <ele>15.5</ele>
        <time>2022-03-02T13:20:05Z</time>
      </trkpt>
      <trkpt lat="49.94338" lon="2.18142">
        <ele>15.5</ele>
        <time>2022-03-02T13:20:06Z</time>
      </trkpt>
      <trkpt lat="49.94338" lon="2.18142">
        <ele>15.5</ele>
        <time>2022-03-02T13:20:07Z</time>
      </trkpt>
      <trkpt lat="49.94337" lon="2.18142">
        <ele>15.5</ele>
        <time>2022-03-02T13:20:08Z</time>
      </trkpt>
      <trkpt lat="49.94335" lon="2.18143">
        <ele>15.5</ele>
        <time>2022-03-02T13:20:10Z</time>
      </trkpt>
      <trkpt lat="49.94335" lon="2.18143">
        <ele>15.5</ele>
        <time>2022-03-02T13:20:11Z</time>
      </trkpt>
      <trkpt lat="49.94334" lon="2.18143">
        <ele>15.5</ele>
        <time>2022-03-02T13:20:12Z</time>
      </trkpt>
      <trkpt lat="49.94332" lon="2.18143">
        <ele>15.5</ele>
        <time>2022-03-02T13:20:13Z</time>
      </trkpt>
      <trkpt lat="49.94331" lon="2.18143">
        <ele>15.5</ele>
        <time>2022-03-02T13:20:14Z</time>
      </trkpt>
      <trkpt lat="49.9433" lon="2.18143">
        <ele>15.6</ele>
        <time>2022-03-02T13:20:15Z</time>
      </trkpt>
      <trkpt lat="49.94329" lon="2.18143">
        <ele>15.6</ele>
        <time>2022-03-02T13:20:16Z</time>
      </trkpt>
      <trkpt lat="49.94328" lon="2.18143">
        <ele>15.6</ele>
        <time>2022-03-02T13:20:17Z</time>
      </trkpt>
      <trkpt lat="49.94327" lon="2.18143">
        <ele>15.6</ele>
        <time>2022-03-02T13:20:18Z</time>
      </trkpt>
      <trkpt lat="49.94326" lon="2.18143">
        <ele>15.6</ele>
        <time>2022-03-02T13:20:19Z</time>
      </trkpt>
      <trkpt lat="49.94325" lon="2.18143">
        <ele>15.7</ele>
        <time>2022-03-02T13:20:20Z</time>
      </trkpt>
      <trkpt lat="49.94324" lon="2.18144">
        <ele>15.7</ele>
        <time>2022-03-02T13:20:21Z</time>
      </trkpt>
      <trkpt lat="49.94323" lon="2.18144">
        <ele>15.7</ele>
        <time>2022-03-02T13:20:23Z</time>
      </trkpt>
      <trkpt lat="49.94322" lon="2.18145">
        <ele>15.7</ele>
        <time>2022-03-02T13:20:24Z</time>
      </trkpt>
      <trkpt lat="49.9432" lon="2.18145">
        <ele>15.8</ele>
        <time>2022-03-02T13:20:25Z</time>
      </trkpt>
      <trkpt lat="49.94319" lon="2.18146">
        <ele>15.8</ele>
        <time>2022-03-02T13:20:26Z</time>
      </trkpt>
      <trkpt lat="49.94318" lon="2.18146">
        <ele>15.8</ele>
        <time>2022-03-02T13:20:27Z</time>
      </trkpt>
      <trkpt lat="49.94317" lon="2.18147">
        <ele>15.9</ele>
        <time>2022-03-02T13:20:28Z</time>
      </trkpt>
      <trkpt lat="49.94316" lon="2.18147">
        <ele>15.9</ele>
        <time>2022-03-02T13:20:29Z</time>
      </trkpt>
      <trkpt lat="49.94315" lon="2.18147">
        <ele>15.9</ele>
        <time>2022-03-02T13:20:30Z</time>
      </trkpt>
      <trkpt lat="49.94313" lon="2.18148">
        <ele>16</ele>
        <time>2022-03-02T13:20:31Z</time>
      </trkpt>
      <trkpt lat="49.94312" lon="2.18148">
        <ele>16</ele>
        <time>2022-03-02T13:20:32Z</time>
      </trkpt>
      <trkpt lat="49.94311" lon="2.18149">
        <ele>16</ele>
        <time>2022-03-02T13:20:33Z</time>
      </trkpt>
      <trkpt lat="49.9431" lon="2.18149">
        <ele>16</ele>
        <time>2022-03-02T13:20:35Z</time>
      </trkpt>
      <trkpt lat="49.94309" lon="2.18149">
        <ele>16.1</ele>
        <time>2022-03-02T13:20:36Z</time>
      </trkpt>
      <trkpt lat="49.94308" lon="2.1815">
        <ele>16.1</ele>
        <time>2022-03-02T13:20:37Z</time>
      </trkpt>
      <trkpt lat="49.94308" lon="2.1815">
        <ele>16.1</ele>
        <time>2022-03-02T13:20:38Z</time>
      </trkpt>
      <trkpt lat="49.94306" lon="2.1815">
        <ele>16.1</ele>
        <time>2022-03-02T13:20:39Z</time>
      </trkpt>
      <trkpt lat="49.94305" lon="2.18151">
        <ele>16.2</ele>
        <time>2022-03-02T13:20:40Z</time>
      </trkpt>
      <trkpt lat="49.94303" lon="2.18152">
        <ele>16.2</ele>
        <time>2022-03-02T13:20:42Z</time>
      </trkpt>
      <trkpt lat="49.94302" lon="2.18152">
        <ele>16.3</ele>
        <time>2022-03-02T13:20:43Z</time>
      </trkpt>
      <trkpt lat="49.94301" lon="2.18152">
        <ele>16.3</ele>
        <time>2022-03-02T13:20:44Z</time>
      </trkpt>
      <trkpt lat="49.94301" lon="2.18152">
        <ele>16.3</ele>
        <time>2022-03-02T13:20:45Z</time>
      </trkpt>
      <trkpt lat="49.943" lon="2.18152">
        <ele>16.3</ele>
        <time>2022-03-02T13:20:46Z</time>
      </trkpt>
      <trkpt lat="49.94299" lon="2.18153">
        <ele>16.3</ele>
        <time>2022-03-02T13:20:47Z</time>
      </trkpt>
      <trkpt lat="49.94297" lon="2.18153">
        <ele>16.4</ele>
        <time>2022-03-02T13:20:49Z</time>
      </trkpt>
      <trkpt lat="49.94296" lon="2.18153">
        <ele>16.4</ele>
        <time>2022-03-02T13:20:50Z</time>
      </trkpt>
      <trkpt lat="49.94295" lon="2.18154">
        <ele>16.4</ele>
        <time>2022-03-02T13:20:51Z</time>
      </trkpt>
      <trkpt lat="49.94294" lon="2.18154">
        <ele>16.4</ele>
        <time>2022-03-02T13:20:52Z</time>
      </trkpt>
      <trkpt lat="49.94293" lon="2.18154">
        <ele>16.4</ele>
        <time>2022-03-02T13:20:53Z</time>
      </trkpt>
      <trkpt lat="49.94292" lon="2.18155">
        <ele>16.5</ele>
        <time>2022-03-02T13:20:54Z</time>
      </trkpt>
      <trkpt lat="49.9429" lon="2.18155">
        <ele>16.5</ele>
        <time>2022-03-02T13:20:56Z</time>
      </trkpt>
      <trkpt lat="49.94288" lon="2.18156">
        <ele>16.5</ele>
        <time>2022-03-02T13:20:57Z</time>
      </trkpt>
      <trkpt lat="49.94287" lon="2.18157">
        <ele>16.5</ele>
        <time>2022-03-02T13:20:58Z</time>
      </trkpt>
      <trkpt lat="49.94287" lon="2.18157">
        <ele>16.5</ele>
        <time>2022-03-02T13:20:59Z</time>
      </trkpt>
      <trkpt lat="49.94283" lon="2.18158">
        <ele>16.6</ele>
        <time>2022-03-02T13:21:01Z</time>
      </trkpt>
      <trkpt lat="49.94282" lon="2.18158">
        <ele>16.6</ele>
        <time>2022-03-02T13:21:03Z</time>
      </trkpt>
      <trkpt lat="49.94282" lon="2.18159">
        <ele>16.6</ele>
        <time>2022-03-02T13:21:04Z</time>
      </trkpt>
      <trkpt lat="49.94281" lon="2.18159">
        <ele>16.6</ele>
        <time>2022-03-02T13:21:05Z</time>
      </trkpt>
      <trkpt lat="49.9428" lon="2.1816">
        <ele>16.6</ele>
        <time>2022-03-02T13:21:06Z</time>
      </trkpt>
      <trkpt lat="49.94278" lon="2.1816">
        <ele>16.6</ele>
        <time>2022-03-02T13:21:07Z</time>
      </trkpt>
      <trkpt lat="49.94277" lon="2.18161">
        <ele>16.6</ele>
        <time>2022-03-02T13:21:08Z</time>
      </trkpt>
      <trkpt lat="49.94276" lon="2.18161">
        <ele>16.6</ele>
        <time>2022-03-02T13:21:09Z</time>
      </trkpt>
      <trkpt lat="49.94275" lon="2.18162">
        <ele>16.6</ele>
        <time>2022-03-02T13:21:10Z</time>
      </trkpt>
      <trkpt lat="49.94274" lon="2.18163">
        <ele>16.6</ele>
        <time>2022-03-02T13:21:12Z</time>
      </trkpt>
      <trkpt lat="49.94271" lon="2.18164">
        <ele>16.6</ele>
        <time>2022-03-02T13:21:13Z</time>
      </trkpt>
      <trkpt lat="49.94271" lon="2.18164">
        <ele>16.6</ele>
        <time>2022-03-02T13:21:14Z</time>
      </trkpt>
      <trkpt lat="49.9427" lon="2.18164">
        <ele>16.6</ele>
        <time>2022-03-02T13:21:15Z</time>
      </trkpt>
      <trkpt lat="49.94268" lon="2.18165">
        <ele>16.6</ele>
        <time>2022-03-02T13:21:16Z</time>
      </trkpt>
      <trkpt lat="49.94267" lon="2.18165">
        <ele>16.6</ele>
        <time>2022-03-02T13:21:17Z</time>
      </trkpt>
      <trkpt lat="49.94265" lon="2.18166">
        <ele>16.6</ele>
        <time>2022-03-02T13:21:19Z</time>
      </trkpt>
      <trkpt lat="49.94264" lon="2.18166">
        <ele>16.6</ele>
        <time>2022-03-02T13:21:20Z</time>
      </trkpt>
      <trkpt lat="49.94262" lon="2.18167">
        <ele>16.6</ele>
        <time>2022-03-02T13:21:21Z</time>
      </trkpt>
      <trkpt lat="49.94261" lon="2.18168">
        <ele>16.6</ele>
        <time>2022-03-02T13:21:22Z</time>
      </trkpt>
      <trkpt lat="49.9426" lon="2.18168">
        <ele>16.6</ele>
        <time>2022-03-02T13:21:23Z</time>
      </trkpt>
      <trkpt lat="49.94258" lon="2.18169">
        <ele>16.5</ele>
        <time>2022-03-02T13:21:24Z</time>
      </trkpt>
      <trkpt lat="49.94256" lon="2.1817">
        <ele>16.5</ele>
        <time>2022-03-02T13:21:26Z</time>
      </trkpt>
      <trkpt lat="49.94255" lon="2.1817">
        <ele>16.5</ele>
        <time>2022-03-02T13:21:27Z</time>
      </trkpt>
      <trkpt lat="49.94253" lon="2.1817">
        <ele>16.5</ele>
        <time>2022-03-02T13:21:28Z</time>
      </trkpt>
      <trkpt lat="49.94252" lon="2.1817">
        <ele>16.5</ele>
        <time>2022-03-02T13:21:29Z</time>
      </trkpt>
      <trkpt lat="49.9425" lon="2.18171">
        <ele>16.5</ele>
        <time>2022-03-02T13:21:30Z</time>
      </trkpt>
      <trkpt lat="49.94248" lon="2.18171">
        <ele>16.5</ele>
        <time>2022-03-02T13:21:31Z</time>
      </trkpt>
      <trkpt lat="49.94247" lon="2.18171">
        <ele>16.5</ele>
        <time>2022-03-02T13:21:32Z</time>
      </trkpt>
      <trkpt lat="49.94246" lon="2.18171">
        <ele>16.6</ele>
        <time>2022-03-02T13:21:33Z</time>
      </trkpt>
      <trkpt lat="49.94243" lon="2.18171">
        <ele>16.6</ele>
        <time>2022-03-02T13:21:34Z</time>
      </trkpt>
      <trkpt lat="49.94243" lon="2.18171">
        <ele>16.6</ele>
        <time>2022-03-02T13:21:36Z</time>
      </trkpt>
      <trkpt lat="49.94242" lon="2.18171">
        <ele>16.6</ele>
        <time>2022-03-02T13:21:37Z</time>
      </trkpt>
      <trkpt lat="49.94241" lon="2.18171">
        <ele>16.6</ele>
        <time>2022-03-02T13:21:38Z</time>
      </trkpt>
      <trkpt lat="49.9424" lon="2.18171">
        <ele>16.6</ele>
        <time>2022-03-02T13:21:39Z</time>
      </trkpt>
      <trkpt lat="49.94238" lon="2.18172">
        <ele>16.6</ele>
        <time>2022-03-02T13:21:40Z</time>
      </trkpt>
      <trkpt lat="49.94237" lon="2.18172">
        <ele>16.6</ele>
        <time>2022-03-02T13:21:41Z</time>
      </trkpt>
      <trkpt lat="49.94236" lon="2.18172">
        <ele>16.6</ele>
        <time>2022-03-02T13:21:42Z</time>
      </trkpt>
      <trkpt lat="49.94235" lon="2.18171">
        <ele>16.6</ele>
        <time>2022-03-02T13:21:43Z</time>
      </trkpt>
      <trkpt lat="49.94234" lon="2.18171">
        <ele>16.7</ele>
        <time>2022-03-02T13:21:44Z</time>
      </trkpt>
      <trkpt lat="49.94233" lon="2.18171">
        <ele>16.7</ele>
        <time>2022-03-02T13:21:45Z</time>
      </trkpt>
      <trkpt lat="49.94232" lon="2.18171">
        <ele>16.7</ele>
        <time>2022-03-02T13:21:46Z</time>
      </trkpt>
      <trkpt lat="49.94229" lon="2.1817">
        <ele>16.7</ele>
        <time>2022-03-02T13:21:47Z</time>
      </trkpt>
      <trkpt lat="49.94228" lon="2.1817">
        <ele>16.7</ele>
        <time>2022-03-02T13:21:49Z</time>
      </trkpt>
      <trkpt lat="49.94227" lon="2.1817">
        <ele>16.7</ele>
        <time>2022-03-02T13:21:50Z</time>
      </trkpt>
      <trkpt lat="49.94226" lon="2.1817">
        <ele>16.7</ele>
        <time>2022-03-02T13:21:51Z</time>
      </trkpt>
      <trkpt lat="49.94224" lon="2.18169">
        <ele>16.8</ele>
        <time>2022-03-02T13:21:52Z</time>
      </trkpt>
      <trkpt lat="49.94224" lon="2.18168">
        <ele>16.8</ele>
        <time>2022-03-02T13:21:53Z</time>
      </trkpt>
      <trkpt lat="49.94223" lon="2.18168">
        <ele>16.8</ele>
        <time>2022-03-02T13:21:54Z</time>
      </trkpt>
      <trkpt lat="49.9422" lon="2.18168">
        <ele>16.8</ele>
        <time>2022-03-02T13:21:56Z</time>
      </trkpt>
      <trkpt lat="49.94219" lon="2.18167">
        <ele>16.8</ele>
        <time>2022-03-02T13:21:57Z</time>
      </trkpt>
      <trkpt lat="49.94218" lon="2.18167">
        <ele>16.8</ele>
        <time>2022-03-02T13:21:58Z</time>
      </trkpt>
      <trkpt lat="49.94217" lon="2.18166">
        <ele>16.8</ele>
        <time>2022-03-02T13:21:59Z</time>
      </trkpt>
      <trkpt lat="49.94216" lon="2.18165">
        <ele>16.8</ele>
        <time>2022-03-02T13:22:00Z</time>
      </trkpt>
      <trkpt lat="49.94215" lon="2.18164">
        <ele>16.8</ele>
        <time>2022-03-02T13:22:01Z</time>
      </trkpt>
      <trkpt lat="49.94213" lon="2.18163">
        <ele>16.8</ele>
        <time>2022-03-02T13:22:02Z</time>
      </trkpt>
      <trkpt lat="49.94212" lon="2.18162">
        <ele>16.9</ele>
        <time>2022-03-02T13:22:04Z</time>
      </trkpt>
      <trkpt lat="49.9421" lon="2.18161">
        <ele>16.9</ele>
        <time>2022-03-02T13:22:05Z</time>
      </trkpt>
      <trkpt lat="49.94209" lon="2.18161">
        <ele>16.9</ele>
        <time>2022-03-02T13:22:06Z</time>
      </trkpt>
      <trkpt lat="49.94208" lon="2.1816">
        <ele>16.9</ele>
        <time>2022-03-02T13:22:07Z</time>
      </trkpt>
      <trkpt lat="49.94207" lon="2.18159">
        <ele>16.9</ele>
        <time>2022-03-02T13:22:08Z</time>
      </trkpt>
      <trkpt lat="49.94206" lon="2.18158">
        <ele>16.9</ele>
        <time>2022-03-02T13:22:09Z</time>
      </trkpt>
      <trkpt lat="49.94205" lon="2.18157">
        <ele>16.9</ele>
        <time>2022-03-02T13:22:10Z</time>
      </trkpt>
      <trkpt lat="49.94204" lon="2.18157">
        <ele>16.9</ele>
        <time>2022-03-02T13:22:11Z</time>
      </trkpt>
      <trkpt lat="49.94203" lon="2.18156">
        <ele>16.9</ele>
        <time>2022-03-02T13:22:12Z</time>
      </trkpt>
      <trkpt lat="49.94202" lon="2.18155">
        <ele>16.9</ele>
        <time>2022-03-02T13:22:13Z</time>
      </trkpt>
      <trkpt lat="49.94201" lon="2.18155">
        <ele>16.9</ele>
        <time>2022-03-02T13:22:14Z</time>
      </trkpt>
      <trkpt lat="49.94199" lon="2.18154">
        <ele>16.9</ele>
        <time>2022-03-02T13:22:15Z</time>
      </trkpt>
      <trkpt lat="49.94198" lon="2.18153">
        <ele>16.9</ele>
        <time>2022-03-02T13:22:16Z</time>
      </trkpt>
      <trkpt lat="49.94197" lon="2.18153">
        <ele>16.9</ele>
        <time>2022-03-02T13:22:18Z</time>
      </trkpt>
      <trkpt lat="49.94195" lon="2.18152">
        <ele>16.9</ele>
        <time>2022-03-02T13:22:19Z</time>
      </trkpt>
      <trkpt lat="49.94194" lon="2.18152">
        <ele>16.9</ele>
        <time>2022-03-02T13:22:20Z</time>
      </trkpt>
      <trkpt lat="49.94193" lon="2.18151">
        <ele>16.9</ele>
        <time>2022-03-02T13:22:21Z</time>
      </trkpt>
      <trkpt lat="49.94191" lon="2.18151">
        <ele>16.9</ele>
        <time>2022-03-02T13:22:22Z</time>
      </trkpt>
      <trkpt lat="49.9419" lon="2.1815">
        <ele>16.9</ele>
        <time>2022-03-02T13:22:23Z</time>
      </trkpt>
      <trkpt lat="49.94189" lon="2.18149">
        <ele>16.8</ele>
        <time>2022-03-02T13:22:24Z</time>
      </trkpt>
      <trkpt lat="49.94187" lon="2.18148">
        <ele>16.8</ele>
        <time>2022-03-02T13:22:26Z</time>
      </trkpt>
      <trkpt lat="49.94186" lon="2.18147">
        <ele>16.8</ele>
        <time>2022-03-02T13:22:27Z</time>
      </trkpt>
      <trkpt lat="49.94185" lon="2.18146">
        <ele>16.8</ele>
        <time>2022-03-02T13:22:28Z</time>
      </trkpt>
      <trkpt lat="49.94184" lon="2.18145">
        <ele>16.8</ele>
        <time>2022-03-02T13:22:29Z</time>
      </trkpt>
      <trkpt lat="49.94183" lon="2.18143">
        <ele>16.8</ele>
        <time>2022-03-02T13:22:30Z</time>
      </trkpt>
      <trkpt lat="49.94182" lon="2.18142">
        <ele>16.8</ele>
        <time>2022-03-02T13:22:32Z</time>
      </trkpt>
      <trkpt lat="49.9418" lon="2.18141">
        <ele>16.8</ele>
        <time>2022-03-02T13:22:33Z</time>
      </trkpt>
      <trkpt lat="49.94179" lon="2.1814">
        <ele>16.8</ele>
        <time>2022-03-02T13:22:34Z</time>
      </trkpt>
      <trkpt lat="49.94177" lon="2.18138">
        <ele>16.7</ele>
        <time>2022-03-02T13:22:36Z</time>
      </trkpt>
      <trkpt lat="49.94176" lon="2.18137">
        <ele>16.7</ele>
        <time>2022-03-02T13:22:37Z</time>
      </trkpt>
      <trkpt lat="49.94175" lon="2.18136">
        <ele>16.7</ele>
        <time>2022-03-02T13:22:38Z</time>
      </trkpt>
      <trkpt lat="49.94174" lon="2.18134">
        <ele>16.7</ele>
        <time>2022-03-02T13:22:39Z</time>
      </trkpt>
      <trkpt lat="49.94173" lon="2.18133">
        <ele>16.7</ele>
        <time>2022-03-02T13:22:40Z</time>
      </trkpt>
      <trkpt lat="49.94171" lon="2.18132">
        <ele>16.7</ele>
        <time>2022-03-02T13:22:41Z</time>
      </trkpt>
      <trkpt lat="49.9417" lon="2.18131">
        <ele>16.6</ele>
        <time>2022-03-02T13:22:42Z</time>
      </trkpt>
      <trkpt lat="49.94169" lon="2.18129">
        <ele>16.6</ele>
        <time>2022-03-02T13:22:43Z</time>
      </trkpt>
      <trkpt lat="49.94168" lon="2.18128">
        <ele>16.6</ele>
        <time>2022-03-02T13:22:45Z</time>
      </trkpt>
      <trkpt lat="49.94167" lon="2.18126">
        <ele>16.6</ele>
        <time>2022-03-02T13:22:47Z</time>
      </trkpt>
      <trkpt lat="49.94166" lon="2.18125">
        <ele>16.5</ele>
        <time>2022-03-02T13:22:48Z</time>
      </trkpt>
      <trkpt lat="49.94165" lon="2.18124">
        <ele>16.5</ele>
        <time>2022-03-02T13:22:49Z</time>
      </trkpt>
      <trkpt lat="49.94164" lon="2.18123">
        <ele>16.5</ele>
        <time>2022-03-02T13:22:50Z</time>
      </trkpt>
      <trkpt lat="49.94164" lon="2.18121">
        <ele>16.5</ele>
        <time>2022-03-02T13:22:51Z</time>
      </trkpt>
      <trkpt lat="49.94163" lon="2.1812">
        <ele>16.4</ele>
        <time>2022-03-02T13:22:52Z</time>
      </trkpt>
      <trkpt lat="49.94162" lon="2.18119">
        <ele>16.4</ele>
        <time>2022-03-02T13:22:53Z</time>
      </trkpt>
      <trkpt lat="49.94161" lon="2.18119">
        <ele>16.4</ele>
        <time>2022-03-02T13:22:54Z</time>
      </trkpt>
      <trkpt lat="49.94161" lon="2.18118">
        <ele>16.4</ele>
        <time>2022-03-02T13:22:55Z</time>
      </trkpt>
      <trkpt lat="49.9416" lon="2.18117">
        <ele>16.4</ele>
        <time>2022-03-02T13:22:56Z</time>
      </trkpt>
      <trkpt lat="49.94158" lon="2.18116">
        <ele>16.3</ele>
        <time>2022-03-02T13:22:58Z</time>
      </trkpt>
      <trkpt lat="49.94157" lon="2.18115">
        <ele>16.3</ele>
        <time>2022-03-02T13:22:59Z</time>
      </trkpt>
      <trkpt lat="49.94156" lon="2.18115">
        <ele>16.3</ele>
        <time>2022-03-02T13:23:00Z</time>
      </trkpt>
      <trkpt lat="49.94155" lon="2.18114">
        <ele>16.2</ele>
        <time>2022-03-02T13:23:01Z</time>
      </trkpt>
      <trkpt lat="49.94154" lon="2.18113">
        <ele>16.2</ele>
        <time>2022-03-02T13:23:02Z</time>
      </trkpt>
      <trkpt lat="49.94153" lon="2.18113">
        <ele>16.2</ele>
        <time>2022-03-02T13:23:03Z</time>
      </trkpt>
      <trkpt lat="49.94152" lon="2.18112">
        <ele>16.2</ele>
        <time>2022-03-02T13:23:04Z</time>
      </trkpt>
      <trkpt lat="49.94151" lon="2.18111">
        <ele>16.1</ele>
        <time>2022-03-02T13:23:05Z</time>
      </trkpt>
      <trkpt lat="49.9415" lon="2.1811">
        <ele>16.1</ele>
        <time>2022-03-02T13:23:06Z</time>
      </trkpt>
      <trkpt lat="49.94149" lon="2.18109">
        <ele>16.1</ele>
        <time>2022-03-02T13:23:07Z</time>
      </trkpt>
      <trkpt lat="49.94148" lon="2.18108">
        <ele>16.1</ele>
        <time>2022-03-02T13:23:08Z</time>
      </trkpt>
      <trkpt lat="49.94146" lon="2.18107">
        <ele>16</ele>
        <time>2022-03-02T13:23:10Z</time>
      </trkpt>
      <trkpt lat="49.94145" lon="2.18106">
        <ele>16</ele>
        <time>2022-03-02T13:23:11Z</time>
      </trkpt>
      <trkpt lat="49.94144" lon="2.18105">
        <ele>16</ele>
        <time>2022-03-02T13:23:12Z</time>
      </trkpt>
      <trkpt lat="49.94141" lon="2.18104">
        <ele>15.9</ele>
        <time>2022-03-02T13:23:14Z</time>
      </trkpt>
      <trkpt lat="49.9414" lon="2.18103">
        <ele>15.9</ele>
        <time>2022-03-02T13:23:16Z</time>
      </trkpt>
      <trkpt lat="49.94139" lon="2.18103">
        <ele>15.8</ele>
        <time>2022-03-02T13:23:17Z</time>
      </trkpt>
      <trkpt lat="49.94137" lon="2.18102">
        <ele>15.8</ele>
        <time>2022-03-02T13:23:18Z</time>
      </trkpt>
      <trkpt lat="49.94136" lon="2.18102">
        <ele>15.8</ele>
        <time>2022-03-02T13:23:19Z</time>
      </trkpt>
      <trkpt lat="49.94135" lon="2.18101">
        <ele>15.8</ele>
        <time>2022-03-02T13:23:20Z</time>
      </trkpt>
      <trkpt lat="49.94133" lon="2.181">
        <ele>15.7</ele>
        <time>2022-03-02T13:23:21Z</time>
      </trkpt>
      <trkpt lat="49.94132" lon="2.181">
        <ele>15.7</ele>
        <time>2022-03-02T13:23:22Z</time>
      </trkpt>
      <trkpt lat="49.94131" lon="2.181">
        <ele>15.7</ele>
        <time>2022-03-02T13:23:24Z</time>
      </trkpt>
      <trkpt lat="49.94129" lon="2.18099">
        <ele>15.7</ele>
        <time>2022-03-02T13:23:25Z</time>
      </trkpt>
      <trkpt lat="49.94128" lon="2.18099">
        <ele>15.6</ele>
        <time>2022-03-02T13:23:26Z</time>
      </trkpt>
      <trkpt lat="49.94126" lon="2.18098">
        <ele>15.6</ele>
        <time>2022-03-02T13:23:27Z</time>
      </trkpt>
      <trkpt lat="49.94125" lon="2.18097">
        <ele>15.6</ele>
        <time>2022-03-02T13:23:28Z</time>
      </trkpt>
      <trkpt lat="49.94124" lon="2.18096">
        <ele>15.6</ele>
        <time>2022-03-02T13:23:29Z</time>
      </trkpt>
      <trkpt lat="49.94122" lon="2.18096">
        <ele>15.5</ele>
        <time>2022-03-02T13:23:30Z</time>
      </trkpt>
      <trkpt lat="49.94121" lon="2.18095">
        <ele>15.5</ele>
        <time>2022-03-02T13:23:31Z</time>
      </trkpt>
      <trkpt lat="49.94118" lon="2.18094">
        <ele>15.5</ele>
        <time>2022-03-02T13:23:33Z</time>
      </trkpt>
      <trkpt lat="49.94117" lon="2.18093">
        <ele>15.4</ele>
        <time>2022-03-02T13:23:34Z</time>
      </trkpt>
      <trkpt lat="49.94116" lon="2.18092">
        <ele>15.4</ele>
        <time>2022-03-02T13:23:35Z</time>
      </trkpt>
      <trkpt lat="49.94115" lon="2.18092">
        <ele>15.4</ele>
        <time>2022-03-02T13:23:36Z</time>
      </trkpt>
      <trkpt lat="49.94114" lon="2.18091">
        <ele>15.4</ele>
        <time>2022-03-02T13:23:37Z</time>
      </trkpt>
      <trkpt lat="49.94113" lon="2.18091">
        <ele>15.4</ele>
        <time>2022-03-02T13:23:38Z</time>
      </trkpt>
      <trkpt lat="49.94111" lon="2.18089">
        <ele>15.3</ele>
        <time>2022-03-02T13:23:39Z</time>
      </trkpt>
      <trkpt lat="49.94109" lon="2.18088">
        <ele>15.3</ele>
        <time>2022-03-02T13:23:40Z</time>
      </trkpt>
      <trkpt lat="49.94107" lon="2.18086">
        <ele>15.3</ele>
        <time>2022-03-02T13:23:41Z</time>
      </trkpt>
      <trkpt lat="49.94106" lon="2.18085">
        <ele>15.3</ele>
        <time>2022-03-02T13:23:43Z</time>
      </trkpt>
      <trkpt lat="49.94105" lon="2.18085">
        <ele>15.2</ele>
        <time>2022-03-02T13:23:44Z</time>
      </trkpt>
      <trkpt lat="49.94105" lon="2.18084">
        <ele>15.2</ele>
        <time>2022-03-02T13:23:45Z</time>
      </trkpt>
      <trkpt lat="49.94104" lon="2.18083">
        <ele>15.2</ele>
        <time>2022-03-02T13:23:46Z</time>
      </trkpt>
      <trkpt lat="49.94104" lon="2.18082">
        <ele>15.2</ele>
        <time>2022-03-02T13:23:47Z</time>
      </trkpt>
      <trkpt lat="49.94103" lon="2.18081">
        <ele>15.2</ele>
        <time>2022-03-02T13:23:48Z</time>
      </trkpt>
      <trkpt lat="49.94101" lon="2.1808">
        <ele>15.2</ele>
        <time>2022-03-02T13:23:49Z</time>
      </trkpt>
      <trkpt lat="49.941" lon="2.18079">
        <ele>15.2</ele>
        <time>2022-03-02T13:23:50Z</time>
      </trkpt>
      <trkpt lat="49.94099" lon="2.18079">
        <ele>15.2</ele>
        <time>2022-03-02T13:23:51Z</time>
      </trkpt>
      <trkpt lat="49.94098" lon="2.18078">
        <ele>15.2</ele>
        <time>2022-03-02T13:23:52Z</time>
      </trkpt>
      <trkpt lat="49.94097" lon="2.18077">
        <ele>15.2</ele>
        <time>2022-03-02T13:23:53Z</time>
      </trkpt>
      <trkpt lat="49.94095" lon="2.18077">
        <ele>15.2</ele>
        <time>2022-03-02T13:23:54Z</time>
      </trkpt>
      <trkpt lat="49.94094" lon="2.18076">
        <ele>15.2</ele>
        <time>2022-03-02T13:23:55Z</time>
      </trkpt>
      <trkpt lat="49.94093" lon="2.18075">
        <ele>15.2</ele>
        <time>2022-03-02T13:23:56Z</time>
      </trkpt>
      <trkpt lat="49.94092" lon="2.18074">
        <ele>15.2</ele>
        <time>2022-03-02T13:23:58Z</time>
      </trkpt>
      <trkpt lat="49.94091" lon="2.18073">
        <ele>15.2</ele>
        <time>2022-03-02T13:23:59Z</time>
      </trkpt>
      <trkpt lat="49.9409" lon="2.18073">
        <ele>15.2</ele>
        <time>2022-03-02T13:24:00Z</time>
      </trkpt>
      <trkpt lat="49.94089" lon="2.18072">
        <ele>15.2</ele>
        <time>2022-03-02T13:24:01Z</time>
      </trkpt>
      <trkpt lat="49.94088" lon="2.18071">
        <ele>15.2</ele>
        <time>2022-03-02T13:24:02Z</time>
      </trkpt>
      <trkpt lat="49.94087" lon="2.1807">
        <ele>15.2</ele>
        <time>2022-03-02T13:24:03Z</time>
      </trkpt>
      <trkpt lat="49.94086" lon="2.18068">
        <ele>15.2</ele>
        <time>2022-03-02T13:24:04Z</time>
      </trkpt>
      <trkpt lat="49.94085" lon="2.18068">
        <ele>15.2</ele>
        <time>2022-03-02T13:24:05Z</time>
      </trkpt>
      <trkpt lat="49.94084" lon="2.18067">
        <ele>15.2</ele>
        <time>2022-03-02T13:24:06Z</time>
      </trkpt>
      <trkpt lat="49.94083" lon="2.18066">
        <ele>15.3</ele>
        <time>2022-03-02T13:24:08Z</time>
      </trkpt>
      <trkpt lat="49.94082" lon="2.18065">
        <ele>15.3</ele>
        <time>2022-03-02T13:24:09Z</time>
      </trkpt>
      <trkpt lat="49.94081" lon="2.18065">
        <ele>15.3</ele>
        <time>2022-03-02T13:24:10Z</time>
      </trkpt>
      <trkpt lat="49.9408" lon="2.18064">
        <ele>15.3</ele>
        <time>2022-03-02T13:24:11Z</time>
      </trkpt>
      <trkpt lat="49.94079" lon="2.18063">
        <ele>15.3</ele>
        <time>2022-03-02T13:24:12Z</time>
      </trkpt>
      <trkpt lat="49.94078" lon="2.18062">
        <ele>15.3</ele>
        <time>2022-03-02T13:24:13Z</time>
      </trkpt>
      <trkpt lat="49.94077" lon="2.18061">
        <ele>15.3</ele>
        <time>2022-03-02T13:24:14Z</time>
      </trkpt>
      <trkpt lat="49.94076" lon="2.18059">
        <ele>15.3</ele>
        <time>2022-03-02T13:24:15Z</time>
      </trkpt>
      <trkpt lat="49.94075" lon="2.18059">
        <ele>15.3</ele>
        <time>2022-03-02T13:24:16Z</time>
      </trkpt>
      <trkpt lat="49.94074" lon="2.18058">
        <ele>15.3</ele>
        <time>2022-03-02T13:24:18Z</time>
      </trkpt>
      <trkpt lat="49.94073" lon="2.18057">
        <ele>15.3</ele>
        <time>2022-03-02T13:24:19Z</time>
      </trkpt>
      <trkpt lat="49.94072" lon="2.18057">
        <ele>15.3</ele>
        <time>2022-03-02T13:24:20Z</time>
      </trkpt>
      <trkpt lat="49.94071" lon="2.18056">
        <ele>15.3</ele>
        <time>2022-03-02T13:24:21Z</time>
      </trkpt>
      <trkpt lat="49.9407" lon="2.18055">
        <ele>15.3</ele>
        <time>2022-03-02T13:24:22Z</time>
      </trkpt>
      <trkpt lat="49.94068" lon="2.18054">
        <ele>15.4</ele>
        <time>2022-03-02T13:24:23Z</time>
      </trkpt>
      <trkpt lat="49.94067" lon="2.18053">
        <ele>15.4</ele>
        <time>2022-03-02T13:24:24Z</time>
      </trkpt>
      <trkpt lat="49.94066" lon="2.18052">
        <ele>15.4</ele>
        <time>2022-03-02T13:24:25Z</time>
      </trkpt>
      <trkpt lat="49.94066" lon="2.18052">
        <ele>15.4</ele>
        <time>2022-03-02T13:24:26Z</time>
      </trkpt>
      <trkpt lat="49.94064" lon="2.1805">
        <ele>15.4</ele>
        <time>2022-03-02T13:24:27Z</time>
      </trkpt>
      <trkpt lat="49.94063" lon="2.18049">
        <ele>15.4</ele>
        <time>2022-03-02T13:24:28Z</time>
      </trkpt>
      <trkpt lat="49.94062" lon="2.18049">
        <ele>15.4</ele>
        <time>2022-03-02T13:24:29Z</time>
      </trkpt>
      <trkpt lat="49.94061" lon="2.18048">
        <ele>15.4</ele>
        <time>2022-03-02T13:24:31Z</time>
      </trkpt>
      <trkpt lat="49.94059" lon="2.18047">
        <ele>15.4</ele>
        <time>2022-03-02T13:24:32Z</time>
      </trkpt>
      <trkpt lat="49.94058" lon="2.18045">
        <ele>15.4</ele>
        <time>2022-03-02T13:24:33Z</time>
      </trkpt>
      <trkpt lat="49.94057" lon="2.18044">
        <ele>15.4</ele>
        <time>2022-03-02T13:24:34Z</time>
      </trkpt>
      <trkpt lat="49.94056" lon="2.18044">
        <ele>15.5</ele>
        <time>2022-03-02T13:24:35Z</time>
      </trkpt>
      <trkpt lat="49.94055" lon="2.18043">
        <ele>15.5</ele>
        <time>2022-03-02T13:24:36Z</time>
      </trkpt>
      <trkpt lat="49.94053" lon="2.18042">
        <ele>15.5</ele>
        <time>2022-03-02T13:24:37Z</time>
      </trkpt>
      <trkpt lat="49.94051" lon="2.18041">
        <ele>15.5</ele>
        <time>2022-03-02T13:24:38Z</time>
      </trkpt>
      <trkpt lat="49.9405" lon="2.1804">
        <ele>15.5</ele>
        <time>2022-03-02T13:24:39Z</time>
      </trkpt>
      <trkpt lat="49.94049" lon="2.1804">
        <ele>15.5</ele>
        <time>2022-03-02T13:24:40Z</time>
      </trkpt>
      <trkpt lat="49.94048" lon="2.18039">
        <ele>15.5</ele>
        <time>2022-03-02T13:24:41Z</time>
      </trkpt>
      <trkpt lat="49.94046" lon="2.18039">
        <ele>15.6</ele>
        <time>2022-03-02T13:24:43Z</time>
      </trkpt>
      <trkpt lat="49.94045" lon="2.18038">
        <ele>15.6</ele>
        <time>2022-03-02T13:24:44Z</time>
      </trkpt>
      <trkpt lat="49.94044" lon="2.18037">
        <ele>15.6</ele>
        <time>2022-03-02T13:24:45Z</time>
      </trkpt>
      <trkpt lat="49.94042" lon="2.18036">
        <ele>15.6</ele>
        <time>2022-03-02T13:24:46Z</time>
      </trkpt>
      <trkpt lat="49.94041" lon="2.18034">
        <ele>15.7</ele>
        <time>2022-03-02T13:24:47Z</time>
      </trkpt>
      <trkpt lat="49.9404" lon="2.18033">
        <ele>15.7</ele>
        <time>2022-03-02T13:24:48Z</time>
      </trkpt>
      <trkpt lat="49.94038" lon="2.18032">
        <ele>15.7</ele>
        <time>2022-03-02T13:24:49Z</time>
      </trkpt>
      <trkpt lat="49.94036" lon="2.18031">
        <ele>15.7</ele>
        <time>2022-03-02T13:24:50Z</time>
      </trkpt>
      <trkpt lat="49.94036" lon="2.1803">
        <ele>15.7</ele>
        <time>2022-03-02T13:24:51Z</time>
      </trkpt>
      <trkpt lat="49.94035" lon="2.1803">
        <ele>15.8</ele>
        <time>2022-03-02T13:24:52Z</time>
      </trkpt>
      <trkpt lat="49.94034" lon="2.18029">
        <ele>15.8</ele>
        <time>2022-03-02T13:24:54Z</time>
      </trkpt>
      <trkpt lat="49.94033" lon="2.18029">
        <ele>15.8</ele>
        <time>2022-03-02T13:24:55Z</time>
      </trkpt>
      <trkpt lat="49.94032" lon="2.18028">
        <ele>15.8</ele>
        <time>2022-03-02T13:24:56Z</time>
      </trkpt>
      <trkpt lat="49.94031" lon="2.18028">
        <ele>15.8</ele>
        <time>2022-03-02T13:24:57Z</time>
      </trkpt>
      <trkpt lat="49.9403" lon="2.18027">
        <ele>15.8</ele>
        <time>2022-03-02T13:24:58Z</time>
      </trkpt>
      <trkpt lat="49.94029" lon="2.18026">
        <ele>15.8</ele>
        <time>2022-03-02T13:24:59Z</time>
      </trkpt>
      <trkpt lat="49.94027" lon="2.18026">
        <ele>15.9</ele>
        <time>2022-03-02T13:25:00Z</time>
      </trkpt>
      <trkpt lat="49.94025" lon="2.18025">
        <ele>15.9</ele>
        <time>2022-03-02T13:25:02Z</time>
      </trkpt>
      <trkpt lat="49.94024" lon="2.18024">
        <ele>15.9</ele>
        <time>2022-03-02T13:25:03Z</time>
      </trkpt>
      <trkpt lat="49.94023" lon="2.18024">
        <ele>15.9</ele>
        <time>2022-03-02T13:25:04Z</time>
      </trkpt>
      <trkpt lat="49.94021" lon="2.18023">
        <ele>15.9</ele>
        <time>2022-03-02T13:25:05Z</time>
      </trkpt>
      <trkpt lat="49.9402" lon="2.18023">
        <ele>15.9</ele>
        <time>2022-03-02T13:25:06Z</time>
      </trkpt>
      <trkpt lat="49.9402" lon="2.18023">
        <ele>15.9</ele>
        <time>2022-03-02T13:25:07Z</time>
      </trkpt>
      <trkpt lat="49.94019" lon="2.18023">
        <ele>15.9</ele>
        <time>2022-03-02T13:25:08Z</time>
      </trkpt>
      <trkpt lat="49.94018" lon="2.18022">
        <ele>15.9</ele>
        <time>2022-03-02T13:25:09Z</time>
      </trkpt>
      <trkpt lat="49.94017" lon="2.18022">
        <ele>15.9</ele>
        <time>2022-03-02T13:25:10Z</time>
      </trkpt>
      <trkpt lat="49.94015" lon="2.18021">
        <ele>15.9</ele>
        <time>2022-03-02T13:25:12Z</time>
      </trkpt>
      <trkpt lat="49.94014" lon="2.18021">
        <ele>15.8</ele>
        <time>2022-03-02T13:25:13Z</time>
      </trkpt>
      <trkpt lat="49.94013" lon="2.18021">
        <ele>15.8</ele>
        <time>2022-03-02T13:25:14Z</time>
      </trkpt>
      <trkpt lat="49.94012" lon="2.1802">
        <ele>15.8</ele>
        <time>2022-03-02T13:25:16Z</time>
      </trkpt>
      <trkpt lat="49.94011" lon="2.1802">
        <ele>15.8</ele>
        <time>2022-03-02T13:25:17Z</time>
      </trkpt>
      <trkpt lat="49.9401" lon="2.18019">
        <ele>15.8</ele>
        <time>2022-03-02T13:25:18Z</time>
      </trkpt>
      <trkpt lat="49.94009" lon="2.18019">
        <ele>15.8</ele>
        <time>2022-03-02T13:25:19Z</time>
      </trkpt>
      <trkpt lat="49.94009" lon="2.18018">
        <ele>15.8</ele>
        <time>2022-03-02T13:25:20Z</time>
      </trkpt>
      <trkpt lat="49.94008" lon="2.18017">
        <ele>15.8</ele>
        <time>2022-03-02T13:25:21Z</time>
      </trkpt>
      <trkpt lat="49.94007" lon="2.18016">
        <ele>15.8</ele>
        <time>2022-03-02T13:25:22Z</time>
      </trkpt>
      <trkpt lat="49.94006" lon="2.18015">
        <ele>15.8</ele>
        <time>2022-03-02T13:25:23Z</time>
      </trkpt>
      <trkpt lat="49.94005" lon="2.18014">
        <ele>15.7</ele>
        <time>2022-03-02T13:25:24Z</time>
      </trkpt>
      <trkpt lat="49.94004" lon="2.18013">
        <ele>15.7</ele>
        <time>2022-03-02T13:25:25Z</time>
      </trkpt>
      <trkpt lat="49.94004" lon="2.18013">
        <ele>15.7</ele>
        <time>2022-03-02T13:25:26Z</time>
      </trkpt>
      <trkpt lat="49.94003" lon="2.18013">
        <ele>15.7</ele>
        <time>2022-03-02T13:25:27Z</time>
      </trkpt>
      <trkpt lat="49.94001" lon="2.18013">
        <ele>15.7</ele>
        <time>2022-03-02T13:25:29Z</time>
      </trkpt>
      <trkpt lat="49.94" lon="2.18013">
        <ele>15.7</ele>
        <time>2022-03-02T13:25:30Z</time>
      </trkpt>
      <trkpt lat="49.94" lon="2.18013">
        <ele>15.7</ele>
        <time>2022-03-02T13:25:31Z</time>
      </trkpt>
      <trkpt lat="49.93999" lon="2.18013">
        <ele>15.7</ele>
        <time>2022-03-02T13:25:32Z</time>
      </trkpt>
      <trkpt lat="49.93998" lon="2.18014">
        <ele>15.7</ele>
        <time>2022-03-02T13:25:33Z</time>
      </trkpt>
      <trkpt lat="49.93997" lon="2.18014">
        <ele>15.6</ele>
        <time>2022-03-02T13:25:34Z</time>
      </trkpt>
      <trkpt lat="49.93996" lon="2.18014">
        <ele>15.6</ele>
        <time>2022-03-02T13:25:36Z</time>
      </trkpt>
      <trkpt lat="49.93995" lon="2.18015">
        <ele>15.6</ele>
        <time>2022-03-02T13:25:37Z</time>
      </trkpt>
      <trkpt lat="49.93994" lon="2.18016">
        <ele>15.6</ele>
        <time>2022-03-02T13:25:38Z</time>
      </trkpt>
      <trkpt lat="49.93993" lon="2.18017">
        <ele>15.6</ele>
        <time>2022-03-02T13:25:39Z</time>
      </trkpt>
      <trkpt lat="49.93992" lon="2.18018">
        <ele>15.6</ele>
        <time>2022-03-02T13:25:40Z</time>
      </trkpt>
      <trkpt lat="49.93991" lon="2.18019">
        <ele>15.6</ele>
        <time>2022-03-02T13:25:41Z</time>
      </trkpt>
      <trkpt lat="49.93989" lon="2.1802">
        <ele>15.5</ele>
        <time>2022-03-02T13:25:42Z</time>
      </trkpt>
      <trkpt lat="49.93988" lon="2.18021">
        <ele>15.5</ele>
        <time>2022-03-02T13:25:43Z</time>
      </trkpt>
      <trkpt lat="49.93987" lon="2.18022">
        <ele>15.5</ele>
        <time>2022-03-02T13:25:44Z</time>
      </trkpt>
      <trkpt lat="49.93986" lon="2.18023">
        <ele>15.5</ele>
        <time>2022-03-02T13:25:45Z</time>
      </trkpt>
      <trkpt lat="49.93985" lon="2.18024">
        <ele>15.5</ele>
        <time>2022-03-02T13:25:46Z</time>
      </trkpt>
      <trkpt lat="49.93983" lon="2.18026">
        <ele>15.5</ele>
        <time>2022-03-02T13:25:48Z</time>
      </trkpt>
      <trkpt lat="49.9398" lon="2.18027">
        <ele>15.4</ele>
        <time>2022-03-02T13:25:49Z</time>
      </trkpt>
      <trkpt lat="49.93979" lon="2.18028">
        <ele>15.4</ele>
        <time>2022-03-02T13:25:50Z</time>
      </trkpt>
      <trkpt lat="49.93976" lon="2.18029">
        <ele>15.4</ele>
        <time>2022-03-02T13:25:52Z</time>
      </trkpt>
      <trkpt lat="49.93976" lon="2.1803">
        <ele>15.4</ele>
        <time>2022-03-02T13:25:53Z</time>
      </trkpt>
      <trkpt lat="49.93974" lon="2.1803">
        <ele>15.4</ele>
        <time>2022-03-02T13:25:54Z</time>
      </trkpt>
      <trkpt lat="49.93973" lon="2.1803">
        <ele>15.4</ele>
        <time>2022-03-02T13:25:55Z</time>
      </trkpt>
      <trkpt lat="49.9397" lon="2.1803">
        <ele>15.4</ele>
        <time>2022-03-02T13:25:56Z</time>
      </trkpt>
      <trkpt lat="49.93969" lon="2.1803">
        <ele>15.4</ele>
        <time>2022-03-02T13:25:57Z</time>
      </trkpt>
      <trkpt lat="49.93969" lon="2.1803">
        <ele>15.4</ele>
        <time>2022-03-02T13:25:58Z</time>
      </trkpt>
      <trkpt lat="49.93967" lon="2.18029">
        <ele>15.4</ele>
        <time>2022-03-02T13:25:59Z</time>
      </trkpt>
      <trkpt lat="49.93966" lon="2.18029">
        <ele>15.4</ele>
        <time>2022-03-02T13:26:00Z</time>
      </trkpt>
      <trkpt lat="49.93964" lon="2.18028">
        <ele>15.4</ele>
        <time>2022-03-02T13:26:02Z</time>
      </trkpt>
      <trkpt lat="49.93962" lon="2.18027">
        <ele>15.4</ele>
        <time>2022-03-02T13:26:03Z</time>
      </trkpt>
      <trkpt lat="49.93961" lon="2.18026">
        <ele>15.4</ele>
        <time>2022-03-02T13:26:04Z</time>
      </trkpt>
      <trkpt lat="49.93959" lon="2.18025">
        <ele>15.4</ele>
        <time>2022-03-02T13:26:05Z</time>
      </trkpt>
      <trkpt lat="49.93958" lon="2.18024">
        <ele>15.4</ele>
        <time>2022-03-02T13:26:06Z</time>
      </trkpt>
      <trkpt lat="49.93957" lon="2.18023">
        <ele>15.4</ele>
        <time>2022-03-02T13:26:07Z</time>
      </trkpt>
      <trkpt lat="49.93955" lon="2.18022">
        <ele>15.4</ele>
        <time>2022-03-02T13:26:09Z</time>
      </trkpt>
      <trkpt lat="49.93954" lon="2.18021">
        <ele>15.4</ele>
        <time>2022-03-02T13:26:10Z</time>
      </trkpt>
      <trkpt lat="49.93952" lon="2.18019">
        <ele>15.4</ele>
        <time>2022-03-02T13:26:11Z</time>
      </trkpt>
      <trkpt lat="49.93951" lon="2.18018">
        <ele>15.4</ele>
        <time>2022-03-02T13:26:12Z</time>
      </trkpt>
      <trkpt lat="49.9395" lon="2.18018">
        <ele>15.4</ele>
        <time>2022-03-02T13:26:13Z</time>
      </trkpt>
      <trkpt lat="49.93949" lon="2.18017">
        <ele>15.4</ele>
        <time>2022-03-02T13:26:14Z</time>
      </trkpt>
      <trkpt lat="49.93948" lon="2.18017">
        <ele>15.5</ele>
        <time>2022-03-02T13:26:15Z</time>
      </trkpt>
      <trkpt lat="49.93947" lon="2.18016">
        <ele>15.5</ele>
        <time>2022-03-02T13:26:17Z</time>
      </trkpt>
      <trkpt lat="49.93945" lon="2.18015">
        <ele>15.5</ele>
        <time>2022-03-02T13:26:18Z</time>
      </trkpt>
      <trkpt lat="49.93945" lon="2.18014">
        <ele>15.5</ele>
        <time>2022-03-02T13:26:19Z</time>
      </trkpt>
      <trkpt lat="49.93944" lon="2.18014">
        <ele>15.5</ele>
        <time>2022-03-02T13:26:20Z</time>
      </trkpt>
      <trkpt lat="49.93943" lon="2.18013">
        <ele>15.5</ele>
        <time>2022-03-02T13:26:21Z</time>
      </trkpt>
      <trkpt lat="49.93942" lon="2.18012">
        <ele>15.5</ele>
        <time>2022-03-02T13:26:22Z</time>
      </trkpt>
      <trkpt lat="49.9394" lon="2.18011">
        <ele>15.5</ele>
        <time>2022-03-02T13:26:23Z</time>
      </trkpt>
      <trkpt lat="49.93939" lon="2.1801">
        <ele>15.5</ele>
        <time>2022-03-02T13:26:25Z</time>
      </trkpt>
      <trkpt lat="49.93938" lon="2.18009">
        <ele>15.5</ele>
        <time>2022-03-02T13:26:26Z</time>
      </trkpt>
      <trkpt lat="49.93937" lon="2.18008">
        <ele>15.6</ele>
        <time>2022-03-02T13:26:27Z</time>
      </trkpt>
      <trkpt lat="49.93936" lon="2.18007">
        <ele>15.6</ele>
        <time>2022-03-02T13:26:28Z</time>
      </trkpt>
      <trkpt lat="49.93935" lon="2.18007">
        <ele>15.6</ele>
        <time>2022-03-02T13:26:29Z</time>
      </trkpt>
      <trkpt lat="49.93935" lon="2.18007">
        <ele>15.6</ele>
        <time>2022-03-02T13:26:30Z</time>
      </trkpt>
      <trkpt lat="49.93934" lon="2.18006">
        <ele>15.6</ele>
        <time>2022-03-02T13:26:31Z</time>
      </trkpt>
      <trkpt lat="49.93933" lon="2.18006">
        <ele>15.6</ele>
        <time>2022-03-02T13:26:32Z</time>
      </trkpt>
      <trkpt lat="49.93932" lon="2.18005">
        <ele>15.6</ele>
        <time>2022-03-02T13:26:34Z</time>
      </trkpt>
      <trkpt lat="49.9393" lon="2.18005">
        <ele>15.6</ele>
        <time>2022-03-02T13:26:35Z</time>
      </trkpt>
      <trkpt lat="49.93929" lon="2.18005">
        <ele>15.6</ele>
        <time>2022-03-02T13:26:36Z</time>
      </trkpt>
      <trkpt lat="49.93929" lon="2.18004">
        <ele>15.6</ele>
        <time>2022-03-02T13:26:37Z</time>
      </trkpt>
      <trkpt lat="49.93928" lon="2.18003">
        <ele>15.6</ele>
        <time>2022-03-02T13:26:38Z</time>
      </trkpt>
      <trkpt lat="49.93927" lon="2.18003">
        <ele>15.6</ele>
        <time>2022-03-02T13:26:39Z</time>
      </trkpt>
      <trkpt lat="49.93925" lon="2.18002">
        <ele>15.7</ele>
        <time>2022-03-02T13:26:41Z</time>
      </trkpt>
      <trkpt lat="49.93924" lon="2.18001">
        <ele>15.7</ele>
        <time>2022-03-02T13:26:42Z</time>
      </trkpt>
      <trkpt lat="49.93924" lon="2.17999">
        <ele>15.7</ele>
        <time>2022-03-02T13:26:43Z</time>
      </trkpt>
      <trkpt lat="49.93922" lon="2.17998">
        <ele>15.7</ele>
        <time>2022-03-02T13:26:45Z</time>
      </trkpt>
      <trkpt lat="49.93922" lon="2.17997">
        <ele>15.7</ele>
        <time>2022-03-02T13:26:46Z</time>
      </trkpt>
      <trkpt lat="49.93921" lon="2.17997">
        <ele>15.7</ele>
        <time>2022-03-02T13:26:47Z</time>
      </trkpt>
      <trkpt lat="49.9392" lon="2.17997">
        <ele>15.7</ele>
        <time>2022-03-02T13:26:48Z</time>
      </trkpt>
      <trkpt lat="49.9392" lon="2.17997">
        <ele>15.7</ele>
        <time>2022-03-02T13:26:49Z</time>
      </trkpt>
      <trkpt lat="49.93919" lon="2.17998">
        <ele>15.7</ele>
        <time>2022-03-02T13:26:50Z</time>
      </trkpt>
      <trkpt lat="49.93918" lon="2.17998">
        <ele>15.7</ele>
        <time>2022-03-02T13:26:51Z</time>
      </trkpt>
      <trkpt lat="49.93918" lon="2.17999">
        <ele>15.7</ele>
        <time>2022-03-02T13:26:52Z</time>
      </trkpt>
      <trkpt lat="49.93918" lon="2.18">
        <ele>15.7</ele>
        <time>2022-03-02T13:26:53Z</time>
      </trkpt>
      <trkpt lat="49.93917" lon="2.18001">
        <ele>15.7</ele>
        <time>2022-03-02T13:26:55Z</time>
      </trkpt>
      <trkpt lat="49.93917" lon="2.18002">
        <ele>15.7</ele>
        <time>2022-03-02T13:26:57Z</time>
      </trkpt>
      <trkpt lat="49.93917" lon="2.18003">
        <ele>15.7</ele>
        <time>2022-03-02T13:26:58Z</time>
      </trkpt>
      <trkpt lat="49.93918" lon="2.18003">
        <ele>15.7</ele>
        <time>2022-03-02T13:26:59Z</time>
      </trkpt>
      <trkpt lat="49.93918" lon="2.18003">
        <ele>15.7</ele>
        <time>2022-03-02T13:27:00Z</time>
      </trkpt>
      <trkpt lat="49.93918" lon="2.18003">
        <ele>15.7</ele>
        <time>2022-03-02T13:27:01Z</time>
      </trkpt>
      <trkpt lat="49.93918" lon="2.18004">
        <ele>15.7</ele>
        <time>2022-03-02T13:27:02Z</time>
      </trkpt>
      <trkpt lat="49.93918" lon="2.18004">
        <ele>15.7</ele>
        <time>2022-03-02T13:27:03Z</time>
      </trkpt>
      <trkpt lat="49.93919" lon="2.18004">
        <ele>15.7</ele>
        <time>2022-03-02T13:27:04Z</time>
      </trkpt>
      <trkpt lat="49.93919" lon="2.18005">
        <ele>15.7</ele>
        <time>2022-03-02T13:27:05Z</time>
      </trkpt>
      <trkpt lat="49.93919" lon="2.18005">
        <ele>15.7</ele>
        <time>2022-03-02T13:27:06Z</time>
      </trkpt>
      <trkpt lat="49.9392" lon="2.18005">
        <ele>15.7</ele>
        <time>2022-03-02T13:27:07Z</time>
      </trkpt>
      <trkpt lat="49.9392" lon="2.18006">
        <ele>15.7</ele>
        <time>2022-03-02T13:27:08Z</time>
      </trkpt>
      <trkpt lat="49.93921" lon="2.18006">
        <ele>15.7</ele>
        <time>2022-03-02T13:27:09Z</time>
      </trkpt>
      <trkpt lat="49.93922" lon="2.18006">
        <ele>15.7</ele>
        <time>2022-03-02T13:27:11Z</time>
      </trkpt>
      <trkpt lat="49.93922" lon="2.18005">
        <ele>15.7</ele>
        <time>2022-03-02T13:27:12Z</time>
      </trkpt>
      <trkpt lat="49.93922" lon="2.18005">
        <ele>15.7</ele>
        <time>2022-03-02T13:27:13Z</time>
      </trkpt>
      <trkpt lat="49.93922" lon="2.18005">
        <ele>15.7</ele>
        <time>2022-03-02T13:27:14Z</time>
      </trkpt>
      <trkpt lat="49.93923" lon="2.18005">
        <ele>15.7</ele>
        <time>2022-03-02T13:27:16Z</time>
      </trkpt>
      <trkpt lat="49.93923" lon="2.18006">
        <ele>15.7</ele>
        <time>2022-03-02T13:27:17Z</time>
      </trkpt>
      <trkpt lat="49.93923" lon="2.18006">
        <ele>15.7</ele>
        <time>2022-03-02T13:27:18Z</time>
      </trkpt>
      <trkpt lat="49.93923" lon="2.18006">
        <ele>15.7</ele>
        <time>2022-03-02T13:27:19Z</time>
      </trkpt>
      <trkpt lat="49.93923" lon="2.18006">
        <ele>15.7</ele>
        <time>2022-03-02T13:27:20Z</time>
      </trkpt>
      <trkpt lat="49.93923" lon="2.18006">
        <ele>15.7</ele>
        <time>2022-03-02T13:27:21Z</time>
      </trkpt>
      <trkpt lat="49.93923" lon="2.18006">
        <ele>15.7</ele>
        <time>2022-03-02T13:27:22Z</time>
      </trkpt>
      <trkpt lat="49.93923" lon="2.18006">
        <ele>15.7</ele>
        <time>2022-03-02T13:27:23Z</time>
      </trkpt>
      <trkpt lat="49.93923" lon="2.18006">
        <ele>15.7</ele>
        <time>2022-03-02T13:27:24Z</time>
      </trkpt>
      <trkpt lat="49.93922" lon="2.18005">
        <ele>15.7</ele>
        <time>2022-03-02T13:27:25Z</time>
      </trkpt>
      <trkpt lat="49.93922" lon="2.18005">
        <ele>15.7</ele>
        <time>2022-03-02T13:27:26Z</time>
      </trkpt>
      <trkpt lat="49.93922" lon="2.18005">
        <ele>15.7</ele>
        <time>2022-03-02T13:27:27Z</time>
      </trkpt>
      <trkpt lat="49.93922" lon="2.18005">
        <ele>15.7</ele>
        <time>2022-03-02T13:27:28Z</time>
      </trkpt>
      <trkpt lat="49.93922" lon="2.18004">
        <ele>15.7</ele>
        <time>2022-03-02T13:27:29Z</time>
      </trkpt>
      <trkpt lat="49.93922" lon="2.18004">
        <ele>15.7</ele>
        <time>2022-03-02T13:27:30Z</time>
      </trkpt>
      <trkpt lat="49.93922" lon="2.18004">
        <ele>15.7</ele>
        <time>2022-03-02T13:27:31Z</time>
      </trkpt>
      <trkpt lat="49.93922" lon="2.18004">
        <ele>15.7</ele>
        <time>2022-03-02T13:27:32Z</time>
      </trkpt>
      <trkpt lat="49.93922" lon="2.18004">
        <ele>15.7</ele>
        <time>2022-03-02T13:27:33Z</time>
      </trkpt>
      <trkpt lat="49.93922" lon="2.18004">
        <ele>15.7</ele>
        <time>2022-03-02T13:27:34Z</time>
      </trkpt>
      <trkpt lat="49.93922" lon="2.18004">
        <ele>15.7</ele>
        <time>2022-03-02T13:27:35Z</time>
      </trkpt>
      <trkpt lat="49.93922" lon="2.18004">
        <ele>15.7</ele>
        <time>2022-03-02T13:27:36Z</time>
      </trkpt>
      <trkpt lat="49.93921" lon="2.18004">
        <ele>15.7</ele>
        <time>2022-03-02T13:27:37Z</time>
      </trkpt>
      <trkpt lat="49.93921" lon="2.18004">
        <ele>15.7</ele>
        <time>2022-03-02T13:27:38Z</time>
      </trkpt>
      <trkpt lat="49.93921" lon="2.18004">
        <ele>15.7</ele>
        <time>2022-03-02T13:27:39Z</time>
      </trkpt>
      <trkpt lat="49.93921" lon="2.18004">
        <ele>15.7</ele>
        <time>2022-03-02T13:27:40Z</time>
      </trkpt>
      <trkpt lat="49.93921" lon="2.18004">
        <ele>15.7</ele>
        <time>2022-03-02T13:27:41Z</time>
      </trkpt>
      <trkpt lat="49.93921" lon="2.18004">
        <ele>15.7</ele>
        <time>2022-03-02T13:27:42Z</time>
      </trkpt>
      <trkpt lat="49.93921" lon="2.18004">
        <ele>15.7</ele>
        <time>2022-03-02T13:27:43Z</time>
      </trkpt>
      <trkpt lat="49.93921" lon="2.18004">
        <ele>15.7</ele>
        <time>2022-03-02T13:27:44Z</time>
      </trkpt>
      <trkpt lat="49.93921" lon="2.18004">
        <ele>15.7</ele>
        <time>2022-03-02T13:27:45Z</time>
      </trkpt>
      <trkpt lat="49.93921" lon="2.18004">
        <ele>15.7</ele>
        <time>2022-03-02T13:27:46Z</time>
      </trkpt>
      <trkpt lat="49.93921" lon="2.18004">
        <ele>15.7</ele>
        <time>2022-03-02T13:27:47Z</time>
      </trkpt>
      <trkpt lat="49.93921" lon="2.18004">
        <ele>15.7</ele>
        <time>2022-03-02T13:27:48Z</time>
      </trkpt>
      <trkpt lat="49.93921" lon="2.18004">
        <ele>15.7</ele>
        <time>2022-03-02T13:27:49Z</time>
      </trkpt>
      <trkpt lat="49.93921" lon="2.18004">
        <ele>15.7</ele>
        <time>2022-03-02T13:27:50Z</time>
      </trkpt>
      <trkpt lat="49.93921" lon="2.18004">
        <ele>15.7</ele>
        <time>2022-03-02T13:27:51Z</time>
      </trkpt>
      <trkpt lat="49.93921" lon="2.18004">
        <ele>15.7</ele>
        <time>2022-03-02T13:27:52Z</time>
      </trkpt>
      <trkpt lat="49.93921" lon="2.18004">
        <ele>15.7</ele>
        <time>2022-03-02T13:27:53Z</time>
      </trkpt>
      <trkpt lat="49.93921" lon="2.18004">
        <ele>15.7</ele>
        <time>2022-03-02T13:27:54Z</time>
      </trkpt>
      <trkpt lat="49.93921" lon="2.18004">
        <ele>15.7</ele>
        <time>2022-03-02T13:27:55Z</time>
      </trkpt>
      <trkpt lat="49.93921" lon="2.18004">
        <ele>15.7</ele>
        <time>2022-03-02T13:27:56Z</time>
      </trkpt>
      <trkpt lat="49.93921" lon="2.18003">
        <ele>15.7</ele>
        <time>2022-03-02T13:27:57Z</time>
      </trkpt>
      <trkpt lat="49.93921" lon="2.18003">
        <ele>15.7</ele>
        <time>2022-03-02T13:27:58Z</time>
      </trkpt>
      <trkpt lat="49.93921" lon="2.18003">
        <ele>15.7</ele>
        <time>2022-03-02T13:27:59Z</time>
      </trkpt>
      <trkpt lat="49.93921" lon="2.18003">
        <ele>15.7</ele>
        <time>2022-03-02T13:28:00Z</time>
      </trkpt>
      <trkpt lat="49.93921" lon="2.18003">
        <ele>15.7</ele>
        <time>2022-03-02T13:28:01Z</time>
      </trkpt>
      <trkpt lat="49.93921" lon="2.18003">
        <ele>15.7</ele>
        <time>2022-03-02T13:28:02Z</time>
      </trkpt>
      <trkpt lat="49.93922" lon="2.18003">
        <ele>15.7</ele>
        <time>2022-03-02T13:28:03Z</time>
      </trkpt>
      <trkpt lat="49.93922" lon="2.18003">
        <ele>15.7</ele>
        <time>2022-03-02T13:28:04Z</time>
      </trkpt>
      <trkpt lat="49.93922" lon="2.18003">
        <ele>15.7</ele>
        <time>2022-03-02T13:28:05Z</time>
      </trkpt>
      <trkpt lat="49.93922" lon="2.18003">
        <ele>15.7</ele>
        <time>2022-03-02T13:28:06Z</time>
      </trkpt>
      <trkpt lat="49.93922" lon="2.18003">
        <ele>15.7</ele>
        <time>2022-03-02T13:28:07Z</time>
      </trkpt>
      <trkpt lat="49.93922" lon="2.18003">
        <ele>15.7</ele>
        <time>2022-03-02T13:28:08Z</time>
      </trkpt>
      <trkpt lat="49.93922" lon="2.18003">
        <ele>15.7</ele>
        <time>2022-03-02T13:28:09Z</time>
      </trkpt>
      <trkpt lat="49.93922" lon="2.18003">
        <ele>15.7</ele>
        <time>2022-03-02T13:28:10Z</time>
      </trkpt>
      <trkpt lat="49.93922" lon="2.18003">
        <ele>15.7</ele>
        <time>2022-03-02T13:28:11Z</time>
      </trkpt>
      <trkpt lat="49.93922" lon="2.18003">
        <ele>15.7</ele>
        <time>2022-03-02T13:28:12Z</time>
      </trkpt>
      <trkpt lat="49.93922" lon="2.18003">
        <ele>15.7</ele>
        <time>2022-03-02T13:28:13Z</time>
      </trkpt>
      <trkpt lat="49.93922" lon="2.18003">
        <ele>15.7</ele>
        <time>2022-03-02T13:28:14Z</time>
      </trkpt>
      <trkpt lat="49.93922" lon="2.18003">
        <ele>15.7</ele>
        <time>2022-03-02T13:28:15Z</time>
      </trkpt>
      <trkpt lat="49.93922" lon="2.18003">
        <ele>15.7</ele>
        <time>2022-03-02T13:28:16Z</time>
      </trkpt>
      <trkpt lat="49.93922" lon="2.18003">
        <ele>15.7</ele>
        <time>2022-03-02T13:28:17Z</time>
      </trkpt>
      <trkpt lat="49.93922" lon="2.18003">
        <ele>15.7</ele>
        <time>2022-03-02T13:28:18Z</time>
      </trkpt>
      <trkpt lat="49.93922" lon="2.18003">
        <ele>15.7</ele>
        <time>2022-03-02T13:28:19Z</time>
      </trkpt>
      <trkpt lat="49.93922" lon="2.18003">
        <ele>15.7</ele>
        <time>2022-03-02T13:28:20Z</time>
      </trkpt>
      <trkpt lat="49.93922" lon="2.18003">
        <ele>15.7</ele>
        <time>2022-03-02T13:28:21Z</time>
      </trkpt>
      <trkpt lat="49.93922" lon="2.18003">
        <ele>15.7</ele>
        <time>2022-03-02T13:28:22Z</time>
      </trkpt>
      <trkpt lat="49.93922" lon="2.18003">
        <ele>15.7</ele>
        <time>2022-03-02T13:28:23Z</time>
      </trkpt>
      <trkpt lat="49.93922" lon="2.18003">
        <ele>15.7</ele>
        <time>2022-03-02T13:28:24Z</time>
      </trkpt>
      <trkpt lat="49.93922" lon="2.18003">
        <ele>15.7</ele>
        <time>2022-03-02T13:28:25Z</time>
      </trkpt>
      <trkpt lat="49.93922" lon="2.18003">
        <ele>15.7</ele>
        <time>2022-03-02T13:28:26Z</time>
      </trkpt>
      <trkpt lat="49.93922" lon="2.18003">
        <ele>15.7</ele>
        <time>2022-03-02T13:28:27Z</time>
      </trkpt>
      <trkpt lat="49.93922" lon="2.18003">
        <ele>15.7</ele>
        <time>2022-03-02T13:28:28Z</time>
      </trkpt>
      <trkpt lat="49.93922" lon="2.18003">
        <ele>15.7</ele>
        <time>2022-03-02T13:28:29Z</time>
      </trkpt>
      <trkpt lat="49.93922" lon="2.18003">
        <ele>15.7</ele>
        <time>2022-03-02T13:28:30Z</time>
      </trkpt>
      <trkpt lat="49.93922" lon="2.18003">
        <ele>15.7</ele>
        <time>2022-03-02T13:28:31Z</time>
      </trkpt>
      <trkpt lat="49.93922" lon="2.18003">
        <ele>15.7</ele>
        <time>2022-03-02T13:28:32Z</time>
      </trkpt>
      <trkpt lat="49.93922" lon="2.18003">
        <ele>15.7</ele>
        <time>2022-03-02T13:28:33Z</time>
      </trkpt>
      <trkpt lat="49.93922" lon="2.18003">
        <ele>15.7</ele>
        <time>2022-03-02T13:28:34Z</time>
      </trkpt>
      <trkpt lat="49.93922" lon="2.18003">
        <ele>15.7</ele>
        <time>2022-03-02T13:28:35Z</time>
      </trkpt>
      <trkpt lat="49.93922" lon="2.18003">
        <ele>15.7</ele>
        <time>2022-03-02T13:28:36Z</time>
      </trkpt>
      <trkpt lat="49.93922" lon="2.18002">
        <ele>15.7</ele>
        <time>2022-03-02T13:28:37Z</time>
      </trkpt>
      <trkpt lat="49.93922" lon="2.18001">
        <ele>15.7</ele>
        <time>2022-03-02T13:28:38Z</time>
      </trkpt>
      <trkpt lat="49.93921" lon="2.18001">
        <ele>15.7</ele>
        <time>2022-03-02T13:28:39Z</time>
      </trkpt>
      <trkpt lat="49.93921" lon="2.18001">
        <ele>15.7</ele>
        <time>2022-03-02T13:28:40Z</time>
      </trkpt>
      <trkpt lat="49.93921" lon="2.18001">
        <ele>15.7</ele>
        <time>2022-03-02T13:28:41Z</time>
      </trkpt>
      <trkpt lat="49.93922" lon="2.18001">
        <ele>15.7</ele>
        <time>2022-03-02T13:28:42Z</time>
      </trkpt>
      <trkpt lat="49.93922" lon="2.18001">
        <ele>15.7</ele>
        <time>2022-03-02T13:28:43Z</time>
      </trkpt>
      <trkpt lat="49.93922" lon="2.18001">
        <ele>15.7</ele>
        <time>2022-03-02T13:28:44Z</time>
      </trkpt>
      <trkpt lat="49.93922" lon="2.18001">
        <ele>15.7</ele>
        <time>2022-03-02T13:28:45Z</time>
      </trkpt>
      <trkpt lat="49.93922" lon="2.18001">
        <ele>15.7</ele>
        <time>2022-03-02T13:28:46Z</time>
      </trkpt>
      <trkpt lat="49.93922" lon="2.18001">
        <ele>15.7</ele>
        <time>2022-03-02T13:28:47Z</time>
      </trkpt>
      <trkpt lat="49.93922" lon="2.18001">
        <ele>15.7</ele>
        <time>2022-03-02T13:28:48Z</time>
      </trkpt>
      <trkpt lat="49.93922" lon="2.18001">
        <ele>15.7</ele>
        <time>2022-03-02T13:28:49Z</time>
      </trkpt>
      <trkpt lat="49.93922" lon="2.18001">
        <ele>15.7</ele>
        <time>2022-03-02T13:28:50Z</time>
      </trkpt>
      <trkpt lat="49.93922" lon="2.18001">
        <ele>15.7</ele>
        <time>2022-03-02T13:28:51Z</time>
      </trkpt>
      <trkpt lat="49.93922" lon="2.18001">
        <ele>15.7</ele>
        <time>2022-03-02T13:28:52Z</time>
      </trkpt>
      <trkpt lat="49.93922" lon="2.18001">
        <ele>15.7</ele>
        <time>2022-03-02T13:28:53Z</time>
      </trkpt>
      <trkpt lat="49.93922" lon="2.18001">
        <ele>15.7</ele>
        <time>2022-03-02T13:28:54Z</time>
      </trkpt>
      <trkpt lat="49.93922" lon="2.18001">
        <ele>15.7</ele>
        <time>2022-03-02T13:28:55Z</time>
      </trkpt>
      <trkpt lat="49.93922" lon="2.18001">
        <ele>15.7</ele>
        <time>2022-03-02T13:28:56Z</time>
      </trkpt>
      <trkpt lat="49.93922" lon="2.18001">
        <ele>15.7</ele>
        <time>2022-03-02T13:28:57Z</time>
      </trkpt>
      <trkpt lat="49.93922" lon="2.18001">
        <ele>15.7</ele>
        <time>2022-03-02T13:28:58Z</time>
      </trkpt>
      <trkpt lat="49.93922" lon="2.18002">
        <ele>15.7</ele>
        <time>2022-03-02T13:28:59Z</time>
      </trkpt>
      <trkpt lat="49.93922" lon="2.18002">
        <ele>15.7</ele>
        <time>2022-03-02T13:29:00Z</time>
      </trkpt>
      <trkpt lat="49.93922" lon="2.18002">
        <ele>15.7</ele>
        <time>2022-03-02T13:29:01Z</time>
      </trkpt>
      <trkpt lat="49.93922" lon="2.18002">
        <ele>15.7</ele>
        <time>2022-03-02T13:29:02Z</time>
      </trkpt>
      <trkpt lat="49.93922" lon="2.18002">
        <ele>15.7</ele>
        <time>2022-03-02T13:29:03Z</time>
      </trkpt>
      <trkpt lat="49.93922" lon="2.18002">
        <ele>15.7</ele>
        <time>2022-03-02T13:29:04Z</time>
      </trkpt>
      <trkpt lat="49.93922" lon="2.18002">
        <ele>15.7</ele>
        <time>2022-03-02T13:29:05Z</time>
      </trkpt>
      <trkpt lat="49.93922" lon="2.18002">
        <ele>15.7</ele>
        <time>2022-03-02T13:29:06Z</time>
      </trkpt>
      <trkpt lat="49.93922" lon="2.18003">
        <ele>15.7</ele>
        <time>2022-03-02T13:29:07Z</time>
      </trkpt>
      <trkpt lat="49.93922" lon="2.18003">
        <ele>15.7</ele>
        <time>2022-03-02T13:29:08Z</time>
      </trkpt>
      <trkpt lat="49.93922" lon="2.18003">
        <ele>15.7</ele>
        <time>2022-03-02T13:29:09Z</time>
      </trkpt>
      <trkpt lat="49.93922" lon="2.18003">
        <ele>15.7</ele>
        <time>2022-03-02T13:29:10Z</time>
      </trkpt>
      <trkpt lat="49.93922" lon="2.18003">
        <ele>15.7</ele>
        <time>2022-03-02T13:29:11Z</time>
      </trkpt>
      <trkpt lat="49.93922" lon="2.18003">
        <ele>15.7</ele>
        <time>2022-03-02T13:29:12Z</time>
      </trkpt>
      <trkpt lat="49.93922" lon="2.18003">
        <ele>15.7</ele>
        <time>2022-03-02T13:29:13Z</time>
      </trkpt>
      <trkpt lat="49.93922" lon="2.18003">
        <ele>15.7</ele>
        <time>2022-03-02T13:29:14Z</time>
      </trkpt>
      <trkpt lat="49.93922" lon="2.18004">
        <ele>15.7</ele>
        <time>2022-03-02T13:29:15Z</time>
      </trkpt>
      <trkpt lat="49.93922" lon="2.18004">
        <ele>15.7</ele>
        <time>2022-03-02T13:29:16Z</time>
      </trkpt>
      <trkpt lat="49.93922" lon="2.18004">
        <ele>15.7</ele>
        <time>2022-03-02T13:29:17Z</time>
      </trkpt>
      <trkpt lat="49.93922" lon="2.18004">
        <ele>15.7</ele>
        <time>2022-03-02T13:29:18Z</time>
      </trkpt>
      <trkpt lat="49.93922" lon="2.18004">
        <ele>15.7</ele>
        <time>2022-03-02T13:29:19Z</time>
      </trkpt>
      <trkpt lat="49.93922" lon="2.18004">
        <ele>15.7</ele>
        <time>2022-03-02T13:29:20Z</time>
      </trkpt>
      <trkpt lat="49.93922" lon="2.18004">
        <ele>15.7</ele>
        <time>2022-03-02T13:29:21Z</time>
      </trkpt>
      <trkpt lat="49.93922" lon="2.18004">
        <ele>15.7</ele>
        <time>2022-03-02T13:29:22Z</time>
      </trkpt>
      <trkpt lat="49.93922" lon="2.18005">
        <ele>15.7</ele>
        <time>2022-03-02T13:29:23Z</time>
      </trkpt>
      <trkpt lat="49.93922" lon="2.18005">
        <ele>15.7</ele>
        <time>2022-03-02T13:29:24Z</time>
      </trkpt>
      <trkpt lat="49.93922" lon="2.18005">
        <ele>15.7</ele>
        <time>2022-03-02T13:29:25Z</time>
      </trkpt>
      <trkpt lat="49.93922" lon="2.18005">
        <ele>15.7</ele>
        <time>2022-03-02T13:29:26Z</time>
      </trkpt>
      <trkpt lat="49.93922" lon="2.18005">
        <ele>15.7</ele>
        <time>2022-03-02T13:29:27Z</time>
      </trkpt>
      <trkpt lat="49.93922" lon="2.18005">
        <ele>15.7</ele>
        <time>2022-03-02T13:29:28Z</time>
      </trkpt>
      <trkpt lat="49.93922" lon="2.18005">
        <ele>15.7</ele>
        <time>2022-03-02T13:29:29Z</time>
      </trkpt>
      <trkpt lat="49.93922" lon="2.18005">
        <ele>15.7</ele>
        <time>2022-03-02T13:29:30Z</time>
      </trkpt>
      <trkpt lat="49.93922" lon="2.18006">
        <ele>15.7</ele>
        <time>2022-03-02T13:29:31Z</time>
      </trkpt>
      <trkpt lat="49.93922" lon="2.18006">
        <ele>15.7</ele>
        <time>2022-03-02T13:29:32Z</time>
      </trkpt>
      <trkpt lat="49.93922" lon="2.18006">
        <ele>15.7</ele>
        <time>2022-03-02T13:29:33Z</time>
      </trkpt>
      <trkpt lat="49.93922" lon="2.18006">
        <ele>15.7</ele>
        <time>2022-03-02T13:29:34Z</time>
      </trkpt>
      <trkpt lat="49.93922" lon="2.18006">
        <ele>15.7</ele>
        <time>2022-03-02T13:29:35Z</time>
      </trkpt>
      <trkpt lat="49.93922" lon="2.18006">
        <ele>15.7</ele>
        <time>2022-03-02T13:29:36Z</time>
      </trkpt>
      <trkpt lat="49.93922" lon="2.18007">
        <ele>15.7</ele>
        <time>2022-03-02T13:29:38Z</time>
      </trkpt>
      <trkpt lat="49.93921" lon="2.18008">
        <ele>15.7</ele>
        <time>2022-03-02T13:29:39Z</time>
      </trkpt>
      <trkpt lat="49.9392" lon="2.18009">
        <ele>15.7</ele>
        <time>2022-03-02T13:29:40Z</time>
      </trkpt>
      <trkpt lat="49.9392" lon="2.18009">
        <ele>15.7</ele>
        <time>2022-03-02T13:29:41Z</time>
      </trkpt>
      <trkpt lat="49.93919" lon="2.18011">
        <ele>15.7</ele>
        <time>2022-03-02T13:29:42Z</time>
      </trkpt>
      <trkpt lat="49.93918" lon="2.18012">
        <ele>15.7</ele>
        <time>2022-03-02T13:29:44Z</time>
      </trkpt>
      <trkpt lat="49.93918" lon="2.18013">
        <ele>15.7</ele>
        <time>2022-03-02T13:29:45Z</time>
      </trkpt>
      <trkpt lat="49.93917" lon="2.18014">
        <ele>15.7</ele>
        <time>2022-03-02T13:29:46Z</time>
      </trkpt>
      <trkpt lat="49.93917" lon="2.18016">
        <ele>15.7</ele>
        <time>2022-03-02T13:29:47Z</time>
      </trkpt>
      <trkpt lat="49.93916" lon="2.18017">
        <ele>15.7</ele>
        <time>2022-03-02T13:29:48Z</time>
      </trkpt>
      <trkpt lat="49.93916" lon="2.18018">
        <ele>15.7</ele>
        <time>2022-03-02T13:29:49Z</time>
      </trkpt>
      <trkpt lat="49.93915" lon="2.18019">
        <ele>15.7</ele>
        <time>2022-03-02T13:29:50Z</time>
      </trkpt>
      <trkpt lat="49.93914" lon="2.18021">
        <ele>15.6</ele>
        <time>2022-03-02T13:29:51Z</time>
      </trkpt>
      <trkpt lat="49.93912" lon="2.18022">
        <ele>15.6</ele>
        <time>2022-03-02T13:29:53Z</time>
      </trkpt>
      <trkpt lat="49.93911" lon="2.18023">
        <ele>15.6</ele>
        <time>2022-03-02T13:29:54Z</time>
      </trkpt>
      <trkpt lat="49.93911" lon="2.18024">
        <ele>15.6</ele>
        <time>2022-03-02T13:29:55Z</time>
      </trkpt>
      <trkpt lat="49.9391" lon="2.18025">
        <ele>15.6</ele>
        <time>2022-03-02T13:29:56Z</time>
      </trkpt>
      <trkpt lat="49.93909" lon="2.18027">
        <ele>15.6</ele>
        <time>2022-03-02T13:29:57Z</time>
      </trkpt>
      <trkpt lat="49.93908" lon="2.18027">
        <ele>15.6</ele>
        <time>2022-03-02T13:29:58Z</time>
      </trkpt>
      <trkpt lat="49.93907" lon="2.18027">
        <ele>15.6</ele>
        <time>2022-03-02T13:29:59Z</time>
      </trkpt>
      <trkpt lat="49.93907" lon="2.18027">
        <ele>15.6</ele>
        <time>2022-03-02T13:30:00Z</time>
      </trkpt>
      <trkpt lat="49.93906" lon="2.18028">
        <ele>15.6</ele>
        <time>2022-03-02T13:30:01Z</time>
      </trkpt>
      <trkpt lat="49.93905" lon="2.1803">
        <ele>15.6</ele>
        <time>2022-03-02T13:30:02Z</time>
      </trkpt>
      <trkpt lat="49.93905" lon="2.18031">
        <ele>15.5</ele>
        <time>2022-03-02T13:30:04Z</time>
      </trkpt>
      <trkpt lat="49.93904" lon="2.18033">
        <ele>15.5</ele>
        <time>2022-03-02T13:30:05Z</time>
      </trkpt>
      <trkpt lat="49.93903" lon="2.18034">
        <ele>15.5</ele>
        <time>2022-03-02T13:30:06Z</time>
      </trkpt>
      <trkpt lat="49.93903" lon="2.18035">
        <ele>15.5</ele>
        <time>2022-03-02T13:30:07Z</time>
      </trkpt>
      <trkpt lat="49.93902" lon="2.18035">
        <ele>15.5</ele>
        <time>2022-03-02T13:30:08Z</time>
      </trkpt>
      <trkpt lat="49.93902" lon="2.18036">
        <ele>15.5</ele>
        <time>2022-03-02T13:30:09Z</time>
      </trkpt>
      <trkpt lat="49.93902" lon="2.18035">
        <ele>15.5</ele>
        <time>2022-03-02T13:30:10Z</time>
      </trkpt>
      <trkpt lat="49.93901" lon="2.18035">
        <ele>15.5</ele>
        <time>2022-03-02T13:30:11Z</time>
      </trkpt>
      <trkpt lat="49.939" lon="2.18038">
        <ele>15.5</ele>
        <time>2022-03-02T13:30:13Z</time>
      </trkpt>
      <trkpt lat="49.93899" lon="2.18039">
        <ele>15.5</ele>
        <time>2022-03-02T13:30:14Z</time>
      </trkpt>
      <trkpt lat="49.93897" lon="2.1804">
        <ele>15.5</ele>
        <time>2022-03-02T13:30:15Z</time>
      </trkpt>
      <trkpt lat="49.93896" lon="2.18041">
        <ele>15.4</ele>
        <time>2022-03-02T13:30:16Z</time>
      </trkpt>
      <trkpt lat="49.93896" lon="2.18042">
        <ele>15.4</ele>
        <time>2022-03-02T13:30:17Z</time>
      </trkpt>
      <trkpt lat="49.93895" lon="2.18043">
        <ele>15.4</ele>
        <time>2022-03-02T13:30:18Z</time>
      </trkpt>
      <trkpt lat="49.93893" lon="2.18044">
        <ele>15.4</ele>
        <time>2022-03-02T13:30:19Z</time>
      </trkpt>
      <trkpt lat="49.93892" lon="2.18045">
        <ele>15.4</ele>
        <time>2022-03-02T13:30:20Z</time>
      </trkpt>
      <trkpt lat="49.9389" lon="2.18046">
        <ele>15.4</ele>
        <time>2022-03-02T13:30:22Z</time>
      </trkpt>
      <trkpt lat="49.93889" lon="2.18047">
        <ele>15.4</ele>
        <time>2022-03-02T13:30:23Z</time>
      </trkpt>
      <trkpt lat="49.93888" lon="2.18047">
        <ele>15.4</ele>
        <time>2022-03-02T13:30:24Z</time>
      </trkpt>
      <trkpt lat="49.93887" lon="2.18048">
        <ele>15.4</ele>
        <time>2022-03-02T13:30:25Z</time>
      </trkpt>
      <trkpt lat="49.93886" lon="2.18048">
        <ele>15.3</ele>
        <time>2022-03-02T13:30:26Z</time>
      </trkpt>
      <trkpt lat="49.93884" lon="2.18048">
        <ele>15.3</ele>
        <time>2022-03-02T13:30:27Z</time>
      </trkpt>
      <trkpt lat="49.93883" lon="2.18047">
        <ele>15.3</ele>
        <time>2022-03-02T13:30:28Z</time>
      </trkpt>
      <trkpt lat="49.9388" lon="2.18047">
        <ele>15.3</ele>
        <time>2022-03-02T13:30:29Z</time>
      </trkpt>
      <trkpt lat="49.93878" lon="2.18047">
        <ele>15.3</ele>
        <time>2022-03-02T13:30:31Z</time>
      </trkpt>
      <trkpt lat="49.93875" lon="2.18048">
        <ele>15.3</ele>
        <time>2022-03-02T13:30:32Z</time>
      </trkpt>
      <trkpt lat="49.93872" lon="2.18048">
        <ele>15.2</ele>
        <time>2022-03-02T13:30:33Z</time>
      </trkpt>
      <trkpt lat="49.93871" lon="2.18048">
        <ele>15.2</ele>
        <time>2022-03-02T13:30:34Z</time>
      </trkpt>
      <trkpt lat="49.93868" lon="2.18049">
        <ele>15.2</ele>
        <time>2022-03-02T13:30:36Z</time>
      </trkpt>
      <trkpt lat="49.93866" lon="2.1805">
        <ele>15.2</ele>
        <time>2022-03-02T13:30:37Z</time>
      </trkpt>
      <trkpt lat="49.93865" lon="2.1805">
        <ele>15.2</ele>
        <time>2022-03-02T13:30:38Z</time>
      </trkpt>
      <trkpt lat="49.93863" lon="2.1805">
        <ele>15.2</ele>
        <time>2022-03-02T13:30:39Z</time>
      </trkpt>
      <trkpt lat="49.93862" lon="2.1805">
        <ele>15.2</ele>
        <time>2022-03-02T13:30:40Z</time>
      </trkpt>
      <trkpt lat="49.9386" lon="2.18049">
        <ele>15.2</ele>
        <time>2022-03-02T13:30:41Z</time>
      </trkpt>
      <trkpt lat="49.93858" lon="2.18049">
        <ele>15.2</ele>
        <time>2022-03-02T13:30:42Z</time>
      </trkpt>
      <trkpt lat="49.93857" lon="2.18049">
        <ele>15.2</ele>
        <time>2022-03-02T13:30:43Z</time>
      </trkpt>
      <trkpt lat="49.93855" lon="2.18049">
        <ele>15.2</ele>
        <time>2022-03-02T13:30:44Z</time>
      </trkpt>
      <trkpt lat="49.93854" lon="2.18049">
        <ele>15.2</ele>
        <time>2022-03-02T13:30:45Z</time>
      </trkpt>
      <trkpt lat="49.93852" lon="2.18048">
        <ele>15.2</ele>
        <time>2022-03-02T13:30:46Z</time>
      </trkpt>
      <trkpt lat="49.93851" lon="2.18048">
        <ele>15.2</ele>
        <time>2022-03-02T13:30:47Z</time>
      </trkpt>
      <trkpt lat="49.9385" lon="2.18048">
        <ele>15.2</ele>
        <time>2022-03-02T13:30:48Z</time>
      </trkpt>
      <trkpt lat="49.93848" lon="2.18047">
        <ele>15.2</ele>
        <time>2022-03-02T13:30:49Z</time>
      </trkpt>
      <trkpt lat="49.93847" lon="2.18047">
        <ele>15.2</ele>
        <time>2022-03-02T13:30:50Z</time>
      </trkpt>
      <trkpt lat="49.93845" lon="2.18046">
        <ele>15.2</ele>
        <time>2022-03-02T13:30:52Z</time>
      </trkpt>
      <trkpt lat="49.93844" lon="2.18045">
        <ele>15.2</ele>
        <time>2022-03-02T13:30:53Z</time>
      </trkpt>
      <trkpt lat="49.93842" lon="2.18045">
        <ele>15.2</ele>
        <time>2022-03-02T13:30:54Z</time>
      </trkpt>
      <trkpt lat="49.93841" lon="2.18044">
        <ele>15.3</ele>
        <time>2022-03-02T13:30:55Z</time>
      </trkpt>
      <trkpt lat="49.9384" lon="2.18044">
        <ele>15.3</ele>
        <time>2022-03-02T13:30:56Z</time>
      </trkpt>
      <trkpt lat="49.93838" lon="2.18043">
        <ele>15.3</ele>
        <time>2022-03-02T13:30:57Z</time>
      </trkpt>
      <trkpt lat="49.93837" lon="2.18043">
        <ele>15.3</ele>
        <time>2022-03-02T13:30:58Z</time>
      </trkpt>
      <trkpt lat="49.93834" lon="2.18041">
        <ele>15.3</ele>
        <time>2022-03-02T13:31:00Z</time>
      </trkpt>
      <trkpt lat="49.93833" lon="2.18041">
        <ele>15.3</ele>
        <time>2022-03-02T13:31:01Z</time>
      </trkpt>
      <trkpt lat="49.93832" lon="2.1804">
        <ele>15.3</ele>
        <time>2022-03-02T13:31:02Z</time>
      </trkpt>
      <trkpt lat="49.9383" lon="2.18039">
        <ele>15.3</ele>
        <time>2022-03-02T13:31:03Z</time>
      </trkpt>
      <trkpt lat="49.93829" lon="2.18038">
        <ele>15.3</ele>
        <time>2022-03-02T13:31:04Z</time>
      </trkpt>
      <trkpt lat="49.93828" lon="2.18037">
        <ele>15.3</ele>
        <time>2022-03-02T13:31:05Z</time>
      </trkpt>
      <trkpt lat="49.93826" lon="2.18035">
        <ele>15.3</ele>
        <time>2022-03-02T13:31:06Z</time>
      </trkpt>
      <trkpt lat="49.93825" lon="2.18035">
        <ele>15.3</ele>
        <time>2022-03-02T13:31:07Z</time>
      </trkpt>
      <trkpt lat="49.93824" lon="2.18034">
        <ele>15.3</ele>
        <time>2022-03-02T13:31:08Z</time>
      </trkpt>
      <trkpt lat="49.93821" lon="2.18033">
        <ele>15.3</ele>
        <time>2022-03-02T13:31:09Z</time>
      </trkpt>
      <trkpt lat="49.9382" lon="2.18032">
        <ele>15.3</ele>
        <time>2022-03-02T13:31:11Z</time>
      </trkpt>
      <trkpt lat="49.93818" lon="2.18032">
        <ele>15.3</ele>
        <time>2022-03-02T13:31:12Z</time>
      </trkpt>
      <trkpt lat="49.93817" lon="2.18031">
        <ele>15.3</ele>
        <time>2022-03-02T13:31:13Z</time>
      </trkpt>
      <trkpt lat="49.93815" lon="2.18031">
        <ele>15.3</ele>
        <time>2022-03-02T13:31:14Z</time>
      </trkpt>
      <trkpt lat="49.93814" lon="2.1803">
        <ele>15.3</ele>
        <time>2022-03-02T13:31:15Z</time>
      </trkpt>
      <trkpt lat="49.93812" lon="2.1803">
        <ele>15.3</ele>
        <time>2022-03-02T13:31:16Z</time>
      </trkpt>
      <trkpt lat="49.93811" lon="2.1803">
        <ele>15.3</ele>
        <time>2022-03-02T13:31:17Z</time>
      </trkpt>
      <trkpt lat="49.93808" lon="2.1803">
        <ele>15.3</ele>
        <time>2022-03-02T13:31:18Z</time>
      </trkpt>
      <trkpt lat="49.93808" lon="2.1803">
        <ele>15.3</ele>
        <time>2022-03-02T13:31:19Z</time>
      </trkpt>
      <trkpt lat="49.93807" lon="2.18029">
        <ele>15.3</ele>
        <time>2022-03-02T13:31:20Z</time>
      </trkpt>
      <trkpt lat="49.93805" lon="2.18029">
        <ele>15.3</ele>
        <time>2022-03-02T13:31:21Z</time>
      </trkpt>
      <trkpt lat="49.93804" lon="2.18029">
        <ele>15.3</ele>
        <time>2022-03-02T13:31:22Z</time>
      </trkpt>
      <trkpt lat="49.93803" lon="2.18029">
        <ele>15.3</ele>
        <time>2022-03-02T13:31:23Z</time>
      </trkpt>
      <trkpt lat="49.93802" lon="2.18029">
        <ele>15.3</ele>
        <time>2022-03-02T13:31:24Z</time>
      </trkpt>
      <trkpt lat="49.93801" lon="2.18029">
        <ele>15.3</ele>
        <time>2022-03-02T13:31:25Z</time>
      </trkpt>
      <trkpt lat="49.93799" lon="2.18029">
        <ele>15.3</ele>
        <time>2022-03-02T13:31:27Z</time>
      </trkpt>
      <trkpt lat="49.93796" lon="2.18029">
        <ele>15.3</ele>
        <time>2022-03-02T13:31:28Z</time>
      </trkpt>
      <trkpt lat="49.93795" lon="2.18029">
        <ele>15.3</ele>
        <time>2022-03-02T13:31:30Z</time>
      </trkpt>
      <trkpt lat="49.93794" lon="2.1803">
        <ele>15.3</ele>
        <time>2022-03-02T13:31:31Z</time>
      </trkpt>
      <trkpt lat="49.93793" lon="2.1803">
        <ele>15.3</ele>
        <time>2022-03-02T13:31:32Z</time>
      </trkpt>
      <trkpt lat="49.93792" lon="2.1803">
        <ele>15.3</ele>
        <time>2022-03-02T13:31:33Z</time>
      </trkpt>
      <trkpt lat="49.9379" lon="2.1803">
        <ele>15.3</ele>
        <time>2022-03-02T13:31:34Z</time>
      </trkpt>
      <trkpt lat="49.9379" lon="2.1803">
        <ele>15.3</ele>
        <time>2022-03-02T13:31:35Z</time>
      </trkpt>
      <trkpt lat="49.93789" lon="2.1803">
        <ele>15.3</ele>
        <time>2022-03-02T13:31:36Z</time>
      </trkpt>
      <trkpt lat="49.93789" lon="2.18029">
        <ele>15.3</ele>
        <time>2022-03-02T13:31:37Z</time>
      </trkpt>
      <trkpt lat="49.93788" lon="2.18029">
        <ele>15.3</ele>
        <time>2022-03-02T13:31:38Z</time>
      </trkpt>
      <trkpt lat="49.93788" lon="2.18029">
        <ele>15.3</ele>
        <time>2022-03-02T13:31:39Z</time>
      </trkpt>
      <trkpt lat="49.93786" lon="2.18029">
        <ele>15.3</ele>
        <time>2022-03-02T13:31:40Z</time>
      </trkpt>
      <trkpt lat="49.93785" lon="2.18029">
        <ele>15.3</ele>
        <time>2022-03-02T13:31:42Z</time>
      </trkpt>
      <trkpt lat="49.93784" lon="2.18029">
        <ele>15.3</ele>
        <time>2022-03-02T13:31:43Z</time>
      </trkpt>
      <trkpt lat="49.93783" lon="2.18029">
        <ele>15.3</ele>
        <time>2022-03-02T13:31:44Z</time>
      </trkpt>
      <trkpt lat="49.93782" lon="2.18029">
        <ele>15.3</ele>
        <time>2022-03-02T13:31:45Z</time>
      </trkpt>
      <trkpt lat="49.93781" lon="2.18029">
        <ele>15.3</ele>
        <time>2022-03-02T13:31:46Z</time>
      </trkpt>
      <trkpt lat="49.9378" lon="2.18029">
        <ele>15.3</ele>
        <time>2022-03-02T13:31:47Z</time>
      </trkpt>
      <trkpt lat="49.9378" lon="2.18029">
        <ele>15.3</ele>
        <time>2022-03-02T13:31:48Z</time>
      </trkpt>
      <trkpt lat="49.93779" lon="2.18029">
        <ele>15.3</ele>
        <time>2022-03-02T13:31:49Z</time>
      </trkpt>
      <trkpt lat="49.93778" lon="2.18029">
        <ele>15.3</ele>
        <time>2022-03-02T13:31:50Z</time>
      </trkpt>
      <trkpt lat="49.93778" lon="2.18028">
        <ele>15.3</ele>
        <time>2022-03-02T13:31:51Z</time>
      </trkpt>
      <trkpt lat="49.93776" lon="2.18029">
        <ele>15.3</ele>
        <time>2022-03-02T13:31:52Z</time>
      </trkpt>
      <trkpt lat="49.93775" lon="2.18029">
        <ele>15.3</ele>
        <time>2022-03-02T13:31:53Z</time>
      </trkpt>
      <trkpt lat="49.93774" lon="2.18029">
        <ele>15.3</ele>
        <time>2022-03-02T13:31:54Z</time>
      </trkpt>
      <trkpt lat="49.93773" lon="2.18029">
        <ele>15.3</ele>
        <time>2022-03-02T13:31:55Z</time>
      </trkpt>
      <trkpt lat="49.93772" lon="2.18029">
        <ele>15.3</ele>
        <time>2022-03-02T13:31:56Z</time>
      </trkpt>
      <trkpt lat="49.93771" lon="2.18029">
        <ele>15.3</ele>
        <time>2022-03-02T13:31:58Z</time>
      </trkpt>
      <trkpt lat="49.9377" lon="2.18028">
        <ele>15.3</ele>
        <time>2022-03-02T13:31:59Z</time>
      </trkpt>
      <trkpt lat="49.93769" lon="2.18028">
        <ele>15.3</ele>
        <time>2022-03-02T13:32:00Z</time>
      </trkpt>
      <trkpt lat="49.93768" lon="2.18028">
        <ele>15.3</ele>
        <time>2022-03-02T13:32:01Z</time>
      </trkpt>
      <trkpt lat="49.93767" lon="2.18028">
        <ele>15.3</ele>
        <time>2022-03-02T13:32:02Z</time>
      </trkpt>
      <trkpt lat="49.93766" lon="2.18028">
        <ele>15.3</ele>
        <time>2022-03-02T13:32:03Z</time>
      </trkpt>
      <trkpt lat="49.93765" lon="2.18028">
        <ele>15.3</ele>
        <time>2022-03-02T13:32:04Z</time>
      </trkpt>
      <trkpt lat="49.93764" lon="2.18029">
        <ele>15.3</ele>
        <time>2022-03-02T13:32:05Z</time>
      </trkpt>
      <trkpt lat="49.93763" lon="2.18028">
        <ele>15.3</ele>
        <time>2022-03-02T13:32:06Z</time>
      </trkpt>
      <trkpt lat="49.93763" lon="2.18028">
        <ele>15.3</ele>
        <time>2022-03-02T13:32:07Z</time>
      </trkpt>
      <trkpt lat="49.93762" lon="2.18028">
        <ele>15.3</ele>
        <time>2022-03-02T13:32:08Z</time>
      </trkpt>
      <trkpt lat="49.93761" lon="2.18028">
        <ele>15.3</ele>
        <time>2022-03-02T13:32:09Z</time>
      </trkpt>
      <trkpt lat="49.9376" lon="2.18029">
        <ele>15.3</ele>
        <time>2022-03-02T13:32:10Z</time>
      </trkpt>
      <trkpt lat="49.93759" lon="2.18029">
        <ele>15.3</ele>
        <time>2022-03-02T13:32:11Z</time>
      </trkpt>
      <trkpt lat="49.93758" lon="2.18029">
        <ele>15.3</ele>
        <time>2022-03-02T13:32:12Z</time>
      </trkpt>
      <trkpt lat="49.93757" lon="2.18029">
        <ele>15.3</ele>
        <time>2022-03-02T13:32:13Z</time>
      </trkpt>
      <trkpt lat="49.93756" lon="2.1803">
        <ele>15.3</ele>
        <time>2022-03-02T13:32:14Z</time>
      </trkpt>
      <trkpt lat="49.93755" lon="2.1803">
        <ele>15.3</ele>
        <time>2022-03-02T13:32:16Z</time>
      </trkpt>
      <trkpt lat="49.93754" lon="2.18031">
        <ele>15.3</ele>
        <time>2022-03-02T13:32:17Z</time>
      </trkpt>
      <trkpt lat="49.93753" lon="2.18031">
        <ele>15.3</ele>
        <time>2022-03-02T13:32:18Z</time>
      </trkpt>
      <trkpt lat="49.93753" lon="2.18031">
        <ele>15.3</ele>
        <time>2022-03-02T13:32:19Z</time>
      </trkpt>
      <trkpt lat="49.93751" lon="2.18032">
        <ele>15.3</ele>
        <time>2022-03-02T13:32:20Z</time>
      </trkpt>
      <trkpt lat="49.9375" lon="2.18032">
        <ele>15.3</ele>
        <time>2022-03-02T13:32:21Z</time>
      </trkpt>
      <trkpt lat="49.93749" lon="2.18032">
        <ele>15.3</ele>
        <time>2022-03-02T13:32:22Z</time>
      </trkpt>
      <trkpt lat="49.93748" lon="2.18033">
        <ele>15.3</ele>
        <time>2022-03-02T13:32:23Z</time>
      </trkpt>
      <trkpt lat="49.93747" lon="2.18034">
        <ele>15.2</ele>
        <time>2022-03-02T13:32:24Z</time>
      </trkpt>
      <trkpt lat="49.93747" lon="2.18034">
        <ele>15.2</ele>
        <time>2022-03-02T13:32:25Z</time>
      </trkpt>
      <trkpt lat="49.93746" lon="2.18034">
        <ele>15.2</ele>
        <time>2022-03-02T13:32:26Z</time>
      </trkpt>
      <trkpt lat="49.93745" lon="2.18035">
        <ele>15.2</ele>
        <time>2022-03-02T13:32:27Z</time>
      </trkpt>
      <trkpt lat="49.93743" lon="2.18036">
        <ele>15.2</ele>
        <time>2022-03-02T13:32:28Z</time>
      </trkpt>
      <trkpt lat="49.93742" lon="2.18037">
        <ele>15.2</ele>
        <time>2022-03-02T13:32:29Z</time>
      </trkpt>
      <trkpt lat="49.93741" lon="2.18039">
        <ele>15.2</ele>
        <time>2022-03-02T13:32:30Z</time>
      </trkpt>
      <trkpt lat="49.93739" lon="2.1804">
        <ele>15.2</ele>
        <time>2022-03-02T13:32:31Z</time>
      </trkpt>
      <trkpt lat="49.93738" lon="2.1804">
        <ele>15.2</ele>
        <time>2022-03-02T13:32:32Z</time>
      </trkpt>
      <trkpt lat="49.93736" lon="2.18042">
        <ele>15.2</ele>
        <time>2022-03-02T13:32:34Z</time>
      </trkpt>
      <trkpt lat="49.93735" lon="2.18043">
        <ele>15.2</ele>
        <time>2022-03-02T13:32:35Z</time>
      </trkpt>
      <trkpt lat="49.93733" lon="2.18044">
        <ele>15.2</ele>
        <time>2022-03-02T13:32:37Z</time>
      </trkpt>
      <trkpt lat="49.93732" lon="2.18045">
        <ele>15.2</ele>
        <time>2022-03-02T13:32:38Z</time>
      </trkpt>
      <trkpt lat="49.93731" lon="2.18046">
        <ele>15.1</ele>
        <time>2022-03-02T13:32:39Z</time>
      </trkpt>
      <trkpt lat="49.9373" lon="2.18047">
        <ele>15.1</ele>
        <time>2022-03-02T13:32:40Z</time>
      </trkpt>
      <trkpt lat="49.93729" lon="2.18048">
        <ele>15.1</ele>
        <time>2022-03-02T13:32:41Z</time>
      </trkpt>
      <trkpt lat="49.93728" lon="2.1805">
        <ele>15.1</ele>
        <time>2022-03-02T13:32:42Z</time>
      </trkpt>
      <trkpt lat="49.93727" lon="2.18051">
        <ele>15.1</ele>
        <time>2022-03-02T13:32:43Z</time>
      </trkpt>
      <trkpt lat="49.93725" lon="2.18052">
        <ele>15.1</ele>
        <time>2022-03-02T13:32:44Z</time>
      </trkpt>
      <trkpt lat="49.93724" lon="2.18054">
        <ele>15.1</ele>
        <time>2022-03-02T13:32:45Z</time>
      </trkpt>
      <trkpt lat="49.93722" lon="2.18056">
        <ele>15.1</ele>
        <time>2022-03-02T13:32:47Z</time>
      </trkpt>
      <trkpt lat="49.93721" lon="2.18057">
        <ele>15.1</ele>
        <time>2022-03-02T13:32:48Z</time>
      </trkpt>
      <trkpt lat="49.9372" lon="2.18058">
        <ele>15.1</ele>
        <time>2022-03-02T13:32:49Z</time>
      </trkpt>
      <trkpt lat="49.93718" lon="2.18059">
        <ele>15.1</ele>
        <time>2022-03-02T13:32:50Z</time>
      </trkpt>
      <trkpt lat="49.93717" lon="2.1806">
        <ele>15.1</ele>
        <time>2022-03-02T13:32:51Z</time>
      </trkpt>
      <trkpt lat="49.93716" lon="2.18061">
        <ele>15.1</ele>
        <time>2022-03-02T13:32:53Z</time>
      </trkpt>
      <trkpt lat="49.93715" lon="2.18063">
        <ele>15.1</ele>
        <time>2022-03-02T13:32:54Z</time>
      </trkpt>
      <trkpt lat="49.93714" lon="2.18064">
        <ele>15.1</ele>
        <time>2022-03-02T13:32:55Z</time>
      </trkpt>
      <trkpt lat="49.93713" lon="2.18065">
        <ele>15.1</ele>
        <time>2022-03-02T13:32:56Z</time>
      </trkpt>
      <trkpt lat="49.93712" lon="2.18067">
        <ele>15.1</ele>
        <time>2022-03-02T13:32:57Z</time>
      </trkpt>
      <trkpt lat="49.93711" lon="2.18068">
        <ele>15.1</ele>
        <time>2022-03-02T13:32:58Z</time>
      </trkpt>
      <trkpt lat="49.9371" lon="2.18069">
        <ele>15.1</ele>
        <time>2022-03-02T13:32:59Z</time>
      </trkpt>
      <trkpt lat="49.93709" lon="2.1807">
        <ele>15.1</ele>
        <time>2022-03-02T13:33:00Z</time>
      </trkpt>
      <trkpt lat="49.93708" lon="2.18072">
        <ele>15.1</ele>
        <time>2022-03-02T13:33:02Z</time>
      </trkpt>
      <trkpt lat="49.93707" lon="2.18074">
        <ele>15.1</ele>
        <time>2022-03-02T13:33:03Z</time>
      </trkpt>
      <trkpt lat="49.93705" lon="2.18076">
        <ele>15.2</ele>
        <time>2022-03-02T13:33:04Z</time>
      </trkpt>
      <trkpt lat="49.93705" lon="2.18077">
        <ele>15.2</ele>
        <time>2022-03-02T13:33:05Z</time>
      </trkpt>
      <trkpt lat="49.93704" lon="2.18078">
        <ele>15.2</ele>
        <time>2022-03-02T13:33:06Z</time>
      </trkpt>
      <trkpt lat="49.93703" lon="2.1808">
        <ele>15.2</ele>
        <time>2022-03-02T13:33:07Z</time>
      </trkpt>
      <trkpt lat="49.93702" lon="2.18081">
        <ele>15.2</ele>
        <time>2022-03-02T13:33:08Z</time>
      </trkpt>
      <trkpt lat="49.93701" lon="2.18083">
        <ele>15.2</ele>
        <time>2022-03-02T13:33:09Z</time>
      </trkpt>
      <trkpt lat="49.937" lon="2.18084">
        <ele>15.2</ele>
        <time>2022-03-02T13:33:10Z</time>
      </trkpt>
      <trkpt lat="49.93698" lon="2.18087">
        <ele>15.2</ele>
        <time>2022-03-02T13:33:11Z</time>
      </trkpt>
      <trkpt lat="49.93698" lon="2.18088">
        <ele>15.2</ele>
        <time>2022-03-02T13:33:12Z</time>
      </trkpt>
      <trkpt lat="49.93697" lon="2.18089">
        <ele>15.2</ele>
        <time>2022-03-02T13:33:13Z</time>
      </trkpt>
      <trkpt lat="49.93696" lon="2.18091">
        <ele>15.2</ele>
        <time>2022-03-02T13:33:14Z</time>
      </trkpt>
      <trkpt lat="49.93695" lon="2.18092">
        <ele>15.2</ele>
        <time>2022-03-02T13:33:15Z</time>
      </trkpt>
      <trkpt lat="49.93695" lon="2.18093">
        <ele>15.2</ele>
        <time>2022-03-02T13:33:16Z</time>
      </trkpt>
      <trkpt lat="49.93694" lon="2.18094">
        <ele>15.2</ele>
        <time>2022-03-02T13:33:17Z</time>
      </trkpt>
      <trkpt lat="49.93693" lon="2.18095">
        <ele>15.2</ele>
        <time>2022-03-02T13:33:18Z</time>
      </trkpt>
      <trkpt lat="49.93692" lon="2.18097">
        <ele>15.2</ele>
        <time>2022-03-02T13:33:20Z</time>
      </trkpt>
      <trkpt lat="49.93691" lon="2.18098">
        <ele>15.2</ele>
        <time>2022-03-02T13:33:21Z</time>
      </trkpt>
      <trkpt lat="49.9369" lon="2.18099">
        <ele>15.2</ele>
        <time>2022-03-02T13:33:22Z</time>
      </trkpt>
      <trkpt lat="49.93689" lon="2.18101">
        <ele>15.2</ele>
        <time>2022-03-02T13:33:23Z</time>
      </trkpt>
      <trkpt lat="49.93688" lon="2.18102">
        <ele>15.2</ele>
        <time>2022-03-02T13:33:24Z</time>
      </trkpt>
      <trkpt lat="49.93688" lon="2.18104">
        <ele>15.3</ele>
        <time>2022-03-02T13:33:25Z</time>
      </trkpt>
      <trkpt lat="49.93686" lon="2.18106">
        <ele>15.3</ele>
        <time>2022-03-02T13:33:27Z</time>
      </trkpt>
      <trkpt lat="49.93685" lon="2.18106">
        <ele>15.3</ele>
        <time>2022-03-02T13:33:28Z</time>
      </trkpt>
      <trkpt lat="49.93685" lon="2.18108">
        <ele>15.3</ele>
        <time>2022-03-02T13:33:29Z</time>
      </trkpt>
      <trkpt lat="49.93684" lon="2.18109">
        <ele>15.3</ele>
        <time>2022-03-02T13:33:30Z</time>
      </trkpt>
      <trkpt lat="49.93683" lon="2.1811">
        <ele>15.3</ele>
        <time>2022-03-02T13:33:31Z</time>
      </trkpt>
      <trkpt lat="49.93682" lon="2.18112">
        <ele>15.3</ele>
        <time>2022-03-02T13:33:32Z</time>
      </trkpt>
      <trkpt lat="49.93681" lon="2.18114">
        <ele>15.3</ele>
        <time>2022-03-02T13:33:34Z</time>
      </trkpt>
      <trkpt lat="49.9368" lon="2.18115">
        <ele>15.3</ele>
        <time>2022-03-02T13:33:35Z</time>
      </trkpt>
      <trkpt lat="49.93679" lon="2.18117">
        <ele>15.3</ele>
        <time>2022-03-02T13:33:36Z</time>
      </trkpt>
      <trkpt lat="49.93678" lon="2.18119">
        <ele>15.3</ele>
        <time>2022-03-02T13:33:37Z</time>
      </trkpt>
      <trkpt lat="49.93677" lon="2.18121">
        <ele>15.3</ele>
        <time>2022-03-02T13:33:38Z</time>
      </trkpt>
      <trkpt lat="49.93676" lon="2.18123">
        <ele>15.3</ele>
        <time>2022-03-02T13:33:39Z</time>
      </trkpt>
      <trkpt lat="49.93675" lon="2.18125">
        <ele>15.3</ele>
        <time>2022-03-02T13:33:40Z</time>
      </trkpt>
      <trkpt lat="49.93674" lon="2.18126">
        <ele>15.3</ele>
        <time>2022-03-02T13:33:41Z</time>
      </trkpt>
      <trkpt lat="49.93672" lon="2.18129">
        <ele>15.3</ele>
        <time>2022-03-02T13:33:43Z</time>
      </trkpt>
      <trkpt lat="49.93671" lon="2.18131">
        <ele>15.3</ele>
        <time>2022-03-02T13:33:44Z</time>
      </trkpt>
      <trkpt lat="49.9367" lon="2.18133">
        <ele>15.3</ele>
        <time>2022-03-02T13:33:45Z</time>
      </trkpt>
      <trkpt lat="49.93669" lon="2.18134">
        <ele>15.3</ele>
        <time>2022-03-02T13:33:46Z</time>
      </trkpt>
      <trkpt lat="49.93669" lon="2.18136">
        <ele>15.3</ele>
        <time>2022-03-02T13:33:47Z</time>
      </trkpt>
      <trkpt lat="49.93668" lon="2.18137">
        <ele>15.3</ele>
        <time>2022-03-02T13:33:48Z</time>
      </trkpt>
      <trkpt lat="49.93667" lon="2.18139">
        <ele>15.3</ele>
        <time>2022-03-02T13:33:49Z</time>
      </trkpt>
      <trkpt lat="49.93666" lon="2.1814">
        <ele>15.3</ele>
        <time>2022-03-02T13:33:50Z</time>
      </trkpt>
      <trkpt lat="49.93666" lon="2.1814">
        <ele>15.3</ele>
        <time>2022-03-02T13:33:51Z</time>
      </trkpt>
      <trkpt lat="49.93666" lon="2.18141">
        <ele>15.3</ele>
        <time>2022-03-02T13:33:53Z</time>
      </trkpt>
      <trkpt lat="49.93665" lon="2.18142">
        <ele>15.3</ele>
        <time>2022-03-02T13:33:54Z</time>
      </trkpt>
      <trkpt lat="49.93664" lon="2.18144">
        <ele>15.3</ele>
        <time>2022-03-02T13:33:55Z</time>
      </trkpt>
      <trkpt lat="49.93664" lon="2.18146">
        <ele>15.3</ele>
        <time>2022-03-02T13:33:56Z</time>
      </trkpt>
      <trkpt lat="49.93663" lon="2.18147">
        <ele>15.3</ele>
        <time>2022-03-02T13:33:57Z</time>
      </trkpt>
      <trkpt lat="49.93663" lon="2.18148">
        <ele>15.3</ele>
        <time>2022-03-02T13:33:58Z</time>
      </trkpt>
      <trkpt lat="49.93662" lon="2.1815">
        <ele>15.3</ele>
        <time>2022-03-02T13:34:00Z</time>
      </trkpt>
      <trkpt lat="49.93662" lon="2.18152">
        <ele>15.3</ele>
        <time>2022-03-02T13:34:01Z</time>
      </trkpt>
      <trkpt lat="49.93661" lon="2.18155">
        <ele>15.3</ele>
        <time>2022-03-02T13:34:02Z</time>
      </trkpt>
      <trkpt lat="49.9366" lon="2.18156">
        <ele>15.3</ele>
        <time>2022-03-02T13:34:03Z</time>
      </trkpt>
      <trkpt lat="49.9366" lon="2.18157">
        <ele>15.3</ele>
        <time>2022-03-02T13:34:04Z</time>
      </trkpt>
      <trkpt lat="49.93659" lon="2.1816">
        <ele>15.3</ele>
        <time>2022-03-02T13:34:05Z</time>
      </trkpt>
      <trkpt lat="49.93658" lon="2.18161">
        <ele>15.3</ele>
        <time>2022-03-02T13:34:06Z</time>
      </trkpt>
      <trkpt lat="49.93658" lon="2.18162">
        <ele>15.3</ele>
        <time>2022-03-02T13:34:07Z</time>
      </trkpt>
      <trkpt lat="49.93658" lon="2.18163">
        <ele>15.3</ele>
        <time>2022-03-02T13:34:08Z</time>
      </trkpt>
      <trkpt lat="49.93658" lon="2.18164">
        <ele>15.3</ele>
        <time>2022-03-02T13:34:09Z</time>
      </trkpt>
      <trkpt lat="49.93658" lon="2.18165">
        <ele>15.3</ele>
        <time>2022-03-02T13:34:10Z</time>
      </trkpt>
      <trkpt lat="49.93657" lon="2.18167">
        <ele>15.3</ele>
        <time>2022-03-02T13:34:11Z</time>
      </trkpt>
      <trkpt lat="49.93656" lon="2.18168">
        <ele>15.3</ele>
        <time>2022-03-02T13:34:12Z</time>
      </trkpt>
      <trkpt lat="49.93655" lon="2.1817">
        <ele>15.3</ele>
        <time>2022-03-02T13:34:13Z</time>
      </trkpt>
      <trkpt lat="49.93655" lon="2.18171">
        <ele>15.3</ele>
        <time>2022-03-02T13:34:14Z</time>
      </trkpt>
      <trkpt lat="49.93654" lon="2.18172">
        <ele>15.3</ele>
        <time>2022-03-02T13:34:15Z</time>
      </trkpt>
      <trkpt lat="49.93654" lon="2.18174">
        <ele>15.3</ele>
        <time>2022-03-02T13:34:16Z</time>
      </trkpt>
      <trkpt lat="49.93654" lon="2.18175">
        <ele>15.2</ele>
        <time>2022-03-02T13:34:17Z</time>
      </trkpt>
      <trkpt lat="49.93653" lon="2.18177">
        <ele>15.2</ele>
        <time>2022-03-02T13:34:18Z</time>
      </trkpt>
      <trkpt lat="49.93652" lon="2.18179">
        <ele>15.2</ele>
        <time>2022-03-02T13:34:20Z</time>
      </trkpt>
      <trkpt lat="49.93651" lon="2.18181">
        <ele>15.2</ele>
        <time>2022-03-02T13:34:21Z</time>
      </trkpt>
      <trkpt lat="49.9365" lon="2.18183">
        <ele>15.2</ele>
        <time>2022-03-02T13:34:22Z</time>
      </trkpt>
      <trkpt lat="49.93648" lon="2.18186">
        <ele>15.2</ele>
        <time>2022-03-02T13:34:23Z</time>
      </trkpt>
      <trkpt lat="49.93648" lon="2.18188">
        <ele>15.2</ele>
        <time>2022-03-02T13:34:25Z</time>
      </trkpt>
      <trkpt lat="49.93647" lon="2.18189">
        <ele>15.2</ele>
        <time>2022-03-02T13:34:26Z</time>
      </trkpt>
      <trkpt lat="49.93647" lon="2.18191">
        <ele>15.2</ele>
        <time>2022-03-02T13:34:27Z</time>
      </trkpt>
      <trkpt lat="49.93646" lon="2.18192">
        <ele>15.2</ele>
        <time>2022-03-02T13:34:28Z</time>
      </trkpt>
      <trkpt lat="49.93645" lon="2.18194">
        <ele>15.2</ele>
        <time>2022-03-02T13:34:29Z</time>
      </trkpt>
      <trkpt lat="49.93644" lon="2.18195">
        <ele>15.2</ele>
        <time>2022-03-02T13:34:30Z</time>
      </trkpt>
      <trkpt lat="49.93644" lon="2.18196">
        <ele>15.2</ele>
        <time>2022-03-02T13:34:31Z</time>
      </trkpt>
      <trkpt lat="49.93642" lon="2.18199">
        <ele>15.2</ele>
        <time>2022-03-02T13:34:32Z</time>
      </trkpt>
      <trkpt lat="49.93642" lon="2.182">
        <ele>15.2</ele>
        <time>2022-03-02T13:34:33Z</time>
      </trkpt>
      <trkpt lat="49.93641" lon="2.18201">
        <ele>15.2</ele>
        <time>2022-03-02T13:34:34Z</time>
      </trkpt>
      <trkpt lat="49.9364" lon="2.18203">
        <ele>15.2</ele>
        <time>2022-03-02T13:34:35Z</time>
      </trkpt>
      <trkpt lat="49.93639" lon="2.18204">
        <ele>15.2</ele>
        <time>2022-03-02T13:34:36Z</time>
      </trkpt>
      <trkpt lat="49.93638" lon="2.18207">
        <ele>15.2</ele>
        <time>2022-03-02T13:34:38Z</time>
      </trkpt>
      <trkpt lat="49.93638" lon="2.18208">
        <ele>15.2</ele>
        <time>2022-03-02T13:34:39Z</time>
      </trkpt>
      <trkpt lat="49.93636" lon="2.18211">
        <ele>15.2</ele>
        <time>2022-03-02T13:34:40Z</time>
      </trkpt>
      <trkpt lat="49.93636" lon="2.18212">
        <ele>15.2</ele>
        <time>2022-03-02T13:34:41Z</time>
      </trkpt>
      <trkpt lat="49.93636" lon="2.18213">
        <ele>15.2</ele>
        <time>2022-03-02T13:34:42Z</time>
      </trkpt>
      <trkpt lat="49.93635" lon="2.18216">
        <ele>15.2</ele>
        <time>2022-03-02T13:34:44Z</time>
      </trkpt>
      <trkpt lat="49.93634" lon="2.18218">
        <ele>15.2</ele>
        <time>2022-03-02T13:34:45Z</time>
      </trkpt>
      <trkpt lat="49.93634" lon="2.18219">
        <ele>15.2</ele>
        <time>2022-03-02T13:34:46Z</time>
      </trkpt>
      <trkpt lat="49.93633" lon="2.18221">
        <ele>15.2</ele>
        <time>2022-03-02T13:34:47Z</time>
      </trkpt>
      <trkpt lat="49.93633" lon="2.18222">
        <ele>15.2</ele>
        <time>2022-03-02T13:34:48Z</time>
      </trkpt>
      <trkpt lat="49.93632" lon="2.18224">
        <ele>15.2</ele>
        <time>2022-03-02T13:34:49Z</time>
      </trkpt>
      <trkpt lat="49.93632" lon="2.18226">
        <ele>15.2</ele>
        <time>2022-03-02T13:34:50Z</time>
      </trkpt>
      <trkpt lat="49.93631" lon="2.18228">
        <ele>15.2</ele>
        <time>2022-03-02T13:34:51Z</time>
      </trkpt>
      <trkpt lat="49.93631" lon="2.18229">
        <ele>15.2</ele>
        <time>2022-03-02T13:34:52Z</time>
      </trkpt>
      <trkpt lat="49.9363" lon="2.18231">
        <ele>15.2</ele>
        <time>2022-03-02T13:34:53Z</time>
      </trkpt>
      <trkpt lat="49.93629" lon="2.18233">
        <ele>15.2</ele>
        <time>2022-03-02T13:34:54Z</time>
      </trkpt>
      <trkpt lat="49.93628" lon="2.18235">
        <ele>15.2</ele>
        <time>2022-03-02T13:34:55Z</time>
      </trkpt>
      <trkpt lat="49.93627" lon="2.18237">
        <ele>15.2</ele>
        <time>2022-03-02T13:34:56Z</time>
      </trkpt>
      <trkpt lat="49.93627" lon="2.18238">
        <ele>15.2</ele>
        <time>2022-03-02T13:34:57Z</time>
      </trkpt>
      <trkpt lat="49.93626" lon="2.1824">
        <ele>15.2</ele>
        <time>2022-03-02T13:34:58Z</time>
      </trkpt>
      <trkpt lat="49.93625" lon="2.18241">
        <ele>15.2</ele>
        <time>2022-03-02T13:35:00Z</time>
      </trkpt>
      <trkpt lat="49.93625" lon="2.18243">
        <ele>15.2</ele>
        <time>2022-03-02T13:35:01Z</time>
      </trkpt>
      <trkpt lat="49.93624" lon="2.18244">
        <ele>15.2</ele>
        <time>2022-03-02T13:35:02Z</time>
      </trkpt>
      <trkpt lat="49.93623" lon="2.18245">
        <ele>15.2</ele>
        <time>2022-03-02T13:35:03Z</time>
      </trkpt>
      <trkpt lat="49.93622" lon="2.18247">
        <ele>15.2</ele>
        <time>2022-03-02T13:35:04Z</time>
      </trkpt>
      <trkpt lat="49.93621" lon="2.18248">
        <ele>15.2</ele>
        <time>2022-03-02T13:35:05Z</time>
      </trkpt>
      <trkpt lat="49.9362" lon="2.1825">
        <ele>15.2</ele>
        <time>2022-03-02T13:35:06Z</time>
      </trkpt>
      <trkpt lat="49.93619" lon="2.18251">
        <ele>15.2</ele>
        <time>2022-03-02T13:35:07Z</time>
      </trkpt>
      <trkpt lat="49.93618" lon="2.18252">
        <ele>15.2</ele>
        <time>2022-03-02T13:35:08Z</time>
      </trkpt>
      <trkpt lat="49.93618" lon="2.18253">
        <ele>15.2</ele>
        <time>2022-03-02T13:35:09Z</time>
      </trkpt>
      <trkpt lat="49.93617" lon="2.18254">
        <ele>15.2</ele>
        <time>2022-03-02T13:35:10Z</time>
      </trkpt>
      <trkpt lat="49.93617" lon="2.18256">
        <ele>15.2</ele>
        <time>2022-03-02T13:35:11Z</time>
      </trkpt>
      <trkpt lat="49.93616" lon="2.18258">
        <ele>15.2</ele>
        <time>2022-03-02T13:35:12Z</time>
      </trkpt>
      <trkpt lat="49.93615" lon="2.18259">
        <ele>15.2</ele>
        <time>2022-03-02T13:35:13Z</time>
      </trkpt>
      <trkpt lat="49.93614" lon="2.18262">
        <ele>15.2</ele>
        <time>2022-03-02T13:35:15Z</time>
      </trkpt>
      <trkpt lat="49.93613" lon="2.18264">
        <ele>15.2</ele>
        <time>2022-03-02T13:35:16Z</time>
      </trkpt>
      <trkpt lat="49.93612" lon="2.18265">
        <ele>15.2</ele>
        <time>2022-03-02T13:35:17Z</time>
      </trkpt>
      <trkpt lat="49.93612" lon="2.18268">
        <ele>15.2</ele>
        <time>2022-03-02T13:35:18Z</time>
      </trkpt>
      <trkpt lat="49.93611" lon="2.1827">
        <ele>15.2</ele>
        <time>2022-03-02T13:35:19Z</time>
      </trkpt>
      <trkpt lat="49.9361" lon="2.18272">
        <ele>15.2</ele>
        <time>2022-03-02T13:35:20Z</time>
      </trkpt>
      <trkpt lat="49.93609" lon="2.18274">
        <ele>15.2</ele>
        <time>2022-03-02T13:35:22Z</time>
      </trkpt>
      <trkpt lat="49.93608" lon="2.18276">
        <ele>15.2</ele>
        <time>2022-03-02T13:35:23Z</time>
      </trkpt>
      <trkpt lat="49.93606" lon="2.18278">
        <ele>15.2</ele>
        <time>2022-03-02T13:35:24Z</time>
      </trkpt>
      <trkpt lat="49.93604" lon="2.18281">
        <ele>15.2</ele>
        <time>2022-03-02T13:35:25Z</time>
      </trkpt>
      <trkpt lat="49.93604" lon="2.18282">
        <ele>15.2</ele>
        <time>2022-03-02T13:35:26Z</time>
      </trkpt>
      <trkpt lat="49.93603" lon="2.18283">
        <ele>15.2</ele>
        <time>2022-03-02T13:35:27Z</time>
      </trkpt>
      <trkpt lat="49.93602" lon="2.18285">
        <ele>15.2</ele>
        <time>2022-03-02T13:35:28Z</time>
      </trkpt>
      <trkpt lat="49.93601" lon="2.18287">
        <ele>15.2</ele>
        <time>2022-03-02T13:35:29Z</time>
      </trkpt>
      <trkpt lat="49.936" lon="2.18289">
        <ele>15.2</ele>
        <time>2022-03-02T13:35:30Z</time>
      </trkpt>
      <trkpt lat="49.93598" lon="2.18293">
        <ele>15.2</ele>
        <time>2022-03-02T13:35:31Z</time>
      </trkpt>
      <trkpt lat="49.93597" lon="2.18294">
        <ele>15.2</ele>
        <time>2022-03-02T13:35:32Z</time>
      </trkpt>
      <trkpt lat="49.93596" lon="2.18296">
        <ele>15.2</ele>
        <time>2022-03-02T13:35:33Z</time>
      </trkpt>
      <trkpt lat="49.93595" lon="2.183">
        <ele>15.2</ele>
        <time>2022-03-02T13:35:35Z</time>
      </trkpt>
      <trkpt lat="49.93594" lon="2.18302">
        <ele>15.2</ele>
        <time>2022-03-02T13:35:36Z</time>
      </trkpt>
      <trkpt lat="49.93593" lon="2.18304">
        <ele>15.2</ele>
        <time>2022-03-02T13:35:37Z</time>
      </trkpt>
      <trkpt lat="49.93591" lon="2.18308">
        <ele>15.2</ele>
        <time>2022-03-02T13:35:38Z</time>
      </trkpt>
      <trkpt lat="49.9359" lon="2.18309">
        <ele>15.2</ele>
        <time>2022-03-02T13:35:39Z</time>
      </trkpt>
      <trkpt lat="49.93589" lon="2.18311">
        <ele>15.2</ele>
        <time>2022-03-02T13:35:41Z</time>
      </trkpt>
      <trkpt lat="49.93588" lon="2.18313">
        <ele>15.2</ele>
        <time>2022-03-02T13:35:42Z</time>
      </trkpt>
      <trkpt lat="49.93587" lon="2.18314">
        <ele>15.2</ele>
        <time>2022-03-02T13:35:43Z</time>
      </trkpt>
      <trkpt lat="49.93586" lon="2.18316">
        <ele>15.2</ele>
        <time>2022-03-02T13:35:44Z</time>
      </trkpt>
      <trkpt lat="49.93585" lon="2.18318">
        <ele>15.2</ele>
        <time>2022-03-02T13:35:45Z</time>
      </trkpt>
      <trkpt lat="49.93585" lon="2.18319">
        <ele>15.2</ele>
        <time>2022-03-02T13:35:46Z</time>
      </trkpt>
      <trkpt lat="49.93584" lon="2.1832">
        <ele>15.2</ele>
        <time>2022-03-02T13:35:47Z</time>
      </trkpt>
      <trkpt lat="49.93583" lon="2.18322">
        <ele>15.2</ele>
        <time>2022-03-02T13:35:48Z</time>
      </trkpt>
      <trkpt lat="49.93583" lon="2.18323">
        <ele>15.2</ele>
        <time>2022-03-02T13:35:49Z</time>
      </trkpt>
      <trkpt lat="49.93582" lon="2.18324">
        <ele>15.2</ele>
        <time>2022-03-02T13:35:50Z</time>
      </trkpt>
      <trkpt lat="49.93581" lon="2.18327">
        <ele>15.2</ele>
        <time>2022-03-02T13:35:51Z</time>
      </trkpt>
      <trkpt lat="49.9358" lon="2.18328">
        <ele>15.2</ele>
        <time>2022-03-02T13:35:52Z</time>
      </trkpt>
      <trkpt lat="49.9358" lon="2.18329">
        <ele>15.1</ele>
        <time>2022-03-02T13:35:53Z</time>
      </trkpt>
      <trkpt lat="49.93579" lon="2.1833">
        <ele>15.1</ele>
        <time>2022-03-02T13:35:54Z</time>
      </trkpt>
      <trkpt lat="49.93578" lon="2.18331">
        <ele>15.1</ele>
        <time>2022-03-02T13:35:56Z</time>
      </trkpt>
      <trkpt lat="49.93578" lon="2.18333">
        <ele>15.1</ele>
        <time>2022-03-02T13:35:57Z</time>
      </trkpt>
      <trkpt lat="49.93577" lon="2.18334">
        <ele>15.1</ele>
        <time>2022-03-02T13:35:58Z</time>
      </trkpt>
      <trkpt lat="49.93576" lon="2.18336">
        <ele>15.1</ele>
        <time>2022-03-02T13:35:59Z</time>
      </trkpt>
      <trkpt lat="49.93575" lon="2.18337">
        <ele>15.1</ele>
        <time>2022-03-02T13:36:00Z</time>
      </trkpt>
      <trkpt lat="49.93575" lon="2.18339">
        <ele>15.1</ele>
        <time>2022-03-02T13:36:01Z</time>
      </trkpt>
      <trkpt lat="49.93575" lon="2.1834">
        <ele>15.1</ele>
        <time>2022-03-02T13:36:02Z</time>
      </trkpt>
      <trkpt lat="49.93574" lon="2.18342">
        <ele>15.1</ele>
        <time>2022-03-02T13:36:03Z</time>
      </trkpt>
      <trkpt lat="49.93573" lon="2.18343">
        <ele>15.1</ele>
        <time>2022-03-02T13:36:04Z</time>
      </trkpt>
      <trkpt lat="49.93573" lon="2.18344">
        <ele>15.1</ele>
        <time>2022-03-02T13:36:05Z</time>
      </trkpt>
      <trkpt lat="49.93572" lon="2.18346">
        <ele>15.1</ele>
        <time>2022-03-02T13:36:06Z</time>
      </trkpt>
      <trkpt lat="49.93571" lon="2.18348">
        <ele>15.1</ele>
        <time>2022-03-02T13:36:07Z</time>
      </trkpt>
      <trkpt lat="49.9357" lon="2.18349">
        <ele>15.1</ele>
        <time>2022-03-02T13:36:08Z</time>
      </trkpt>
      <trkpt lat="49.93569" lon="2.18351">
        <ele>15.1</ele>
        <time>2022-03-02T13:36:09Z</time>
      </trkpt>
      <trkpt lat="49.93568" lon="2.18353">
        <ele>15.1</ele>
        <time>2022-03-02T13:36:10Z</time>
      </trkpt>
      <trkpt lat="49.93567" lon="2.18356">
        <ele>15.1</ele>
        <time>2022-03-02T13:36:12Z</time>
      </trkpt>
      <trkpt lat="49.93567" lon="2.18357">
        <ele>15.1</ele>
        <time>2022-03-02T13:36:13Z</time>
      </trkpt>
      <trkpt lat="49.93566" lon="2.18358">
        <ele>15.1</ele>
        <time>2022-03-02T13:36:14Z</time>
      </trkpt>
      <trkpt lat="49.93566" lon="2.18359">
        <ele>15.1</ele>
        <time>2022-03-02T13:36:15Z</time>
      </trkpt>
      <trkpt lat="49.93565" lon="2.1836">
        <ele>15.1</ele>
        <time>2022-03-02T13:36:16Z</time>
      </trkpt>
      <trkpt lat="49.93564" lon="2.18363">
        <ele>15.1</ele>
        <time>2022-03-02T13:36:18Z</time>
      </trkpt>
      <trkpt lat="49.93564" lon="2.18364">
        <ele>15.1</ele>
        <time>2022-03-02T13:36:19Z</time>
      </trkpt>
      <trkpt lat="49.93563" lon="2.18366">
        <ele>15.1</ele>
        <time>2022-03-02T13:36:20Z</time>
      </trkpt>
      <trkpt lat="49.93563" lon="2.18367">
        <ele>15.1</ele>
        <time>2022-03-02T13:36:21Z</time>
      </trkpt>
      <trkpt lat="49.93562" lon="2.1837">
        <ele>15.1</ele>
        <time>2022-03-02T13:36:22Z</time>
      </trkpt>
      <trkpt lat="49.93561" lon="2.18371">
        <ele>15.1</ele>
        <time>2022-03-02T13:36:23Z</time>
      </trkpt>
      <trkpt lat="49.9356" lon="2.18372">
        <ele>15.1</ele>
        <time>2022-03-02T13:36:24Z</time>
      </trkpt>
      <trkpt lat="49.93559" lon="2.18375">
        <ele>15.1</ele>
        <time>2022-03-02T13:36:25Z</time>
      </trkpt>
      <trkpt lat="49.93558" lon="2.18375">
        <ele>15.1</ele>
        <time>2022-03-02T13:36:26Z</time>
      </trkpt>
      <trkpt lat="49.93558" lon="2.18376">
        <ele>15.1</ele>
        <time>2022-03-02T13:36:27Z</time>
      </trkpt>
      <trkpt lat="49.93556" lon="2.18378">
        <ele>15.1</ele>
        <time>2022-03-02T13:36:29Z</time>
      </trkpt>
      <trkpt lat="49.93555" lon="2.18379">
        <ele>15.2</ele>
        <time>2022-03-02T13:36:30Z</time>
      </trkpt>
      <trkpt lat="49.93555" lon="2.1838">
        <ele>15.2</ele>
        <time>2022-03-02T13:36:31Z</time>
      </trkpt>
      <trkpt lat="49.93553" lon="2.18383">
        <ele>15.2</ele>
        <time>2022-03-02T13:36:32Z</time>
      </trkpt>
      <trkpt lat="49.93553" lon="2.18384">
        <ele>15.2</ele>
        <time>2022-03-02T13:36:33Z</time>
      </trkpt>
      <trkpt lat="49.93552" lon="2.18385">
        <ele>15.2</ele>
        <time>2022-03-02T13:36:34Z</time>
      </trkpt>
      <trkpt lat="49.93551" lon="2.18387">
        <ele>15.2</ele>
        <time>2022-03-02T13:36:35Z</time>
      </trkpt>
      <trkpt lat="49.9355" lon="2.18388">
        <ele>15.2</ele>
        <time>2022-03-02T13:36:36Z</time>
      </trkpt>
      <trkpt lat="49.9355" lon="2.1839">
        <ele>15.2</ele>
        <time>2022-03-02T13:36:37Z</time>
      </trkpt>
      <trkpt lat="49.93549" lon="2.1839">
        <ele>15.2</ele>
        <time>2022-03-02T13:36:38Z</time>
      </trkpt>
      <trkpt lat="49.9355" lon="2.1839">
        <ele>15.2</ele>
        <time>2022-03-02T13:36:39Z</time>
      </trkpt>
      <trkpt lat="49.9355" lon="2.1839">
        <ele>15.2</ele>
        <time>2022-03-02T13:36:40Z</time>
      </trkpt>
      <trkpt lat="49.93549" lon="2.18391">
        <ele>15.2</ele>
        <time>2022-03-02T13:36:41Z</time>
      </trkpt>
      <trkpt lat="49.93548" lon="2.18393">
        <ele>15.2</ele>
        <time>2022-03-02T13:36:42Z</time>
      </trkpt>
      <trkpt lat="49.93547" lon="2.18394">
        <ele>15.2</ele>
        <time>2022-03-02T13:36:43Z</time>
      </trkpt>
      <trkpt lat="49.93546" lon="2.18396">
        <ele>15.2</ele>
        <time>2022-03-02T13:36:45Z</time>
      </trkpt>
      <trkpt lat="49.93545" lon="2.18397">
        <ele>15.2</ele>
        <time>2022-03-02T13:36:46Z</time>
      </trkpt>
      <trkpt lat="49.93544" lon="2.18399">
        <ele>15.2</ele>
        <time>2022-03-02T13:36:47Z</time>
      </trkpt>
      <trkpt lat="49.93543" lon="2.18401">
        <ele>15.2</ele>
        <time>2022-03-02T13:36:48Z</time>
      </trkpt>
      <trkpt lat="49.93541" lon="2.18403">
        <ele>15.2</ele>
        <time>2022-03-02T13:36:50Z</time>
      </trkpt>
      <trkpt lat="49.9354" lon="2.18405">
        <ele>15.2</ele>
        <time>2022-03-02T13:36:51Z</time>
      </trkpt>
      <trkpt lat="49.93539" lon="2.18407">
        <ele>15.2</ele>
        <time>2022-03-02T13:36:52Z</time>
      </trkpt>
      <trkpt lat="49.93538" lon="2.18409">
        <ele>15.2</ele>
        <time>2022-03-02T13:36:53Z</time>
      </trkpt>
      <trkpt lat="49.93537" lon="2.1841">
        <ele>15.2</ele>
        <time>2022-03-02T13:36:54Z</time>
      </trkpt>
      <trkpt lat="49.93537" lon="2.18411">
        <ele>15.2</ele>
        <time>2022-03-02T13:36:55Z</time>
      </trkpt>
      <trkpt lat="49.93536" lon="2.18413">
        <ele>15.2</ele>
        <time>2022-03-02T13:36:56Z</time>
      </trkpt>
      <trkpt lat="49.93536" lon="2.18414">
        <ele>15.2</ele>
        <time>2022-03-02T13:36:57Z</time>
      </trkpt>
      <trkpt lat="49.93535" lon="2.18415">
        <ele>15.2</ele>
        <time>2022-03-02T13:36:58Z</time>
      </trkpt>
      <trkpt lat="49.93534" lon="2.18417">
        <ele>15.2</ele>
        <time>2022-03-02T13:36:59Z</time>
      </trkpt>
      <trkpt lat="49.93533" lon="2.18419">
        <ele>15.2</ele>
        <time>2022-03-02T13:37:00Z</time>
      </trkpt>
      <trkpt lat="49.93533" lon="2.18421">
        <ele>15.2</ele>
        <time>2022-03-02T13:37:01Z</time>
      </trkpt>
      <trkpt lat="49.93531" lon="2.18422">
        <ele>15.2</ele>
        <time>2022-03-02T13:37:02Z</time>
      </trkpt>
      <trkpt lat="49.93531" lon="2.18424">
        <ele>15.2</ele>
        <time>2022-03-02T13:37:03Z</time>
      </trkpt>
      <trkpt lat="49.9353" lon="2.18425">
        <ele>15.2</ele>
        <time>2022-03-02T13:37:04Z</time>
      </trkpt>
      <trkpt lat="49.93529" lon="2.18427">
        <ele>15.2</ele>
        <time>2022-03-02T13:37:06Z</time>
      </trkpt>
      <trkpt lat="49.93529" lon="2.18428">
        <ele>15.2</ele>
        <time>2022-03-02T13:37:07Z</time>
      </trkpt>
      <trkpt lat="49.93529" lon="2.18429">
        <ele>15.2</ele>
        <time>2022-03-02T13:37:08Z</time>
      </trkpt>
      <trkpt lat="49.93528" lon="2.1843">
        <ele>15.2</ele>
        <time>2022-03-02T13:37:09Z</time>
      </trkpt>
      <trkpt lat="49.93528" lon="2.18431">
        <ele>15.2</ele>
        <time>2022-03-02T13:37:10Z</time>
      </trkpt>
      <trkpt lat="49.93527" lon="2.18434">
        <ele>15.2</ele>
        <time>2022-03-02T13:37:11Z</time>
      </trkpt>
      <trkpt lat="49.93526" lon="2.18435">
        <ele>15.2</ele>
        <time>2022-03-02T13:37:12Z</time>
      </trkpt>
      <trkpt lat="49.93525" lon="2.18436">
        <ele>15.2</ele>
        <time>2022-03-02T13:37:13Z</time>
      </trkpt>
      <trkpt lat="49.93525" lon="2.18437">
        <ele>15.2</ele>
        <time>2022-03-02T13:37:14Z</time>
      </trkpt>
      <trkpt lat="49.93524" lon="2.18439">
        <ele>15.2</ele>
        <time>2022-03-02T13:37:15Z</time>
      </trkpt>
      <trkpt lat="49.93523" lon="2.1844">
        <ele>15.2</ele>
        <time>2022-03-02T13:37:16Z</time>
      </trkpt>
      <trkpt lat="49.93523" lon="2.18441">
        <ele>15.2</ele>
        <time>2022-03-02T13:37:17Z</time>
      </trkpt>
      <trkpt lat="49.93522" lon="2.18442">
        <ele>15.2</ele>
        <time>2022-03-02T13:37:18Z</time>
      </trkpt>
      <trkpt lat="49.93522" lon="2.18444">
        <ele>15.2</ele>
        <time>2022-03-02T13:37:19Z</time>
      </trkpt>
      <trkpt lat="49.93521" lon="2.18445">
        <ele>15.2</ele>
        <time>2022-03-02T13:37:20Z</time>
      </trkpt>
      <trkpt lat="49.93521" lon="2.18446">
        <ele>15.2</ele>
        <time>2022-03-02T13:37:21Z</time>
      </trkpt>
      <trkpt lat="49.9352" lon="2.18447">
        <ele>15.2</ele>
        <time>2022-03-02T13:37:23Z</time>
      </trkpt>
      <trkpt lat="49.93519" lon="2.18449">
        <ele>15.2</ele>
        <time>2022-03-02T13:37:24Z</time>
      </trkpt>
      <trkpt lat="49.93519" lon="2.1845">
        <ele>15.2</ele>
        <time>2022-03-02T13:37:25Z</time>
      </trkpt>
      <trkpt lat="49.93519" lon="2.18451">
        <ele>15.2</ele>
        <time>2022-03-02T13:37:26Z</time>
      </trkpt>
      <trkpt lat="49.93519" lon="2.18452">
        <ele>15.2</ele>
        <time>2022-03-02T13:37:27Z</time>
      </trkpt>
      <trkpt lat="49.93518" lon="2.18454">
        <ele>15.2</ele>
        <time>2022-03-02T13:37:28Z</time>
      </trkpt>
      <trkpt lat="49.93518" lon="2.18455">
        <ele>15.2</ele>
        <time>2022-03-02T13:37:29Z</time>
      </trkpt>
      <trkpt lat="49.93516" lon="2.18459">
        <ele>15.2</ele>
        <time>2022-03-02T13:37:31Z</time>
      </trkpt>
      <trkpt lat="49.93515" lon="2.1846">
        <ele>15.2</ele>
        <time>2022-03-02T13:37:32Z</time>
      </trkpt>
      <trkpt lat="49.93515" lon="2.18462">
        <ele>15.2</ele>
        <time>2022-03-02T13:37:33Z</time>
      </trkpt>
      <trkpt lat="49.93513" lon="2.18463">
        <ele>15.2</ele>
        <time>2022-03-02T13:37:34Z</time>
      </trkpt>
      <trkpt lat="49.93512" lon="2.18465">
        <ele>15.2</ele>
        <time>2022-03-02T13:37:35Z</time>
      </trkpt>
      <trkpt lat="49.93511" lon="2.18466">
        <ele>15.2</ele>
        <time>2022-03-02T13:37:36Z</time>
      </trkpt>
      <trkpt lat="49.9351" lon="2.18468">
        <ele>15.2</ele>
        <time>2022-03-02T13:37:37Z</time>
      </trkpt>
      <trkpt lat="49.93509" lon="2.1847">
        <ele>15.2</ele>
        <time>2022-03-02T13:37:38Z</time>
      </trkpt>
      <trkpt lat="49.93508" lon="2.18472">
        <ele>15.2</ele>
        <time>2022-03-02T13:37:39Z</time>
      </trkpt>
      <trkpt lat="49.93507" lon="2.18474">
        <ele>15.2</ele>
        <time>2022-03-02T13:37:40Z</time>
      </trkpt>
      <trkpt lat="49.93505" lon="2.18476">
        <ele>15.2</ele>
        <time>2022-03-02T13:37:42Z</time>
      </trkpt>
      <trkpt lat="49.93504" lon="2.18478">
        <ele>15.2</ele>
        <time>2022-03-02T13:37:43Z</time>
      </trkpt>
      <trkpt lat="49.93503" lon="2.1848">
        <ele>15.2</ele>
        <time>2022-03-02T13:37:44Z</time>
      </trkpt>
      <trkpt lat="49.93502" lon="2.18481">
        <ele>15.2</ele>
        <time>2022-03-02T13:37:45Z</time>
      </trkpt>
      <trkpt lat="49.93501" lon="2.18483">
        <ele>15.1</ele>
        <time>2022-03-02T13:37:46Z</time>
      </trkpt>
      <trkpt lat="49.93499" lon="2.18484">
        <ele>15.1</ele>
        <time>2022-03-02T13:37:47Z</time>
      </trkpt>
      <trkpt lat="49.93498" lon="2.18486">
        <ele>15.1</ele>
        <time>2022-03-02T13:37:48Z</time>
      </trkpt>
      <trkpt lat="49.93497" lon="2.18488">
        <ele>15.1</ele>
        <time>2022-03-02T13:37:49Z</time>
      </trkpt>
      <trkpt lat="49.93496" lon="2.18489">
        <ele>15.1</ele>
        <time>2022-03-02T13:37:50Z</time>
      </trkpt>
      <trkpt lat="49.93495" lon="2.18492">
        <ele>15.1</ele>
        <time>2022-03-02T13:37:51Z</time>
      </trkpt>
      <trkpt lat="49.93494" lon="2.18493">
        <ele>15.1</ele>
        <time>2022-03-02T13:37:52Z</time>
      </trkpt>
      <trkpt lat="49.93494" lon="2.18494">
        <ele>15.1</ele>
        <time>2022-03-02T13:37:53Z</time>
      </trkpt>
      <trkpt lat="49.93493" lon="2.18495">
        <ele>15.1</ele>
        <time>2022-03-02T13:37:54Z</time>
      </trkpt>
      <trkpt lat="49.93492" lon="2.18497">
        <ele>15.1</ele>
        <time>2022-03-02T13:37:55Z</time>
      </trkpt>
      <trkpt lat="49.93491" lon="2.18499">
        <ele>15.2</ele>
        <time>2022-03-02T13:37:57Z</time>
      </trkpt>
      <trkpt lat="49.9349" lon="2.185">
        <ele>15.2</ele>
        <time>2022-03-02T13:37:58Z</time>
      </trkpt>
      <trkpt lat="49.93489" lon="2.18502">
        <ele>15.2</ele>
        <time>2022-03-02T13:37:59Z</time>
      </trkpt>
      <trkpt lat="49.93488" lon="2.18503">
        <ele>15.2</ele>
        <time>2022-03-02T13:38:00Z</time>
      </trkpt>
      <trkpt lat="49.93487" lon="2.18505">
        <ele>15.2</ele>
        <time>2022-03-02T13:38:01Z</time>
      </trkpt>
      <trkpt lat="49.93486" lon="2.18507">
        <ele>15.2</ele>
        <time>2022-03-02T13:38:03Z</time>
      </trkpt>
      <trkpt lat="49.93485" lon="2.18509">
        <ele>15.2</ele>
        <time>2022-03-02T13:38:04Z</time>
      </trkpt>
      <trkpt lat="49.93484" lon="2.1851">
        <ele>15.2</ele>
        <time>2022-03-02T13:38:05Z</time>
      </trkpt>
      <trkpt lat="49.93484" lon="2.18511">
        <ele>15.2</ele>
        <time>2022-03-02T13:38:06Z</time>
      </trkpt>
      <trkpt lat="49.93482" lon="2.18514">
        <ele>15.2</ele>
        <time>2022-03-02T13:38:07Z</time>
      </trkpt>
      <trkpt lat="49.93482" lon="2.18515">
        <ele>15.2</ele>
        <time>2022-03-02T13:38:08Z</time>
      </trkpt>
      <trkpt lat="49.93481" lon="2.18516">
        <ele>15.2</ele>
        <time>2022-03-02T13:38:09Z</time>
      </trkpt>
      <trkpt lat="49.9348" lon="2.18517">
        <ele>15.2</ele>
        <time>2022-03-02T13:38:11Z</time>
      </trkpt>
      <trkpt lat="49.9348" lon="2.18518">
        <ele>15.2</ele>
        <time>2022-03-02T13:38:12Z</time>
      </trkpt>
      <trkpt lat="49.93479" lon="2.1852">
        <ele>15.2</ele>
        <time>2022-03-02T13:38:13Z</time>
      </trkpt>
      <trkpt lat="49.93478" lon="2.18522">
        <ele>15.2</ele>
        <time>2022-03-02T13:38:14Z</time>
      </trkpt>
      <trkpt lat="49.93478" lon="2.18523">
        <ele>15.2</ele>
        <time>2022-03-02T13:38:15Z</time>
      </trkpt>
      <trkpt lat="49.93477" lon="2.18524">
        <ele>15.2</ele>
        <time>2022-03-02T13:38:16Z</time>
      </trkpt>
      <trkpt lat="49.93477" lon="2.18525">
        <ele>15.2</ele>
        <time>2022-03-02T13:38:17Z</time>
      </trkpt>
      <trkpt lat="49.93476" lon="2.18527">
        <ele>15.2</ele>
        <time>2022-03-02T13:38:18Z</time>
      </trkpt>
      <trkpt lat="49.93475" lon="2.18528">
        <ele>15.2</ele>
        <time>2022-03-02T13:38:20Z</time>
      </trkpt>
      <trkpt lat="49.93475" lon="2.18529">
        <ele>15.2</ele>
        <time>2022-03-02T13:38:21Z</time>
      </trkpt>
      <trkpt lat="49.93475" lon="2.18531">
        <ele>15.2</ele>
        <time>2022-03-02T13:38:22Z</time>
      </trkpt>
      <trkpt lat="49.93474" lon="2.18532">
        <ele>15.2</ele>
        <time>2022-03-02T13:38:23Z</time>
      </trkpt>
      <trkpt lat="49.93474" lon="2.18533">
        <ele>15.2</ele>
        <time>2022-03-02T13:38:24Z</time>
      </trkpt>
      <trkpt lat="49.93474" lon="2.18534">
        <ele>15.2</ele>
        <time>2022-03-02T13:38:25Z</time>
      </trkpt>
      <trkpt lat="49.93473" lon="2.18536">
        <ele>15.2</ele>
        <time>2022-03-02T13:38:26Z</time>
      </trkpt>
      <trkpt lat="49.93472" lon="2.18537">
        <ele>15.2</ele>
        <time>2022-03-02T13:38:27Z</time>
      </trkpt>
      <trkpt lat="49.93471" lon="2.1854">
        <ele>15.2</ele>
        <time>2022-03-02T13:38:29Z</time>
      </trkpt>
      <trkpt lat="49.9347" lon="2.18541">
        <ele>15.2</ele>
        <time>2022-03-02T13:38:30Z</time>
      </trkpt>
      <trkpt lat="49.93469" lon="2.18543">
        <ele>15.2</ele>
        <time>2022-03-02T13:38:31Z</time>
      </trkpt>
      <trkpt lat="49.93467" lon="2.18545">
        <ele>15.2</ele>
        <time>2022-03-02T13:38:32Z</time>
      </trkpt>
      <trkpt lat="49.93466" lon="2.18546">
        <ele>15.2</ele>
        <time>2022-03-02T13:38:33Z</time>
      </trkpt>
      <trkpt lat="49.93465" lon="2.18548">
        <ele>15.2</ele>
        <time>2022-03-02T13:38:34Z</time>
      </trkpt>
      <trkpt lat="49.93463" lon="2.18551">
        <ele>15.2</ele>
        <time>2022-03-02T13:38:36Z</time>
      </trkpt>
      <trkpt lat="49.93463" lon="2.18552">
        <ele>15.2</ele>
        <time>2022-03-02T13:38:37Z</time>
      </trkpt>
      <trkpt lat="49.93462" lon="2.18554">
        <ele>15.2</ele>
        <time>2022-03-02T13:38:38Z</time>
      </trkpt>
      <trkpt lat="49.93461" lon="2.18555">
        <ele>15.2</ele>
        <time>2022-03-02T13:38:39Z</time>
      </trkpt>
      <trkpt lat="49.93459" lon="2.18557">
        <ele>15.2</ele>
        <time>2022-03-02T13:38:40Z</time>
      </trkpt>
      <trkpt lat="49.93458" lon="2.18559">
        <ele>15.2</ele>
        <time>2022-03-02T13:38:41Z</time>
      </trkpt>
      <trkpt lat="49.93457" lon="2.18561">
        <ele>15.2</ele>
        <time>2022-03-02T13:38:42Z</time>
      </trkpt>
      <trkpt lat="49.93456" lon="2.18562">
        <ele>15.2</ele>
        <time>2022-03-02T13:38:43Z</time>
      </trkpt>
      <trkpt lat="49.93455" lon="2.18563">
        <ele>15.2</ele>
        <time>2022-03-02T13:38:44Z</time>
      </trkpt>
      <trkpt lat="49.93454" lon="2.18565">
        <ele>15.2</ele>
        <time>2022-03-02T13:38:45Z</time>
      </trkpt>
      <trkpt lat="49.93453" lon="2.18567">
        <ele>15.2</ele>
        <time>2022-03-02T13:38:46Z</time>
      </trkpt>
      <trkpt lat="49.93451" lon="2.1857">
        <ele>15.2</ele>
        <time>2022-03-02T13:38:48Z</time>
      </trkpt>
      <trkpt lat="49.93451" lon="2.18571">
        <ele>15.2</ele>
        <time>2022-03-02T13:38:49Z</time>
      </trkpt>
      <trkpt lat="49.93449" lon="2.18574">
        <ele>15.2</ele>
        <time>2022-03-02T13:38:50Z</time>
      </trkpt>
      <trkpt lat="49.93448" lon="2.18576">
        <ele>15.2</ele>
        <time>2022-03-02T13:38:51Z</time>
      </trkpt>
      <trkpt lat="49.93445" lon="2.18579">
        <ele>15.2</ele>
        <time>2022-03-02T13:38:52Z</time>
      </trkpt>
      <trkpt lat="49.93445" lon="2.1858">
        <ele>15.2</ele>
        <time>2022-03-02T13:38:53Z</time>
      </trkpt>
      <trkpt lat="49.93443" lon="2.18581">
        <ele>15.2</ele>
        <time>2022-03-02T13:38:54Z</time>
      </trkpt>
      <trkpt lat="49.93442" lon="2.18583">
        <ele>15.2</ele>
        <time>2022-03-02T13:38:55Z</time>
      </trkpt>
      <trkpt lat="49.9344" lon="2.18586">
        <ele>15.2</ele>
        <time>2022-03-02T13:38:57Z</time>
      </trkpt>
      <trkpt lat="49.93439" lon="2.18587">
        <ele>15.2</ele>
        <time>2022-03-02T13:38:58Z</time>
      </trkpt>
      <trkpt lat="49.93438" lon="2.18589">
        <ele>15.2</ele>
        <time>2022-03-02T13:38:59Z</time>
      </trkpt>
      <trkpt lat="49.93437" lon="2.1859">
        <ele>15.2</ele>
        <time>2022-03-02T13:39:00Z</time>
      </trkpt>
      <trkpt lat="49.93436" lon="2.18592">
        <ele>15.2</ele>
        <time>2022-03-02T13:39:01Z</time>
      </trkpt>
      <trkpt lat="49.93435" lon="2.18593">
        <ele>15.2</ele>
        <time>2022-03-02T13:39:02Z</time>
      </trkpt>
      <trkpt lat="49.93434" lon="2.18595">
        <ele>15.2</ele>
        <time>2022-03-02T13:39:03Z</time>
      </trkpt>
      <trkpt lat="49.93433" lon="2.18596">
        <ele>15.2</ele>
        <time>2022-03-02T13:39:04Z</time>
      </trkpt>
      <trkpt lat="49.93433" lon="2.18598">
        <ele>15.2</ele>
        <time>2022-03-02T13:39:05Z</time>
      </trkpt>
      <trkpt lat="49.93432" lon="2.18599">
        <ele>15.2</ele>
        <time>2022-03-02T13:39:06Z</time>
      </trkpt>
      <trkpt lat="49.93431" lon="2.18601">
        <ele>15.2</ele>
        <time>2022-03-02T13:39:07Z</time>
      </trkpt>
      <trkpt lat="49.9343" lon="2.18602">
        <ele>15.2</ele>
        <time>2022-03-02T13:39:08Z</time>
      </trkpt>
      <trkpt lat="49.9343" lon="2.18604">
        <ele>15.2</ele>
        <time>2022-03-02T13:39:09Z</time>
      </trkpt>
      <trkpt lat="49.93429" lon="2.18606">
        <ele>15.2</ele>
        <time>2022-03-02T13:39:11Z</time>
      </trkpt>
      <trkpt lat="49.93429" lon="2.18607">
        <ele>15.2</ele>
        <time>2022-03-02T13:39:12Z</time>
      </trkpt>
      <trkpt lat="49.93429" lon="2.18609">
        <ele>15.3</ele>
        <time>2022-03-02T13:39:13Z</time>
      </trkpt>
      <trkpt lat="49.9343" lon="2.18609">
        <ele>15.3</ele>
        <time>2022-03-02T13:39:14Z</time>
      </trkpt>
      <trkpt lat="49.93431" lon="2.1861">
        <ele>15.3</ele>
        <time>2022-03-02T13:39:15Z</time>
      </trkpt>
      <trkpt lat="49.9343" lon="2.18611">
        <ele>15.3</ele>
        <time>2022-03-02T13:39:16Z</time>
      </trkpt>
      <trkpt lat="49.9343" lon="2.18613">
        <ele>15.3</ele>
        <time>2022-03-02T13:39:18Z</time>
      </trkpt>
      <trkpt lat="49.93429" lon="2.18614">
        <ele>15.3</ele>
        <time>2022-03-02T13:39:19Z</time>
      </trkpt>
      <trkpt lat="49.93429" lon="2.18616">
        <ele>15.3</ele>
        <time>2022-03-02T13:39:20Z</time>
      </trkpt>
      <trkpt lat="49.93428" lon="2.18617">
        <ele>15.3</ele>
        <time>2022-03-02T13:39:21Z</time>
      </trkpt>
      <trkpt lat="49.93428" lon="2.18619">
        <ele>15.3</ele>
        <time>2022-03-02T13:39:22Z</time>
      </trkpt>
      <trkpt lat="49.93428" lon="2.1862">
        <ele>15.3</ele>
        <time>2022-03-02T13:39:23Z</time>
      </trkpt>
      <trkpt lat="49.93427" lon="2.18622">
        <ele>15.3</ele>
        <time>2022-03-02T13:39:24Z</time>
      </trkpt>
      <trkpt lat="49.93427" lon="2.18623">
        <ele>15.3</ele>
        <time>2022-03-02T13:39:25Z</time>
      </trkpt>
      <trkpt lat="49.93426" lon="2.18625">
        <ele>15.3</ele>
        <time>2022-03-02T13:39:26Z</time>
      </trkpt>
      <trkpt lat="49.93425" lon="2.18626">
        <ele>15.3</ele>
        <time>2022-03-02T13:39:27Z</time>
      </trkpt>
      <trkpt lat="49.93425" lon="2.18627">
        <ele>15.3</ele>
        <time>2022-03-02T13:39:28Z</time>
      </trkpt>
      <trkpt lat="49.93424" lon="2.18628">
        <ele>15.3</ele>
        <time>2022-03-02T13:39:29Z</time>
      </trkpt>
      <trkpt lat="49.93423" lon="2.1863">
        <ele>15.3</ele>
        <time>2022-03-02T13:39:31Z</time>
      </trkpt>
      <trkpt lat="49.93423" lon="2.18632">
        <ele>15.3</ele>
        <time>2022-03-02T13:39:32Z</time>
      </trkpt>
      <trkpt lat="49.93422" lon="2.18634">
        <ele>15.3</ele>
        <time>2022-03-02T13:39:33Z</time>
      </trkpt>
      <trkpt lat="49.93421" lon="2.18635">
        <ele>15.3</ele>
        <time>2022-03-02T13:39:34Z</time>
      </trkpt>
      <trkpt lat="49.93421" lon="2.18637">
        <ele>15.3</ele>
        <time>2022-03-02T13:39:35Z</time>
      </trkpt>
      <trkpt lat="49.93421" lon="2.18638">
        <ele>15.3</ele>
        <time>2022-03-02T13:39:36Z</time>
      </trkpt>
      <trkpt lat="49.9342" lon="2.18639">
        <ele>15.3</ele>
        <time>2022-03-02T13:39:37Z</time>
      </trkpt>
      <trkpt lat="49.9342" lon="2.18641">
        <ele>15.3</ele>
        <time>2022-03-02T13:39:38Z</time>
      </trkpt>
      <trkpt lat="49.93419" lon="2.18644">
        <ele>15.3</ele>
        <time>2022-03-02T13:39:39Z</time>
      </trkpt>
      <trkpt lat="49.93419" lon="2.18645">
        <ele>15.3</ele>
        <time>2022-03-02T13:39:40Z</time>
      </trkpt>
      <trkpt lat="49.93418" lon="2.18647">
        <ele>15.3</ele>
        <time>2022-03-02T13:39:41Z</time>
      </trkpt>
      <trkpt lat="49.93417" lon="2.18651">
        <ele>15.3</ele>
        <time>2022-03-02T13:39:43Z</time>
      </trkpt>
      <trkpt lat="49.93416" lon="2.18652">
        <ele>15.3</ele>
        <time>2022-03-02T13:39:44Z</time>
      </trkpt>
      <trkpt lat="49.93415" lon="2.18654">
        <ele>15.3</ele>
        <time>2022-03-02T13:39:45Z</time>
      </trkpt>
      <trkpt lat="49.93414" lon="2.18656">
        <ele>15.3</ele>
        <time>2022-03-02T13:39:46Z</time>
      </trkpt>
      <trkpt lat="49.93414" lon="2.18659">
        <ele>15.3</ele>
        <time>2022-03-02T13:39:47Z</time>
      </trkpt>
      <trkpt lat="49.93413" lon="2.1866">
        <ele>15.3</ele>
        <time>2022-03-02T13:39:48Z</time>
      </trkpt>
      <trkpt lat="49.93413" lon="2.18662">
        <ele>15.3</ele>
        <time>2022-03-02T13:39:49Z</time>
      </trkpt>
      <trkpt lat="49.93412" lon="2.18663">
        <ele>15.3</ele>
        <time>2022-03-02T13:39:50Z</time>
      </trkpt>
      <trkpt lat="49.93412" lon="2.18665">
        <ele>15.3</ele>
        <time>2022-03-02T13:39:51Z</time>
      </trkpt>
      <trkpt lat="49.93411" lon="2.18666">
        <ele>15.3</ele>
        <time>2022-03-02T13:39:52Z</time>
      </trkpt>
      <trkpt lat="49.93411" lon="2.18668">
        <ele>15.3</ele>
        <time>2022-03-02T13:39:53Z</time>
      </trkpt>
      <trkpt lat="49.93411" lon="2.18669">
        <ele>15.3</ele>
        <time>2022-03-02T13:39:54Z</time>
      </trkpt>
      <trkpt lat="49.9341" lon="2.1867">
        <ele>15.3</ele>
        <time>2022-03-02T13:39:55Z</time>
      </trkpt>
      <trkpt lat="49.9341" lon="2.18672">
        <ele>15.3</ele>
        <time>2022-03-02T13:39:56Z</time>
      </trkpt>
      <trkpt lat="49.93409" lon="2.18676">
        <ele>15.3</ele>
        <time>2022-03-02T13:39:58Z</time>
      </trkpt>
      <trkpt lat="49.93408" lon="2.18677">
        <ele>15.3</ele>
        <time>2022-03-02T13:39:59Z</time>
      </trkpt>
      <trkpt lat="49.93407" lon="2.18681">
        <ele>15.2</ele>
        <time>2022-03-02T13:40:00Z</time>
      </trkpt>
      <trkpt lat="49.93407" lon="2.18682">
        <ele>15.2</ele>
        <time>2022-03-02T13:40:01Z</time>
      </trkpt>
      <trkpt lat="49.93406" lon="2.18686">
        <ele>15.2</ele>
        <time>2022-03-02T13:40:02Z</time>
      </trkpt>
      <trkpt lat="49.93405" lon="2.18688">
        <ele>15.2</ele>
        <time>2022-03-02T13:40:03Z</time>
      </trkpt>
      <trkpt lat="49.93405" lon="2.18692">
        <ele>15.2</ele>
        <time>2022-03-02T13:40:04Z</time>
      </trkpt>
      <trkpt lat="49.93404" lon="2.18693">
        <ele>15.2</ele>
        <time>2022-03-02T13:40:05Z</time>
      </trkpt>
      <trkpt lat="49.93404" lon="2.18695">
        <ele>15.2</ele>
        <time>2022-03-02T13:40:06Z</time>
      </trkpt>
      <trkpt lat="49.93403" lon="2.18698">
        <ele>15.2</ele>
        <time>2022-03-02T13:40:07Z</time>
      </trkpt>
      <trkpt lat="49.93403" lon="2.187">
        <ele>15.2</ele>
        <time>2022-03-02T13:40:08Z</time>
      </trkpt>
      <trkpt lat="49.93403" lon="2.18702">
        <ele>15.2</ele>
        <time>2022-03-02T13:40:09Z</time>
      </trkpt>
      <trkpt lat="49.93402" lon="2.18704">
        <ele>15.2</ele>
        <time>2022-03-02T13:40:10Z</time>
      </trkpt>
      <trkpt lat="49.93401" lon="2.18706">
        <ele>15.2</ele>
        <time>2022-03-02T13:40:11Z</time>
      </trkpt>
      <trkpt lat="49.93401" lon="2.18709">
        <ele>15.2</ele>
        <time>2022-03-02T13:40:12Z</time>
      </trkpt>
      <trkpt lat="49.934" lon="2.1871">
        <ele>15.2</ele>
        <time>2022-03-02T13:40:13Z</time>
      </trkpt>
      <trkpt lat="49.934" lon="2.18712">
        <ele>15.2</ele>
        <time>2022-03-02T13:40:14Z</time>
      </trkpt>
      <trkpt lat="49.934" lon="2.18714">
        <ele>15.2</ele>
        <time>2022-03-02T13:40:15Z</time>
      </trkpt>
      <trkpt lat="49.93399" lon="2.18716">
        <ele>15.2</ele>
        <time>2022-03-02T13:40:16Z</time>
      </trkpt>
      <trkpt lat="49.93399" lon="2.18718">
        <ele>15.2</ele>
        <time>2022-03-02T13:40:18Z</time>
      </trkpt>
      <trkpt lat="49.93399" lon="2.18719">
        <ele>15.2</ele>
        <time>2022-03-02T13:40:19Z</time>
      </trkpt>
      <trkpt lat="49.93398" lon="2.1872">
        <ele>15.2</ele>
        <time>2022-03-02T13:40:20Z</time>
      </trkpt>
      <trkpt lat="49.93398" lon="2.18722">
        <ele>15.2</ele>
        <time>2022-03-02T13:40:21Z</time>
      </trkpt>
      <trkpt lat="49.93397" lon="2.18726">
        <ele>15.2</ele>
        <time>2022-03-02T13:40:22Z</time>
      </trkpt>
      <trkpt lat="49.93397" lon="2.18727">
        <ele>15.2</ele>
        <time>2022-03-02T13:40:23Z</time>
      </trkpt>
      <trkpt lat="49.93396" lon="2.18729">
        <ele>15.2</ele>
        <time>2022-03-02T13:40:24Z</time>
      </trkpt>
      <trkpt lat="49.93396" lon="2.18731">
        <ele>15.2</ele>
        <time>2022-03-02T13:40:25Z</time>
      </trkpt>
      <trkpt lat="49.93395" lon="2.18735">
        <ele>15.2</ele>
        <time>2022-03-02T13:40:27Z</time>
      </trkpt>
      <trkpt lat="49.93394" lon="2.18737">
        <ele>15.2</ele>
        <time>2022-03-02T13:40:28Z</time>
      </trkpt>
      <trkpt lat="49.93393" lon="2.1874">
        <ele>15.2</ele>
        <time>2022-03-02T13:40:29Z</time>
      </trkpt>
      <trkpt lat="49.93392" lon="2.18743">
        <ele>15.2</ele>
        <time>2022-03-02T13:40:30Z</time>
      </trkpt>
      <trkpt lat="49.93391" lon="2.18745">
        <ele>15.2</ele>
        <time>2022-03-02T13:40:31Z</time>
      </trkpt>
      <trkpt lat="49.93389" lon="2.18749">
        <ele>15.2</ele>
        <time>2022-03-02T13:40:32Z</time>
      </trkpt>
      <trkpt lat="49.93388" lon="2.1875">
        <ele>15.2</ele>
        <time>2022-03-02T13:40:33Z</time>
      </trkpt>
      <trkpt lat="49.93386" lon="2.18754">
        <ele>15.2</ele>
        <time>2022-03-02T13:40:34Z</time>
      </trkpt>
      <trkpt lat="49.93386" lon="2.18755">
        <ele>15.2</ele>
        <time>2022-03-02T13:40:35Z</time>
      </trkpt>
      <trkpt lat="49.93383" lon="2.18759">
        <ele>15.2</ele>
        <time>2022-03-02T13:40:37Z</time>
      </trkpt>
      <trkpt lat="49.93383" lon="2.18761">
        <ele>15.2</ele>
        <time>2022-03-02T13:40:38Z</time>
      </trkpt>
      <trkpt lat="49.93382" lon="2.18763">
        <ele>15.2</ele>
        <time>2022-03-02T13:40:39Z</time>
      </trkpt>
      <trkpt lat="49.93381" lon="2.18765">
        <ele>15.2</ele>
        <time>2022-03-02T13:40:40Z</time>
      </trkpt>
      <trkpt lat="49.9338" lon="2.18767">
        <ele>15.2</ele>
        <time>2022-03-02T13:40:41Z</time>
      </trkpt>
      <trkpt lat="49.93379" lon="2.18769">
        <ele>15.2</ele>
        <time>2022-03-02T13:40:42Z</time>
      </trkpt>
      <trkpt lat="49.93378" lon="2.18771">
        <ele>15.2</ele>
        <time>2022-03-02T13:40:44Z</time>
      </trkpt>
      <trkpt lat="49.93377" lon="2.18773">
        <ele>15.2</ele>
        <time>2022-03-02T13:40:45Z</time>
      </trkpt>
      <trkpt lat="49.93376" lon="2.18774">
        <ele>15.2</ele>
        <time>2022-03-02T13:40:46Z</time>
      </trkpt>
      <trkpt lat="49.93374" lon="2.18776">
        <ele>15.2</ele>
        <time>2022-03-02T13:40:47Z</time>
      </trkpt>
      <trkpt lat="49.93373" lon="2.18777">
        <ele>15.2</ele>
        <time>2022-03-02T13:40:48Z</time>
      </trkpt>
      <trkpt lat="49.93371" lon="2.18778">
        <ele>15.3</ele>
        <time>2022-03-02T13:40:49Z</time>
      </trkpt>
      <trkpt lat="49.9337" lon="2.1878">
        <ele>15.3</ele>
        <time>2022-03-02T13:40:51Z</time>
      </trkpt>
      <trkpt lat="49.93369" lon="2.18781">
        <ele>15.3</ele>
        <time>2022-03-02T13:40:52Z</time>
      </trkpt>
      <trkpt lat="49.93368" lon="2.18782">
        <ele>15.3</ele>
        <time>2022-03-02T13:40:53Z</time>
      </trkpt>
      <trkpt lat="49.93368" lon="2.18784">
        <ele>15.3</ele>
        <time>2022-03-02T13:40:54Z</time>
      </trkpt>
      <trkpt lat="49.93367" lon="2.18785">
        <ele>15.3</ele>
        <time>2022-03-02T13:40:55Z</time>
      </trkpt>
      <trkpt lat="49.93366" lon="2.18787">
        <ele>15.3</ele>
        <time>2022-03-02T13:40:56Z</time>
      </trkpt>
      <trkpt lat="49.93365" lon="2.18788">
        <ele>15.3</ele>
        <time>2022-03-02T13:40:57Z</time>
      </trkpt>
      <trkpt lat="49.93364" lon="2.1879">
        <ele>15.3</ele>
        <time>2022-03-02T13:40:59Z</time>
      </trkpt>
      <trkpt lat="49.93364" lon="2.18791">
        <ele>15.3</ele>
        <time>2022-03-02T13:41:00Z</time>
      </trkpt>
      <trkpt lat="49.93363" lon="2.18792">
        <ele>15.3</ele>
        <time>2022-03-02T13:41:01Z</time>
      </trkpt>
      <trkpt lat="49.93362" lon="2.18793">
        <ele>15.3</ele>
        <time>2022-03-02T13:41:02Z</time>
      </trkpt>
      <trkpt lat="49.93361" lon="2.18794">
        <ele>15.3</ele>
        <time>2022-03-02T13:41:03Z</time>
      </trkpt>
      <trkpt lat="49.9336" lon="2.18795">
        <ele>15.3</ele>
        <time>2022-03-02T13:41:04Z</time>
      </trkpt>
      <trkpt lat="49.93359" lon="2.18796">
        <ele>15.3</ele>
        <time>2022-03-02T13:41:05Z</time>
      </trkpt>
      <trkpt lat="49.93359" lon="2.18796">
        <ele>15.3</ele>
        <time>2022-03-02T13:41:06Z</time>
      </trkpt>
      <trkpt lat="49.93358" lon="2.18796">
        <ele>15.3</ele>
        <time>2022-03-02T13:41:07Z</time>
      </trkpt>
      <trkpt lat="49.93357" lon="2.18796">
        <ele>15.3</ele>
        <time>2022-03-02T13:41:08Z</time>
      </trkpt>
      <trkpt lat="49.93357" lon="2.18797">
        <ele>15.3</ele>
        <time>2022-03-02T13:41:09Z</time>
      </trkpt>
      <trkpt lat="49.93356" lon="2.18797">
        <ele>15.3</ele>
        <time>2022-03-02T13:41:11Z</time>
      </trkpt>
      <trkpt lat="49.93355" lon="2.18798">
        <ele>15.3</ele>
        <time>2022-03-02T13:41:12Z</time>
      </trkpt>
      <trkpt lat="49.93355" lon="2.18798">
        <ele>15.3</ele>
        <time>2022-03-02T13:41:13Z</time>
      </trkpt>
      <trkpt lat="49.93354" lon="2.18799">
        <ele>15.3</ele>
        <time>2022-03-02T13:41:14Z</time>
      </trkpt>
      <trkpt lat="49.93353" lon="2.18799">
        <ele>15.3</ele>
        <time>2022-03-02T13:41:15Z</time>
      </trkpt>
      <trkpt lat="49.93352" lon="2.188">
        <ele>15.3</ele>
        <time>2022-03-02T13:41:16Z</time>
      </trkpt>
      <trkpt lat="49.93351" lon="2.18801">
        <ele>15.3</ele>
        <time>2022-03-02T13:41:17Z</time>
      </trkpt>
      <trkpt lat="49.9335" lon="2.18801">
        <ele>15.3</ele>
        <time>2022-03-02T13:41:18Z</time>
      </trkpt>
      <trkpt lat="49.93349" lon="2.18802">
        <ele>15.4</ele>
        <time>2022-03-02T13:41:19Z</time>
      </trkpt>
      <trkpt lat="49.93348" lon="2.18802">
        <ele>15.4</ele>
        <time>2022-03-02T13:41:20Z</time>
      </trkpt>
      <trkpt lat="49.93347" lon="2.18803">
        <ele>15.4</ele>
        <time>2022-03-02T13:41:21Z</time>
      </trkpt>
      <trkpt lat="49.93346" lon="2.18804">
        <ele>15.4</ele>
        <time>2022-03-02T13:41:22Z</time>
      </trkpt>
      <trkpt lat="49.93344" lon="2.18805">
        <ele>15.4</ele>
        <time>2022-03-02T13:41:24Z</time>
      </trkpt>
      <trkpt lat="49.93344" lon="2.18805">
        <ele>15.4</ele>
        <time>2022-03-02T13:41:25Z</time>
      </trkpt>
      <trkpt lat="49.93343" lon="2.18806">
        <ele>15.4</ele>
        <time>2022-03-02T13:41:26Z</time>
      </trkpt>
      <trkpt lat="49.93342" lon="2.18808">
        <ele>15.4</ele>
        <time>2022-03-02T13:41:27Z</time>
      </trkpt>
      <trkpt lat="49.93341" lon="2.18808">
        <ele>15.4</ele>
        <time>2022-03-02T13:41:28Z</time>
      </trkpt>
      <trkpt lat="49.93341" lon="2.18809">
        <ele>15.4</ele>
        <time>2022-03-02T13:41:29Z</time>
      </trkpt>
      <trkpt lat="49.9334" lon="2.1881">
        <ele>15.4</ele>
        <time>2022-03-02T13:41:30Z</time>
      </trkpt>
      <trkpt lat="49.9334" lon="2.18811">
        <ele>15.4</ele>
        <time>2022-03-02T13:41:31Z</time>
      </trkpt>
      <trkpt lat="49.9334" lon="2.18813">
        <ele>15.4</ele>
        <time>2022-03-02T13:41:33Z</time>
      </trkpt>
      <trkpt lat="49.9334" lon="2.18815">
        <ele>15.4</ele>
        <time>2022-03-02T13:41:34Z</time>
      </trkpt>
      <trkpt lat="49.93342" lon="2.18817">
        <ele>15.4</ele>
        <time>2022-03-02T13:41:35Z</time>
      </trkpt>
      <trkpt lat="49.93343" lon="2.18816">
        <ele>15.4</ele>
        <time>2022-03-02T13:41:36Z</time>
      </trkpt>
      <trkpt lat="49.93342" lon="2.18816">
        <ele>15.4</ele>
        <time>2022-03-02T13:41:38Z</time>
      </trkpt>
      <trkpt lat="49.93341" lon="2.18817">
        <ele>15.4</ele>
        <time>2022-03-02T13:41:39Z</time>
      </trkpt>
      <trkpt lat="49.9334" lon="2.18818">
        <ele>15.4</ele>
        <time>2022-03-02T13:41:40Z</time>
      </trkpt>
      <trkpt lat="49.93339" lon="2.18818">
        <ele>15.4</ele>
        <time>2022-03-02T13:41:41Z</time>
      </trkpt>
      <trkpt lat="49.93338" lon="2.18819">
        <ele>15.4</ele>
        <time>2022-03-02T13:41:42Z</time>
      </trkpt>
      <trkpt lat="49.93337" lon="2.18819">
        <ele>15.4</ele>
        <time>2022-03-02T13:41:43Z</time>
      </trkpt>
      <trkpt lat="49.93335" lon="2.1882">
        <ele>15.4</ele>
        <time>2022-03-02T13:41:44Z</time>
      </trkpt>
      <trkpt lat="49.93334" lon="2.1882">
        <ele>15.4</ele>
        <time>2022-03-02T13:41:45Z</time>
      </trkpt>
      <trkpt lat="49.93333" lon="2.18821">
        <ele>15.4</ele>
        <time>2022-03-02T13:41:46Z</time>
      </trkpt>
      <trkpt lat="49.93331" lon="2.18821">
        <ele>15.4</ele>
        <time>2022-03-02T13:41:47Z</time>
      </trkpt>
      <trkpt lat="49.9333" lon="2.18821">
        <ele>15.5</ele>
        <time>2022-03-02T13:41:48Z</time>
      </trkpt>
      <trkpt lat="49.93329" lon="2.18821">
        <ele>15.5</ele>
        <time>2022-03-02T13:41:49Z</time>
      </trkpt>
      <trkpt lat="49.93328" lon="2.18821">
        <ele>15.5</ele>
        <time>2022-03-02T13:41:50Z</time>
      </trkpt>
      <trkpt lat="49.93327" lon="2.18822">
        <ele>15.5</ele>
        <time>2022-03-02T13:41:51Z</time>
      </trkpt>
      <trkpt lat="49.93327" lon="2.18823">
        <ele>15.5</ele>
        <time>2022-03-02T13:41:52Z</time>
      </trkpt>
      <trkpt lat="49.93327" lon="2.18823">
        <ele>15.5</ele>
        <time>2022-03-02T13:41:53Z</time>
      </trkpt>
      <trkpt lat="49.93324" lon="2.18825">
        <ele>15.5</ele>
        <time>2022-03-02T13:41:54Z</time>
      </trkpt>
      <trkpt lat="49.93324" lon="2.18825">
        <ele>15.5</ele>
        <time>2022-03-02T13:41:56Z</time>
      </trkpt>
      <trkpt lat="49.93323" lon="2.18826">
        <ele>15.5</ele>
        <time>2022-03-02T13:41:57Z</time>
      </trkpt>
      <trkpt lat="49.93321" lon="2.18828">
        <ele>15.5</ele>
        <time>2022-03-02T13:41:58Z</time>
      </trkpt>
      <trkpt lat="49.9332" lon="2.18828">
        <ele>15.5</ele>
        <time>2022-03-02T13:41:59Z</time>
      </trkpt>
      <trkpt lat="49.93319" lon="2.18829">
        <ele>15.5</ele>
        <time>2022-03-02T13:42:00Z</time>
      </trkpt>
      <trkpt lat="49.93318" lon="2.18831">
        <ele>15.5</ele>
        <time>2022-03-02T13:42:02Z</time>
      </trkpt>
      <trkpt lat="49.93317" lon="2.18832">
        <ele>15.5</ele>
        <time>2022-03-02T13:42:03Z</time>
      </trkpt>
      <trkpt lat="49.93315" lon="2.18834">
        <ele>15.5</ele>
        <time>2022-03-02T13:42:04Z</time>
      </trkpt>
      <trkpt lat="49.93315" lon="2.18835">
        <ele>15.5</ele>
        <time>2022-03-02T13:42:05Z</time>
      </trkpt>
      <trkpt lat="49.93314" lon="2.18836">
        <ele>15.6</ele>
        <time>2022-03-02T13:42:06Z</time>
      </trkpt>
      <trkpt lat="49.93313" lon="2.18838">
        <ele>15.6</ele>
        <time>2022-03-02T13:42:07Z</time>
      </trkpt>
      <trkpt lat="49.93313" lon="2.18839">
        <ele>15.6</ele>
        <time>2022-03-02T13:42:08Z</time>
      </trkpt>
      <trkpt lat="49.93312" lon="2.18841">
        <ele>15.6</ele>
        <time>2022-03-02T13:42:10Z</time>
      </trkpt>
      <trkpt lat="49.93311" lon="2.18843">
        <ele>15.6</ele>
        <time>2022-03-02T13:42:11Z</time>
      </trkpt>
      <trkpt lat="49.9331" lon="2.18844">
        <ele>15.6</ele>
        <time>2022-03-02T13:42:12Z</time>
      </trkpt>
      <trkpt lat="49.93309" lon="2.18845">
        <ele>15.6</ele>
        <time>2022-03-02T13:42:13Z</time>
      </trkpt>
      <trkpt lat="49.93308" lon="2.18846">
        <ele>15.7</ele>
        <time>2022-03-02T13:42:14Z</time>
      </trkpt>
      <trkpt lat="49.93307" lon="2.18846">
        <ele>15.7</ele>
        <time>2022-03-02T13:42:15Z</time>
      </trkpt>
      <trkpt lat="49.93306" lon="2.18848">
        <ele>15.7</ele>
        <time>2022-03-02T13:42:17Z</time>
      </trkpt>
      <trkpt lat="49.93306" lon="2.18849">
        <ele>15.7</ele>
        <time>2022-03-02T13:42:18Z</time>
      </trkpt>
      <trkpt lat="49.93306" lon="2.18851">
        <ele>15.7</ele>
        <time>2022-03-02T13:42:19Z</time>
      </trkpt>
      <trkpt lat="49.93305" lon="2.18852">
        <ele>15.7</ele>
        <time>2022-03-02T13:42:20Z</time>
      </trkpt>
      <trkpt lat="49.93305" lon="2.18854">
        <ele>15.7</ele>
        <time>2022-03-02T13:42:21Z</time>
      </trkpt>
      <trkpt lat="49.93305" lon="2.18855">
        <ele>15.7</ele>
        <time>2022-03-02T13:42:22Z</time>
      </trkpt>
      <trkpt lat="49.93304" lon="2.18856">
        <ele>15.7</ele>
        <time>2022-03-02T13:42:23Z</time>
      </trkpt>
      <trkpt lat="49.93304" lon="2.18858">
        <ele>15.8</ele>
        <time>2022-03-02T13:42:24Z</time>
      </trkpt>
      <trkpt lat="49.93304" lon="2.18859">
        <ele>15.8</ele>
        <time>2022-03-02T13:42:25Z</time>
      </trkpt>
      <trkpt lat="49.93304" lon="2.1886">
        <ele>15.8</ele>
        <time>2022-03-02T13:42:26Z</time>
      </trkpt>
      <trkpt lat="49.93303" lon="2.18862">
        <ele>15.8</ele>
        <time>2022-03-02T13:42:28Z</time>
      </trkpt>
      <trkpt lat="49.93303" lon="2.18863">
        <ele>15.8</ele>
        <time>2022-03-02T13:42:29Z</time>
      </trkpt>
      <trkpt lat="49.93303" lon="2.18865">
        <ele>15.7</ele>
        <time>2022-03-02T13:42:30Z</time>
      </trkpt>
      <trkpt lat="49.93303" lon="2.18866">
        <ele>15.7</ele>
        <time>2022-03-02T13:42:31Z</time>
      </trkpt>
      <trkpt lat="49.93302" lon="2.18867">
        <ele>15.7</ele>
        <time>2022-03-02T13:42:32Z</time>
      </trkpt>
      <trkpt lat="49.93302" lon="2.18868">
        <ele>15.7</ele>
        <time>2022-03-02T13:42:34Z</time>
      </trkpt>
      <trkpt lat="49.93302" lon="2.1887">
        <ele>15.7</ele>
        <time>2022-03-02T13:42:35Z</time>
      </trkpt>
      <trkpt lat="49.93301" lon="2.18871">
        <ele>15.7</ele>
        <time>2022-03-02T13:42:36Z</time>
      </trkpt>
      <trkpt lat="49.93301" lon="2.18873">
        <ele>15.7</ele>
        <time>2022-03-02T13:42:37Z</time>
      </trkpt>
      <trkpt lat="49.93301" lon="2.18874">
        <ele>15.7</ele>
        <time>2022-03-02T13:42:38Z</time>
      </trkpt>
      <trkpt lat="49.93302" lon="2.18874">
        <ele>15.7</ele>
        <time>2022-03-02T13:42:39Z</time>
      </trkpt>
      <trkpt lat="49.93302" lon="2.18875">
        <ele>15.7</ele>
        <time>2022-03-02T13:42:40Z</time>
      </trkpt>
      <trkpt lat="49.93302" lon="2.18877">
        <ele>15.7</ele>
        <time>2022-03-02T13:42:41Z</time>
      </trkpt>
      <trkpt lat="49.93303" lon="2.18877">
        <ele>15.7</ele>
        <time>2022-03-02T13:42:42Z</time>
      </trkpt>
      <trkpt lat="49.93303" lon="2.18878">
        <ele>15.7</ele>
        <time>2022-03-02T13:42:43Z</time>
      </trkpt>
      <trkpt lat="49.93302" lon="2.1888">
        <ele>15.7</ele>
        <time>2022-03-02T13:42:44Z</time>
      </trkpt>
      <trkpt lat="49.93302" lon="2.18881">
        <ele>15.7</ele>
        <time>2022-03-02T13:42:45Z</time>
      </trkpt>
      <trkpt lat="49.93302" lon="2.18883">
        <ele>15.7</ele>
        <time>2022-03-02T13:42:46Z</time>
      </trkpt>
      <trkpt lat="49.93302" lon="2.18886">
        <ele>15.7</ele>
        <time>2022-03-02T13:42:48Z</time>
      </trkpt>
      <trkpt lat="49.93301" lon="2.18888">
        <ele>15.7</ele>
        <time>2022-03-02T13:42:49Z</time>
      </trkpt>
      <trkpt lat="49.93301" lon="2.1889">
        <ele>15.7</ele>
        <time>2022-03-02T13:42:50Z</time>
      </trkpt>
      <trkpt lat="49.93301" lon="2.18891">
        <ele>15.7</ele>
        <time>2022-03-02T13:42:51Z</time>
      </trkpt>
      <trkpt lat="49.933" lon="2.18892">
        <ele>15.7</ele>
        <time>2022-03-02T13:42:53Z</time>
      </trkpt>
      <trkpt lat="49.933" lon="2.18892">
        <ele>15.7</ele>
        <time>2022-03-02T13:42:54Z</time>
      </trkpt>
      <trkpt lat="49.933" lon="2.18893">
        <ele>15.7</ele>
        <time>2022-03-02T13:42:55Z</time>
      </trkpt>
      <trkpt lat="49.93299" lon="2.18896">
        <ele>15.7</ele>
        <time>2022-03-02T13:42:57Z</time>
      </trkpt>
      <trkpt lat="49.93299" lon="2.18899">
        <ele>15.7</ele>
        <time>2022-03-02T13:42:58Z</time>
      </trkpt>
      <trkpt lat="49.93298" lon="2.18901">
        <ele>15.7</ele>
        <time>2022-03-02T13:42:59Z</time>
      </trkpt>
      <trkpt lat="49.93298" lon="2.18903">
        <ele>15.7</ele>
        <time>2022-03-02T13:43:00Z</time>
      </trkpt>
      <trkpt lat="49.93297" lon="2.18905">
        <ele>15.7</ele>
        <time>2022-03-02T13:43:01Z</time>
      </trkpt>
      <trkpt lat="49.93297" lon="2.18907">
        <ele>15.7</ele>
        <time>2022-03-02T13:43:02Z</time>
      </trkpt>
      <trkpt lat="49.93296" lon="2.1891">
        <ele>15.7</ele>
        <time>2022-03-02T13:43:03Z</time>
      </trkpt>
      <trkpt lat="49.93296" lon="2.18913">
        <ele>15.7</ele>
        <time>2022-03-02T13:43:04Z</time>
      </trkpt>
      <trkpt lat="49.93295" lon="2.18916">
        <ele>15.7</ele>
        <time>2022-03-02T13:43:06Z</time>
      </trkpt>
      <trkpt lat="49.93295" lon="2.18919">
        <ele>15.7</ele>
        <time>2022-03-02T13:43:07Z</time>
      </trkpt>
      <trkpt lat="49.93294" lon="2.18922">
        <ele>15.7</ele>
        <time>2022-03-02T13:43:08Z</time>
      </trkpt>
      <trkpt lat="49.93294" lon="2.18926">
        <ele>15.7</ele>
        <time>2022-03-02T13:43:09Z</time>
      </trkpt>
      <trkpt lat="49.93294" lon="2.18927">
        <ele>15.7</ele>
        <time>2022-03-02T13:43:10Z</time>
      </trkpt>
      <trkpt lat="49.93294" lon="2.1893">
        <ele>15.7</ele>
        <time>2022-03-02T13:43:11Z</time>
      </trkpt>
      <trkpt lat="49.93293" lon="2.18933">
        <ele>15.7</ele>
        <time>2022-03-02T13:43:13Z</time>
      </trkpt>
      <trkpt lat="49.93293" lon="2.18935">
        <ele>15.7</ele>
        <time>2022-03-02T13:43:14Z</time>
      </trkpt>
      <trkpt lat="49.93293" lon="2.18937">
        <ele>15.7</ele>
        <time>2022-03-02T13:43:15Z</time>
      </trkpt>
      <trkpt lat="49.93293" lon="2.1894">
        <ele>15.7</ele>
        <time>2022-03-02T13:43:16Z</time>
      </trkpt>
      <trkpt lat="49.93293" lon="2.18942">
        <ele>15.7</ele>
        <time>2022-03-02T13:43:17Z</time>
      </trkpt>
      <trkpt lat="49.93293" lon="2.18944">
        <ele>15.7</ele>
        <time>2022-03-02T13:43:18Z</time>
      </trkpt>
      <trkpt lat="49.93293" lon="2.18947">
        <ele>15.7</ele>
        <time>2022-03-02T13:43:19Z</time>
      </trkpt>
      <trkpt lat="49.93293" lon="2.18949">
        <ele>15.7</ele>
        <time>2022-03-02T13:43:20Z</time>
      </trkpt>
      <trkpt lat="49.93293" lon="2.18952">
        <ele>15.7</ele>
        <time>2022-03-02T13:43:21Z</time>
      </trkpt>
      <trkpt lat="49.93293" lon="2.18954">
        <ele>15.7</ele>
        <time>2022-03-02T13:43:22Z</time>
      </trkpt>
      <trkpt lat="49.93293" lon="2.18956">
        <ele>15.7</ele>
        <time>2022-03-02T13:43:23Z</time>
      </trkpt>
      <trkpt lat="49.93293" lon="2.18958">
        <ele>15.7</ele>
        <time>2022-03-02T13:43:24Z</time>
      </trkpt>
      <trkpt lat="49.93293" lon="2.1896">
        <ele>15.7</ele>
        <time>2022-03-02T13:43:25Z</time>
      </trkpt>
      <trkpt lat="49.93293" lon="2.18963">
        <ele>15.7</ele>
        <time>2022-03-02T13:43:26Z</time>
      </trkpt>
      <trkpt lat="49.93293" lon="2.18965">
        <ele>15.7</ele>
        <time>2022-03-02T13:43:27Z</time>
      </trkpt>
      <trkpt lat="49.93293" lon="2.18967">
        <ele>15.6</ele>
        <time>2022-03-02T13:43:28Z</time>
      </trkpt>
      <trkpt lat="49.93293" lon="2.18969">
        <ele>15.6</ele>
        <time>2022-03-02T13:43:29Z</time>
      </trkpt>
      <trkpt lat="49.93293" lon="2.18972">
        <ele>15.6</ele>
        <time>2022-03-02T13:43:30Z</time>
      </trkpt>
      <trkpt lat="49.93292" lon="2.18975">
        <ele>15.6</ele>
        <time>2022-03-02T13:43:31Z</time>
      </trkpt>
      <trkpt lat="49.93292" lon="2.18978">
        <ele>15.6</ele>
        <time>2022-03-02T13:43:32Z</time>
      </trkpt>
      <trkpt lat="49.93292" lon="2.18981">
        <ele>15.6</ele>
        <time>2022-03-02T13:43:34Z</time>
      </trkpt>
      <trkpt lat="49.93291" lon="2.18984">
        <ele>15.6</ele>
        <time>2022-03-02T13:43:35Z</time>
      </trkpt>
      <trkpt lat="49.93291" lon="2.18986">
        <ele>15.6</ele>
        <time>2022-03-02T13:43:36Z</time>
      </trkpt>
      <trkpt lat="49.93289" lon="2.1899">
        <ele>15.6</ele>
        <time>2022-03-02T13:43:37Z</time>
      </trkpt>
      <trkpt lat="49.93289" lon="2.18992">
        <ele>15.6</ele>
        <time>2022-03-02T13:43:38Z</time>
      </trkpt>
      <trkpt lat="49.93287" lon="2.18996">
        <ele>15.6</ele>
        <time>2022-03-02T13:43:39Z</time>
      </trkpt>
      <trkpt lat="49.93286" lon="2.18998">
        <ele>15.6</ele>
        <time>2022-03-02T13:43:40Z</time>
      </trkpt>
      <trkpt lat="49.93284" lon="2.19001">
        <ele>15.6</ele>
        <time>2022-03-02T13:43:42Z</time>
      </trkpt>
      <trkpt lat="49.93283" lon="2.19003">
        <ele>15.6</ele>
        <time>2022-03-02T13:43:43Z</time>
      </trkpt>
      <trkpt lat="49.93283" lon="2.19005">
        <ele>15.6</ele>
        <time>2022-03-02T13:43:44Z</time>
      </trkpt>
      <trkpt lat="49.93282" lon="2.19007">
        <ele>15.6</ele>
        <time>2022-03-02T13:43:45Z</time>
      </trkpt>
      <trkpt lat="49.93282" lon="2.19009">
        <ele>15.6</ele>
        <time>2022-03-02T13:43:46Z</time>
      </trkpt>
      <trkpt lat="49.93281" lon="2.19011">
        <ele>15.6</ele>
        <time>2022-03-02T13:43:47Z</time>
      </trkpt>
      <trkpt lat="49.9328" lon="2.19014">
        <ele>15.6</ele>
        <time>2022-03-02T13:43:48Z</time>
      </trkpt>
      <trkpt lat="49.93279" lon="2.19016">
        <ele>15.6</ele>
        <time>2022-03-02T13:43:49Z</time>
      </trkpt>
      <trkpt lat="49.93278" lon="2.19019">
        <ele>15.6</ele>
        <time>2022-03-02T13:43:51Z</time>
      </trkpt>
      <trkpt lat="49.93278" lon="2.19022">
        <ele>15.6</ele>
        <time>2022-03-02T13:43:52Z</time>
      </trkpt>
      <trkpt lat="49.93277" lon="2.19024">
        <ele>15.6</ele>
        <time>2022-03-02T13:43:53Z</time>
      </trkpt>
      <trkpt lat="49.93277" lon="2.19028">
        <ele>15.6</ele>
        <time>2022-03-02T13:43:54Z</time>
      </trkpt>
      <trkpt lat="49.93277" lon="2.19029">
        <ele>15.6</ele>
        <time>2022-03-02T13:43:55Z</time>
      </trkpt>
      <trkpt lat="49.93277" lon="2.1903">
        <ele>15.6</ele>
        <time>2022-03-02T13:43:56Z</time>
      </trkpt>
      <trkpt lat="49.93277" lon="2.19033">
        <ele>15.6</ele>
        <time>2022-03-02T13:43:57Z</time>
      </trkpt>
      <trkpt lat="49.93277" lon="2.19035">
        <ele>15.6</ele>
        <time>2022-03-02T13:43:58Z</time>
      </trkpt>
      <trkpt lat="49.93277" lon="2.19036">
        <ele>15.6</ele>
        <time>2022-03-02T13:43:59Z</time>
      </trkpt>
      <trkpt lat="49.93278" lon="2.19039">
        <ele>15.6</ele>
        <time>2022-03-02T13:44:01Z</time>
      </trkpt>
      <trkpt lat="49.93278" lon="2.19041">
        <ele>15.6</ele>
        <time>2022-03-02T13:44:02Z</time>
      </trkpt>
      <trkpt lat="49.93279" lon="2.19044">
        <ele>15.6</ele>
        <time>2022-03-02T13:44:03Z</time>
      </trkpt>
      <trkpt lat="49.93279" lon="2.19046">
        <ele>15.6</ele>
        <time>2022-03-02T13:44:04Z</time>
      </trkpt>
      <trkpt lat="49.93279" lon="2.19047">
        <ele>15.6</ele>
        <time>2022-03-02T13:44:05Z</time>
      </trkpt>
      <trkpt lat="49.93279" lon="2.19049">
        <ele>15.6</ele>
        <time>2022-03-02T13:44:07Z</time>
      </trkpt>
      <trkpt lat="49.9328" lon="2.19051">
        <ele>15.6</ele>
        <time>2022-03-02T13:44:08Z</time>
      </trkpt>
      <trkpt lat="49.93282" lon="2.19055">
        <ele>15.6</ele>
        <time>2022-03-02T13:44:09Z</time>
      </trkpt>
      <trkpt lat="49.93282" lon="2.19056">
        <ele>15.6</ele>
        <time>2022-03-02T13:44:10Z</time>
      </trkpt>
      <trkpt lat="49.93284" lon="2.19057">
        <ele>15.6</ele>
        <time>2022-03-02T13:44:11Z</time>
      </trkpt>
      <trkpt lat="49.93284" lon="2.19061">
        <ele>15.6</ele>
        <time>2022-03-02T13:44:13Z</time>
      </trkpt>
      <trkpt lat="49.93284" lon="2.19063">
        <ele>15.6</ele>
        <time>2022-03-02T13:44:15Z</time>
      </trkpt>
      <trkpt lat="49.93284" lon="2.19064">
        <ele>15.6</ele>
        <time>2022-03-02T13:44:16Z</time>
      </trkpt>
      <trkpt lat="49.93284" lon="2.19065">
        <ele>15.6</ele>
        <time>2022-03-02T13:44:17Z</time>
      </trkpt>
      <trkpt lat="49.93284" lon="2.19067">
        <ele>15.6</ele>
        <time>2022-03-02T13:44:18Z</time>
      </trkpt>
      <trkpt lat="49.93283" lon="2.19069">
        <ele>15.6</ele>
        <time>2022-03-02T13:44:19Z</time>
      </trkpt>
      <trkpt lat="49.93283" lon="2.1907">
        <ele>15.6</ele>
        <time>2022-03-02T13:44:20Z</time>
      </trkpt>
      <trkpt lat="49.93283" lon="2.19071">
        <ele>15.6</ele>
        <time>2022-03-02T13:44:21Z</time>
      </trkpt>
      <trkpt lat="49.93282" lon="2.19072">
        <ele>15.6</ele>
        <time>2022-03-02T13:44:22Z</time>
      </trkpt>
      <trkpt lat="49.93282" lon="2.19073">
        <ele>15.6</ele>
        <time>2022-03-02T13:44:23Z</time>
      </trkpt>
      <trkpt lat="49.93281" lon="2.19075">
        <ele>15.6</ele>
        <time>2022-03-02T13:44:25Z</time>
      </trkpt>
      <trkpt lat="49.93281" lon="2.19076">
        <ele>15.6</ele>
        <time>2022-03-02T13:44:26Z</time>
      </trkpt>
      <trkpt lat="49.93281" lon="2.19077">
        <ele>15.6</ele>
        <time>2022-03-02T13:44:27Z</time>
      </trkpt>
      <trkpt lat="49.93281" lon="2.19078">
        <ele>15.6</ele>
        <time>2022-03-02T13:44:28Z</time>
      </trkpt>
      <trkpt lat="49.93281" lon="2.19079">
        <ele>15.6</ele>
        <time>2022-03-02T13:44:29Z</time>
      </trkpt>
      <trkpt lat="49.93282" lon="2.19078">
        <ele>15.6</ele>
        <time>2022-03-02T13:44:30Z</time>
      </trkpt>
      <trkpt lat="49.93282" lon="2.19078">
        <ele>15.6</ele>
        <time>2022-03-02T13:44:31Z</time>
      </trkpt>
      <trkpt lat="49.93283" lon="2.19078">
        <ele>15.6</ele>
        <time>2022-03-02T13:44:32Z</time>
      </trkpt>
      <trkpt lat="49.93283" lon="2.19079">
        <ele>15.6</ele>
        <time>2022-03-02T13:44:33Z</time>
      </trkpt>
      <trkpt lat="49.93283" lon="2.19081">
        <ele>15.6</ele>
        <time>2022-03-02T13:44:34Z</time>
      </trkpt>
      <trkpt lat="49.93283" lon="2.19082">
        <ele>15.6</ele>
        <time>2022-03-02T13:44:35Z</time>
      </trkpt>
      <trkpt lat="49.93283" lon="2.19083">
        <ele>15.6</ele>
        <time>2022-03-02T13:44:36Z</time>
      </trkpt>
      <trkpt lat="49.93283" lon="2.19084">
        <ele>15.6</ele>
        <time>2022-03-02T13:44:37Z</time>
      </trkpt>
      <trkpt lat="49.93282" lon="2.19086">
        <ele>15.6</ele>
        <time>2022-03-02T13:44:39Z</time>
      </trkpt>
      <trkpt lat="49.93281" lon="2.19088">
        <ele>15.6</ele>
        <time>2022-03-02T13:44:40Z</time>
      </trkpt>
      <trkpt lat="49.93281" lon="2.19089">
        <ele>15.6</ele>
        <time>2022-03-02T13:44:41Z</time>
      </trkpt>
      <trkpt lat="49.9328" lon="2.1909">
        <ele>15.6</ele>
        <time>2022-03-02T13:44:42Z</time>
      </trkpt>
      <trkpt lat="49.9328" lon="2.19093">
        <ele>15.6</ele>
        <time>2022-03-02T13:44:43Z</time>
      </trkpt>
      <trkpt lat="49.93279" lon="2.19095">
        <ele>15.6</ele>
        <time>2022-03-02T13:44:44Z</time>
      </trkpt>
      <trkpt lat="49.93279" lon="2.19096">
        <ele>15.6</ele>
        <time>2022-03-02T13:44:45Z</time>
      </trkpt>
      <trkpt lat="49.93279" lon="2.19098">
        <ele>15.6</ele>
        <time>2022-03-02T13:44:46Z</time>
      </trkpt>
      <trkpt lat="49.93279" lon="2.191">
        <ele>15.6</ele>
        <time>2022-03-02T13:44:47Z</time>
      </trkpt>
      <trkpt lat="49.93279" lon="2.19103">
        <ele>15.6</ele>
        <time>2022-03-02T13:44:48Z</time>
      </trkpt>
      <trkpt lat="49.93279" lon="2.19105">
        <ele>15.6</ele>
        <time>2022-03-02T13:44:49Z</time>
      </trkpt>
      <trkpt lat="49.93278" lon="2.19107">
        <ele>15.6</ele>
        <time>2022-03-02T13:44:51Z</time>
      </trkpt>
      <trkpt lat="49.93278" lon="2.19109">
        <ele>15.6</ele>
        <time>2022-03-02T13:44:52Z</time>
      </trkpt>
      <trkpt lat="49.93277" lon="2.19111">
        <ele>15.6</ele>
        <time>2022-03-02T13:44:53Z</time>
      </trkpt>
      <trkpt lat="49.93276" lon="2.19113">
        <ele>15.6</ele>
        <time>2022-03-02T13:44:54Z</time>
      </trkpt>
      <trkpt lat="49.93276" lon="2.19116">
        <ele>15.6</ele>
        <time>2022-03-02T13:44:55Z</time>
      </trkpt>
      <trkpt lat="49.93276" lon="2.19118">
        <ele>15.6</ele>
        <time>2022-03-02T13:44:56Z</time>
      </trkpt>
      <trkpt lat="49.93276" lon="2.1912">
        <ele>15.6</ele>
        <time>2022-03-02T13:44:57Z</time>
      </trkpt>
      <trkpt lat="49.93276" lon="2.19122">
        <ele>15.6</ele>
        <time>2022-03-02T13:44:58Z</time>
      </trkpt>
      <trkpt lat="49.93275" lon="2.19124">
        <ele>15.6</ele>
        <time>2022-03-02T13:44:59Z</time>
      </trkpt>
      <trkpt lat="49.93275" lon="2.19127">
        <ele>15.6</ele>
        <time>2022-03-02T13:45:00Z</time>
      </trkpt>
      <trkpt lat="49.93274" lon="2.19129">
        <ele>15.6</ele>
        <time>2022-03-02T13:45:01Z</time>
      </trkpt>
      <trkpt lat="49.93274" lon="2.1913">
        <ele>15.6</ele>
        <time>2022-03-02T13:45:02Z</time>
      </trkpt>
      <trkpt lat="49.93274" lon="2.19132">
        <ele>15.6</ele>
        <time>2022-03-02T13:45:03Z</time>
      </trkpt>
      <trkpt lat="49.93273" lon="2.19135">
        <ele>15.6</ele>
        <time>2022-03-02T13:45:05Z</time>
      </trkpt>
      <trkpt lat="49.93273" lon="2.19137">
        <ele>15.6</ele>
        <time>2022-03-02T13:45:06Z</time>
      </trkpt>
      <trkpt lat="49.93272" lon="2.19139">
        <ele>15.6</ele>
        <time>2022-03-02T13:45:07Z</time>
      </trkpt>
      <trkpt lat="49.9327" lon="2.19143">
        <ele>15.6</ele>
        <time>2022-03-02T13:45:08Z</time>
      </trkpt>
      <trkpt lat="49.9327" lon="2.19144">
        <ele>15.6</ele>
        <time>2022-03-02T13:45:09Z</time>
      </trkpt>
      <trkpt lat="49.93269" lon="2.19146">
        <ele>15.6</ele>
        <time>2022-03-02T13:45:10Z</time>
      </trkpt>
      <trkpt lat="49.93268" lon="2.19148">
        <ele>15.6</ele>
        <time>2022-03-02T13:45:11Z</time>
      </trkpt>
      <trkpt lat="49.93267" lon="2.1915">
        <ele>15.6</ele>
        <time>2022-03-02T13:45:12Z</time>
      </trkpt>
      <trkpt lat="49.93267" lon="2.19152">
        <ele>15.6</ele>
        <time>2022-03-02T13:45:13Z</time>
      </trkpt>
      <trkpt lat="49.93265" lon="2.19155">
        <ele>15.6</ele>
        <time>2022-03-02T13:45:14Z</time>
      </trkpt>
      <trkpt lat="49.93264" lon="2.19157">
        <ele>15.6</ele>
        <time>2022-03-02T13:45:16Z</time>
      </trkpt>
      <trkpt lat="49.93264" lon="2.19158">
        <ele>15.6</ele>
        <time>2022-03-02T13:45:17Z</time>
      </trkpt>
      <trkpt lat="49.93263" lon="2.1916">
        <ele>15.6</ele>
        <time>2022-03-02T13:45:18Z</time>
      </trkpt>
      <trkpt lat="49.93262" lon="2.19161">
        <ele>15.6</ele>
        <time>2022-03-02T13:45:19Z</time>
      </trkpt>
      <trkpt lat="49.93261" lon="2.19163">
        <ele>15.6</ele>
        <time>2022-03-02T13:45:20Z</time>
      </trkpt>
      <trkpt lat="49.93261" lon="2.19164">
        <ele>15.6</ele>
        <time>2022-03-02T13:45:21Z</time>
      </trkpt>
      <trkpt lat="49.9326" lon="2.19165">
        <ele>15.6</ele>
        <time>2022-03-02T13:45:22Z</time>
      </trkpt>
      <trkpt lat="49.93259" lon="2.19167">
        <ele>15.6</ele>
        <time>2022-03-02T13:45:23Z</time>
      </trkpt>
      <trkpt lat="49.93259" lon="2.19169">
        <ele>15.6</ele>
        <time>2022-03-02T13:45:24Z</time>
      </trkpt>
      <trkpt lat="49.93258" lon="2.19171">
        <ele>15.6</ele>
        <time>2022-03-02T13:45:25Z</time>
      </trkpt>
      <trkpt lat="49.93257" lon="2.19173">
        <ele>15.6</ele>
        <time>2022-03-02T13:45:27Z</time>
      </trkpt>
      <trkpt lat="49.93256" lon="2.19175">
        <ele>15.6</ele>
        <time>2022-03-02T13:45:28Z</time>
      </trkpt>
      <trkpt lat="49.93256" lon="2.19177">
        <ele>15.6</ele>
        <time>2022-03-02T13:45:29Z</time>
      </trkpt>
      <trkpt lat="49.93255" lon="2.19179">
        <ele>15.6</ele>
        <time>2022-03-02T13:45:30Z</time>
      </trkpt>
      <trkpt lat="49.93254" lon="2.19181">
        <ele>15.6</ele>
        <time>2022-03-02T13:45:31Z</time>
      </trkpt>
      <trkpt lat="49.93253" lon="2.19184">
        <ele>15.6</ele>
        <time>2022-03-02T13:45:32Z</time>
      </trkpt>
      <trkpt lat="49.93252" lon="2.19186">
        <ele>15.6</ele>
        <time>2022-03-02T13:45:34Z</time>
      </trkpt>
      <trkpt lat="49.93252" lon="2.19187">
        <ele>15.6</ele>
        <time>2022-03-02T13:45:35Z</time>
      </trkpt>
      <trkpt lat="49.93251" lon="2.19188">
        <ele>15.6</ele>
        <time>2022-03-02T13:45:36Z</time>
      </trkpt>
      <trkpt lat="49.9325" lon="2.19189">
        <ele>15.6</ele>
        <time>2022-03-02T13:45:37Z</time>
      </trkpt>
      <trkpt lat="49.93249" lon="2.19192">
        <ele>15.6</ele>
        <time>2022-03-02T13:45:38Z</time>
      </trkpt>
      <trkpt lat="49.93249" lon="2.19193">
        <ele>15.6</ele>
        <time>2022-03-02T13:45:39Z</time>
      </trkpt>
      <trkpt lat="49.93248" lon="2.19194">
        <ele>15.6</ele>
        <time>2022-03-02T13:45:40Z</time>
      </trkpt>
      <trkpt lat="49.93247" lon="2.19197">
        <ele>15.6</ele>
        <time>2022-03-02T13:45:41Z</time>
      </trkpt>
      <trkpt lat="49.93247" lon="2.19198">
        <ele>15.6</ele>
        <time>2022-03-02T13:45:42Z</time>
      </trkpt>
      <trkpt lat="49.93246" lon="2.19199">
        <ele>15.6</ele>
        <time>2022-03-02T13:45:43Z</time>
      </trkpt>
      <trkpt lat="49.93246" lon="2.19201">
        <ele>15.6</ele>
        <time>2022-03-02T13:45:44Z</time>
      </trkpt>
      <trkpt lat="49.93245" lon="2.19202">
        <ele>15.6</ele>
        <time>2022-03-02T13:45:45Z</time>
      </trkpt>
      <trkpt lat="49.93245" lon="2.19204">
        <ele>15.6</ele>
        <time>2022-03-02T13:45:46Z</time>
      </trkpt>
      <trkpt lat="49.93244" lon="2.19205">
        <ele>15.6</ele>
        <time>2022-03-02T13:45:47Z</time>
      </trkpt>
      <trkpt lat="49.93244" lon="2.19206">
        <ele>15.5</ele>
        <time>2022-03-02T13:45:48Z</time>
      </trkpt>
      <trkpt lat="49.93243" lon="2.19207">
        <ele>15.5</ele>
        <time>2022-03-02T13:45:49Z</time>
      </trkpt>
      <trkpt lat="49.93243" lon="2.19208">
        <ele>15.5</ele>
        <time>2022-03-02T13:45:50Z</time>
      </trkpt>
      <trkpt lat="49.93243" lon="2.1921">
        <ele>15.5</ele>
        <time>2022-03-02T13:45:51Z</time>
      </trkpt>
      <trkpt lat="49.93242" lon="2.19212">
        <ele>15.5</ele>
        <time>2022-03-02T13:45:52Z</time>
      </trkpt>
      <trkpt lat="49.93242" lon="2.19214">
        <ele>15.5</ele>
        <time>2022-03-02T13:45:53Z</time>
      </trkpt>
      <trkpt lat="49.93241" lon="2.19216">
        <ele>15.5</ele>
        <time>2022-03-02T13:45:54Z</time>
      </trkpt>
      <trkpt lat="49.9324" lon="2.19219">
        <ele>15.5</ele>
        <time>2022-03-02T13:45:55Z</time>
      </trkpt>
      <trkpt lat="49.9324" lon="2.19221">
        <ele>15.5</ele>
        <time>2022-03-02T13:45:57Z</time>
      </trkpt>
      <trkpt lat="49.9324" lon="2.19223">
        <ele>15.5</ele>
        <time>2022-03-02T13:45:58Z</time>
      </trkpt>
      <trkpt lat="49.93239" lon="2.19224">
        <ele>15.5</ele>
        <time>2022-03-02T13:45:59Z</time>
      </trkpt>
      <trkpt lat="49.93239" lon="2.19226">
        <ele>15.5</ele>
        <time>2022-03-02T13:46:00Z</time>
      </trkpt>
      <trkpt lat="49.93238" lon="2.19228">
        <ele>15.5</ele>
        <time>2022-03-02T13:46:01Z</time>
      </trkpt>
      <trkpt lat="49.93237" lon="2.19231">
        <ele>15.5</ele>
        <time>2022-03-02T13:46:03Z</time>
      </trkpt>
      <trkpt lat="49.93237" lon="2.19234">
        <ele>15.5</ele>
        <time>2022-03-02T13:46:04Z</time>
      </trkpt>
      <trkpt lat="49.93236" lon="2.19236">
        <ele>15.5</ele>
        <time>2022-03-02T13:46:05Z</time>
      </trkpt>
      <trkpt lat="49.93234" lon="2.1924">
        <ele>15.5</ele>
        <time>2022-03-02T13:46:06Z</time>
      </trkpt>
      <trkpt lat="49.93232" lon="2.19242">
        <ele>15.5</ele>
        <time>2022-03-02T13:46:07Z</time>
      </trkpt>
      <trkpt lat="49.93231" lon="2.19246">
        <ele>15.5</ele>
        <time>2022-03-02T13:46:08Z</time>
      </trkpt>
      <trkpt lat="49.9323" lon="2.19247">
        <ele>15.5</ele>
        <time>2022-03-02T13:46:09Z</time>
      </trkpt>
      <trkpt lat="49.9323" lon="2.1925">
        <ele>15.5</ele>
        <time>2022-03-02T13:46:10Z</time>
      </trkpt>
      <trkpt lat="49.93229" lon="2.19252">
        <ele>15.5</ele>
        <time>2022-03-02T13:46:11Z</time>
      </trkpt>
      <trkpt lat="49.93229" lon="2.19253">
        <ele>15.5</ele>
        <time>2022-03-02T13:46:12Z</time>
      </trkpt>
      <trkpt lat="49.93228" lon="2.19255">
        <ele>15.5</ele>
        <time>2022-03-02T13:46:13Z</time>
      </trkpt>
      <trkpt lat="49.93227" lon="2.19257">
        <ele>15.5</ele>
        <time>2022-03-02T13:46:14Z</time>
      </trkpt>
      <trkpt lat="49.93226" lon="2.1926">
        <ele>15.5</ele>
        <time>2022-03-02T13:46:15Z</time>
      </trkpt>
      <trkpt lat="49.93226" lon="2.19262">
        <ele>15.5</ele>
        <time>2022-03-02T13:46:17Z</time>
      </trkpt>
      <trkpt lat="49.93225" lon="2.19264">
        <ele>15.5</ele>
        <time>2022-03-02T13:46:18Z</time>
      </trkpt>
      <trkpt lat="49.93224" lon="2.19266">
        <ele>15.5</ele>
        <time>2022-03-02T13:46:19Z</time>
      </trkpt>
      <trkpt lat="49.93224" lon="2.19268">
        <ele>15.6</ele>
        <time>2022-03-02T13:46:20Z</time>
      </trkpt>
      <trkpt lat="49.93223" lon="2.1927">
        <ele>15.6</ele>
        <time>2022-03-02T13:46:21Z</time>
      </trkpt>
      <trkpt lat="49.93222" lon="2.19273">
        <ele>15.6</ele>
        <time>2022-03-02T13:46:23Z</time>
      </trkpt>
      <trkpt lat="49.93222" lon="2.19275">
        <ele>15.6</ele>
        <time>2022-03-02T13:46:24Z</time>
      </trkpt>
      <trkpt lat="49.93221" lon="2.19276">
        <ele>15.6</ele>
        <time>2022-03-02T13:46:25Z</time>
      </trkpt>
      <trkpt lat="49.93221" lon="2.19278">
        <ele>15.6</ele>
        <time>2022-03-02T13:46:26Z</time>
      </trkpt>
      <trkpt lat="49.93221" lon="2.1928">
        <ele>15.6</ele>
        <time>2022-03-02T13:46:27Z</time>
      </trkpt>
      <trkpt lat="49.9322" lon="2.19283">
        <ele>15.6</ele>
        <time>2022-03-02T13:46:28Z</time>
      </trkpt>
      <trkpt lat="49.9322" lon="2.19284">
        <ele>15.6</ele>
        <time>2022-03-02T13:46:29Z</time>
      </trkpt>
      <trkpt lat="49.9322" lon="2.19285">
        <ele>15.6</ele>
        <time>2022-03-02T13:46:30Z</time>
      </trkpt>
      <trkpt lat="49.93219" lon="2.19287">
        <ele>15.6</ele>
        <time>2022-03-02T13:46:31Z</time>
      </trkpt>
      <trkpt lat="49.93219" lon="2.19289">
        <ele>15.6</ele>
        <time>2022-03-02T13:46:32Z</time>
      </trkpt>
      <trkpt lat="49.93219" lon="2.19292">
        <ele>15.6</ele>
        <time>2022-03-02T13:46:34Z</time>
      </trkpt>
      <trkpt lat="49.93218" lon="2.19293">
        <ele>15.6</ele>
        <time>2022-03-02T13:46:35Z</time>
      </trkpt>
      <trkpt lat="49.93218" lon="2.19295">
        <ele>15.6</ele>
        <time>2022-03-02T13:46:36Z</time>
      </trkpt>
      <trkpt lat="49.93218" lon="2.19297">
        <ele>15.6</ele>
        <time>2022-03-02T13:46:37Z</time>
      </trkpt>
      <trkpt lat="49.93218" lon="2.19299">
        <ele>15.6</ele>
        <time>2022-03-02T13:46:38Z</time>
      </trkpt>
      <trkpt lat="49.93218" lon="2.193">
        <ele>15.6</ele>
        <time>2022-03-02T13:46:40Z</time>
      </trkpt>
      <trkpt lat="49.93218" lon="2.19302">
        <ele>15.6</ele>
        <time>2022-03-02T13:46:41Z</time>
      </trkpt>
      <trkpt lat="49.93218" lon="2.19305">
        <ele>15.6</ele>
        <time>2022-03-02T13:46:42Z</time>
      </trkpt>
      <trkpt lat="49.93218" lon="2.19307">
        <ele>15.6</ele>
        <time>2022-03-02T13:46:43Z</time>
      </trkpt>
      <trkpt lat="49.93218" lon="2.19309">
        <ele>15.6</ele>
        <time>2022-03-02T13:46:45Z</time>
      </trkpt>
      <trkpt lat="49.93217" lon="2.1931">
        <ele>15.6</ele>
        <time>2022-03-02T13:46:46Z</time>
      </trkpt>
      <trkpt lat="49.93217" lon="2.19312">
        <ele>15.6</ele>
        <time>2022-03-02T13:46:47Z</time>
      </trkpt>
      <trkpt lat="49.93217" lon="2.19313">
        <ele>15.6</ele>
        <time>2022-03-02T13:46:48Z</time>
      </trkpt>
      <trkpt lat="49.93216" lon="2.19315">
        <ele>15.6</ele>
        <time>2022-03-02T13:46:49Z</time>
      </trkpt>
      <trkpt lat="49.93216" lon="2.19316">
        <ele>15.6</ele>
        <time>2022-03-02T13:46:50Z</time>
      </trkpt>
      <trkpt lat="49.93216" lon="2.19317">
        <ele>15.6</ele>
        <time>2022-03-02T13:46:51Z</time>
      </trkpt>
      <trkpt lat="49.93215" lon="2.19319">
        <ele>15.6</ele>
        <time>2022-03-02T13:46:52Z</time>
      </trkpt>
      <trkpt lat="49.93215" lon="2.1932">
        <ele>15.5</ele>
        <time>2022-03-02T13:46:53Z</time>
      </trkpt>
      <trkpt lat="49.93215" lon="2.19321">
        <ele>15.5</ele>
        <time>2022-03-02T13:46:54Z</time>
      </trkpt>
      <trkpt lat="49.93214" lon="2.19323">
        <ele>15.5</ele>
        <time>2022-03-02T13:46:55Z</time>
      </trkpt>
      <trkpt lat="49.93214" lon="2.19324">
        <ele>15.5</ele>
        <time>2022-03-02T13:46:56Z</time>
      </trkpt>
      <trkpt lat="49.93213" lon="2.19326">
        <ele>15.5</ele>
        <time>2022-03-02T13:46:57Z</time>
      </trkpt>
      <trkpt lat="49.93213" lon="2.19327">
        <ele>15.5</ele>
        <time>2022-03-02T13:46:58Z</time>
      </trkpt>
      <trkpt lat="49.93213" lon="2.19329">
        <ele>15.5</ele>
        <time>2022-03-02T13:46:59Z</time>
      </trkpt>
      <trkpt lat="49.93212" lon="2.19332">
        <ele>15.5</ele>
        <time>2022-03-02T13:47:01Z</time>
      </trkpt>
      <trkpt lat="49.93212" lon="2.19333">
        <ele>15.5</ele>
        <time>2022-03-02T13:47:02Z</time>
      </trkpt>
      <trkpt lat="49.93213" lon="2.19333">
        <ele>15.5</ele>
        <time>2022-03-02T13:47:03Z</time>
      </trkpt>
      <trkpt lat="49.93213" lon="2.19335">
        <ele>15.5</ele>
        <time>2022-03-02T13:47:04Z</time>
      </trkpt>
      <trkpt lat="49.93212" lon="2.19337">
        <ele>15.5</ele>
        <time>2022-03-02T13:47:05Z</time>
      </trkpt>
      <trkpt lat="49.93212" lon="2.19339">
        <ele>15.5</ele>
        <time>2022-03-02T13:47:06Z</time>
      </trkpt>
      <trkpt lat="49.93211" lon="2.19342">
        <ele>15.5</ele>
        <time>2022-03-02T13:47:07Z</time>
      </trkpt>
      <trkpt lat="49.9321" lon="2.19344">
        <ele>15.5</ele>
        <time>2022-03-02T13:47:09Z</time>
      </trkpt>
      <trkpt lat="49.93209" lon="2.19346">
        <ele>15.5</ele>
        <time>2022-03-02T13:47:10Z</time>
      </trkpt>
      <trkpt lat="49.93209" lon="2.19348">
        <ele>15.5</ele>
        <time>2022-03-02T13:47:11Z</time>
      </trkpt>
      <trkpt lat="49.93208" lon="2.19351">
        <ele>15.5</ele>
        <time>2022-03-02T13:47:12Z</time>
      </trkpt>
      <trkpt lat="49.93207" lon="2.19353">
        <ele>15.5</ele>
        <time>2022-03-02T13:47:13Z</time>
      </trkpt>
      <trkpt lat="49.93207" lon="2.19355">
        <ele>15.5</ele>
        <time>2022-03-02T13:47:14Z</time>
      </trkpt>
      <trkpt lat="49.93206" lon="2.19357">
        <ele>15.5</ele>
        <time>2022-03-02T13:47:15Z</time>
      </trkpt>
      <trkpt lat="49.93205" lon="2.19359">
        <ele>15.5</ele>
        <time>2022-03-02T13:47:16Z</time>
      </trkpt>
      <trkpt lat="49.93204" lon="2.19362">
        <ele>15.5</ele>
        <time>2022-03-02T13:47:17Z</time>
      </trkpt>
      <trkpt lat="49.93203" lon="2.19363">
        <ele>15.5</ele>
        <time>2022-03-02T13:47:18Z</time>
      </trkpt>
      <trkpt lat="49.93202" lon="2.19365">
        <ele>15.5</ele>
        <time>2022-03-02T13:47:19Z</time>
      </trkpt>
      <trkpt lat="49.932" lon="2.19366">
        <ele>15.4</ele>
        <time>2022-03-02T13:47:20Z</time>
      </trkpt>
      <trkpt lat="49.93199" lon="2.19368">
        <ele>15.4</ele>
        <time>2022-03-02T13:47:21Z</time>
      </trkpt>
      <trkpt lat="49.93198" lon="2.19371">
        <ele>15.4</ele>
        <time>2022-03-02T13:47:22Z</time>
      </trkpt>
      <trkpt lat="49.93198" lon="2.19373">
        <ele>15.4</ele>
        <time>2022-03-02T13:47:23Z</time>
      </trkpt>
      <trkpt lat="49.93197" lon="2.19375">
        <ele>15.4</ele>
        <time>2022-03-02T13:47:24Z</time>
      </trkpt>
      <trkpt lat="49.93195" lon="2.19377">
        <ele>15.4</ele>
        <time>2022-03-02T13:47:25Z</time>
      </trkpt>
      <trkpt lat="49.93194" lon="2.19379">
        <ele>15.4</ele>
        <time>2022-03-02T13:47:26Z</time>
      </trkpt>
      <trkpt lat="49.93193" lon="2.19381">
        <ele>15.4</ele>
        <time>2022-03-02T13:47:27Z</time>
      </trkpt>
      <trkpt lat="49.93191" lon="2.19383">
        <ele>15.4</ele>
        <time>2022-03-02T13:47:29Z</time>
      </trkpt>
      <trkpt lat="49.9319" lon="2.19385">
        <ele>15.4</ele>
        <time>2022-03-02T13:47:30Z</time>
      </trkpt>
      <trkpt lat="49.93189" lon="2.19387">
        <ele>15.4</ele>
        <time>2022-03-02T13:47:31Z</time>
      </trkpt>
      <trkpt lat="49.93188" lon="2.19389">
        <ele>15.4</ele>
        <time>2022-03-02T13:47:32Z</time>
      </trkpt>
      <trkpt lat="49.93187" lon="2.19391">
        <ele>15.4</ele>
        <time>2022-03-02T13:47:34Z</time>
      </trkpt>
      <trkpt lat="49.93187" lon="2.19393">
        <ele>15.4</ele>
        <time>2022-03-02T13:47:35Z</time>
      </trkpt>
      <trkpt lat="49.93186" lon="2.19395">
        <ele>15.4</ele>
        <time>2022-03-02T13:47:36Z</time>
      </trkpt>
      <trkpt lat="49.93185" lon="2.19398">
        <ele>15.3</ele>
        <time>2022-03-02T13:47:37Z</time>
      </trkpt>
      <trkpt lat="49.93184" lon="2.19399">
        <ele>15.3</ele>
        <time>2022-03-02T13:47:38Z</time>
      </trkpt>
      <trkpt lat="49.93184" lon="2.194">
        <ele>15.3</ele>
        <time>2022-03-02T13:47:39Z</time>
      </trkpt>
      <trkpt lat="49.93184" lon="2.19401">
        <ele>15.3</ele>
        <time>2022-03-02T13:47:40Z</time>
      </trkpt>
      <trkpt lat="49.93184" lon="2.19403">
        <ele>15.3</ele>
        <time>2022-03-02T13:47:41Z</time>
      </trkpt>
      <trkpt lat="49.93183" lon="2.19404">
        <ele>15.3</ele>
        <time>2022-03-02T13:47:42Z</time>
      </trkpt>
      <trkpt lat="49.93184" lon="2.19403">
        <ele>15.3</ele>
        <time>2022-03-02T13:47:43Z</time>
      </trkpt>
      <trkpt lat="49.93184" lon="2.19404">
        <ele>15.3</ele>
        <time>2022-03-02T13:47:44Z</time>
      </trkpt>
      <trkpt lat="49.93183" lon="2.19407">
        <ele>15.3</ele>
        <time>2022-03-02T13:47:45Z</time>
      </trkpt>
      <trkpt lat="49.93182" lon="2.19408">
        <ele>15.3</ele>
        <time>2022-03-02T13:47:46Z</time>
      </trkpt>
      <trkpt lat="49.93182" lon="2.1941">
        <ele>15.3</ele>
        <time>2022-03-02T13:47:47Z</time>
      </trkpt>
      <trkpt lat="49.93181" lon="2.19413">
        <ele>15.3</ele>
        <time>2022-03-02T13:47:48Z</time>
      </trkpt>
      <trkpt lat="49.9318" lon="2.19414">
        <ele>15.3</ele>
        <time>2022-03-02T13:47:49Z</time>
      </trkpt>
      <trkpt lat="49.9318" lon="2.19415">
        <ele>15.3</ele>
        <time>2022-03-02T13:47:50Z</time>
      </trkpt>
      <trkpt lat="49.93179" lon="2.19418">
        <ele>15.3</ele>
        <time>2022-03-02T13:47:51Z</time>
      </trkpt>
      <trkpt lat="49.93179" lon="2.1942">
        <ele>15.3</ele>
        <time>2022-03-02T13:47:52Z</time>
      </trkpt>
      <trkpt lat="49.93178" lon="2.19421">
        <ele>15.3</ele>
        <time>2022-03-02T13:47:53Z</time>
      </trkpt>
      <trkpt lat="49.93177" lon="2.19424">
        <ele>15.3</ele>
        <time>2022-03-02T13:47:54Z</time>
      </trkpt>
      <trkpt lat="49.93177" lon="2.19425">
        <ele>15.3</ele>
        <time>2022-03-02T13:47:56Z</time>
      </trkpt>
      <trkpt lat="49.93177" lon="2.19427">
        <ele>15.3</ele>
        <time>2022-03-02T13:47:57Z</time>
      </trkpt>
      <trkpt lat="49.93176" lon="2.19428">
        <ele>15.3</ele>
        <time>2022-03-02T13:47:58Z</time>
      </trkpt>
      <trkpt lat="49.93176" lon="2.1943">
        <ele>15.3</ele>
        <time>2022-03-02T13:47:59Z</time>
      </trkpt>
      <trkpt lat="49.93175" lon="2.19432">
        <ele>15.3</ele>
        <time>2022-03-02T13:48:00Z</time>
      </trkpt>
      <trkpt lat="49.93175" lon="2.19434">
        <ele>15.3</ele>
        <time>2022-03-02T13:48:02Z</time>
      </trkpt>
      <trkpt lat="49.93174" lon="2.19436">
        <ele>15.3</ele>
        <time>2022-03-02T13:48:03Z</time>
      </trkpt>
      <trkpt lat="49.93174" lon="2.19438">
        <ele>15.3</ele>
        <time>2022-03-02T13:48:04Z</time>
      </trkpt>
      <trkpt lat="49.93174" lon="2.1944">
        <ele>15.2</ele>
        <time>2022-03-02T13:48:05Z</time>
      </trkpt>
      <trkpt lat="49.93173" lon="2.19442">
        <ele>15.2</ele>
        <time>2022-03-02T13:48:06Z</time>
      </trkpt>
      <trkpt lat="49.93173" lon="2.19443">
        <ele>15.2</ele>
        <time>2022-03-02T13:48:07Z</time>
      </trkpt>
      <trkpt lat="49.93173" lon="2.19445">
        <ele>15.2</ele>
        <time>2022-03-02T13:48:08Z</time>
      </trkpt>
      <trkpt lat="49.93172" lon="2.19446">
        <ele>15.2</ele>
        <time>2022-03-02T13:48:09Z</time>
      </trkpt>
      <trkpt lat="49.93172" lon="2.19449">
        <ele>15.2</ele>
        <time>2022-03-02T13:48:10Z</time>
      </trkpt>
      <trkpt lat="49.93171" lon="2.1945">
        <ele>15.2</ele>
        <time>2022-03-02T13:48:11Z</time>
      </trkpt>
      <trkpt lat="49.93171" lon="2.19452">
        <ele>15.2</ele>
        <time>2022-03-02T13:48:12Z</time>
      </trkpt>
      <trkpt lat="49.9317" lon="2.19454">
        <ele>15.2</ele>
        <time>2022-03-02T13:48:14Z</time>
      </trkpt>
      <trkpt lat="49.93169" lon="2.19456">
        <ele>15.2</ele>
        <time>2022-03-02T13:48:15Z</time>
      </trkpt>
      <trkpt lat="49.93169" lon="2.19458">
        <ele>15.2</ele>
        <time>2022-03-02T13:48:16Z</time>
      </trkpt>
      <trkpt lat="49.93168" lon="2.1946">
        <ele>15.2</ele>
        <time>2022-03-02T13:48:17Z</time>
      </trkpt>
      <trkpt lat="49.93167" lon="2.19464">
        <ele>15.1</ele>
        <time>2022-03-02T13:48:18Z</time>
      </trkpt>
      <trkpt lat="49.93167" lon="2.19465">
        <ele>15.1</ele>
        <time>2022-03-02T13:48:20Z</time>
      </trkpt>
      <trkpt lat="49.93167" lon="2.19466">
        <ele>15.1</ele>
        <time>2022-03-02T13:48:21Z</time>
      </trkpt>
      <trkpt lat="49.93166" lon="2.19468">
        <ele>15.1</ele>
        <time>2022-03-02T13:48:22Z</time>
      </trkpt>
      <trkpt lat="49.93166" lon="2.19469">
        <ele>15.1</ele>
        <time>2022-03-02T13:48:23Z</time>
      </trkpt>
      <trkpt lat="49.93165" lon="2.19471">
        <ele>15.1</ele>
        <time>2022-03-02T13:48:24Z</time>
      </trkpt>
      <trkpt lat="49.93165" lon="2.19473">
        <ele>15.1</ele>
        <time>2022-03-02T13:48:25Z</time>
      </trkpt>
      <trkpt lat="49.93164" lon="2.19475">
        <ele>15.1</ele>
        <time>2022-03-02T13:48:26Z</time>
      </trkpt>
      <trkpt lat="49.93164" lon="2.19477">
        <ele>15.1</ele>
        <time>2022-03-02T13:48:27Z</time>
      </trkpt>
      <trkpt lat="49.93163" lon="2.19479">
        <ele>15.1</ele>
        <time>2022-03-02T13:48:28Z</time>
      </trkpt>
      <trkpt lat="49.93163" lon="2.19481">
        <ele>15.1</ele>
        <time>2022-03-02T13:48:29Z</time>
      </trkpt>
      <trkpt lat="49.93162" lon="2.19483">
        <ele>15.1</ele>
        <time>2022-03-02T13:48:30Z</time>
      </trkpt>
      <trkpt lat="49.93161" lon="2.19485">
        <ele>15.1</ele>
        <time>2022-03-02T13:48:31Z</time>
      </trkpt>
      <trkpt lat="49.93161" lon="2.19486">
        <ele>15.1</ele>
        <time>2022-03-02T13:48:32Z</time>
      </trkpt>
      <trkpt lat="49.9316" lon="2.19487">
        <ele>15.1</ele>
        <time>2022-03-02T13:48:33Z</time>
      </trkpt>
      <trkpt lat="49.93159" lon="2.19488">
        <ele>15.1</ele>
        <time>2022-03-02T13:48:34Z</time>
      </trkpt>
      <trkpt lat="49.93158" lon="2.1949">
        <ele>15.1</ele>
        <time>2022-03-02T13:48:35Z</time>
      </trkpt>
      <trkpt lat="49.93157" lon="2.19492">
        <ele>15.1</ele>
        <time>2022-03-02T13:48:36Z</time>
      </trkpt>
      <trkpt lat="49.93156" lon="2.19495">
        <ele>15.1</ele>
        <time>2022-03-02T13:48:38Z</time>
      </trkpt>
      <trkpt lat="49.93156" lon="2.19496">
        <ele>15.1</ele>
        <time>2022-03-02T13:48:39Z</time>
      </trkpt>
      <trkpt lat="49.93154" lon="2.19498">
        <ele>15.1</ele>
        <time>2022-03-02T13:48:40Z</time>
      </trkpt>
      <trkpt lat="49.93153" lon="2.195">
        <ele>15.1</ele>
        <time>2022-03-02T13:48:41Z</time>
      </trkpt>
      <trkpt lat="49.93153" lon="2.19502">
        <ele>15.1</ele>
        <time>2022-03-02T13:48:42Z</time>
      </trkpt>
      <trkpt lat="49.93152" lon="2.19505">
        <ele>15.1</ele>
        <time>2022-03-02T13:48:44Z</time>
      </trkpt>
      <trkpt lat="49.93151" lon="2.19507">
        <ele>15</ele>
        <time>2022-03-02T13:48:45Z</time>
      </trkpt>
      <trkpt lat="49.9315" lon="2.19509">
        <ele>15</ele>
        <time>2022-03-02T13:48:46Z</time>
      </trkpt>
      <trkpt lat="49.9315" lon="2.19511">
        <ele>15</ele>
        <time>2022-03-02T13:48:47Z</time>
      </trkpt>
      <trkpt lat="49.93149" lon="2.19513">
        <ele>15</ele>
        <time>2022-03-02T13:48:48Z</time>
      </trkpt>
      <trkpt lat="49.93148" lon="2.19516">
        <ele>15</ele>
        <time>2022-03-02T13:48:49Z</time>
      </trkpt>
      <trkpt lat="49.93146" lon="2.19519">
        <ele>15</ele>
        <time>2022-03-02T13:48:50Z</time>
      </trkpt>
      <trkpt lat="49.93146" lon="2.19521">
        <ele>15</ele>
        <time>2022-03-02T13:48:51Z</time>
      </trkpt>
      <trkpt lat="49.93145" lon="2.19523">
        <ele>15</ele>
        <time>2022-03-02T13:48:52Z</time>
      </trkpt>
      <trkpt lat="49.93144" lon="2.19525">
        <ele>15</ele>
        <time>2022-03-02T13:48:53Z</time>
      </trkpt>
      <trkpt lat="49.93143" lon="2.19527">
        <ele>15</ele>
        <time>2022-03-02T13:48:54Z</time>
      </trkpt>
      <trkpt lat="49.93142" lon="2.19529">
        <ele>15</ele>
        <time>2022-03-02T13:48:55Z</time>
      </trkpt>
      <trkpt lat="49.9314" lon="2.19533">
        <ele>15</ele>
        <time>2022-03-02T13:48:56Z</time>
      </trkpt>
      <trkpt lat="49.93139" lon="2.19534">
        <ele>15</ele>
        <time>2022-03-02T13:48:57Z</time>
      </trkpt>
      <trkpt lat="49.93138" lon="2.19536">
        <ele>15</ele>
        <time>2022-03-02T13:48:59Z</time>
      </trkpt>
      <trkpt lat="49.93138" lon="2.19538">
        <ele>15</ele>
        <time>2022-03-02T13:49:00Z</time>
      </trkpt>
      <trkpt lat="49.93137" lon="2.19541">
        <ele>15</ele>
        <time>2022-03-02T13:49:01Z</time>
      </trkpt>
      <trkpt lat="49.93137" lon="2.19542">
        <ele>15.1</ele>
        <time>2022-03-02T13:49:02Z</time>
      </trkpt>
      <trkpt lat="49.93137" lon="2.19544">
        <ele>15.1</ele>
        <time>2022-03-02T13:49:03Z</time>
      </trkpt>
      <trkpt lat="49.93136" lon="2.19545">
        <ele>15.1</ele>
        <time>2022-03-02T13:49:04Z</time>
      </trkpt>
      <trkpt lat="49.93136" lon="2.19547">
        <ele>15.1</ele>
        <time>2022-03-02T13:49:05Z</time>
      </trkpt>
      <trkpt lat="49.93136" lon="2.19549">
        <ele>15.1</ele>
        <time>2022-03-02T13:49:06Z</time>
      </trkpt>
      <trkpt lat="49.93136" lon="2.19551">
        <ele>15.1</ele>
        <time>2022-03-02T13:49:08Z</time>
      </trkpt>
      <trkpt lat="49.93137" lon="2.19552">
        <ele>15.1</ele>
        <time>2022-03-02T13:49:09Z</time>
      </trkpt>
      <trkpt lat="49.93137" lon="2.19554">
        <ele>15.1</ele>
        <time>2022-03-02T13:49:10Z</time>
      </trkpt>
      <trkpt lat="49.93138" lon="2.19555">
        <ele>15.1</ele>
        <time>2022-03-02T13:49:11Z</time>
      </trkpt>
      <trkpt lat="49.93138" lon="2.19557">
        <ele>15.1</ele>
        <time>2022-03-02T13:49:12Z</time>
      </trkpt>
      <trkpt lat="49.93138" lon="2.19558">
        <ele>15.1</ele>
        <time>2022-03-02T13:49:13Z</time>
      </trkpt>
      <trkpt lat="49.93139" lon="2.1956">
        <ele>15.1</ele>
        <time>2022-03-02T13:49:14Z</time>
      </trkpt>
      <trkpt lat="49.93139" lon="2.19562">
        <ele>15.1</ele>
        <time>2022-03-02T13:49:15Z</time>
      </trkpt>
      <trkpt lat="49.93139" lon="2.19564">
        <ele>15.1</ele>
        <time>2022-03-02T13:49:17Z</time>
      </trkpt>
      <trkpt lat="49.9314" lon="2.19566">
        <ele>15.1</ele>
        <time>2022-03-02T13:49:18Z</time>
      </trkpt>
      <trkpt lat="49.9314" lon="2.19569">
        <ele>15.1</ele>
        <time>2022-03-02T13:49:19Z</time>
      </trkpt>
      <trkpt lat="49.9314" lon="2.19571">
        <ele>15.2</ele>
        <time>2022-03-02T13:49:20Z</time>
      </trkpt>
      <trkpt lat="49.9314" lon="2.19572">
        <ele>15.2</ele>
        <time>2022-03-02T13:49:21Z</time>
      </trkpt>
      <trkpt lat="49.9314" lon="2.19576">
        <ele>15.2</ele>
        <time>2022-03-02T13:49:22Z</time>
      </trkpt>
      <trkpt lat="49.9314" lon="2.19577">
        <ele>15.2</ele>
        <time>2022-03-02T13:49:23Z</time>
      </trkpt>
      <trkpt lat="49.9314" lon="2.19578">
        <ele>15.2</ele>
        <time>2022-03-02T13:49:24Z</time>
      </trkpt>
      <trkpt lat="49.93139" lon="2.1958">
        <ele>15.2</ele>
        <time>2022-03-02T13:49:25Z</time>
      </trkpt>
      <trkpt lat="49.93139" lon="2.19582">
        <ele>15.2</ele>
        <time>2022-03-02T13:49:26Z</time>
      </trkpt>
      <trkpt lat="49.93137" lon="2.19587">
        <ele>15.2</ele>
        <time>2022-03-02T13:49:28Z</time>
      </trkpt>
      <trkpt lat="49.93137" lon="2.19587">
        <ele>15.2</ele>
        <time>2022-03-02T13:49:29Z</time>
      </trkpt>
      <trkpt lat="49.93136" lon="2.19589">
        <ele>15.2</ele>
        <time>2022-03-02T13:49:30Z</time>
      </trkpt>
      <trkpt lat="49.93135" lon="2.19592">
        <ele>15.2</ele>
        <time>2022-03-02T13:49:31Z</time>
      </trkpt>
      <trkpt lat="49.93133" lon="2.19595">
        <ele>15.2</ele>
        <time>2022-03-02T13:49:32Z</time>
      </trkpt>
      <trkpt lat="49.93133" lon="2.19597">
        <ele>15.2</ele>
        <time>2022-03-02T13:49:33Z</time>
      </trkpt>
      <trkpt lat="49.93132" lon="2.19599">
        <ele>15.2</ele>
        <time>2022-03-02T13:49:34Z</time>
      </trkpt>
      <trkpt lat="49.93131" lon="2.19602">
        <ele>15.2</ele>
        <time>2022-03-02T13:49:35Z</time>
      </trkpt>
      <trkpt lat="49.9313" lon="2.19605">
        <ele>15.2</ele>
        <time>2022-03-02T13:49:37Z</time>
      </trkpt>
      <trkpt lat="49.9313" lon="2.19607">
        <ele>15.2</ele>
        <time>2022-03-02T13:49:38Z</time>
      </trkpt>
      <trkpt lat="49.9313" lon="2.19609">
        <ele>15.2</ele>
        <time>2022-03-02T13:49:39Z</time>
      </trkpt>
      <trkpt lat="49.93129" lon="2.19611">
        <ele>15.2</ele>
        <time>2022-03-02T13:49:40Z</time>
      </trkpt>
      <trkpt lat="49.93129" lon="2.19613">
        <ele>15.2</ele>
        <time>2022-03-02T13:49:41Z</time>
      </trkpt>
      <trkpt lat="49.93129" lon="2.19614">
        <ele>15.2</ele>
        <time>2022-03-02T13:49:42Z</time>
      </trkpt>
      <trkpt lat="49.9313" lon="2.19616">
        <ele>15.2</ele>
        <time>2022-03-02T13:49:43Z</time>
      </trkpt>
      <trkpt lat="49.9313" lon="2.19619">
        <ele>15.2</ele>
        <time>2022-03-02T13:49:45Z</time>
      </trkpt>
      <trkpt lat="49.9313" lon="2.19621">
        <ele>15.2</ele>
        <time>2022-03-02T13:49:46Z</time>
      </trkpt>
      <trkpt lat="49.9313" lon="2.19622">
        <ele>15.2</ele>
        <time>2022-03-02T13:49:47Z</time>
      </trkpt>
      <trkpt lat="49.93131" lon="2.19623">
        <ele>15.2</ele>
        <time>2022-03-02T13:49:48Z</time>
      </trkpt>
      <trkpt lat="49.93131" lon="2.19625">
        <ele>15.2</ele>
        <time>2022-03-02T13:49:49Z</time>
      </trkpt>
      <trkpt lat="49.93131" lon="2.19628">
        <ele>15.2</ele>
        <time>2022-03-02T13:49:50Z</time>
      </trkpt>
      <trkpt lat="49.93131" lon="2.1963">
        <ele>15.2</ele>
        <time>2022-03-02T13:49:51Z</time>
      </trkpt>
      <trkpt lat="49.93131" lon="2.19631">
        <ele>15.2</ele>
        <time>2022-03-02T13:49:52Z</time>
      </trkpt>
      <trkpt lat="49.93131" lon="2.19633">
        <ele>15.2</ele>
        <time>2022-03-02T13:49:53Z</time>
      </trkpt>
      <trkpt lat="49.93132" lon="2.19635">
        <ele>15.2</ele>
        <time>2022-03-02T13:49:55Z</time>
      </trkpt>
      <trkpt lat="49.93132" lon="2.19637">
        <ele>15.2</ele>
        <time>2022-03-02T13:49:56Z</time>
      </trkpt>
      <trkpt lat="49.93133" lon="2.19638">
        <ele>15.2</ele>
        <time>2022-03-02T13:49:57Z</time>
      </trkpt>
      <trkpt lat="49.93133" lon="2.1964">
        <ele>15.2</ele>
        <time>2022-03-02T13:49:58Z</time>
      </trkpt>
      <trkpt lat="49.93133" lon="2.19641">
        <ele>15.2</ele>
        <time>2022-03-02T13:49:59Z</time>
      </trkpt>
      <trkpt lat="49.93134" lon="2.19644">
        <ele>15.2</ele>
        <time>2022-03-02T13:50:01Z</time>
      </trkpt>
      <trkpt lat="49.93134" lon="2.19645">
        <ele>15.2</ele>
        <time>2022-03-02T13:50:02Z</time>
      </trkpt>
      <trkpt lat="49.93134" lon="2.19647">
        <ele>15.3</ele>
        <time>2022-03-02T13:50:03Z</time>
      </trkpt>
      <trkpt lat="49.93133" lon="2.1965">
        <ele>15.3</ele>
        <time>2022-03-02T13:50:04Z</time>
      </trkpt>
      <trkpt lat="49.93132" lon="2.19653">
        <ele>15.3</ele>
        <time>2022-03-02T13:50:05Z</time>
      </trkpt>
      <trkpt lat="49.93132" lon="2.19654">
        <ele>15.3</ele>
        <time>2022-03-02T13:50:06Z</time>
      </trkpt>
      <trkpt lat="49.93132" lon="2.19656">
        <ele>15.3</ele>
        <time>2022-03-02T13:50:07Z</time>
      </trkpt>
      <trkpt lat="49.93131" lon="2.19658">
        <ele>15.3</ele>
        <time>2022-03-02T13:50:08Z</time>
      </trkpt>
      <trkpt lat="49.93131" lon="2.1966">
        <ele>15.3</ele>
        <time>2022-03-02T13:50:09Z</time>
      </trkpt>
      <trkpt lat="49.9313" lon="2.19662">
        <ele>15.3</ele>
        <time>2022-03-02T13:50:10Z</time>
      </trkpt>
      <trkpt lat="49.93129" lon="2.19663">
        <ele>15.3</ele>
        <time>2022-03-02T13:50:11Z</time>
      </trkpt>
      <trkpt lat="49.93128" lon="2.19665">
        <ele>15.3</ele>
        <time>2022-03-02T13:50:12Z</time>
      </trkpt>
      <trkpt lat="49.93127" lon="2.19667">
        <ele>15.3</ele>
        <time>2022-03-02T13:50:13Z</time>
      </trkpt>
      <trkpt lat="49.93126" lon="2.1967">
        <ele>15.3</ele>
        <time>2022-03-02T13:50:14Z</time>
      </trkpt>
      <trkpt lat="49.93126" lon="2.19672">
        <ele>15.3</ele>
        <time>2022-03-02T13:50:16Z</time>
      </trkpt>
      <trkpt lat="49.93125" lon="2.19674">
        <ele>15.3</ele>
        <time>2022-03-02T13:50:17Z</time>
      </trkpt>
      <trkpt lat="49.93125" lon="2.19676">
        <ele>15.3</ele>
        <time>2022-03-02T13:50:18Z</time>
      </trkpt>
      <trkpt lat="49.93125" lon="2.19677">
        <ele>15.3</ele>
        <time>2022-03-02T13:50:19Z</time>
      </trkpt>
      <trkpt lat="49.93124" lon="2.1968">
        <ele>15.3</ele>
        <time>2022-03-02T13:50:20Z</time>
      </trkpt>
      <trkpt lat="49.93124" lon="2.19682">
        <ele>15.3</ele>
        <time>2022-03-02T13:50:21Z</time>
      </trkpt>
      <trkpt lat="49.93123" lon="2.19686">
        <ele>15.3</ele>
        <time>2022-03-02T13:50:23Z</time>
      </trkpt>
      <trkpt lat="49.93122" lon="2.19687">
        <ele>15.3</ele>
        <time>2022-03-02T13:50:24Z</time>
      </trkpt>
      <trkpt lat="49.93122" lon="2.19689">
        <ele>15.3</ele>
        <time>2022-03-02T13:50:25Z</time>
      </trkpt>
      <trkpt lat="49.93121" lon="2.19691">
        <ele>15.3</ele>
        <time>2022-03-02T13:50:26Z</time>
      </trkpt>
      <trkpt lat="49.9312" lon="2.19694">
        <ele>15.3</ele>
        <time>2022-03-02T13:50:27Z</time>
      </trkpt>
      <trkpt lat="49.93119" lon="2.19697">
        <ele>15.3</ele>
        <time>2022-03-02T13:50:29Z</time>
      </trkpt>
      <trkpt lat="49.93119" lon="2.19699">
        <ele>15.3</ele>
        <time>2022-03-02T13:50:30Z</time>
      </trkpt>
      <trkpt lat="49.93118" lon="2.19702">
        <ele>15.3</ele>
        <time>2022-03-02T13:50:31Z</time>
      </trkpt>
      <trkpt lat="49.93117" lon="2.19704">
        <ele>15.3</ele>
        <time>2022-03-02T13:50:32Z</time>
      </trkpt>
      <trkpt lat="49.93116" lon="2.19707">
        <ele>15.3</ele>
        <time>2022-03-02T13:50:33Z</time>
      </trkpt>
      <trkpt lat="49.93114" lon="2.19711">
        <ele>15.3</ele>
        <time>2022-03-02T13:50:35Z</time>
      </trkpt>
      <trkpt lat="49.93114" lon="2.19712">
        <ele>15.3</ele>
        <time>2022-03-02T13:50:36Z</time>
      </trkpt>
      <trkpt lat="49.93114" lon="2.19714">
        <ele>15.3</ele>
        <time>2022-03-02T13:50:37Z</time>
      </trkpt>
      <trkpt lat="49.93113" lon="2.19715">
        <ele>15.3</ele>
        <time>2022-03-02T13:50:38Z</time>
      </trkpt>
      <trkpt lat="49.93113" lon="2.19717">
        <ele>15.3</ele>
        <time>2022-03-02T13:50:39Z</time>
      </trkpt>
      <trkpt lat="49.93112" lon="2.19719">
        <ele>15.3</ele>
        <time>2022-03-02T13:50:40Z</time>
      </trkpt>
      <trkpt lat="49.93112" lon="2.19721">
        <ele>15.3</ele>
        <time>2022-03-02T13:50:41Z</time>
      </trkpt>
      <trkpt lat="49.93111" lon="2.19723">
        <ele>15.3</ele>
        <time>2022-03-02T13:50:43Z</time>
      </trkpt>
      <trkpt lat="49.93111" lon="2.19725">
        <ele>15.3</ele>
        <time>2022-03-02T13:50:44Z</time>
      </trkpt>
      <trkpt lat="49.93111" lon="2.19727">
        <ele>15.3</ele>
        <time>2022-03-02T13:50:45Z</time>
      </trkpt>
      <trkpt lat="49.93111" lon="2.19728">
        <ele>15.3</ele>
        <time>2022-03-02T13:50:46Z</time>
      </trkpt>
      <trkpt lat="49.9311" lon="2.19731">
        <ele>15.3</ele>
        <time>2022-03-02T13:50:47Z</time>
      </trkpt>
      <trkpt lat="49.9311" lon="2.19732">
        <ele>15.3</ele>
        <time>2022-03-02T13:50:48Z</time>
      </trkpt>
      <trkpt lat="49.9311" lon="2.19733">
        <ele>15.3</ele>
        <time>2022-03-02T13:50:49Z</time>
      </trkpt>
      <trkpt lat="49.93109" lon="2.19735">
        <ele>15.3</ele>
        <time>2022-03-02T13:50:50Z</time>
      </trkpt>
      <trkpt lat="49.93109" lon="2.19737">
        <ele>15.3</ele>
        <time>2022-03-02T13:50:52Z</time>
      </trkpt>
      <trkpt lat="49.93108" lon="2.19739">
        <ele>15.3</ele>
        <time>2022-03-02T13:50:53Z</time>
      </trkpt>
      <trkpt lat="49.93108" lon="2.19741">
        <ele>15.3</ele>
        <time>2022-03-02T13:50:54Z</time>
      </trkpt>
      <trkpt lat="49.93107" lon="2.19743">
        <ele>15.3</ele>
        <time>2022-03-02T13:50:56Z</time>
      </trkpt>
      <trkpt lat="49.93107" lon="2.19746">
        <ele>15.3</ele>
        <time>2022-03-02T13:50:57Z</time>
      </trkpt>
      <trkpt lat="49.93106" lon="2.19747">
        <ele>15.3</ele>
        <time>2022-03-02T13:50:58Z</time>
      </trkpt>
      <trkpt lat="49.93106" lon="2.19749">
        <ele>15.3</ele>
        <time>2022-03-02T13:50:59Z</time>
      </trkpt>
      <trkpt lat="49.93105" lon="2.1975">
        <ele>15.3</ele>
        <time>2022-03-02T13:51:00Z</time>
      </trkpt>
      <trkpt lat="49.93105" lon="2.19752">
        <ele>15.3</ele>
        <time>2022-03-02T13:51:01Z</time>
      </trkpt>
      <trkpt lat="49.93104" lon="2.19754">
        <ele>15.3</ele>
        <time>2022-03-02T13:51:02Z</time>
      </trkpt>
      <trkpt lat="49.93103" lon="2.19756">
        <ele>15.3</ele>
        <time>2022-03-02T13:51:03Z</time>
      </trkpt>
      <trkpt lat="49.93103" lon="2.19757">
        <ele>15.3</ele>
        <time>2022-03-02T13:51:04Z</time>
      </trkpt>
      <trkpt lat="49.93102" lon="2.19759">
        <ele>15.3</ele>
        <time>2022-03-02T13:51:05Z</time>
      </trkpt>
      <trkpt lat="49.93101" lon="2.1976">
        <ele>15.3</ele>
        <time>2022-03-02T13:51:06Z</time>
      </trkpt>
      <trkpt lat="49.931" lon="2.19761">
        <ele>15.3</ele>
        <time>2022-03-02T13:51:07Z</time>
      </trkpt>
      <trkpt lat="49.93098" lon="2.19762">
        <ele>15.3</ele>
        <time>2022-03-02T13:51:09Z</time>
      </trkpt>
      <trkpt lat="49.93097" lon="2.19763">
        <ele>15.3</ele>
        <time>2022-03-02T13:51:10Z</time>
      </trkpt>
      <trkpt lat="49.93096" lon="2.19764">
        <ele>15.2</ele>
        <time>2022-03-02T13:51:11Z</time>
      </trkpt>
      <trkpt lat="49.93094" lon="2.19767">
        <ele>15.2</ele>
        <time>2022-03-02T13:51:12Z</time>
      </trkpt>
      <trkpt lat="49.93094" lon="2.19769">
        <ele>15.2</ele>
        <time>2022-03-02T13:51:13Z</time>
      </trkpt>
      <trkpt lat="49.93093" lon="2.1977">
        <ele>15.2</ele>
        <time>2022-03-02T13:51:14Z</time>
      </trkpt>
      <trkpt lat="49.93093" lon="2.19773">
        <ele>15.2</ele>
        <time>2022-03-02T13:51:15Z</time>
      </trkpt>
      <trkpt lat="49.93092" lon="2.19775">
        <ele>15.2</ele>
        <time>2022-03-02T13:51:17Z</time>
      </trkpt>
      <trkpt lat="49.93091" lon="2.19778">
        <ele>15.2</ele>
        <time>2022-03-02T13:51:18Z</time>
      </trkpt>
      <trkpt lat="49.93091" lon="2.19781">
        <ele>15.2</ele>
        <time>2022-03-02T13:51:19Z</time>
      </trkpt>
      <trkpt lat="49.93091" lon="2.19783">
        <ele>15.2</ele>
        <time>2022-03-02T13:51:20Z</time>
      </trkpt>
      <trkpt lat="49.9309" lon="2.19787">
        <ele>15.2</ele>
        <time>2022-03-02T13:51:22Z</time>
      </trkpt>
      <trkpt lat="49.9309" lon="2.1979">
        <ele>15.2</ele>
        <time>2022-03-02T13:51:23Z</time>
      </trkpt>
      <trkpt lat="49.9309" lon="2.19792">
        <ele>15.2</ele>
        <time>2022-03-02T13:51:24Z</time>
      </trkpt>
      <trkpt lat="49.9309" lon="2.19794">
        <ele>15.2</ele>
        <time>2022-03-02T13:51:25Z</time>
      </trkpt>
      <trkpt lat="49.93091" lon="2.19797">
        <ele>15.2</ele>
        <time>2022-03-02T13:51:26Z</time>
      </trkpt>
      <trkpt lat="49.93091" lon="2.19799">
        <ele>15.2</ele>
        <time>2022-03-02T13:51:27Z</time>
      </trkpt>
      <trkpt lat="49.93092" lon="2.19802">
        <ele>15.2</ele>
        <time>2022-03-02T13:51:28Z</time>
      </trkpt>
      <trkpt lat="49.93092" lon="2.19804">
        <ele>15.2</ele>
        <time>2022-03-02T13:51:29Z</time>
      </trkpt>
      <trkpt lat="49.93092" lon="2.19806">
        <ele>15.2</ele>
        <time>2022-03-02T13:51:30Z</time>
      </trkpt>
      <trkpt lat="49.93092" lon="2.19808">
        <ele>15.2</ele>
        <time>2022-03-02T13:51:32Z</time>
      </trkpt>
      <trkpt lat="49.93091" lon="2.19811">
        <ele>15.2</ele>
        <time>2022-03-02T13:51:33Z</time>
      </trkpt>
      <trkpt lat="49.93091" lon="2.19813">
        <ele>15.2</ele>
        <time>2022-03-02T13:51:34Z</time>
      </trkpt>
      <trkpt lat="49.93091" lon="2.19815">
        <ele>15.2</ele>
        <time>2022-03-02T13:51:35Z</time>
      </trkpt>
      <trkpt lat="49.93091" lon="2.19817">
        <ele>15.2</ele>
        <time>2022-03-02T13:51:36Z</time>
      </trkpt>
      <trkpt lat="49.9309" lon="2.19819">
        <ele>15.2</ele>
        <time>2022-03-02T13:51:37Z</time>
      </trkpt>
      <trkpt lat="49.9309" lon="2.19822">
        <ele>15.2</ele>
        <time>2022-03-02T13:51:38Z</time>
      </trkpt>
      <trkpt lat="49.9309" lon="2.19823">
        <ele>15.2</ele>
        <time>2022-03-02T13:51:39Z</time>
      </trkpt>
      <trkpt lat="49.9309" lon="2.19825">
        <ele>15.2</ele>
        <time>2022-03-02T13:51:40Z</time>
      </trkpt>
      <trkpt lat="49.9309" lon="2.19828">
        <ele>15.2</ele>
        <time>2022-03-02T13:51:41Z</time>
      </trkpt>
      <trkpt lat="49.9309" lon="2.1983">
        <ele>15.2</ele>
        <time>2022-03-02T13:51:43Z</time>
      </trkpt>
      <trkpt lat="49.9309" lon="2.19831">
        <ele>15.2</ele>
        <time>2022-03-02T13:51:44Z</time>
      </trkpt>
      <trkpt lat="49.93089" lon="2.19833">
        <ele>15.2</ele>
        <time>2022-03-02T13:51:45Z</time>
      </trkpt>
      <trkpt lat="49.93089" lon="2.19835">
        <ele>15.2</ele>
        <time>2022-03-02T13:51:46Z</time>
      </trkpt>
      <trkpt lat="49.93089" lon="2.19837">
        <ele>15.2</ele>
        <time>2022-03-02T13:51:47Z</time>
      </trkpt>
      <trkpt lat="49.93088" lon="2.19839">
        <ele>15.2</ele>
        <time>2022-03-02T13:51:48Z</time>
      </trkpt>
      <trkpt lat="49.93088" lon="2.1984">
        <ele>15.2</ele>
        <time>2022-03-02T13:51:49Z</time>
      </trkpt>
      <trkpt lat="49.93087" lon="2.19843">
        <ele>15.2</ele>
        <time>2022-03-02T13:51:51Z</time>
      </trkpt>
      <trkpt lat="49.93086" lon="2.19845">
        <ele>15.2</ele>
        <time>2022-03-02T13:51:52Z</time>
      </trkpt>
      <trkpt lat="49.93086" lon="2.19846">
        <ele>15.2</ele>
        <time>2022-03-02T13:51:53Z</time>
      </trkpt>
      <trkpt lat="49.93085" lon="2.19848">
        <ele>15.2</ele>
        <time>2022-03-02T13:51:54Z</time>
      </trkpt>
      <trkpt lat="49.93085" lon="2.1985">
        <ele>15.2</ele>
        <time>2022-03-02T13:51:55Z</time>
      </trkpt>
      <trkpt lat="49.93084" lon="2.19852">
        <ele>15.2</ele>
        <time>2022-03-02T13:51:56Z</time>
      </trkpt>
      <trkpt lat="49.93084" lon="2.19855">
        <ele>15.2</ele>
        <time>2022-03-02T13:51:57Z</time>
      </trkpt>
      <trkpt lat="49.93084" lon="2.19856">
        <ele>15.2</ele>
        <time>2022-03-02T13:51:58Z</time>
      </trkpt>
      <trkpt lat="49.93084" lon="2.19858">
        <ele>15.2</ele>
        <time>2022-03-02T13:51:59Z</time>
      </trkpt>
      <trkpt lat="49.93083" lon="2.19861">
        <ele>15.2</ele>
        <time>2022-03-02T13:52:01Z</time>
      </trkpt>
      <trkpt lat="49.93083" lon="2.19862">
        <ele>15.2</ele>
        <time>2022-03-02T13:52:02Z</time>
      </trkpt>
      <trkpt lat="49.93083" lon="2.19864">
        <ele>15.2</ele>
        <time>2022-03-02T13:52:03Z</time>
      </trkpt>
      <trkpt lat="49.93083" lon="2.19866">
        <ele>15.2</ele>
        <time>2022-03-02T13:52:04Z</time>
      </trkpt>
      <trkpt lat="49.93083" lon="2.19867">
        <ele>15.2</ele>
        <time>2022-03-02T13:52:05Z</time>
      </trkpt>
      <trkpt lat="49.93082" lon="2.19869">
        <ele>15.2</ele>
        <time>2022-03-02T13:52:06Z</time>
      </trkpt>
      <trkpt lat="49.93081" lon="2.19871">
        <ele>15.2</ele>
        <time>2022-03-02T13:52:07Z</time>
      </trkpt>
      <trkpt lat="49.93081" lon="2.19873">
        <ele>15.2</ele>
        <time>2022-03-02T13:52:09Z</time>
      </trkpt>
      <trkpt lat="49.9308" lon="2.19875">
        <ele>15.2</ele>
        <time>2022-03-02T13:52:10Z</time>
      </trkpt>
      <trkpt lat="49.9308" lon="2.19879">
        <ele>15.2</ele>
        <time>2022-03-02T13:52:11Z</time>
      </trkpt>
      <trkpt lat="49.9308" lon="2.1988">
        <ele>15.2</ele>
        <time>2022-03-02T13:52:12Z</time>
      </trkpt>
      <trkpt lat="49.9308" lon="2.19881">
        <ele>15.2</ele>
        <time>2022-03-02T13:52:13Z</time>
      </trkpt>
      <trkpt lat="49.9308" lon="2.19885">
        <ele>15.2</ele>
        <time>2022-03-02T13:52:14Z</time>
      </trkpt>
      <trkpt lat="49.9308" lon="2.19886">
        <ele>15.2</ele>
        <time>2022-03-02T13:52:15Z</time>
      </trkpt>
      <trkpt lat="49.9308" lon="2.19887">
        <ele>15.2</ele>
        <time>2022-03-02T13:52:16Z</time>
      </trkpt>
      <trkpt lat="49.93079" lon="2.1989">
        <ele>15.2</ele>
        <time>2022-03-02T13:52:17Z</time>
      </trkpt>
      <trkpt lat="49.93079" lon="2.19892">
        <ele>15.2</ele>
        <time>2022-03-02T13:52:19Z</time>
      </trkpt>
      <trkpt lat="49.93079" lon="2.19893">
        <ele>15.2</ele>
        <time>2022-03-02T13:52:20Z</time>
      </trkpt>
      <trkpt lat="49.93079" lon="2.19895">
        <ele>15.2</ele>
        <time>2022-03-02T13:52:21Z</time>
      </trkpt>
      <trkpt lat="49.93079" lon="2.19897">
        <ele>15.2</ele>
        <time>2022-03-02T13:52:22Z</time>
      </trkpt>
      <trkpt lat="49.93079" lon="2.19899">
        <ele>15.2</ele>
        <time>2022-03-02T13:52:23Z</time>
      </trkpt>
      <trkpt lat="49.93079" lon="2.199">
        <ele>15.2</ele>
        <time>2022-03-02T13:52:24Z</time>
      </trkpt>
      <trkpt lat="49.93079" lon="2.19903">
        <ele>15.2</ele>
        <time>2022-03-02T13:52:26Z</time>
      </trkpt>
      <trkpt lat="49.93079" lon="2.19905">
        <ele>15.2</ele>
        <time>2022-03-02T13:52:27Z</time>
      </trkpt>
      <trkpt lat="49.93079" lon="2.19906">
        <ele>15.2</ele>
        <time>2022-03-02T13:52:28Z</time>
      </trkpt>
      <trkpt lat="49.93079" lon="2.19908">
        <ele>15.2</ele>
        <time>2022-03-02T13:52:29Z</time>
      </trkpt>
      <trkpt lat="49.93078" lon="2.19911">
        <ele>15.2</ele>
        <time>2022-03-02T13:52:30Z</time>
      </trkpt>
      <trkpt lat="49.93078" lon="2.19913">
        <ele>15.2</ele>
        <time>2022-03-02T13:52:31Z</time>
      </trkpt>
      <trkpt lat="49.93078" lon="2.19914">
        <ele>15.2</ele>
        <time>2022-03-02T13:52:32Z</time>
      </trkpt>
      <trkpt lat="49.93076" lon="2.19917">
        <ele>15.2</ele>
        <time>2022-03-02T13:52:33Z</time>
      </trkpt>
      <trkpt lat="49.93076" lon="2.19918">
        <ele>15.2</ele>
        <time>2022-03-02T13:52:34Z</time>
      </trkpt>
      <trkpt lat="49.93075" lon="2.19919">
        <ele>15.2</ele>
        <time>2022-03-02T13:52:35Z</time>
      </trkpt>
      <trkpt lat="49.93074" lon="2.19922">
        <ele>15.2</ele>
        <time>2022-03-02T13:52:37Z</time>
      </trkpt>
      <trkpt lat="49.93074" lon="2.19924">
        <ele>15.2</ele>
        <time>2022-03-02T13:52:38Z</time>
      </trkpt>
      <trkpt lat="49.93073" lon="2.19926">
        <ele>15.2</ele>
        <time>2022-03-02T13:52:39Z</time>
      </trkpt>
      <trkpt lat="49.93073" lon="2.19928">
        <ele>15.2</ele>
        <time>2022-03-02T13:52:40Z</time>
      </trkpt>
      <trkpt lat="49.93072" lon="2.19933">
        <ele>15.2</ele>
        <time>2022-03-02T13:52:42Z</time>
      </trkpt>
      <trkpt lat="49.93072" lon="2.19934">
        <ele>15.2</ele>
        <time>2022-03-02T13:52:43Z</time>
      </trkpt>
      <trkpt lat="49.93071" lon="2.19937">
        <ele>15.2</ele>
        <time>2022-03-02T13:52:44Z</time>
      </trkpt>
      <trkpt lat="49.93071" lon="2.19939">
        <ele>15.2</ele>
        <time>2022-03-02T13:52:45Z</time>
      </trkpt>
      <trkpt lat="49.9307" lon="2.19942">
        <ele>15.2</ele>
        <time>2022-03-02T13:52:46Z</time>
      </trkpt>
      <trkpt lat="49.9307" lon="2.19945">
        <ele>15.1</ele>
        <time>2022-03-02T13:52:47Z</time>
      </trkpt>
      <trkpt lat="49.93069" lon="2.19948">
        <ele>15.1</ele>
        <time>2022-03-02T13:52:48Z</time>
      </trkpt>
      <trkpt lat="49.93069" lon="2.1995">
        <ele>15.1</ele>
        <time>2022-03-02T13:52:49Z</time>
      </trkpt>
      <trkpt lat="49.93068" lon="2.19952">
        <ele>15.1</ele>
        <time>2022-03-02T13:52:50Z</time>
      </trkpt>
      <trkpt lat="49.93067" lon="2.19954">
        <ele>15.1</ele>
        <time>2022-03-02T13:52:51Z</time>
      </trkpt>
      <trkpt lat="49.93066" lon="2.19956">
        <ele>15.1</ele>
        <time>2022-03-02T13:52:52Z</time>
      </trkpt>
      <trkpt lat="49.93066" lon="2.19958">
        <ele>15.1</ele>
        <time>2022-03-02T13:52:53Z</time>
      </trkpt>
      <trkpt lat="49.93065" lon="2.19961">
        <ele>15.1</ele>
        <time>2022-03-02T13:52:54Z</time>
      </trkpt>
      <trkpt lat="49.93064" lon="2.19963">
        <ele>15.1</ele>
        <time>2022-03-02T13:52:56Z</time>
      </trkpt>
      <trkpt lat="49.93064" lon="2.19965">
        <ele>15.1</ele>
        <time>2022-03-02T13:52:57Z</time>
      </trkpt>
      <trkpt lat="49.93063" lon="2.19967">
        <ele>15.1</ele>
        <time>2022-03-02T13:52:58Z</time>
      </trkpt>
      <trkpt lat="49.93062" lon="2.1997">
        <ele>15.2</ele>
        <time>2022-03-02T13:52:59Z</time>
      </trkpt>
      <trkpt lat="49.93062" lon="2.19971">
        <ele>15.2</ele>
        <time>2022-03-02T13:53:00Z</time>
      </trkpt>
      <trkpt lat="49.93061" lon="2.19972">
        <ele>15.2</ele>
        <time>2022-03-02T13:53:01Z</time>
      </trkpt>
      <trkpt lat="49.9306" lon="2.19974">
        <ele>15.2</ele>
        <time>2022-03-02T13:53:02Z</time>
      </trkpt>
      <trkpt lat="49.93059" lon="2.19975">
        <ele>15.2</ele>
        <time>2022-03-02T13:53:03Z</time>
      </trkpt>
      <trkpt lat="49.93059" lon="2.19977">
        <ele>15.2</ele>
        <time>2022-03-02T13:53:05Z</time>
      </trkpt>
      <trkpt lat="49.93059" lon="2.19978">
        <ele>15.2</ele>
        <time>2022-03-02T13:53:06Z</time>
      </trkpt>
      <trkpt lat="49.93058" lon="2.1998">
        <ele>15.2</ele>
        <time>2022-03-02T13:53:07Z</time>
      </trkpt>
      <trkpt lat="49.93058" lon="2.19981">
        <ele>15.2</ele>
        <time>2022-03-02T13:53:08Z</time>
      </trkpt>
      <trkpt lat="49.93058" lon="2.19982">
        <ele>15.2</ele>
        <time>2022-03-02T13:53:09Z</time>
      </trkpt>
      <trkpt lat="49.93058" lon="2.19984">
        <ele>15.2</ele>
        <time>2022-03-02T13:53:10Z</time>
      </trkpt>
      <trkpt lat="49.93058" lon="2.19986">
        <ele>15.2</ele>
        <time>2022-03-02T13:53:11Z</time>
      </trkpt>
      <trkpt lat="49.93057" lon="2.19988">
        <ele>15.2</ele>
        <time>2022-03-02T13:53:12Z</time>
      </trkpt>
      <trkpt lat="49.93057" lon="2.19989">
        <ele>15.2</ele>
        <time>2022-03-02T13:53:14Z</time>
      </trkpt>
      <trkpt lat="49.93057" lon="2.19991">
        <ele>15.2</ele>
        <time>2022-03-02T13:53:15Z</time>
      </trkpt>
      <trkpt lat="49.93057" lon="2.19992">
        <ele>15.2</ele>
        <time>2022-03-02T13:53:16Z</time>
      </trkpt>
      <trkpt lat="49.93057" lon="2.19994">
        <ele>15.1</ele>
        <time>2022-03-02T13:53:17Z</time>
      </trkpt>
      <trkpt lat="49.93057" lon="2.19996">
        <ele>15.1</ele>
        <time>2022-03-02T13:53:18Z</time>
      </trkpt>
      <trkpt lat="49.93057" lon="2.19997">
        <ele>15.1</ele>
        <time>2022-03-02T13:53:19Z</time>
      </trkpt>
      <trkpt lat="49.93057" lon="2.19998">
        <ele>15.1</ele>
        <time>2022-03-02T13:53:20Z</time>
      </trkpt>
      <trkpt lat="49.93057" lon="2.2">
        <ele>15.1</ele>
        <time>2022-03-02T13:53:21Z</time>
      </trkpt>
      <trkpt lat="49.93057" lon="2.20001">
        <ele>15.1</ele>
        <time>2022-03-02T13:53:22Z</time>
      </trkpt>
      <trkpt lat="49.93058" lon="2.20003">
        <ele>15.1</ele>
        <time>2022-03-02T13:53:23Z</time>
      </trkpt>
      <trkpt lat="49.93058" lon="2.20003">
        <ele>15.1</ele>
        <time>2022-03-02T13:53:24Z</time>
      </trkpt>
      <trkpt lat="49.93059" lon="2.20002">
        <ele>15.1</ele>
        <time>2022-03-02T13:53:25Z</time>
      </trkpt>
      <trkpt lat="49.93059" lon="2.20003">
        <ele>15.1</ele>
        <time>2022-03-02T13:53:27Z</time>
      </trkpt>
      <trkpt lat="49.93059" lon="2.20004">
        <ele>15.1</ele>
        <time>2022-03-02T13:53:28Z</time>
      </trkpt>
      <trkpt lat="49.93058" lon="2.20006">
        <ele>15.1</ele>
        <time>2022-03-02T13:53:29Z</time>
      </trkpt>
      <trkpt lat="49.93057" lon="2.20006">
        <ele>15.1</ele>
        <time>2022-03-02T13:53:30Z</time>
      </trkpt>
      <trkpt lat="49.93057" lon="2.20007">
        <ele>15.1</ele>
        <time>2022-03-02T13:53:31Z</time>
      </trkpt>
      <trkpt lat="49.93056" lon="2.20008">
        <ele>15.1</ele>
        <time>2022-03-02T13:53:32Z</time>
      </trkpt>
      <trkpt lat="49.93055" lon="2.2001">
        <ele>15.1</ele>
        <time>2022-03-02T13:53:34Z</time>
      </trkpt>
      <trkpt lat="49.93054" lon="2.20011">
        <ele>15.1</ele>
        <time>2022-03-02T13:53:35Z</time>
      </trkpt>
      <trkpt lat="49.93053" lon="2.20013">
        <ele>15.1</ele>
        <time>2022-03-02T13:53:36Z</time>
      </trkpt>
      <trkpt lat="49.93052" lon="2.20015">
        <ele>15.1</ele>
        <time>2022-03-02T13:53:37Z</time>
      </trkpt>
      <trkpt lat="49.93052" lon="2.20016">
        <ele>15.1</ele>
        <time>2022-03-02T13:53:38Z</time>
      </trkpt>
      <trkpt lat="49.93051" lon="2.20017">
        <ele>15.1</ele>
        <time>2022-03-02T13:53:39Z</time>
      </trkpt>
      <trkpt lat="49.9305" lon="2.20019">
        <ele>15.1</ele>
        <time>2022-03-02T13:53:40Z</time>
      </trkpt>
      <trkpt lat="49.9305" lon="2.2002">
        <ele>15.1</ele>
        <time>2022-03-02T13:53:41Z</time>
      </trkpt>
      <trkpt lat="49.9305" lon="2.20021">
        <ele>15.1</ele>
        <time>2022-03-02T13:53:42Z</time>
      </trkpt>
      <trkpt lat="49.93049" lon="2.20023">
        <ele>15.1</ele>
        <time>2022-03-02T13:53:43Z</time>
      </trkpt>
      <trkpt lat="49.93049" lon="2.20024">
        <ele>15.1</ele>
        <time>2022-03-02T13:53:44Z</time>
      </trkpt>
      <trkpt lat="49.93048" lon="2.20026">
        <ele>15.1</ele>
        <time>2022-03-02T13:53:45Z</time>
      </trkpt>
      <trkpt lat="49.93048" lon="2.20027">
        <ele>15.1</ele>
        <time>2022-03-02T13:53:47Z</time>
      </trkpt>
      <trkpt lat="49.93047" lon="2.20028">
        <ele>15.1</ele>
        <time>2022-03-02T13:53:48Z</time>
      </trkpt>
      <trkpt lat="49.93047" lon="2.2003">
        <ele>15.2</ele>
        <time>2022-03-02T13:53:49Z</time>
      </trkpt>
      <trkpt lat="49.93046" lon="2.20031">
        <ele>15.2</ele>
        <time>2022-03-02T13:53:50Z</time>
      </trkpt>
      <trkpt lat="49.93046" lon="2.20032">
        <ele>15.2</ele>
        <time>2022-03-02T13:53:51Z</time>
      </trkpt>
      <trkpt lat="49.93046" lon="2.20033">
        <ele>15.2</ele>
        <time>2022-03-02T13:53:52Z</time>
      </trkpt>
      <trkpt lat="49.93045" lon="2.20035">
        <ele>15.2</ele>
        <time>2022-03-02T13:53:53Z</time>
      </trkpt>
      <trkpt lat="49.93044" lon="2.20037">
        <ele>15.2</ele>
        <time>2022-03-02T13:53:54Z</time>
      </trkpt>
      <trkpt lat="49.93044" lon="2.20038">
        <ele>15.2</ele>
        <time>2022-03-02T13:53:56Z</time>
      </trkpt>
      <trkpt lat="49.93042" lon="2.20041">
        <ele>15.2</ele>
        <time>2022-03-02T13:53:57Z</time>
      </trkpt>
      <trkpt lat="49.93042" lon="2.20042">
        <ele>15.2</ele>
        <time>2022-03-02T13:53:58Z</time>
      </trkpt>
      <trkpt lat="49.93041" lon="2.20043">
        <ele>15.2</ele>
        <time>2022-03-02T13:53:59Z</time>
      </trkpt>
      <trkpt lat="49.9304" lon="2.20046">
        <ele>15.2</ele>
        <time>2022-03-02T13:54:00Z</time>
      </trkpt>
      <trkpt lat="49.9304" lon="2.20048">
        <ele>15.2</ele>
        <time>2022-03-02T13:54:01Z</time>
      </trkpt>
      <trkpt lat="49.93039" lon="2.20049">
        <ele>15.2</ele>
        <time>2022-03-02T13:54:02Z</time>
      </trkpt>
      <trkpt lat="49.93039" lon="2.20051">
        <ele>15.2</ele>
        <time>2022-03-02T13:54:03Z</time>
      </trkpt>
      <trkpt lat="49.93038" lon="2.20053">
        <ele>15.2</ele>
        <time>2022-03-02T13:54:04Z</time>
      </trkpt>
      <trkpt lat="49.93037" lon="2.20056">
        <ele>15.2</ele>
        <time>2022-03-02T13:54:05Z</time>
      </trkpt>
      <trkpt lat="49.93037" lon="2.20057">
        <ele>15.2</ele>
        <time>2022-03-02T13:54:06Z</time>
      </trkpt>
      <trkpt lat="49.93036" lon="2.20058">
        <ele>15.2</ele>
        <time>2022-03-02T13:54:07Z</time>
      </trkpt>
      <trkpt lat="49.93035" lon="2.2006">
        <ele>15.3</ele>
        <time>2022-03-02T13:54:08Z</time>
      </trkpt>
      <trkpt lat="49.93034" lon="2.20061">
        <ele>15.3</ele>
        <time>2022-03-02T13:54:09Z</time>
      </trkpt>
      <trkpt lat="49.93033" lon="2.20063">
        <ele>15.3</ele>
        <time>2022-03-02T13:54:10Z</time>
      </trkpt>
      <trkpt lat="49.93032" lon="2.20065">
        <ele>15.3</ele>
        <time>2022-03-02T13:54:12Z</time>
      </trkpt>
      <trkpt lat="49.93032" lon="2.20067">
        <ele>15.3</ele>
        <time>2022-03-02T13:54:13Z</time>
      </trkpt>
      <trkpt lat="49.93031" lon="2.20068">
        <ele>15.3</ele>
        <time>2022-03-02T13:54:14Z</time>
      </trkpt>
      <trkpt lat="49.9303" lon="2.2007">
        <ele>15.3</ele>
        <time>2022-03-02T13:54:15Z</time>
      </trkpt>
      <trkpt lat="49.93029" lon="2.20072">
        <ele>15.3</ele>
        <time>2022-03-02T13:54:16Z</time>
      </trkpt>
      <trkpt lat="49.93028" lon="2.20074">
        <ele>15.4</ele>
        <time>2022-03-02T13:54:17Z</time>
      </trkpt>
      <trkpt lat="49.93027" lon="2.20076">
        <ele>15.4</ele>
        <time>2022-03-02T13:54:19Z</time>
      </trkpt>
      <trkpt lat="49.93026" lon="2.20078">
        <ele>15.4</ele>
        <time>2022-03-02T13:54:20Z</time>
      </trkpt>
      <trkpt lat="49.93025" lon="2.20079">
        <ele>15.4</ele>
        <time>2022-03-02T13:54:21Z</time>
      </trkpt>
      <trkpt lat="49.93024" lon="2.20081">
        <ele>15.5</ele>
        <time>2022-03-02T13:54:22Z</time>
      </trkpt>
      <trkpt lat="49.93023" lon="2.20083">
        <ele>15.5</ele>
        <time>2022-03-02T13:54:23Z</time>
      </trkpt>
      <trkpt lat="49.93022" lon="2.20085">
        <ele>15.5</ele>
        <time>2022-03-02T13:54:24Z</time>
      </trkpt>
      <trkpt lat="49.93021" lon="2.20087">
        <ele>15.6</ele>
        <time>2022-03-02T13:54:25Z</time>
      </trkpt>
      <trkpt lat="49.9302" lon="2.2009">
        <ele>15.6</ele>
        <time>2022-03-02T13:54:27Z</time>
      </trkpt>
      <trkpt lat="49.93019" lon="2.20091">
        <ele>15.7</ele>
        <time>2022-03-02T13:54:28Z</time>
      </trkpt>
      <trkpt lat="49.93019" lon="2.20092">
        <ele>15.7</ele>
        <time>2022-03-02T13:54:29Z</time>
      </trkpt>
      <trkpt lat="49.93017" lon="2.20094">
        <ele>15.8</ele>
        <time>2022-03-02T13:54:30Z</time>
      </trkpt>
      <trkpt lat="49.93017" lon="2.20095">
        <ele>15.8</ele>
        <time>2022-03-02T13:54:31Z</time>
      </trkpt>
      <trkpt lat="49.93016" lon="2.20096">
        <ele>15.8</ele>
        <time>2022-03-02T13:54:32Z</time>
      </trkpt>
      <trkpt lat="49.93015" lon="2.20099">
        <ele>15.9</ele>
        <time>2022-03-02T13:54:33Z</time>
      </trkpt>
      <trkpt lat="49.93014" lon="2.201">
        <ele>16</ele>
        <time>2022-03-02T13:54:34Z</time>
      </trkpt>
      <trkpt lat="49.93013" lon="2.20101">
        <ele>16</ele>
        <time>2022-03-02T13:54:35Z</time>
      </trkpt>
      <trkpt lat="49.93012" lon="2.20103">
        <ele>16.1</ele>
        <time>2022-03-02T13:54:37Z</time>
      </trkpt>
      <trkpt lat="49.93011" lon="2.20105">
        <ele>16.1</ele>
        <time>2022-03-02T13:54:38Z</time>
      </trkpt>
      <trkpt lat="49.9301" lon="2.20107">
        <ele>16.2</ele>
        <time>2022-03-02T13:54:39Z</time>
      </trkpt>
      <trkpt lat="49.9301" lon="2.20108">
        <ele>16.3</ele>
        <time>2022-03-02T13:54:40Z</time>
      </trkpt>
      <trkpt lat="49.93009" lon="2.2011">
        <ele>16.3</ele>
        <time>2022-03-02T13:54:41Z</time>
      </trkpt>
      <trkpt lat="49.93009" lon="2.20111">
        <ele>16.4</ele>
        <time>2022-03-02T13:54:42Z</time>
      </trkpt>
      <trkpt lat="49.93008" lon="2.20113">
        <ele>16.4</ele>
        <time>2022-03-02T13:54:43Z</time>
      </trkpt>
      <trkpt lat="49.93006" lon="2.20115">
        <ele>16.5</ele>
        <time>2022-03-02T13:54:44Z</time>
      </trkpt>
      <trkpt lat="49.93005" lon="2.20116">
        <ele>16.6</ele>
        <time>2022-03-02T13:54:45Z</time>
      </trkpt>
      <trkpt lat="49.93005" lon="2.20116">
        <ele>16.6</ele>
        <time>2022-03-02T13:54:46Z</time>
      </trkpt>
      <trkpt lat="49.93003" lon="2.20117">
        <ele>16.7</ele>
        <time>2022-03-02T13:54:48Z</time>
      </trkpt>
      <trkpt lat="49.93003" lon="2.20118">
        <ele>16.7</ele>
        <time>2022-03-02T13:54:49Z</time>
      </trkpt>
      <trkpt lat="49.93002" lon="2.20118">
        <ele>16.7</ele>
        <time>2022-03-02T13:54:50Z</time>
      </trkpt>
      <trkpt lat="49.93002" lon="2.20119">
        <ele>16.8</ele>
        <time>2022-03-02T13:54:51Z</time>
      </trkpt>
      <trkpt lat="49.93001" lon="2.20121">
        <ele>16.8</ele>
        <time>2022-03-02T13:54:52Z</time>
      </trkpt>
      <trkpt lat="49.93001" lon="2.20122">
        <ele>16.9</ele>
        <time>2022-03-02T13:54:53Z</time>
      </trkpt>
      <trkpt lat="49.93" lon="2.20123">
        <ele>16.9</ele>
        <time>2022-03-02T13:54:55Z</time>
      </trkpt>
      <trkpt lat="49.93" lon="2.20124">
        <ele>17</ele>
        <time>2022-03-02T13:54:56Z</time>
      </trkpt>
      <trkpt lat="49.93" lon="2.20124">
        <ele>17</ele>
        <time>2022-03-02T13:54:58Z</time>
      </trkpt>
      <trkpt lat="49.92999" lon="2.20123">
        <ele>17</ele>
        <time>2022-03-02T13:54:59Z</time>
      </trkpt>
      <trkpt lat="49.92998" lon="2.20124">
        <ele>17.6</ele>
        <time>2022-03-02T13:55:00Z</time>
      </trkpt>
      <trkpt lat="49.92997" lon="2.20124">
        <ele>17.5</ele>
        <time>2022-03-02T13:55:02Z</time>
      </trkpt>
      <trkpt lat="49.92996" lon="2.20125">
        <ele>17.5</ele>
        <time>2022-03-02T13:55:03Z</time>
      </trkpt>
      <trkpt lat="49.92996" lon="2.20126">
        <ele>17.5</ele>
        <time>2022-03-02T13:55:04Z</time>
      </trkpt>
      <trkpt lat="49.92996" lon="2.20127">
        <ele>17.5</ele>
        <time>2022-03-02T13:55:05Z</time>
      </trkpt>
      <trkpt lat="49.92996" lon="2.20127">
        <ele>17.5</ele>
        <time>2022-03-02T13:55:06Z</time>
      </trkpt>
      <trkpt lat="49.92996" lon="2.20127">
        <ele>17.5</ele>
        <time>2022-03-02T13:55:07Z</time>
      </trkpt>
      <trkpt lat="49.92997" lon="2.20128">
        <ele>17.5</ele>
        <time>2022-03-02T13:55:08Z</time>
      </trkpt>
      <trkpt lat="49.92997" lon="2.20128">
        <ele>17.5</ele>
        <time>2022-03-02T13:55:09Z</time>
      </trkpt>
      <trkpt lat="49.92998" lon="2.20127">
        <ele>17.5</ele>
        <time>2022-03-02T13:55:10Z</time>
      </trkpt>
      <trkpt lat="49.92998" lon="2.20127">
        <ele>17.5</ele>
        <time>2022-03-02T13:55:11Z</time>
      </trkpt>
      <trkpt lat="49.92998" lon="2.20127">
        <ele>17.5</ele>
        <time>2022-03-02T13:55:12Z</time>
      </trkpt>
      <trkpt lat="49.92999" lon="2.20127">
        <ele>17.5</ele>
        <time>2022-03-02T13:55:13Z</time>
      </trkpt>
      <trkpt lat="49.92999" lon="2.20127">
        <ele>17.5</ele>
        <time>2022-03-02T13:55:14Z</time>
      </trkpt>
      <trkpt lat="49.92999" lon="2.20127">
        <ele>17.5</ele>
        <time>2022-03-02T13:55:15Z</time>
      </trkpt>
      <trkpt lat="49.92999" lon="2.20127">
        <ele>17.5</ele>
        <time>2022-03-02T13:55:16Z</time>
      </trkpt>
      <trkpt lat="49.92999" lon="2.20127">
        <ele>17.5</ele>
        <time>2022-03-02T13:55:17Z</time>
      </trkpt>
      <trkpt lat="49.92999" lon="2.20127">
        <ele>17.5</ele>
        <time>2022-03-02T13:55:18Z</time>
      </trkpt>
      <trkpt lat="49.92999" lon="2.20127">
        <ele>17.5</ele>
        <time>2022-03-02T13:55:19Z</time>
      </trkpt>
      <trkpt lat="49.92998" lon="2.20127">
        <ele>17.5</ele>
        <time>2022-03-02T13:55:20Z</time>
      </trkpt>
      <trkpt lat="49.92998" lon="2.20128">
        <ele>17.5</ele>
        <time>2022-03-02T13:55:21Z</time>
      </trkpt>
      <trkpt lat="49.92998" lon="2.20128">
        <ele>17.5</ele>
        <time>2022-03-02T13:55:22Z</time>
      </trkpt>
      <trkpt lat="49.92997" lon="2.20128">
        <ele>17.4</ele>
        <time>2022-03-02T13:55:23Z</time>
      </trkpt>
      <trkpt lat="49.92997" lon="2.20128">
        <ele>17.4</ele>
        <time>2022-03-02T13:55:24Z</time>
      </trkpt>
      <trkpt lat="49.92997" lon="2.20128">
        <ele>17.4</ele>
        <time>2022-03-02T13:55:25Z</time>
      </trkpt>
      <trkpt lat="49.92997" lon="2.20129">
        <ele>17.4</ele>
        <time>2022-03-02T13:55:26Z</time>
      </trkpt>
      <trkpt lat="49.92996" lon="2.20129">
        <ele>17.4</ele>
        <time>2022-03-02T13:55:27Z</time>
      </trkpt>
      <trkpt lat="49.92996" lon="2.20129">
        <ele>17.4</ele>
        <time>2022-03-02T13:55:28Z</time>
      </trkpt>
      <trkpt lat="49.92996" lon="2.20129">
        <ele>17.4</ele>
        <time>2022-03-02T13:55:29Z</time>
      </trkpt>
      <trkpt lat="49.92995" lon="2.20129">
        <ele>17.4</ele>
        <time>2022-03-02T13:55:30Z</time>
      </trkpt>
      <trkpt lat="49.92995" lon="2.2013">
        <ele>17.4</ele>
        <time>2022-03-02T13:55:31Z</time>
      </trkpt>
      <trkpt lat="49.92995" lon="2.2013">
        <ele>17.4</ele>
        <time>2022-03-02T13:55:32Z</time>
      </trkpt>
      <trkpt lat="49.92994" lon="2.2013">
        <ele>17.4</ele>
        <time>2022-03-02T13:55:33Z</time>
      </trkpt>
      <trkpt lat="49.92994" lon="2.2013">
        <ele>17.4</ele>
        <time>2022-03-02T13:55:34Z</time>
      </trkpt>
      <trkpt lat="49.92993" lon="2.20132">
        <ele>17.4</ele>
        <time>2022-03-02T13:55:35Z</time>
      </trkpt>
      <trkpt lat="49.92992" lon="2.20132">
        <ele>17.4</ele>
        <time>2022-03-02T13:55:36Z</time>
      </trkpt>
      <trkpt lat="49.92992" lon="2.20132">
        <ele>17.4</ele>
        <time>2022-03-02T13:55:37Z</time>
      </trkpt>
      <trkpt lat="49.92992" lon="2.20133">
        <ele>17.4</ele>
        <time>2022-03-02T13:55:38Z</time>
      </trkpt>
      <trkpt lat="49.92992" lon="2.20133">
        <ele>17.4</ele>
        <time>2022-03-02T13:55:39Z</time>
      </trkpt>
      <trkpt lat="49.92992" lon="2.20133">
        <ele>17.4</ele>
        <time>2022-03-02T13:55:40Z</time>
      </trkpt>
      <trkpt lat="49.92992" lon="2.20133">
        <ele>17.4</ele>
        <time>2022-03-02T13:55:41Z</time>
      </trkpt>
      <trkpt lat="49.92992" lon="2.20133">
        <ele>17.4</ele>
        <time>2022-03-02T13:55:42Z</time>
      </trkpt>
      <trkpt lat="49.92992" lon="2.20133">
        <ele>17.4</ele>
        <time>2022-03-02T13:55:43Z</time>
      </trkpt>
      <trkpt lat="49.92992" lon="2.20133">
        <ele>17.4</ele>
        <time>2022-03-02T13:55:44Z</time>
      </trkpt>
      <trkpt lat="49.92992" lon="2.20133">
        <ele>17.4</ele>
        <time>2022-03-02T13:55:45Z</time>
      </trkpt>
      <trkpt lat="49.92992" lon="2.20133">
        <ele>17.4</ele>
        <time>2022-03-02T13:55:46Z</time>
      </trkpt>
      <trkpt lat="49.92992" lon="2.20133">
        <ele>17.4</ele>
        <time>2022-03-02T13:55:47Z</time>
      </trkpt>
      <trkpt lat="49.92992" lon="2.20133">
        <ele>17.4</ele>
        <time>2022-03-02T13:55:48Z</time>
      </trkpt>
      <trkpt lat="49.92992" lon="2.20133">
        <ele>17.4</ele>
        <time>2022-03-02T13:55:49Z</time>
      </trkpt>
      <trkpt lat="49.92994" lon="2.20132">
        <ele>17.4</ele>
        <time>2022-03-02T13:55:50Z</time>
      </trkpt>
      <trkpt lat="49.92997" lon="2.20131">
        <ele>17.3</ele>
        <time>2022-03-02T13:55:51Z</time>
      </trkpt>
      <trkpt lat="49.92999" lon="2.20131">
        <ele>17.3</ele>
        <time>2022-03-02T13:55:52Z</time>
      </trkpt>
      <trkpt lat="49.92999" lon="2.20131">
        <ele>17.3</ele>
        <time>2022-03-02T13:55:53Z</time>
      </trkpt>
      <trkpt lat="49.93001" lon="2.2013">
        <ele>17.3</ele>
        <time>2022-03-02T13:55:54Z</time>
      </trkpt>
      <trkpt lat="49.93002" lon="2.20129">
        <ele>17.3</ele>
        <time>2022-03-02T13:55:55Z</time>
      </trkpt>
      <trkpt lat="49.93002" lon="2.20129">
        <ele>17.3</ele>
        <time>2022-03-02T13:55:56Z</time>
      </trkpt>
      <trkpt lat="49.93002" lon="2.20129">
        <ele>17.3</ele>
        <time>2022-03-02T13:55:57Z</time>
      </trkpt>
      <trkpt lat="49.93002" lon="2.20129">
        <ele>17.3</ele>
        <time>2022-03-02T13:55:58Z</time>
      </trkpt>
      <trkpt lat="49.93002" lon="2.20129">
        <ele>17.3</ele>
        <time>2022-03-02T13:55:59Z</time>
      </trkpt>
      <trkpt lat="49.93002" lon="2.20129">
        <ele>17.3</ele>
        <time>2022-03-02T13:56:00Z</time>
      </trkpt>
      <trkpt lat="49.93002" lon="2.20129">
        <ele>17.3</ele>
        <time>2022-03-02T13:56:01Z</time>
      </trkpt>
      <trkpt lat="49.93002" lon="2.20129">
        <ele>17.3</ele>
        <time>2022-03-02T13:56:02Z</time>
      </trkpt>
      <trkpt lat="49.93002" lon="2.20129">
        <ele>17.3</ele>
        <time>2022-03-02T13:56:03Z</time>
      </trkpt>
      <trkpt lat="49.93002" lon="2.20129">
        <ele>17.3</ele>
        <time>2022-03-02T13:56:04Z</time>
      </trkpt>
      <trkpt lat="49.93002" lon="2.20129">
        <ele>17.3</ele>
        <time>2022-03-02T13:56:05Z</time>
      </trkpt>
      <trkpt lat="49.93002" lon="2.20129">
        <ele>17.3</ele>
        <time>2022-03-02T13:56:06Z</time>
      </trkpt>
      <trkpt lat="49.93002" lon="2.20129">
        <ele>17.3</ele>
        <time>2022-03-02T13:56:07Z</time>
      </trkpt>
      <trkpt lat="49.93002" lon="2.20129">
        <ele>17.3</ele>
        <time>2022-03-02T13:56:08Z</time>
      </trkpt>
      <trkpt lat="49.93002" lon="2.20129">
        <ele>17.3</ele>
        <time>2022-03-02T13:56:09Z</time>
      </trkpt>
      <trkpt lat="49.93002" lon="2.20129">
        <ele>17.3</ele>
        <time>2022-03-02T13:56:10Z</time>
      </trkpt>
      <trkpt lat="49.93002" lon="2.20129">
        <ele>17.3</ele>
        <time>2022-03-02T13:56:11Z</time>
      </trkpt>
      <trkpt lat="49.93002" lon="2.20129">
        <ele>17.3</ele>
        <time>2022-03-02T13:56:12Z</time>
      </trkpt>
      <trkpt lat="49.93002" lon="2.20129">
        <ele>17.3</ele>
        <time>2022-03-02T13:56:13Z</time>
      </trkpt>
      <trkpt lat="49.93002" lon="2.20129">
        <ele>17.3</ele>
        <time>2022-03-02T13:56:14Z</time>
      </trkpt>
      <trkpt lat="49.93002" lon="2.20129">
        <ele>17.3</ele>
        <time>2022-03-02T13:56:15Z</time>
      </trkpt>
      <trkpt lat="49.93002" lon="2.20129">
        <ele>17.3</ele>
        <time>2022-03-02T13:56:16Z</time>
      </trkpt>
      <trkpt lat="49.93002" lon="2.20129">
        <ele>17.3</ele>
        <time>2022-03-02T13:56:17Z</time>
      </trkpt>
      <trkpt lat="49.93002" lon="2.20129">
        <ele>17.3</ele>
        <time>2022-03-02T13:56:18Z</time>
      </trkpt>
      <trkpt lat="49.93002" lon="2.20129">
        <ele>17.3</ele>
        <time>2022-03-02T13:56:19Z</time>
      </trkpt>
      <trkpt lat="49.93002" lon="2.20129">
        <ele>17.3</ele>
        <time>2022-03-02T13:56:20Z</time>
      </trkpt>
      <trkpt lat="49.93002" lon="2.20129">
        <ele>17.3</ele>
        <time>2022-03-02T13:56:21Z</time>
      </trkpt>
      <trkpt lat="49.93002" lon="2.20129">
        <ele>17.3</ele>
        <time>2022-03-02T13:56:22Z</time>
      </trkpt>
      <trkpt lat="49.93002" lon="2.20129">
        <ele>17.3</ele>
        <time>2022-03-02T13:56:23Z</time>
      </trkpt>
      <trkpt lat="49.93002" lon="2.20129">
        <ele>17.3</ele>
        <time>2022-03-02T13:56:24Z</time>
      </trkpt>
      <trkpt lat="49.93002" lon="2.20129">
        <ele>17.3</ele>
        <time>2022-03-02T13:56:25Z</time>
      </trkpt>
      <trkpt lat="49.93002" lon="2.20129">
        <ele>17.3</ele>
        <time>2022-03-02T13:56:26Z</time>
      </trkpt>
      <trkpt lat="49.93002" lon="2.20129">
        <ele>17.3</ele>
        <time>2022-03-02T13:56:27Z</time>
      </trkpt>
      <trkpt lat="49.93002" lon="2.20129">
        <ele>17.3</ele>
        <time>2022-03-02T13:56:28Z</time>
      </trkpt>
      <trkpt lat="49.93002" lon="2.20129">
        <ele>17.3</ele>
        <time>2022-03-02T13:56:29Z</time>
      </trkpt>
      <trkpt lat="49.93002" lon="2.20129">
        <ele>17.3</ele>
        <time>2022-03-02T13:56:30Z</time>
      </trkpt>
      <trkpt lat="49.93002" lon="2.20129">
        <ele>17.3</ele>
        <time>2022-03-02T13:56:31Z</time>
      </trkpt>
      <trkpt lat="49.93002" lon="2.20129">
        <ele>17.3</ele>
        <time>2022-03-02T13:56:32Z</time>
      </trkpt>
      <trkpt lat="49.93002" lon="2.20129">
        <ele>17.3</ele>
        <time>2022-03-02T13:56:33Z</time>
      </trkpt>
      <trkpt lat="49.93002" lon="2.20129">
        <ele>17.3</ele>
        <time>2022-03-02T13:56:34Z</time>
      </trkpt>
      <trkpt lat="49.93002" lon="2.20129">
        <ele>17.3</ele>
        <time>2022-03-02T13:56:35Z</time>
      </trkpt>
      <trkpt lat="49.93002" lon="2.20129">
        <ele>17.3</ele>
        <time>2022-03-02T13:56:36Z</time>
      </trkpt>
      <trkpt lat="49.93002" lon="2.20129">
        <ele>17.3</ele>
        <time>2022-03-02T13:56:37Z</time>
      </trkpt>
      <trkpt lat="49.93002" lon="2.20129">
        <ele>17.3</ele>
        <time>2022-03-02T13:56:38Z</time>
      </trkpt>
      <trkpt lat="49.93002" lon="2.20129">
        <ele>17.3</ele>
        <time>2022-03-02T13:56:39Z</time>
      </trkpt>
      <trkpt lat="49.93002" lon="2.20129">
        <ele>17.3</ele>
        <time>2022-03-02T13:56:40Z</time>
      </trkpt>
      <trkpt lat="49.93002" lon="2.20129">
        <ele>17.3</ele>
        <time>2022-03-02T13:56:41Z</time>
      </trkpt>
      <trkpt lat="49.93003" lon="2.20129">
        <ele>17.3</ele>
        <time>2022-03-02T13:56:42Z</time>
      </trkpt>
      <trkpt lat="49.93003" lon="2.2013">
        <ele>17.3</ele>
        <time>2022-03-02T13:56:43Z</time>
      </trkpt>
      <trkpt lat="49.93003" lon="2.2013">
        <ele>17.3</ele>
        <time>2022-03-02T13:56:44Z</time>
      </trkpt>
      <trkpt lat="49.93003" lon="2.20131">
        <ele>17.3</ele>
        <time>2022-03-02T13:56:45Z</time>
      </trkpt>
      <trkpt lat="49.93003" lon="2.20133">
        <ele>17.3</ele>
        <time>2022-03-02T13:56:46Z</time>
      </trkpt>
      <trkpt lat="49.93003" lon="2.20133">
        <ele>17.2</ele>
        <time>2022-03-02T13:56:47Z</time>
      </trkpt>
      <trkpt lat="49.93004" lon="2.20134">
        <ele>17.2</ele>
        <time>2022-03-02T13:56:48Z</time>
      </trkpt>
      <trkpt lat="49.93004" lon="2.20135">
        <ele>17.2</ele>
        <time>2022-03-02T13:56:49Z</time>
      </trkpt>
      <trkpt lat="49.93004" lon="2.20136">
        <ele>17.2</ele>
        <time>2022-03-02T13:56:50Z</time>
      </trkpt>
      <trkpt lat="49.93004" lon="2.20136">
        <ele>17.2</ele>
        <time>2022-03-02T13:56:51Z</time>
      </trkpt>
      <trkpt lat="49.93004" lon="2.20137">
        <ele>17.2</ele>
        <time>2022-03-02T13:56:52Z</time>
      </trkpt>
      <trkpt lat="49.93005" lon="2.20138">
        <ele>17.2</ele>
        <time>2022-03-02T13:56:54Z</time>
      </trkpt>
      <trkpt lat="49.93005" lon="2.20138">
        <ele>17.2</ele>
        <time>2022-03-02T13:56:55Z</time>
      </trkpt>
      <trkpt lat="49.93005" lon="2.20139">
        <ele>17.1</ele>
        <time>2022-03-02T13:56:56Z</time>
      </trkpt>
      <trkpt lat="49.93005" lon="2.2014">
        <ele>17.1</ele>
        <time>2022-03-02T13:56:57Z</time>
      </trkpt>
      <trkpt lat="49.93004" lon="2.20142">
        <ele>17.1</ele>
        <time>2022-03-02T13:56:58Z</time>
      </trkpt>
      <trkpt lat="49.93004" lon="2.20143">
        <ele>17.1</ele>
        <time>2022-03-02T13:56:59Z</time>
      </trkpt>
      <trkpt lat="49.93004" lon="2.20144">
        <ele>17.1</ele>
        <time>2022-03-02T13:57:00Z</time>
      </trkpt>
      <trkpt lat="49.93003" lon="2.20146">
        <ele>17</ele>
        <time>2022-03-02T13:57:01Z</time>
      </trkpt>
      <trkpt lat="49.93003" lon="2.20147">
        <ele>17</ele>
        <time>2022-03-02T13:57:02Z</time>
      </trkpt>
      <trkpt lat="49.93002" lon="2.20149">
        <ele>17</ele>
        <time>2022-03-02T13:57:03Z</time>
      </trkpt>
      <trkpt lat="49.93002" lon="2.20151">
        <ele>17</ele>
        <time>2022-03-02T13:57:04Z</time>
      </trkpt>
      <trkpt lat="49.93003" lon="2.20153">
        <ele>16.9</ele>
        <time>2022-03-02T13:57:05Z</time>
      </trkpt>
      <trkpt lat="49.93003" lon="2.20154">
        <ele>16.9</ele>
        <time>2022-03-02T13:57:06Z</time>
      </trkpt>
      <trkpt lat="49.93004" lon="2.20155">
        <ele>16.9</ele>
        <time>2022-03-02T13:57:08Z</time>
      </trkpt>
      <trkpt lat="49.93004" lon="2.20156">
        <ele>16.8</ele>
        <time>2022-03-02T13:57:09Z</time>
      </trkpt>
      <trkpt lat="49.93005" lon="2.20158">
        <ele>16.8</ele>
        <time>2022-03-02T13:57:10Z</time>
      </trkpt>
      <trkpt lat="49.93005" lon="2.20159">
        <ele>16.7</ele>
        <time>2022-03-02T13:57:11Z</time>
      </trkpt>
      <trkpt lat="49.93007" lon="2.20162">
        <ele>16.7</ele>
        <time>2022-03-02T13:57:12Z</time>
      </trkpt>
      <trkpt lat="49.93007" lon="2.20163">
        <ele>16.6</ele>
        <time>2022-03-02T13:57:13Z</time>
      </trkpt>
      <trkpt lat="49.93008" lon="2.20164">
        <ele>16.6</ele>
        <time>2022-03-02T13:57:14Z</time>
      </trkpt>
      <trkpt lat="49.93009" lon="2.20166">
        <ele>16.6</ele>
        <time>2022-03-02T13:57:15Z</time>
      </trkpt>
      <trkpt lat="49.9301" lon="2.20166">
        <ele>16.5</ele>
        <time>2022-03-02T13:57:17Z</time>
      </trkpt>
      <trkpt lat="49.9301" lon="2.20166">
        <ele>16.5</ele>
        <time>2022-03-02T13:57:18Z</time>
      </trkpt>
      <trkpt lat="49.93011" lon="2.20166">
        <ele>16.5</ele>
        <time>2022-03-02T13:57:19Z</time>
      </trkpt>
      <trkpt lat="49.93012" lon="2.20167">
        <ele>16.4</ele>
        <time>2022-03-02T13:57:20Z</time>
      </trkpt>
      <trkpt lat="49.93013" lon="2.20169">
        <ele>16.4</ele>
        <time>2022-03-02T13:57:21Z</time>
      </trkpt>
      <trkpt lat="49.93016" lon="2.20171">
        <ele>16.3</ele>
        <time>2022-03-02T13:57:23Z</time>
      </trkpt>
      <trkpt lat="49.93019" lon="2.20173">
        <ele>16.2</ele>
        <time>2022-03-02T13:57:24Z</time>
      </trkpt>
      <trkpt lat="49.9302" lon="2.20173">
        <ele>16.2</ele>
        <time>2022-03-02T13:57:25Z</time>
      </trkpt>
      <trkpt lat="49.93023" lon="2.20176">
        <ele>16.1</ele>
        <time>2022-03-02T13:57:26Z</time>
      </trkpt>
      <trkpt lat="49.93024" lon="2.20176">
        <ele>16</ele>
        <time>2022-03-02T13:57:27Z</time>
      </trkpt>
      <trkpt lat="49.93027" lon="2.20179">
        <ele>16</ele>
        <time>2022-03-02T13:57:28Z</time>
      </trkpt>
      <trkpt lat="49.93027" lon="2.2018">
        <ele>16</ele>
        <time>2022-03-02T13:57:29Z</time>
      </trkpt>
      <trkpt lat="49.93029" lon="2.20181">
        <ele>15.9</ele>
        <time>2022-03-02T13:57:30Z</time>
      </trkpt>
      <trkpt lat="49.9303" lon="2.20183">
        <ele>15.9</ele>
        <time>2022-03-02T13:57:31Z</time>
      </trkpt>
      <trkpt lat="49.93031" lon="2.20185">
        <ele>15.9</ele>
        <time>2022-03-02T13:57:32Z</time>
      </trkpt>
      <trkpt lat="49.93032" lon="2.20186">
        <ele>15.8</ele>
        <time>2022-03-02T13:57:34Z</time>
      </trkpt>
      <trkpt lat="49.93032" lon="2.20187">
        <ele>15.8</ele>
        <time>2022-03-02T13:57:35Z</time>
      </trkpt>
      <trkpt lat="49.93034" lon="2.20189">
        <ele>15.8</ele>
        <time>2022-03-02T13:57:36Z</time>
      </trkpt>
      <trkpt lat="49.93034" lon="2.2019">
        <ele>15.8</ele>
        <time>2022-03-02T13:57:37Z</time>
      </trkpt>
      <trkpt lat="49.93035" lon="2.20191">
        <ele>15.7</ele>
        <time>2022-03-02T13:57:38Z</time>
      </trkpt>
      <trkpt lat="49.93036" lon="2.20193">
        <ele>15.7</ele>
        <time>2022-03-02T13:57:39Z</time>
      </trkpt>
      <trkpt lat="49.93037" lon="2.20195">
        <ele>15.7</ele>
        <time>2022-03-02T13:57:40Z</time>
      </trkpt>
      <trkpt lat="49.93039" lon="2.20198">
        <ele>15.6</ele>
        <time>2022-03-02T13:57:41Z</time>
      </trkpt>
      <trkpt lat="49.9304" lon="2.20199">
        <ele>15.6</ele>
        <time>2022-03-02T13:57:42Z</time>
      </trkpt>
      <trkpt lat="49.93042" lon="2.20203">
        <ele>15.6</ele>
        <time>2022-03-02T13:57:44Z</time>
      </trkpt>
      <trkpt lat="49.93042" lon="2.20204">
        <ele>15.6</ele>
        <time>2022-03-02T13:57:45Z</time>
      </trkpt>
      <trkpt lat="49.93044" lon="2.20207">
        <ele>15.5</ele>
        <time>2022-03-02T13:57:46Z</time>
      </trkpt>
      <trkpt lat="49.93044" lon="2.20208">
        <ele>15.5</ele>
        <time>2022-03-02T13:57:47Z</time>
      </trkpt>
      <trkpt lat="49.93045" lon="2.20209">
        <ele>15.5</ele>
        <time>2022-03-02T13:57:48Z</time>
      </trkpt>
      <trkpt lat="49.93046" lon="2.20211">
        <ele>15.5</ele>
        <time>2022-03-02T13:57:49Z</time>
      </trkpt>
      <trkpt lat="49.93047" lon="2.20214">
        <ele>15.4</ele>
        <time>2022-03-02T13:57:51Z</time>
      </trkpt>
      <trkpt lat="49.93048" lon="2.20216">
        <ele>15.4</ele>
        <time>2022-03-02T13:57:52Z</time>
      </trkpt>
      <trkpt lat="49.93049" lon="2.20218">
        <ele>15.4</ele>
        <time>2022-03-02T13:57:53Z</time>
      </trkpt>
      <trkpt lat="49.9305" lon="2.20219">
        <ele>15.4</ele>
        <time>2022-03-02T13:57:54Z</time>
      </trkpt>
      <trkpt lat="49.93051" lon="2.20221">
        <ele>15.3</ele>
        <time>2022-03-02T13:57:55Z</time>
      </trkpt>
      <trkpt lat="49.93053" lon="2.20224">
        <ele>15.3</ele>
        <time>2022-03-02T13:57:57Z</time>
      </trkpt>
      <trkpt lat="49.93054" lon="2.20224">
        <ele>15.3</ele>
        <time>2022-03-02T13:57:58Z</time>
      </trkpt>
      <trkpt lat="49.93055" lon="2.20226">
        <ele>15.3</ele>
        <time>2022-03-02T13:57:59Z</time>
      </trkpt>
      <trkpt lat="49.93056" lon="2.20228">
        <ele>15.3</ele>
        <time>2022-03-02T13:58:00Z</time>
      </trkpt>
      <trkpt lat="49.93056" lon="2.20229">
        <ele>15.3</ele>
        <time>2022-03-02T13:58:01Z</time>
      </trkpt>
      <trkpt lat="49.93057" lon="2.2023">
        <ele>15.3</ele>
        <time>2022-03-02T13:58:02Z</time>
      </trkpt>
      <trkpt lat="49.93058" lon="2.20232">
        <ele>15.2</ele>
        <time>2022-03-02T13:58:03Z</time>
      </trkpt>
      <trkpt lat="49.93059" lon="2.20234">
        <ele>15.2</ele>
        <time>2022-03-02T13:58:04Z</time>
      </trkpt>
      <trkpt lat="49.9306" lon="2.20235">
        <ele>15.2</ele>
        <time>2022-03-02T13:58:05Z</time>
      </trkpt>
      <trkpt lat="49.93061" lon="2.20237">
        <ele>15.2</ele>
        <time>2022-03-02T13:58:06Z</time>
      </trkpt>
      <trkpt lat="49.93062" lon="2.20239">
        <ele>15.2</ele>
        <time>2022-03-02T13:58:07Z</time>
      </trkpt>
      <trkpt lat="49.93063" lon="2.2024">
        <ele>15.2</ele>
        <time>2022-03-02T13:58:09Z</time>
      </trkpt>
      <trkpt lat="49.93064" lon="2.20242">
        <ele>15.2</ele>
        <time>2022-03-02T13:58:10Z</time>
      </trkpt>
      <trkpt lat="49.93065" lon="2.20244">
        <ele>15.2</ele>
        <time>2022-03-02T13:58:11Z</time>
      </trkpt>
      <trkpt lat="49.93066" lon="2.20245">
        <ele>15.1</ele>
        <time>2022-03-02T13:58:12Z</time>
      </trkpt>
      <trkpt lat="49.93067" lon="2.20248">
        <ele>15.1</ele>
        <time>2022-03-02T13:58:14Z</time>
      </trkpt>
      <trkpt lat="49.93068" lon="2.2025">
        <ele>15.1</ele>
        <time>2022-03-02T13:58:15Z</time>
      </trkpt>
      <trkpt lat="49.93069" lon="2.20252">
        <ele>15.1</ele>
        <time>2022-03-02T13:58:16Z</time>
      </trkpt>
      <trkpt lat="49.9307" lon="2.20254">
        <ele>15.1</ele>
        <time>2022-03-02T13:58:17Z</time>
      </trkpt>
      <trkpt lat="49.93072" lon="2.20257">
        <ele>15.1</ele>
        <time>2022-03-02T13:58:19Z</time>
      </trkpt>
      <trkpt lat="49.93073" lon="2.20257">
        <ele>15.1</ele>
        <time>2022-03-02T13:58:20Z</time>
      </trkpt>
      <trkpt lat="49.93074" lon="2.20259">
        <ele>15.1</ele>
        <time>2022-03-02T13:58:21Z</time>
      </trkpt>
      <trkpt lat="49.93075" lon="2.2026">
        <ele>15.1</ele>
        <time>2022-03-02T13:58:22Z</time>
      </trkpt>
      <trkpt lat="49.93076" lon="2.20262">
        <ele>15.1</ele>
        <time>2022-03-02T13:58:23Z</time>
      </trkpt>
      <trkpt lat="49.93077" lon="2.20263">
        <ele>15.1</ele>
        <time>2022-03-02T13:58:24Z</time>
      </trkpt>
      <trkpt lat="49.93079" lon="2.20266">
        <ele>15</ele>
        <time>2022-03-02T13:58:25Z</time>
      </trkpt>
      <trkpt lat="49.9308" lon="2.20267">
        <ele>15</ele>
        <time>2022-03-02T13:58:27Z</time>
      </trkpt>
      <trkpt lat="49.93081" lon="2.20268">
        <ele>15</ele>
        <time>2022-03-02T13:58:28Z</time>
      </trkpt>
      <trkpt lat="49.93082" lon="2.20269">
        <ele>15</ele>
        <time>2022-03-02T13:58:29Z</time>
      </trkpt>
      <trkpt lat="49.93083" lon="2.20271">
        <ele>15</ele>
        <time>2022-03-02T13:58:30Z</time>
      </trkpt>
      <trkpt lat="49.93084" lon="2.20272">
        <ele>15</ele>
        <time>2022-03-02T13:58:32Z</time>
      </trkpt>
      <trkpt lat="49.93085" lon="2.20273">
        <ele>15</ele>
        <time>2022-03-02T13:58:33Z</time>
      </trkpt>
      <trkpt lat="49.93085" lon="2.20274">
        <ele>15</ele>
        <time>2022-03-02T13:58:34Z</time>
      </trkpt>
      <trkpt lat="49.93086" lon="2.20277">
        <ele>15</ele>
        <time>2022-03-02T13:58:35Z</time>
      </trkpt>
      <trkpt lat="49.93087" lon="2.20278">
        <ele>15</ele>
        <time>2022-03-02T13:58:36Z</time>
      </trkpt>
      <trkpt lat="49.93087" lon="2.20279">
        <ele>15</ele>
        <time>2022-03-02T13:58:37Z</time>
      </trkpt>
      <trkpt lat="49.93088" lon="2.20281">
        <ele>15</ele>
        <time>2022-03-02T13:58:38Z</time>
      </trkpt>
      <trkpt lat="49.93088" lon="2.20283">
        <ele>15</ele>
        <time>2022-03-02T13:58:39Z</time>
      </trkpt>
      <trkpt lat="49.93089" lon="2.20285">
        <ele>15</ele>
        <time>2022-03-02T13:58:40Z</time>
      </trkpt>
      <trkpt lat="49.9309" lon="2.20287">
        <ele>15</ele>
        <time>2022-03-02T13:58:41Z</time>
      </trkpt>
      <trkpt lat="49.93091" lon="2.2029">
        <ele>15</ele>
        <time>2022-03-02T13:58:42Z</time>
      </trkpt>
      <trkpt lat="49.93091" lon="2.20291">
        <ele>15</ele>
        <time>2022-03-02T13:58:43Z</time>
      </trkpt>
      <trkpt lat="49.93092" lon="2.20292">
        <ele>15</ele>
        <time>2022-03-02T13:58:44Z</time>
      </trkpt>
      <trkpt lat="49.93093" lon="2.20293">
        <ele>15</ele>
        <time>2022-03-02T13:58:45Z</time>
      </trkpt>
      <trkpt lat="49.93094" lon="2.20294">
        <ele>14.9</ele>
        <time>2022-03-02T13:58:46Z</time>
      </trkpt>
      <trkpt lat="49.93095" lon="2.20294">
        <ele>14.9</ele>
        <time>2022-03-02T13:58:47Z</time>
      </trkpt>
      <trkpt lat="49.93096" lon="2.20297">
        <ele>14.9</ele>
        <time>2022-03-02T13:58:48Z</time>
      </trkpt>
      <trkpt lat="49.93097" lon="2.20299">
        <ele>14.9</ele>
        <time>2022-03-02T13:58:50Z</time>
      </trkpt>
      <trkpt lat="49.93097" lon="2.203">
        <ele>14.9</ele>
        <time>2022-03-02T13:58:51Z</time>
      </trkpt>
      <trkpt lat="49.93098" lon="2.20302">
        <ele>14.9</ele>
        <time>2022-03-02T13:58:52Z</time>
      </trkpt>
      <trkpt lat="49.93099" lon="2.20303">
        <ele>14.9</ele>
        <time>2022-03-02T13:58:53Z</time>
      </trkpt>
      <trkpt lat="49.931" lon="2.20305">
        <ele>14.9</ele>
        <time>2022-03-02T13:58:54Z</time>
      </trkpt>
      <trkpt lat="49.931" lon="2.20305">
        <ele>14.9</ele>
        <time>2022-03-02T13:58:55Z</time>
      </trkpt>
      <trkpt lat="49.93101" lon="2.20306">
        <ele>14.9</ele>
        <time>2022-03-02T13:58:56Z</time>
      </trkpt>
      <trkpt lat="49.93101" lon="2.20307">
        <ele>14.9</ele>
        <time>2022-03-02T13:58:57Z</time>
      </trkpt>
      <trkpt lat="49.93102" lon="2.20308">
        <ele>14.9</ele>
        <time>2022-03-02T13:58:58Z</time>
      </trkpt>
      <trkpt lat="49.93103" lon="2.20309">
        <ele>14.9</ele>
        <time>2022-03-02T13:58:59Z</time>
      </trkpt>
      <trkpt lat="49.93103" lon="2.20311">
        <ele>14.9</ele>
        <time>2022-03-02T13:59:01Z</time>
      </trkpt>
      <trkpt lat="49.93104" lon="2.20313">
        <ele>14.9</ele>
        <time>2022-03-02T13:59:02Z</time>
      </trkpt>
      <trkpt lat="49.93105" lon="2.20314">
        <ele>14.9</ele>
        <time>2022-03-02T13:59:03Z</time>
      </trkpt>
      <trkpt lat="49.93106" lon="2.20316">
        <ele>14.9</ele>
        <time>2022-03-02T13:59:04Z</time>
      </trkpt>
      <trkpt lat="49.93106" lon="2.20317">
        <ele>14.9</ele>
        <time>2022-03-02T13:59:05Z</time>
      </trkpt>
      <trkpt lat="49.93107" lon="2.20319">
        <ele>14.9</ele>
        <time>2022-03-02T13:59:06Z</time>
      </trkpt>
      <trkpt lat="49.93107" lon="2.20321">
        <ele>14.9</ele>
        <time>2022-03-02T13:59:07Z</time>
      </trkpt>
      <trkpt lat="49.93108" lon="2.20322">
        <ele>14.9</ele>
        <time>2022-03-02T13:59:08Z</time>
      </trkpt>
      <trkpt lat="49.93108" lon="2.20324">
        <ele>14.9</ele>
        <time>2022-03-02T13:59:09Z</time>
      </trkpt>
      <trkpt lat="49.93109" lon="2.20325">
        <ele>14.9</ele>
        <time>2022-03-02T13:59:10Z</time>
      </trkpt>
      <trkpt lat="49.9311" lon="2.20328">
        <ele>14.9</ele>
        <time>2022-03-02T13:59:12Z</time>
      </trkpt>
      <trkpt lat="49.9311" lon="2.20329">
        <ele>14.9</ele>
        <time>2022-03-02T13:59:13Z</time>
      </trkpt>
      <trkpt lat="49.93111" lon="2.2033">
        <ele>14.9</ele>
        <time>2022-03-02T13:59:14Z</time>
      </trkpt>
      <trkpt lat="49.93111" lon="2.20332">
        <ele>14.9</ele>
        <time>2022-03-02T13:59:15Z</time>
      </trkpt>
      <trkpt lat="49.93112" lon="2.20333">
        <ele>14.9</ele>
        <time>2022-03-02T13:59:16Z</time>
      </trkpt>
      <trkpt lat="49.93113" lon="2.20334">
        <ele>14.9</ele>
        <time>2022-03-02T13:59:17Z</time>
      </trkpt>
      <trkpt lat="49.93114" lon="2.20336">
        <ele>14.9</ele>
        <time>2022-03-02T13:59:19Z</time>
      </trkpt>
      <trkpt lat="49.93115" lon="2.20338">
        <ele>14.9</ele>
        <time>2022-03-02T13:59:20Z</time>
      </trkpt>
      <trkpt lat="49.93117" lon="2.20339">
        <ele>14.9</ele>
        <time>2022-03-02T13:59:21Z</time>
      </trkpt>
      <trkpt lat="49.93118" lon="2.2034">
        <ele>14.9</ele>
        <time>2022-03-02T13:59:22Z</time>
      </trkpt>
      <trkpt lat="49.93119" lon="2.20341">
        <ele>14.9</ele>
        <time>2022-03-02T13:59:23Z</time>
      </trkpt>
      <trkpt lat="49.93121" lon="2.20342">
        <ele>14.9</ele>
        <time>2022-03-02T13:59:24Z</time>
      </trkpt>
      <trkpt lat="49.93123" lon="2.20343">
        <ele>14.9</ele>
        <time>2022-03-02T13:59:25Z</time>
      </trkpt>
      <trkpt lat="49.93124" lon="2.20344">
        <ele>14.9</ele>
        <time>2022-03-02T13:59:26Z</time>
      </trkpt>
      <trkpt lat="49.93125" lon="2.20346">
        <ele>14.9</ele>
        <time>2022-03-02T13:59:27Z</time>
      </trkpt>
      <trkpt lat="49.93127" lon="2.20347">
        <ele>14.9</ele>
        <time>2022-03-02T13:59:28Z</time>
      </trkpt>
      <trkpt lat="49.93128" lon="2.20348">
        <ele>14.9</ele>
        <time>2022-03-02T13:59:30Z</time>
      </trkpt>
      <trkpt lat="49.93129" lon="2.20349">
        <ele>14.9</ele>
        <time>2022-03-02T13:59:31Z</time>
      </trkpt>
      <trkpt lat="49.93131" lon="2.2035">
        <ele>14.9</ele>
        <time>2022-03-02T13:59:32Z</time>
      </trkpt>
      <trkpt lat="49.93132" lon="2.20351">
        <ele>14.9</ele>
        <time>2022-03-02T13:59:33Z</time>
      </trkpt>
      <trkpt lat="49.93133" lon="2.20352">
        <ele>14.9</ele>
        <time>2022-03-02T13:59:34Z</time>
      </trkpt>
      <trkpt lat="49.93135" lon="2.20354">
        <ele>14.9</ele>
        <time>2022-03-02T13:59:35Z</time>
      </trkpt>
      <trkpt lat="49.93136" lon="2.20355">
        <ele>14.9</ele>
        <time>2022-03-02T13:59:36Z</time>
      </trkpt>
      <trkpt lat="49.93136" lon="2.20356">
        <ele>14.9</ele>
        <time>2022-03-02T13:59:37Z</time>
      </trkpt>
      <trkpt lat="49.93137" lon="2.20359">
        <ele>14.9</ele>
        <time>2022-03-02T13:59:39Z</time>
      </trkpt>
      <trkpt lat="49.93138" lon="2.20361">
        <ele>14.9</ele>
        <time>2022-03-02T13:59:40Z</time>
      </trkpt>
      <trkpt lat="49.93138" lon="2.20363">
        <ele>14.9</ele>
        <time>2022-03-02T13:59:41Z</time>
      </trkpt>
      <trkpt lat="49.93138" lon="2.20365">
        <ele>14.9</ele>
        <time>2022-03-02T13:59:42Z</time>
      </trkpt>
      <trkpt lat="49.93139" lon="2.20367">
        <ele>14.9</ele>
        <time>2022-03-02T13:59:43Z</time>
      </trkpt>
      <trkpt lat="49.93139" lon="2.20369">
        <ele>14.9</ele>
        <time>2022-03-02T13:59:44Z</time>
      </trkpt>
      <trkpt lat="49.9314" lon="2.20372">
        <ele>14.9</ele>
        <time>2022-03-02T13:59:46Z</time>
      </trkpt>
      <trkpt lat="49.93141" lon="2.20374">
        <ele>14.9</ele>
        <time>2022-03-02T13:59:47Z</time>
      </trkpt>
      <trkpt lat="49.93142" lon="2.20376">
        <ele>14.9</ele>
        <time>2022-03-02T13:59:48Z</time>
      </trkpt>
      <trkpt lat="49.93142" lon="2.20377">
        <ele>14.9</ele>
        <time>2022-03-02T13:59:49Z</time>
      </trkpt>
      <trkpt lat="49.93143" lon="2.20379">
        <ele>14.9</ele>
        <time>2022-03-02T13:59:50Z</time>
      </trkpt>
      <trkpt lat="49.93144" lon="2.2038">
        <ele>14.9</ele>
        <time>2022-03-02T13:59:51Z</time>
      </trkpt>
      <trkpt lat="49.93145" lon="2.20383">
        <ele>14.9</ele>
        <time>2022-03-02T13:59:53Z</time>
      </trkpt>
      <trkpt lat="49.93147" lon="2.20384">
        <ele>14.9</ele>
        <time>2022-03-02T13:59:54Z</time>
      </trkpt>
      <trkpt lat="49.93147" lon="2.20385">
        <ele>14.9</ele>
        <time>2022-03-02T13:59:55Z</time>
      </trkpt>
      <trkpt lat="49.93148" lon="2.20386">
        <ele>14.9</ele>
        <time>2022-03-02T13:59:56Z</time>
      </trkpt>
      <trkpt lat="49.9315" lon="2.20387">
        <ele>14.9</ele>
        <time>2022-03-02T13:59:57Z</time>
      </trkpt>
      <trkpt lat="49.93151" lon="2.20388">
        <ele>14.9</ele>
        <time>2022-03-02T13:59:58Z</time>
      </trkpt>
      <trkpt lat="49.93153" lon="2.20389">
        <ele>14.9</ele>
        <time>2022-03-02T13:59:59Z</time>
      </trkpt>
      <trkpt lat="49.93154" lon="2.2039">
        <ele>14.9</ele>
        <time>2022-03-02T14:00:00Z</time>
      </trkpt>
      <trkpt lat="49.93155" lon="2.20391">
        <ele>14.9</ele>
        <time>2022-03-02T14:00:01Z</time>
      </trkpt>
      <trkpt lat="49.93157" lon="2.20392">
        <ele>14.9</ele>
        <time>2022-03-02T14:00:02Z</time>
      </trkpt>
      <trkpt lat="49.93158" lon="2.20393">
        <ele>14.9</ele>
        <time>2022-03-02T14:00:03Z</time>
      </trkpt>
      <trkpt lat="49.9316" lon="2.20395">
        <ele>14.9</ele>
        <time>2022-03-02T14:00:04Z</time>
      </trkpt>
      <trkpt lat="49.93161" lon="2.20396">
        <ele>14.9</ele>
        <time>2022-03-02T14:00:05Z</time>
      </trkpt>
      <trkpt lat="49.93162" lon="2.20397">
        <ele>14.8</ele>
        <time>2022-03-02T14:00:06Z</time>
      </trkpt>
      <trkpt lat="49.93163" lon="2.20398">
        <ele>14.8</ele>
        <time>2022-03-02T14:00:08Z</time>
      </trkpt>
      <trkpt lat="49.93164" lon="2.20399">
        <ele>14.8</ele>
        <time>2022-03-02T14:00:09Z</time>
      </trkpt>
      <trkpt lat="49.93166" lon="2.20401">
        <ele>14.8</ele>
        <time>2022-03-02T14:00:10Z</time>
      </trkpt>
      <trkpt lat="49.93167" lon="2.20401">
        <ele>14.8</ele>
        <time>2022-03-02T14:00:11Z</time>
      </trkpt>
      <trkpt lat="49.93167" lon="2.20402">
        <ele>14.8</ele>
        <time>2022-03-02T14:00:12Z</time>
      </trkpt>
      <trkpt lat="49.93168" lon="2.20404">
        <ele>14.8</ele>
        <time>2022-03-02T14:00:13Z</time>
      </trkpt>
      <trkpt lat="49.93169" lon="2.20405">
        <ele>14.8</ele>
        <time>2022-03-02T14:00:14Z</time>
      </trkpt>
      <trkpt lat="49.93171" lon="2.20407">
        <ele>14.8</ele>
        <time>2022-03-02T14:00:15Z</time>
      </trkpt>
      <trkpt lat="49.93172" lon="2.20408">
        <ele>14.8</ele>
        <time>2022-03-02T14:00:16Z</time>
      </trkpt>
      <trkpt lat="49.93172" lon="2.20409">
        <ele>14.8</ele>
        <time>2022-03-02T14:00:17Z</time>
      </trkpt>
      <trkpt lat="49.93174" lon="2.20411">
        <ele>14.8</ele>
        <time>2022-03-02T14:00:18Z</time>
      </trkpt>
      <trkpt lat="49.93175" lon="2.20412">
        <ele>14.8</ele>
        <time>2022-03-02T14:00:20Z</time>
      </trkpt>
      <trkpt lat="49.93176" lon="2.20413">
        <ele>14.8</ele>
        <time>2022-03-02T14:00:21Z</time>
      </trkpt>
      <trkpt lat="49.93177" lon="2.20414">
        <ele>14.8</ele>
        <time>2022-03-02T14:00:22Z</time>
      </trkpt>
      <trkpt lat="49.93178" lon="2.20415">
        <ele>14.8</ele>
        <time>2022-03-02T14:00:23Z</time>
      </trkpt>
      <trkpt lat="49.93179" lon="2.20417">
        <ele>14.8</ele>
        <time>2022-03-02T14:00:24Z</time>
      </trkpt>
      <trkpt lat="49.9318" lon="2.20418">
        <ele>14.8</ele>
        <time>2022-03-02T14:00:25Z</time>
      </trkpt>
      <trkpt lat="49.93182" lon="2.2042">
        <ele>14.8</ele>
        <time>2022-03-02T14:00:26Z</time>
      </trkpt>
      <trkpt lat="49.93183" lon="2.20421">
        <ele>14.8</ele>
        <time>2022-03-02T14:00:28Z</time>
      </trkpt>
      <trkpt lat="49.93184" lon="2.20422">
        <ele>14.8</ele>
        <time>2022-03-02T14:00:29Z</time>
      </trkpt>
      <trkpt lat="49.93185" lon="2.20423">
        <ele>14.8</ele>
        <time>2022-03-02T14:00:30Z</time>
      </trkpt>
      <trkpt lat="49.93186" lon="2.20424">
        <ele>14.8</ele>
        <time>2022-03-02T14:00:31Z</time>
      </trkpt>
      <trkpt lat="49.93187" lon="2.20426">
        <ele>14.8</ele>
        <time>2022-03-02T14:00:32Z</time>
      </trkpt>
      <trkpt lat="49.93187" lon="2.20427">
        <ele>14.8</ele>
        <time>2022-03-02T14:00:33Z</time>
      </trkpt>
      <trkpt lat="49.93189" lon="2.2043">
        <ele>14.8</ele>
        <time>2022-03-02T14:00:34Z</time>
      </trkpt>
      <trkpt lat="49.93189" lon="2.20431">
        <ele>14.8</ele>
        <time>2022-03-02T14:00:35Z</time>
      </trkpt>
      <trkpt lat="49.9319" lon="2.20431">
        <ele>14.8</ele>
        <time>2022-03-02T14:00:36Z</time>
      </trkpt>
      <trkpt lat="49.93191" lon="2.20433">
        <ele>14.8</ele>
        <time>2022-03-02T14:00:37Z</time>
      </trkpt>
      <trkpt lat="49.93192" lon="2.20434">
        <ele>14.8</ele>
        <time>2022-03-02T14:00:39Z</time>
      </trkpt>
      <trkpt lat="49.93193" lon="2.20435">
        <ele>14.8</ele>
        <time>2022-03-02T14:00:40Z</time>
      </trkpt>
      <trkpt lat="49.93193" lon="2.20437">
        <ele>14.8</ele>
        <time>2022-03-02T14:00:41Z</time>
      </trkpt>
      <trkpt lat="49.93194" lon="2.20438">
        <ele>14.8</ele>
        <time>2022-03-02T14:00:42Z</time>
      </trkpt>
      <trkpt lat="49.93195" lon="2.20439">
        <ele>14.8</ele>
        <time>2022-03-02T14:00:43Z</time>
      </trkpt>
      <trkpt lat="49.93195" lon="2.2044">
        <ele>14.9</ele>
        <time>2022-03-02T14:00:44Z</time>
      </trkpt>
      <trkpt lat="49.93196" lon="2.20442">
        <ele>14.9</ele>
        <time>2022-03-02T14:00:46Z</time>
      </trkpt>
      <trkpt lat="49.93197" lon="2.20443">
        <ele>14.9</ele>
        <time>2022-03-02T14:00:47Z</time>
      </trkpt>
      <trkpt lat="49.93197" lon="2.20444">
        <ele>14.9</ele>
        <time>2022-03-02T14:00:48Z</time>
      </trkpt>
      <trkpt lat="49.93198" lon="2.20445">
        <ele>14.9</ele>
        <time>2022-03-02T14:00:49Z</time>
      </trkpt>
      <trkpt lat="49.932" lon="2.20447">
        <ele>14.9</ele>
        <time>2022-03-02T14:00:50Z</time>
      </trkpt>
      <trkpt lat="49.93201" lon="2.20447">
        <ele>14.9</ele>
        <time>2022-03-02T14:00:51Z</time>
      </trkpt>
      <trkpt lat="49.93201" lon="2.20448">
        <ele>14.9</ele>
        <time>2022-03-02T14:00:52Z</time>
      </trkpt>
      <trkpt lat="49.93203" lon="2.20451">
        <ele>15</ele>
        <time>2022-03-02T14:00:53Z</time>
      </trkpt>
      <trkpt lat="49.93204" lon="2.20452">
        <ele>15</ele>
        <time>2022-03-02T14:00:55Z</time>
      </trkpt>
      <trkpt lat="49.93205" lon="2.20453">
        <ele>15</ele>
        <time>2022-03-02T14:00:56Z</time>
      </trkpt>
      <trkpt lat="49.93205" lon="2.20454">
        <ele>15</ele>
        <time>2022-03-02T14:00:57Z</time>
      </trkpt>
      <trkpt lat="49.93206" lon="2.20455">
        <ele>15</ele>
        <time>2022-03-02T14:00:58Z</time>
      </trkpt>
      <trkpt lat="49.93207" lon="2.20456">
        <ele>15</ele>
        <time>2022-03-02T14:00:59Z</time>
      </trkpt>
      <trkpt lat="49.93207" lon="2.20458">
        <ele>15</ele>
        <time>2022-03-02T14:01:00Z</time>
      </trkpt>
      <trkpt lat="49.93208" lon="2.20459">
        <ele>15.1</ele>
        <time>2022-03-02T14:01:01Z</time>
      </trkpt>
      <trkpt lat="49.93208" lon="2.20461">
        <ele>15.1</ele>
        <time>2022-03-02T14:01:02Z</time>
      </trkpt>
      <trkpt lat="49.93209" lon="2.20462">
        <ele>15.1</ele>
        <time>2022-03-02T14:01:03Z</time>
      </trkpt>
      <trkpt lat="49.9321" lon="2.20463">
        <ele>15.1</ele>
        <time>2022-03-02T14:01:04Z</time>
      </trkpt>
      <trkpt lat="49.93211" lon="2.20465">
        <ele>15.1</ele>
        <time>2022-03-02T14:01:05Z</time>
      </trkpt>
      <trkpt lat="49.93211" lon="2.20467">
        <ele>15.1</ele>
        <time>2022-03-02T14:01:06Z</time>
      </trkpt>
      <trkpt lat="49.93212" lon="2.20469">
        <ele>15.2</ele>
        <time>2022-03-02T14:01:08Z</time>
      </trkpt>
      <trkpt lat="49.93213" lon="2.2047">
        <ele>15.2</ele>
        <time>2022-03-02T14:01:09Z</time>
      </trkpt>
      <trkpt lat="49.93214" lon="2.20473">
        <ele>15.2</ele>
        <time>2022-03-02T14:01:10Z</time>
      </trkpt>
      <trkpt lat="49.93215" lon="2.20474">
        <ele>15.2</ele>
        <time>2022-03-02T14:01:11Z</time>
      </trkpt>
      <trkpt lat="49.93215" lon="2.20475">
        <ele>15.2</ele>
        <time>2022-03-02T14:01:12Z</time>
      </trkpt>
      <trkpt lat="49.93217" lon="2.20477">
        <ele>15.3</ele>
        <time>2022-03-02T14:01:13Z</time>
      </trkpt>
      <trkpt lat="49.93217" lon="2.20478">
        <ele>15.3</ele>
        <time>2022-03-02T14:01:14Z</time>
      </trkpt>
      <trkpt lat="49.93218" lon="2.2048">
        <ele>15.3</ele>
        <time>2022-03-02T14:01:15Z</time>
      </trkpt>
      <trkpt lat="49.93218" lon="2.20481">
        <ele>15.3</ele>
        <time>2022-03-02T14:01:16Z</time>
      </trkpt>
      <trkpt lat="49.93219" lon="2.20482">
        <ele>15.3</ele>
        <time>2022-03-02T14:01:17Z</time>
      </trkpt>
      <trkpt lat="49.9322" lon="2.20483">
        <ele>15.3</ele>
        <time>2022-03-02T14:01:18Z</time>
      </trkpt>
      <trkpt lat="49.93221" lon="2.20485">
        <ele>15.3</ele>
        <time>2022-03-02T14:01:19Z</time>
      </trkpt>
      <trkpt lat="49.93221" lon="2.20486">
        <ele>15.3</ele>
        <time>2022-03-02T14:01:20Z</time>
      </trkpt>
      <trkpt lat="49.93222" lon="2.20487">
        <ele>15.3</ele>
        <time>2022-03-02T14:01:21Z</time>
      </trkpt>
      <trkpt lat="49.93223" lon="2.20488">
        <ele>15.3</ele>
        <time>2022-03-02T14:01:23Z</time>
      </trkpt>
      <trkpt lat="49.93223" lon="2.2049">
        <ele>15.3</ele>
        <time>2022-03-02T14:01:24Z</time>
      </trkpt>
      <trkpt lat="49.93224" lon="2.20491">
        <ele>15.3</ele>
        <time>2022-03-02T14:01:25Z</time>
      </trkpt>
      <trkpt lat="49.93225" lon="2.20492">
        <ele>15.2</ele>
        <time>2022-03-02T14:01:26Z</time>
      </trkpt>
      <trkpt lat="49.93225" lon="2.20493">
        <ele>15.2</ele>
        <time>2022-03-02T14:01:27Z</time>
      </trkpt>
      <trkpt lat="49.93226" lon="2.20495">
        <ele>15.2</ele>
        <time>2022-03-02T14:01:28Z</time>
      </trkpt>
      <trkpt lat="49.93227" lon="2.20496">
        <ele>15.2</ele>
        <time>2022-03-02T14:01:29Z</time>
      </trkpt>
      <trkpt lat="49.93228" lon="2.20497">
        <ele>15.2</ele>
        <time>2022-03-02T14:01:30Z</time>
      </trkpt>
      <trkpt lat="49.93229" lon="2.20499">
        <ele>14.9</ele>
        <time>2022-03-02T14:01:32Z</time>
      </trkpt>
      <trkpt lat="49.93231" lon="2.20501">
        <ele>14.8</ele>
        <time>2022-03-02T14:01:33Z</time>
      </trkpt>
      <trkpt lat="49.93232" lon="2.20502">
        <ele>14.8</ele>
        <time>2022-03-02T14:01:34Z</time>
      </trkpt>
      <trkpt lat="49.93232" lon="2.20502">
        <ele>14.8</ele>
        <time>2022-03-02T14:01:35Z</time>
      </trkpt>
      <trkpt lat="49.93234" lon="2.20501">
        <ele>14.7</ele>
        <time>2022-03-02T14:01:36Z</time>
      </trkpt>
      <trkpt lat="49.93235" lon="2.205">
        <ele>14.6</ele>
        <time>2022-03-02T14:01:37Z</time>
      </trkpt>
      <trkpt lat="49.93236" lon="2.205">
        <ele>14.6</ele>
        <time>2022-03-02T14:01:38Z</time>
      </trkpt>
      <trkpt lat="49.93237" lon="2.20499">
        <ele>14.5</ele>
        <time>2022-03-02T14:01:39Z</time>
      </trkpt>
      <trkpt lat="49.93238" lon="2.20498">
        <ele>14.5</ele>
        <time>2022-03-02T14:01:40Z</time>
      </trkpt>
      <trkpt lat="49.93239" lon="2.20497">
        <ele>14.4</ele>
        <time>2022-03-02T14:01:41Z</time>
      </trkpt>
      <trkpt lat="49.93241" lon="2.20496">
        <ele>14.4</ele>
        <time>2022-03-02T14:01:43Z</time>
      </trkpt>
      <trkpt lat="49.93242" lon="2.20494">
        <ele>14.3</ele>
        <time>2022-03-02T14:01:44Z</time>
      </trkpt>
      <trkpt lat="49.93243" lon="2.20493">
        <ele>14.3</ele>
        <time>2022-03-02T14:01:45Z</time>
      </trkpt>
      <trkpt lat="49.93244" lon="2.20492">
        <ele>14.3</ele>
        <time>2022-03-02T14:01:46Z</time>
      </trkpt>
      <trkpt lat="49.93245" lon="2.20491">
        <ele>14.2</ele>
        <time>2022-03-02T14:01:47Z</time>
      </trkpt>
      <trkpt lat="49.93246" lon="2.2049">
        <ele>14.2</ele>
        <time>2022-03-02T14:01:48Z</time>
      </trkpt>
      <trkpt lat="49.93247" lon="2.20489">
        <ele>14.2</ele>
        <time>2022-03-02T14:01:49Z</time>
      </trkpt>
      <trkpt lat="49.93248" lon="2.20488">
        <ele>14.2</ele>
        <time>2022-03-02T14:01:50Z</time>
      </trkpt>
      <trkpt lat="49.9325" lon="2.20488">
        <ele>14.2</ele>
        <time>2022-03-02T14:01:51Z</time>
      </trkpt>
      <trkpt lat="49.93251" lon="2.20487">
        <ele>14.2</ele>
        <time>2022-03-02T14:01:52Z</time>
      </trkpt>
      <trkpt lat="49.93252" lon="2.20486">
        <ele>14.2</ele>
        <time>2022-03-02T14:01:53Z</time>
      </trkpt>
      <trkpt lat="49.93252" lon="2.20485">
        <ele>14.1</ele>
        <time>2022-03-02T14:01:54Z</time>
      </trkpt>
      <trkpt lat="49.93253" lon="2.20484">
        <ele>14.1</ele>
        <time>2022-03-02T14:01:55Z</time>
      </trkpt>
      <trkpt lat="49.93254" lon="2.20483">
        <ele>14.1</ele>
        <time>2022-03-02T14:01:56Z</time>
      </trkpt>
      <trkpt lat="49.93255" lon="2.20482">
        <ele>14.1</ele>
        <time>2022-03-02T14:01:57Z</time>
      </trkpt>
      <trkpt lat="49.93257" lon="2.2048">
        <ele>14.1</ele>
        <time>2022-03-02T14:01:59Z</time>
      </trkpt>
      <trkpt lat="49.93258" lon="2.20479">
        <ele>14.1</ele>
        <time>2022-03-02T14:02:00Z</time>
      </trkpt>
      <trkpt lat="49.9326" lon="2.20477">
        <ele>14.1</ele>
        <time>2022-03-02T14:02:01Z</time>
      </trkpt>
      <trkpt lat="49.9326" lon="2.20477">
        <ele>14</ele>
        <time>2022-03-02T14:02:02Z</time>
      </trkpt>
      <trkpt lat="49.93261" lon="2.20476">
        <ele>14</ele>
        <time>2022-03-02T14:02:03Z</time>
      </trkpt>
      <trkpt lat="49.93262" lon="2.20475">
        <ele>14</ele>
        <time>2022-03-02T14:02:04Z</time>
      </trkpt>
      <trkpt lat="49.93264" lon="2.20474">
        <ele>14</ele>
        <time>2022-03-02T14:02:05Z</time>
      </trkpt>
      <trkpt lat="49.93265" lon="2.20473">
        <ele>14</ele>
        <time>2022-03-02T14:02:06Z</time>
      </trkpt>
      <trkpt lat="49.93267" lon="2.20473">
        <ele>14</ele>
        <time>2022-03-02T14:02:08Z</time>
      </trkpt>
      <trkpt lat="49.93268" lon="2.20472">
        <ele>14</ele>
        <time>2022-03-02T14:02:09Z</time>
      </trkpt>
      <trkpt lat="49.93269" lon="2.20471">
        <ele>14</ele>
        <time>2022-03-02T14:02:10Z</time>
      </trkpt>
      <trkpt lat="49.93271" lon="2.2047">
        <ele>14</ele>
        <time>2022-03-02T14:02:11Z</time>
      </trkpt>
      <trkpt lat="49.93273" lon="2.20469">
        <ele>14</ele>
        <time>2022-03-02T14:02:13Z</time>
      </trkpt>
      <trkpt lat="49.93274" lon="2.20469">
        <ele>14</ele>
        <time>2022-03-02T14:02:14Z</time>
      </trkpt>
      <trkpt lat="49.93276" lon="2.20468">
        <ele>13.9</ele>
        <time>2022-03-02T14:02:15Z</time>
      </trkpt>
      <trkpt lat="49.93278" lon="2.20467">
        <ele>13.9</ele>
        <time>2022-03-02T14:02:16Z</time>
      </trkpt>
      <trkpt lat="49.93279" lon="2.20466">
        <ele>13.9</ele>
        <time>2022-03-02T14:02:17Z</time>
      </trkpt>
      <trkpt lat="49.93279" lon="2.20466">
        <ele>13.9</ele>
        <time>2022-03-02T14:02:18Z</time>
      </trkpt>
      <trkpt lat="49.93281" lon="2.20465">
        <ele>13.9</ele>
        <time>2022-03-02T14:02:19Z</time>
      </trkpt>
      <trkpt lat="49.93282" lon="2.20464">
        <ele>13.9</ele>
        <time>2022-03-02T14:02:20Z</time>
      </trkpt>
      <trkpt lat="49.93284" lon="2.20463">
        <ele>13.9</ele>
        <time>2022-03-02T14:02:21Z</time>
      </trkpt>
      <trkpt lat="49.93285" lon="2.20462">
        <ele>13.9</ele>
        <time>2022-03-02T14:02:22Z</time>
      </trkpt>
      <trkpt lat="49.93287" lon="2.20461">
        <ele>13.9</ele>
        <time>2022-03-02T14:02:23Z</time>
      </trkpt>
      <trkpt lat="49.93288" lon="2.20461">
        <ele>13.9</ele>
        <time>2022-03-02T14:02:25Z</time>
      </trkpt>
      <trkpt lat="49.93289" lon="2.20461">
        <ele>13.9</ele>
        <time>2022-03-02T14:02:26Z</time>
      </trkpt>
      <trkpt lat="49.93291" lon="2.2046">
        <ele>13.9</ele>
        <time>2022-03-02T14:02:27Z</time>
      </trkpt>
      <trkpt lat="49.93292" lon="2.2046">
        <ele>13.9</ele>
        <time>2022-03-02T14:02:28Z</time>
      </trkpt>
      <trkpt lat="49.93293" lon="2.2046">
        <ele>13.9</ele>
        <time>2022-03-02T14:02:29Z</time>
      </trkpt>
      <trkpt lat="49.93295" lon="2.20459">
        <ele>13.9</ele>
        <time>2022-03-02T14:02:30Z</time>
      </trkpt>
      <trkpt lat="49.93296" lon="2.20459">
        <ele>13.9</ele>
        <time>2022-03-02T14:02:31Z</time>
      </trkpt>
      <trkpt lat="49.93296" lon="2.20458">
        <ele>13.9</ele>
        <time>2022-03-02T14:02:32Z</time>
      </trkpt>
      <trkpt lat="49.93298" lon="2.20457">
        <ele>13.9</ele>
        <time>2022-03-02T14:02:33Z</time>
      </trkpt>
      <trkpt lat="49.93299" lon="2.20456">
        <ele>13.9</ele>
        <time>2022-03-02T14:02:34Z</time>
      </trkpt>
      <trkpt lat="49.933" lon="2.20456">
        <ele>13.9</ele>
        <time>2022-03-02T14:02:35Z</time>
      </trkpt>
      <trkpt lat="49.93301" lon="2.20455">
        <ele>13.9</ele>
        <time>2022-03-02T14:02:36Z</time>
      </trkpt>
      <trkpt lat="49.93302" lon="2.20453">
        <ele>13.9</ele>
        <time>2022-03-02T14:02:38Z</time>
      </trkpt>
      <trkpt lat="49.93302" lon="2.20452">
        <ele>13.9</ele>
        <time>2022-03-02T14:02:39Z</time>
      </trkpt>
      <trkpt lat="49.93303" lon="2.20451">
        <ele>13.9</ele>
        <time>2022-03-02T14:02:40Z</time>
      </trkpt>
      <trkpt lat="49.93304" lon="2.2045">
        <ele>13.9</ele>
        <time>2022-03-02T14:02:41Z</time>
      </trkpt>
      <trkpt lat="49.93304" lon="2.20449">
        <ele>13.9</ele>
        <time>2022-03-02T14:02:42Z</time>
      </trkpt>
      <trkpt lat="49.93306" lon="2.20448">
        <ele>13.9</ele>
        <time>2022-03-02T14:02:43Z</time>
      </trkpt>
      <trkpt lat="49.93307" lon="2.20447">
        <ele>13.9</ele>
        <time>2022-03-02T14:02:44Z</time>
      </trkpt>
      <trkpt lat="49.93307" lon="2.20446">
        <ele>13.9</ele>
        <time>2022-03-02T14:02:45Z</time>
      </trkpt>
      <trkpt lat="49.93308" lon="2.20445">
        <ele>13.9</ele>
        <time>2022-03-02T14:02:46Z</time>
      </trkpt>
      <trkpt lat="49.93309" lon="2.20444">
        <ele>13.8</ele>
        <time>2022-03-02T14:02:47Z</time>
      </trkpt>
      <trkpt lat="49.9331" lon="2.20443">
        <ele>13.8</ele>
        <time>2022-03-02T14:02:49Z</time>
      </trkpt>
      <trkpt lat="49.9331" lon="2.20441">
        <ele>13.8</ele>
        <time>2022-03-02T14:02:50Z</time>
      </trkpt>
      <trkpt lat="49.9331" lon="2.2044">
        <ele>13.8</ele>
        <time>2022-03-02T14:02:51Z</time>
      </trkpt>
      <trkpt lat="49.9331" lon="2.20439">
        <ele>13.8</ele>
        <time>2022-03-02T14:02:52Z</time>
      </trkpt>
      <trkpt lat="49.93311" lon="2.20438">
        <ele>13.8</ele>
        <time>2022-03-02T14:02:53Z</time>
      </trkpt>
      <trkpt lat="49.93311" lon="2.20438">
        <ele>13.8</ele>
        <time>2022-03-02T14:02:54Z</time>
      </trkpt>
      <trkpt lat="49.93311" lon="2.20437">
        <ele>13.8</ele>
        <time>2022-03-02T14:02:55Z</time>
      </trkpt>
      <trkpt lat="49.93311" lon="2.20437">
        <ele>13.8</ele>
        <time>2022-03-02T14:02:56Z</time>
      </trkpt>
      <trkpt lat="49.9331" lon="2.20436">
        <ele>13.8</ele>
        <time>2022-03-02T14:02:57Z</time>
      </trkpt>
      <trkpt lat="49.9331" lon="2.20436">
        <ele>13.8</ele>
        <time>2022-03-02T14:02:58Z</time>
      </trkpt>
      <trkpt lat="49.9331" lon="2.20436">
        <ele>13.8</ele>
        <time>2022-03-02T14:02:59Z</time>
      </trkpt>
      <trkpt lat="49.9331" lon="2.20435">
        <ele>13.8</ele>
        <time>2022-03-02T14:03:00Z</time>
      </trkpt>
      <trkpt lat="49.93309" lon="2.20434">
        <ele>13.8</ele>
        <time>2022-03-02T14:03:01Z</time>
      </trkpt>
      <trkpt lat="49.93308" lon="2.20434">
        <ele>13.8</ele>
        <time>2022-03-02T14:03:02Z</time>
      </trkpt>
      <trkpt lat="49.93308" lon="2.20433">
        <ele>13.8</ele>
        <time>2022-03-02T14:03:03Z</time>
      </trkpt>
      <trkpt lat="49.93308" lon="2.20432">
        <ele>13.8</ele>
        <time>2022-03-02T14:03:05Z</time>
      </trkpt>
      <trkpt lat="49.93309" lon="2.20432">
        <ele>13.8</ele>
        <time>2022-03-02T14:03:06Z</time>
      </trkpt>
      <trkpt lat="49.93309" lon="2.20431">
        <ele>13.8</ele>
        <time>2022-03-02T14:03:07Z</time>
      </trkpt>
      <trkpt lat="49.9331" lon="2.2043">
        <ele>13.8</ele>
        <time>2022-03-02T14:03:08Z</time>
      </trkpt>
      <trkpt lat="49.93311" lon="2.2043">
        <ele>13.8</ele>
        <time>2022-03-02T14:03:09Z</time>
      </trkpt>
      <trkpt lat="49.93312" lon="2.2043">
        <ele>13.8</ele>
        <time>2022-03-02T14:03:10Z</time>
      </trkpt>
      <trkpt lat="49.93312" lon="2.20431">
        <ele>13.8</ele>
        <time>2022-03-02T14:03:11Z</time>
      </trkpt>
      <trkpt lat="49.93313" lon="2.2043">
        <ele>13.8</ele>
        <time>2022-03-02T14:03:12Z</time>
      </trkpt>
      <trkpt lat="49.93314" lon="2.2043">
        <ele>13.8</ele>
        <time>2022-03-02T14:03:14Z</time>
      </trkpt>
      <trkpt lat="49.93315" lon="2.20429">
        <ele>13.8</ele>
        <time>2022-03-02T14:03:15Z</time>
      </trkpt>
      <trkpt lat="49.93316" lon="2.20429">
        <ele>13.8</ele>
        <time>2022-03-02T14:03:16Z</time>
      </trkpt>
      <trkpt lat="49.93317" lon="2.20428">
        <ele>13.8</ele>
        <time>2022-03-02T14:03:17Z</time>
      </trkpt>
      <trkpt lat="49.93318" lon="2.20427">
        <ele>13.8</ele>
        <time>2022-03-02T14:03:18Z</time>
      </trkpt>
      <trkpt lat="49.93319" lon="2.20427">
        <ele>13.8</ele>
        <time>2022-03-02T14:03:19Z</time>
      </trkpt>
      <trkpt lat="49.9332" lon="2.20426">
        <ele>13.8</ele>
        <time>2022-03-02T14:03:20Z</time>
      </trkpt>
      <trkpt lat="49.9332" lon="2.20424">
        <ele>13.8</ele>
        <time>2022-03-02T14:03:21Z</time>
      </trkpt>
      <trkpt lat="49.9332" lon="2.20423">
        <ele>13.7</ele>
        <time>2022-03-02T14:03:22Z</time>
      </trkpt>
      <trkpt lat="49.93321" lon="2.20423">
        <ele>13.7</ele>
        <time>2022-03-02T14:03:24Z</time>
      </trkpt>
      <trkpt lat="49.93322" lon="2.20422">
        <ele>13.7</ele>
        <time>2022-03-02T14:03:25Z</time>
      </trkpt>
      <trkpt lat="49.93323" lon="2.20421">
        <ele>13.7</ele>
        <time>2022-03-02T14:03:26Z</time>
      </trkpt>
      <trkpt lat="49.93324" lon="2.2042">
        <ele>13.7</ele>
        <time>2022-03-02T14:03:27Z</time>
      </trkpt>
      <trkpt lat="49.93325" lon="2.20418">
        <ele>13.7</ele>
        <time>2022-03-02T14:03:28Z</time>
      </trkpt>
      <trkpt lat="49.93325" lon="2.20418">
        <ele>13.7</ele>
        <time>2022-03-02T14:03:29Z</time>
      </trkpt>
      <trkpt lat="49.93326" lon="2.20417">
        <ele>13.7</ele>
        <time>2022-03-02T14:03:30Z</time>
      </trkpt>
      <trkpt lat="49.93326" lon="2.20416">
        <ele>13.7</ele>
        <time>2022-03-02T14:03:31Z</time>
      </trkpt>
      <trkpt lat="49.93327" lon="2.20415">
        <ele>13.7</ele>
        <time>2022-03-02T14:03:32Z</time>
      </trkpt>
      <trkpt lat="49.93327" lon="2.20413">
        <ele>13.7</ele>
        <time>2022-03-02T14:03:33Z</time>
      </trkpt>
      <trkpt lat="49.93328" lon="2.20411">
        <ele>13.7</ele>
        <time>2022-03-02T14:03:35Z</time>
      </trkpt>
      <trkpt lat="49.93329" lon="2.20409">
        <ele>13.7</ele>
        <time>2022-03-02T14:03:36Z</time>
      </trkpt>
      <trkpt lat="49.93329" lon="2.20408">
        <ele>13.6</ele>
        <time>2022-03-02T14:03:37Z</time>
      </trkpt>
      <trkpt lat="49.9333" lon="2.20406">
        <ele>13.6</ele>
        <time>2022-03-02T14:03:38Z</time>
      </trkpt>
      <trkpt lat="49.93331" lon="2.20404">
        <ele>13.6</ele>
        <time>2022-03-02T14:03:39Z</time>
      </trkpt>
      <trkpt lat="49.93331" lon="2.20403">
        <ele>13.6</ele>
        <time>2022-03-02T14:03:40Z</time>
      </trkpt>
      <trkpt lat="49.93332" lon="2.20401">
        <ele>13.6</ele>
        <time>2022-03-02T14:03:41Z</time>
      </trkpt>
      <trkpt lat="49.93333" lon="2.20399">
        <ele>13.6</ele>
        <time>2022-03-02T14:03:42Z</time>
      </trkpt>
      <trkpt lat="49.93334" lon="2.20398">
        <ele>13.6</ele>
        <time>2022-03-02T14:03:43Z</time>
      </trkpt>
      <trkpt lat="49.93334" lon="2.20397">
        <ele>13.6</ele>
        <time>2022-03-02T14:03:44Z</time>
      </trkpt>
      <trkpt lat="49.93336" lon="2.20393">
        <ele>13.6</ele>
        <time>2022-03-02T14:03:45Z</time>
      </trkpt>
      <trkpt lat="49.93337" lon="2.20392">
        <ele>13.6</ele>
        <time>2022-03-02T14:03:47Z</time>
      </trkpt>
      <trkpt lat="49.93337" lon="2.20391">
        <ele>13.6</ele>
        <time>2022-03-02T14:03:48Z</time>
      </trkpt>
      <trkpt lat="49.93338" lon="2.20389">
        <ele>13.6</ele>
        <time>2022-03-02T14:03:49Z</time>
      </trkpt>
      <trkpt lat="49.93339" lon="2.20388">
        <ele>13.6</ele>
        <time>2022-03-02T14:03:50Z</time>
      </trkpt>
      <trkpt lat="49.9334" lon="2.20386">
        <ele>13.6</ele>
        <time>2022-03-02T14:03:51Z</time>
      </trkpt>
      <trkpt lat="49.93341" lon="2.20384">
        <ele>13.6</ele>
        <time>2022-03-02T14:03:52Z</time>
      </trkpt>
      <trkpt lat="49.93342" lon="2.20383">
        <ele>13.6</ele>
        <time>2022-03-02T14:03:53Z</time>
      </trkpt>
      <trkpt lat="49.93344" lon="2.20381">
        <ele>13.6</ele>
        <time>2022-03-02T14:03:54Z</time>
      </trkpt>
      <trkpt lat="49.93345" lon="2.2038">
        <ele>13.6</ele>
        <time>2022-03-02T14:03:55Z</time>
      </trkpt>
      <trkpt lat="49.93346" lon="2.20379">
        <ele>13.6</ele>
        <time>2022-03-02T14:03:56Z</time>
      </trkpt>
      <trkpt lat="49.93347" lon="2.20378">
        <ele>13.6</ele>
        <time>2022-03-02T14:03:57Z</time>
      </trkpt>
      <trkpt lat="49.93349" lon="2.20377">
        <ele>13.6</ele>
        <time>2022-03-02T14:03:58Z</time>
      </trkpt>
      <trkpt lat="49.9335" lon="2.20376">
        <ele>13.6</ele>
        <time>2022-03-02T14:03:59Z</time>
      </trkpt>
      <trkpt lat="49.93351" lon="2.20376">
        <ele>13.6</ele>
        <time>2022-03-02T14:04:00Z</time>
      </trkpt>
      <trkpt lat="49.93352" lon="2.20374">
        <ele>13.6</ele>
        <time>2022-03-02T14:04:01Z</time>
      </trkpt>
      <trkpt lat="49.93353" lon="2.20373">
        <ele>13.6</ele>
        <time>2022-03-02T14:04:02Z</time>
      </trkpt>
      <trkpt lat="49.93354" lon="2.20371">
        <ele>13.5</ele>
        <time>2022-03-02T14:04:04Z</time>
      </trkpt>
      <trkpt lat="49.93355" lon="2.2037">
        <ele>13.5</ele>
        <time>2022-03-02T14:04:05Z</time>
      </trkpt>
      <trkpt lat="49.93356" lon="2.20368">
        <ele>13.5</ele>
        <time>2022-03-02T14:04:06Z</time>
      </trkpt>
      <trkpt lat="49.93357" lon="2.20367">
        <ele>13.5</ele>
        <time>2022-03-02T14:04:07Z</time>
      </trkpt>
      <trkpt lat="49.93359" lon="2.20364">
        <ele>13.5</ele>
        <time>2022-03-02T14:04:08Z</time>
      </trkpt>
      <trkpt lat="49.93359" lon="2.20364">
        <ele>13.5</ele>
        <time>2022-03-02T14:04:09Z</time>
      </trkpt>
      <trkpt lat="49.9336" lon="2.20363">
        <ele>13.5</ele>
        <time>2022-03-02T14:04:10Z</time>
      </trkpt>
      <trkpt lat="49.93361" lon="2.20362">
        <ele>13.5</ele>
        <time>2022-03-02T14:04:11Z</time>
      </trkpt>
      <trkpt lat="49.93362" lon="2.20361">
        <ele>13.5</ele>
        <time>2022-03-02T14:04:12Z</time>
      </trkpt>
      <trkpt lat="49.93362" lon="2.2036">
        <ele>13.5</ele>
        <time>2022-03-02T14:04:13Z</time>
      </trkpt>
      <trkpt lat="49.93363" lon="2.2036">
        <ele>13.5</ele>
        <time>2022-03-02T14:04:14Z</time>
      </trkpt>
      <trkpt lat="49.93364" lon="2.20359">
        <ele>13.5</ele>
        <time>2022-03-02T14:04:15Z</time>
      </trkpt>
      <trkpt lat="49.93365" lon="2.20358">
        <ele>13.5</ele>
        <time>2022-03-02T14:04:17Z</time>
      </trkpt>
      <trkpt lat="49.93366" lon="2.20358">
        <ele>13.5</ele>
        <time>2022-03-02T14:04:18Z</time>
      </trkpt>
      <trkpt lat="49.93367" lon="2.20358">
        <ele>13.5</ele>
        <time>2022-03-02T14:04:19Z</time>
      </trkpt>
      <trkpt lat="49.93368" lon="2.20358">
        <ele>13.5</ele>
        <time>2022-03-02T14:04:20Z</time>
      </trkpt>
      <trkpt lat="49.93369" lon="2.20357">
        <ele>13.5</ele>
        <time>2022-03-02T14:04:22Z</time>
      </trkpt>
      <trkpt lat="49.93369" lon="2.20356">
        <ele>13.5</ele>
        <time>2022-03-02T14:04:23Z</time>
      </trkpt>
      <trkpt lat="49.9337" lon="2.20355">
        <ele>13.5</ele>
        <time>2022-03-02T14:04:24Z</time>
      </trkpt>
      <trkpt lat="49.93371" lon="2.20355">
        <ele>13.5</ele>
        <time>2022-03-02T14:04:25Z</time>
      </trkpt>
      <trkpt lat="49.93372" lon="2.20354">
        <ele>13.4</ele>
        <time>2022-03-02T14:04:26Z</time>
      </trkpt>
      <trkpt lat="49.93372" lon="2.20353">
        <ele>13.4</ele>
        <time>2022-03-02T14:04:27Z</time>
      </trkpt>
      <trkpt lat="49.93373" lon="2.20351">
        <ele>13.4</ele>
        <time>2022-03-02T14:04:28Z</time>
      </trkpt>
      <trkpt lat="49.93374" lon="2.2035">
        <ele>13.4</ele>
        <time>2022-03-02T14:04:29Z</time>
      </trkpt>
      <trkpt lat="49.93375" lon="2.20348">
        <ele>13.4</ele>
        <time>2022-03-02T14:04:30Z</time>
      </trkpt>
      <trkpt lat="49.93376" lon="2.20346">
        <ele>13.4</ele>
        <time>2022-03-02T14:04:31Z</time>
      </trkpt>
      <trkpt lat="49.93377" lon="2.20344">
        <ele>13.4</ele>
        <time>2022-03-02T14:04:32Z</time>
      </trkpt>
      <trkpt lat="49.93379" lon="2.20343">
        <ele>13.4</ele>
        <time>2022-03-02T14:04:34Z</time>
      </trkpt>
      <trkpt lat="49.9338" lon="2.20341">
        <ele>13.4</ele>
        <time>2022-03-02T14:04:35Z</time>
      </trkpt>
      <trkpt lat="49.93381" lon="2.20339">
        <ele>13.4</ele>
        <time>2022-03-02T14:04:37Z</time>
      </trkpt>
      <trkpt lat="49.93383" lon="2.20337">
        <ele>13.4</ele>
        <time>2022-03-02T14:04:38Z</time>
      </trkpt>
      <trkpt lat="49.93384" lon="2.20336">
        <ele>13.4</ele>
        <time>2022-03-02T14:04:39Z</time>
      </trkpt>
      <trkpt lat="49.93385" lon="2.20334">
        <ele>13.4</ele>
        <time>2022-03-02T14:04:40Z</time>
      </trkpt>
      <trkpt lat="49.93387" lon="2.20332">
        <ele>13.4</ele>
        <time>2022-03-02T14:04:41Z</time>
      </trkpt>
      <trkpt lat="49.93388" lon="2.20331">
        <ele>13.4</ele>
        <time>2022-03-02T14:04:42Z</time>
      </trkpt>
      <trkpt lat="49.93389" lon="2.20329">
        <ele>13.4</ele>
        <time>2022-03-02T14:04:43Z</time>
      </trkpt>
      <trkpt lat="49.9339" lon="2.20328">
        <ele>13.4</ele>
        <time>2022-03-02T14:04:44Z</time>
      </trkpt>
      <trkpt lat="49.93391" lon="2.20327">
        <ele>13.4</ele>
        <time>2022-03-02T14:04:45Z</time>
      </trkpt>
      <trkpt lat="49.93391" lon="2.20326">
        <ele>13.4</ele>
        <time>2022-03-02T14:04:46Z</time>
      </trkpt>
      <trkpt lat="49.93392" lon="2.20325">
        <ele>13.4</ele>
        <time>2022-03-02T14:04:47Z</time>
      </trkpt>
      <trkpt lat="49.93392" lon="2.20325">
        <ele>13.4</ele>
        <time>2022-03-02T14:04:48Z</time>
      </trkpt>
      <trkpt lat="49.93393" lon="2.20324">
        <ele>13.4</ele>
        <time>2022-03-02T14:04:49Z</time>
      </trkpt>
      <trkpt lat="49.93394" lon="2.20323">
        <ele>13.4</ele>
        <time>2022-03-02T14:04:50Z</time>
      </trkpt>
      <trkpt lat="49.93394" lon="2.20322">
        <ele>13.4</ele>
        <time>2022-03-02T14:04:51Z</time>
      </trkpt>
      <trkpt lat="49.93395" lon="2.20321">
        <ele>13.4</ele>
        <time>2022-03-02T14:04:53Z</time>
      </trkpt>
      <trkpt lat="49.93396" lon="2.20319">
        <ele>13.4</ele>
        <time>2022-03-02T14:04:54Z</time>
      </trkpt>
      <trkpt lat="49.93398" lon="2.20317">
        <ele>13.4</ele>
        <time>2022-03-02T14:04:55Z</time>
      </trkpt>
      <trkpt lat="49.93398" lon="2.20316">
        <ele>13.4</ele>
        <time>2022-03-02T14:04:56Z</time>
      </trkpt>
      <trkpt lat="49.93399" lon="2.20315">
        <ele>13.4</ele>
        <time>2022-03-02T14:04:57Z</time>
      </trkpt>
      <trkpt lat="49.934" lon="2.20314">
        <ele>13.4</ele>
        <time>2022-03-02T14:04:58Z</time>
      </trkpt>
      <trkpt lat="49.934" lon="2.20313">
        <ele>13.4</ele>
        <time>2022-03-02T14:04:59Z</time>
      </trkpt>
      <trkpt lat="49.93401" lon="2.20312">
        <ele>13.4</ele>
        <time>2022-03-02T14:05:00Z</time>
      </trkpt>
      <trkpt lat="49.93401" lon="2.20312">
        <ele>13.4</ele>
        <time>2022-03-02T14:05:01Z</time>
      </trkpt>
      <trkpt lat="49.93402" lon="2.20311">
        <ele>13.4</ele>
        <time>2022-03-02T14:05:02Z</time>
      </trkpt>
      <trkpt lat="49.93402" lon="2.2031">
        <ele>13.4</ele>
        <time>2022-03-02T14:05:03Z</time>
      </trkpt>
      <trkpt lat="49.93403" lon="2.2031">
        <ele>13.4</ele>
        <time>2022-03-02T14:05:04Z</time>
      </trkpt>
      <trkpt lat="49.93403" lon="2.20309">
        <ele>13.4</ele>
        <time>2022-03-02T14:05:05Z</time>
      </trkpt>
      <trkpt lat="49.93405" lon="2.20306">
        <ele>13.4</ele>
        <time>2022-03-02T14:05:06Z</time>
      </trkpt>
      <trkpt lat="49.93406" lon="2.20305">
        <ele>13.4</ele>
        <time>2022-03-02T14:05:08Z</time>
      </trkpt>
      <trkpt lat="49.93407" lon="2.20304">
        <ele>13.4</ele>
        <time>2022-03-02T14:05:09Z</time>
      </trkpt>
      <trkpt lat="49.93408" lon="2.20302">
        <ele>13.4</ele>
        <time>2022-03-02T14:05:10Z</time>
      </trkpt>
      <trkpt lat="49.93409" lon="2.20301">
        <ele>13.3</ele>
        <time>2022-03-02T14:05:11Z</time>
      </trkpt>
      <trkpt lat="49.93411" lon="2.20298">
        <ele>13.3</ele>
        <time>2022-03-02T14:05:12Z</time>
      </trkpt>
      <trkpt lat="49.93412" lon="2.20297">
        <ele>13.3</ele>
        <time>2022-03-02T14:05:13Z</time>
      </trkpt>
      <trkpt lat="49.93414" lon="2.20296">
        <ele>13.3</ele>
        <time>2022-03-02T14:05:14Z</time>
      </trkpt>
      <trkpt lat="49.93415" lon="2.20292">
        <ele>13.3</ele>
        <time>2022-03-02T14:05:16Z</time>
      </trkpt>
      <trkpt lat="49.93417" lon="2.20291">
        <ele>13.3</ele>
        <time>2022-03-02T14:05:17Z</time>
      </trkpt>
      <trkpt lat="49.93418" lon="2.2029">
        <ele>13.3</ele>
        <time>2022-03-02T14:05:18Z</time>
      </trkpt>
      <trkpt lat="49.93419" lon="2.20288">
        <ele>13.3</ele>
        <time>2022-03-02T14:05:19Z</time>
      </trkpt>
      <trkpt lat="49.9342" lon="2.20287">
        <ele>13.3</ele>
        <time>2022-03-02T14:05:20Z</time>
      </trkpt>
      <trkpt lat="49.93421" lon="2.20286">
        <ele>13.3</ele>
        <time>2022-03-02T14:05:21Z</time>
      </trkpt>
      <trkpt lat="49.93422" lon="2.20284">
        <ele>13.3</ele>
        <time>2022-03-02T14:05:23Z</time>
      </trkpt>
      <trkpt lat="49.93423" lon="2.20282">
        <ele>13.3</ele>
        <time>2022-03-02T14:05:24Z</time>
      </trkpt>
      <trkpt lat="49.93424" lon="2.20281">
        <ele>13.3</ele>
        <time>2022-03-02T14:05:25Z</time>
      </trkpt>
      <trkpt lat="49.93425" lon="2.20279">
        <ele>13.3</ele>
        <time>2022-03-02T14:05:26Z</time>
      </trkpt>
      <trkpt lat="49.93425" lon="2.20279">
        <ele>13.3</ele>
        <time>2022-03-02T14:05:27Z</time>
      </trkpt>
      <trkpt lat="49.93427" lon="2.20277">
        <ele>13.3</ele>
        <time>2022-03-02T14:05:28Z</time>
      </trkpt>
      <trkpt lat="49.93427" lon="2.20276">
        <ele>13.3</ele>
        <time>2022-03-02T14:05:29Z</time>
      </trkpt>
      <trkpt lat="49.93428" lon="2.20275">
        <ele>13.3</ele>
        <time>2022-03-02T14:05:30Z</time>
      </trkpt>
      <trkpt lat="49.93431" lon="2.20271">
        <ele>13.3</ele>
        <time>2022-03-02T14:05:31Z</time>
      </trkpt>
      <trkpt lat="49.93432" lon="2.2027">
        <ele>13.3</ele>
        <time>2022-03-02T14:05:32Z</time>
      </trkpt>
      <trkpt lat="49.93434" lon="2.20267">
        <ele>13.3</ele>
        <time>2022-03-02T14:05:34Z</time>
      </trkpt>
      <trkpt lat="49.93436" lon="2.20265">
        <ele>13.3</ele>
        <time>2022-03-02T14:05:35Z</time>
      </trkpt>
      <trkpt lat="49.93437" lon="2.20263">
        <ele>13.3</ele>
        <time>2022-03-02T14:05:36Z</time>
      </trkpt>
      <trkpt lat="49.93439" lon="2.20261">
        <ele>13.3</ele>
        <time>2022-03-02T14:05:37Z</time>
      </trkpt>
      <trkpt lat="49.9344" lon="2.2026">
        <ele>13.3</ele>
        <time>2022-03-02T14:05:38Z</time>
      </trkpt>
      <trkpt lat="49.93442" lon="2.20259">
        <ele>13.3</ele>
        <time>2022-03-02T14:05:39Z</time>
      </trkpt>
      <trkpt lat="49.93443" lon="2.20257">
        <ele>13.3</ele>
        <time>2022-03-02T14:05:41Z</time>
      </trkpt>
      <trkpt lat="49.93446" lon="2.20254">
        <ele>13.3</ele>
        <time>2022-03-02T14:05:42Z</time>
      </trkpt>
      <trkpt lat="49.93447" lon="2.20253">
        <ele>13.3</ele>
        <time>2022-03-02T14:05:43Z</time>
      </trkpt>
      <trkpt lat="49.93449" lon="2.20251">
        <ele>13.3</ele>
        <time>2022-03-02T14:05:44Z</time>
      </trkpt>
      <trkpt lat="49.93451" lon="2.20249">
        <ele>13.3</ele>
        <time>2022-03-02T14:05:46Z</time>
      </trkpt>
      <trkpt lat="49.93452" lon="2.20247">
        <ele>13.3</ele>
        <time>2022-03-02T14:05:47Z</time>
      </trkpt>
      <trkpt lat="49.93453" lon="2.20246">
        <ele>13.3</ele>
        <time>2022-03-02T14:05:48Z</time>
      </trkpt>
      <trkpt lat="49.93454" lon="2.20244">
        <ele>13.3</ele>
        <time>2022-03-02T14:05:49Z</time>
      </trkpt>
      <trkpt lat="49.93456" lon="2.20242">
        <ele>13.3</ele>
        <time>2022-03-02T14:05:50Z</time>
      </trkpt>
      <trkpt lat="49.93457" lon="2.20241">
        <ele>13.3</ele>
        <time>2022-03-02T14:05:51Z</time>
      </trkpt>
      <trkpt lat="49.93458" lon="2.20239">
        <ele>13.3</ele>
        <time>2022-03-02T14:05:52Z</time>
      </trkpt>
      <trkpt lat="49.93459" lon="2.20238">
        <ele>13.3</ele>
        <time>2022-03-02T14:05:53Z</time>
      </trkpt>
      <trkpt lat="49.9346" lon="2.20236">
        <ele>13.3</ele>
        <time>2022-03-02T14:05:54Z</time>
      </trkpt>
      <trkpt lat="49.93462" lon="2.20234">
        <ele>13.3</ele>
        <time>2022-03-02T14:05:55Z</time>
      </trkpt>
      <trkpt lat="49.93463" lon="2.20232">
        <ele>13.3</ele>
        <time>2022-03-02T14:05:56Z</time>
      </trkpt>
      <trkpt lat="49.93465" lon="2.20231">
        <ele>13.3</ele>
        <time>2022-03-02T14:05:57Z</time>
      </trkpt>
      <trkpt lat="49.93466" lon="2.20229">
        <ele>13.3</ele>
        <time>2022-03-02T14:05:59Z</time>
      </trkpt>
      <trkpt lat="49.93467" lon="2.20228">
        <ele>13.3</ele>
        <time>2022-03-02T14:06:00Z</time>
      </trkpt>
      <trkpt lat="49.93468" lon="2.20227">
        <ele>13.3</ele>
        <time>2022-03-02T14:06:01Z</time>
      </trkpt>
      <trkpt lat="49.93469" lon="2.20226">
        <ele>13.3</ele>
        <time>2022-03-02T14:06:02Z</time>
      </trkpt>
      <trkpt lat="49.93471" lon="2.20225">
        <ele>13.3</ele>
        <time>2022-03-02T14:06:03Z</time>
      </trkpt>
      <trkpt lat="49.93472" lon="2.20224">
        <ele>13.3</ele>
        <time>2022-03-02T14:06:04Z</time>
      </trkpt>
      <trkpt lat="49.93473" lon="2.20222">
        <ele>13.3</ele>
        <time>2022-03-02T14:06:05Z</time>
      </trkpt>
      <trkpt lat="49.93475" lon="2.20221">
        <ele>13.3</ele>
        <time>2022-03-02T14:06:06Z</time>
      </trkpt>
      <trkpt lat="49.93476" lon="2.20219">
        <ele>13.3</ele>
        <time>2022-03-02T14:06:07Z</time>
      </trkpt>
      <trkpt lat="49.93477" lon="2.20217">
        <ele>13.3</ele>
        <time>2022-03-02T14:06:08Z</time>
      </trkpt>
      <trkpt lat="49.93478" lon="2.20216">
        <ele>13.3</ele>
        <time>2022-03-02T14:06:09Z</time>
      </trkpt>
      <trkpt lat="49.93479" lon="2.20214">
        <ele>13.3</ele>
        <time>2022-03-02T14:06:10Z</time>
      </trkpt>
      <trkpt lat="49.9348" lon="2.20212">
        <ele>13.3</ele>
        <time>2022-03-02T14:06:11Z</time>
      </trkpt>
      <trkpt lat="49.93481" lon="2.20211">
        <ele>13.3</ele>
        <time>2022-03-02T14:06:13Z</time>
      </trkpt>
      <trkpt lat="49.93482" lon="2.20209">
        <ele>13.3</ele>
        <time>2022-03-02T14:06:14Z</time>
      </trkpt>
      <trkpt lat="49.93483" lon="2.20208">
        <ele>13.3</ele>
        <time>2022-03-02T14:06:15Z</time>
      </trkpt>
      <trkpt lat="49.93484" lon="2.20206">
        <ele>13.3</ele>
        <time>2022-03-02T14:06:16Z</time>
      </trkpt>
      <trkpt lat="49.93485" lon="2.20204">
        <ele>13.3</ele>
        <time>2022-03-02T14:06:17Z</time>
      </trkpt>
      <trkpt lat="49.93486" lon="2.20202">
        <ele>13.3</ele>
        <time>2022-03-02T14:06:18Z</time>
      </trkpt>
      <trkpt lat="49.93487" lon="2.20201">
        <ele>13.3</ele>
        <time>2022-03-02T14:06:19Z</time>
      </trkpt>
      <trkpt lat="49.93488" lon="2.20199">
        <ele>13.3</ele>
        <time>2022-03-02T14:06:20Z</time>
      </trkpt>
      <trkpt lat="49.9349" lon="2.20197">
        <ele>13.3</ele>
        <time>2022-03-02T14:06:21Z</time>
      </trkpt>
      <trkpt lat="49.93491" lon="2.20196">
        <ele>13.3</ele>
        <time>2022-03-02T14:06:22Z</time>
      </trkpt>
      <trkpt lat="49.93492" lon="2.20195">
        <ele>13.3</ele>
        <time>2022-03-02T14:06:23Z</time>
      </trkpt>
      <trkpt lat="49.93493" lon="2.20194">
        <ele>13.3</ele>
        <time>2022-03-02T14:06:24Z</time>
      </trkpt>
      <trkpt lat="49.93495" lon="2.20191">
        <ele>13.3</ele>
        <time>2022-03-02T14:06:26Z</time>
      </trkpt>
      <trkpt lat="49.93496" lon="2.2019">
        <ele>13.3</ele>
        <time>2022-03-02T14:06:27Z</time>
      </trkpt>
      <trkpt lat="49.93497" lon="2.20188">
        <ele>13.3</ele>
        <time>2022-03-02T14:06:28Z</time>
      </trkpt>
      <trkpt lat="49.93498" lon="2.20186">
        <ele>13.3</ele>
        <time>2022-03-02T14:06:29Z</time>
      </trkpt>
      <trkpt lat="49.93499" lon="2.20185">
        <ele>13.3</ele>
        <time>2022-03-02T14:06:30Z</time>
      </trkpt>
      <trkpt lat="49.93499" lon="2.20184">
        <ele>13.3</ele>
        <time>2022-03-02T14:06:31Z</time>
      </trkpt>
      <trkpt lat="49.93501" lon="2.20183">
        <ele>13.3</ele>
        <time>2022-03-02T14:06:32Z</time>
      </trkpt>
      <trkpt lat="49.93502" lon="2.20183">
        <ele>13.3</ele>
        <time>2022-03-02T14:06:34Z</time>
      </trkpt>
      <trkpt lat="49.93504" lon="2.20182">
        <ele>13.3</ele>
        <time>2022-03-02T14:06:35Z</time>
      </trkpt>
      <trkpt lat="49.93505" lon="2.20181">
        <ele>13.3</ele>
        <time>2022-03-02T14:06:36Z</time>
      </trkpt>
      <trkpt lat="49.93506" lon="2.20179">
        <ele>13.3</ele>
        <time>2022-03-02T14:06:37Z</time>
      </trkpt>
      <trkpt lat="49.93507" lon="2.20179">
        <ele>13.3</ele>
        <time>2022-03-02T14:06:38Z</time>
      </trkpt>
      <trkpt lat="49.93508" lon="2.20178">
        <ele>13.3</ele>
        <time>2022-03-02T14:06:39Z</time>
      </trkpt>
      <trkpt lat="49.93509" lon="2.20177">
        <ele>13.3</ele>
        <time>2022-03-02T14:06:41Z</time>
      </trkpt>
      <trkpt lat="49.9351" lon="2.20175">
        <ele>13.3</ele>
        <time>2022-03-02T14:06:42Z</time>
      </trkpt>
      <trkpt lat="49.93512" lon="2.20174">
        <ele>13.3</ele>
        <time>2022-03-02T14:06:43Z</time>
      </trkpt>
      <trkpt lat="49.93512" lon="2.20172">
        <ele>13.3</ele>
        <time>2022-03-02T14:06:44Z</time>
      </trkpt>
      <trkpt lat="49.93513" lon="2.2017">
        <ele>13.3</ele>
        <time>2022-03-02T14:06:45Z</time>
      </trkpt>
      <trkpt lat="49.93514" lon="2.20169">
        <ele>13.3</ele>
        <time>2022-03-02T14:06:46Z</time>
      </trkpt>
      <trkpt lat="49.93515" lon="2.20168">
        <ele>13.3</ele>
        <time>2022-03-02T14:06:47Z</time>
      </trkpt>
      <trkpt lat="49.93514" lon="2.20168">
        <ele>13.3</ele>
        <time>2022-03-02T14:06:48Z</time>
      </trkpt>
      <trkpt lat="49.93514" lon="2.20167">
        <ele>13.3</ele>
        <time>2022-03-02T14:06:49Z</time>
      </trkpt>
      <trkpt lat="49.93515" lon="2.20167">
        <ele>13.3</ele>
        <time>2022-03-02T14:06:50Z</time>
      </trkpt>
      <trkpt lat="49.93515" lon="2.20166">
        <ele>13.3</ele>
        <time>2022-03-02T14:06:51Z</time>
      </trkpt>
      <trkpt lat="49.93516" lon="2.20166">
        <ele>13.3</ele>
        <time>2022-03-02T14:06:52Z</time>
      </trkpt>
      <trkpt lat="49.93517" lon="2.20165">
        <ele>13.3</ele>
        <time>2022-03-02T14:06:54Z</time>
      </trkpt>
      <trkpt lat="49.93518" lon="2.20165">
        <ele>13.3</ele>
        <time>2022-03-02T14:06:55Z</time>
      </trkpt>
      <trkpt lat="49.93519" lon="2.20165">
        <ele>13.3</ele>
        <time>2022-03-02T14:06:56Z</time>
      </trkpt>
      <trkpt lat="49.9352" lon="2.20166">
        <ele>13.3</ele>
        <time>2022-03-02T14:06:58Z</time>
      </trkpt>
      <trkpt lat="49.9352" lon="2.20166">
        <ele>13.3</ele>
        <time>2022-03-02T14:06:59Z</time>
      </trkpt>
      <trkpt lat="49.9352" lon="2.20165">
        <ele>13.3</ele>
        <time>2022-03-02T14:07:00Z</time>
      </trkpt>
      <trkpt lat="49.93521" lon="2.20164">
        <ele>13.3</ele>
        <time>2022-03-02T14:07:01Z</time>
      </trkpt>
      <trkpt lat="49.93521" lon="2.20163">
        <ele>13.3</ele>
        <time>2022-03-02T14:07:02Z</time>
      </trkpt>
      <trkpt lat="49.93521" lon="2.20162">
        <ele>13.3</ele>
        <time>2022-03-02T14:07:03Z</time>
      </trkpt>
      <trkpt lat="49.9352" lon="2.20161">
        <ele>13.3</ele>
        <time>2022-03-02T14:07:04Z</time>
      </trkpt>
      <trkpt lat="49.9352" lon="2.20161">
        <ele>13.3</ele>
        <time>2022-03-02T14:07:05Z</time>
      </trkpt>
      <trkpt lat="49.9352" lon="2.2016">
        <ele>13.3</ele>
        <time>2022-03-02T14:07:06Z</time>
      </trkpt>
      <trkpt lat="49.93519" lon="2.20159">
        <ele>13.3</ele>
        <time>2022-03-02T14:07:10Z</time>
      </trkpt>
      <trkpt lat="49.93519" lon="2.20159">
        <ele>13.3</ele>
        <time>2022-03-02T14:07:11Z</time>
      </trkpt>
      <trkpt lat="49.93519" lon="2.20158">
        <ele>13.3</ele>
        <time>2022-03-02T14:07:13Z</time>
      </trkpt>
      <trkpt lat="49.93519" lon="2.20158">
        <ele>13.3</ele>
        <time>2022-03-02T14:07:14Z</time>
      </trkpt>
      <trkpt lat="49.93518" lon="2.20158">
        <ele>13.3</ele>
        <time>2022-03-02T14:07:15Z</time>
      </trkpt>
      <trkpt lat="49.93518" lon="2.20157">
        <ele>13.3</ele>
        <time>2022-03-02T14:07:17Z</time>
      </trkpt>
      <trkpt lat="49.93519" lon="2.20156">
        <ele>13.3</ele>
        <time>2022-03-02T14:07:18Z</time>
      </trkpt>
      <trkpt lat="49.93519" lon="2.20154">
        <ele>13.3</ele>
        <time>2022-03-02T14:07:19Z</time>
      </trkpt>
      <trkpt lat="49.93519" lon="2.20153">
        <ele>13.3</ele>
        <time>2022-03-02T14:07:20Z</time>
      </trkpt>
      <trkpt lat="49.9352" lon="2.20152">
        <ele>13.3</ele>
        <time>2022-03-02T14:07:22Z</time>
      </trkpt>
      <trkpt lat="49.93521" lon="2.2015">
        <ele>13.3</ele>
        <time>2022-03-02T14:07:23Z</time>
      </trkpt>
      <trkpt lat="49.93521" lon="2.20149">
        <ele>13.3</ele>
        <time>2022-03-02T14:07:24Z</time>
      </trkpt>
      <trkpt lat="49.93522" lon="2.20147">
        <ele>13.3</ele>
        <time>2022-03-02T14:07:26Z</time>
      </trkpt>
      <trkpt lat="49.93523" lon="2.20147">
        <ele>13.3</ele>
        <time>2022-03-02T14:07:27Z</time>
      </trkpt>
      <trkpt lat="49.93524" lon="2.20146">
        <ele>13.3</ele>
        <time>2022-03-02T14:07:28Z</time>
      </trkpt>
      <trkpt lat="49.93525" lon="2.20145">
        <ele>13.3</ele>
        <time>2022-03-02T14:07:29Z</time>
      </trkpt>
      <trkpt lat="49.93526" lon="2.20144">
        <ele>13.3</ele>
        <time>2022-03-02T14:07:30Z</time>
      </trkpt>
      <trkpt lat="49.93527" lon="2.20143">
        <ele>13.3</ele>
        <time>2022-03-02T14:07:31Z</time>
      </trkpt>
      <trkpt lat="49.93528" lon="2.20141">
        <ele>13.3</ele>
        <time>2022-03-02T14:07:32Z</time>
      </trkpt>
      <trkpt lat="49.93529" lon="2.2014">
        <ele>13.3</ele>
        <time>2022-03-02T14:07:33Z</time>
      </trkpt>
      <trkpt lat="49.9353" lon="2.20137">
        <ele>13.3</ele>
        <time>2022-03-02T14:07:34Z</time>
      </trkpt>
      <trkpt lat="49.93531" lon="2.20135">
        <ele>13.3</ele>
        <time>2022-03-02T14:07:36Z</time>
      </trkpt>
      <trkpt lat="49.93532" lon="2.20134">
        <ele>13.3</ele>
        <time>2022-03-02T14:07:37Z</time>
      </trkpt>
      <trkpt lat="49.93533" lon="2.20132">
        <ele>13.3</ele>
        <time>2022-03-02T14:07:38Z</time>
      </trkpt>
      <trkpt lat="49.93534" lon="2.20129">
        <ele>13.3</ele>
        <time>2022-03-02T14:07:39Z</time>
      </trkpt>
      <trkpt lat="49.93534" lon="2.20128">
        <ele>13.3</ele>
        <time>2022-03-02T14:07:40Z</time>
      </trkpt>
      <trkpt lat="49.93535" lon="2.20127">
        <ele>13.3</ele>
        <time>2022-03-02T14:07:41Z</time>
      </trkpt>
      <trkpt lat="49.93536" lon="2.20126">
        <ele>13.3</ele>
        <time>2022-03-02T14:07:42Z</time>
      </trkpt>
      <trkpt lat="49.93535" lon="2.20127">
        <ele>13.3</ele>
        <time>2022-03-02T14:07:43Z</time>
      </trkpt>
      <trkpt lat="49.93536" lon="2.20127">
        <ele>13.3</ele>
        <time>2022-03-02T14:07:44Z</time>
      </trkpt>
      <trkpt lat="49.93537" lon="2.20126">
        <ele>13.3</ele>
        <time>2022-03-02T14:07:46Z</time>
      </trkpt>
      <trkpt lat="49.93537" lon="2.20124">
        <ele>13.3</ele>
        <time>2022-03-02T14:07:48Z</time>
      </trkpt>
      <trkpt lat="49.93537" lon="2.20122">
        <ele>13.3</ele>
        <time>2022-03-02T14:07:49Z</time>
      </trkpt>
      <trkpt lat="49.93537" lon="2.20121">
        <ele>13.3</ele>
        <time>2022-03-02T14:07:50Z</time>
      </trkpt>
      <trkpt lat="49.93538" lon="2.2012">
        <ele>13.3</ele>
        <time>2022-03-02T14:07:51Z</time>
      </trkpt>
      <trkpt lat="49.93539" lon="2.20118">
        <ele>13.3</ele>
        <time>2022-03-02T14:07:52Z</time>
      </trkpt>
      <trkpt lat="49.9354" lon="2.20116">
        <ele>13.4</ele>
        <time>2022-03-02T14:07:53Z</time>
      </trkpt>
      <trkpt lat="49.93541" lon="2.20115">
        <ele>13.4</ele>
        <time>2022-03-02T14:07:54Z</time>
      </trkpt>
      <trkpt lat="49.93541" lon="2.20113">
        <ele>13.4</ele>
        <time>2022-03-02T14:07:55Z</time>
      </trkpt>
      <trkpt lat="49.93542" lon="2.20111">
        <ele>13.4</ele>
        <time>2022-03-02T14:07:56Z</time>
      </trkpt>
      <trkpt lat="49.93543" lon="2.20109">
        <ele>13.4</ele>
        <time>2022-03-02T14:07:58Z</time>
      </trkpt>
      <trkpt lat="49.93544" lon="2.20107">
        <ele>13.4</ele>
        <time>2022-03-02T14:07:59Z</time>
      </trkpt>
      <trkpt lat="49.93544" lon="2.20105">
        <ele>13.4</ele>
        <time>2022-03-02T14:08:00Z</time>
      </trkpt>
      <trkpt lat="49.93546" lon="2.20103">
        <ele>13.4</ele>
        <time>2022-03-02T14:08:01Z</time>
      </trkpt>
      <trkpt lat="49.93547" lon="2.20102">
        <ele>13.4</ele>
        <time>2022-03-02T14:08:02Z</time>
      </trkpt>
      <trkpt lat="49.9355" lon="2.20099">
        <ele>13.5</ele>
        <time>2022-03-02T14:08:03Z</time>
      </trkpt>
      <trkpt lat="49.93551" lon="2.20099">
        <ele>13.5</ele>
        <time>2022-03-02T14:08:04Z</time>
      </trkpt>
      <trkpt lat="49.93553" lon="2.20097">
        <ele>13.5</ele>
        <time>2022-03-02T14:08:05Z</time>
      </trkpt>
      <trkpt lat="49.93555" lon="2.20094">
        <ele>13.5</ele>
        <time>2022-03-02T14:08:07Z</time>
      </trkpt>
      <trkpt lat="49.93557" lon="2.20092">
        <ele>13.5</ele>
        <time>2022-03-02T14:08:08Z</time>
      </trkpt>
      <trkpt lat="49.93561" lon="2.2009">
        <ele>13.5</ele>
        <time>2022-03-02T14:08:09Z</time>
      </trkpt>
      <trkpt lat="49.93562" lon="2.2009">
        <ele>13.5</ele>
        <time>2022-03-02T14:08:10Z</time>
      </trkpt>
      <trkpt lat="49.93565" lon="2.2009">
        <ele>13.5</ele>
        <time>2022-03-02T14:08:11Z</time>
      </trkpt>
      <trkpt lat="49.93566" lon="2.2009">
        <ele>13.5</ele>
        <time>2022-03-02T14:08:12Z</time>
      </trkpt>
      <trkpt lat="49.93567" lon="2.20092">
        <ele>13.4</ele>
        <time>2022-03-02T14:08:13Z</time>
      </trkpt>
      <trkpt lat="49.93568" lon="2.20094">
        <ele>13.4</ele>
        <time>2022-03-02T14:08:14Z</time>
      </trkpt>
      <trkpt lat="49.93569" lon="2.20096">
        <ele>13.4</ele>
        <time>2022-03-02T14:08:16Z</time>
      </trkpt>
      <trkpt lat="49.9357" lon="2.20097">
        <ele>13.4</ele>
        <time>2022-03-02T14:08:17Z</time>
      </trkpt>
      <trkpt lat="49.93571" lon="2.20099">
        <ele>13.4</ele>
        <time>2022-03-02T14:08:18Z</time>
      </trkpt>
      <trkpt lat="49.93572" lon="2.20101">
        <ele>13.4</ele>
        <time>2022-03-02T14:08:19Z</time>
      </trkpt>
      <trkpt lat="49.93573" lon="2.20103">
        <ele>13.4</ele>
        <time>2022-03-02T14:08:20Z</time>
      </trkpt>
      <trkpt lat="49.93574" lon="2.20104">
        <ele>13.4</ele>
        <time>2022-03-02T14:08:21Z</time>
      </trkpt>
      <trkpt lat="49.93576" lon="2.20106">
        <ele>13.3</ele>
        <time>2022-03-02T14:08:22Z</time>
      </trkpt>
      <trkpt lat="49.93577" lon="2.20107">
        <ele>13.3</ele>
        <time>2022-03-02T14:08:23Z</time>
      </trkpt>
      <trkpt lat="49.93578" lon="2.20108">
        <ele>13.3</ele>
        <time>2022-03-02T14:08:24Z</time>
      </trkpt>
      <trkpt lat="49.93579" lon="2.2011">
        <ele>13.3</ele>
        <time>2022-03-02T14:08:25Z</time>
      </trkpt>
      <trkpt lat="49.93581" lon="2.20111">
        <ele>13.3</ele>
        <time>2022-03-02T14:08:26Z</time>
      </trkpt>
      <trkpt lat="49.93583" lon="2.20113">
        <ele>13.3</ele>
        <time>2022-03-02T14:08:28Z</time>
      </trkpt>
      <trkpt lat="49.93584" lon="2.20114">
        <ele>13.3</ele>
        <time>2022-03-02T14:08:29Z</time>
      </trkpt>
      <trkpt lat="49.93586" lon="2.20114">
        <ele>13.3</ele>
        <time>2022-03-02T14:08:30Z</time>
      </trkpt>
      <trkpt lat="49.93587" lon="2.20115">
        <ele>13.2</ele>
        <time>2022-03-02T14:08:31Z</time>
      </trkpt>
      <trkpt lat="49.93589" lon="2.20116">
        <ele>13.2</ele>
        <time>2022-03-02T14:08:33Z</time>
      </trkpt>
      <trkpt lat="49.93591" lon="2.20116">
        <ele>13.2</ele>
        <time>2022-03-02T14:08:34Z</time>
      </trkpt>
      <trkpt lat="49.93592" lon="2.20117">
        <ele>13.2</ele>
        <time>2022-03-02T14:08:35Z</time>
      </trkpt>
      <trkpt lat="49.93593" lon="2.20117">
        <ele>13.2</ele>
        <time>2022-03-02T14:08:36Z</time>
      </trkpt>
      <trkpt lat="49.93595" lon="2.20118">
        <ele>13.2</ele>
        <time>2022-03-02T14:08:37Z</time>
      </trkpt>
      <trkpt lat="49.93596" lon="2.20119">
        <ele>13.2</ele>
        <time>2022-03-02T14:08:38Z</time>
      </trkpt>
      <trkpt lat="49.93597" lon="2.20119">
        <ele>13.2</ele>
        <time>2022-03-02T14:08:39Z</time>
      </trkpt>
      <trkpt lat="49.93598" lon="2.2012">
        <ele>13.2</ele>
        <time>2022-03-02T14:08:40Z</time>
      </trkpt>
      <trkpt lat="49.93599" lon="2.2012">
        <ele>13.2</ele>
        <time>2022-03-02T14:08:41Z</time>
      </trkpt>
      <trkpt lat="49.93601" lon="2.20121">
        <ele>13.2</ele>
        <time>2022-03-02T14:08:42Z</time>
      </trkpt>
      <trkpt lat="49.93603" lon="2.20122">
        <ele>13.2</ele>
        <time>2022-03-02T14:08:44Z</time>
      </trkpt>
      <trkpt lat="49.93606" lon="2.20123">
        <ele>13.2</ele>
        <time>2022-03-02T14:08:45Z</time>
      </trkpt>
      <trkpt lat="49.93607" lon="2.20123">
        <ele>13.1</ele>
        <time>2022-03-02T14:08:46Z</time>
      </trkpt>
      <trkpt lat="49.9361" lon="2.20125">
        <ele>13.1</ele>
        <time>2022-03-02T14:08:47Z</time>
      </trkpt>
      <trkpt lat="49.93611" lon="2.20125">
        <ele>13.1</ele>
        <time>2022-03-02T14:08:48Z</time>
      </trkpt>
      <trkpt lat="49.93614" lon="2.20126">
        <ele>13.1</ele>
        <time>2022-03-02T14:08:49Z</time>
      </trkpt>
      <trkpt lat="49.93615" lon="2.20127">
        <ele>13.1</ele>
        <time>2022-03-02T14:08:50Z</time>
      </trkpt>
      <trkpt lat="49.93617" lon="2.20127">
        <ele>13.1</ele>
        <time>2022-03-02T14:08:51Z</time>
      </trkpt>
      <trkpt lat="49.9362" lon="2.20129">
        <ele>13.1</ele>
        <time>2022-03-02T14:08:53Z</time>
      </trkpt>
      <trkpt lat="49.93621" lon="2.2013">
        <ele>13.1</ele>
        <time>2022-03-02T14:08:54Z</time>
      </trkpt>
      <trkpt lat="49.93622" lon="2.2013">
        <ele>13.1</ele>
        <time>2022-03-02T14:08:55Z</time>
      </trkpt>
      <trkpt lat="49.93623" lon="2.2013">
        <ele>13.1</ele>
        <time>2022-03-02T14:08:56Z</time>
      </trkpt>
      <trkpt lat="49.93624" lon="2.2013">
        <ele>13.1</ele>
        <time>2022-03-02T14:08:57Z</time>
      </trkpt>
      <trkpt lat="49.93625" lon="2.20131">
        <ele>13.1</ele>
        <time>2022-03-02T14:08:58Z</time>
      </trkpt>
      <trkpt lat="49.93626" lon="2.20132">
        <ele>13.1</ele>
        <time>2022-03-02T14:08:59Z</time>
      </trkpt>
      <trkpt lat="49.93627" lon="2.20132">
        <ele>13.1</ele>
        <time>2022-03-02T14:09:00Z</time>
      </trkpt>
      <trkpt lat="49.93628" lon="2.20133">
        <ele>13.1</ele>
        <time>2022-03-02T14:09:01Z</time>
      </trkpt>
      <trkpt lat="49.93629" lon="2.20134">
        <ele>13.1</ele>
        <time>2022-03-02T14:09:02Z</time>
      </trkpt>
      <trkpt lat="49.93629" lon="2.20137">
        <ele>13.1</ele>
        <time>2022-03-02T14:09:04Z</time>
      </trkpt>
      <trkpt lat="49.93629" lon="2.20138">
        <ele>13.1</ele>
        <time>2022-03-02T14:09:05Z</time>
      </trkpt>
      <trkpt lat="49.93629" lon="2.20139">
        <ele>13.1</ele>
        <time>2022-03-02T14:09:06Z</time>
      </trkpt>
      <trkpt lat="49.93626" lon="2.20141">
        <ele>13.1</ele>
        <time>2022-03-02T14:09:07Z</time>
      </trkpt>
      <trkpt lat="49.93626" lon="2.20142">
        <ele>13.1</ele>
        <time>2022-03-02T14:09:08Z</time>
      </trkpt>
      <trkpt lat="49.93627" lon="2.20144">
        <ele>13.1</ele>
        <time>2022-03-02T14:09:09Z</time>
      </trkpt>
      <trkpt lat="49.93628" lon="2.20146">
        <ele>13.1</ele>
        <time>2022-03-02T14:09:11Z</time>
      </trkpt>
      <trkpt lat="49.93628" lon="2.20147">
        <ele>13.1</ele>
        <time>2022-03-02T14:09:12Z</time>
      </trkpt>
      <trkpt lat="49.93629" lon="2.20148">
        <ele>13.1</ele>
        <time>2022-03-02T14:09:13Z</time>
      </trkpt>
      <trkpt lat="49.93628" lon="2.2015">
        <ele>13.1</ele>
        <time>2022-03-02T14:09:14Z</time>
      </trkpt>
      <trkpt lat="49.93629" lon="2.20151">
        <ele>13.1</ele>
        <time>2022-03-02T14:09:15Z</time>
      </trkpt>
      <trkpt lat="49.9363" lon="2.20152">
        <ele>13.1</ele>
        <time>2022-03-02T14:09:16Z</time>
      </trkpt>
      <trkpt lat="49.93631" lon="2.20153">
        <ele>13.1</ele>
        <time>2022-03-02T14:09:17Z</time>
      </trkpt>
      <trkpt lat="49.93631" lon="2.20155">
        <ele>13.1</ele>
        <time>2022-03-02T14:09:18Z</time>
      </trkpt>
      <trkpt lat="49.93631" lon="2.20156">
        <ele>13.1</ele>
        <time>2022-03-02T14:09:19Z</time>
      </trkpt>
      <trkpt lat="49.93631" lon="2.20158">
        <ele>13.1</ele>
        <time>2022-03-02T14:09:21Z</time>
      </trkpt>
      <trkpt lat="49.93631" lon="2.20159">
        <ele>13.1</ele>
        <time>2022-03-02T14:09:22Z</time>
      </trkpt>
      <trkpt lat="49.93631" lon="2.2016">
        <ele>13.1</ele>
        <time>2022-03-02T14:09:23Z</time>
      </trkpt>
      <trkpt lat="49.93631" lon="2.20161">
        <ele>13.1</ele>
        <time>2022-03-02T14:09:25Z</time>
      </trkpt>
      <trkpt lat="49.93631" lon="2.20162">
        <ele>13.1</ele>
        <time>2022-03-02T14:09:26Z</time>
      </trkpt>
      <trkpt lat="49.93632" lon="2.20163">
        <ele>13.1</ele>
        <time>2022-03-02T14:09:27Z</time>
      </trkpt>
      <trkpt lat="49.93632" lon="2.20164">
        <ele>13.1</ele>
        <time>2022-03-02T14:09:28Z</time>
      </trkpt>
      <trkpt lat="49.93632" lon="2.20165">
        <ele>13.1</ele>
        <time>2022-03-02T14:09:29Z</time>
      </trkpt>
      <trkpt lat="49.93632" lon="2.20166">
        <ele>13.1</ele>
        <time>2022-03-02T14:09:30Z</time>
      </trkpt>
      <trkpt lat="49.93634" lon="2.20168">
        <ele>13.1</ele>
        <time>2022-03-02T14:09:32Z</time>
      </trkpt>
      <trkpt lat="49.93634" lon="2.2017">
        <ele>13.1</ele>
        <time>2022-03-02T14:09:33Z</time>
      </trkpt>
      <trkpt lat="49.93635" lon="2.20171">
        <ele>13.1</ele>
        <time>2022-03-02T14:09:34Z</time>
      </trkpt>
      <trkpt lat="49.93636" lon="2.20172">
        <ele>13.1</ele>
        <time>2022-03-02T14:09:35Z</time>
      </trkpt>
      <trkpt lat="49.93637" lon="2.20174">
        <ele>13.1</ele>
        <time>2022-03-02T14:09:37Z</time>
      </trkpt>
      <trkpt lat="49.93638" lon="2.20176">
        <ele>13.1</ele>
        <time>2022-03-02T14:09:38Z</time>
      </trkpt>
      <trkpt lat="49.93639" lon="2.20177">
        <ele>13.1</ele>
        <time>2022-03-02T14:09:39Z</time>
      </trkpt>
      <trkpt lat="49.93641" lon="2.20176">
        <ele>13.1</ele>
        <time>2022-03-02T14:09:40Z</time>
      </trkpt>
      <trkpt lat="49.93642" lon="2.20176">
        <ele>13.1</ele>
        <time>2022-03-02T14:09:41Z</time>
      </trkpt>
      <trkpt lat="49.93644" lon="2.20177">
        <ele>13.1</ele>
        <time>2022-03-02T14:09:42Z</time>
      </trkpt>
      <trkpt lat="49.93645" lon="2.20178">
        <ele>13.1</ele>
        <time>2022-03-02T14:09:43Z</time>
      </trkpt>
      <trkpt lat="49.93645" lon="2.20179">
        <ele>13.1</ele>
        <time>2022-03-02T14:09:44Z</time>
      </trkpt>
      <trkpt lat="49.93646" lon="2.20181">
        <ele>13.1</ele>
        <time>2022-03-02T14:09:45Z</time>
      </trkpt>
      <trkpt lat="49.93647" lon="2.20182">
        <ele>13.1</ele>
        <time>2022-03-02T14:09:46Z</time>
      </trkpt>
      <trkpt lat="49.93649" lon="2.20183">
        <ele>13.1</ele>
        <time>2022-03-02T14:09:47Z</time>
      </trkpt>
      <trkpt lat="49.9365" lon="2.20184">
        <ele>13.1</ele>
        <time>2022-03-02T14:09:48Z</time>
      </trkpt>
      <trkpt lat="49.93651" lon="2.20186">
        <ele>13.1</ele>
        <time>2022-03-02T14:09:50Z</time>
      </trkpt>
      <trkpt lat="49.93652" lon="2.20188">
        <ele>13.1</ele>
        <time>2022-03-02T14:09:51Z</time>
      </trkpt>
      <trkpt lat="49.93653" lon="2.20189">
        <ele>13.1</ele>
        <time>2022-03-02T14:09:52Z</time>
      </trkpt>
      <trkpt lat="49.93655" lon="2.20191">
        <ele>13.1</ele>
        <time>2022-03-02T14:09:53Z</time>
      </trkpt>
      <trkpt lat="49.93656" lon="2.20192">
        <ele>13.1</ele>
        <time>2022-03-02T14:09:54Z</time>
      </trkpt>
      <trkpt lat="49.93657" lon="2.20192">
        <ele>13.1</ele>
        <time>2022-03-02T14:09:55Z</time>
      </trkpt>
      <trkpt lat="49.93659" lon="2.20192">
        <ele>13.1</ele>
        <time>2022-03-02T14:09:56Z</time>
      </trkpt>
      <trkpt lat="49.9366" lon="2.20194">
        <ele>13.1</ele>
        <time>2022-03-02T14:09:57Z</time>
      </trkpt>
      <trkpt lat="49.93661" lon="2.20195">
        <ele>13.1</ele>
        <time>2022-03-02T14:09:58Z</time>
      </trkpt>
      <trkpt lat="49.93663" lon="2.20197">
        <ele>13.1</ele>
        <time>2022-03-02T14:10:00Z</time>
      </trkpt>
      <trkpt lat="49.93664" lon="2.20198">
        <ele>13.1</ele>
        <time>2022-03-02T14:10:01Z</time>
      </trkpt>
      <trkpt lat="49.93665" lon="2.20198">
        <ele>13.1</ele>
        <time>2022-03-02T14:10:02Z</time>
      </trkpt>
      <trkpt lat="49.93667" lon="2.20199">
        <ele>13.1</ele>
        <time>2022-03-02T14:10:03Z</time>
      </trkpt>
      <trkpt lat="49.93668" lon="2.202">
        <ele>13.1</ele>
        <time>2022-03-02T14:10:04Z</time>
      </trkpt>
      <trkpt lat="49.93669" lon="2.20202">
        <ele>13.1</ele>
        <time>2022-03-02T14:10:05Z</time>
      </trkpt>
      <trkpt lat="49.9367" lon="2.20203">
        <ele>13.1</ele>
        <time>2022-03-02T14:10:06Z</time>
      </trkpt>
      <trkpt lat="49.93671" lon="2.20205">
        <ele>13.1</ele>
        <time>2022-03-02T14:10:07Z</time>
      </trkpt>
      <trkpt lat="49.93673" lon="2.20206">
        <ele>13.1</ele>
        <time>2022-03-02T14:10:08Z</time>
      </trkpt>
      <trkpt lat="49.93674" lon="2.20209">
        <ele>13.1</ele>
        <time>2022-03-02T14:10:10Z</time>
      </trkpt>
      <trkpt lat="49.93674" lon="2.2021">
        <ele>13.1</ele>
        <time>2022-03-02T14:10:11Z</time>
      </trkpt>
      <trkpt lat="49.93674" lon="2.20212">
        <ele>13.1</ele>
        <time>2022-03-02T14:10:13Z</time>
      </trkpt>
      <trkpt lat="49.93675" lon="2.20213">
        <ele>13.1</ele>
        <time>2022-03-02T14:10:14Z</time>
      </trkpt>
      <trkpt lat="49.93675" lon="2.20214">
        <ele>13.1</ele>
        <time>2022-03-02T14:10:15Z</time>
      </trkpt>
      <trkpt lat="49.93676" lon="2.20215">
        <ele>13.1</ele>
        <time>2022-03-02T14:10:16Z</time>
      </trkpt>
      <trkpt lat="49.93677" lon="2.20216">
        <ele>13.1</ele>
        <time>2022-03-02T14:10:18Z</time>
      </trkpt>
      <trkpt lat="49.93678" lon="2.20217">
        <ele>13.1</ele>
        <time>2022-03-02T14:10:19Z</time>
      </trkpt>
      <trkpt lat="49.93679" lon="2.20218">
        <ele>13.1</ele>
        <time>2022-03-02T14:10:20Z</time>
      </trkpt>
      <trkpt lat="49.9368" lon="2.20219">
        <ele>13.1</ele>
        <time>2022-03-02T14:10:21Z</time>
      </trkpt>
      <trkpt lat="49.93681" lon="2.2022">
        <ele>13.1</ele>
        <time>2022-03-02T14:10:22Z</time>
      </trkpt>
      <trkpt lat="49.93683" lon="2.20221">
        <ele>13.1</ele>
        <time>2022-03-02T14:10:23Z</time>
      </trkpt>
      <trkpt lat="49.93684" lon="2.20223">
        <ele>13.1</ele>
        <time>2022-03-02T14:10:24Z</time>
      </trkpt>
      <trkpt lat="49.93685" lon="2.20224">
        <ele>13.1</ele>
        <time>2022-03-02T14:10:25Z</time>
      </trkpt>
      <trkpt lat="49.93687" lon="2.20225">
        <ele>13.1</ele>
        <time>2022-03-02T14:10:26Z</time>
      </trkpt>
      <trkpt lat="49.93688" lon="2.20225">
        <ele>13.1</ele>
        <time>2022-03-02T14:10:27Z</time>
      </trkpt>
      <trkpt lat="49.9369" lon="2.20226">
        <ele>13.1</ele>
        <time>2022-03-02T14:10:28Z</time>
      </trkpt>
      <trkpt lat="49.93691" lon="2.20226">
        <ele>13.1</ele>
        <time>2022-03-02T14:10:30Z</time>
      </trkpt>
      <trkpt lat="49.93692" lon="2.20226">
        <ele>13.2</ele>
        <time>2022-03-02T14:10:31Z</time>
      </trkpt>
      <trkpt lat="49.93693" lon="2.20227">
        <ele>13.2</ele>
        <time>2022-03-02T14:10:32Z</time>
      </trkpt>
      <trkpt lat="49.93694" lon="2.20228">
        <ele>13.2</ele>
        <time>2022-03-02T14:10:33Z</time>
      </trkpt>
      <trkpt lat="49.93696" lon="2.20231">
        <ele>13.2</ele>
        <time>2022-03-02T14:10:34Z</time>
      </trkpt>
      <trkpt lat="49.93696" lon="2.20232">
        <ele>13.2</ele>
        <time>2022-03-02T14:10:35Z</time>
      </trkpt>
      <trkpt lat="49.93697" lon="2.20233">
        <ele>13.2</ele>
        <time>2022-03-02T14:10:36Z</time>
      </trkpt>
      <trkpt lat="49.93698" lon="2.20235">
        <ele>13.2</ele>
        <time>2022-03-02T14:10:37Z</time>
      </trkpt>
      <trkpt lat="49.93699" lon="2.20236">
        <ele>13.2</ele>
        <time>2022-03-02T14:10:38Z</time>
      </trkpt>
      <trkpt lat="49.937" lon="2.20237">
        <ele>13.2</ele>
        <time>2022-03-02T14:10:39Z</time>
      </trkpt>
      <trkpt lat="49.93701" lon="2.20238">
        <ele>13.2</ele>
        <time>2022-03-02T14:10:40Z</time>
      </trkpt>
      <trkpt lat="49.93701" lon="2.20239">
        <ele>13.2</ele>
        <time>2022-03-02T14:10:41Z</time>
      </trkpt>
      <trkpt lat="49.93702" lon="2.2024">
        <ele>13.2</ele>
        <time>2022-03-02T14:10:43Z</time>
      </trkpt>
      <trkpt lat="49.93703" lon="2.20241">
        <ele>13.2</ele>
        <time>2022-03-02T14:10:44Z</time>
      </trkpt>
      <trkpt lat="49.93704" lon="2.20241">
        <ele>13.2</ele>
        <time>2022-03-02T14:10:45Z</time>
      </trkpt>
      <trkpt lat="49.93705" lon="2.20242">
        <ele>13.2</ele>
        <time>2022-03-02T14:10:46Z</time>
      </trkpt>
      <trkpt lat="49.93706" lon="2.20242">
        <ele>13.2</ele>
        <time>2022-03-02T14:10:47Z</time>
      </trkpt>
      <trkpt lat="49.93707" lon="2.20243">
        <ele>13.3</ele>
        <time>2022-03-02T14:10:48Z</time>
      </trkpt>
      <trkpt lat="49.93708" lon="2.20244">
        <ele>13.3</ele>
        <time>2022-03-02T14:10:49Z</time>
      </trkpt>
      <trkpt lat="49.9371" lon="2.20245">
        <ele>13.3</ele>
        <time>2022-03-02T14:10:51Z</time>
      </trkpt>
      <trkpt lat="49.93711" lon="2.20246">
        <ele>13.3</ele>
        <time>2022-03-02T14:10:52Z</time>
      </trkpt>
      <trkpt lat="49.93713" lon="2.20248">
        <ele>13.3</ele>
        <time>2022-03-02T14:10:53Z</time>
      </trkpt>
      <trkpt lat="49.93714" lon="2.20249">
        <ele>13.3</ele>
        <time>2022-03-02T14:10:54Z</time>
      </trkpt>
      <trkpt lat="49.93714" lon="2.20249">
        <ele>13.3</ele>
        <time>2022-03-02T14:10:55Z</time>
      </trkpt>
      <trkpt lat="49.93716" lon="2.20249">
        <ele>13.3</ele>
        <time>2022-03-02T14:10:56Z</time>
      </trkpt>
      <trkpt lat="49.93717" lon="2.20249">
        <ele>13.3</ele>
        <time>2022-03-02T14:10:57Z</time>
      </trkpt>
      <trkpt lat="49.93719" lon="2.20249">
        <ele>13.4</ele>
        <time>2022-03-02T14:10:58Z</time>
      </trkpt>
      <trkpt lat="49.9372" lon="2.20249">
        <ele>13.4</ele>
        <time>2022-03-02T14:11:00Z</time>
      </trkpt>
      <trkpt lat="49.93721" lon="2.20249">
        <ele>13.4</ele>
        <time>2022-03-02T14:11:01Z</time>
      </trkpt>
      <trkpt lat="49.93722" lon="2.20248">
        <ele>13.4</ele>
        <time>2022-03-02T14:11:02Z</time>
      </trkpt>
      <trkpt lat="49.93723" lon="2.20248">
        <ele>13.4</ele>
        <time>2022-03-02T14:11:03Z</time>
      </trkpt>
      <trkpt lat="49.93724" lon="2.20248">
        <ele>13.4</ele>
        <time>2022-03-02T14:11:04Z</time>
      </trkpt>
      <trkpt lat="49.93725" lon="2.20247">
        <ele>13.4</ele>
        <time>2022-03-02T14:11:05Z</time>
      </trkpt>
      <trkpt lat="49.93727" lon="2.20247">
        <ele>13.4</ele>
        <time>2022-03-02T14:11:06Z</time>
      </trkpt>
      <trkpt lat="49.93727" lon="2.20248">
        <ele>13.4</ele>
        <time>2022-03-02T14:11:07Z</time>
      </trkpt>
      <trkpt lat="49.93728" lon="2.20248">
        <ele>13.5</ele>
        <time>2022-03-02T14:11:08Z</time>
      </trkpt>
      <trkpt lat="49.93729" lon="2.20248">
        <ele>13.5</ele>
        <time>2022-03-02T14:11:09Z</time>
      </trkpt>
      <trkpt lat="49.9373" lon="2.20249">
        <ele>13.5</ele>
        <time>2022-03-02T14:11:10Z</time>
      </trkpt>
      <trkpt lat="49.93732" lon="2.2025">
        <ele>13.5</ele>
        <time>2022-03-02T14:11:11Z</time>
      </trkpt>
      <trkpt lat="49.93733" lon="2.2025">
        <ele>13.5</ele>
        <time>2022-03-02T14:11:13Z</time>
      </trkpt>
      <trkpt lat="49.93734" lon="2.2025">
        <ele>13.5</ele>
        <time>2022-03-02T14:11:14Z</time>
      </trkpt>
      <trkpt lat="49.93735" lon="2.20251">
        <ele>13.5</ele>
        <time>2022-03-02T14:11:16Z</time>
      </trkpt>
      <trkpt lat="49.93735" lon="2.20251">
        <ele>13.5</ele>
        <time>2022-03-02T14:11:17Z</time>
      </trkpt>
      <trkpt lat="49.93735" lon="2.20251">
        <ele>13.5</ele>
        <time>2022-03-02T14:11:18Z</time>
      </trkpt>
      <trkpt lat="49.93736" lon="2.20252">
        <ele>13.5</ele>
        <time>2022-03-02T14:11:19Z</time>
      </trkpt>
      <trkpt lat="49.93737" lon="2.20252">
        <ele>13.5</ele>
        <time>2022-03-02T14:11:20Z</time>
      </trkpt>
      <trkpt lat="49.93738" lon="2.20252">
        <ele>13.6</ele>
        <time>2022-03-02T14:11:21Z</time>
      </trkpt>
      <trkpt lat="49.93739" lon="2.20253">
        <ele>13.6</ele>
        <time>2022-03-02T14:11:22Z</time>
      </trkpt>
      <trkpt lat="49.9374" lon="2.20254">
        <ele>13.6</ele>
        <time>2022-03-02T14:11:23Z</time>
      </trkpt>
      <trkpt lat="49.93742" lon="2.20255">
        <ele>13.6</ele>
        <time>2022-03-02T14:11:25Z</time>
      </trkpt>
      <trkpt lat="49.93743" lon="2.20256">
        <ele>13.6</ele>
        <time>2022-03-02T14:11:26Z</time>
      </trkpt>
      <trkpt lat="49.93743" lon="2.20257">
        <ele>13.6</ele>
        <time>2022-03-02T14:11:27Z</time>
      </trkpt>
      <trkpt lat="49.93744" lon="2.20259">
        <ele>13.6</ele>
        <time>2022-03-02T14:11:28Z</time>
      </trkpt>
      <trkpt lat="49.93745" lon="2.20261">
        <ele>13.6</ele>
        <time>2022-03-02T14:11:29Z</time>
      </trkpt>
      <trkpt lat="49.93746" lon="2.20262">
        <ele>13.6</ele>
        <time>2022-03-02T14:11:30Z</time>
      </trkpt>
      <trkpt lat="49.93747" lon="2.20264">
        <ele>13.6</ele>
        <time>2022-03-02T14:11:31Z</time>
      </trkpt>
      <trkpt lat="49.93748" lon="2.20267">
        <ele>13.6</ele>
        <time>2022-03-02T14:11:32Z</time>
      </trkpt>
      <trkpt lat="49.93748" lon="2.20269">
        <ele>13.6</ele>
        <time>2022-03-02T14:11:34Z</time>
      </trkpt>
      <trkpt lat="49.93748" lon="2.20272">
        <ele>13.6</ele>
        <time>2022-03-02T14:11:35Z</time>
      </trkpt>
      <trkpt lat="49.93748" lon="2.20274">
        <ele>13.6</ele>
        <time>2022-03-02T14:11:36Z</time>
      </trkpt>
      <trkpt lat="49.93747" lon="2.20278">
        <ele>13.6</ele>
        <time>2022-03-02T14:11:37Z</time>
      </trkpt>
      <trkpt lat="49.93747" lon="2.20279">
        <ele>13.6</ele>
        <time>2022-03-02T14:11:38Z</time>
      </trkpt>
      <trkpt lat="49.93747" lon="2.2028">
        <ele>13.6</ele>
        <time>2022-03-02T14:11:39Z</time>
      </trkpt>
      <trkpt lat="49.93746" lon="2.20283">
        <ele>13.6</ele>
        <time>2022-03-02T14:11:40Z</time>
      </trkpt>
      <trkpt lat="49.93745" lon="2.20284">
        <ele>13.6</ele>
        <time>2022-03-02T14:11:41Z</time>
      </trkpt>
      <trkpt lat="49.93745" lon="2.20285">
        <ele>13.6</ele>
        <time>2022-03-02T14:11:42Z</time>
      </trkpt>
      <trkpt lat="49.93744" lon="2.20288">
        <ele>13.6</ele>
        <time>2022-03-02T14:11:43Z</time>
      </trkpt>
      <trkpt lat="49.93743" lon="2.20289">
        <ele>13.6</ele>
        <time>2022-03-02T14:11:45Z</time>
      </trkpt>
      <trkpt lat="49.93743" lon="2.2029">
        <ele>13.6</ele>
        <time>2022-03-02T14:11:46Z</time>
      </trkpt>
      <trkpt lat="49.93742" lon="2.20292">
        <ele>13.6</ele>
        <time>2022-03-02T14:11:47Z</time>
      </trkpt>
      <trkpt lat="49.93742" lon="2.20293">
        <ele>13.6</ele>
        <time>2022-03-02T14:11:48Z</time>
      </trkpt>
      <trkpt lat="49.93742" lon="2.20295">
        <ele>13.6</ele>
        <time>2022-03-02T14:11:49Z</time>
      </trkpt>
      <trkpt lat="49.93741" lon="2.20296">
        <ele>13.6</ele>
        <time>2022-03-02T14:11:50Z</time>
      </trkpt>
      <trkpt lat="49.93741" lon="2.20296">
        <ele>13.6</ele>
        <time>2022-03-02T14:11:51Z</time>
      </trkpt>
      <trkpt lat="49.93741" lon="2.20296">
        <ele>13.6</ele>
        <time>2022-03-02T14:11:52Z</time>
      </trkpt>
      <trkpt lat="49.9374" lon="2.20297">
        <ele>13.6</ele>
        <time>2022-03-02T14:11:54Z</time>
      </trkpt>
      <trkpt lat="49.9374" lon="2.20297">
        <ele>13.6</ele>
        <time>2022-03-02T14:11:55Z</time>
      </trkpt>
      <trkpt lat="49.93739" lon="2.20298">
        <ele>13.6</ele>
        <time>2022-03-02T14:11:56Z</time>
      </trkpt>
      <trkpt lat="49.93739" lon="2.20298">
        <ele>13.6</ele>
        <time>2022-03-02T14:11:57Z</time>
      </trkpt>
      <trkpt lat="49.93738" lon="2.20299">
        <ele>13.6</ele>
        <time>2022-03-02T14:11:58Z</time>
      </trkpt>
      <trkpt lat="49.93738" lon="2.20299">
        <ele>13.7</ele>
        <time>2022-03-02T14:11:59Z</time>
      </trkpt>
      <trkpt lat="49.93738" lon="2.203">
        <ele>13.7</ele>
        <time>2022-03-02T14:12:01Z</time>
      </trkpt>
      <trkpt lat="49.93737" lon="2.20302">
        <ele>13.7</ele>
        <time>2022-03-02T14:12:02Z</time>
      </trkpt>
      <trkpt lat="49.93737" lon="2.20303">
        <ele>13.7</ele>
        <time>2022-03-02T14:12:03Z</time>
      </trkpt>
      <trkpt lat="49.93737" lon="2.20305">
        <ele>13.7</ele>
        <time>2022-03-02T14:12:04Z</time>
      </trkpt>
      <trkpt lat="49.93736" lon="2.20307">
        <ele>13.7</ele>
        <time>2022-03-02T14:12:05Z</time>
      </trkpt>
      <trkpt lat="49.93736" lon="2.20308">
        <ele>13.7</ele>
        <time>2022-03-02T14:12:06Z</time>
      </trkpt>
      <trkpt lat="49.93735" lon="2.2031">
        <ele>13.7</ele>
        <time>2022-03-02T14:12:07Z</time>
      </trkpt>
      <trkpt lat="49.93735" lon="2.20311">
        <ele>13.7</ele>
        <time>2022-03-02T14:12:08Z</time>
      </trkpt>
      <trkpt lat="49.93735" lon="2.20314">
        <ele>13.7</ele>
        <time>2022-03-02T14:12:10Z</time>
      </trkpt>
      <trkpt lat="49.93735" lon="2.20315">
        <ele>13.7</ele>
        <time>2022-03-02T14:12:11Z</time>
      </trkpt>
      <trkpt lat="49.93735" lon="2.20315">
        <ele>13.7</ele>
        <time>2022-03-02T14:12:12Z</time>
      </trkpt>
      <trkpt lat="49.93735" lon="2.20316">
        <ele>13.7</ele>
        <time>2022-03-02T14:12:13Z</time>
      </trkpt>
      <trkpt lat="49.93735" lon="2.20317">
        <ele>13.7</ele>
        <time>2022-03-02T14:12:14Z</time>
      </trkpt>
      <trkpt lat="49.93734" lon="2.20319">
        <ele>13.7</ele>
        <time>2022-03-02T14:12:15Z</time>
      </trkpt>
      <trkpt lat="49.93734" lon="2.2032">
        <ele>13.7</ele>
        <time>2022-03-02T14:12:16Z</time>
      </trkpt>
      <trkpt lat="49.93733" lon="2.20322">
        <ele>13.7</ele>
        <time>2022-03-02T14:12:17Z</time>
      </trkpt>
      <trkpt lat="49.93733" lon="2.20325">
        <ele>13.7</ele>
        <time>2022-03-02T14:12:18Z</time>
      </trkpt>
      <trkpt lat="49.93733" lon="2.20326">
        <ele>13.7</ele>
        <time>2022-03-02T14:12:20Z</time>
      </trkpt>
      <trkpt lat="49.93732" lon="2.20327">
        <ele>13.7</ele>
        <time>2022-03-02T14:12:21Z</time>
      </trkpt>
      <trkpt lat="49.93732" lon="2.20329">
        <ele>13.7</ele>
        <time>2022-03-02T14:12:22Z</time>
      </trkpt>
      <trkpt lat="49.93732" lon="2.2033">
        <ele>13.7</ele>
        <time>2022-03-02T14:12:23Z</time>
      </trkpt>
      <trkpt lat="49.93732" lon="2.20332">
        <ele>13.7</ele>
        <time>2022-03-02T14:12:24Z</time>
      </trkpt>
      <trkpt lat="49.93732" lon="2.20334">
        <ele>13.7</ele>
        <time>2022-03-02T14:12:25Z</time>
      </trkpt>
      <trkpt lat="49.93732" lon="2.20336">
        <ele>13.7</ele>
        <time>2022-03-02T14:12:26Z</time>
      </trkpt>
      <trkpt lat="49.93732" lon="2.20337">
        <ele>13.7</ele>
        <time>2022-03-02T14:12:27Z</time>
      </trkpt>
      <trkpt lat="49.93732" lon="2.2034">
        <ele>13.7</ele>
        <time>2022-03-02T14:12:28Z</time>
      </trkpt>
      <trkpt lat="49.93732" lon="2.20342">
        <ele>13.7</ele>
        <time>2022-03-02T14:12:29Z</time>
      </trkpt>
      <trkpt lat="49.93732" lon="2.20343">
        <ele>13.7</ele>
        <time>2022-03-02T14:12:30Z</time>
      </trkpt>
      <trkpt lat="49.93731" lon="2.20345">
        <ele>13.7</ele>
        <time>2022-03-02T14:12:31Z</time>
      </trkpt>
      <trkpt lat="49.93731" lon="2.20347">
        <ele>13.7</ele>
        <time>2022-03-02T14:12:33Z</time>
      </trkpt>
      <trkpt lat="49.9373" lon="2.20349">
        <ele>13.7</ele>
        <time>2022-03-02T14:12:34Z</time>
      </trkpt>
      <trkpt lat="49.93729" lon="2.20351">
        <ele>13.7</ele>
        <time>2022-03-02T14:12:35Z</time>
      </trkpt>
      <trkpt lat="49.93729" lon="2.20353">
        <ele>13.7</ele>
        <time>2022-03-02T14:12:36Z</time>
      </trkpt>
      <trkpt lat="49.93727" lon="2.20354">
        <ele>13.7</ele>
        <time>2022-03-02T14:12:37Z</time>
      </trkpt>
      <trkpt lat="49.93726" lon="2.20356">
        <ele>13.7</ele>
        <time>2022-03-02T14:12:38Z</time>
      </trkpt>
      <trkpt lat="49.93725" lon="2.20358">
        <ele>13.7</ele>
        <time>2022-03-02T14:12:39Z</time>
      </trkpt>
      <trkpt lat="49.93725" lon="2.2036">
        <ele>13.7</ele>
        <time>2022-03-02T14:12:40Z</time>
      </trkpt>
      <trkpt lat="49.93725" lon="2.20363">
        <ele>13.7</ele>
        <time>2022-03-02T14:12:42Z</time>
      </trkpt>
      <trkpt lat="49.93725" lon="2.20364">
        <ele>13.7</ele>
        <time>2022-03-02T14:12:43Z</time>
      </trkpt>
      <trkpt lat="49.93725" lon="2.20364">
        <ele>13.7</ele>
        <time>2022-03-02T14:12:44Z</time>
      </trkpt>
      <trkpt lat="49.93725" lon="2.20365">
        <ele>13.7</ele>
        <time>2022-03-02T14:12:45Z</time>
      </trkpt>
      <trkpt lat="49.93725" lon="2.20366">
        <ele>13.7</ele>
        <time>2022-03-02T14:12:46Z</time>
      </trkpt>
      <trkpt lat="49.93724" lon="2.20366">
        <ele>13.7</ele>
        <time>2022-03-02T14:12:47Z</time>
      </trkpt>
      <trkpt lat="49.93724" lon="2.20367">
        <ele>13.7</ele>
        <time>2022-03-02T14:12:48Z</time>
      </trkpt>
      <trkpt lat="49.93724" lon="2.20368">
        <ele>13.7</ele>
        <time>2022-03-02T14:12:49Z</time>
      </trkpt>
      <trkpt lat="49.93724" lon="2.20368">
        <ele>13.7</ele>
        <time>2022-03-02T14:12:51Z</time>
      </trkpt>
      <trkpt lat="49.93724" lon="2.20369">
        <ele>13.7</ele>
        <time>2022-03-02T14:12:52Z</time>
      </trkpt>
      <trkpt lat="49.93723" lon="2.20371">
        <ele>13.7</ele>
        <time>2022-03-02T14:12:53Z</time>
      </trkpt>
      <trkpt lat="49.93722" lon="2.20373">
        <ele>13.7</ele>
        <time>2022-03-02T14:12:54Z</time>
      </trkpt>
      <trkpt lat="49.9372" lon="2.20377">
        <ele>13.6</ele>
        <time>2022-03-02T14:12:55Z</time>
      </trkpt>
      <trkpt lat="49.93719" lon="2.20378">
        <ele>13.6</ele>
        <time>2022-03-02T14:12:56Z</time>
      </trkpt>
      <trkpt lat="49.93718" lon="2.2038">
        <ele>13.6</ele>
        <time>2022-03-02T14:12:57Z</time>
      </trkpt>
      <trkpt lat="49.93717" lon="2.20382">
        <ele>13.6</ele>
        <time>2022-03-02T14:12:58Z</time>
      </trkpt>
      <trkpt lat="49.93716" lon="2.20384">
        <ele>13.6</ele>
        <time>2022-03-02T14:12:59Z</time>
      </trkpt>
      <trkpt lat="49.93715" lon="2.20386">
        <ele>13.6</ele>
        <time>2022-03-02T14:13:00Z</time>
      </trkpt>
      <trkpt lat="49.93714" lon="2.2039">
        <ele>13.6</ele>
        <time>2022-03-02T14:13:01Z</time>
      </trkpt>
      <trkpt lat="49.93713" lon="2.20391">
        <ele>13.6</ele>
        <time>2022-03-02T14:13:02Z</time>
      </trkpt>
      <trkpt lat="49.93711" lon="2.20396">
        <ele>13.7</ele>
        <time>2022-03-02T14:13:04Z</time>
      </trkpt>
      <trkpt lat="49.93711" lon="2.20398">
        <ele>13.7</ele>
        <time>2022-03-02T14:13:05Z</time>
      </trkpt>
      <trkpt lat="49.9371" lon="2.20401">
        <ele>13.7</ele>
        <time>2022-03-02T14:13:06Z</time>
      </trkpt>
      <trkpt lat="49.93709" lon="2.20403">
        <ele>13.7</ele>
        <time>2022-03-02T14:13:07Z</time>
      </trkpt>
      <trkpt lat="49.93709" lon="2.20405">
        <ele>13.7</ele>
        <time>2022-03-02T14:13:08Z</time>
      </trkpt>
      <trkpt lat="49.93708" lon="2.20407">
        <ele>13.7</ele>
        <time>2022-03-02T14:13:09Z</time>
      </trkpt>
      <trkpt lat="49.93707" lon="2.20409">
        <ele>13.7</ele>
        <time>2022-03-02T14:13:10Z</time>
      </trkpt>
      <trkpt lat="49.93707" lon="2.20411">
        <ele>13.7</ele>
        <time>2022-03-02T14:13:11Z</time>
      </trkpt>
      <trkpt lat="49.93706" lon="2.20416">
        <ele>13.7</ele>
        <time>2022-03-02T14:13:13Z</time>
      </trkpt>
      <trkpt lat="49.93705" lon="2.20416">
        <ele>13.7</ele>
        <time>2022-03-02T14:13:14Z</time>
      </trkpt>
      <trkpt lat="49.93705" lon="2.20417">
        <ele>13.7</ele>
        <time>2022-03-02T14:13:15Z</time>
      </trkpt>
      <trkpt lat="49.93705" lon="2.20418">
        <ele>13.7</ele>
        <time>2022-03-02T14:13:16Z</time>
      </trkpt>
      <trkpt lat="49.93705" lon="2.20419">
        <ele>13.7</ele>
        <time>2022-03-02T14:13:17Z</time>
      </trkpt>
      <trkpt lat="49.93704" lon="2.20422">
        <ele>13.7</ele>
        <time>2022-03-02T14:13:19Z</time>
      </trkpt>
      <trkpt lat="49.93703" lon="2.20424">
        <ele>13.8</ele>
        <time>2022-03-02T14:13:20Z</time>
      </trkpt>
      <trkpt lat="49.93703" lon="2.20427">
        <ele>13.8</ele>
        <time>2022-03-02T14:13:21Z</time>
      </trkpt>
      <trkpt lat="49.93702" lon="2.20429">
        <ele>13.8</ele>
        <time>2022-03-02T14:13:22Z</time>
      </trkpt>
      <trkpt lat="49.93701" lon="2.20431">
        <ele>13.8</ele>
        <time>2022-03-02T14:13:23Z</time>
      </trkpt>
      <trkpt lat="49.937" lon="2.20434">
        <ele>13.8</ele>
        <time>2022-03-02T14:13:24Z</time>
      </trkpt>
      <trkpt lat="49.937" lon="2.20436">
        <ele>13.8</ele>
        <time>2022-03-02T14:13:25Z</time>
      </trkpt>
      <trkpt lat="49.93699" lon="2.20438">
        <ele>13.8</ele>
        <time>2022-03-02T14:13:27Z</time>
      </trkpt>
      <trkpt lat="49.93698" lon="2.2044">
        <ele>13.8</ele>
        <time>2022-03-02T14:13:28Z</time>
      </trkpt>
      <trkpt lat="49.93698" lon="2.20441">
        <ele>13.8</ele>
        <time>2022-03-02T14:13:29Z</time>
      </trkpt>
      <trkpt lat="49.93697" lon="2.20443">
        <ele>13.8</ele>
        <time>2022-03-02T14:13:30Z</time>
      </trkpt>
      <trkpt lat="49.93696" lon="2.20446">
        <ele>13.8</ele>
        <time>2022-03-02T14:13:31Z</time>
      </trkpt>
      <trkpt lat="49.93695" lon="2.20447">
        <ele>13.8</ele>
        <time>2022-03-02T14:13:32Z</time>
      </trkpt>
      <trkpt lat="49.93695" lon="2.20448">
        <ele>13.8</ele>
        <time>2022-03-02T14:13:33Z</time>
      </trkpt>
      <trkpt lat="49.93694" lon="2.20451">
        <ele>13.9</ele>
        <time>2022-03-02T14:13:35Z</time>
      </trkpt>
      <trkpt lat="49.93693" lon="2.20452">
        <ele>13.9</ele>
        <time>2022-03-02T14:13:36Z</time>
      </trkpt>
      <trkpt lat="49.93693" lon="2.20453">
        <ele>13.9</ele>
        <time>2022-03-02T14:13:37Z</time>
      </trkpt>
      <trkpt lat="49.93692" lon="2.20456">
        <ele>13.9</ele>
        <time>2022-03-02T14:13:38Z</time>
      </trkpt>
      <trkpt lat="49.93692" lon="2.20457">
        <ele>13.9</ele>
        <time>2022-03-02T14:13:39Z</time>
      </trkpt>
      <trkpt lat="49.93691" lon="2.20458">
        <ele>13.9</ele>
        <time>2022-03-02T14:13:40Z</time>
      </trkpt>
      <trkpt lat="49.93691" lon="2.20461">
        <ele>13.9</ele>
        <time>2022-03-02T14:13:41Z</time>
      </trkpt>
      <trkpt lat="49.93691" lon="2.20462">
        <ele>13.9</ele>
        <time>2022-03-02T14:13:42Z</time>
      </trkpt>
      <trkpt lat="49.93691" lon="2.20463">
        <ele>13.9</ele>
        <time>2022-03-02T14:13:43Z</time>
      </trkpt>
      <trkpt lat="49.93691" lon="2.20464">
        <ele>13.9</ele>
        <time>2022-03-02T14:13:44Z</time>
      </trkpt>
      <trkpt lat="49.9369" lon="2.20466">
        <ele>13.9</ele>
        <time>2022-03-02T14:13:45Z</time>
      </trkpt>
      <trkpt lat="49.9369" lon="2.20468">
        <ele>13.9</ele>
        <time>2022-03-02T14:13:47Z</time>
      </trkpt>
      <trkpt lat="49.93689" lon="2.20469">
        <ele>13.9</ele>
        <time>2022-03-02T14:13:48Z</time>
      </trkpt>
      <trkpt lat="49.93689" lon="2.20471">
        <ele>13.9</ele>
        <time>2022-03-02T14:13:49Z</time>
      </trkpt>
      <trkpt lat="49.93688" lon="2.20472">
        <ele>13.9</ele>
        <time>2022-03-02T14:13:50Z</time>
      </trkpt>
      <trkpt lat="49.93688" lon="2.20473">
        <ele>13.9</ele>
        <time>2022-03-02T14:13:52Z</time>
      </trkpt>
      <trkpt lat="49.93687" lon="2.20474">
        <ele>13.9</ele>
        <time>2022-03-02T14:13:53Z</time>
      </trkpt>
      <trkpt lat="49.93687" lon="2.20475">
        <ele>13.9</ele>
        <time>2022-03-02T14:13:54Z</time>
      </trkpt>
      <trkpt lat="49.93687" lon="2.20476">
        <ele>13.9</ele>
        <time>2022-03-02T14:13:55Z</time>
      </trkpt>
      <trkpt lat="49.93687" lon="2.20477">
        <ele>14</ele>
        <time>2022-03-02T14:13:56Z</time>
      </trkpt>
      <trkpt lat="49.93687" lon="2.20478">
        <ele>14</ele>
        <time>2022-03-02T14:13:57Z</time>
      </trkpt>
      <trkpt lat="49.93687" lon="2.20479">
        <ele>14</ele>
        <time>2022-03-02T14:13:58Z</time>
      </trkpt>
      <trkpt lat="49.93687" lon="2.20481">
        <ele>14</ele>
        <time>2022-03-02T14:13:59Z</time>
      </trkpt>
      <trkpt lat="49.93687" lon="2.20482">
        <ele>14</ele>
        <time>2022-03-02T14:14:01Z</time>
      </trkpt>
      <trkpt lat="49.93687" lon="2.20484">
        <ele>14</ele>
        <time>2022-03-02T14:14:02Z</time>
      </trkpt>
      <trkpt lat="49.93687" lon="2.20485">
        <ele>14</ele>
        <time>2022-03-02T14:14:03Z</time>
      </trkpt>
      <trkpt lat="49.93686" lon="2.20487">
        <ele>14</ele>
        <time>2022-03-02T14:14:04Z</time>
      </trkpt>
      <trkpt lat="49.93686" lon="2.20489">
        <ele>14</ele>
        <time>2022-03-02T14:14:05Z</time>
      </trkpt>
      <trkpt lat="49.93686" lon="2.20491">
        <ele>14</ele>
        <time>2022-03-02T14:14:06Z</time>
      </trkpt>
      <trkpt lat="49.93685" lon="2.20494">
        <ele>14</ele>
        <time>2022-03-02T14:14:07Z</time>
      </trkpt>
      <trkpt lat="49.93685" lon="2.20496">
        <ele>14.1</ele>
        <time>2022-03-02T14:14:08Z</time>
      </trkpt>
      <trkpt lat="49.93684" lon="2.205">
        <ele>14.1</ele>
        <time>2022-03-02T14:14:09Z</time>
      </trkpt>
      <trkpt lat="49.93684" lon="2.20502">
        <ele>14.1</ele>
        <time>2022-03-02T14:14:10Z</time>
      </trkpt>
      <trkpt lat="49.93683" lon="2.20508">
        <ele>14.1</ele>
        <time>2022-03-02T14:14:12Z</time>
      </trkpt>
      <trkpt lat="49.93683" lon="2.20511">
        <ele>14.1</ele>
        <time>2022-03-02T14:14:13Z</time>
      </trkpt>
      <trkpt lat="49.93682" lon="2.20513">
        <ele>14.1</ele>
        <time>2022-03-02T14:14:14Z</time>
      </trkpt>
      <trkpt lat="49.93682" lon="2.20515">
        <ele>14.2</ele>
        <time>2022-03-02T14:14:15Z</time>
      </trkpt>
      <trkpt lat="49.93681" lon="2.20518">
        <ele>14.2</ele>
        <time>2022-03-02T14:14:16Z</time>
      </trkpt>
      <trkpt lat="49.93681" lon="2.20521">
        <ele>14.2</ele>
        <time>2022-03-02T14:14:17Z</time>
      </trkpt>
      <trkpt lat="49.9368" lon="2.20524">
        <ele>14.2</ele>
        <time>2022-03-02T14:14:19Z</time>
      </trkpt>
      <trkpt lat="49.93679" lon="2.20526">
        <ele>14.2</ele>
        <time>2022-03-02T14:14:20Z</time>
      </trkpt>
      <trkpt lat="49.93678" lon="2.20528">
        <ele>14.2</ele>
        <time>2022-03-02T14:14:21Z</time>
      </trkpt>
      <trkpt lat="49.93678" lon="2.2053">
        <ele>14.2</ele>
        <time>2022-03-02T14:14:22Z</time>
      </trkpt>
      <trkpt lat="49.93677" lon="2.20532">
        <ele>14.3</ele>
        <time>2022-03-02T14:14:23Z</time>
      </trkpt>
      <trkpt lat="49.93676" lon="2.20534">
        <ele>14.3</ele>
        <time>2022-03-02T14:14:24Z</time>
      </trkpt>
      <trkpt lat="49.93676" lon="2.20536">
        <ele>14.3</ele>
        <time>2022-03-02T14:14:25Z</time>
      </trkpt>
      <trkpt lat="49.93675" lon="2.20537">
        <ele>14.3</ele>
        <time>2022-03-02T14:14:26Z</time>
      </trkpt>
      <trkpt lat="49.93675" lon="2.20539">
        <ele>14.3</ele>
        <time>2022-03-02T14:14:27Z</time>
      </trkpt>
      <trkpt lat="49.93674" lon="2.2054">
        <ele>14.3</ele>
        <time>2022-03-02T14:14:28Z</time>
      </trkpt>
      <trkpt lat="49.93674" lon="2.20541">
        <ele>14.3</ele>
        <time>2022-03-02T14:14:29Z</time>
      </trkpt>
      <trkpt lat="49.93674" lon="2.20543">
        <ele>14.4</ele>
        <time>2022-03-02T14:14:31Z</time>
      </trkpt>
      <trkpt lat="49.93674" lon="2.20546">
        <ele>14.4</ele>
        <time>2022-03-02T14:14:32Z</time>
      </trkpt>
      <trkpt lat="49.93673" lon="2.20548">
        <ele>14.4</ele>
        <time>2022-03-02T14:14:33Z</time>
      </trkpt>
      <trkpt lat="49.93673" lon="2.2055">
        <ele>14.4</ele>
        <time>2022-03-02T14:14:34Z</time>
      </trkpt>
      <trkpt lat="49.93672" lon="2.20553">
        <ele>14.5</ele>
        <time>2022-03-02T14:14:35Z</time>
      </trkpt>
      <trkpt lat="49.93672" lon="2.20555">
        <ele>14.5</ele>
        <time>2022-03-02T14:14:36Z</time>
      </trkpt>
      <trkpt lat="49.93671" lon="2.20557">
        <ele>14.5</ele>
        <time>2022-03-02T14:14:38Z</time>
      </trkpt>
      <trkpt lat="49.93671" lon="2.20559">
        <ele>14.5</ele>
        <time>2022-03-02T14:14:39Z</time>
      </trkpt>
      <trkpt lat="49.9367" lon="2.20561">
        <ele>14.5</ele>
        <time>2022-03-02T14:14:40Z</time>
      </trkpt>
      <trkpt lat="49.9367" lon="2.20563">
        <ele>14.6</ele>
        <time>2022-03-02T14:14:41Z</time>
      </trkpt>
      <trkpt lat="49.9367" lon="2.20564">
        <ele>14.6</ele>
        <time>2022-03-02T14:14:42Z</time>
      </trkpt>
      <trkpt lat="49.93669" lon="2.20565">
        <ele>14.6</ele>
        <time>2022-03-02T14:14:43Z</time>
      </trkpt>
      <trkpt lat="49.93669" lon="2.20567">
        <ele>14.6</ele>
        <time>2022-03-02T14:14:44Z</time>
      </trkpt>
      <trkpt lat="49.93668" lon="2.20568">
        <ele>14.6</ele>
        <time>2022-03-02T14:14:45Z</time>
      </trkpt>
      <trkpt lat="49.93668" lon="2.20571">
        <ele>14.6</ele>
        <time>2022-03-02T14:14:46Z</time>
      </trkpt>
      <trkpt lat="49.93667" lon="2.20573">
        <ele>14.6</ele>
        <time>2022-03-02T14:14:47Z</time>
      </trkpt>
      <trkpt lat="49.93667" lon="2.20574">
        <ele>14.6</ele>
        <time>2022-03-02T14:14:48Z</time>
      </trkpt>
      <trkpt lat="49.93667" lon="2.20576">
        <ele>14.7</ele>
        <time>2022-03-02T14:14:49Z</time>
      </trkpt>
      <trkpt lat="49.93667" lon="2.20578">
        <ele>14.7</ele>
        <time>2022-03-02T14:14:50Z</time>
      </trkpt>
      <trkpt lat="49.93667" lon="2.20579">
        <ele>14.7</ele>
        <time>2022-03-02T14:14:52Z</time>
      </trkpt>
      <trkpt lat="49.93667" lon="2.20581">
        <ele>14.7</ele>
        <time>2022-03-02T14:14:53Z</time>
      </trkpt>
      <trkpt lat="49.93667" lon="2.20582">
        <ele>14.7</ele>
        <time>2022-03-02T14:14:54Z</time>
      </trkpt>
      <trkpt lat="49.93667" lon="2.20584">
        <ele>14.7</ele>
        <time>2022-03-02T14:14:55Z</time>
      </trkpt>
      <trkpt lat="49.93667" lon="2.20587">
        <ele>14.7</ele>
        <time>2022-03-02T14:14:56Z</time>
      </trkpt>
      <trkpt lat="49.93667" lon="2.20588">
        <ele>14.7</ele>
        <time>2022-03-02T14:14:57Z</time>
      </trkpt>
      <trkpt lat="49.93667" lon="2.2059">
        <ele>14.7</ele>
        <time>2022-03-02T14:14:58Z</time>
      </trkpt>
      <trkpt lat="49.93667" lon="2.20592">
        <ele>14.7</ele>
        <time>2022-03-02T14:14:59Z</time>
      </trkpt>
      <trkpt lat="49.93668" lon="2.20594">
        <ele>14.7</ele>
        <time>2022-03-02T14:15:00Z</time>
      </trkpt>
      <trkpt lat="49.93669" lon="2.20596">
        <ele>14.8</ele>
        <time>2022-03-02T14:15:01Z</time>
      </trkpt>
      <trkpt lat="49.93669" lon="2.20598">
        <ele>14.8</ele>
        <time>2022-03-02T14:15:02Z</time>
      </trkpt>
      <trkpt lat="49.9367" lon="2.206">
        <ele>14.8</ele>
        <time>2022-03-02T14:15:03Z</time>
      </trkpt>
      <trkpt lat="49.9367" lon="2.20601">
        <ele>14.8</ele>
        <time>2022-03-02T14:15:04Z</time>
      </trkpt>
      <trkpt lat="49.93671" lon="2.20603">
        <ele>14.8</ele>
        <time>2022-03-02T14:15:06Z</time>
      </trkpt>
      <trkpt lat="49.93672" lon="2.20605">
        <ele>14.8</ele>
        <time>2022-03-02T14:15:07Z</time>
      </trkpt>
      <trkpt lat="49.93673" lon="2.20607">
        <ele>14.8</ele>
        <time>2022-03-02T14:15:08Z</time>
      </trkpt>
      <trkpt lat="49.93673" lon="2.20609">
        <ele>14.8</ele>
        <time>2022-03-02T14:15:09Z</time>
      </trkpt>
      <trkpt lat="49.93674" lon="2.20612">
        <ele>14.8</ele>
        <time>2022-03-02T14:15:10Z</time>
      </trkpt>
      <trkpt lat="49.93674" lon="2.20613">
        <ele>14.8</ele>
        <time>2022-03-02T14:15:11Z</time>
      </trkpt>
      <trkpt lat="49.93674" lon="2.20614">
        <ele>14.8</ele>
        <time>2022-03-02T14:15:12Z</time>
      </trkpt>
      <trkpt lat="49.93674" lon="2.20618">
        <ele>14.9</ele>
        <time>2022-03-02T14:15:13Z</time>
      </trkpt>
      <trkpt lat="49.93674" lon="2.20619">
        <ele>14.9</ele>
        <time>2022-03-02T14:15:14Z</time>
      </trkpt>
      <trkpt lat="49.93674" lon="2.2062">
        <ele>14.9</ele>
        <time>2022-03-02T14:15:15Z</time>
      </trkpt>
      <trkpt lat="49.93674" lon="2.20623">
        <ele>14.9</ele>
        <time>2022-03-02T14:15:17Z</time>
      </trkpt>
      <trkpt lat="49.93674" lon="2.20625">
        <ele>14.9</ele>
        <time>2022-03-02T14:15:18Z</time>
      </trkpt>
      <trkpt lat="49.93674" lon="2.20628">
        <ele>14.9</ele>
        <time>2022-03-02T14:15:19Z</time>
      </trkpt>
      <trkpt lat="49.93674" lon="2.2063">
        <ele>14.9</ele>
        <time>2022-03-02T14:15:20Z</time>
      </trkpt>
      <trkpt lat="49.93673" lon="2.20631">
        <ele>14.9</ele>
        <time>2022-03-02T14:15:21Z</time>
      </trkpt>
      <trkpt lat="49.93673" lon="2.20633">
        <ele>15</ele>
        <time>2022-03-02T14:15:22Z</time>
      </trkpt>
      <trkpt lat="49.93673" lon="2.20635">
        <ele>15</ele>
        <time>2022-03-02T14:15:23Z</time>
      </trkpt>
      <trkpt lat="49.93672" lon="2.20638">
        <ele>15</ele>
        <time>2022-03-02T14:15:25Z</time>
      </trkpt>
      <trkpt lat="49.93672" lon="2.2064">
        <ele>15</ele>
        <time>2022-03-02T14:15:26Z</time>
      </trkpt>
      <trkpt lat="49.93672" lon="2.20642">
        <ele>15</ele>
        <time>2022-03-02T14:15:27Z</time>
      </trkpt>
      <trkpt lat="49.93671" lon="2.20644">
        <ele>15</ele>
        <time>2022-03-02T14:15:28Z</time>
      </trkpt>
      <trkpt lat="49.93671" lon="2.20646">
        <ele>15.1</ele>
        <time>2022-03-02T14:15:29Z</time>
      </trkpt>
      <trkpt lat="49.9367" lon="2.20649">
        <ele>15.1</ele>
        <time>2022-03-02T14:15:30Z</time>
      </trkpt>
      <trkpt lat="49.9367" lon="2.20651">
        <ele>15.1</ele>
        <time>2022-03-02T14:15:31Z</time>
      </trkpt>
      <trkpt lat="49.93669" lon="2.20653">
        <ele>15.1</ele>
        <time>2022-03-02T14:15:32Z</time>
      </trkpt>
      <trkpt lat="49.93669" lon="2.20655">
        <ele>15.1</ele>
        <time>2022-03-02T14:15:33Z</time>
      </trkpt>
      <trkpt lat="49.93669" lon="2.20658">
        <ele>15.2</ele>
        <time>2022-03-02T14:15:35Z</time>
      </trkpt>
      <trkpt lat="49.93669" lon="2.2066">
        <ele>15.2</ele>
        <time>2022-03-02T14:15:36Z</time>
      </trkpt>
      <trkpt lat="49.93669" lon="2.20661">
        <ele>15.2</ele>
        <time>2022-03-02T14:15:37Z</time>
      </trkpt>
      <trkpt lat="49.93668" lon="2.20664">
        <ele>15.2</ele>
        <time>2022-03-02T14:15:38Z</time>
      </trkpt>
      <trkpt lat="49.93668" lon="2.20666">
        <ele>15.2</ele>
        <time>2022-03-02T14:15:39Z</time>
      </trkpt>
      <trkpt lat="49.93668" lon="2.20667">
        <ele>15.2</ele>
        <time>2022-03-02T14:15:40Z</time>
      </trkpt>
      <trkpt lat="49.93668" lon="2.20669">
        <ele>15.2</ele>
        <time>2022-03-02T14:15:41Z</time>
      </trkpt>
      <trkpt lat="49.93668" lon="2.20671">
        <ele>15.3</ele>
        <time>2022-03-02T14:15:42Z</time>
      </trkpt>
      <trkpt lat="49.93668" lon="2.20674">
        <ele>15.3</ele>
        <time>2022-03-02T14:15:43Z</time>
      </trkpt>
      <trkpt lat="49.93668" lon="2.20676">
        <ele>15.3</ele>
        <time>2022-03-02T14:15:44Z</time>
      </trkpt>
      <trkpt lat="49.93667" lon="2.20677">
        <ele>15.3</ele>
        <time>2022-03-02T14:15:45Z</time>
      </trkpt>
      <trkpt lat="49.93668" lon="2.20681">
        <ele>15.3</ele>
        <time>2022-03-02T14:15:46Z</time>
      </trkpt>
      <trkpt lat="49.93668" lon="2.20683">
        <ele>15.3</ele>
        <time>2022-03-02T14:15:48Z</time>
      </trkpt>
      <trkpt lat="49.93668" lon="2.20684">
        <ele>15.4</ele>
        <time>2022-03-02T14:15:49Z</time>
      </trkpt>
      <trkpt lat="49.93668" lon="2.20686">
        <ele>15.4</ele>
        <time>2022-03-02T14:15:50Z</time>
      </trkpt>
      <trkpt lat="49.93668" lon="2.20687">
        <ele>15.4</ele>
        <time>2022-03-02T14:15:51Z</time>
      </trkpt>
      <trkpt lat="49.93668" lon="2.20689">
        <ele>15.4</ele>
        <time>2022-03-02T14:15:52Z</time>
      </trkpt>
      <trkpt lat="49.93668" lon="2.20691">
        <ele>15.4</ele>
        <time>2022-03-02T14:15:53Z</time>
      </trkpt>
      <trkpt lat="49.93668" lon="2.20693">
        <ele>15.4</ele>
        <time>2022-03-02T14:15:54Z</time>
      </trkpt>
      <trkpt lat="49.93667" lon="2.20695">
        <ele>15.4</ele>
        <time>2022-03-02T14:15:55Z</time>
      </trkpt>
      <trkpt lat="49.93667" lon="2.20698">
        <ele>15.5</ele>
        <time>2022-03-02T14:15:57Z</time>
      </trkpt>
      <trkpt lat="49.93667" lon="2.20699">
        <ele>15.5</ele>
        <time>2022-03-02T14:15:58Z</time>
      </trkpt>
      <trkpt lat="49.93667" lon="2.20701">
        <ele>15.5</ele>
        <time>2022-03-02T14:15:59Z</time>
      </trkpt>
      <trkpt lat="49.93667" lon="2.20703">
        <ele>15.5</ele>
        <time>2022-03-02T14:16:00Z</time>
      </trkpt>
      <trkpt lat="49.93666" lon="2.20707">
        <ele>15.6</ele>
        <time>2022-03-02T14:16:01Z</time>
      </trkpt>
      <trkpt lat="49.93666" lon="2.20708">
        <ele>15.6</ele>
        <time>2022-03-02T14:16:03Z</time>
      </trkpt>
      <trkpt lat="49.93666" lon="2.2071">
        <ele>15.6</ele>
        <time>2022-03-02T14:16:04Z</time>
      </trkpt>
      <trkpt lat="49.93666" lon="2.20712">
        <ele>15.6</ele>
        <time>2022-03-02T14:16:05Z</time>
      </trkpt>
      <trkpt lat="49.93665" lon="2.20713">
        <ele>15.6</ele>
        <time>2022-03-02T14:16:06Z</time>
      </trkpt>
      <trkpt lat="49.93665" lon="2.20716">
        <ele>15.7</ele>
        <time>2022-03-02T14:16:07Z</time>
      </trkpt>
      <trkpt lat="49.93664" lon="2.20717">
        <ele>15.7</ele>
        <time>2022-03-02T14:16:08Z</time>
      </trkpt>
      <trkpt lat="49.93664" lon="2.20719">
        <ele>15.7</ele>
        <time>2022-03-02T14:16:09Z</time>
      </trkpt>
      <trkpt lat="49.93664" lon="2.20722">
        <ele>15.7</ele>
        <time>2022-03-02T14:16:10Z</time>
      </trkpt>
      <trkpt lat="49.93664" lon="2.20723">
        <ele>15.7</ele>
        <time>2022-03-02T14:16:11Z</time>
      </trkpt>
      <trkpt lat="49.93664" lon="2.20724">
        <ele>15.7</ele>
        <time>2022-03-02T14:16:12Z</time>
      </trkpt>
      <trkpt lat="49.93664" lon="2.20726">
        <ele>15.8</ele>
        <time>2022-03-02T14:16:13Z</time>
      </trkpt>
      <trkpt lat="49.93663" lon="2.20729">
        <ele>15.8</ele>
        <time>2022-03-02T14:16:14Z</time>
      </trkpt>
      <trkpt lat="49.93663" lon="2.20731">
        <ele>15.8</ele>
        <time>2022-03-02T14:16:16Z</time>
      </trkpt>
      <trkpt lat="49.93663" lon="2.20733">
        <ele>15.8</ele>
        <time>2022-03-02T14:16:17Z</time>
      </trkpt>
      <trkpt lat="49.93663" lon="2.20735">
        <ele>15.9</ele>
        <time>2022-03-02T14:16:18Z</time>
      </trkpt>
      <trkpt lat="49.93663" lon="2.20737">
        <ele>15.9</ele>
        <time>2022-03-02T14:16:19Z</time>
      </trkpt>
      <trkpt lat="49.93663" lon="2.2074">
        <ele>15.9</ele>
        <time>2022-03-02T14:16:20Z</time>
      </trkpt>
      <trkpt lat="49.93663" lon="2.20742">
        <ele>15.9</ele>
        <time>2022-03-02T14:16:21Z</time>
      </trkpt>
      <trkpt lat="49.93663" lon="2.20743">
        <ele>15.9</ele>
        <time>2022-03-02T14:16:22Z</time>
      </trkpt>
      <trkpt lat="49.93663" lon="2.20745">
        <ele>16</ele>
        <time>2022-03-02T14:16:23Z</time>
      </trkpt>
      <trkpt lat="49.93663" lon="2.20747">
        <ele>16</ele>
        <time>2022-03-02T14:16:24Z</time>
      </trkpt>
      <trkpt lat="49.93663" lon="2.2075">
        <ele>16</ele>
        <time>2022-03-02T14:16:25Z</time>
      </trkpt>
      <trkpt lat="49.93663" lon="2.20752">
        <ele>16</ele>
        <time>2022-03-02T14:16:27Z</time>
      </trkpt>
      <trkpt lat="49.93663" lon="2.20754">
        <ele>16.1</ele>
        <time>2022-03-02T14:16:28Z</time>
      </trkpt>
      <trkpt lat="49.93663" lon="2.20755">
        <ele>16.1</ele>
        <time>2022-03-02T14:16:29Z</time>
      </trkpt>
      <trkpt lat="49.93663" lon="2.20757">
        <ele>16.1</ele>
        <time>2022-03-02T14:16:30Z</time>
      </trkpt>
      <trkpt lat="49.93663" lon="2.20759">
        <ele>16.1</ele>
        <time>2022-03-02T14:16:31Z</time>
      </trkpt>
      <trkpt lat="49.93663" lon="2.2076">
        <ele>16.1</ele>
        <time>2022-03-02T14:16:32Z</time>
      </trkpt>
      <trkpt lat="49.93663" lon="2.20762">
        <ele>16.2</ele>
        <time>2022-03-02T14:16:33Z</time>
      </trkpt>
      <trkpt lat="49.93663" lon="2.20764">
        <ele>16.2</ele>
        <time>2022-03-02T14:16:34Z</time>
      </trkpt>
      <trkpt lat="49.93663" lon="2.20766">
        <ele>16.2</ele>
        <time>2022-03-02T14:16:35Z</time>
      </trkpt>
      <trkpt lat="49.93663" lon="2.20768">
        <ele>16.2</ele>
        <time>2022-03-02T14:16:37Z</time>
      </trkpt>
      <trkpt lat="49.93663" lon="2.2077">
        <ele>16.3</ele>
        <time>2022-03-02T14:16:38Z</time>
      </trkpt>
      <trkpt lat="49.93663" lon="2.20771">
        <ele>16.3</ele>
        <time>2022-03-02T14:16:39Z</time>
      </trkpt>
      <trkpt lat="49.93662" lon="2.20773">
        <ele>16.3</ele>
        <time>2022-03-02T14:16:40Z</time>
      </trkpt>
      <trkpt lat="49.93662" lon="2.20775">
        <ele>16.3</ele>
        <time>2022-03-02T14:16:41Z</time>
      </trkpt>
      <trkpt lat="49.93662" lon="2.20776">
        <ele>16.6</ele>
        <time>2022-03-02T14:16:42Z</time>
      </trkpt>
      <trkpt lat="49.93662" lon="2.20778">
        <ele>16.6</ele>
        <time>2022-03-02T14:16:43Z</time>
      </trkpt>
      <trkpt lat="49.93663" lon="2.20779">
        <ele>16.7</ele>
        <time>2022-03-02T14:16:45Z</time>
      </trkpt>
      <trkpt lat="49.93663" lon="2.2078">
        <ele>16.7</ele>
        <time>2022-03-02T14:16:46Z</time>
      </trkpt>
      <trkpt lat="49.93664" lon="2.20781">
        <ele>16.7</ele>
        <time>2022-03-02T14:16:47Z</time>
      </trkpt>
      <trkpt lat="49.93664" lon="2.20782">
        <ele>16.7</ele>
        <time>2022-03-02T14:16:48Z</time>
      </trkpt>
      <trkpt lat="49.93665" lon="2.20783">
        <ele>16.7</ele>
        <time>2022-03-02T14:16:49Z</time>
      </trkpt>
      <trkpt lat="49.93665" lon="2.20783">
        <ele>16.8</ele>
        <time>2022-03-02T14:16:50Z</time>
      </trkpt>
      <trkpt lat="49.93666" lon="2.20783">
        <ele>16.8</ele>
        <time>2022-03-02T14:16:51Z</time>
      </trkpt>
      <trkpt lat="49.93666" lon="2.20782">
        <ele>16.8</ele>
        <time>2022-03-02T14:16:52Z</time>
      </trkpt>
      <trkpt lat="49.93667" lon="2.20782">
        <ele>16.8</ele>
        <time>2022-03-02T14:16:54Z</time>
      </trkpt>
      <trkpt lat="49.93667" lon="2.20782">
        <ele>16.8</ele>
        <time>2022-03-02T14:16:55Z</time>
      </trkpt>
      <trkpt lat="49.93668" lon="2.20782">
        <ele>16.8</ele>
        <time>2022-03-02T14:16:56Z</time>
      </trkpt>
      <trkpt lat="49.93668" lon="2.20782">
        <ele>16.8</ele>
        <time>2022-03-02T14:16:57Z</time>
      </trkpt>
      <trkpt lat="49.93668" lon="2.20782">
        <ele>16.8</ele>
        <time>2022-03-02T14:16:58Z</time>
      </trkpt>
      <trkpt lat="49.93669" lon="2.20782">
        <ele>16.8</ele>
        <time>2022-03-02T14:16:59Z</time>
      </trkpt>
      <trkpt lat="49.93669" lon="2.20782">
        <ele>16.8</ele>
        <time>2022-03-02T14:17:00Z</time>
      </trkpt>
      <trkpt lat="49.93669" lon="2.20782">
        <ele>16.8</ele>
        <time>2022-03-02T14:17:01Z</time>
      </trkpt>
      <trkpt lat="49.93669" lon="2.20782">
        <ele>16.8</ele>
        <time>2022-03-02T14:17:02Z</time>
      </trkpt>
      <trkpt lat="49.93669" lon="2.20782">
        <ele>16.8</ele>
        <time>2022-03-02T14:17:03Z</time>
      </trkpt>
      <trkpt lat="49.93669" lon="2.20782">
        <ele>16.8</ele>
        <time>2022-03-02T14:17:04Z</time>
      </trkpt>
      <trkpt lat="49.93669" lon="2.20782">
        <ele>16.8</ele>
        <time>2022-03-02T14:17:05Z</time>
      </trkpt>
      <trkpt lat="49.9367" lon="2.20782">
        <ele>16.8</ele>
        <time>2022-03-02T14:17:06Z</time>
      </trkpt>
      <trkpt lat="49.9367" lon="2.20783">
        <ele>16.9</ele>
        <time>2022-03-02T14:17:07Z</time>
      </trkpt>
      <trkpt lat="49.9367" lon="2.20783">
        <ele>16.9</ele>
        <time>2022-03-02T14:17:08Z</time>
      </trkpt>
      <trkpt lat="49.9367" lon="2.20783">
        <ele>16.9</ele>
        <time>2022-03-02T14:17:09Z</time>
      </trkpt>
      <trkpt lat="49.9367" lon="2.20783">
        <ele>16.9</ele>
        <time>2022-03-02T14:17:10Z</time>
      </trkpt>
      <trkpt lat="49.93671" lon="2.20784">
        <ele>16.9</ele>
        <time>2022-03-02T14:17:11Z</time>
      </trkpt>
      <trkpt lat="49.93671" lon="2.20784">
        <ele>16.9</ele>
        <time>2022-03-02T14:17:12Z</time>
      </trkpt>
      <trkpt lat="49.93671" lon="2.20784">
        <ele>16.9</ele>
        <time>2022-03-02T14:17:13Z</time>
      </trkpt>
      <trkpt lat="49.93671" lon="2.20784">
        <ele>16.9</ele>
        <time>2022-03-02T14:17:14Z</time>
      </trkpt>
      <trkpt lat="49.93671" lon="2.20783">
        <ele>16.9</ele>
        <time>2022-03-02T14:17:15Z</time>
      </trkpt>
      <trkpt lat="49.93671" lon="2.20783">
        <ele>16.9</ele>
        <time>2022-03-02T14:17:16Z</time>
      </trkpt>
      <trkpt lat="49.93671" lon="2.20782">
        <ele>16.9</ele>
        <time>2022-03-02T14:17:17Z</time>
      </trkpt>
      <trkpt lat="49.93671" lon="2.20782">
        <ele>16.9</ele>
        <time>2022-03-02T14:17:18Z</time>
      </trkpt>
      <trkpt lat="49.93671" lon="2.20782">
        <ele>16.9</ele>
        <time>2022-03-02T14:17:19Z</time>
      </trkpt>
      <trkpt lat="49.93671" lon="2.20782">
        <ele>16.9</ele>
        <time>2022-03-02T14:17:20Z</time>
      </trkpt>
      <trkpt lat="49.93671" lon="2.20782">
        <ele>16.9</ele>
        <time>2022-03-02T14:17:21Z</time>
      </trkpt>
      <trkpt lat="49.93671" lon="2.20782">
        <ele>16.9</ele>
        <time>2022-03-02T14:17:22Z</time>
      </trkpt>
      <trkpt lat="49.93671" lon="2.20782">
        <ele>16.9</ele>
        <time>2022-03-02T14:17:23Z</time>
      </trkpt>
      <trkpt lat="49.93671" lon="2.20782">
        <ele>16.9</ele>
        <time>2022-03-02T14:17:24Z</time>
      </trkpt>
      <trkpt lat="49.93671" lon="2.20782">
        <ele>16.9</ele>
        <time>2022-03-02T14:17:25Z</time>
      </trkpt>
      <trkpt lat="49.93671" lon="2.20782">
        <ele>16.9</ele>
        <time>2022-03-02T14:17:26Z</time>
      </trkpt>
      <trkpt lat="49.93671" lon="2.20782">
        <ele>16.9</ele>
        <time>2022-03-02T14:17:27Z</time>
      </trkpt>
      <trkpt lat="49.93671" lon="2.20782">
        <ele>16.9</ele>
        <time>2022-03-02T14:17:28Z</time>
      </trkpt>
      <trkpt lat="49.93671" lon="2.20782">
        <ele>16.9</ele>
        <time>2022-03-02T14:17:29Z</time>
      </trkpt>
      <trkpt lat="49.93671" lon="2.20782">
        <ele>16.9</ele>
        <time>2022-03-02T14:17:30Z</time>
      </trkpt>
      <trkpt lat="49.93671" lon="2.20782">
        <ele>16.9</ele>
        <time>2022-03-02T14:17:31Z</time>
      </trkpt>
      <trkpt lat="49.93671" lon="2.20782">
        <ele>16.9</ele>
        <time>2022-03-02T14:17:32Z</time>
      </trkpt>
      <trkpt lat="49.93671" lon="2.20782">
        <ele>16.9</ele>
        <time>2022-03-02T14:17:33Z</time>
      </trkpt>
      <trkpt lat="49.93671" lon="2.20782">
        <ele>16.9</ele>
        <time>2022-03-02T14:17:34Z</time>
      </trkpt>
      <trkpt lat="49.93671" lon="2.20782">
        <ele>16.9</ele>
        <time>2022-03-02T14:17:35Z</time>
      </trkpt>
      <trkpt lat="49.93671" lon="2.20782">
        <ele>16.9</ele>
        <time>2022-03-02T14:17:36Z</time>
      </trkpt>
      <trkpt lat="49.93671" lon="2.20782">
        <ele>16.9</ele>
        <time>2022-03-02T14:17:37Z</time>
      </trkpt>
      <trkpt lat="49.93671" lon="2.20782">
        <ele>16.9</ele>
        <time>2022-03-02T14:17:38Z</time>
      </trkpt>
      <trkpt lat="49.93671" lon="2.20782">
        <ele>16.9</ele>
        <time>2022-03-02T14:17:39Z</time>
      </trkpt>
      <trkpt lat="49.93671" lon="2.20782">
        <ele>16.9</ele>
        <time>2022-03-02T14:17:40Z</time>
      </trkpt>
      <trkpt lat="49.93671" lon="2.20782">
        <ele>16.9</ele>
        <time>2022-03-02T14:17:41Z</time>
      </trkpt>
      <trkpt lat="49.93671" lon="2.20782">
        <ele>16.9</ele>
        <time>2022-03-02T14:17:42Z</time>
      </trkpt>
      <trkpt lat="49.93671" lon="2.20782">
        <ele>16.9</ele>
        <time>2022-03-02T14:17:43Z</time>
      </trkpt>
      <trkpt lat="49.93671" lon="2.20782">
        <ele>16.9</ele>
        <time>2022-03-02T14:17:44Z</time>
      </trkpt>
      <trkpt lat="49.93671" lon="2.20782">
        <ele>16.9</ele>
        <time>2022-03-02T14:17:45Z</time>
      </trkpt>
      <trkpt lat="49.93671" lon="2.20782">
        <ele>16.9</ele>
        <time>2022-03-02T14:17:46Z</time>
      </trkpt>
      <trkpt lat="49.93671" lon="2.20782">
        <ele>16.9</ele>
        <time>2022-03-02T14:17:47Z</time>
      </trkpt>
      <trkpt lat="49.93671" lon="2.20782">
        <ele>16.9</ele>
        <time>2022-03-02T14:17:48Z</time>
      </trkpt>
      <trkpt lat="49.93671" lon="2.20782">
        <ele>16.9</ele>
        <time>2022-03-02T14:17:49Z</time>
      </trkpt>
      <trkpt lat="49.93671" lon="2.20782">
        <ele>16.9</ele>
        <time>2022-03-02T14:17:50Z</time>
      </trkpt>
      <trkpt lat="49.93671" lon="2.20782">
        <ele>16.9</ele>
        <time>2022-03-02T14:17:51Z</time>
      </trkpt>
      <trkpt lat="49.93671" lon="2.20782">
        <ele>16.9</ele>
        <time>2022-03-02T14:17:52Z</time>
      </trkpt>
      <trkpt lat="49.93671" lon="2.20782">
        <ele>16.9</ele>
        <time>2022-03-02T14:17:53Z</time>
      </trkpt>
      <trkpt lat="49.93671" lon="2.20782">
        <ele>16.9</ele>
        <time>2022-03-02T14:17:54Z</time>
      </trkpt>
      <trkpt lat="49.93671" lon="2.20782">
        <ele>16.9</ele>
        <time>2022-03-02T14:17:55Z</time>
      </trkpt>
      <trkpt lat="49.93671" lon="2.20782">
        <ele>16.9</ele>
        <time>2022-03-02T14:17:56Z</time>
      </trkpt>
      <trkpt lat="49.93671" lon="2.20782">
        <ele>16.9</ele>
        <time>2022-03-02T14:17:57Z</time>
      </trkpt>
      <trkpt lat="49.93671" lon="2.20782">
        <ele>16.9</ele>
        <time>2022-03-02T14:17:58Z</time>
      </trkpt>
      <trkpt lat="49.93671" lon="2.20782">
        <ele>16.9</ele>
        <time>2022-03-02T14:17:59Z</time>
      </trkpt>
      <trkpt lat="49.93671" lon="2.20782">
        <ele>16.9</ele>
        <time>2022-03-02T14:18:00Z</time>
      </trkpt>
      <trkpt lat="49.93671" lon="2.20782">
        <ele>16.9</ele>
        <time>2022-03-02T14:18:01Z</time>
      </trkpt>
      <trkpt lat="49.93671" lon="2.20782">
        <ele>16.9</ele>
        <time>2022-03-02T14:18:02Z</time>
      </trkpt>
      <trkpt lat="49.93671" lon="2.20782">
        <ele>16.9</ele>
        <time>2022-03-02T14:18:03Z</time>
      </trkpt>
      <trkpt lat="49.93671" lon="2.20782">
        <ele>16.9</ele>
        <time>2022-03-02T14:18:04Z</time>
      </trkpt>
      <trkpt lat="49.93671" lon="2.20782">
        <ele>16.9</ele>
        <time>2022-03-02T14:18:05Z</time>
      </trkpt>
      <trkpt lat="49.9367" lon="2.20781">
        <ele>16.9</ele>
        <time>2022-03-02T14:18:06Z</time>
      </trkpt>
      <trkpt lat="49.93669" lon="2.20781">
        <ele>17</ele>
        <time>2022-03-02T14:18:07Z</time>
      </trkpt>
      <trkpt lat="49.93669" lon="2.20782">
        <ele>17</ele>
        <time>2022-03-02T14:18:08Z</time>
      </trkpt>
      <trkpt lat="49.93669" lon="2.20782">
        <ele>17</ele>
        <time>2022-03-02T14:18:09Z</time>
      </trkpt>
      <trkpt lat="49.93669" lon="2.20781">
        <ele>17</ele>
        <time>2022-03-02T14:18:10Z</time>
      </trkpt>
      <trkpt lat="49.93669" lon="2.20781">
        <ele>17</ele>
        <time>2022-03-02T14:18:11Z</time>
      </trkpt>
      <trkpt lat="49.93668" lon="2.2078">
        <ele>17</ele>
        <time>2022-03-02T14:18:12Z</time>
      </trkpt>
      <trkpt lat="49.93668" lon="2.2078">
        <ele>17</ele>
        <time>2022-03-02T14:18:13Z</time>
      </trkpt>
      <trkpt lat="49.93668" lon="2.20779">
        <ele>17</ele>
        <time>2022-03-02T14:18:14Z</time>
      </trkpt>
      <trkpt lat="49.93668" lon="2.20779">
        <ele>17</ele>
        <time>2022-03-02T14:18:15Z</time>
      </trkpt>
      <trkpt lat="49.93668" lon="2.20779">
        <ele>17</ele>
        <time>2022-03-02T14:18:16Z</time>
      </trkpt>
      <trkpt lat="49.93667" lon="2.20778">
        <ele>17</ele>
        <time>2022-03-02T14:18:17Z</time>
      </trkpt>
      <trkpt lat="49.93668" lon="2.20777">
        <ele>17</ele>
        <time>2022-03-02T14:18:18Z</time>
      </trkpt>
      <trkpt lat="49.93668" lon="2.20777">
        <ele>17.1</ele>
        <time>2022-03-02T14:18:19Z</time>
      </trkpt>
      <trkpt lat="49.93668" lon="2.20776">
        <ele>17.1</ele>
        <time>2022-03-02T14:18:20Z</time>
      </trkpt>
      <trkpt lat="49.93668" lon="2.20775">
        <ele>17.1</ele>
        <time>2022-03-02T14:18:21Z</time>
      </trkpt>
      <trkpt lat="49.93667" lon="2.20775">
        <ele>17.1</ele>
        <time>2022-03-02T14:18:22Z</time>
      </trkpt>
      <trkpt lat="49.93667" lon="2.20774">
        <ele>17.1</ele>
        <time>2022-03-02T14:18:23Z</time>
      </trkpt>
      <trkpt lat="49.93667" lon="2.20774">
        <ele>17.1</ele>
        <time>2022-03-02T14:18:24Z</time>
      </trkpt>
      <trkpt lat="49.93667" lon="2.20773">
        <ele>17.1</ele>
        <time>2022-03-02T14:18:25Z</time>
      </trkpt>
      <trkpt lat="49.93667" lon="2.20773">
        <ele>17.1</ele>
        <time>2022-03-02T14:18:26Z</time>
      </trkpt>
      <trkpt lat="49.93667" lon="2.20773">
        <ele>17.1</ele>
        <time>2022-03-02T14:18:27Z</time>
      </trkpt>
      <trkpt lat="49.93667" lon="2.20773">
        <ele>17.1</ele>
        <time>2022-03-02T14:18:28Z</time>
      </trkpt>
      <trkpt lat="49.93667" lon="2.20772">
        <ele>17.1</ele>
        <time>2022-03-02T14:18:29Z</time>
      </trkpt>
      <trkpt lat="49.93667" lon="2.20772">
        <ele>17.1</ele>
        <time>2022-03-02T14:18:30Z</time>
      </trkpt>
      <trkpt lat="49.93668" lon="2.20772">
        <ele>17.1</ele>
        <time>2022-03-02T14:18:31Z</time>
      </trkpt>
      <trkpt lat="49.93668" lon="2.20772">
        <ele>17.1</ele>
        <time>2022-03-02T14:18:32Z</time>
      </trkpt>
      <trkpt lat="49.93668" lon="2.20772">
        <ele>17.1</ele>
        <time>2022-03-02T14:18:33Z</time>
      </trkpt>
      <trkpt lat="49.93668" lon="2.20772">
        <ele>17.1</ele>
        <time>2022-03-02T14:18:34Z</time>
      </trkpt>
      <trkpt lat="49.93668" lon="2.20772">
        <ele>17.1</ele>
        <time>2022-03-02T14:18:35Z</time>
      </trkpt>
      <trkpt lat="49.93668" lon="2.20772">
        <ele>17.1</ele>
        <time>2022-03-02T14:18:36Z</time>
      </trkpt>
      <trkpt lat="49.93668" lon="2.20772">
        <ele>17.1</ele>
        <time>2022-03-02T14:18:37Z</time>
      </trkpt>
      <trkpt lat="49.93668" lon="2.20772">
        <ele>17.1</ele>
        <time>2022-03-02T14:18:38Z</time>
      </trkpt>
      <trkpt lat="49.93668" lon="2.20772">
        <ele>17.1</ele>
        <time>2022-03-02T14:18:39Z</time>
      </trkpt>
      <trkpt lat="49.93668" lon="2.20772">
        <ele>17.1</ele>
        <time>2022-03-02T14:18:40Z</time>
      </trkpt>
      <trkpt lat="49.93668" lon="2.20772">
        <ele>17.1</ele>
        <time>2022-03-02T14:18:41Z</time>
      </trkpt>
      <trkpt lat="49.93668" lon="2.20772">
        <ele>17.1</ele>
        <time>2022-03-02T14:18:42Z</time>
      </trkpt>
      <trkpt lat="49.93668" lon="2.20772">
        <ele>17.1</ele>
        <time>2022-03-02T14:18:43Z</time>
      </trkpt>
      <trkpt lat="49.93668" lon="2.20772">
        <ele>17.1</ele>
        <time>2022-03-02T14:18:44Z</time>
      </trkpt>
      <trkpt lat="49.93668" lon="2.20772">
        <ele>17.1</ele>
        <time>2022-03-02T14:18:45Z</time>
      </trkpt>
      <trkpt lat="49.93668" lon="2.20772">
        <ele>17.1</ele>
        <time>2022-03-02T14:18:46Z</time>
      </trkpt>
      <trkpt lat="49.93668" lon="2.20772">
        <ele>17.1</ele>
        <time>2022-03-02T14:18:47Z</time>
      </trkpt>
      <trkpt lat="49.93668" lon="2.20772">
        <ele>17.1</ele>
        <time>2022-03-02T14:18:48Z</time>
      </trkpt>
      <trkpt lat="49.93668" lon="2.20772">
        <ele>17.1</ele>
        <time>2022-03-02T14:18:49Z</time>
      </trkpt>
      <trkpt lat="49.93668" lon="2.20772">
        <ele>17.1</ele>
        <time>2022-03-02T14:18:50Z</time>
      </trkpt>
      <trkpt lat="49.93668" lon="2.20772">
        <ele>17.1</ele>
        <time>2022-03-02T14:18:51Z</time>
      </trkpt>
      <trkpt lat="49.93668" lon="2.20772">
        <ele>17.1</ele>
        <time>2022-03-02T14:18:52Z</time>
      </trkpt>
      <trkpt lat="49.93668" lon="2.20772">
        <ele>17.1</ele>
        <time>2022-03-02T14:18:53Z</time>
      </trkpt>
      <trkpt lat="49.93668" lon="2.20772">
        <ele>17.1</ele>
        <time>2022-03-02T14:18:54Z</time>
      </trkpt>
      <trkpt lat="49.93668" lon="2.20772">
        <ele>17.1</ele>
        <time>2022-03-02T14:18:55Z</time>
      </trkpt>
      <trkpt lat="49.93668" lon="2.20772">
        <ele>17.1</ele>
        <time>2022-03-02T14:18:56Z</time>
      </trkpt>
      <trkpt lat="49.93668" lon="2.20772">
        <ele>17.1</ele>
        <time>2022-03-02T14:18:57Z</time>
      </trkpt>
      <trkpt lat="49.93668" lon="2.20772">
        <ele>17.1</ele>
        <time>2022-03-02T14:18:58Z</time>
      </trkpt>
      <trkpt lat="49.93668" lon="2.20772">
        <ele>17.1</ele>
        <time>2022-03-02T14:18:59Z</time>
      </trkpt>
      <trkpt lat="49.93668" lon="2.20772">
        <ele>17.1</ele>
        <time>2022-03-02T14:19:00Z</time>
      </trkpt>
      <trkpt lat="49.93668" lon="2.20772">
        <ele>17.1</ele>
        <time>2022-03-02T14:19:01Z</time>
      </trkpt>
      <trkpt lat="49.93668" lon="2.20772">
        <ele>17.1</ele>
        <time>2022-03-02T14:19:02Z</time>
      </trkpt>
      <trkpt lat="49.93668" lon="2.20772">
        <ele>17.1</ele>
        <time>2022-03-02T14:19:03Z</time>
      </trkpt>
      <trkpt lat="49.93668" lon="2.20772">
        <ele>17.1</ele>
        <time>2022-03-02T14:19:04Z</time>
      </trkpt>
      <trkpt lat="49.93668" lon="2.20772">
        <ele>17.1</ele>
        <time>2022-03-02T14:19:05Z</time>
      </trkpt>
      <trkpt lat="49.93668" lon="2.20772">
        <ele>17.1</ele>
        <time>2022-03-02T14:19:06Z</time>
      </trkpt>
      <trkpt lat="49.93668" lon="2.20772">
        <ele>17.1</ele>
        <time>2022-03-02T14:19:07Z</time>
      </trkpt>
      <trkpt lat="49.93668" lon="2.20772">
        <ele>17.1</ele>
        <time>2022-03-02T14:19:08Z</time>
      </trkpt>
      <trkpt lat="49.93668" lon="2.20772">
        <ele>17.1</ele>
        <time>2022-03-02T14:19:09Z</time>
      </trkpt>
      <trkpt lat="49.93668" lon="2.20772">
        <ele>17.1</ele>
        <time>2022-03-02T14:19:10Z</time>
      </trkpt>
      <trkpt lat="49.93668" lon="2.20772">
        <ele>17.1</ele>
        <time>2022-03-02T14:19:11Z</time>
      </trkpt>
      <trkpt lat="49.93668" lon="2.20772">
        <ele>17.1</ele>
        <time>2022-03-02T14:19:12Z</time>
      </trkpt>
      <trkpt lat="49.93668" lon="2.20772">
        <ele>17.1</ele>
        <time>2022-03-02T14:19:13Z</time>
      </trkpt>
      <trkpt lat="49.93668" lon="2.20772">
        <ele>17.1</ele>
        <time>2022-03-02T14:19:14Z</time>
      </trkpt>
      <trkpt lat="49.93668" lon="2.20772">
        <ele>17.1</ele>
        <time>2022-03-02T14:19:15Z</time>
      </trkpt>
      <trkpt lat="49.93668" lon="2.20772">
        <ele>17.1</ele>
        <time>2022-03-02T14:19:16Z</time>
      </trkpt>
      <trkpt lat="49.93668" lon="2.20772">
        <ele>17.1</ele>
        <time>2022-03-02T14:19:17Z</time>
      </trkpt>
      <trkpt lat="49.93668" lon="2.20772">
        <ele>17.1</ele>
        <time>2022-03-02T14:19:18Z</time>
      </trkpt>
      <trkpt lat="49.93668" lon="2.20772">
        <ele>17.1</ele>
        <time>2022-03-02T14:19:19Z</time>
      </trkpt>
      <trkpt lat="49.93668" lon="2.20772">
        <ele>17.1</ele>
        <time>2022-03-02T14:19:20Z</time>
      </trkpt>
      <trkpt lat="49.93668" lon="2.20772">
        <ele>17.1</ele>
        <time>2022-03-02T14:19:21Z</time>
      </trkpt>
      <trkpt lat="49.93668" lon="2.20772">
        <ele>17.1</ele>
        <time>2022-03-02T14:19:22Z</time>
      </trkpt>
      <trkpt lat="49.93668" lon="2.20772">
        <ele>17.1</ele>
        <time>2022-03-02T14:19:23Z</time>
      </trkpt>
      <trkpt lat="49.93668" lon="2.20772">
        <ele>17.1</ele>
        <time>2022-03-02T14:19:24Z</time>
      </trkpt>
      <trkpt lat="49.93668" lon="2.20772">
        <ele>17.1</ele>
        <time>2022-03-02T14:19:25Z</time>
      </trkpt>
      <trkpt lat="49.93668" lon="2.20772">
        <ele>17.1</ele>
        <time>2022-03-02T14:19:26Z</time>
      </trkpt>
      <trkpt lat="49.93668" lon="2.20772">
        <ele>17.1</ele>
        <time>2022-03-02T14:19:27Z</time>
      </trkpt>
      <trkpt lat="49.93668" lon="2.20772">
        <ele>17.1</ele>
        <time>2022-03-02T14:19:28Z</time>
      </trkpt>
      <trkpt lat="49.93668" lon="2.20772">
        <ele>17.1</ele>
        <time>2022-03-02T14:19:29Z</time>
      </trkpt>
      <trkpt lat="49.93668" lon="2.20772">
        <ele>17.1</ele>
        <time>2022-03-02T14:19:30Z</time>
      </trkpt>
      <trkpt lat="49.93668" lon="2.20772">
        <ele>17.2</ele>
        <time>2022-03-02T14:19:31Z</time>
      </trkpt>
      <trkpt lat="49.93668" lon="2.20774">
        <ele>17.2</ele>
        <time>2022-03-02T14:19:32Z</time>
      </trkpt>
      <trkpt lat="49.93669" lon="2.20777">
        <ele>17.2</ele>
        <time>2022-03-02T14:19:33Z</time>
      </trkpt>
      <trkpt lat="49.9367" lon="2.20778">
        <ele>17.2</ele>
        <time>2022-03-02T14:19:34Z</time>
      </trkpt>
      <trkpt lat="49.93671" lon="2.20779">
        <ele>17.3</ele>
        <time>2022-03-02T14:19:35Z</time>
      </trkpt>
      <trkpt lat="49.93671" lon="2.2078">
        <ele>17.3</ele>
        <time>2022-03-02T14:19:36Z</time>
      </trkpt>
      <trkpt lat="49.93672" lon="2.20781">
        <ele>17.3</ele>
        <time>2022-03-02T14:19:37Z</time>
      </trkpt>
      <trkpt lat="49.93672" lon="2.20783">
        <ele>17.3</ele>
        <time>2022-03-02T14:19:38Z</time>
      </trkpt>
      <trkpt lat="49.93672" lon="2.20784">
        <ele>17.3</ele>
        <time>2022-03-02T14:19:39Z</time>
      </trkpt>
      <trkpt lat="49.93673" lon="2.20786">
        <ele>17.4</ele>
        <time>2022-03-02T14:19:41Z</time>
      </trkpt>
      <trkpt lat="49.93674" lon="2.20788">
        <ele>17.4</ele>
        <time>2022-03-02T14:19:42Z</time>
      </trkpt>
      <trkpt lat="49.93675" lon="2.2079">
        <ele>17.4</ele>
        <time>2022-03-02T14:19:43Z</time>
      </trkpt>
      <trkpt lat="49.93676" lon="2.20792">
        <ele>17.5</ele>
        <time>2022-03-02T14:19:44Z</time>
      </trkpt>
      <trkpt lat="49.93677" lon="2.20794">
        <ele>17.5</ele>
        <time>2022-03-02T14:19:45Z</time>
      </trkpt>
      <trkpt lat="49.93678" lon="2.20796">
        <ele>17.6</ele>
        <time>2022-03-02T14:19:46Z</time>
      </trkpt>
      <trkpt lat="49.93679" lon="2.20798">
        <ele>17.6</ele>
        <time>2022-03-02T14:19:47Z</time>
      </trkpt>
      <trkpt lat="49.9368" lon="2.208">
        <ele>17.6</ele>
        <time>2022-03-02T14:19:49Z</time>
      </trkpt>
      <trkpt lat="49.93681" lon="2.20801">
        <ele>17.7</ele>
        <time>2022-03-02T14:19:50Z</time>
      </trkpt>
      <trkpt lat="49.93682" lon="2.20802">
        <ele>17.7</ele>
        <time>2022-03-02T14:19:51Z</time>
      </trkpt>
      <trkpt lat="49.93682" lon="2.20803">
        <ele>17.7</ele>
        <time>2022-03-02T14:19:52Z</time>
      </trkpt>
      <trkpt lat="49.93683" lon="2.20805">
        <ele>17.7</ele>
        <time>2022-03-02T14:19:54Z</time>
      </trkpt>
      <trkpt lat="49.93684" lon="2.20807">
        <ele>17.8</ele>
        <time>2022-03-02T14:19:55Z</time>
      </trkpt>
      <trkpt lat="49.93685" lon="2.20809">
        <ele>17.8</ele>
        <time>2022-03-02T14:19:56Z</time>
      </trkpt>
      <trkpt lat="49.93686" lon="2.2081">
        <ele>17.8</ele>
        <time>2022-03-02T14:19:57Z</time>
      </trkpt>
      <trkpt lat="49.93687" lon="2.20813">
        <ele>17.9</ele>
        <time>2022-03-02T14:19:58Z</time>
      </trkpt>
      <trkpt lat="49.93688" lon="2.20815">
        <ele>17.9</ele>
        <time>2022-03-02T14:19:59Z</time>
      </trkpt>
      <trkpt lat="49.93689" lon="2.20818">
        <ele>18</ele>
        <time>2022-03-02T14:20:00Z</time>
      </trkpt>
      <trkpt lat="49.9369" lon="2.2082">
        <ele>18</ele>
        <time>2022-03-02T14:20:02Z</time>
      </trkpt>
      <trkpt lat="49.93691" lon="2.20823">
        <ele>18.1</ele>
        <time>2022-03-02T14:20:03Z</time>
      </trkpt>
      <trkpt lat="49.93691" lon="2.20824">
        <ele>18.1</ele>
        <time>2022-03-02T14:20:04Z</time>
      </trkpt>
      <trkpt lat="49.93692" lon="2.20826">
        <ele>18.1</ele>
        <time>2022-03-02T14:20:05Z</time>
      </trkpt>
      <trkpt lat="49.93693" lon="2.20827">
        <ele>18.2</ele>
        <time>2022-03-02T14:20:06Z</time>
      </trkpt>
      <trkpt lat="49.93694" lon="2.20828">
        <ele>18.2</ele>
        <time>2022-03-02T14:20:07Z</time>
      </trkpt>
      <trkpt lat="49.93695" lon="2.20829">
        <ele>18.2</ele>
        <time>2022-03-02T14:20:08Z</time>
      </trkpt>
      <trkpt lat="49.93695" lon="2.2083">
        <ele>18.2</ele>
        <time>2022-03-02T14:20:09Z</time>
      </trkpt>
      <trkpt lat="49.93696" lon="2.20832">
        <ele>18.3</ele>
        <time>2022-03-02T14:20:11Z</time>
      </trkpt>
      <trkpt lat="49.93697" lon="2.20833">
        <ele>18.3</ele>
        <time>2022-03-02T14:20:12Z</time>
      </trkpt>
      <trkpt lat="49.93698" lon="2.20833">
        <ele>18.3</ele>
        <time>2022-03-02T14:20:13Z</time>
      </trkpt>
      <trkpt lat="49.93699" lon="2.20835">
        <ele>18.4</ele>
        <time>2022-03-02T14:20:14Z</time>
      </trkpt>
      <trkpt lat="49.93699" lon="2.20835">
        <ele>18.4</ele>
        <time>2022-03-02T14:20:15Z</time>
      </trkpt>
      <trkpt lat="49.937" lon="2.20836">
        <ele>18.4</ele>
        <time>2022-03-02T14:20:16Z</time>
      </trkpt>
      <trkpt lat="49.937" lon="2.20836">
        <ele>18.4</ele>
        <time>2022-03-02T14:20:17Z</time>
      </trkpt>
      <trkpt lat="49.937" lon="2.20837">
        <ele>18.4</ele>
        <time>2022-03-02T14:20:18Z</time>
      </trkpt>
      <trkpt lat="49.93701" lon="2.20837">
        <ele>18.4</ele>
        <time>2022-03-02T14:20:19Z</time>
      </trkpt>
      <trkpt lat="49.93702" lon="2.20839">
        <ele>18.5</ele>
        <time>2022-03-02T14:20:20Z</time>
      </trkpt>
      <trkpt lat="49.93703" lon="2.2084">
        <ele>18.5</ele>
        <time>2022-03-02T14:20:22Z</time>
      </trkpt>
      <trkpt lat="49.93705" lon="2.20842">
        <ele>18.6</ele>
        <time>2022-03-02T14:20:23Z</time>
      </trkpt>
      <trkpt lat="49.93706" lon="2.20843">
        <ele>18.6</ele>
        <time>2022-03-02T14:20:24Z</time>
      </trkpt>
      <trkpt lat="49.93708" lon="2.20846">
        <ele>18.7</ele>
        <time>2022-03-02T14:20:25Z</time>
      </trkpt>
      <trkpt lat="49.93709" lon="2.20847">
        <ele>18.7</ele>
        <time>2022-03-02T14:20:26Z</time>
      </trkpt>
      <trkpt lat="49.9371" lon="2.20848">
        <ele>18.7</ele>
        <time>2022-03-02T14:20:27Z</time>
      </trkpt>
      <trkpt lat="49.93712" lon="2.20848">
        <ele>18.8</ele>
        <time>2022-03-02T14:20:28Z</time>
      </trkpt>
      <trkpt lat="49.93714" lon="2.20849">
        <ele>18.8</ele>
        <time>2022-03-02T14:20:29Z</time>
      </trkpt>
      <trkpt lat="49.93715" lon="2.20851">
        <ele>18.9</ele>
        <time>2022-03-02T14:20:30Z</time>
      </trkpt>
      <trkpt lat="49.93716" lon="2.20852">
        <ele>18.9</ele>
        <time>2022-03-02T14:20:32Z</time>
      </trkpt>
      <trkpt lat="49.93717" lon="2.20853">
        <ele>19</ele>
        <time>2022-03-02T14:20:33Z</time>
      </trkpt>
      <trkpt lat="49.93717" lon="2.20854">
        <ele>19</ele>
        <time>2022-03-02T14:20:34Z</time>
      </trkpt>
      <trkpt lat="49.93717" lon="2.20854">
        <ele>19</ele>
        <time>2022-03-02T14:20:35Z</time>
      </trkpt>
      <trkpt lat="49.93718" lon="2.20855">
        <ele>19</ele>
        <time>2022-03-02T14:20:36Z</time>
      </trkpt>
      <trkpt lat="49.93718" lon="2.20856">
        <ele>19</ele>
        <time>2022-03-02T14:20:37Z</time>
      </trkpt>
      <trkpt lat="49.93719" lon="2.20857">
        <ele>19.1</ele>
        <time>2022-03-02T14:20:38Z</time>
      </trkpt>
      <trkpt lat="49.93719" lon="2.20859">
        <ele>19.1</ele>
        <time>2022-03-02T14:20:39Z</time>
      </trkpt>
      <trkpt lat="49.93719" lon="2.2086">
        <ele>19.1</ele>
        <time>2022-03-02T14:20:40Z</time>
      </trkpt>
      <trkpt lat="49.9372" lon="2.20862">
        <ele>19.2</ele>
        <time>2022-03-02T14:20:41Z</time>
      </trkpt>
      <trkpt lat="49.93721" lon="2.20862">
        <ele>19.2</ele>
        <time>2022-03-02T14:20:42Z</time>
      </trkpt>
      <trkpt lat="49.93722" lon="2.20864">
        <ele>19.2</ele>
        <time>2022-03-02T14:20:44Z</time>
      </trkpt>
      <trkpt lat="49.93723" lon="2.20865">
        <ele>19.3</ele>
        <time>2022-03-02T14:20:45Z</time>
      </trkpt>
      <trkpt lat="49.93724" lon="2.20867">
        <ele>19.3</ele>
        <time>2022-03-02T14:20:46Z</time>
      </trkpt>
      <trkpt lat="49.93725" lon="2.20868">
        <ele>19.4</ele>
        <time>2022-03-02T14:20:47Z</time>
      </trkpt>
      <trkpt lat="49.93726" lon="2.20869">
        <ele>19.4</ele>
        <time>2022-03-02T14:20:48Z</time>
      </trkpt>
      <trkpt lat="49.93727" lon="2.20871">
        <ele>19.4</ele>
        <time>2022-03-02T14:20:49Z</time>
      </trkpt>
      <trkpt lat="49.93728" lon="2.20871">
        <ele>19.5</ele>
        <time>2022-03-02T14:20:50Z</time>
      </trkpt>
      <trkpt lat="49.93729" lon="2.2087">
        <ele>19.5</ele>
        <time>2022-03-02T14:20:51Z</time>
      </trkpt>
      <trkpt lat="49.93729" lon="2.20871">
        <ele>19.5</ele>
        <time>2022-03-02T14:20:52Z</time>
      </trkpt>
      <trkpt lat="49.9373" lon="2.20873">
        <ele>19.6</ele>
        <time>2022-03-02T14:20:53Z</time>
      </trkpt>
      <trkpt lat="49.93731" lon="2.20874">
        <ele>19.6</ele>
        <time>2022-03-02T14:20:54Z</time>
      </trkpt>
      <trkpt lat="49.93732" lon="2.20876">
        <ele>19.7</ele>
        <time>2022-03-02T14:20:55Z</time>
      </trkpt>
      <trkpt lat="49.93733" lon="2.20877">
        <ele>19.7</ele>
        <time>2022-03-02T14:20:56Z</time>
      </trkpt>
      <trkpt lat="49.93734" lon="2.20879">
        <ele>19.8</ele>
        <time>2022-03-02T14:20:57Z</time>
      </trkpt>
      <trkpt lat="49.93735" lon="2.2088">
        <ele>19.8</ele>
        <time>2022-03-02T14:20:58Z</time>
      </trkpt>
      <trkpt lat="49.93736" lon="2.2088">
        <ele>19.8</ele>
        <time>2022-03-02T14:20:59Z</time>
      </trkpt>
      <trkpt lat="49.93737" lon="2.20882">
        <ele>19.9</ele>
        <time>2022-03-02T14:21:01Z</time>
      </trkpt>
      <trkpt lat="49.93738" lon="2.20883">
        <ele>19.9</ele>
        <time>2022-03-02T14:21:02Z</time>
      </trkpt>
      <trkpt lat="49.93739" lon="2.20884">
        <ele>19.9</ele>
        <time>2022-03-02T14:21:03Z</time>
      </trkpt>
      <trkpt lat="49.9374" lon="2.20886">
        <ele>20</ele>
        <time>2022-03-02T14:21:04Z</time>
      </trkpt>
      <trkpt lat="49.93741" lon="2.20887">
        <ele>20</ele>
        <time>2022-03-02T14:21:06Z</time>
      </trkpt>
      <trkpt lat="49.93742" lon="2.20887">
        <ele>20</ele>
        <time>2022-03-02T14:21:07Z</time>
      </trkpt>
      <trkpt lat="49.93744" lon="2.20889">
        <ele>20.1</ele>
        <time>2022-03-02T14:21:08Z</time>
      </trkpt>
      <trkpt lat="49.93744" lon="2.20889">
        <ele>20.1</ele>
        <time>2022-03-02T14:21:09Z</time>
      </trkpt>
      <trkpt lat="49.93745" lon="2.2089">
        <ele>20.1</ele>
        <time>2022-03-02T14:21:10Z</time>
      </trkpt>
      <trkpt lat="49.93746" lon="2.20891">
        <ele>20.2</ele>
        <time>2022-03-02T14:21:11Z</time>
      </trkpt>
      <trkpt lat="49.93747" lon="2.20891">
        <ele>20.2</ele>
        <time>2022-03-02T14:21:12Z</time>
      </trkpt>
      <trkpt lat="49.93748" lon="2.20892">
        <ele>20.2</ele>
        <time>2022-03-02T14:21:13Z</time>
      </trkpt>
      <trkpt lat="49.9375" lon="2.20893">
        <ele>20.3</ele>
        <time>2022-03-02T14:21:14Z</time>
      </trkpt>
      <trkpt lat="49.93751" lon="2.20894">
        <ele>20.3</ele>
        <time>2022-03-02T14:21:15Z</time>
      </trkpt>
      <trkpt lat="49.93751" lon="2.20894">
        <ele>20.3</ele>
        <time>2022-03-02T14:21:16Z</time>
      </trkpt>
      <trkpt lat="49.93752" lon="2.20895">
        <ele>20.3</ele>
        <time>2022-03-02T14:21:18Z</time>
      </trkpt>
      <trkpt lat="49.93754" lon="2.20896">
        <ele>20.4</ele>
        <time>2022-03-02T14:21:19Z</time>
      </trkpt>
      <trkpt lat="49.93754" lon="2.20897">
        <ele>20.4</ele>
        <time>2022-03-02T14:21:20Z</time>
      </trkpt>
      <trkpt lat="49.93756" lon="2.20899">
        <ele>20.5</ele>
        <time>2022-03-02T14:21:21Z</time>
      </trkpt>
      <trkpt lat="49.93757" lon="2.20899">
        <ele>20.5</ele>
        <time>2022-03-02T14:21:22Z</time>
      </trkpt>
      <trkpt lat="49.93758" lon="2.209">
        <ele>20.5</ele>
        <time>2022-03-02T14:21:23Z</time>
      </trkpt>
      <trkpt lat="49.93759" lon="2.20901">
        <ele>20.6</ele>
        <time>2022-03-02T14:21:24Z</time>
      </trkpt>
      <trkpt lat="49.9376" lon="2.20901">
        <ele>20.6</ele>
        <time>2022-03-02T14:21:25Z</time>
      </trkpt>
      <trkpt lat="49.93761" lon="2.20902">
        <ele>20.6</ele>
        <time>2022-03-02T14:21:26Z</time>
      </trkpt>
      <trkpt lat="49.93761" lon="2.20903">
        <ele>20.7</ele>
        <time>2022-03-02T14:21:27Z</time>
      </trkpt>
      <trkpt lat="49.93763" lon="2.20904">
        <ele>20.7</ele>
        <time>2022-03-02T14:21:28Z</time>
      </trkpt>
      <trkpt lat="49.93764" lon="2.20905">
        <ele>20.8</ele>
        <time>2022-03-02T14:21:29Z</time>
      </trkpt>
      <trkpt lat="49.93765" lon="2.20907">
        <ele>20.8</ele>
        <time>2022-03-02T14:21:31Z</time>
      </trkpt>
      <trkpt lat="49.93766" lon="2.20907">
        <ele>20.9</ele>
        <time>2022-03-02T14:21:32Z</time>
      </trkpt>
      <trkpt lat="49.93767" lon="2.20908">
        <ele>20.9</ele>
        <time>2022-03-02T14:21:33Z</time>
      </trkpt>
      <trkpt lat="49.93768" lon="2.20909">
        <ele>20.9</ele>
        <time>2022-03-02T14:21:34Z</time>
      </trkpt>
      <trkpt lat="49.93769" lon="2.20909">
        <ele>20.9</ele>
        <time>2022-03-02T14:21:35Z</time>
      </trkpt>
      <trkpt lat="49.9377" lon="2.2091">
        <ele>21</ele>
        <time>2022-03-02T14:21:36Z</time>
      </trkpt>
      <trkpt lat="49.93771" lon="2.20909">
        <ele>21</ele>
        <time>2022-03-02T14:21:37Z</time>
      </trkpt>
      <trkpt lat="49.93772" lon="2.20909">
        <ele>21</ele>
        <time>2022-03-02T14:21:38Z</time>
      </trkpt>
      <trkpt lat="49.93773" lon="2.20909">
        <ele>21.1</ele>
        <time>2022-03-02T14:21:39Z</time>
      </trkpt>
      <trkpt lat="49.93775" lon="2.20909">
        <ele>21.1</ele>
        <time>2022-03-02T14:21:40Z</time>
      </trkpt>
      <trkpt lat="49.93776" lon="2.20909">
        <ele>21.1</ele>
        <time>2022-03-02T14:21:41Z</time>
      </trkpt>
      <trkpt lat="49.93778" lon="2.20909">
        <ele>21.2</ele>
        <time>2022-03-02T14:21:43Z</time>
      </trkpt>
      <trkpt lat="49.93779" lon="2.2091">
        <ele>21.2</ele>
        <time>2022-03-02T14:21:44Z</time>
      </trkpt>
      <trkpt lat="49.93781" lon="2.2091">
        <ele>21.2</ele>
        <time>2022-03-02T14:21:45Z</time>
      </trkpt>
      <trkpt lat="49.93782" lon="2.2091">
        <ele>21.2</ele>
        <time>2022-03-02T14:21:46Z</time>
      </trkpt>
      <trkpt lat="49.93784" lon="2.2091">
        <ele>21.3</ele>
        <time>2022-03-02T14:21:47Z</time>
      </trkpt>
      <trkpt lat="49.93785" lon="2.2091">
        <ele>21.3</ele>
        <time>2022-03-02T14:21:48Z</time>
      </trkpt>
      <trkpt lat="49.93787" lon="2.20911">
        <ele>21.3</ele>
        <time>2022-03-02T14:21:49Z</time>
      </trkpt>
      <trkpt lat="49.93788" lon="2.20911">
        <ele>21.3</ele>
        <time>2022-03-02T14:21:50Z</time>
      </trkpt>
      <trkpt lat="49.9379" lon="2.20912">
        <ele>21.3</ele>
        <time>2022-03-02T14:21:51Z</time>
      </trkpt>
      <trkpt lat="49.93791" lon="2.20913">
        <ele>21.3</ele>
        <time>2022-03-02T14:21:52Z</time>
      </trkpt>
      <trkpt lat="49.93792" lon="2.20914">
        <ele>21.3</ele>
        <time>2022-03-02T14:21:53Z</time>
      </trkpt>
      <trkpt lat="49.93794" lon="2.20915">
        <ele>21.3</ele>
        <time>2022-03-02T14:21:54Z</time>
      </trkpt>
      <trkpt lat="49.93795" lon="2.20916">
        <ele>21.3</ele>
        <time>2022-03-02T14:21:56Z</time>
      </trkpt>
      <trkpt lat="49.93797" lon="2.20918">
        <ele>21.4</ele>
        <time>2022-03-02T14:21:57Z</time>
      </trkpt>
      <trkpt lat="49.93798" lon="2.20918">
        <ele>21.4</ele>
        <time>2022-03-02T14:21:58Z</time>
      </trkpt>
      <trkpt lat="49.93799" lon="2.20919">
        <ele>21.4</ele>
        <time>2022-03-02T14:21:59Z</time>
      </trkpt>
      <trkpt lat="49.938" lon="2.2092">
        <ele>21.4</ele>
        <time>2022-03-02T14:22:00Z</time>
      </trkpt>
      <trkpt lat="49.93802" lon="2.20921">
        <ele>21.4</ele>
        <time>2022-03-02T14:22:01Z</time>
      </trkpt>
      <trkpt lat="49.93803" lon="2.20922">
        <ele>21.4</ele>
        <time>2022-03-02T14:22:02Z</time>
      </trkpt>
      <trkpt lat="49.93804" lon="2.20923">
        <ele>21.4</ele>
        <time>2022-03-02T14:22:03Z</time>
      </trkpt>
      <trkpt lat="49.93804" lon="2.20923">
        <ele>21.4</ele>
        <time>2022-03-02T14:22:04Z</time>
      </trkpt>
      <trkpt lat="49.93805" lon="2.20925">
        <ele>21.5</ele>
        <time>2022-03-02T14:22:05Z</time>
      </trkpt>
      <trkpt lat="49.93806" lon="2.20926">
        <ele>21.5</ele>
        <time>2022-03-02T14:22:06Z</time>
      </trkpt>
      <trkpt lat="49.93807" lon="2.20928">
        <ele>21.5</ele>
        <time>2022-03-02T14:22:07Z</time>
      </trkpt>
      <trkpt lat="49.93807" lon="2.20929">
        <ele>21.5</ele>
        <time>2022-03-02T14:22:08Z</time>
      </trkpt>
      <trkpt lat="49.93808" lon="2.2093">
        <ele>21.6</ele>
        <time>2022-03-02T14:22:10Z</time>
      </trkpt>
      <trkpt lat="49.9381" lon="2.2093">
        <ele>21.6</ele>
        <time>2022-03-02T14:22:11Z</time>
      </trkpt>
      <trkpt lat="49.93812" lon="2.20931">
        <ele>21.7</ele>
        <time>2022-03-02T14:22:13Z</time>
      </trkpt>
      <trkpt lat="49.93813" lon="2.20931">
        <ele>21.7</ele>
        <time>2022-03-02T14:22:14Z</time>
      </trkpt>
      <trkpt lat="49.93814" lon="2.20932">
        <ele>21.7</ele>
        <time>2022-03-02T14:22:15Z</time>
      </trkpt>
      <trkpt lat="49.93815" lon="2.20932">
        <ele>21.8</ele>
        <time>2022-03-02T14:22:16Z</time>
      </trkpt>
      <trkpt lat="49.93816" lon="2.20932">
        <ele>21.8</ele>
        <time>2022-03-02T14:22:17Z</time>
      </trkpt>
      <trkpt lat="49.93817" lon="2.20933">
        <ele>21.9</ele>
        <time>2022-03-02T14:22:18Z</time>
      </trkpt>
      <trkpt lat="49.93818" lon="2.20933">
        <ele>21.9</ele>
        <time>2022-03-02T14:22:19Z</time>
      </trkpt>
      <trkpt lat="49.93819" lon="2.20934">
        <ele>21.9</ele>
        <time>2022-03-02T14:22:20Z</time>
      </trkpt>
      <trkpt lat="49.9382" lon="2.20934">
        <ele>22</ele>
        <time>2022-03-02T14:22:21Z</time>
      </trkpt>
      <trkpt lat="49.93821" lon="2.20935">
        <ele>22</ele>
        <time>2022-03-02T14:22:22Z</time>
      </trkpt>
      <trkpt lat="49.93822" lon="2.20936">
        <ele>22.1</ele>
        <time>2022-03-02T14:22:23Z</time>
      </trkpt>
      <trkpt lat="49.93823" lon="2.20937">
        <ele>22.1</ele>
        <time>2022-03-02T14:22:24Z</time>
      </trkpt>
      <trkpt lat="49.93824" lon="2.20938">
        <ele>22.2</ele>
        <time>2022-03-02T14:22:26Z</time>
      </trkpt>
      <trkpt lat="49.93825" lon="2.2094">
        <ele>22.2</ele>
        <time>2022-03-02T14:22:27Z</time>
      </trkpt>
      <trkpt lat="49.93825" lon="2.2094">
        <ele>22.2</ele>
        <time>2022-03-02T14:22:28Z</time>
      </trkpt>
      <trkpt lat="49.93826" lon="2.2094">
        <ele>22.3</ele>
        <time>2022-03-02T14:22:29Z</time>
      </trkpt>
      <trkpt lat="49.93827" lon="2.20941">
        <ele>22.3</ele>
        <time>2022-03-02T14:22:30Z</time>
      </trkpt>
      <trkpt lat="49.93828" lon="2.20942">
        <ele>22.3</ele>
        <time>2022-03-02T14:22:31Z</time>
      </trkpt>
      <trkpt lat="49.93829" lon="2.20943">
        <ele>22.4</ele>
        <time>2022-03-02T14:22:32Z</time>
      </trkpt>
      <trkpt lat="49.9383" lon="2.20945">
        <ele>22.5</ele>
        <time>2022-03-02T14:22:33Z</time>
      </trkpt>
      <trkpt lat="49.93832" lon="2.20946">
        <ele>22.5</ele>
        <time>2022-03-02T14:22:34Z</time>
      </trkpt>
      <trkpt lat="49.93833" lon="2.20947">
        <ele>22.6</ele>
        <time>2022-03-02T14:22:35Z</time>
      </trkpt>
      <trkpt lat="49.93834" lon="2.20948">
        <ele>22.6</ele>
        <time>2022-03-02T14:22:36Z</time>
      </trkpt>
      <trkpt lat="49.93835" lon="2.20949">
        <ele>22.7</ele>
        <time>2022-03-02T14:22:37Z</time>
      </trkpt>
      <trkpt lat="49.93836" lon="2.2095">
        <ele>22.7</ele>
        <time>2022-03-02T14:22:38Z</time>
      </trkpt>
      <trkpt lat="49.93838" lon="2.20951">
        <ele>22.8</ele>
        <time>2022-03-02T14:22:40Z</time>
      </trkpt>
      <trkpt lat="49.93839" lon="2.20952">
        <ele>22.8</ele>
        <time>2022-03-02T14:22:41Z</time>
      </trkpt>
      <trkpt lat="49.93841" lon="2.20954">
        <ele>22.9</ele>
        <time>2022-03-02T14:22:42Z</time>
      </trkpt>
      <trkpt lat="49.93841" lon="2.20954">
        <ele>22.9</ele>
        <time>2022-03-02T14:22:43Z</time>
      </trkpt>
      <trkpt lat="49.93842" lon="2.20954">
        <ele>23</ele>
        <time>2022-03-02T14:22:44Z</time>
      </trkpt>
      <trkpt lat="49.93844" lon="2.20956">
        <ele>23</ele>
        <time>2022-03-02T14:22:45Z</time>
      </trkpt>
      <trkpt lat="49.93845" lon="2.20956">
        <ele>23.1</ele>
        <time>2022-03-02T14:22:46Z</time>
      </trkpt>
      <trkpt lat="49.93846" lon="2.20957">
        <ele>23.1</ele>
        <time>2022-03-02T14:22:47Z</time>
      </trkpt>
      <trkpt lat="49.93847" lon="2.20958">
        <ele>23.2</ele>
        <time>2022-03-02T14:22:48Z</time>
      </trkpt>
      <trkpt lat="49.93849" lon="2.20958">
        <ele>23.2</ele>
        <time>2022-03-02T14:22:49Z</time>
      </trkpt>
      <trkpt lat="49.9385" lon="2.20959">
        <ele>23.3</ele>
        <time>2022-03-02T14:22:51Z</time>
      </trkpt>
      <trkpt lat="49.93852" lon="2.2096">
        <ele>23.4</ele>
        <time>2022-03-02T14:22:52Z</time>
      </trkpt>
      <trkpt lat="49.93853" lon="2.20961">
        <ele>23.4</ele>
        <time>2022-03-02T14:22:53Z</time>
      </trkpt>
      <trkpt lat="49.93855" lon="2.20961">
        <ele>23.5</ele>
        <time>2022-03-02T14:22:54Z</time>
      </trkpt>
      <trkpt lat="49.93857" lon="2.20963">
        <ele>23.5</ele>
        <time>2022-03-02T14:22:55Z</time>
      </trkpt>
      <trkpt lat="49.93857" lon="2.20963">
        <ele>23.6</ele>
        <time>2022-03-02T14:22:56Z</time>
      </trkpt>
      <trkpt lat="49.93858" lon="2.20964">
        <ele>23.6</ele>
        <time>2022-03-02T14:22:57Z</time>
      </trkpt>
      <trkpt lat="49.93859" lon="2.20965">
        <ele>23.7</ele>
        <time>2022-03-02T14:22:58Z</time>
      </trkpt>
      <trkpt lat="49.9386" lon="2.20966">
        <ele>23.7</ele>
        <time>2022-03-02T14:22:59Z</time>
      </trkpt>
      <trkpt lat="49.93861" lon="2.20967">
        <ele>23.8</ele>
        <time>2022-03-02T14:23:01Z</time>
      </trkpt>
      <trkpt lat="49.93863" lon="2.20969">
        <ele>23.8</ele>
        <time>2022-03-02T14:23:02Z</time>
      </trkpt>
      <trkpt lat="49.93864" lon="2.2097">
        <ele>23.9</ele>
        <time>2022-03-02T14:23:04Z</time>
      </trkpt>
      <trkpt lat="49.93865" lon="2.20971">
        <ele>23.9</ele>
        <time>2022-03-02T14:23:05Z</time>
      </trkpt>
      <trkpt lat="49.93866" lon="2.20971">
        <ele>24</ele>
        <time>2022-03-02T14:23:06Z</time>
      </trkpt>
      <trkpt lat="49.93867" lon="2.20972">
        <ele>24</ele>
        <time>2022-03-02T14:23:07Z</time>
      </trkpt>
      <trkpt lat="49.93868" lon="2.20974">
        <ele>24.1</ele>
        <time>2022-03-02T14:23:08Z</time>
      </trkpt>
      <trkpt lat="49.93868" lon="2.20974">
        <ele>24.1</ele>
        <time>2022-03-02T14:23:09Z</time>
      </trkpt>
      <trkpt lat="49.93869" lon="2.20975">
        <ele>24.1</ele>
        <time>2022-03-02T14:23:10Z</time>
      </trkpt>
      <trkpt lat="49.93871" lon="2.20977">
        <ele>24.2</ele>
        <time>2022-03-02T14:23:11Z</time>
      </trkpt>
      <trkpt lat="49.93872" lon="2.20978">
        <ele>24.3</ele>
        <time>2022-03-02T14:23:12Z</time>
      </trkpt>
      <trkpt lat="49.93873" lon="2.20979">
        <ele>24.3</ele>
        <time>2022-03-02T14:23:14Z</time>
      </trkpt>
      <trkpt lat="49.93873" lon="2.2098">
        <ele>24.3</ele>
        <time>2022-03-02T14:23:15Z</time>
      </trkpt>
      <trkpt lat="49.93874" lon="2.20981">
        <ele>24.4</ele>
        <time>2022-03-02T14:23:16Z</time>
      </trkpt>
      <trkpt lat="49.93875" lon="2.20981">
        <ele>24.4</ele>
        <time>2022-03-02T14:23:17Z</time>
      </trkpt>
      <trkpt lat="49.93876" lon="2.20982">
        <ele>24.5</ele>
        <time>2022-03-02T14:23:18Z</time>
      </trkpt>
      <trkpt lat="49.93877" lon="2.20984">
        <ele>24.6</ele>
        <time>2022-03-02T14:23:19Z</time>
      </trkpt>
      <trkpt lat="49.93879" lon="2.20985">
        <ele>24.6</ele>
        <time>2022-03-02T14:23:20Z</time>
      </trkpt>
      <trkpt lat="49.9388" lon="2.20986">
        <ele>24.7</ele>
        <time>2022-03-02T14:23:21Z</time>
      </trkpt>
      <trkpt lat="49.93881" lon="2.20987">
        <ele>24.8</ele>
        <time>2022-03-02T14:23:23Z</time>
      </trkpt>
      <trkpt lat="49.93883" lon="2.20987">
        <ele>24.9</ele>
        <time>2022-03-02T14:23:24Z</time>
      </trkpt>
      <trkpt lat="49.93884" lon="2.20987">
        <ele>25.1</ele>
        <time>2022-03-02T14:23:25Z</time>
      </trkpt>
      <trkpt lat="49.93886" lon="2.20985">
        <ele>25.1</ele>
        <time>2022-03-02T14:23:26Z</time>
      </trkpt>
      <trkpt lat="49.93888" lon="2.20984">
        <ele>25.1</ele>
        <time>2022-03-02T14:23:28Z</time>
      </trkpt>
      <trkpt lat="49.9389" lon="2.20984">
        <ele>25.1</ele>
        <time>2022-03-02T14:23:29Z</time>
      </trkpt>
      <trkpt lat="49.93891" lon="2.20982">
        <ele>25.1</ele>
        <time>2022-03-02T14:23:30Z</time>
      </trkpt>
      <trkpt lat="49.93892" lon="2.2098">
        <ele>25.1</ele>
        <time>2022-03-02T14:23:31Z</time>
      </trkpt>
      <trkpt lat="49.93892" lon="2.20979">
        <ele>25.1</ele>
        <time>2022-03-02T14:23:32Z</time>
      </trkpt>
      <trkpt lat="49.93893" lon="2.20978">
        <ele>25.1</ele>
        <time>2022-03-02T14:23:33Z</time>
      </trkpt>
      <trkpt lat="49.93893" lon="2.20976">
        <ele>25.1</ele>
        <time>2022-03-02T14:23:34Z</time>
      </trkpt>
      <trkpt lat="49.93894" lon="2.20973">
        <ele>25.1</ele>
        <time>2022-03-02T14:23:36Z</time>
      </trkpt>
      <trkpt lat="49.93895" lon="2.2097">
        <ele>25.1</ele>
        <time>2022-03-02T14:23:37Z</time>
      </trkpt>
      <trkpt lat="49.93895" lon="2.20968">
        <ele>25.1</ele>
        <time>2022-03-02T14:23:38Z</time>
      </trkpt>
      <trkpt lat="49.93895" lon="2.20967">
        <ele>25.1</ele>
        <time>2022-03-02T14:23:39Z</time>
      </trkpt>
      <trkpt lat="49.93896" lon="2.20965">
        <ele>25.1</ele>
        <time>2022-03-02T14:23:40Z</time>
      </trkpt>
      <trkpt lat="49.93896" lon="2.20962">
        <ele>25.1</ele>
        <time>2022-03-02T14:23:42Z</time>
      </trkpt>
      <trkpt lat="49.93897" lon="2.20961">
        <ele>25.1</ele>
        <time>2022-03-02T14:23:43Z</time>
      </trkpt>
      <trkpt lat="49.93897" lon="2.2096">
        <ele>25.1</ele>
        <time>2022-03-02T14:23:44Z</time>
      </trkpt>
      <trkpt lat="49.93897" lon="2.20958">
        <ele>25.1</ele>
        <time>2022-03-02T14:23:45Z</time>
      </trkpt>
      <trkpt lat="49.93897" lon="2.20956">
        <ele>25.1</ele>
        <time>2022-03-02T14:23:46Z</time>
      </trkpt>
      <trkpt lat="49.93898" lon="2.20955">
        <ele>25.1</ele>
        <time>2022-03-02T14:23:47Z</time>
      </trkpt>
      <trkpt lat="49.93898" lon="2.20953">
        <ele>25.1</ele>
        <time>2022-03-02T14:23:48Z</time>
      </trkpt>
      <trkpt lat="49.93898" lon="2.20952">
        <ele>25.1</ele>
        <time>2022-03-02T14:23:49Z</time>
      </trkpt>
      <trkpt lat="49.93899" lon="2.20951">
        <ele>25.1</ele>
        <time>2022-03-02T14:23:50Z</time>
      </trkpt>
      <trkpt lat="49.93899" lon="2.20949">
        <ele>25.1</ele>
        <time>2022-03-02T14:23:51Z</time>
      </trkpt>
      <trkpt lat="49.939" lon="2.20947">
        <ele>25.1</ele>
        <time>2022-03-02T14:23:52Z</time>
      </trkpt>
      <trkpt lat="49.939" lon="2.20945">
        <ele>25.1</ele>
        <time>2022-03-02T14:23:53Z</time>
      </trkpt>
      <trkpt lat="49.93901" lon="2.20943">
        <ele>25.1</ele>
        <time>2022-03-02T14:23:55Z</time>
      </trkpt>
      <trkpt lat="49.93901" lon="2.2094">
        <ele>25.1</ele>
        <time>2022-03-02T14:23:56Z</time>
      </trkpt>
      <trkpt lat="49.93901" lon="2.20939">
        <ele>25.3</ele>
        <time>2022-03-02T14:23:57Z</time>
      </trkpt>
      <trkpt lat="49.93901" lon="2.20937">
        <ele>25.3</ele>
        <time>2022-03-02T14:23:58Z</time>
      </trkpt>
      <trkpt lat="49.93901" lon="2.20935">
        <ele>25.3</ele>
        <time>2022-03-02T14:23:59Z</time>
      </trkpt>
      <trkpt lat="49.93902" lon="2.20934">
        <ele>25.3</ele>
        <time>2022-03-02T14:24:00Z</time>
      </trkpt>
      <trkpt lat="49.93902" lon="2.20932">
        <ele>25.4</ele>
        <time>2022-03-02T14:24:02Z</time>
      </trkpt>
      <trkpt lat="49.93902" lon="2.2093">
        <ele>25.4</ele>
        <time>2022-03-02T14:24:03Z</time>
      </trkpt>
      <trkpt lat="49.93903" lon="2.20929">
        <ele>25.4</ele>
        <time>2022-03-02T14:24:04Z</time>
      </trkpt>
      <trkpt lat="49.93904" lon="2.20927">
        <ele>25.4</ele>
        <time>2022-03-02T14:24:06Z</time>
      </trkpt>
      <trkpt lat="49.93906" lon="2.20926">
        <ele>25.4</ele>
        <time>2022-03-02T14:24:07Z</time>
      </trkpt>
      <trkpt lat="49.93907" lon="2.20926">
        <ele>25.4</ele>
        <time>2022-03-02T14:24:08Z</time>
      </trkpt>
      <trkpt lat="49.93908" lon="2.20927">
        <ele>25.4</ele>
        <time>2022-03-02T14:24:09Z</time>
      </trkpt>
      <trkpt lat="49.9391" lon="2.20928">
        <ele>25.5</ele>
        <time>2022-03-02T14:24:11Z</time>
      </trkpt>
      <trkpt lat="49.93912" lon="2.20929">
        <ele>25.5</ele>
        <time>2022-03-02T14:24:12Z</time>
      </trkpt>
      <trkpt lat="49.93913" lon="2.2093">
        <ele>25.5</ele>
        <time>2022-03-02T14:24:13Z</time>
      </trkpt>
      <trkpt lat="49.93914" lon="2.20933">
        <ele>25.5</ele>
        <time>2022-03-02T14:24:14Z</time>
      </trkpt>
      <trkpt lat="49.93915" lon="2.20934">
        <ele>25.5</ele>
        <time>2022-03-02T14:24:16Z</time>
      </trkpt>
      <trkpt lat="49.93915" lon="2.20935">
        <ele>25.5</ele>
        <time>2022-03-02T14:24:17Z</time>
      </trkpt>
      <trkpt lat="49.93916" lon="2.20935">
        <ele>25.5</ele>
        <time>2022-03-02T14:24:18Z</time>
      </trkpt>
      <trkpt lat="49.93916" lon="2.20935">
        <ele>25.5</ele>
        <time>2022-03-02T14:24:19Z</time>
      </trkpt>
      <trkpt lat="49.93917" lon="2.20935">
        <ele>25.5</ele>
        <time>2022-03-02T14:24:20Z</time>
      </trkpt>
      <trkpt lat="49.93916" lon="2.20935">
        <ele>25.5</ele>
        <time>2022-03-02T14:24:21Z</time>
      </trkpt>
      <trkpt lat="49.93916" lon="2.20935">
        <ele>25.5</ele>
        <time>2022-03-02T14:24:22Z</time>
      </trkpt>
      <trkpt lat="49.93917" lon="2.20935">
        <ele>25.6</ele>
        <time>2022-03-02T14:24:23Z</time>
      </trkpt>
      <trkpt lat="49.93919" lon="2.20936">
        <ele>25.6</ele>
        <time>2022-03-02T14:24:25Z</time>
      </trkpt>
      <trkpt lat="49.9392" lon="2.20936">
        <ele>25.6</ele>
        <time>2022-03-02T14:24:26Z</time>
      </trkpt>
      <trkpt lat="49.93921" lon="2.20937">
        <ele>25.6</ele>
        <time>2022-03-02T14:24:27Z</time>
      </trkpt>
      <trkpt lat="49.93922" lon="2.20937">
        <ele>25.6</ele>
        <time>2022-03-02T14:24:28Z</time>
      </trkpt>
      <trkpt lat="49.93923" lon="2.20937">
        <ele>25.6</ele>
        <time>2022-03-02T14:24:29Z</time>
      </trkpt>
      <trkpt lat="49.93924" lon="2.20938">
        <ele>25.6</ele>
        <time>2022-03-02T14:24:30Z</time>
      </trkpt>
      <trkpt lat="49.93925" lon="2.20938">
        <ele>25.7</ele>
        <time>2022-03-02T14:24:31Z</time>
      </trkpt>
      <trkpt lat="49.93926" lon="2.2094">
        <ele>25.7</ele>
        <time>2022-03-02T14:24:33Z</time>
      </trkpt>
      <trkpt lat="49.93927" lon="2.2094">
        <ele>25.7</ele>
        <time>2022-03-02T14:24:34Z</time>
      </trkpt>
      <trkpt lat="49.93927" lon="2.20941">
        <ele>25.8</ele>
        <time>2022-03-02T14:24:35Z</time>
      </trkpt>
      <trkpt lat="49.93928" lon="2.20942">
        <ele>25.8</ele>
        <time>2022-03-02T14:24:36Z</time>
      </trkpt>
      <trkpt lat="49.93929" lon="2.20944">
        <ele>25.8</ele>
        <time>2022-03-02T14:24:37Z</time>
      </trkpt>
      <trkpt lat="49.9393" lon="2.20945">
        <ele>25.9</ele>
        <time>2022-03-02T14:24:38Z</time>
      </trkpt>
      <trkpt lat="49.93931" lon="2.20946">
        <ele>25.9</ele>
        <time>2022-03-02T14:24:39Z</time>
      </trkpt>
      <trkpt lat="49.93932" lon="2.20947">
        <ele>25.9</ele>
        <time>2022-03-02T14:24:40Z</time>
      </trkpt>
      <trkpt lat="49.93933" lon="2.20948">
        <ele>25.9</ele>
        <time>2022-03-02T14:24:41Z</time>
      </trkpt>
      <trkpt lat="49.93935" lon="2.20949">
        <ele>26</ele>
        <time>2022-03-02T14:24:43Z</time>
      </trkpt>
      <trkpt lat="49.93936" lon="2.20949">
        <ele>26</ele>
        <time>2022-03-02T14:24:44Z</time>
      </trkpt>
      <trkpt lat="49.93937" lon="2.2095">
        <ele>26</ele>
        <time>2022-03-02T14:24:45Z</time>
      </trkpt>
      <trkpt lat="49.93939" lon="2.20951">
        <ele>26.1</ele>
        <time>2022-03-02T14:24:46Z</time>
      </trkpt>
      <trkpt lat="49.9394" lon="2.20951">
        <ele>26.1</ele>
        <time>2022-03-02T14:24:47Z</time>
      </trkpt>
      <trkpt lat="49.93941" lon="2.20951">
        <ele>26.1</ele>
        <time>2022-03-02T14:24:48Z</time>
      </trkpt>
      <trkpt lat="49.93943" lon="2.20953">
        <ele>26.2</ele>
        <time>2022-03-02T14:24:49Z</time>
      </trkpt>
      <trkpt lat="49.93943" lon="2.20953">
        <ele>26.2</ele>
        <time>2022-03-02T14:24:50Z</time>
      </trkpt>
      <trkpt lat="49.93944" lon="2.20954">
        <ele>26.2</ele>
        <time>2022-03-02T14:24:51Z</time>
      </trkpt>
      <trkpt lat="49.93945" lon="2.20955">
        <ele>26.3</ele>
        <time>2022-03-02T14:24:52Z</time>
      </trkpt>
      <trkpt lat="49.93946" lon="2.20955">
        <ele>26.3</ele>
        <time>2022-03-02T14:24:53Z</time>
      </trkpt>
      <trkpt lat="49.93948" lon="2.20955">
        <ele>26.3</ele>
        <time>2022-03-02T14:24:55Z</time>
      </trkpt>
      <trkpt lat="49.93949" lon="2.20955">
        <ele>26.4</ele>
        <time>2022-03-02T14:24:56Z</time>
      </trkpt>
      <trkpt lat="49.93951" lon="2.20956">
        <ele>26.4</ele>
        <time>2022-03-02T14:24:57Z</time>
      </trkpt>
      <trkpt lat="49.93952" lon="2.20956">
        <ele>26.5</ele>
        <time>2022-03-02T14:24:58Z</time>
      </trkpt>
      <trkpt lat="49.93954" lon="2.20957">
        <ele>26.5</ele>
        <time>2022-03-02T14:24:59Z</time>
      </trkpt>
      <trkpt lat="49.93954" lon="2.20957">
        <ele>26.5</ele>
        <time>2022-03-02T14:25:01Z</time>
      </trkpt>
      <trkpt lat="49.93955" lon="2.20957">
        <ele>26.5</ele>
        <time>2022-03-02T14:25:02Z</time>
      </trkpt>
      <trkpt lat="49.93955" lon="2.20957">
        <ele>26.6</ele>
        <time>2022-03-02T14:25:03Z</time>
      </trkpt>
      <trkpt lat="49.93956" lon="2.20958">
        <ele>26.6</ele>
        <time>2022-03-02T14:25:04Z</time>
      </trkpt>
      <trkpt lat="49.93957" lon="2.20958">
        <ele>26.6</ele>
        <time>2022-03-02T14:25:05Z</time>
      </trkpt>
      <trkpt lat="49.93958" lon="2.20958">
        <ele>26.6</ele>
        <time>2022-03-02T14:25:06Z</time>
      </trkpt>
      <trkpt lat="49.9396" lon="2.20958">
        <ele>26.7</ele>
        <time>2022-03-02T14:25:07Z</time>
      </trkpt>
      <trkpt lat="49.93961" lon="2.20958">
        <ele>26.7</ele>
        <time>2022-03-02T14:25:09Z</time>
      </trkpt>
      <trkpt lat="49.93962" lon="2.20958">
        <ele>26.8</ele>
        <time>2022-03-02T14:25:10Z</time>
      </trkpt>
      <trkpt lat="49.93963" lon="2.20958">
        <ele>26.8</ele>
        <time>2022-03-02T14:25:11Z</time>
      </trkpt>
      <trkpt lat="49.93964" lon="2.20958">
        <ele>26.8</ele>
        <time>2022-03-02T14:25:12Z</time>
      </trkpt>
      <trkpt lat="49.93965" lon="2.20959">
        <ele>26.8</ele>
        <time>2022-03-02T14:25:13Z</time>
      </trkpt>
      <trkpt lat="49.93966" lon="2.2096">
        <ele>26.9</ele>
        <time>2022-03-02T14:25:14Z</time>
      </trkpt>
      <trkpt lat="49.93967" lon="2.20961">
        <ele>26.9</ele>
        <time>2022-03-02T14:25:15Z</time>
      </trkpt>
      <trkpt lat="49.93968" lon="2.20962">
        <ele>27</ele>
        <time>2022-03-02T14:25:16Z</time>
      </trkpt>
      <trkpt lat="49.9397" lon="2.20964">
        <ele>27</ele>
        <time>2022-03-02T14:25:18Z</time>
      </trkpt>
      <trkpt lat="49.93971" lon="2.20965">
        <ele>27.1</ele>
        <time>2022-03-02T14:25:19Z</time>
      </trkpt>
      <trkpt lat="49.93972" lon="2.20966">
        <ele>27.1</ele>
        <time>2022-03-02T14:25:20Z</time>
      </trkpt>
      <trkpt lat="49.93974" lon="2.20968">
        <ele>27.2</ele>
        <time>2022-03-02T14:25:22Z</time>
      </trkpt>
      <trkpt lat="49.93976" lon="2.2097">
        <ele>27.3</ele>
        <time>2022-03-02T14:25:23Z</time>
      </trkpt>
      <trkpt lat="49.93977" lon="2.2097">
        <ele>27.3</ele>
        <time>2022-03-02T14:25:24Z</time>
      </trkpt>
      <trkpt lat="49.93978" lon="2.2097">
        <ele>27.4</ele>
        <time>2022-03-02T14:25:25Z</time>
      </trkpt>
      <trkpt lat="49.9398" lon="2.20972">
        <ele>27.4</ele>
        <time>2022-03-02T14:25:26Z</time>
      </trkpt>
      <trkpt lat="49.93981" lon="2.20974">
        <ele>27.5</ele>
        <time>2022-03-02T14:25:28Z</time>
      </trkpt>
      <trkpt lat="49.93982" lon="2.20975">
        <ele>27.6</ele>
        <time>2022-03-02T14:25:29Z</time>
      </trkpt>
      <trkpt lat="49.93984" lon="2.20976">
        <ele>27.6</ele>
        <time>2022-03-02T14:25:30Z</time>
      </trkpt>
      <trkpt lat="49.93985" lon="2.20978">
        <ele>27.7</ele>
        <time>2022-03-02T14:25:31Z</time>
      </trkpt>
      <trkpt lat="49.93985" lon="2.20978">
        <ele>27.7</ele>
        <time>2022-03-02T14:25:32Z</time>
      </trkpt>
      <trkpt lat="49.93986" lon="2.20979">
        <ele>27.7</ele>
        <time>2022-03-02T14:25:33Z</time>
      </trkpt>
      <trkpt lat="49.93986" lon="2.2098">
        <ele>27.8</ele>
        <time>2022-03-02T14:25:34Z</time>
      </trkpt>
      <trkpt lat="49.93987" lon="2.20982">
        <ele>27.8</ele>
        <time>2022-03-02T14:25:36Z</time>
      </trkpt>
      <trkpt lat="49.93988" lon="2.20982">
        <ele>27.9</ele>
        <time>2022-03-02T14:25:37Z</time>
      </trkpt>
      <trkpt lat="49.93989" lon="2.20984">
        <ele>27.9</ele>
        <time>2022-03-02T14:25:38Z</time>
      </trkpt>
      <trkpt lat="49.9399" lon="2.20984">
        <ele>28</ele>
        <time>2022-03-02T14:25:39Z</time>
      </trkpt>
      <trkpt lat="49.9399" lon="2.20985">
        <ele>28</ele>
        <time>2022-03-02T14:25:40Z</time>
      </trkpt>
      <trkpt lat="49.93991" lon="2.20985">
        <ele>28.1</ele>
        <time>2022-03-02T14:25:41Z</time>
      </trkpt>
      <trkpt lat="49.93992" lon="2.20986">
        <ele>28.1</ele>
        <time>2022-03-02T14:25:42Z</time>
      </trkpt>
      <trkpt lat="49.93994" lon="2.20986">
        <ele>28.2</ele>
        <time>2022-03-02T14:25:43Z</time>
      </trkpt>
      <trkpt lat="49.93995" lon="2.20987">
        <ele>28.2</ele>
        <time>2022-03-02T14:25:44Z</time>
      </trkpt>
      <trkpt lat="49.93996" lon="2.20988">
        <ele>28.3</ele>
        <time>2022-03-02T14:25:45Z</time>
      </trkpt>
      <trkpt lat="49.93997" lon="2.20989">
        <ele>28.4</ele>
        <time>2022-03-02T14:25:47Z</time>
      </trkpt>
      <trkpt lat="49.93999" lon="2.2099">
        <ele>28.5</ele>
        <time>2022-03-02T14:25:48Z</time>
      </trkpt>
      <trkpt lat="49.94" lon="2.20991">
        <ele>28.6</ele>
        <time>2022-03-02T14:25:49Z</time>
      </trkpt>
      <trkpt lat="49.94001" lon="2.20992">
        <ele>28.6</ele>
        <time>2022-03-02T14:25:50Z</time>
      </trkpt>
      <trkpt lat="49.94003" lon="2.20992">
        <ele>28.7</ele>
        <time>2022-03-02T14:25:51Z</time>
      </trkpt>
      <trkpt lat="49.94004" lon="2.20993">
        <ele>28.8</ele>
        <time>2022-03-02T14:25:52Z</time>
      </trkpt>
      <trkpt lat="49.94006" lon="2.20993">
        <ele>28.9</ele>
        <time>2022-03-02T14:25:53Z</time>
      </trkpt>
      <trkpt lat="49.94007" lon="2.20993">
        <ele>29</ele>
        <time>2022-03-02T14:25:55Z</time>
      </trkpt>
      <trkpt lat="49.94008" lon="2.20995">
        <ele>29.1</ele>
        <time>2022-03-02T14:25:56Z</time>
      </trkpt>
      <trkpt lat="49.9401" lon="2.20995">
        <ele>29.2</ele>
        <time>2022-03-02T14:25:57Z</time>
      </trkpt>
      <trkpt lat="49.94011" lon="2.20996">
        <ele>29.3</ele>
        <time>2022-03-02T14:25:58Z</time>
      </trkpt>
      <trkpt lat="49.94012" lon="2.20996">
        <ele>29.3</ele>
        <time>2022-03-02T14:25:59Z</time>
      </trkpt>
      <trkpt lat="49.94013" lon="2.20997">
        <ele>29.4</ele>
        <time>2022-03-02T14:26:00Z</time>
      </trkpt>
      <trkpt lat="49.94014" lon="2.20998">
        <ele>29.5</ele>
        <time>2022-03-02T14:26:01Z</time>
      </trkpt>
      <trkpt lat="49.94015" lon="2.20999">
        <ele>29.6</ele>
        <time>2022-03-02T14:26:03Z</time>
      </trkpt>
      <trkpt lat="49.94016" lon="2.21">
        <ele>29.6</ele>
        <time>2022-03-02T14:26:04Z</time>
      </trkpt>
      <trkpt lat="49.94017" lon="2.21">
        <ele>29.7</ele>
        <time>2022-03-02T14:26:05Z</time>
      </trkpt>
      <trkpt lat="49.94018" lon="2.21001">
        <ele>29.8</ele>
        <time>2022-03-02T14:26:06Z</time>
      </trkpt>
      <trkpt lat="49.94019" lon="2.21001">
        <ele>29.8</ele>
        <time>2022-03-02T14:26:07Z</time>
      </trkpt>
      <trkpt lat="49.9402" lon="2.21002">
        <ele>29.9</ele>
        <time>2022-03-02T14:26:08Z</time>
      </trkpt>
      <trkpt lat="49.94021" lon="2.21002">
        <ele>30</ele>
        <time>2022-03-02T14:26:10Z</time>
      </trkpt>
      <trkpt lat="49.94022" lon="2.21002">
        <ele>30</ele>
        <time>2022-03-02T14:26:11Z</time>
      </trkpt>
      <trkpt lat="49.94023" lon="2.21002">
        <ele>30.1</ele>
        <time>2022-03-02T14:26:12Z</time>
      </trkpt>
      <trkpt lat="49.94025" lon="2.21">
        <ele>30.3</ele>
        <time>2022-03-02T14:26:13Z</time>
      </trkpt>
      <trkpt lat="49.94026" lon="2.20999">
        <ele>30.3</ele>
        <time>2022-03-02T14:26:14Z</time>
      </trkpt>
      <trkpt lat="49.94027" lon="2.20998">
        <ele>30.4</ele>
        <time>2022-03-02T14:26:15Z</time>
      </trkpt>
      <trkpt lat="49.94028" lon="2.20997">
        <ele>30.5</ele>
        <time>2022-03-02T14:26:16Z</time>
      </trkpt>
      <trkpt lat="49.94029" lon="2.20996">
        <ele>30.6</ele>
        <time>2022-03-02T14:26:17Z</time>
      </trkpt>
      <trkpt lat="49.9403" lon="2.20994">
        <ele>30.7</ele>
        <time>2022-03-02T14:26:19Z</time>
      </trkpt>
      <trkpt lat="49.94032" lon="2.20993">
        <ele>30.8</ele>
        <time>2022-03-02T14:26:20Z</time>
      </trkpt>
      <trkpt lat="49.94032" lon="2.20992">
        <ele>30.8</ele>
        <time>2022-03-02T14:26:21Z</time>
      </trkpt>
      <trkpt lat="49.94033" lon="2.20991">
        <ele>30.8</ele>
        <time>2022-03-02T14:26:22Z</time>
      </trkpt>
      <trkpt lat="49.94034" lon="2.2099">
        <ele>30.8</ele>
        <time>2022-03-02T14:26:24Z</time>
      </trkpt>
      <trkpt lat="49.94035" lon="2.20989">
        <ele>30.9</ele>
        <time>2022-03-02T14:26:25Z</time>
      </trkpt>
      <trkpt lat="49.94036" lon="2.20988">
        <ele>30.9</ele>
        <time>2022-03-02T14:26:27Z</time>
      </trkpt>
      <trkpt lat="49.94037" lon="2.20987">
        <ele>30.9</ele>
        <time>2022-03-02T14:26:28Z</time>
      </trkpt>
      <trkpt lat="49.94037" lon="2.20986">
        <ele>30.9</ele>
        <time>2022-03-02T14:26:29Z</time>
      </trkpt>
      <trkpt lat="49.94036" lon="2.20985">
        <ele>30.9</ele>
        <time>2022-03-02T14:26:30Z</time>
      </trkpt>
      <trkpt lat="49.94036" lon="2.20984">
        <ele>30.9</ele>
        <time>2022-03-02T14:26:31Z</time>
      </trkpt>
      <trkpt lat="49.94036" lon="2.20982">
        <ele>30.9</ele>
        <time>2022-03-02T14:26:33Z</time>
      </trkpt>
      <trkpt lat="49.94035" lon="2.20981">
        <ele>30.9</ele>
        <time>2022-03-02T14:26:34Z</time>
      </trkpt>
      <trkpt lat="49.94035" lon="2.20979">
        <ele>30.9</ele>
        <time>2022-03-02T14:26:35Z</time>
      </trkpt>
      <trkpt lat="49.94035" lon="2.20977">
        <ele>30.9</ele>
        <time>2022-03-02T14:26:36Z</time>
      </trkpt>
      <trkpt lat="49.94034" lon="2.20974">
        <ele>30.8</ele>
        <time>2022-03-02T14:26:37Z</time>
      </trkpt>
      <trkpt lat="49.94034" lon="2.20972">
        <ele>30.8</ele>
        <time>2022-03-02T14:26:39Z</time>
      </trkpt>
      <trkpt lat="49.94033" lon="2.2097">
        <ele>30.8</ele>
        <time>2022-03-02T14:26:40Z</time>
      </trkpt>
      <trkpt lat="49.94032" lon="2.20969">
        <ele>30.8</ele>
        <time>2022-03-02T14:26:41Z</time>
      </trkpt>
      <trkpt lat="49.94032" lon="2.20968">
        <ele>30.8</ele>
        <time>2022-03-02T14:26:42Z</time>
      </trkpt>
      <trkpt lat="49.94031" lon="2.20968">
        <ele>30.8</ele>
        <time>2022-03-02T14:26:43Z</time>
      </trkpt>
      <trkpt lat="49.94031" lon="2.20968">
        <ele>30.8</ele>
        <time>2022-03-02T14:26:44Z</time>
      </trkpt>
      <trkpt lat="49.94031" lon="2.20969">
        <ele>30.8</ele>
        <time>2022-03-02T14:26:45Z</time>
      </trkpt>
      <trkpt lat="49.94031" lon="2.2097">
        <ele>30.8</ele>
        <time>2022-03-02T14:26:46Z</time>
      </trkpt>
      <trkpt lat="49.9403" lon="2.20972">
        <ele>30.8</ele>
        <time>2022-03-02T14:26:47Z</time>
      </trkpt>
      <trkpt lat="49.9403" lon="2.20977">
        <ele>30.8</ele>
        <time>2022-03-02T14:26:49Z</time>
      </trkpt>
      <trkpt lat="49.94031" lon="2.20979">
        <ele>30.7</ele>
        <time>2022-03-02T14:26:50Z</time>
      </trkpt>
      <trkpt lat="49.94031" lon="2.20983">
        <ele>30.7</ele>
        <time>2022-03-02T14:26:51Z</time>
      </trkpt>
      <trkpt lat="49.94032" lon="2.20984">
        <ele>30.7</ele>
        <time>2022-03-02T14:26:52Z</time>
      </trkpt>
      <trkpt lat="49.94033" lon="2.20989">
        <ele>30.7</ele>
        <time>2022-03-02T14:26:53Z</time>
      </trkpt>
      <trkpt lat="49.94033" lon="2.2099">
        <ele>30.7</ele>
        <time>2022-03-02T14:26:54Z</time>
      </trkpt>
      <trkpt lat="49.94033" lon="2.20993">
        <ele>30.7</ele>
        <time>2022-03-02T14:26:55Z</time>
      </trkpt>
      <trkpt lat="49.94033" lon="2.20996">
        <ele>30.7</ele>
        <time>2022-03-02T14:26:57Z</time>
      </trkpt>
      <trkpt lat="49.94033" lon="2.20999">
        <ele>30.6</ele>
        <time>2022-03-02T14:26:58Z</time>
      </trkpt>
      <trkpt lat="49.94033" lon="2.21001">
        <ele>30.8</ele>
        <time>2022-03-02T14:26:59Z</time>
      </trkpt>
      <trkpt lat="49.94035" lon="2.21005">
        <ele>31</ele>
        <time>2022-03-02T14:27:00Z</time>
      </trkpt>
      <trkpt lat="49.94035" lon="2.21007">
        <ele>31.1</ele>
        <time>2022-03-02T14:27:01Z</time>
      </trkpt>
      <trkpt lat="49.94035" lon="2.21009">
        <ele>31.2</ele>
        <time>2022-03-02T14:27:02Z</time>
      </trkpt>
      <trkpt lat="49.94035" lon="2.21011">
        <ele>31.3</ele>
        <time>2022-03-02T14:27:04Z</time>
      </trkpt>
      <trkpt lat="49.94035" lon="2.21014">
        <ele>31.4</ele>
        <time>2022-03-02T14:27:05Z</time>
      </trkpt>
      <trkpt lat="49.94036" lon="2.21016">
        <ele>31.5</ele>
        <time>2022-03-02T14:27:06Z</time>
      </trkpt>
      <trkpt lat="49.94037" lon="2.21019">
        <ele>31.7</ele>
        <time>2022-03-02T14:27:07Z</time>
      </trkpt>
      <trkpt lat="49.94037" lon="2.21021">
        <ele>31.8</ele>
        <time>2022-03-02T14:27:08Z</time>
      </trkpt>
      <trkpt lat="49.94038" lon="2.21023">
        <ele>31.9</ele>
        <time>2022-03-02T14:27:09Z</time>
      </trkpt>
      <trkpt lat="49.94038" lon="2.21025">
        <ele>32</ele>
        <time>2022-03-02T14:27:11Z</time>
      </trkpt>
      <trkpt lat="49.9404" lon="2.21025">
        <ele>32.1</ele>
        <time>2022-03-02T14:27:12Z</time>
      </trkpt>
      <trkpt lat="49.9404" lon="2.21026">
        <ele>32.2</ele>
        <time>2022-03-02T14:27:13Z</time>
      </trkpt>
      <trkpt lat="49.94041" lon="2.21027">
        <ele>32.3</ele>
        <time>2022-03-02T14:27:14Z</time>
      </trkpt>
      <trkpt lat="49.94042" lon="2.21029">
        <ele>32.4</ele>
        <time>2022-03-02T14:27:15Z</time>
      </trkpt>
      <trkpt lat="49.94043" lon="2.21031">
        <ele>32.5</ele>
        <time>2022-03-02T14:27:16Z</time>
      </trkpt>
      <trkpt lat="49.94044" lon="2.21032">
        <ele>32.6</ele>
        <time>2022-03-02T14:27:18Z</time>
      </trkpt>
      <trkpt lat="49.94044" lon="2.21033">
        <ele>32.7</ele>
        <time>2022-03-02T14:27:19Z</time>
      </trkpt>
      <trkpt lat="49.94045" lon="2.21035">
        <ele>32.8</ele>
        <time>2022-03-02T14:27:20Z</time>
      </trkpt>
      <trkpt lat="49.94046" lon="2.21037">
        <ele>32.9</ele>
        <time>2022-03-02T14:27:21Z</time>
      </trkpt>
      <trkpt lat="49.94046" lon="2.21039">
        <ele>33.1</ele>
        <time>2022-03-02T14:27:22Z</time>
      </trkpt>
      <trkpt lat="49.94047" lon="2.21042">
        <ele>33.2</ele>
        <time>2022-03-02T14:27:24Z</time>
      </trkpt>
      <trkpt lat="49.94048" lon="2.21044">
        <ele>33.4</ele>
        <time>2022-03-02T14:27:25Z</time>
      </trkpt>
      <trkpt lat="49.94048" lon="2.21046">
        <ele>33.5</ele>
        <time>2022-03-02T14:27:26Z</time>
      </trkpt>
      <trkpt lat="49.94049" lon="2.21048">
        <ele>33.7</ele>
        <time>2022-03-02T14:27:28Z</time>
      </trkpt>
      <trkpt lat="49.94049" lon="2.21051">
        <ele>33.8</ele>
        <time>2022-03-02T14:27:29Z</time>
      </trkpt>
      <trkpt lat="49.9405" lon="2.21051">
        <ele>33.9</ele>
        <time>2022-03-02T14:27:30Z</time>
      </trkpt>
      <trkpt lat="49.94051" lon="2.21053">
        <ele>34</ele>
        <time>2022-03-02T14:27:31Z</time>
      </trkpt>
      <trkpt lat="49.94051" lon="2.21054">
        <ele>34.1</ele>
        <time>2022-03-02T14:27:32Z</time>
      </trkpt>
      <trkpt lat="49.94053" lon="2.21056">
        <ele>34.3</ele>
        <time>2022-03-02T14:27:33Z</time>
      </trkpt>
      <trkpt lat="49.94054" lon="2.21057">
        <ele>34.5</ele>
        <time>2022-03-02T14:27:35Z</time>
      </trkpt>
      <trkpt lat="49.94055" lon="2.21057">
        <ele>34.5</ele>
        <time>2022-03-02T14:27:36Z</time>
      </trkpt>
      <trkpt lat="49.94057" lon="2.21058">
        <ele>34.5</ele>
        <time>2022-03-02T14:27:38Z</time>
      </trkpt>
      <trkpt lat="49.94058" lon="2.21058">
        <ele>34.5</ele>
        <time>2022-03-02T14:27:39Z</time>
      </trkpt>
      <trkpt lat="49.94058" lon="2.21058">
        <ele>34.5</ele>
        <time>2022-03-02T14:27:40Z</time>
      </trkpt>
      <trkpt lat="49.94059" lon="2.21057">
        <ele>34.6</ele>
        <time>2022-03-02T14:27:41Z</time>
      </trkpt>
      <trkpt lat="49.94059" lon="2.21057">
        <ele>34.6</ele>
        <time>2022-03-02T14:27:42Z</time>
      </trkpt>
      <trkpt lat="49.94059" lon="2.21057">
        <ele>34.6</ele>
        <time>2022-03-02T14:27:43Z</time>
      </trkpt>
      <trkpt lat="49.94059" lon="2.21057">
        <ele>34.6</ele>
        <time>2022-03-02T14:27:44Z</time>
      </trkpt>
      <trkpt lat="49.94059" lon="2.21057">
        <ele>34.6</ele>
        <time>2022-03-02T14:27:45Z</time>
      </trkpt>
      <trkpt lat="49.94059" lon="2.21056">
        <ele>34.6</ele>
        <time>2022-03-02T14:27:46Z</time>
      </trkpt>
      <trkpt lat="49.94059" lon="2.21056">
        <ele>34.6</ele>
        <time>2022-03-02T14:27:47Z</time>
      </trkpt>
      <trkpt lat="49.94059" lon="2.21055">
        <ele>34.6</ele>
        <time>2022-03-02T14:27:48Z</time>
      </trkpt>
      <trkpt lat="49.94059" lon="2.21055">
        <ele>34.6</ele>
        <time>2022-03-02T14:27:49Z</time>
      </trkpt>
      <trkpt lat="49.94059" lon="2.21055">
        <ele>34.6</ele>
        <time>2022-03-02T14:27:50Z</time>
      </trkpt>
      <trkpt lat="49.94059" lon="2.21055">
        <ele>34.6</ele>
        <time>2022-03-02T14:27:51Z</time>
      </trkpt>
      <trkpt lat="49.94059" lon="2.21054">
        <ele>34.6</ele>
        <time>2022-03-02T14:27:52Z</time>
      </trkpt>
      <trkpt lat="49.94059" lon="2.21054">
        <ele>34.6</ele>
        <time>2022-03-02T14:27:53Z</time>
      </trkpt>
      <trkpt lat="49.94059" lon="2.21054">
        <ele>34.6</ele>
        <time>2022-03-02T14:27:54Z</time>
      </trkpt>
      <trkpt lat="49.94059" lon="2.21053">
        <ele>34.6</ele>
        <time>2022-03-02T14:27:55Z</time>
      </trkpt>
      <trkpt lat="49.94059" lon="2.21052">
        <ele>34.6</ele>
        <time>2022-03-02T14:27:56Z</time>
      </trkpt>
      <trkpt lat="49.94059" lon="2.21051">
        <ele>34.6</ele>
        <time>2022-03-02T14:27:57Z</time>
      </trkpt>
      <trkpt lat="49.94059" lon="2.2105">
        <ele>34.6</ele>
        <time>2022-03-02T14:27:58Z</time>
      </trkpt>
      <trkpt lat="49.94059" lon="2.21048">
        <ele>34.6</ele>
        <time>2022-03-02T14:28:00Z</time>
      </trkpt>
      <trkpt lat="49.9406" lon="2.21046">
        <ele>34.6</ele>
        <time>2022-03-02T14:28:01Z</time>
      </trkpt>
      <trkpt lat="49.9406" lon="2.21042">
        <ele>34.6</ele>
        <time>2022-03-02T14:28:02Z</time>
      </trkpt>
      <trkpt lat="49.9406" lon="2.2104">
        <ele>34.6</ele>
        <time>2022-03-02T14:28:03Z</time>
      </trkpt>
      <trkpt lat="49.94061" lon="2.21036">
        <ele>34.6</ele>
        <time>2022-03-02T14:28:05Z</time>
      </trkpt>
      <trkpt lat="49.94061" lon="2.21035">
        <ele>34.7</ele>
        <time>2022-03-02T14:28:06Z</time>
      </trkpt>
      <trkpt lat="49.94062" lon="2.21032">
        <ele>34.7</ele>
        <time>2022-03-02T14:28:07Z</time>
      </trkpt>
      <trkpt lat="49.94063" lon="2.21029">
        <ele>34.7</ele>
        <time>2022-03-02T14:28:09Z</time>
      </trkpt>
      <trkpt lat="49.94063" lon="2.21028">
        <ele>34.7</ele>
        <time>2022-03-02T14:28:10Z</time>
      </trkpt>
      <trkpt lat="49.94064" lon="2.21026">
        <ele>34.7</ele>
        <time>2022-03-02T14:28:11Z</time>
      </trkpt>
      <trkpt lat="49.94065" lon="2.21025">
        <ele>34.7</ele>
        <time>2022-03-02T14:28:12Z</time>
      </trkpt>
      <trkpt lat="49.94066" lon="2.21023">
        <ele>34.7</ele>
        <time>2022-03-02T14:28:13Z</time>
      </trkpt>
      <trkpt lat="49.94066" lon="2.21021">
        <ele>34.7</ele>
        <time>2022-03-02T14:28:15Z</time>
      </trkpt>
      <trkpt lat="49.94068" lon="2.21018">
        <ele>34.7</ele>
        <time>2022-03-02T14:28:16Z</time>
      </trkpt>
      <trkpt lat="49.94068" lon="2.21017">
        <ele>34.7</ele>
        <time>2022-03-02T14:28:17Z</time>
      </trkpt>
      <trkpt lat="49.94068" lon="2.21016">
        <ele>34.7</ele>
        <time>2022-03-02T14:28:18Z</time>
      </trkpt>
      <trkpt lat="49.94069" lon="2.21015">
        <ele>34.7</ele>
        <time>2022-03-02T14:28:19Z</time>
      </trkpt>
      <trkpt lat="49.9407" lon="2.21013">
        <ele>34.7</ele>
        <time>2022-03-02T14:28:20Z</time>
      </trkpt>
      <trkpt lat="49.94071" lon="2.21011">
        <ele>34.8</ele>
        <time>2022-03-02T14:28:22Z</time>
      </trkpt>
      <trkpt lat="49.94072" lon="2.21009">
        <ele>34.8</ele>
        <time>2022-03-02T14:28:23Z</time>
      </trkpt>
      <trkpt lat="49.94072" lon="2.21008">
        <ele>34.8</ele>
        <time>2022-03-02T14:28:24Z</time>
      </trkpt>
      <trkpt lat="49.94073" lon="2.21006">
        <ele>34.8</ele>
        <time>2022-03-02T14:28:25Z</time>
      </trkpt>
      <trkpt lat="49.94074" lon="2.21004">
        <ele>34.8</ele>
        <time>2022-03-02T14:28:26Z</time>
      </trkpt>
      <trkpt lat="49.94074" lon="2.21003">
        <ele>34.8</ele>
        <time>2022-03-02T14:28:27Z</time>
      </trkpt>
      <trkpt lat="49.94075" lon="2.21001">
        <ele>34.8</ele>
        <time>2022-03-02T14:28:28Z</time>
      </trkpt>
      <trkpt lat="49.94076" lon="2.20998">
        <ele>34.8</ele>
        <time>2022-03-02T14:28:30Z</time>
      </trkpt>
      <trkpt lat="49.94076" lon="2.20997">
        <ele>34.9</ele>
        <time>2022-03-02T14:28:31Z</time>
      </trkpt>
      <trkpt lat="49.94077" lon="2.20995">
        <ele>34.9</ele>
        <time>2022-03-02T14:28:32Z</time>
      </trkpt>
      <trkpt lat="49.94078" lon="2.20993">
        <ele>34.9</ele>
        <time>2022-03-02T14:28:33Z</time>
      </trkpt>
      <trkpt lat="49.94078" lon="2.20992">
        <ele>34.9</ele>
        <time>2022-03-02T14:28:34Z</time>
      </trkpt>
      <trkpt lat="49.94079" lon="2.2099">
        <ele>34.9</ele>
        <time>2022-03-02T14:28:35Z</time>
      </trkpt>
      <trkpt lat="49.94079" lon="2.20988">
        <ele>34.9</ele>
        <time>2022-03-02T14:28:37Z</time>
      </trkpt>
      <trkpt lat="49.9408" lon="2.20986">
        <ele>34.9</ele>
        <time>2022-03-02T14:28:38Z</time>
      </trkpt>
      <trkpt lat="49.94081" lon="2.20984">
        <ele>35</ele>
        <time>2022-03-02T14:28:39Z</time>
      </trkpt>
      <trkpt lat="49.94082" lon="2.20983">
        <ele>35</ele>
        <time>2022-03-02T14:28:40Z</time>
      </trkpt>
      <trkpt lat="49.94082" lon="2.20981">
        <ele>35</ele>
        <time>2022-03-02T14:28:41Z</time>
      </trkpt>
      <trkpt lat="49.94082" lon="2.2098">
        <ele>35</ele>
        <time>2022-03-02T14:28:42Z</time>
      </trkpt>
      <trkpt lat="49.94083" lon="2.20979">
        <ele>35</ele>
        <time>2022-03-02T14:28:44Z</time>
      </trkpt>
      <trkpt lat="49.94083" lon="2.20977">
        <ele>35</ele>
        <time>2022-03-02T14:28:45Z</time>
      </trkpt>
      <trkpt lat="49.94084" lon="2.20976">
        <ele>35</ele>
        <time>2022-03-02T14:28:46Z</time>
      </trkpt>
      <trkpt lat="49.94085" lon="2.20973">
        <ele>35.1</ele>
        <time>2022-03-02T14:28:47Z</time>
      </trkpt>
      <trkpt lat="49.94085" lon="2.20971">
        <ele>35.1</ele>
        <time>2022-03-02T14:28:48Z</time>
      </trkpt>
      <trkpt lat="49.94086" lon="2.2097">
        <ele>35.1</ele>
        <time>2022-03-02T14:28:49Z</time>
      </trkpt>
      <trkpt lat="49.94087" lon="2.20969">
        <ele>35.1</ele>
        <time>2022-03-02T14:28:50Z</time>
      </trkpt>
      <trkpt lat="49.94087" lon="2.20967">
        <ele>35.1</ele>
        <time>2022-03-02T14:28:51Z</time>
      </trkpt>
      <trkpt lat="49.94088" lon="2.20966">
        <ele>35.1</ele>
        <time>2022-03-02T14:28:53Z</time>
      </trkpt>
      <trkpt lat="49.94088" lon="2.20965">
        <ele>35.1</ele>
        <time>2022-03-02T14:28:54Z</time>
      </trkpt>
      <trkpt lat="49.94089" lon="2.20963">
        <ele>35.2</ele>
        <time>2022-03-02T14:28:55Z</time>
      </trkpt>
      <trkpt lat="49.9409" lon="2.20961">
        <ele>35.2</ele>
        <time>2022-03-02T14:28:56Z</time>
      </trkpt>
      <trkpt lat="49.94091" lon="2.20959">
        <ele>35.2</ele>
        <time>2022-03-02T14:28:57Z</time>
      </trkpt>
      <trkpt lat="49.94091" lon="2.20958">
        <ele>35.2</ele>
        <time>2022-03-02T14:28:58Z</time>
      </trkpt>
      <trkpt lat="49.94092" lon="2.20957">
        <ele>35.2</ele>
        <time>2022-03-02T14:28:59Z</time>
      </trkpt>
      <trkpt lat="49.94093" lon="2.20954">
        <ele>35.2</ele>
        <time>2022-03-02T14:29:01Z</time>
      </trkpt>
      <trkpt lat="49.94093" lon="2.20952">
        <ele>35.3</ele>
        <time>2022-03-02T14:29:02Z</time>
      </trkpt>
      <trkpt lat="49.94094" lon="2.20951">
        <ele>35.3</ele>
        <time>2022-03-02T14:29:03Z</time>
      </trkpt>
      <trkpt lat="49.94094" lon="2.2095">
        <ele>35.3</ele>
        <time>2022-03-02T14:29:04Z</time>
      </trkpt>
      <trkpt lat="49.94095" lon="2.20948">
        <ele>35.3</ele>
        <time>2022-03-02T14:29:05Z</time>
      </trkpt>
      <trkpt lat="49.94097" lon="2.20946">
        <ele>35.3</ele>
        <time>2022-03-02T14:29:06Z</time>
      </trkpt>
      <trkpt lat="49.94097" lon="2.20945">
        <ele>35.3</ele>
        <time>2022-03-02T14:29:08Z</time>
      </trkpt>
      <trkpt lat="49.94098" lon="2.20944">
        <ele>35.4</ele>
        <time>2022-03-02T14:29:09Z</time>
      </trkpt>
      <trkpt lat="49.94099" lon="2.20941">
        <ele>35.4</ele>
        <time>2022-03-02T14:29:10Z</time>
      </trkpt>
      <trkpt lat="49.94099" lon="2.2094">
        <ele>35.4</ele>
        <time>2022-03-02T14:29:11Z</time>
      </trkpt>
      <trkpt lat="49.941" lon="2.20939">
        <ele>35.4</ele>
        <time>2022-03-02T14:29:12Z</time>
      </trkpt>
      <trkpt lat="49.94101" lon="2.20938">
        <ele>35.4</ele>
        <time>2022-03-02T14:29:13Z</time>
      </trkpt>
      <trkpt lat="49.94101" lon="2.20937">
        <ele>35.5</ele>
        <time>2022-03-02T14:29:14Z</time>
      </trkpt>
      <trkpt lat="49.94102" lon="2.20934">
        <ele>35.5</ele>
        <time>2022-03-02T14:29:16Z</time>
      </trkpt>
      <trkpt lat="49.94103" lon="2.20931">
        <ele>35.6</ele>
        <time>2022-03-02T14:29:17Z</time>
      </trkpt>
      <trkpt lat="49.94104" lon="2.2093">
        <ele>35.6</ele>
        <time>2022-03-02T14:29:19Z</time>
      </trkpt>
      <trkpt lat="49.94104" lon="2.20928">
        <ele>35.6</ele>
        <time>2022-03-02T14:29:20Z</time>
      </trkpt>
      <trkpt lat="49.94105" lon="2.20926">
        <ele>35.6</ele>
        <time>2022-03-02T14:29:21Z</time>
      </trkpt>
      <trkpt lat="49.94105" lon="2.20925">
        <ele>35.6</ele>
        <time>2022-03-02T14:29:22Z</time>
      </trkpt>
      <trkpt lat="49.94106" lon="2.20923">
        <ele>35.7</ele>
        <time>2022-03-02T14:29:23Z</time>
      </trkpt>
      <trkpt lat="49.94106" lon="2.20922">
        <ele>35.7</ele>
        <time>2022-03-02T14:29:24Z</time>
      </trkpt>
      <trkpt lat="49.94107" lon="2.20921">
        <ele>35.7</ele>
        <time>2022-03-02T14:29:25Z</time>
      </trkpt>
      <trkpt lat="49.94107" lon="2.20919">
        <ele>35.7</ele>
        <time>2022-03-02T14:29:26Z</time>
      </trkpt>
      <trkpt lat="49.94108" lon="2.20917">
        <ele>35.8</ele>
        <time>2022-03-02T14:29:27Z</time>
      </trkpt>
      <trkpt lat="49.94108" lon="2.20916">
        <ele>35.8</ele>
        <time>2022-03-02T14:29:29Z</time>
      </trkpt>
      <trkpt lat="49.94109" lon="2.20914">
        <ele>35.8</ele>
        <time>2022-03-02T14:29:30Z</time>
      </trkpt>
      <trkpt lat="49.9411" lon="2.20912">
        <ele>35.8</ele>
        <time>2022-03-02T14:29:31Z</time>
      </trkpt>
      <trkpt lat="49.9411" lon="2.2091">
        <ele>35.9</ele>
        <time>2022-03-02T14:29:32Z</time>
      </trkpt>
      <trkpt lat="49.94111" lon="2.20908">
        <ele>35.9</ele>
        <time>2022-03-02T14:29:33Z</time>
      </trkpt>
      <trkpt lat="49.94112" lon="2.20906">
        <ele>35.9</ele>
        <time>2022-03-02T14:29:35Z</time>
      </trkpt>
      <trkpt lat="49.94114" lon="2.20904">
        <ele>36</ele>
        <time>2022-03-02T14:29:36Z</time>
      </trkpt>
      <trkpt lat="49.94114" lon="2.20902">
        <ele>36.1</ele>
        <time>2022-03-02T14:29:37Z</time>
      </trkpt>
      <trkpt lat="49.94115" lon="2.209">
        <ele>36.1</ele>
        <time>2022-03-02T14:29:39Z</time>
      </trkpt>
      <trkpt lat="49.94116" lon="2.20898">
        <ele>36.2</ele>
        <time>2022-03-02T14:29:40Z</time>
      </trkpt>
      <trkpt lat="49.94117" lon="2.20896">
        <ele>36.2</ele>
        <time>2022-03-02T14:29:41Z</time>
      </trkpt>
      <trkpt lat="49.94118" lon="2.20894">
        <ele>36.3</ele>
        <time>2022-03-02T14:29:42Z</time>
      </trkpt>
      <trkpt lat="49.94119" lon="2.20892">
        <ele>36.3</ele>
        <time>2022-03-02T14:29:43Z</time>
      </trkpt>
      <trkpt lat="49.94119" lon="2.2089">
        <ele>36.4</ele>
        <time>2022-03-02T14:29:44Z</time>
      </trkpt>
      <trkpt lat="49.9412" lon="2.20889">
        <ele>36.4</ele>
        <time>2022-03-02T14:29:45Z</time>
      </trkpt>
      <trkpt lat="49.94121" lon="2.20887">
        <ele>36.4</ele>
        <time>2022-03-02T14:29:46Z</time>
      </trkpt>
      <trkpt lat="49.94121" lon="2.20886">
        <ele>36.5</ele>
        <time>2022-03-02T14:29:47Z</time>
      </trkpt>
      <trkpt lat="49.94122" lon="2.20884">
        <ele>36.5</ele>
        <time>2022-03-02T14:29:49Z</time>
      </trkpt>
      <trkpt lat="49.94122" lon="2.20882">
        <ele>36.6</ele>
        <time>2022-03-02T14:29:50Z</time>
      </trkpt>
      <trkpt lat="49.94123" lon="2.2088">
        <ele>36.6</ele>
        <time>2022-03-02T14:29:51Z</time>
      </trkpt>
      <trkpt lat="49.94124" lon="2.20879">
        <ele>36.7</ele>
        <time>2022-03-02T14:29:52Z</time>
      </trkpt>
      <trkpt lat="49.94125" lon="2.20877">
        <ele>36.7</ele>
        <time>2022-03-02T14:29:53Z</time>
      </trkpt>
      <trkpt lat="49.94126" lon="2.20875">
        <ele>36.8</ele>
        <time>2022-03-02T14:29:54Z</time>
      </trkpt>
      <trkpt lat="49.94127" lon="2.20874">
        <ele>36.8</ele>
        <time>2022-03-02T14:29:55Z</time>
      </trkpt>
      <trkpt lat="49.94127" lon="2.20873">
        <ele>36.8</ele>
        <time>2022-03-02T14:29:56Z</time>
      </trkpt>
      <trkpt lat="49.94127" lon="2.20872">
        <ele>36.9</ele>
        <time>2022-03-02T14:29:57Z</time>
      </trkpt>
      <trkpt lat="49.94128" lon="2.20871">
        <ele>36.9</ele>
        <time>2022-03-02T14:29:58Z</time>
      </trkpt>
      <trkpt lat="49.94128" lon="2.2087">
        <ele>36.9</ele>
        <time>2022-03-02T14:30:00Z</time>
      </trkpt>
      <trkpt lat="49.94129" lon="2.20869">
        <ele>36.9</ele>
        <time>2022-03-02T14:30:01Z</time>
      </trkpt>
      <trkpt lat="49.94129" lon="2.20868">
        <ele>37</ele>
        <time>2022-03-02T14:30:02Z</time>
      </trkpt>
      <trkpt lat="49.9413" lon="2.20867">
        <ele>37</ele>
        <time>2022-03-02T14:30:03Z</time>
      </trkpt>
      <trkpt lat="49.9413" lon="2.20866">
        <ele>37</ele>
        <time>2022-03-02T14:30:04Z</time>
      </trkpt>
      <trkpt lat="49.94131" lon="2.20864">
        <ele>37.1</ele>
        <time>2022-03-02T14:30:05Z</time>
      </trkpt>
      <trkpt lat="49.94131" lon="2.20863">
        <ele>37.1</ele>
        <time>2022-03-02T14:30:06Z</time>
      </trkpt>
      <trkpt lat="49.94132" lon="2.20861">
        <ele>37.1</ele>
        <time>2022-03-02T14:30:07Z</time>
      </trkpt>
      <trkpt lat="49.94132" lon="2.2086">
        <ele>37.2</ele>
        <time>2022-03-02T14:30:08Z</time>
      </trkpt>
      <trkpt lat="49.94133" lon="2.20858">
        <ele>37.2</ele>
        <time>2022-03-02T14:30:10Z</time>
      </trkpt>
      <trkpt lat="49.94133" lon="2.20856">
        <ele>37.3</ele>
        <time>2022-03-02T14:30:11Z</time>
      </trkpt>
      <trkpt lat="49.94134" lon="2.20854">
        <ele>37.3</ele>
        <time>2022-03-02T14:30:12Z</time>
      </trkpt>
      <trkpt lat="49.94134" lon="2.20852">
        <ele>37.4</ele>
        <time>2022-03-02T14:30:13Z</time>
      </trkpt>
      <trkpt lat="49.94135" lon="2.2085">
        <ele>37.4</ele>
        <time>2022-03-02T14:30:14Z</time>
      </trkpt>
      <trkpt lat="49.94135" lon="2.20848">
        <ele>37.4</ele>
        <time>2022-03-02T14:30:15Z</time>
      </trkpt>
      <trkpt lat="49.94136" lon="2.20847">
        <ele>37.5</ele>
        <time>2022-03-02T14:30:16Z</time>
      </trkpt>
      <trkpt lat="49.94137" lon="2.20846">
        <ele>37.5</ele>
        <time>2022-03-02T14:30:17Z</time>
      </trkpt>
      <trkpt lat="49.94137" lon="2.20844">
        <ele>37.6</ele>
        <time>2022-03-02T14:30:18Z</time>
      </trkpt>
      <trkpt lat="49.94137" lon="2.20843">
        <ele>37.6</ele>
        <time>2022-03-02T14:30:19Z</time>
      </trkpt>
      <trkpt lat="49.94138" lon="2.20841">
        <ele>37.6</ele>
        <time>2022-03-02T14:30:20Z</time>
      </trkpt>
      <trkpt lat="49.94139" lon="2.20839">
        <ele>37.7</ele>
        <time>2022-03-02T14:30:22Z</time>
      </trkpt>
      <trkpt lat="49.9414" lon="2.20838">
        <ele>37.7</ele>
        <time>2022-03-02T14:30:23Z</time>
      </trkpt>
      <trkpt lat="49.94141" lon="2.20835">
        <ele>37.8</ele>
        <time>2022-03-02T14:30:24Z</time>
      </trkpt>
      <trkpt lat="49.94142" lon="2.20834">
        <ele>37.9</ele>
        <time>2022-03-02T14:30:25Z</time>
      </trkpt>
      <trkpt lat="49.94142" lon="2.20833">
        <ele>37.9</ele>
        <time>2022-03-02T14:30:26Z</time>
      </trkpt>
      <trkpt lat="49.94143" lon="2.20831">
        <ele>38</ele>
        <time>2022-03-02T14:30:27Z</time>
      </trkpt>
      <trkpt lat="49.94144" lon="2.20829">
        <ele>38</ele>
        <time>2022-03-02T14:30:28Z</time>
      </trkpt>
      <trkpt lat="49.94145" lon="2.20826">
        <ele>38.1</ele>
        <time>2022-03-02T14:30:30Z</time>
      </trkpt>
      <trkpt lat="49.94145" lon="2.20824">
        <ele>38.2</ele>
        <time>2022-03-02T14:30:31Z</time>
      </trkpt>
      <trkpt lat="49.94146" lon="2.20823">
        <ele>38.2</ele>
        <time>2022-03-02T14:30:32Z</time>
      </trkpt>
      <trkpt lat="49.94147" lon="2.20818">
        <ele>38.3</ele>
        <time>2022-03-02T14:30:33Z</time>
      </trkpt>
      <trkpt lat="49.94148" lon="2.20817">
        <ele>38.4</ele>
        <time>2022-03-02T14:30:34Z</time>
      </trkpt>
      <trkpt lat="49.94149" lon="2.20814">
        <ele>38.5</ele>
        <time>2022-03-02T14:30:35Z</time>
      </trkpt>
      <trkpt lat="49.94151" lon="2.20812">
        <ele>38.6</ele>
        <time>2022-03-02T14:30:37Z</time>
      </trkpt>
      <trkpt lat="49.94152" lon="2.2081">
        <ele>38.6</ele>
        <time>2022-03-02T14:30:38Z</time>
      </trkpt>
      <trkpt lat="49.94153" lon="2.20808">
        <ele>38.7</ele>
        <time>2022-03-02T14:30:39Z</time>
      </trkpt>
      <trkpt lat="49.94154" lon="2.20806">
        <ele>38.8</ele>
        <time>2022-03-02T14:30:40Z</time>
      </trkpt>
      <trkpt lat="49.94155" lon="2.20805">
        <ele>38.8</ele>
        <time>2022-03-02T14:30:41Z</time>
      </trkpt>
      <trkpt lat="49.94156" lon="2.20803">
        <ele>38.9</ele>
        <time>2022-03-02T14:30:42Z</time>
      </trkpt>
      <trkpt lat="49.94157" lon="2.20801">
        <ele>38.9</ele>
        <time>2022-03-02T14:30:43Z</time>
      </trkpt>
      <trkpt lat="49.94158" lon="2.20799">
        <ele>39</ele>
        <time>2022-03-02T14:30:44Z</time>
      </trkpt>
      <trkpt lat="49.94159" lon="2.20798">
        <ele>39.1</ele>
        <time>2022-03-02T14:30:46Z</time>
      </trkpt>
      <trkpt lat="49.94159" lon="2.20797">
        <ele>39.1</ele>
        <time>2022-03-02T14:30:47Z</time>
      </trkpt>
      <trkpt lat="49.94161" lon="2.20794">
        <ele>39.2</ele>
        <time>2022-03-02T14:30:48Z</time>
      </trkpt>
      <trkpt lat="49.94162" lon="2.20793">
        <ele>39.2</ele>
        <time>2022-03-02T14:30:49Z</time>
      </trkpt>
      <trkpt lat="49.94162" lon="2.20792">
        <ele>39.3</ele>
        <time>2022-03-02T14:30:50Z</time>
      </trkpt>
      <trkpt lat="49.94163" lon="2.2079">
        <ele>39.4</ele>
        <time>2022-03-02T14:30:51Z</time>
      </trkpt>
      <trkpt lat="49.94164" lon="2.20787">
        <ele>39.4</ele>
        <time>2022-03-02T14:30:52Z</time>
      </trkpt>
      <trkpt lat="49.94165" lon="2.20786">
        <ele>39.5</ele>
        <time>2022-03-02T14:30:54Z</time>
      </trkpt>
      <trkpt lat="49.94166" lon="2.20784">
        <ele>39.6</ele>
        <time>2022-03-02T14:30:55Z</time>
      </trkpt>
      <trkpt lat="49.94166" lon="2.20783">
        <ele>39.6</ele>
        <time>2022-03-02T14:30:56Z</time>
      </trkpt>
      <trkpt lat="49.94166" lon="2.20783">
        <ele>39.6</ele>
        <time>2022-03-02T14:30:57Z</time>
      </trkpt>
      <trkpt lat="49.94167" lon="2.20782">
        <ele>39.6</ele>
        <time>2022-03-02T14:30:58Z</time>
      </trkpt>
      <trkpt lat="49.94167" lon="2.2078">
        <ele>39.7</ele>
        <time>2022-03-02T14:30:59Z</time>
      </trkpt>
      <trkpt lat="49.94168" lon="2.20779">
        <ele>39.7</ele>
        <time>2022-03-02T14:31:00Z</time>
      </trkpt>
      <trkpt lat="49.94169" lon="2.20777">
        <ele>39.8</ele>
        <time>2022-03-02T14:31:01Z</time>
      </trkpt>
      <trkpt lat="49.9417" lon="2.20776">
        <ele>39.9</ele>
        <time>2022-03-02T14:31:03Z</time>
      </trkpt>
      <trkpt lat="49.94171" lon="2.20774">
        <ele>39.9</ele>
        <time>2022-03-02T14:31:04Z</time>
      </trkpt>
      <trkpt lat="49.94171" lon="2.20772">
        <ele>40</ele>
        <time>2022-03-02T14:31:05Z</time>
      </trkpt>
      <trkpt lat="49.94172" lon="2.2077">
        <ele>40</ele>
        <time>2022-03-02T14:31:06Z</time>
      </trkpt>
      <trkpt lat="49.94173" lon="2.20769">
        <ele>40.1</ele>
        <time>2022-03-02T14:31:07Z</time>
      </trkpt>
      <trkpt lat="49.94174" lon="2.20765">
        <ele>40.2</ele>
        <time>2022-03-02T14:31:08Z</time>
      </trkpt>
      <trkpt lat="49.94175" lon="2.20764">
        <ele>40.3</ele>
        <time>2022-03-02T14:31:10Z</time>
      </trkpt>
      <trkpt lat="49.94175" lon="2.20763">
        <ele>40.3</ele>
        <time>2022-03-02T14:31:11Z</time>
      </trkpt>
      <trkpt lat="49.94176" lon="2.20761">
        <ele>40.3</ele>
        <time>2022-03-02T14:31:12Z</time>
      </trkpt>
      <trkpt lat="49.94176" lon="2.2076">
        <ele>40.4</ele>
        <time>2022-03-02T14:31:13Z</time>
      </trkpt>
      <trkpt lat="49.94176" lon="2.20758">
        <ele>40.4</ele>
        <time>2022-03-02T14:31:15Z</time>
      </trkpt>
      <trkpt lat="49.94177" lon="2.20757">
        <ele>40.5</ele>
        <time>2022-03-02T14:31:16Z</time>
      </trkpt>
      <trkpt lat="49.94177" lon="2.20755">
        <ele>40.5</ele>
        <time>2022-03-02T14:31:17Z</time>
      </trkpt>
      <trkpt lat="49.94178" lon="2.20754">
        <ele>40.6</ele>
        <time>2022-03-02T14:31:18Z</time>
      </trkpt>
      <trkpt lat="49.94179" lon="2.20751">
        <ele>40.7</ele>
        <time>2022-03-02T14:31:19Z</time>
      </trkpt>
      <trkpt lat="49.94179" lon="2.2075">
        <ele>40.7</ele>
        <time>2022-03-02T14:31:20Z</time>
      </trkpt>
      <trkpt lat="49.9418" lon="2.20749">
        <ele>40.8</ele>
        <time>2022-03-02T14:31:21Z</time>
      </trkpt>
      <trkpt lat="49.9418" lon="2.20748">
        <ele>40.8</ele>
        <time>2022-03-02T14:31:23Z</time>
      </trkpt>
      <trkpt lat="49.94181" lon="2.20747">
        <ele>40.8</ele>
        <time>2022-03-02T14:31:24Z</time>
      </trkpt>
      <trkpt lat="49.94182" lon="2.20745">
        <ele>40.9</ele>
        <time>2022-03-02T14:31:25Z</time>
      </trkpt>
      <trkpt lat="49.94183" lon="2.20743">
        <ele>41</ele>
        <time>2022-03-02T14:31:26Z</time>
      </trkpt>
      <trkpt lat="49.94183" lon="2.20742">
        <ele>41.1</ele>
        <time>2022-03-02T14:31:27Z</time>
      </trkpt>
      <trkpt lat="49.94184" lon="2.20741">
        <ele>41.1</ele>
        <time>2022-03-02T14:31:28Z</time>
      </trkpt>
      <trkpt lat="49.94185" lon="2.20739">
        <ele>41.2</ele>
        <time>2022-03-02T14:31:29Z</time>
      </trkpt>
      <trkpt lat="49.94185" lon="2.20737">
        <ele>41.3</ele>
        <time>2022-03-02T14:31:31Z</time>
      </trkpt>
      <trkpt lat="49.94186" lon="2.20735">
        <ele>41.3</ele>
        <time>2022-03-02T14:31:32Z</time>
      </trkpt>
      <trkpt lat="49.94186" lon="2.20733">
        <ele>41.4</ele>
        <time>2022-03-02T14:31:33Z</time>
      </trkpt>
      <trkpt lat="49.94187" lon="2.20732">
        <ele>41.4</ele>
        <time>2022-03-02T14:31:34Z</time>
      </trkpt>
      <trkpt lat="49.94187" lon="2.2073">
        <ele>41.5</ele>
        <time>2022-03-02T14:31:35Z</time>
      </trkpt>
      <trkpt lat="49.94188" lon="2.20729">
        <ele>41.5</ele>
        <time>2022-03-02T14:31:36Z</time>
      </trkpt>
      <trkpt lat="49.94188" lon="2.20728">
        <ele>41.6</ele>
        <time>2022-03-02T14:31:37Z</time>
      </trkpt>
      <trkpt lat="49.94189" lon="2.20726">
        <ele>41.7</ele>
        <time>2022-03-02T14:31:39Z</time>
      </trkpt>
      <trkpt lat="49.9419" lon="2.20724">
        <ele>41.8</ele>
        <time>2022-03-02T14:31:40Z</time>
      </trkpt>
      <trkpt lat="49.94191" lon="2.20723">
        <ele>41.8</ele>
        <time>2022-03-02T14:31:41Z</time>
      </trkpt>
      <trkpt lat="49.94191" lon="2.20721">
        <ele>41.9</ele>
        <time>2022-03-02T14:31:42Z</time>
      </trkpt>
      <trkpt lat="49.94192" lon="2.2072">
        <ele>41.9</ele>
        <time>2022-03-02T14:31:43Z</time>
      </trkpt>
      <trkpt lat="49.94193" lon="2.20718">
        <ele>42</ele>
        <time>2022-03-02T14:31:44Z</time>
      </trkpt>
      <trkpt lat="49.94194" lon="2.20717">
        <ele>42.1</ele>
        <time>2022-03-02T14:31:45Z</time>
      </trkpt>
      <trkpt lat="49.94194" lon="2.20715">
        <ele>42.1</ele>
        <time>2022-03-02T14:31:47Z</time>
      </trkpt>
      <trkpt lat="49.94195" lon="2.20714">
        <ele>42.2</ele>
        <time>2022-03-02T14:31:48Z</time>
      </trkpt>
      <trkpt lat="49.94196" lon="2.20713">
        <ele>42.2</ele>
        <time>2022-03-02T14:31:49Z</time>
      </trkpt>
      <trkpt lat="49.94196" lon="2.20712">
        <ele>42.3</ele>
        <time>2022-03-02T14:31:50Z</time>
      </trkpt>
      <trkpt lat="49.94197" lon="2.20709">
        <ele>42.4</ele>
        <time>2022-03-02T14:31:51Z</time>
      </trkpt>
      <trkpt lat="49.94198" lon="2.20708">
        <ele>42.4</ele>
        <time>2022-03-02T14:31:53Z</time>
      </trkpt>
      <trkpt lat="49.94198" lon="2.20706">
        <ele>42.5</ele>
        <time>2022-03-02T14:31:54Z</time>
      </trkpt>
      <trkpt lat="49.94199" lon="2.20703">
        <ele>42.6</ele>
        <time>2022-03-02T14:31:55Z</time>
      </trkpt>
      <trkpt lat="49.94199" lon="2.20702">
        <ele>42.6</ele>
        <time>2022-03-02T14:31:56Z</time>
      </trkpt>
      <trkpt lat="49.94199" lon="2.20701">
        <ele>42.7</ele>
        <time>2022-03-02T14:31:57Z</time>
      </trkpt>
      <trkpt lat="49.94199" lon="2.20698">
        <ele>42.8</ele>
        <time>2022-03-02T14:31:58Z</time>
      </trkpt>
      <trkpt lat="49.94199" lon="2.20696">
        <ele>42.8</ele>
        <time>2022-03-02T14:31:59Z</time>
      </trkpt>
      <trkpt lat="49.942" lon="2.20693">
        <ele>42.9</ele>
        <time>2022-03-02T14:32:01Z</time>
      </trkpt>
      <trkpt lat="49.94201" lon="2.20691">
        <ele>43</ele>
        <time>2022-03-02T14:32:02Z</time>
      </trkpt>
      <trkpt lat="49.94201" lon="2.2069">
        <ele>43</ele>
        <time>2022-03-02T14:32:03Z</time>
      </trkpt>
      <trkpt lat="49.94202" lon="2.20688">
        <ele>43.1</ele>
        <time>2022-03-02T14:32:04Z</time>
      </trkpt>
      <trkpt lat="49.94202" lon="2.20686">
        <ele>43.2</ele>
        <time>2022-03-02T14:32:05Z</time>
      </trkpt>
      <trkpt lat="49.94203" lon="2.20685">
        <ele>43.2</ele>
        <time>2022-03-02T14:32:07Z</time>
      </trkpt>
      <trkpt lat="49.94203" lon="2.20684">
        <ele>43.2</ele>
        <time>2022-03-02T14:32:08Z</time>
      </trkpt>
      <trkpt lat="49.94204" lon="2.20683">
        <ele>43.3</ele>
        <time>2022-03-02T14:32:09Z</time>
      </trkpt>
      <trkpt lat="49.94205" lon="2.20681">
        <ele>43.3</ele>
        <time>2022-03-02T14:32:10Z</time>
      </trkpt>
      <trkpt lat="49.94206" lon="2.20679">
        <ele>43.5</ele>
        <time>2022-03-02T14:32:12Z</time>
      </trkpt>
      <trkpt lat="49.94207" lon="2.20677">
        <ele>43.5</ele>
        <time>2022-03-02T14:32:13Z</time>
      </trkpt>
      <trkpt lat="49.94207" lon="2.20676">
        <ele>43.6</ele>
        <time>2022-03-02T14:32:14Z</time>
      </trkpt>
      <trkpt lat="49.94208" lon="2.20674">
        <ele>43.6</ele>
        <time>2022-03-02T14:32:15Z</time>
      </trkpt>
      <trkpt lat="49.94209" lon="2.20673">
        <ele>43.7</ele>
        <time>2022-03-02T14:32:16Z</time>
      </trkpt>
      <trkpt lat="49.94209" lon="2.20672">
        <ele>43.7</ele>
        <time>2022-03-02T14:32:18Z</time>
      </trkpt>
      <trkpt lat="49.9421" lon="2.20671">
        <ele>43.8</ele>
        <time>2022-03-02T14:32:19Z</time>
      </trkpt>
      <trkpt lat="49.94211" lon="2.2067">
        <ele>43.8</ele>
        <time>2022-03-02T14:32:20Z</time>
      </trkpt>
      <trkpt lat="49.94212" lon="2.20668">
        <ele>43.9</ele>
        <time>2022-03-02T14:32:21Z</time>
      </trkpt>
      <trkpt lat="49.94212" lon="2.20667">
        <ele>44</ele>
        <time>2022-03-02T14:32:22Z</time>
      </trkpt>
      <trkpt lat="49.94213" lon="2.20666">
        <ele>44</ele>
        <time>2022-03-02T14:32:23Z</time>
      </trkpt>
      <trkpt lat="49.94214" lon="2.20665">
        <ele>44.1</ele>
        <time>2022-03-02T14:32:24Z</time>
      </trkpt>
      <trkpt lat="49.94215" lon="2.20663">
        <ele>44.1</ele>
        <time>2022-03-02T14:32:26Z</time>
      </trkpt>
      <trkpt lat="49.94216" lon="2.20662">
        <ele>44.2</ele>
        <time>2022-03-02T14:32:27Z</time>
      </trkpt>
      <trkpt lat="49.94217" lon="2.2066">
        <ele>44.3</ele>
        <time>2022-03-02T14:32:28Z</time>
      </trkpt>
      <trkpt lat="49.94218" lon="2.20657">
        <ele>44.4</ele>
        <time>2022-03-02T14:32:29Z</time>
      </trkpt>
      <trkpt lat="49.94219" lon="2.20656">
        <ele>44.4</ele>
        <time>2022-03-02T14:32:30Z</time>
      </trkpt>
      <trkpt lat="49.9422" lon="2.20655">
        <ele>44.5</ele>
        <time>2022-03-02T14:32:31Z</time>
      </trkpt>
      <trkpt lat="49.94221" lon="2.20653">
        <ele>44.5</ele>
        <time>2022-03-02T14:32:32Z</time>
      </trkpt>
      <trkpt lat="49.94222" lon="2.20651">
        <ele>44.6</ele>
        <time>2022-03-02T14:32:33Z</time>
      </trkpt>
      <trkpt lat="49.94223" lon="2.20649">
        <ele>44.7</ele>
        <time>2022-03-02T14:32:35Z</time>
      </trkpt>
      <trkpt lat="49.94224" lon="2.20647">
        <ele>44.8</ele>
        <time>2022-03-02T14:32:36Z</time>
      </trkpt>
      <trkpt lat="49.94225" lon="2.20646">
        <ele>44.8</ele>
        <time>2022-03-02T14:32:37Z</time>
      </trkpt>
      <trkpt lat="49.94225" lon="2.20645">
        <ele>44.9</ele>
        <time>2022-03-02T14:32:38Z</time>
      </trkpt>
      <trkpt lat="49.94227" lon="2.20642">
        <ele>45</ele>
        <time>2022-03-02T14:32:40Z</time>
      </trkpt>
      <trkpt lat="49.94228" lon="2.2064">
        <ele>45</ele>
        <time>2022-03-02T14:32:41Z</time>
      </trkpt>
      <trkpt lat="49.94229" lon="2.20639">
        <ele>45.1</ele>
        <time>2022-03-02T14:32:42Z</time>
      </trkpt>
      <trkpt lat="49.9423" lon="2.20638">
        <ele>45.1</ele>
        <time>2022-03-02T14:32:43Z</time>
      </trkpt>
      <trkpt lat="49.94231" lon="2.20637">
        <ele>45.2</ele>
        <time>2022-03-02T14:32:44Z</time>
      </trkpt>
      <trkpt lat="49.94231" lon="2.20636">
        <ele>45.2</ele>
        <time>2022-03-02T14:32:45Z</time>
      </trkpt>
      <trkpt lat="49.94232" lon="2.20634">
        <ele>45.3</ele>
        <time>2022-03-02T14:32:47Z</time>
      </trkpt>
      <trkpt lat="49.94233" lon="2.20633">
        <ele>45.3</ele>
        <time>2022-03-02T14:32:48Z</time>
      </trkpt>
      <trkpt lat="49.94234" lon="2.20631">
        <ele>45.4</ele>
        <time>2022-03-02T14:32:49Z</time>
      </trkpt>
      <trkpt lat="49.94235" lon="2.2063">
        <ele>45.4</ele>
        <time>2022-03-02T14:32:50Z</time>
      </trkpt>
      <trkpt lat="49.94235" lon="2.20629">
        <ele>45.5</ele>
        <time>2022-03-02T14:32:51Z</time>
      </trkpt>
      <trkpt lat="49.94236" lon="2.20628">
        <ele>45.5</ele>
        <time>2022-03-02T14:32:52Z</time>
      </trkpt>
      <trkpt lat="49.94237" lon="2.20627">
        <ele>45.6</ele>
        <time>2022-03-02T14:32:53Z</time>
      </trkpt>
      <trkpt lat="49.94238" lon="2.20625">
        <ele>45.7</ele>
        <time>2022-03-02T14:32:55Z</time>
      </trkpt>
      <trkpt lat="49.94239" lon="2.20624">
        <ele>45.7</ele>
        <time>2022-03-02T14:32:56Z</time>
      </trkpt>
      <trkpt lat="49.9424" lon="2.20621">
        <ele>45.8</ele>
        <time>2022-03-02T14:32:57Z</time>
      </trkpt>
      <trkpt lat="49.94241" lon="2.2062">
        <ele>45.9</ele>
        <time>2022-03-02T14:32:58Z</time>
      </trkpt>
      <trkpt lat="49.94242" lon="2.20619">
        <ele>45.9</ele>
        <time>2022-03-02T14:32:59Z</time>
      </trkpt>
      <trkpt lat="49.94242" lon="2.20618">
        <ele>46</ele>
        <time>2022-03-02T14:33:00Z</time>
      </trkpt>
      <trkpt lat="49.94243" lon="2.20617">
        <ele>46</ele>
        <time>2022-03-02T14:33:01Z</time>
      </trkpt>
      <trkpt lat="49.94244" lon="2.20616">
        <ele>46.1</ele>
        <time>2022-03-02T14:33:02Z</time>
      </trkpt>
      <trkpt lat="49.94245" lon="2.20613">
        <ele>46.2</ele>
        <time>2022-03-02T14:33:04Z</time>
      </trkpt>
      <trkpt lat="49.94246" lon="2.20612">
        <ele>46.2</ele>
        <time>2022-03-02T14:33:05Z</time>
      </trkpt>
      <trkpt lat="49.94246" lon="2.20611">
        <ele>46.3</ele>
        <time>2022-03-02T14:33:06Z</time>
      </trkpt>
      <trkpt lat="49.94248" lon="2.20609">
        <ele>46.4</ele>
        <time>2022-03-02T14:33:07Z</time>
      </trkpt>
      <trkpt lat="49.94249" lon="2.20608">
        <ele>46.4</ele>
        <time>2022-03-02T14:33:08Z</time>
      </trkpt>
      <trkpt lat="49.94249" lon="2.20607">
        <ele>46.5</ele>
        <time>2022-03-02T14:33:09Z</time>
      </trkpt>
      <trkpt lat="49.94251" lon="2.20605">
        <ele>46.6</ele>
        <time>2022-03-02T14:33:10Z</time>
      </trkpt>
      <trkpt lat="49.94252" lon="2.20604">
        <ele>46.6</ele>
        <time>2022-03-02T14:33:11Z</time>
      </trkpt>
      <trkpt lat="49.94252" lon="2.20603">
        <ele>46.6</ele>
        <time>2022-03-02T14:33:12Z</time>
      </trkpt>
      <trkpt lat="49.94254" lon="2.20601">
        <ele>46.7</ele>
        <time>2022-03-02T14:33:14Z</time>
      </trkpt>
      <trkpt lat="49.94254" lon="2.206">
        <ele>46.8</ele>
        <time>2022-03-02T14:33:15Z</time>
      </trkpt>
      <trkpt lat="49.94255" lon="2.20599">
        <ele>46.8</ele>
        <time>2022-03-02T14:33:16Z</time>
      </trkpt>
      <trkpt lat="49.94255" lon="2.20598">
        <ele>46.8</ele>
        <time>2022-03-02T14:33:17Z</time>
      </trkpt>
      <trkpt lat="49.94256" lon="2.20597">
        <ele>46.9</ele>
        <time>2022-03-02T14:33:18Z</time>
      </trkpt>
      <trkpt lat="49.94257" lon="2.20595">
        <ele>46.9</ele>
        <time>2022-03-02T14:33:19Z</time>
      </trkpt>
      <trkpt lat="49.94257" lon="2.20594">
        <ele>47</ele>
        <time>2022-03-02T14:33:20Z</time>
      </trkpt>
      <trkpt lat="49.94258" lon="2.20593">
        <ele>47</ele>
        <time>2022-03-02T14:33:21Z</time>
      </trkpt>
      <trkpt lat="49.94258" lon="2.20591">
        <ele>47.1</ele>
        <time>2022-03-02T14:33:22Z</time>
      </trkpt>
      <trkpt lat="49.94259" lon="2.2059">
        <ele>47.1</ele>
        <time>2022-03-02T14:33:24Z</time>
      </trkpt>
      <trkpt lat="49.9426" lon="2.20588">
        <ele>47.2</ele>
        <time>2022-03-02T14:33:25Z</time>
      </trkpt>
      <trkpt lat="49.94261" lon="2.20587">
        <ele>47.2</ele>
        <time>2022-03-02T14:33:26Z</time>
      </trkpt>
      <trkpt lat="49.94261" lon="2.20585">
        <ele>47.3</ele>
        <time>2022-03-02T14:33:27Z</time>
      </trkpt>
      <trkpt lat="49.94262" lon="2.20584">
        <ele>47.3</ele>
        <time>2022-03-02T14:33:28Z</time>
      </trkpt>
      <trkpt lat="49.94263" lon="2.20583">
        <ele>47.4</ele>
        <time>2022-03-02T14:33:29Z</time>
      </trkpt>
      <trkpt lat="49.94264" lon="2.20581">
        <ele>47.5</ele>
        <time>2022-03-02T14:33:31Z</time>
      </trkpt>
      <trkpt lat="49.94265" lon="2.2058">
        <ele>47.5</ele>
        <time>2022-03-02T14:33:32Z</time>
      </trkpt>
      <trkpt lat="49.94266" lon="2.2058">
        <ele>47.5</ele>
        <time>2022-03-02T14:33:33Z</time>
      </trkpt>
      <trkpt lat="49.94266" lon="2.2058">
        <ele>47.5</ele>
        <time>2022-03-02T14:33:34Z</time>
      </trkpt>
      <trkpt lat="49.94267" lon="2.2058">
        <ele>47.6</ele>
        <time>2022-03-02T14:33:35Z</time>
      </trkpt>
      <trkpt lat="49.94267" lon="2.20581">
        <ele>47.6</ele>
        <time>2022-03-02T14:33:36Z</time>
      </trkpt>
      <trkpt lat="49.94267" lon="2.20581">
        <ele>47.6</ele>
        <time>2022-03-02T14:33:37Z</time>
      </trkpt>
      <trkpt lat="49.94268" lon="2.20581">
        <ele>47.6</ele>
        <time>2022-03-02T14:33:38Z</time>
      </trkpt>
      <trkpt lat="49.94268" lon="2.20581">
        <ele>47.6</ele>
        <time>2022-03-02T14:33:39Z</time>
      </trkpt>
      <trkpt lat="49.94268" lon="2.2058">
        <ele>47.7</ele>
        <time>2022-03-02T14:33:41Z</time>
      </trkpt>
      <trkpt lat="49.94269" lon="2.20579">
        <ele>47.7</ele>
        <time>2022-03-02T14:33:42Z</time>
      </trkpt>
      <trkpt lat="49.94269" lon="2.20577">
        <ele>47.7</ele>
        <time>2022-03-02T14:33:43Z</time>
      </trkpt>
      <trkpt lat="49.9427" lon="2.20575">
        <ele>47.8</ele>
        <time>2022-03-02T14:33:44Z</time>
      </trkpt>
      <trkpt lat="49.94271" lon="2.20574">
        <ele>47.8</ele>
        <time>2022-03-02T14:33:45Z</time>
      </trkpt>
      <trkpt lat="49.94272" lon="2.2057">
        <ele>47.9</ele>
        <time>2022-03-02T14:33:47Z</time>
      </trkpt>
      <trkpt lat="49.94273" lon="2.20569">
        <ele>48</ele>
        <time>2022-03-02T14:33:48Z</time>
      </trkpt>
      <trkpt lat="49.94274" lon="2.20567">
        <ele>48</ele>
        <time>2022-03-02T14:33:49Z</time>
      </trkpt>
      <trkpt lat="49.94275" lon="2.20565">
        <ele>48.1</ele>
        <time>2022-03-02T14:33:50Z</time>
      </trkpt>
      <trkpt lat="49.94276" lon="2.20564">
        <ele>48.1</ele>
        <time>2022-03-02T14:33:51Z</time>
      </trkpt>
      <trkpt lat="49.94277" lon="2.20563">
        <ele>48.1</ele>
        <time>2022-03-02T14:33:52Z</time>
      </trkpt>
      <trkpt lat="49.94277" lon="2.20562">
        <ele>48.1</ele>
        <time>2022-03-02T14:33:53Z</time>
      </trkpt>
      <trkpt lat="49.94278" lon="2.20562">
        <ele>48.2</ele>
        <time>2022-03-02T14:33:54Z</time>
      </trkpt>
      <trkpt lat="49.94279" lon="2.20563">
        <ele>48.2</ele>
        <time>2022-03-02T14:33:55Z</time>
      </trkpt>
      <trkpt lat="49.9428" lon="2.20564">
        <ele>48.2</ele>
        <time>2022-03-02T14:33:56Z</time>
      </trkpt>
      <trkpt lat="49.9428" lon="2.20564">
        <ele>48.2</ele>
        <time>2022-03-02T14:33:57Z</time>
      </trkpt>
      <trkpt lat="49.94281" lon="2.20565">
        <ele>48.3</ele>
        <time>2022-03-02T14:33:58Z</time>
      </trkpt>
      <trkpt lat="49.94281" lon="2.20564">
        <ele>48.3</ele>
        <time>2022-03-02T14:33:59Z</time>
      </trkpt>
      <trkpt lat="49.94281" lon="2.20564">
        <ele>48.3</ele>
        <time>2022-03-02T14:34:00Z</time>
      </trkpt>
      <trkpt lat="49.94281" lon="2.20563">
        <ele>48.3</ele>
        <time>2022-03-02T14:34:01Z</time>
      </trkpt>
      <trkpt lat="49.94281" lon="2.20562">
        <ele>48.3</ele>
        <time>2022-03-02T14:34:03Z</time>
      </trkpt>
      <trkpt lat="49.94281" lon="2.20562">
        <ele>48.3</ele>
        <time>2022-03-02T14:34:04Z</time>
      </trkpt>
      <trkpt lat="49.94281" lon="2.20561">
        <ele>48.3</ele>
        <time>2022-03-02T14:34:05Z</time>
      </trkpt>
      <trkpt lat="49.94281" lon="2.2056">
        <ele>48.3</ele>
        <time>2022-03-02T14:34:06Z</time>
      </trkpt>
      <trkpt lat="49.94281" lon="2.20558">
        <ele>48.4</ele>
        <time>2022-03-02T14:34:07Z</time>
      </trkpt>
      <trkpt lat="49.94281" lon="2.20556">
        <ele>48.4</ele>
        <time>2022-03-02T14:34:08Z</time>
      </trkpt>
      <trkpt lat="49.94281" lon="2.20555">
        <ele>48.4</ele>
        <time>2022-03-02T14:34:09Z</time>
      </trkpt>
      <trkpt lat="49.94282" lon="2.20554">
        <ele>48.5</ele>
        <time>2022-03-02T14:34:10Z</time>
      </trkpt>
      <trkpt lat="49.94282" lon="2.20551">
        <ele>48.5</ele>
        <time>2022-03-02T14:34:12Z</time>
      </trkpt>
      <trkpt lat="49.94283" lon="2.20549">
        <ele>48.5</ele>
        <time>2022-03-02T14:34:13Z</time>
      </trkpt>
      <trkpt lat="49.94283" lon="2.20547">
        <ele>48.6</ele>
        <time>2022-03-02T14:34:14Z</time>
      </trkpt>
      <trkpt lat="49.94284" lon="2.20546">
        <ele>48.6</ele>
        <time>2022-03-02T14:34:15Z</time>
      </trkpt>
      <trkpt lat="49.94285" lon="2.20544">
        <ele>48.6</ele>
        <time>2022-03-02T14:34:16Z</time>
      </trkpt>
      <trkpt lat="49.94285" lon="2.20542">
        <ele>48.7</ele>
        <time>2022-03-02T14:34:17Z</time>
      </trkpt>
      <trkpt lat="49.94286" lon="2.2054">
        <ele>48.7</ele>
        <time>2022-03-02T14:34:18Z</time>
      </trkpt>
      <trkpt lat="49.94287" lon="2.20539">
        <ele>48.7</ele>
        <time>2022-03-02T14:34:20Z</time>
      </trkpt>
      <trkpt lat="49.94288" lon="2.20537">
        <ele>48.7</ele>
        <time>2022-03-02T14:34:21Z</time>
      </trkpt>
      <trkpt lat="49.94288" lon="2.20536">
        <ele>48.8</ele>
        <time>2022-03-02T14:34:22Z</time>
      </trkpt>
      <trkpt lat="49.94289" lon="2.20535">
        <ele>48.8</ele>
        <time>2022-03-02T14:34:23Z</time>
      </trkpt>
      <trkpt lat="49.9429" lon="2.20534">
        <ele>48.8</ele>
        <time>2022-03-02T14:34:24Z</time>
      </trkpt>
      <trkpt lat="49.94291" lon="2.20532">
        <ele>48.9</ele>
        <time>2022-03-02T14:34:25Z</time>
      </trkpt>
      <trkpt lat="49.94292" lon="2.20532">
        <ele>48.9</ele>
        <time>2022-03-02T14:34:26Z</time>
      </trkpt>
      <trkpt lat="49.94293" lon="2.20531">
        <ele>48.9</ele>
        <time>2022-03-02T14:34:27Z</time>
      </trkpt>
      <trkpt lat="49.94294" lon="2.20528">
        <ele>48.9</ele>
        <time>2022-03-02T14:34:29Z</time>
      </trkpt>
      <trkpt lat="49.94295" lon="2.20527">
        <ele>48.9</ele>
        <time>2022-03-02T14:34:30Z</time>
      </trkpt>
      <trkpt lat="49.94295" lon="2.20527">
        <ele>49</ele>
        <time>2022-03-02T14:34:31Z</time>
      </trkpt>
      <trkpt lat="49.94296" lon="2.20525">
        <ele>49</ele>
        <time>2022-03-02T14:34:32Z</time>
      </trkpt>
      <trkpt lat="49.94297" lon="2.20523">
        <ele>49</ele>
        <time>2022-03-02T14:34:33Z</time>
      </trkpt>
      <trkpt lat="49.94298" lon="2.20522">
        <ele>49</ele>
        <time>2022-03-02T14:34:34Z</time>
      </trkpt>
      <trkpt lat="49.943" lon="2.20521">
        <ele>49</ele>
        <time>2022-03-02T14:34:35Z</time>
      </trkpt>
      <trkpt lat="49.94301" lon="2.20518">
        <ele>49.1</ele>
        <time>2022-03-02T14:34:36Z</time>
      </trkpt>
      <trkpt lat="49.94302" lon="2.20517">
        <ele>49.1</ele>
        <time>2022-03-02T14:34:38Z</time>
      </trkpt>
      <trkpt lat="49.94303" lon="2.20516">
        <ele>49.1</ele>
        <time>2022-03-02T14:34:39Z</time>
      </trkpt>
      <trkpt lat="49.94304" lon="2.20515">
        <ele>49.1</ele>
        <time>2022-03-02T14:34:40Z</time>
      </trkpt>
      <trkpt lat="49.94305" lon="2.20514">
        <ele>49.2</ele>
        <time>2022-03-02T14:34:41Z</time>
      </trkpt>
      <trkpt lat="49.94306" lon="2.20513">
        <ele>49.2</ele>
        <time>2022-03-02T14:34:42Z</time>
      </trkpt>
      <trkpt lat="49.94306" lon="2.20512">
        <ele>49.2</ele>
        <time>2022-03-02T14:34:43Z</time>
      </trkpt>
      <trkpt lat="49.94306" lon="2.20512">
        <ele>49.2</ele>
        <time>2022-03-02T14:34:44Z</time>
      </trkpt>
      <trkpt lat="49.94307" lon="2.20511">
        <ele>49.2</ele>
        <time>2022-03-02T14:34:45Z</time>
      </trkpt>
      <trkpt lat="49.94308" lon="2.20509">
        <ele>49.2</ele>
        <time>2022-03-02T14:34:46Z</time>
      </trkpt>
      <trkpt lat="49.94309" lon="2.20508">
        <ele>49.2</ele>
        <time>2022-03-02T14:34:47Z</time>
      </trkpt>
      <trkpt lat="49.9431" lon="2.20507">
        <ele>49.2</ele>
        <time>2022-03-02T14:34:49Z</time>
      </trkpt>
      <trkpt lat="49.94311" lon="2.20505">
        <ele>49.3</ele>
        <time>2022-03-02T14:34:50Z</time>
      </trkpt>
      <trkpt lat="49.94313" lon="2.20504">
        <ele>49.3</ele>
        <time>2022-03-02T14:34:51Z</time>
      </trkpt>
      <trkpt lat="49.94314" lon="2.20503">
        <ele>49.3</ele>
        <time>2022-03-02T14:34:52Z</time>
      </trkpt>
      <trkpt lat="49.94315" lon="2.20502">
        <ele>49.3</ele>
        <time>2022-03-02T14:34:53Z</time>
      </trkpt>
      <trkpt lat="49.94316" lon="2.205">
        <ele>49.3</ele>
        <time>2022-03-02T14:34:54Z</time>
      </trkpt>
      <trkpt lat="49.94317" lon="2.20499">
        <ele>49.3</ele>
        <time>2022-03-02T14:34:55Z</time>
      </trkpt>
      <trkpt lat="49.94318" lon="2.20498">
        <ele>49.3</ele>
        <time>2022-03-02T14:34:56Z</time>
      </trkpt>
      <trkpt lat="49.94319" lon="2.20498">
        <ele>49.3</ele>
        <time>2022-03-02T14:34:57Z</time>
      </trkpt>
      <trkpt lat="49.9432" lon="2.20496">
        <ele>49.3</ele>
        <time>2022-03-02T14:34:58Z</time>
      </trkpt>
      <trkpt lat="49.94321" lon="2.20495">
        <ele>49.3</ele>
        <time>2022-03-02T14:34:59Z</time>
      </trkpt>
      <trkpt lat="49.94323" lon="2.20494">
        <ele>49.3</ele>
        <time>2022-03-02T14:35:01Z</time>
      </trkpt>
      <trkpt lat="49.94325" lon="2.20492">
        <ele>49.3</ele>
        <time>2022-03-02T14:35:02Z</time>
      </trkpt>
      <trkpt lat="49.94325" lon="2.20492">
        <ele>49.3</ele>
        <time>2022-03-02T14:35:03Z</time>
      </trkpt>
      <trkpt lat="49.94326" lon="2.20491">
        <ele>49.3</ele>
        <time>2022-03-02T14:35:04Z</time>
      </trkpt>
      <trkpt lat="49.94327" lon="2.2049">
        <ele>49.3</ele>
        <time>2022-03-02T14:35:05Z</time>
      </trkpt>
      <trkpt lat="49.94329" lon="2.20489">
        <ele>49.3</ele>
        <time>2022-03-02T14:35:06Z</time>
      </trkpt>
      <trkpt lat="49.9433" lon="2.20488">
        <ele>49.3</ele>
        <time>2022-03-02T14:35:08Z</time>
      </trkpt>
      <trkpt lat="49.94331" lon="2.20487">
        <ele>49.3</ele>
        <time>2022-03-02T14:35:09Z</time>
      </trkpt>
      <trkpt lat="49.94332" lon="2.20486">
        <ele>49.3</ele>
        <time>2022-03-02T14:35:10Z</time>
      </trkpt>
      <trkpt lat="49.94334" lon="2.20485">
        <ele>49.3</ele>
        <time>2022-03-02T14:35:11Z</time>
      </trkpt>
      <trkpt lat="49.94335" lon="2.20484">
        <ele>49.3</ele>
        <time>2022-03-02T14:35:13Z</time>
      </trkpt>
      <trkpt lat="49.94336" lon="2.20483">
        <ele>49.3</ele>
        <time>2022-03-02T14:35:14Z</time>
      </trkpt>
      <trkpt lat="49.94337" lon="2.20482">
        <ele>49.3</ele>
        <time>2022-03-02T14:35:15Z</time>
      </trkpt>
      <trkpt lat="49.94338" lon="2.20481">
        <ele>49.3</ele>
        <time>2022-03-02T14:35:17Z</time>
      </trkpt>
      <trkpt lat="49.94339" lon="2.20479">
        <ele>49.2</ele>
        <time>2022-03-02T14:35:18Z</time>
      </trkpt>
      <trkpt lat="49.9434" lon="2.20478">
        <ele>49.2</ele>
        <time>2022-03-02T14:35:19Z</time>
      </trkpt>
      <trkpt lat="49.94342" lon="2.20477">
        <ele>49.2</ele>
        <time>2022-03-02T14:35:20Z</time>
      </trkpt>
      <trkpt lat="49.94343" lon="2.20476">
        <ele>49.2</ele>
        <time>2022-03-02T14:35:21Z</time>
      </trkpt>
      <trkpt lat="49.94344" lon="2.20475">
        <ele>49.2</ele>
        <time>2022-03-02T14:35:22Z</time>
      </trkpt>
      <trkpt lat="49.94346" lon="2.20473">
        <ele>49.2</ele>
        <time>2022-03-02T14:35:23Z</time>
      </trkpt>
      <trkpt lat="49.94347" lon="2.20472">
        <ele>49.1</ele>
        <time>2022-03-02T14:35:24Z</time>
      </trkpt>
      <trkpt lat="49.94348" lon="2.2047">
        <ele>49.1</ele>
        <time>2022-03-02T14:35:26Z</time>
      </trkpt>
      <trkpt lat="49.94349" lon="2.20469">
        <ele>49.1</ele>
        <time>2022-03-02T14:35:27Z</time>
      </trkpt>
      <trkpt lat="49.94349" lon="2.20468">
        <ele>49.1</ele>
        <time>2022-03-02T14:35:28Z</time>
      </trkpt>
      <trkpt lat="49.9435" lon="2.20467">
        <ele>49.1</ele>
        <time>2022-03-02T14:35:29Z</time>
      </trkpt>
      <trkpt lat="49.94352" lon="2.20465">
        <ele>49.1</ele>
        <time>2022-03-02T14:35:30Z</time>
      </trkpt>
      <trkpt lat="49.94352" lon="2.20464">
        <ele>49</ele>
        <time>2022-03-02T14:35:31Z</time>
      </trkpt>
      <trkpt lat="49.94353" lon="2.20463">
        <ele>49</ele>
        <time>2022-03-02T14:35:32Z</time>
      </trkpt>
      <trkpt lat="49.94355" lon="2.20461">
        <ele>49</ele>
        <time>2022-03-02T14:35:33Z</time>
      </trkpt>
      <trkpt lat="49.94355" lon="2.2046">
        <ele>49</ele>
        <time>2022-03-02T14:35:34Z</time>
      </trkpt>
      <trkpt lat="49.94356" lon="2.20459">
        <ele>49</ele>
        <time>2022-03-02T14:35:35Z</time>
      </trkpt>
      <trkpt lat="49.94357" lon="2.20457">
        <ele>49</ele>
        <time>2022-03-02T14:35:36Z</time>
      </trkpt>
      <trkpt lat="49.94358" lon="2.20456">
        <ele>48.9</ele>
        <time>2022-03-02T14:35:38Z</time>
      </trkpt>
      <trkpt lat="49.94359" lon="2.20455">
        <ele>48.9</ele>
        <time>2022-03-02T14:35:39Z</time>
      </trkpt>
      <trkpt lat="49.9436" lon="2.20454">
        <ele>48.9</ele>
        <time>2022-03-02T14:35:40Z</time>
      </trkpt>
      <trkpt lat="49.94361" lon="2.20453">
        <ele>48.9</ele>
        <time>2022-03-02T14:35:41Z</time>
      </trkpt>
      <trkpt lat="49.94362" lon="2.20452">
        <ele>48.9</ele>
        <time>2022-03-02T14:35:42Z</time>
      </trkpt>
      <trkpt lat="49.94363" lon="2.20451">
        <ele>48.9</ele>
        <time>2022-03-02T14:35:43Z</time>
      </trkpt>
      <trkpt lat="49.94364" lon="2.2045">
        <ele>48.8</ele>
        <time>2022-03-02T14:35:44Z</time>
      </trkpt>
      <trkpt lat="49.94365" lon="2.20447">
        <ele>48.8</ele>
        <time>2022-03-02T14:35:45Z</time>
      </trkpt>
      <trkpt lat="49.94366" lon="2.20447">
        <ele>48.8</ele>
        <time>2022-03-02T14:35:46Z</time>
      </trkpt>
      <trkpt lat="49.94366" lon="2.20446">
        <ele>48.8</ele>
        <time>2022-03-02T14:35:47Z</time>
      </trkpt>
      <trkpt lat="49.94367" lon="2.20444">
        <ele>48.8</ele>
        <time>2022-03-02T14:35:48Z</time>
      </trkpt>
      <trkpt lat="49.94368" lon="2.20442">
        <ele>48.7</ele>
        <time>2022-03-02T14:35:49Z</time>
      </trkpt>
      <trkpt lat="49.94369" lon="2.20439">
        <ele>48.7</ele>
        <time>2022-03-02T14:35:50Z</time>
      </trkpt>
      <trkpt lat="49.94369" lon="2.20438">
        <ele>48.7</ele>
        <time>2022-03-02T14:35:52Z</time>
      </trkpt>
      <trkpt lat="49.94369" lon="2.20437">
        <ele>48.7</ele>
        <time>2022-03-02T14:35:53Z</time>
      </trkpt>
      <trkpt lat="49.9437" lon="2.20435">
        <ele>48.6</ele>
        <time>2022-03-02T14:35:54Z</time>
      </trkpt>
      <trkpt lat="49.9437" lon="2.20434">
        <ele>48.6</ele>
        <time>2022-03-02T14:35:55Z</time>
      </trkpt>
      <trkpt lat="49.94371" lon="2.20432">
        <ele>48.6</ele>
        <time>2022-03-02T14:35:56Z</time>
      </trkpt>
      <trkpt lat="49.94372" lon="2.20431">
        <ele>48.6</ele>
        <time>2022-03-02T14:35:57Z</time>
      </trkpt>
      <trkpt lat="49.94373" lon="2.2043">
        <ele>48.5</ele>
        <time>2022-03-02T14:35:58Z</time>
      </trkpt>
      <trkpt lat="49.94374" lon="2.20428">
        <ele>48.5</ele>
        <time>2022-03-02T14:35:59Z</time>
      </trkpt>
      <trkpt lat="49.94375" lon="2.20428">
        <ele>48.5</ele>
        <time>2022-03-02T14:36:00Z</time>
      </trkpt>
      <trkpt lat="49.94375" lon="2.20427">
        <ele>48.5</ele>
        <time>2022-03-02T14:36:01Z</time>
      </trkpt>
      <trkpt lat="49.94377" lon="2.20425">
        <ele>48.4</ele>
        <time>2022-03-02T14:36:03Z</time>
      </trkpt>
      <trkpt lat="49.94379" lon="2.20424">
        <ele>48.4</ele>
        <time>2022-03-02T14:36:04Z</time>
      </trkpt>
      <trkpt lat="49.94379" lon="2.20423">
        <ele>48.4</ele>
        <time>2022-03-02T14:36:05Z</time>
      </trkpt>
      <trkpt lat="49.9438" lon="2.20422">
        <ele>48.3</ele>
        <time>2022-03-02T14:36:06Z</time>
      </trkpt>
      <trkpt lat="49.94381" lon="2.2042">
        <ele>48.3</ele>
        <time>2022-03-02T14:36:07Z</time>
      </trkpt>
      <trkpt lat="49.94383" lon="2.20419">
        <ele>48.3</ele>
        <time>2022-03-02T14:36:09Z</time>
      </trkpt>
      <trkpt lat="49.94384" lon="2.20417">
        <ele>48.2</ele>
        <time>2022-03-02T14:36:10Z</time>
      </trkpt>
      <trkpt lat="49.94385" lon="2.20416">
        <ele>48.2</ele>
        <time>2022-03-02T14:36:11Z</time>
      </trkpt>
      <trkpt lat="49.94386" lon="2.20413">
        <ele>48.1</ele>
        <time>2022-03-02T14:36:12Z</time>
      </trkpt>
      <trkpt lat="49.94387" lon="2.20412">
        <ele>48.1</ele>
        <time>2022-03-02T14:36:13Z</time>
      </trkpt>
      <trkpt lat="49.94388" lon="2.20411">
        <ele>48.1</ele>
        <time>2022-03-02T14:36:14Z</time>
      </trkpt>
      <trkpt lat="49.94389" lon="2.20409">
        <ele>48</ele>
        <time>2022-03-02T14:36:15Z</time>
      </trkpt>
      <trkpt lat="49.94389" lon="2.20408">
        <ele>48</ele>
        <time>2022-03-02T14:36:16Z</time>
      </trkpt>
      <trkpt lat="49.9439" lon="2.20407">
        <ele>48</ele>
        <time>2022-03-02T14:36:17Z</time>
      </trkpt>
      <trkpt lat="49.94391" lon="2.20405">
        <ele>48</ele>
        <time>2022-03-02T14:36:18Z</time>
      </trkpt>
      <trkpt lat="49.94392" lon="2.20403">
        <ele>47.9</ele>
        <time>2022-03-02T14:36:20Z</time>
      </trkpt>
      <trkpt lat="49.94393" lon="2.20402">
        <ele>47.9</ele>
        <time>2022-03-02T14:36:21Z</time>
      </trkpt>
      <trkpt lat="49.94394" lon="2.20401">
        <ele>47.9</ele>
        <time>2022-03-02T14:36:22Z</time>
      </trkpt>
      <trkpt lat="49.94395" lon="2.20399">
        <ele>47.8</ele>
        <time>2022-03-02T14:36:23Z</time>
      </trkpt>
      <trkpt lat="49.94396" lon="2.20397">
        <ele>47.8</ele>
        <time>2022-03-02T14:36:24Z</time>
      </trkpt>
      <trkpt lat="49.94397" lon="2.20396">
        <ele>47.8</ele>
        <time>2022-03-02T14:36:25Z</time>
      </trkpt>
      <trkpt lat="49.94398" lon="2.20394">
        <ele>47.7</ele>
        <time>2022-03-02T14:36:26Z</time>
      </trkpt>
      <trkpt lat="49.94399" lon="2.20393">
        <ele>47.7</ele>
        <time>2022-03-02T14:36:27Z</time>
      </trkpt>
      <trkpt lat="49.94401" lon="2.20391">
        <ele>47.7</ele>
        <time>2022-03-02T14:36:29Z</time>
      </trkpt>
      <trkpt lat="49.94401" lon="2.2039">
        <ele>47.6</ele>
        <time>2022-03-02T14:36:30Z</time>
      </trkpt>
      <trkpt lat="49.94402" lon="2.20389">
        <ele>47.6</ele>
        <time>2022-03-02T14:36:31Z</time>
      </trkpt>
      <trkpt lat="49.94403" lon="2.20388">
        <ele>47.6</ele>
        <time>2022-03-02T14:36:32Z</time>
      </trkpt>
      <trkpt lat="49.94404" lon="2.20385">
        <ele>47.5</ele>
        <time>2022-03-02T14:36:33Z</time>
      </trkpt>
      <trkpt lat="49.94405" lon="2.20384">
        <ele>47.5</ele>
        <time>2022-03-02T14:36:35Z</time>
      </trkpt>
      <trkpt lat="49.94406" lon="2.20383">
        <ele>47.5</ele>
        <time>2022-03-02T14:36:36Z</time>
      </trkpt>
      <trkpt lat="49.94406" lon="2.20382">
        <ele>47.5</ele>
        <time>2022-03-02T14:36:37Z</time>
      </trkpt>
      <trkpt lat="49.94407" lon="2.20381">
        <ele>47.4</ele>
        <time>2022-03-02T14:36:38Z</time>
      </trkpt>
      <trkpt lat="49.94408" lon="2.2038">
        <ele>47.4</ele>
        <time>2022-03-02T14:36:39Z</time>
      </trkpt>
      <trkpt lat="49.9441" lon="2.20377">
        <ele>47.4</ele>
        <time>2022-03-02T14:36:40Z</time>
      </trkpt>
      <trkpt lat="49.9441" lon="2.20376">
        <ele>47.3</ele>
        <time>2022-03-02T14:36:41Z</time>
      </trkpt>
      <trkpt lat="49.9441" lon="2.20375">
        <ele>47.3</ele>
        <time>2022-03-02T14:36:42Z</time>
      </trkpt>
      <trkpt lat="49.94412" lon="2.20373">
        <ele>47.3</ele>
        <time>2022-03-02T14:36:43Z</time>
      </trkpt>
      <trkpt lat="49.94412" lon="2.20372">
        <ele>47.3</ele>
        <time>2022-03-02T14:36:44Z</time>
      </trkpt>
      <trkpt lat="49.94413" lon="2.20371">
        <ele>47.2</ele>
        <time>2022-03-02T14:36:45Z</time>
      </trkpt>
      <trkpt lat="49.94414" lon="2.20369">
        <ele>47.2</ele>
        <time>2022-03-02T14:36:47Z</time>
      </trkpt>
      <trkpt lat="49.94415" lon="2.20367">
        <ele>47.2</ele>
        <time>2022-03-02T14:36:48Z</time>
      </trkpt>
      <trkpt lat="49.94415" lon="2.20366">
        <ele>47.1</ele>
        <time>2022-03-02T14:36:49Z</time>
      </trkpt>
      <trkpt lat="49.94416" lon="2.20364">
        <ele>47.1</ele>
        <time>2022-03-02T14:36:50Z</time>
      </trkpt>
      <trkpt lat="49.94417" lon="2.20362">
        <ele>47.1</ele>
        <time>2022-03-02T14:36:51Z</time>
      </trkpt>
      <trkpt lat="49.94418" lon="2.2036">
        <ele>47</ele>
        <time>2022-03-02T14:36:52Z</time>
      </trkpt>
      <trkpt lat="49.94418" lon="2.20358">
        <ele>47</ele>
        <time>2022-03-02T14:36:53Z</time>
      </trkpt>
      <trkpt lat="49.94419" lon="2.20356">
        <ele>47</ele>
        <time>2022-03-02T14:36:55Z</time>
      </trkpt>
      <trkpt lat="49.9442" lon="2.20355">
        <ele>46.9</ele>
        <time>2022-03-02T14:36:56Z</time>
      </trkpt>
      <trkpt lat="49.94421" lon="2.20354">
        <ele>46.9</ele>
        <time>2022-03-02T14:36:57Z</time>
      </trkpt>
      <trkpt lat="49.94422" lon="2.20353">
        <ele>46.9</ele>
        <time>2022-03-02T14:36:58Z</time>
      </trkpt>
      <trkpt lat="49.94423" lon="2.20351">
        <ele>46.8</ele>
        <time>2022-03-02T14:36:59Z</time>
      </trkpt>
      <trkpt lat="49.94424" lon="2.2035">
        <ele>46.8</ele>
        <time>2022-03-02T14:37:00Z</time>
      </trkpt>
      <trkpt lat="49.94425" lon="2.20348">
        <ele>46.8</ele>
        <time>2022-03-02T14:37:02Z</time>
      </trkpt>
      <trkpt lat="49.94426" lon="2.20347">
        <ele>46.7</ele>
        <time>2022-03-02T14:37:03Z</time>
      </trkpt>
      <trkpt lat="49.94427" lon="2.20345">
        <ele>46.7</ele>
        <time>2022-03-02T14:37:04Z</time>
      </trkpt>
      <trkpt lat="49.94428" lon="2.20344">
        <ele>46.6</ele>
        <time>2022-03-02T14:37:05Z</time>
      </trkpt>
      <trkpt lat="49.94428" lon="2.20343">
        <ele>46.6</ele>
        <time>2022-03-02T14:37:06Z</time>
      </trkpt>
      <trkpt lat="49.94429" lon="2.20342">
        <ele>46.6</ele>
        <time>2022-03-02T14:37:07Z</time>
      </trkpt>
      <trkpt lat="49.9443" lon="2.20341">
        <ele>46.5</ele>
        <time>2022-03-02T14:37:08Z</time>
      </trkpt>
      <trkpt lat="49.94431" lon="2.2034">
        <ele>46.5</ele>
        <time>2022-03-02T14:37:09Z</time>
      </trkpt>
      <trkpt lat="49.94432" lon="2.20339">
        <ele>46.5</ele>
        <time>2022-03-02T14:37:10Z</time>
      </trkpt>
      <trkpt lat="49.94433" lon="2.20338">
        <ele>46.4</ele>
        <time>2022-03-02T14:37:11Z</time>
      </trkpt>
      <trkpt lat="49.94434" lon="2.20337">
        <ele>46.4</ele>
        <time>2022-03-02T14:37:12Z</time>
      </trkpt>
      <trkpt lat="49.94435" lon="2.20335">
        <ele>46.3</ele>
        <time>2022-03-02T14:37:13Z</time>
      </trkpt>
      <trkpt lat="49.94437" lon="2.20333">
        <ele>46.3</ele>
        <time>2022-03-02T14:37:15Z</time>
      </trkpt>
      <trkpt lat="49.94438" lon="2.20332">
        <ele>46.2</ele>
        <time>2022-03-02T14:37:16Z</time>
      </trkpt>
      <trkpt lat="49.94438" lon="2.20331">
        <ele>46.2</ele>
        <time>2022-03-02T14:37:17Z</time>
      </trkpt>
      <trkpt lat="49.94439" lon="2.2033">
        <ele>46.2</ele>
        <time>2022-03-02T14:37:18Z</time>
      </trkpt>
      <trkpt lat="49.9444" lon="2.20328">
        <ele>46.1</ele>
        <time>2022-03-02T14:37:19Z</time>
      </trkpt>
      <trkpt lat="49.94441" lon="2.20326">
        <ele>46.1</ele>
        <time>2022-03-02T14:37:20Z</time>
      </trkpt>
      <trkpt lat="49.94442" lon="2.20325">
        <ele>46.1</ele>
        <time>2022-03-02T14:37:21Z</time>
      </trkpt>
      <trkpt lat="49.94442" lon="2.20324">
        <ele>46</ele>
        <time>2022-03-02T14:37:22Z</time>
      </trkpt>
      <trkpt lat="49.94443" lon="2.20323">
        <ele>46</ele>
        <time>2022-03-02T14:37:23Z</time>
      </trkpt>
      <trkpt lat="49.94444" lon="2.20322">
        <ele>46</ele>
        <time>2022-03-02T14:37:24Z</time>
      </trkpt>
      <trkpt lat="49.94445" lon="2.20321">
        <ele>45.9</ele>
        <time>2022-03-02T14:37:25Z</time>
      </trkpt>
      <trkpt lat="49.94446" lon="2.20319">
        <ele>45.9</ele>
        <time>2022-03-02T14:37:26Z</time>
      </trkpt>
      <trkpt lat="49.94448" lon="2.20318">
        <ele>45.8</ele>
        <time>2022-03-02T14:37:27Z</time>
      </trkpt>
      <trkpt lat="49.94449" lon="2.20317">
        <ele>45.8</ele>
        <time>2022-03-02T14:37:29Z</time>
      </trkpt>
      <trkpt lat="49.9445" lon="2.20316">
        <ele>45.8</ele>
        <time>2022-03-02T14:37:30Z</time>
      </trkpt>
      <trkpt lat="49.94452" lon="2.20314">
        <ele>45.7</ele>
        <time>2022-03-02T14:37:31Z</time>
      </trkpt>
      <trkpt lat="49.94453" lon="2.20314">
        <ele>45.7</ele>
        <time>2022-03-02T14:37:32Z</time>
      </trkpt>
      <trkpt lat="49.94453" lon="2.20313">
        <ele>45.7</ele>
        <time>2022-03-02T14:37:33Z</time>
      </trkpt>
      <trkpt lat="49.94454" lon="2.20312">
        <ele>45.6</ele>
        <time>2022-03-02T14:37:34Z</time>
      </trkpt>
      <trkpt lat="49.94455" lon="2.20311">
        <ele>45.6</ele>
        <time>2022-03-02T14:37:35Z</time>
      </trkpt>
      <trkpt lat="49.94456" lon="2.2031">
        <ele>45.6</ele>
        <time>2022-03-02T14:37:36Z</time>
      </trkpt>
      <trkpt lat="49.94457" lon="2.20309">
        <ele>45.5</ele>
        <time>2022-03-02T14:37:37Z</time>
      </trkpt>
      <trkpt lat="49.94458" lon="2.20307">
        <ele>45.5</ele>
        <time>2022-03-02T14:37:38Z</time>
      </trkpt>
      <trkpt lat="49.9446" lon="2.20306">
        <ele>45.5</ele>
        <time>2022-03-02T14:37:40Z</time>
      </trkpt>
      <trkpt lat="49.94461" lon="2.20305">
        <ele>45.4</ele>
        <time>2022-03-02T14:37:41Z</time>
      </trkpt>
      <trkpt lat="49.94462" lon="2.20304">
        <ele>45.4</ele>
        <time>2022-03-02T14:37:42Z</time>
      </trkpt>
      <trkpt lat="49.94463" lon="2.20303">
        <ele>45.4</ele>
        <time>2022-03-02T14:37:43Z</time>
      </trkpt>
      <trkpt lat="49.94464" lon="2.20303">
        <ele>45.4</ele>
        <time>2022-03-02T14:37:44Z</time>
      </trkpt>
      <trkpt lat="49.94464" lon="2.20302">
        <ele>45.3</ele>
        <time>2022-03-02T14:37:45Z</time>
      </trkpt>
      <trkpt lat="49.94465" lon="2.203">
        <ele>45.3</ele>
        <time>2022-03-02T14:37:46Z</time>
      </trkpt>
      <trkpt lat="49.94466" lon="2.20299">
        <ele>45.3</ele>
        <time>2022-03-02T14:37:47Z</time>
      </trkpt>
      <trkpt lat="49.94467" lon="2.20298">
        <ele>45.3</ele>
        <time>2022-03-02T14:37:48Z</time>
      </trkpt>
      <trkpt lat="49.94469" lon="2.20296">
        <ele>45.2</ele>
        <time>2022-03-02T14:37:50Z</time>
      </trkpt>
      <trkpt lat="49.9447" lon="2.20295">
        <ele>45.2</ele>
        <time>2022-03-02T14:37:51Z</time>
      </trkpt>
      <trkpt lat="49.94471" lon="2.20294">
        <ele>45.2</ele>
        <time>2022-03-02T14:37:52Z</time>
      </trkpt>
      <trkpt lat="49.94472" lon="2.20293">
        <ele>45.2</ele>
        <time>2022-03-02T14:37:53Z</time>
      </trkpt>
      <trkpt lat="49.94473" lon="2.20293">
        <ele>45.1</ele>
        <time>2022-03-02T14:37:54Z</time>
      </trkpt>
      <trkpt lat="49.94474" lon="2.20291">
        <ele>45.1</ele>
        <time>2022-03-02T14:37:55Z</time>
      </trkpt>
      <trkpt lat="49.94474" lon="2.20291">
        <ele>45.1</ele>
        <time>2022-03-02T14:37:56Z</time>
      </trkpt>
      <trkpt lat="49.94475" lon="2.2029">
        <ele>45.1</ele>
        <time>2022-03-02T14:37:57Z</time>
      </trkpt>
      <trkpt lat="49.94476" lon="2.20289">
        <ele>45.1</ele>
        <time>2022-03-02T14:37:58Z</time>
      </trkpt>
      <trkpt lat="49.94477" lon="2.20288">
        <ele>45</ele>
        <time>2022-03-02T14:37:59Z</time>
      </trkpt>
      <trkpt lat="49.94478" lon="2.20287">
        <ele>45</ele>
        <time>2022-03-02T14:38:00Z</time>
      </trkpt>
      <trkpt lat="49.94479" lon="2.20286">
        <ele>45</ele>
        <time>2022-03-02T14:38:01Z</time>
      </trkpt>
      <trkpt lat="49.9448" lon="2.20285">
        <ele>45</ele>
        <time>2022-03-02T14:38:03Z</time>
      </trkpt>
      <trkpt lat="49.94481" lon="2.20284">
        <ele>45</ele>
        <time>2022-03-02T14:38:04Z</time>
      </trkpt>
      <trkpt lat="49.94482" lon="2.20282">
        <ele>45</ele>
        <time>2022-03-02T14:38:05Z</time>
      </trkpt>
      <trkpt lat="49.94484" lon="2.20281">
        <ele>44.9</ele>
        <time>2022-03-02T14:38:06Z</time>
      </trkpt>
      <trkpt lat="49.94485" lon="2.20279">
        <ele>44.9</ele>
        <time>2022-03-02T14:38:07Z</time>
      </trkpt>
      <trkpt lat="49.94486" lon="2.20278">
        <ele>44.9</ele>
        <time>2022-03-02T14:38:08Z</time>
      </trkpt>
      <trkpt lat="49.94486" lon="2.20277">
        <ele>44.9</ele>
        <time>2022-03-02T14:38:09Z</time>
      </trkpt>
      <trkpt lat="49.94488" lon="2.20275">
        <ele>44.9</ele>
        <time>2022-03-02T14:38:10Z</time>
      </trkpt>
      <trkpt lat="49.94488" lon="2.20274">
        <ele>44.9</ele>
        <time>2022-03-02T14:38:11Z</time>
      </trkpt>
      <trkpt lat="49.94489" lon="2.20273">
        <ele>44.8</ele>
        <time>2022-03-02T14:38:12Z</time>
      </trkpt>
      <trkpt lat="49.94491" lon="2.20271">
        <ele>44.8</ele>
        <time>2022-03-02T14:38:13Z</time>
      </trkpt>
      <trkpt lat="49.94492" lon="2.20271">
        <ele>44.8</ele>
        <time>2022-03-02T14:38:14Z</time>
      </trkpt>
      <trkpt lat="49.94492" lon="2.2027">
        <ele>44.8</ele>
        <time>2022-03-02T14:38:15Z</time>
      </trkpt>
      <trkpt lat="49.94494" lon="2.20268">
        <ele>44.8</ele>
        <time>2022-03-02T14:38:17Z</time>
      </trkpt>
      <trkpt lat="49.94495" lon="2.20267">
        <ele>44.8</ele>
        <time>2022-03-02T14:38:18Z</time>
      </trkpt>
      <trkpt lat="49.94496" lon="2.20267">
        <ele>44.8</ele>
        <time>2022-03-02T14:38:19Z</time>
      </trkpt>
      <trkpt lat="49.94497" lon="2.20266">
        <ele>44.7</ele>
        <time>2022-03-02T14:38:20Z</time>
      </trkpt>
      <trkpt lat="49.94498" lon="2.20264">
        <ele>44.7</ele>
        <time>2022-03-02T14:38:21Z</time>
      </trkpt>
      <trkpt lat="49.94498" lon="2.20264">
        <ele>44.7</ele>
        <time>2022-03-02T14:38:22Z</time>
      </trkpt>
      <trkpt lat="49.94499" lon="2.20263">
        <ele>44.7</ele>
        <time>2022-03-02T14:38:23Z</time>
      </trkpt>
      <trkpt lat="49.945" lon="2.20262">
        <ele>44.7</ele>
        <time>2022-03-02T14:38:24Z</time>
      </trkpt>
      <trkpt lat="49.945" lon="2.20261">
        <ele>44.7</ele>
        <time>2022-03-02T14:38:25Z</time>
      </trkpt>
      <trkpt lat="49.94502" lon="2.20259">
        <ele>44.7</ele>
        <time>2022-03-02T14:38:26Z</time>
      </trkpt>
      <trkpt lat="49.94503" lon="2.20258">
        <ele>44.7</ele>
        <time>2022-03-02T14:38:27Z</time>
      </trkpt>
      <trkpt lat="49.94504" lon="2.20257">
        <ele>44.7</ele>
        <time>2022-03-02T14:38:28Z</time>
      </trkpt>
      <trkpt lat="49.94505" lon="2.20256">
        <ele>44.6</ele>
        <time>2022-03-02T14:38:29Z</time>
      </trkpt>
      <trkpt lat="49.94506" lon="2.20255">
        <ele>44.6</ele>
        <time>2022-03-02T14:38:30Z</time>
      </trkpt>
      <trkpt lat="49.94507" lon="2.20254">
        <ele>44.6</ele>
        <time>2022-03-02T14:38:32Z</time>
      </trkpt>
      <trkpt lat="49.94508" lon="2.20253">
        <ele>44.6</ele>
        <time>2022-03-02T14:38:33Z</time>
      </trkpt>
      <trkpt lat="49.94509" lon="2.20252">
        <ele>44.6</ele>
        <time>2022-03-02T14:38:34Z</time>
      </trkpt>
      <trkpt lat="49.94509" lon="2.20252">
        <ele>44.6</ele>
        <time>2022-03-02T14:38:35Z</time>
      </trkpt>
      <trkpt lat="49.9451" lon="2.20251">
        <ele>44.6</ele>
        <time>2022-03-02T14:38:36Z</time>
      </trkpt>
      <trkpt lat="49.94512" lon="2.20251">
        <ele>44.6</ele>
        <time>2022-03-02T14:38:37Z</time>
      </trkpt>
      <trkpt lat="49.94513" lon="2.2025">
        <ele>44.6</ele>
        <time>2022-03-02T14:38:38Z</time>
      </trkpt>
      <trkpt lat="49.94515" lon="2.20249">
        <ele>44.6</ele>
        <time>2022-03-02T14:38:39Z</time>
      </trkpt>
      <trkpt lat="49.94516" lon="2.20248">
        <ele>44.6</ele>
        <time>2022-03-02T14:38:40Z</time>
      </trkpt>
      <trkpt lat="49.94517" lon="2.20248">
        <ele>44.6</ele>
        <time>2022-03-02T14:38:41Z</time>
      </trkpt>
      <trkpt lat="49.94518" lon="2.20247">
        <ele>44.6</ele>
        <time>2022-03-02T14:38:42Z</time>
      </trkpt>
      <trkpt lat="49.94519" lon="2.20246">
        <ele>44.5</ele>
        <time>2022-03-02T14:38:43Z</time>
      </trkpt>
      <trkpt lat="49.9452" lon="2.20245">
        <ele>44.5</ele>
        <time>2022-03-02T14:38:44Z</time>
      </trkpt>
      <trkpt lat="49.94521" lon="2.20244">
        <ele>44.5</ele>
        <time>2022-03-02T14:38:45Z</time>
      </trkpt>
      <trkpt lat="49.94523" lon="2.20243">
        <ele>44.5</ele>
        <time>2022-03-02T14:38:46Z</time>
      </trkpt>
      <trkpt lat="49.94524" lon="2.20242">
        <ele>44.5</ele>
        <time>2022-03-02T14:38:48Z</time>
      </trkpt>
      <trkpt lat="49.94524" lon="2.20242">
        <ele>44.5</ele>
        <time>2022-03-02T14:38:49Z</time>
      </trkpt>
      <trkpt lat="49.94525" lon="2.20241">
        <ele>44.5</ele>
        <time>2022-03-02T14:38:50Z</time>
      </trkpt>
      <trkpt lat="49.94526" lon="2.2024">
        <ele>44.5</ele>
        <time>2022-03-02T14:38:51Z</time>
      </trkpt>
      <trkpt lat="49.94527" lon="2.20239">
        <ele>44.5</ele>
        <time>2022-03-02T14:38:52Z</time>
      </trkpt>
      <trkpt lat="49.94528" lon="2.20239">
        <ele>44.5</ele>
        <time>2022-03-02T14:38:53Z</time>
      </trkpt>
      <trkpt lat="49.94529" lon="2.20238">
        <ele>44.4</ele>
        <time>2022-03-02T14:38:54Z</time>
      </trkpt>
      <trkpt lat="49.9453" lon="2.20237">
        <ele>44.4</ele>
        <time>2022-03-02T14:38:55Z</time>
      </trkpt>
      <trkpt lat="49.94532" lon="2.20236">
        <ele>44.4</ele>
        <time>2022-03-02T14:38:56Z</time>
      </trkpt>
      <trkpt lat="49.94533" lon="2.20235">
        <ele>44.4</ele>
        <time>2022-03-02T14:38:57Z</time>
      </trkpt>
      <trkpt lat="49.94533" lon="2.20234">
        <ele>44.4</ele>
        <time>2022-03-02T14:38:58Z</time>
      </trkpt>
      <trkpt lat="49.94534" lon="2.20232">
        <ele>44.4</ele>
        <time>2022-03-02T14:39:00Z</time>
      </trkpt>
      <trkpt lat="49.94535" lon="2.20231">
        <ele>44.4</ele>
        <time>2022-03-02T14:39:01Z</time>
      </trkpt>
      <trkpt lat="49.94537" lon="2.20229">
        <ele>44.4</ele>
        <time>2022-03-02T14:39:02Z</time>
      </trkpt>
      <trkpt lat="49.94538" lon="2.20228">
        <ele>44.3</ele>
        <time>2022-03-02T14:39:03Z</time>
      </trkpt>
      <trkpt lat="49.94538" lon="2.20227">
        <ele>44.3</ele>
        <time>2022-03-02T14:39:04Z</time>
      </trkpt>
      <trkpt lat="49.9454" lon="2.20225">
        <ele>44.3</ele>
        <time>2022-03-02T14:39:06Z</time>
      </trkpt>
      <trkpt lat="49.94541" lon="2.20224">
        <ele>44.3</ele>
        <time>2022-03-02T14:39:07Z</time>
      </trkpt>
      <trkpt lat="49.94541" lon="2.20223">
        <ele>44.3</ele>
        <time>2022-03-02T14:39:08Z</time>
      </trkpt>
      <trkpt lat="49.94542" lon="2.20222">
        <ele>44.3</ele>
        <time>2022-03-02T14:39:09Z</time>
      </trkpt>
      <trkpt lat="49.94543" lon="2.20221">
        <ele>44.3</ele>
        <time>2022-03-02T14:39:10Z</time>
      </trkpt>
      <trkpt lat="49.94544" lon="2.20219">
        <ele>44.3</ele>
        <time>2022-03-02T14:39:11Z</time>
      </trkpt>
      <trkpt lat="49.94545" lon="2.20218">
        <ele>44.3</ele>
        <time>2022-03-02T14:39:12Z</time>
      </trkpt>
      <trkpt lat="49.94545" lon="2.20217">
        <ele>44.3</ele>
        <time>2022-03-02T14:39:13Z</time>
      </trkpt>
      <trkpt lat="49.94546" lon="2.20215">
        <ele>44.3</ele>
        <time>2022-03-02T14:39:14Z</time>
      </trkpt>
      <trkpt lat="49.94547" lon="2.20214">
        <ele>44.3</ele>
        <time>2022-03-02T14:39:16Z</time>
      </trkpt>
      <trkpt lat="49.94547" lon="2.20212">
        <ele>44.3</ele>
        <time>2022-03-02T14:39:17Z</time>
      </trkpt>
      <trkpt lat="49.94548" lon="2.20211">
        <ele>44.3</ele>
        <time>2022-03-02T14:39:18Z</time>
      </trkpt>
      <trkpt lat="49.94549" lon="2.20208">
        <ele>44.3</ele>
        <time>2022-03-02T14:39:19Z</time>
      </trkpt>
      <trkpt lat="49.9455" lon="2.20207">
        <ele>44.3</ele>
        <time>2022-03-02T14:39:20Z</time>
      </trkpt>
      <trkpt lat="49.9455" lon="2.20206">
        <ele>44.2</ele>
        <time>2022-03-02T14:39:21Z</time>
      </trkpt>
      <trkpt lat="49.94551" lon="2.20205">
        <ele>44.2</ele>
        <time>2022-03-02T14:39:23Z</time>
      </trkpt>
      <trkpt lat="49.94552" lon="2.20205">
        <ele>44.2</ele>
        <time>2022-03-02T14:39:24Z</time>
      </trkpt>
      <trkpt lat="49.94552" lon="2.20204">
        <ele>44.2</ele>
        <time>2022-03-02T14:39:25Z</time>
      </trkpt>
      <trkpt lat="49.94553" lon="2.20203">
        <ele>44.2</ele>
        <time>2022-03-02T14:39:26Z</time>
      </trkpt>
      <trkpt lat="49.94553" lon="2.20201">
        <ele>44.2</ele>
        <time>2022-03-02T14:39:27Z</time>
      </trkpt>
      <trkpt lat="49.94553" lon="2.202">
        <ele>44.2</ele>
        <time>2022-03-02T14:39:28Z</time>
      </trkpt>
      <trkpt lat="49.94553" lon="2.20199">
        <ele>44.2</ele>
        <time>2022-03-02T14:39:29Z</time>
      </trkpt>
      <trkpt lat="49.94553" lon="2.20198">
        <ele>44.2</ele>
        <time>2022-03-02T14:39:30Z</time>
      </trkpt>
      <trkpt lat="49.94553" lon="2.20198">
        <ele>44.2</ele>
        <time>2022-03-02T14:39:31Z</time>
      </trkpt>
      <trkpt lat="49.94553" lon="2.20198">
        <ele>44.2</ele>
        <time>2022-03-02T14:39:32Z</time>
      </trkpt>
      <trkpt lat="49.94553" lon="2.20198">
        <ele>44.2</ele>
        <time>2022-03-02T14:39:33Z</time>
      </trkpt>
      <trkpt lat="49.94553" lon="2.20198">
        <ele>44.2</ele>
        <time>2022-03-02T14:39:34Z</time>
      </trkpt>
      <trkpt lat="49.94553" lon="2.20198">
        <ele>44.2</ele>
        <time>2022-03-02T14:39:35Z</time>
      </trkpt>
      <trkpt lat="49.94553" lon="2.20198">
        <ele>44.2</ele>
        <time>2022-03-02T14:39:36Z</time>
      </trkpt>
      <trkpt lat="49.94553" lon="2.20198">
        <ele>44.2</ele>
        <time>2022-03-02T14:39:37Z</time>
      </trkpt>
      <trkpt lat="49.94553" lon="2.20198">
        <ele>44.2</ele>
        <time>2022-03-02T14:39:38Z</time>
      </trkpt>
      <trkpt lat="49.94553" lon="2.20198">
        <ele>44.2</ele>
        <time>2022-03-02T14:39:39Z</time>
      </trkpt>
      <trkpt lat="49.94553" lon="2.20198">
        <ele>44.2</ele>
        <time>2022-03-02T14:39:40Z</time>
      </trkpt>
      <trkpt lat="49.94553" lon="2.20199">
        <ele>44.2</ele>
        <time>2022-03-02T14:39:41Z</time>
      </trkpt>
      <trkpt lat="49.94553" lon="2.20199">
        <ele>44.2</ele>
        <time>2022-03-02T14:39:42Z</time>
      </trkpt>
      <trkpt lat="49.94553" lon="2.20199">
        <ele>44.2</ele>
        <time>2022-03-02T14:39:43Z</time>
      </trkpt>
      <trkpt lat="49.94553" lon="2.20199">
        <ele>44.2</ele>
        <time>2022-03-02T14:39:44Z</time>
      </trkpt>
      <trkpt lat="49.94553" lon="2.202">
        <ele>44.2</ele>
        <time>2022-03-02T14:39:45Z</time>
      </trkpt>
      <trkpt lat="49.94552" lon="2.20201">
        <ele>44.2</ele>
        <time>2022-03-02T14:39:46Z</time>
      </trkpt>
      <trkpt lat="49.94552" lon="2.20202">
        <ele>44.2</ele>
        <time>2022-03-02T14:39:47Z</time>
      </trkpt>
      <trkpt lat="49.94552" lon="2.20203">
        <ele>44.2</ele>
        <time>2022-03-02T14:39:48Z</time>
      </trkpt>
      <trkpt lat="49.94552" lon="2.20203">
        <ele>44.2</ele>
        <time>2022-03-02T14:39:49Z</time>
      </trkpt>
      <trkpt lat="49.94552" lon="2.20202">
        <ele>44.2</ele>
        <time>2022-03-02T14:39:50Z</time>
      </trkpt>
      <trkpt lat="49.94552" lon="2.20202">
        <ele>44.2</ele>
        <time>2022-03-02T14:39:51Z</time>
      </trkpt>
      <trkpt lat="49.94552" lon="2.20202">
        <ele>44.2</ele>
        <time>2022-03-02T14:39:52Z</time>
      </trkpt>
      <trkpt lat="49.94552" lon="2.20202">
        <ele>44.2</ele>
        <time>2022-03-02T14:39:53Z</time>
      </trkpt>
      <trkpt lat="49.94552" lon="2.20201">
        <ele>44.2</ele>
        <time>2022-03-02T14:39:54Z</time>
      </trkpt>
      <trkpt lat="49.94552" lon="2.20201">
        <ele>44.2</ele>
        <time>2022-03-02T14:39:55Z</time>
      </trkpt>
      <trkpt lat="49.94552" lon="2.20201">
        <ele>44.2</ele>
        <time>2022-03-02T14:39:56Z</time>
      </trkpt>
      <trkpt lat="49.94552" lon="2.20201">
        <ele>44.2</ele>
        <time>2022-03-02T14:39:57Z</time>
      </trkpt>
      <trkpt lat="49.94552" lon="2.202">
        <ele>44.2</ele>
        <time>2022-03-02T14:39:58Z</time>
      </trkpt>
      <trkpt lat="49.94552" lon="2.202">
        <ele>44.2</ele>
        <time>2022-03-02T14:39:59Z</time>
      </trkpt>
      <trkpt lat="49.94552" lon="2.202">
        <ele>44.2</ele>
        <time>2022-03-02T14:40:00Z</time>
      </trkpt>
      <trkpt lat="49.94552" lon="2.202">
        <ele>44.2</ele>
        <time>2022-03-02T14:40:01Z</time>
      </trkpt>
      <trkpt lat="49.94552" lon="2.202">
        <ele>44.2</ele>
        <time>2022-03-02T14:40:02Z</time>
      </trkpt>
      <trkpt lat="49.94552" lon="2.20199">
        <ele>44.2</ele>
        <time>2022-03-02T14:40:03Z</time>
      </trkpt>
      <trkpt lat="49.94552" lon="2.20199">
        <ele>44.2</ele>
        <time>2022-03-02T14:40:04Z</time>
      </trkpt>
      <trkpt lat="49.94552" lon="2.20199">
        <ele>44.2</ele>
        <time>2022-03-02T14:40:05Z</time>
      </trkpt>
      <trkpt lat="49.94552" lon="2.20199">
        <ele>44.2</ele>
        <time>2022-03-02T14:40:06Z</time>
      </trkpt>
      <trkpt lat="49.94552" lon="2.20198">
        <ele>44.2</ele>
        <time>2022-03-02T14:40:07Z</time>
      </trkpt>
      <trkpt lat="49.94552" lon="2.20198">
        <ele>44.2</ele>
        <time>2022-03-02T14:40:08Z</time>
      </trkpt>
      <trkpt lat="49.94552" lon="2.20198">
        <ele>44.2</ele>
        <time>2022-03-02T14:40:09Z</time>
      </trkpt>
      <trkpt lat="49.94552" lon="2.20198">
        <ele>44.2</ele>
        <time>2022-03-02T14:40:10Z</time>
      </trkpt>
      <trkpt lat="49.94552" lon="2.20198">
        <ele>44.2</ele>
        <time>2022-03-02T14:40:11Z</time>
      </trkpt>
      <trkpt lat="49.94552" lon="2.20197">
        <ele>44.2</ele>
        <time>2022-03-02T14:40:12Z</time>
      </trkpt>
      <trkpt lat="49.94552" lon="2.20197">
        <ele>44.2</ele>
        <time>2022-03-02T14:40:13Z</time>
      </trkpt>
      <trkpt lat="49.94552" lon="2.20197">
        <ele>44.2</ele>
        <time>2022-03-02T14:40:14Z</time>
      </trkpt>
      <trkpt lat="49.94552" lon="2.20197">
        <ele>44.2</ele>
        <time>2022-03-02T14:40:16Z</time>
      </trkpt>
      <trkpt lat="49.94552" lon="2.20196">
        <ele>44.2</ele>
        <time>2022-03-02T14:40:17Z</time>
      </trkpt>
      <trkpt lat="49.94553" lon="2.20194">
        <ele>44.2</ele>
        <time>2022-03-02T14:40:18Z</time>
      </trkpt>
      <trkpt lat="49.94553" lon="2.20192">
        <ele>44.2</ele>
        <time>2022-03-02T14:40:19Z</time>
      </trkpt>
      <trkpt lat="49.94554" lon="2.2019">
        <ele>44.2</ele>
        <time>2022-03-02T14:40:20Z</time>
      </trkpt>
      <trkpt lat="49.94554" lon="2.20189">
        <ele>44.2</ele>
        <time>2022-03-02T14:40:21Z</time>
      </trkpt>
      <trkpt lat="49.94554" lon="2.20187">
        <ele>44.2</ele>
        <time>2022-03-02T14:40:22Z</time>
      </trkpt>
      <trkpt lat="49.94555" lon="2.20186">
        <ele>44.2</ele>
        <time>2022-03-02T14:40:23Z</time>
      </trkpt>
      <trkpt lat="49.94555" lon="2.20185">
        <ele>44.2</ele>
        <time>2022-03-02T14:40:24Z</time>
      </trkpt>
      <trkpt lat="49.94555" lon="2.20184">
        <ele>44.2</ele>
        <time>2022-03-02T14:40:25Z</time>
      </trkpt>
      <trkpt lat="49.94555" lon="2.20184">
        <ele>44.2</ele>
        <time>2022-03-02T14:40:26Z</time>
      </trkpt>
      <trkpt lat="49.94555" lon="2.20184">
        <ele>44.2</ele>
        <time>2022-03-02T14:40:27Z</time>
      </trkpt>
      <trkpt lat="49.94555" lon="2.20184">
        <ele>44.2</ele>
        <time>2022-03-02T14:40:28Z</time>
      </trkpt>
      <trkpt lat="49.94555" lon="2.20184">
        <ele>44.2</ele>
        <time>2022-03-02T14:40:29Z</time>
      </trkpt>
      <trkpt lat="49.94555" lon="2.20184">
        <ele>44.2</ele>
        <time>2022-03-02T14:40:30Z</time>
      </trkpt>
      <trkpt lat="49.94554" lon="2.20184">
        <ele>44.2</ele>
        <time>2022-03-02T14:40:31Z</time>
      </trkpt>
      <trkpt lat="49.94554" lon="2.20184">
        <ele>44.2</ele>
        <time>2022-03-02T14:40:32Z</time>
      </trkpt>
      <trkpt lat="49.94554" lon="2.20184">
        <ele>44.2</ele>
        <time>2022-03-02T14:40:33Z</time>
      </trkpt>
      <trkpt lat="49.94554" lon="2.20184">
        <ele>44.2</ele>
        <time>2022-03-02T14:40:34Z</time>
      </trkpt>
      <trkpt lat="49.94554" lon="2.20184">
        <ele>44.2</ele>
        <time>2022-03-02T14:40:35Z</time>
      </trkpt>
      <trkpt lat="49.94554" lon="2.20184">
        <ele>44.2</ele>
        <time>2022-03-02T14:40:36Z</time>
      </trkpt>
      <trkpt lat="49.94553" lon="2.20184">
        <ele>44.2</ele>
        <time>2022-03-02T14:40:37Z</time>
      </trkpt>
      <trkpt lat="49.94553" lon="2.20184">
        <ele>44.2</ele>
        <time>2022-03-02T14:40:38Z</time>
      </trkpt>
      <trkpt lat="49.94553" lon="2.20186">
        <ele>44.2</ele>
        <time>2022-03-02T14:40:39Z</time>
      </trkpt>
      <trkpt lat="49.94553" lon="2.20186">
        <ele>44.2</ele>
        <time>2022-03-02T14:40:40Z</time>
      </trkpt>
      <trkpt lat="49.94553" lon="2.20187">
        <ele>44.2</ele>
        <time>2022-03-02T14:40:41Z</time>
      </trkpt>
      <trkpt lat="49.94553" lon="2.20187">
        <ele>44.2</ele>
        <time>2022-03-02T14:40:42Z</time>
      </trkpt>
      <trkpt lat="49.94553" lon="2.20187">
        <ele>44.2</ele>
        <time>2022-03-02T14:40:43Z</time>
      </trkpt>
      <trkpt lat="49.94553" lon="2.20187">
        <ele>44.2</ele>
        <time>2022-03-02T14:40:44Z</time>
      </trkpt>
      <trkpt lat="49.94553" lon="2.20187">
        <ele>44.2</ele>
        <time>2022-03-02T14:40:45Z</time>
      </trkpt>
      <trkpt lat="49.94553" lon="2.20187">
        <ele>44.2</ele>
        <time>2022-03-02T14:40:46Z</time>
      </trkpt>
      <trkpt lat="49.94553" lon="2.20187">
        <ele>44.2</ele>
        <time>2022-03-02T14:40:47Z</time>
      </trkpt>
      <trkpt lat="49.94553" lon="2.20187">
        <ele>44.2</ele>
        <time>2022-03-02T14:40:48Z</time>
      </trkpt>
      <trkpt lat="49.94553" lon="2.20187">
        <ele>44.2</ele>
        <time>2022-03-02T14:40:49Z</time>
      </trkpt>
      <trkpt lat="49.94553" lon="2.20187">
        <ele>44.2</ele>
        <time>2022-03-02T14:40:50Z</time>
      </trkpt>
      <trkpt lat="49.94553" lon="2.20187">
        <ele>44.2</ele>
        <time>2022-03-02T14:40:51Z</time>
      </trkpt>
      <trkpt lat="49.94553" lon="2.20187">
        <ele>44.2</ele>
        <time>2022-03-02T14:40:52Z</time>
      </trkpt>
      <trkpt lat="49.94553" lon="2.20187">
        <ele>44.2</ele>
        <time>2022-03-02T14:40:53Z</time>
      </trkpt>
      <trkpt lat="49.94553" lon="2.20187">
        <ele>44.2</ele>
        <time>2022-03-02T14:40:54Z</time>
      </trkpt>
      <trkpt lat="49.94553" lon="2.20187">
        <ele>44.2</ele>
        <time>2022-03-02T14:40:55Z</time>
      </trkpt>
      <trkpt lat="49.94553" lon="2.20187">
        <ele>44.2</ele>
        <time>2022-03-02T14:40:56Z</time>
      </trkpt>
      <trkpt lat="49.94553" lon="2.20187">
        <ele>44.2</ele>
        <time>2022-03-02T14:40:57Z</time>
      </trkpt>
      <trkpt lat="49.94553" lon="2.20187">
        <ele>44.2</ele>
        <time>2022-03-02T14:40:58Z</time>
      </trkpt>
      <trkpt lat="49.94553" lon="2.20187">
        <ele>44.2</ele>
        <time>2022-03-02T14:40:59Z</time>
      </trkpt>
      <trkpt lat="49.94553" lon="2.20187">
        <ele>44.2</ele>
        <time>2022-03-02T14:41:00Z</time>
      </trkpt>
      <trkpt lat="49.94553" lon="2.20187">
        <ele>44.2</ele>
        <time>2022-03-02T14:41:01Z</time>
      </trkpt>
      <trkpt lat="49.94553" lon="2.20187">
        <ele>44.2</ele>
        <time>2022-03-02T14:41:02Z</time>
      </trkpt>
      <trkpt lat="49.94553" lon="2.20187">
        <ele>44.2</ele>
        <time>2022-03-02T14:41:03Z</time>
      </trkpt>
      <trkpt lat="49.94553" lon="2.20187">
        <ele>44.2</ele>
        <time>2022-03-02T14:41:04Z</time>
      </trkpt>
      <trkpt lat="49.94553" lon="2.20187">
        <ele>44.2</ele>
        <time>2022-03-02T14:41:05Z</time>
      </trkpt>
      <trkpt lat="49.94553" lon="2.20187">
        <ele>44.2</ele>
        <time>2022-03-02T14:41:06Z</time>
      </trkpt>
      <trkpt lat="49.94553" lon="2.20187">
        <ele>44.2</ele>
        <time>2022-03-02T14:41:07Z</time>
      </trkpt>
      <trkpt lat="49.94553" lon="2.20187">
        <ele>44.2</ele>
        <time>2022-03-02T14:41:08Z</time>
      </trkpt>
      <trkpt lat="49.94553" lon="2.20187">
        <ele>44.2</ele>
        <time>2022-03-02T14:41:09Z</time>
      </trkpt>
      <trkpt lat="49.94553" lon="2.20187">
        <ele>44.2</ele>
        <time>2022-03-02T14:41:10Z</time>
      </trkpt>
      <trkpt lat="49.94553" lon="2.20187">
        <ele>44.2</ele>
        <time>2022-03-02T14:41:11Z</time>
      </trkpt>
      <trkpt lat="49.94553" lon="2.20187">
        <ele>44.2</ele>
        <time>2022-03-02T14:41:12Z</time>
      </trkpt>
      <trkpt lat="49.94553" lon="2.20187">
        <ele>44.2</ele>
        <time>2022-03-02T14:41:13Z</time>
      </trkpt>
      <trkpt lat="49.94553" lon="2.20187">
        <ele>44.2</ele>
        <time>2022-03-02T14:41:14Z</time>
      </trkpt>
      <trkpt lat="49.94553" lon="2.20187">
        <ele>44.2</ele>
        <time>2022-03-02T14:41:15Z</time>
      </trkpt>
      <trkpt lat="49.94553" lon="2.20187">
        <ele>44.2</ele>
        <time>2022-03-02T14:41:16Z</time>
      </trkpt>
      <trkpt lat="49.94553" lon="2.20187">
        <ele>44.2</ele>
        <time>2022-03-02T14:41:17Z</time>
      </trkpt>
      <trkpt lat="49.94554" lon="2.20186">
        <ele>44.2</ele>
        <time>2022-03-02T14:41:18Z</time>
      </trkpt>
      <trkpt lat="49.94554" lon="2.20186">
        <ele>44.2</ele>
        <time>2022-03-02T14:41:19Z</time>
      </trkpt>
      <trkpt lat="49.94554" lon="2.20185">
        <ele>44.2</ele>
        <time>2022-03-02T14:41:20Z</time>
      </trkpt>
      <trkpt lat="49.94555" lon="2.20183">
        <ele>44.2</ele>
        <time>2022-03-02T14:41:21Z</time>
      </trkpt>
      <trkpt lat="49.94555" lon="2.20183">
        <ele>44.2</ele>
        <time>2022-03-02T14:41:22Z</time>
      </trkpt>
      <trkpt lat="49.94556" lon="2.20183">
        <ele>44.2</ele>
        <time>2022-03-02T14:41:24Z</time>
      </trkpt>
      <trkpt lat="49.94557" lon="2.20179">
        <ele>44.2</ele>
        <time>2022-03-02T14:41:25Z</time>
      </trkpt>
      <trkpt lat="49.94557" lon="2.20175">
        <ele>44.3</ele>
        <time>2022-03-02T14:41:26Z</time>
      </trkpt>
      <trkpt lat="49.94558" lon="2.20174">
        <ele>44.3</ele>
        <time>2022-03-02T14:41:27Z</time>
      </trkpt>
      <trkpt lat="49.94559" lon="2.20172">
        <ele>44.3</ele>
        <time>2022-03-02T14:41:28Z</time>
      </trkpt>
      <trkpt lat="49.94559" lon="2.20171">
        <ele>44.3</ele>
        <time>2022-03-02T14:41:30Z</time>
      </trkpt>
      <trkpt lat="49.9456" lon="2.2017">
        <ele>44.3</ele>
        <time>2022-03-02T14:41:31Z</time>
      </trkpt>
      <trkpt lat="49.94561" lon="2.20169">
        <ele>44.3</ele>
        <time>2022-03-02T14:41:32Z</time>
      </trkpt>
      <trkpt lat="49.94561" lon="2.20167">
        <ele>44.3</ele>
        <time>2022-03-02T14:41:33Z</time>
      </trkpt>
      <trkpt lat="49.94562" lon="2.20166">
        <ele>44.3</ele>
        <time>2022-03-02T14:41:34Z</time>
      </trkpt>
      <trkpt lat="49.94563" lon="2.20163">
        <ele>44.3</ele>
        <time>2022-03-02T14:41:35Z</time>
      </trkpt>
      <trkpt lat="49.94564" lon="2.20162">
        <ele>44.3</ele>
        <time>2022-03-02T14:41:36Z</time>
      </trkpt>
      <trkpt lat="49.94564" lon="2.20161">
        <ele>44.3</ele>
        <time>2022-03-02T14:41:37Z</time>
      </trkpt>
      <trkpt lat="49.94564" lon="2.20159">
        <ele>44.3</ele>
        <time>2022-03-02T14:41:38Z</time>
      </trkpt>
      <trkpt lat="49.94565" lon="2.20158">
        <ele>44.3</ele>
        <time>2022-03-02T14:41:39Z</time>
      </trkpt>
      <trkpt lat="49.94565" lon="2.20156">
        <ele>44.3</ele>
        <time>2022-03-02T14:41:41Z</time>
      </trkpt>
      <trkpt lat="49.94566" lon="2.20154">
        <ele>44.4</ele>
        <time>2022-03-02T14:41:42Z</time>
      </trkpt>
      <trkpt lat="49.94567" lon="2.20152">
        <ele>44.4</ele>
        <time>2022-03-02T14:41:43Z</time>
      </trkpt>
      <trkpt lat="49.94568" lon="2.20149">
        <ele>44.4</ele>
        <time>2022-03-02T14:41:44Z</time>
      </trkpt>
      <trkpt lat="49.94569" lon="2.20147">
        <ele>44.4</ele>
        <time>2022-03-02T14:41:45Z</time>
      </trkpt>
      <trkpt lat="49.94569" lon="2.20145">
        <ele>44.4</ele>
        <time>2022-03-02T14:41:46Z</time>
      </trkpt>
      <trkpt lat="49.9457" lon="2.20143">
        <ele>44.5</ele>
        <time>2022-03-02T14:41:47Z</time>
      </trkpt>
      <trkpt lat="49.9457" lon="2.2014">
        <ele>44.5</ele>
        <time>2022-03-02T14:41:48Z</time>
      </trkpt>
      <trkpt lat="49.94571" lon="2.20139">
        <ele>44.5</ele>
        <time>2022-03-02T14:41:49Z</time>
      </trkpt>
      <trkpt lat="49.94571" lon="2.20138">
        <ele>44.5</ele>
        <time>2022-03-02T14:41:50Z</time>
      </trkpt>
      <trkpt lat="49.94572" lon="2.20135">
        <ele>44.6</ele>
        <time>2022-03-02T14:41:51Z</time>
      </trkpt>
      <trkpt lat="49.94573" lon="2.20134">
        <ele>44.6</ele>
        <time>2022-03-02T14:41:52Z</time>
      </trkpt>
      <trkpt lat="49.94573" lon="2.20132">
        <ele>44.6</ele>
        <time>2022-03-02T14:41:53Z</time>
      </trkpt>
      <trkpt lat="49.94574" lon="2.2013">
        <ele>44.6</ele>
        <time>2022-03-02T14:41:55Z</time>
      </trkpt>
      <trkpt lat="49.94575" lon="2.20128">
        <ele>44.7</ele>
        <time>2022-03-02T14:41:56Z</time>
      </trkpt>
      <trkpt lat="49.94576" lon="2.20127">
        <ele>44.7</ele>
        <time>2022-03-02T14:41:57Z</time>
      </trkpt>
      <trkpt lat="49.94577" lon="2.20126">
        <ele>44.7</ele>
        <time>2022-03-02T14:41:58Z</time>
      </trkpt>
      <trkpt lat="49.94578" lon="2.20123">
        <ele>44.8</ele>
        <time>2022-03-02T14:41:59Z</time>
      </trkpt>
      <trkpt lat="49.94579" lon="2.20122">
        <ele>44.8</ele>
        <time>2022-03-02T14:42:00Z</time>
      </trkpt>
      <trkpt lat="49.94579" lon="2.20122">
        <ele>44.8</ele>
        <time>2022-03-02T14:42:01Z</time>
      </trkpt>
      <trkpt lat="49.94581" lon="2.20119">
        <ele>44.9</ele>
        <time>2022-03-02T14:42:02Z</time>
      </trkpt>
      <trkpt lat="49.94581" lon="2.20118">
        <ele>44.9</ele>
        <time>2022-03-02T14:42:03Z</time>
      </trkpt>
      <trkpt lat="49.94582" lon="2.20116">
        <ele>44.9</ele>
        <time>2022-03-02T14:42:04Z</time>
      </trkpt>
      <trkpt lat="49.94583" lon="2.20114">
        <ele>44.9</ele>
        <time>2022-03-02T14:42:06Z</time>
      </trkpt>
      <trkpt lat="49.94583" lon="2.20112">
        <ele>45</ele>
        <time>2022-03-02T14:42:07Z</time>
      </trkpt>
      <trkpt lat="49.94584" lon="2.2011">
        <ele>45</ele>
        <time>2022-03-02T14:42:08Z</time>
      </trkpt>
      <trkpt lat="49.94585" lon="2.20108">
        <ele>45</ele>
        <time>2022-03-02T14:42:09Z</time>
      </trkpt>
      <trkpt lat="49.94586" lon="2.20105">
        <ele>45.1</ele>
        <time>2022-03-02T14:42:10Z</time>
      </trkpt>
      <trkpt lat="49.94586" lon="2.20103">
        <ele>45.1</ele>
        <time>2022-03-02T14:42:12Z</time>
      </trkpt>
      <trkpt lat="49.94587" lon="2.20102">
        <ele>45.2</ele>
        <time>2022-03-02T14:42:13Z</time>
      </trkpt>
      <trkpt lat="49.94587" lon="2.201">
        <ele>45.2</ele>
        <time>2022-03-02T14:42:14Z</time>
      </trkpt>
      <trkpt lat="49.94588" lon="2.20098">
        <ele>45.2</ele>
        <time>2022-03-02T14:42:15Z</time>
      </trkpt>
      <trkpt lat="49.94588" lon="2.20096">
        <ele>45.3</ele>
        <time>2022-03-02T14:42:16Z</time>
      </trkpt>
      <trkpt lat="49.94589" lon="2.20095">
        <ele>45.3</ele>
        <time>2022-03-02T14:42:17Z</time>
      </trkpt>
      <trkpt lat="49.94589" lon="2.20094">
        <ele>45.3</ele>
        <time>2022-03-02T14:42:18Z</time>
      </trkpt>
      <trkpt lat="49.9459" lon="2.20092">
        <ele>45.4</ele>
        <time>2022-03-02T14:42:19Z</time>
      </trkpt>
      <trkpt lat="49.94591" lon="2.20091">
        <ele>45.4</ele>
        <time>2022-03-02T14:42:20Z</time>
      </trkpt>
      <trkpt lat="49.94591" lon="2.20089">
        <ele>45.4</ele>
        <time>2022-03-02T14:42:21Z</time>
      </trkpt>
      <trkpt lat="49.94593" lon="2.20086">
        <ele>45.5</ele>
        <time>2022-03-02T14:42:22Z</time>
      </trkpt>
      <trkpt lat="49.94593" lon="2.20085">
        <ele>45.5</ele>
        <time>2022-03-02T14:42:23Z</time>
      </trkpt>
      <trkpt lat="49.94593" lon="2.20084">
        <ele>45.6</ele>
        <time>2022-03-02T14:42:24Z</time>
      </trkpt>
      <trkpt lat="49.94594" lon="2.20081">
        <ele>45.6</ele>
        <time>2022-03-02T14:42:26Z</time>
      </trkpt>
      <trkpt lat="49.94595" lon="2.2008">
        <ele>45.7</ele>
        <time>2022-03-02T14:42:27Z</time>
      </trkpt>
      <trkpt lat="49.94595" lon="2.20079">
        <ele>45.7</ele>
        <time>2022-03-02T14:42:28Z</time>
      </trkpt>
      <trkpt lat="49.94596" lon="2.20077">
        <ele>45.8</ele>
        <time>2022-03-02T14:42:29Z</time>
      </trkpt>
      <trkpt lat="49.94597" lon="2.20075">
        <ele>45.8</ele>
        <time>2022-03-02T14:42:30Z</time>
      </trkpt>
      <trkpt lat="49.94597" lon="2.20074">
        <ele>45.8</ele>
        <time>2022-03-02T14:42:31Z</time>
      </trkpt>
      <trkpt lat="49.94598" lon="2.20071">
        <ele>45.9</ele>
        <time>2022-03-02T14:42:32Z</time>
      </trkpt>
      <trkpt lat="49.94599" lon="2.2007">
        <ele>46</ele>
        <time>2022-03-02T14:42:33Z</time>
      </trkpt>
      <trkpt lat="49.94599" lon="2.20069">
        <ele>46</ele>
        <time>2022-03-02T14:42:34Z</time>
      </trkpt>
      <trkpt lat="49.946" lon="2.20067">
        <ele>46</ele>
        <time>2022-03-02T14:42:35Z</time>
      </trkpt>
      <trkpt lat="49.946" lon="2.20066">
        <ele>46.1</ele>
        <time>2022-03-02T14:42:36Z</time>
      </trkpt>
      <trkpt lat="49.94601" lon="2.20065">
        <ele>46.1</ele>
        <time>2022-03-02T14:42:37Z</time>
      </trkpt>
      <trkpt lat="49.94602" lon="2.20063">
        <ele>46.2</ele>
        <time>2022-03-02T14:42:38Z</time>
      </trkpt>
      <trkpt lat="49.94602" lon="2.20061">
        <ele>46.2</ele>
        <time>2022-03-02T14:42:39Z</time>
      </trkpt>
      <trkpt lat="49.94603" lon="2.2006">
        <ele>46.3</ele>
        <time>2022-03-02T14:42:41Z</time>
      </trkpt>
      <trkpt lat="49.94603" lon="2.20058">
        <ele>46.4</ele>
        <time>2022-03-02T14:42:42Z</time>
      </trkpt>
      <trkpt lat="49.94604" lon="2.20057">
        <ele>46.4</ele>
        <time>2022-03-02T14:42:43Z</time>
      </trkpt>
      <trkpt lat="49.94604" lon="2.20055">
        <ele>46.5</ele>
        <time>2022-03-02T14:42:44Z</time>
      </trkpt>
      <trkpt lat="49.94605" lon="2.20054">
        <ele>46.5</ele>
        <time>2022-03-02T14:42:45Z</time>
      </trkpt>
      <trkpt lat="49.94605" lon="2.20052">
        <ele>46.5</ele>
        <time>2022-03-02T14:42:46Z</time>
      </trkpt>
      <trkpt lat="49.94605" lon="2.20051">
        <ele>46.6</ele>
        <time>2022-03-02T14:42:47Z</time>
      </trkpt>
      <trkpt lat="49.94606" lon="2.20049">
        <ele>46.7</ele>
        <time>2022-03-02T14:42:48Z</time>
      </trkpt>
      <trkpt lat="49.94607" lon="2.20047">
        <ele>46.7</ele>
        <time>2022-03-02T14:42:49Z</time>
      </trkpt>
      <trkpt lat="49.94608" lon="2.20044">
        <ele>46.9</ele>
        <time>2022-03-02T14:42:50Z</time>
      </trkpt>
      <trkpt lat="49.94609" lon="2.20042">
        <ele>46.9</ele>
        <time>2022-03-02T14:42:51Z</time>
      </trkpt>
      <trkpt lat="49.94609" lon="2.20041">
        <ele>46.9</ele>
        <time>2022-03-02T14:42:52Z</time>
      </trkpt>
      <trkpt lat="49.9461" lon="2.20039">
        <ele>47</ele>
        <time>2022-03-02T14:42:54Z</time>
      </trkpt>
      <trkpt lat="49.94611" lon="2.20036">
        <ele>47.1</ele>
        <time>2022-03-02T14:42:56Z</time>
      </trkpt>
      <trkpt lat="49.94612" lon="2.20033">
        <ele>47.2</ele>
        <time>2022-03-02T14:42:57Z</time>
      </trkpt>
      <trkpt lat="49.94612" lon="2.20032">
        <ele>47.3</ele>
        <time>2022-03-02T14:42:58Z</time>
      </trkpt>
      <trkpt lat="49.94613" lon="2.20031">
        <ele>47.3</ele>
        <time>2022-03-02T14:42:59Z</time>
      </trkpt>
      <trkpt lat="49.94614" lon="2.20028">
        <ele>47.4</ele>
        <time>2022-03-02T14:43:00Z</time>
      </trkpt>
      <trkpt lat="49.94615" lon="2.20027">
        <ele>47.5</ele>
        <time>2022-03-02T14:43:01Z</time>
      </trkpt>
      <trkpt lat="49.94615" lon="2.20026">
        <ele>47.5</ele>
        <time>2022-03-02T14:43:02Z</time>
      </trkpt>
      <trkpt lat="49.94617" lon="2.20023">
        <ele>47.6</ele>
        <time>2022-03-02T14:43:03Z</time>
      </trkpt>
      <trkpt lat="49.94617" lon="2.20022">
        <ele>47.7</ele>
        <time>2022-03-02T14:43:05Z</time>
      </trkpt>
      <trkpt lat="49.94617" lon="2.20021">
        <ele>47.7</ele>
        <time>2022-03-02T14:43:06Z</time>
      </trkpt>
      <trkpt lat="49.94618" lon="2.20019">
        <ele>47.7</ele>
        <time>2022-03-02T14:43:07Z</time>
      </trkpt>
      <trkpt lat="49.94619" lon="2.20018">
        <ele>47.8</ele>
        <time>2022-03-02T14:43:08Z</time>
      </trkpt>
      <trkpt lat="49.94619" lon="2.20016">
        <ele>47.9</ele>
        <time>2022-03-02T14:43:09Z</time>
      </trkpt>
      <trkpt lat="49.9462" lon="2.20013">
        <ele>48</ele>
        <time>2022-03-02T14:43:10Z</time>
      </trkpt>
      <trkpt lat="49.94621" lon="2.20012">
        <ele>48</ele>
        <time>2022-03-02T14:43:11Z</time>
      </trkpt>
      <trkpt lat="49.94621" lon="2.20011">
        <ele>48</ele>
        <time>2022-03-02T14:43:12Z</time>
      </trkpt>
      <trkpt lat="49.94622" lon="2.20008">
        <ele>48.1</ele>
        <time>2022-03-02T14:43:13Z</time>
      </trkpt>
      <trkpt lat="49.94623" lon="2.20007">
        <ele>48.2</ele>
        <time>2022-03-02T14:43:14Z</time>
      </trkpt>
      <trkpt lat="49.94623" lon="2.20006">
        <ele>48.2</ele>
        <time>2022-03-02T14:43:15Z</time>
      </trkpt>
      <trkpt lat="49.94624" lon="2.20004">
        <ele>48.3</ele>
        <time>2022-03-02T14:43:17Z</time>
      </trkpt>
      <trkpt lat="49.94625" lon="2.20002">
        <ele>48.4</ele>
        <time>2022-03-02T14:43:18Z</time>
      </trkpt>
      <trkpt lat="49.94626" lon="2.19999">
        <ele>48.5</ele>
        <time>2022-03-02T14:43:19Z</time>
      </trkpt>
      <trkpt lat="49.94626" lon="2.19998">
        <ele>48.5</ele>
        <time>2022-03-02T14:43:20Z</time>
      </trkpt>
      <trkpt lat="49.94627" lon="2.19997">
        <ele>48.5</ele>
        <time>2022-03-02T14:43:21Z</time>
      </trkpt>
      <trkpt lat="49.94628" lon="2.19995">
        <ele>48.6</ele>
        <time>2022-03-02T14:43:22Z</time>
      </trkpt>
      <trkpt lat="49.94628" lon="2.19994">
        <ele>48.6</ele>
        <time>2022-03-02T14:43:23Z</time>
      </trkpt>
      <trkpt lat="49.94629" lon="2.19993">
        <ele>48.7</ele>
        <time>2022-03-02T14:43:24Z</time>
      </trkpt>
      <trkpt lat="49.94629" lon="2.1999">
        <ele>48.7</ele>
        <time>2022-03-02T14:43:25Z</time>
      </trkpt>
      <trkpt lat="49.9463" lon="2.19989">
        <ele>48.8</ele>
        <time>2022-03-02T14:43:26Z</time>
      </trkpt>
      <trkpt lat="49.9463" lon="2.19988">
        <ele>48.8</ele>
        <time>2022-03-02T14:43:27Z</time>
      </trkpt>
      <trkpt lat="49.9463" lon="2.19987">
        <ele>48.8</ele>
        <time>2022-03-02T14:43:28Z</time>
      </trkpt>
      <trkpt lat="49.94631" lon="2.19985">
        <ele>48.9</ele>
        <time>2022-03-02T14:43:30Z</time>
      </trkpt>
      <trkpt lat="49.94632" lon="2.19983">
        <ele>49</ele>
        <time>2022-03-02T14:43:31Z</time>
      </trkpt>
      <trkpt lat="49.94632" lon="2.19981">
        <ele>49</ele>
        <time>2022-03-02T14:43:32Z</time>
      </trkpt>
      <trkpt lat="49.94633" lon="2.19979">
        <ele>49.1</ele>
        <time>2022-03-02T14:43:33Z</time>
      </trkpt>
      <trkpt lat="49.94633" lon="2.19977">
        <ele>49.1</ele>
        <time>2022-03-02T14:43:34Z</time>
      </trkpt>
      <trkpt lat="49.94634" lon="2.19975">
        <ele>49.2</ele>
        <time>2022-03-02T14:43:35Z</time>
      </trkpt>
      <trkpt lat="49.94635" lon="2.19973">
        <ele>49.2</ele>
        <time>2022-03-02T14:43:37Z</time>
      </trkpt>
      <trkpt lat="49.94635" lon="2.19971">
        <ele>49.3</ele>
        <time>2022-03-02T14:43:38Z</time>
      </trkpt>
      <trkpt lat="49.94636" lon="2.19969">
        <ele>49.3</ele>
        <time>2022-03-02T14:43:39Z</time>
      </trkpt>
      <trkpt lat="49.94637" lon="2.19967">
        <ele>49.4</ele>
        <time>2022-03-02T14:43:40Z</time>
      </trkpt>
      <trkpt lat="49.94638" lon="2.19965">
        <ele>49.5</ele>
        <time>2022-03-02T14:43:41Z</time>
      </trkpt>
      <trkpt lat="49.94639" lon="2.19963">
        <ele>49.5</ele>
        <time>2022-03-02T14:43:42Z</time>
      </trkpt>
      <trkpt lat="49.94639" lon="2.19962">
        <ele>49.6</ele>
        <time>2022-03-02T14:43:43Z</time>
      </trkpt>
      <trkpt lat="49.9464" lon="2.1996">
        <ele>49.6</ele>
        <time>2022-03-02T14:43:44Z</time>
      </trkpt>
      <trkpt lat="49.9464" lon="2.1996">
        <ele>49.6</ele>
        <time>2022-03-02T14:43:45Z</time>
      </trkpt>
      <trkpt lat="49.9464" lon="2.19959">
        <ele>49.6</ele>
        <time>2022-03-02T14:43:46Z</time>
      </trkpt>
      <trkpt lat="49.94641" lon="2.19956">
        <ele>49.7</ele>
        <time>2022-03-02T14:43:47Z</time>
      </trkpt>
      <trkpt lat="49.94641" lon="2.19955">
        <ele>49.7</ele>
        <time>2022-03-02T14:43:49Z</time>
      </trkpt>
      <trkpt lat="49.94642" lon="2.19954">
        <ele>49.8</ele>
        <time>2022-03-02T14:43:50Z</time>
      </trkpt>
      <trkpt lat="49.94643" lon="2.19951">
        <ele>49.9</ele>
        <time>2022-03-02T14:43:51Z</time>
      </trkpt>
      <trkpt lat="49.94644" lon="2.1995">
        <ele>49.9</ele>
        <time>2022-03-02T14:43:52Z</time>
      </trkpt>
      <trkpt lat="49.94644" lon="2.19949">
        <ele>49.9</ele>
        <time>2022-03-02T14:43:53Z</time>
      </trkpt>
      <trkpt lat="49.94645" lon="2.19947">
        <ele>50</ele>
        <time>2022-03-02T14:43:54Z</time>
      </trkpt>
      <trkpt lat="49.94645" lon="2.19946">
        <ele>50</ele>
        <time>2022-03-02T14:43:55Z</time>
      </trkpt>
      <trkpt lat="49.94646" lon="2.19945">
        <ele>50</ele>
        <time>2022-03-02T14:43:56Z</time>
      </trkpt>
      <trkpt lat="49.94647" lon="2.19943">
        <ele>50.1</ele>
        <time>2022-03-02T14:43:58Z</time>
      </trkpt>
      <trkpt lat="49.94648" lon="2.19941">
        <ele>50.2</ele>
        <time>2022-03-02T14:43:59Z</time>
      </trkpt>
      <trkpt lat="49.94649" lon="2.1994">
        <ele>50.2</ele>
        <time>2022-03-02T14:44:00Z</time>
      </trkpt>
      <trkpt lat="49.94649" lon="2.19939">
        <ele>50.2</ele>
        <time>2022-03-02T14:44:01Z</time>
      </trkpt>
      <trkpt lat="49.9465" lon="2.19937">
        <ele>50.3</ele>
        <time>2022-03-02T14:44:02Z</time>
      </trkpt>
      <trkpt lat="49.94651" lon="2.19936">
        <ele>50.3</ele>
        <time>2022-03-02T14:44:03Z</time>
      </trkpt>
      <trkpt lat="49.94652" lon="2.19934">
        <ele>50.4</ele>
        <time>2022-03-02T14:44:04Z</time>
      </trkpt>
      <trkpt lat="49.94653" lon="2.19933">
        <ele>50.4</ele>
        <time>2022-03-02T14:44:06Z</time>
      </trkpt>
      <trkpt lat="49.94654" lon="2.1993">
        <ele>50.5</ele>
        <time>2022-03-02T14:44:07Z</time>
      </trkpt>
      <trkpt lat="49.94654" lon="2.19929">
        <ele>50.5</ele>
        <time>2022-03-02T14:44:08Z</time>
      </trkpt>
      <trkpt lat="49.94655" lon="2.19928">
        <ele>50.6</ele>
        <time>2022-03-02T14:44:09Z</time>
      </trkpt>
      <trkpt lat="49.94656" lon="2.19925">
        <ele>50.6</ele>
        <time>2022-03-02T14:44:10Z</time>
      </trkpt>
      <trkpt lat="49.94656" lon="2.19924">
        <ele>50.7</ele>
        <time>2022-03-02T14:44:11Z</time>
      </trkpt>
      <trkpt lat="49.94657" lon="2.19923">
        <ele>50.7</ele>
        <time>2022-03-02T14:44:12Z</time>
      </trkpt>
      <trkpt lat="49.94658" lon="2.19921">
        <ele>50.8</ele>
        <time>2022-03-02T14:44:13Z</time>
      </trkpt>
      <trkpt lat="49.94659" lon="2.1992">
        <ele>50.8</ele>
        <time>2022-03-02T14:44:14Z</time>
      </trkpt>
      <trkpt lat="49.94659" lon="2.19919">
        <ele>50.8</ele>
        <time>2022-03-02T14:44:15Z</time>
      </trkpt>
      <trkpt lat="49.9466" lon="2.19917">
        <ele>50.9</ele>
        <time>2022-03-02T14:44:16Z</time>
      </trkpt>
      <trkpt lat="49.94661" lon="2.19916">
        <ele>50.9</ele>
        <time>2022-03-02T14:44:17Z</time>
      </trkpt>
      <trkpt lat="49.94662" lon="2.19913">
        <ele>51</ele>
        <time>2022-03-02T14:44:18Z</time>
      </trkpt>
      <trkpt lat="49.94663" lon="2.19912">
        <ele>51</ele>
        <time>2022-03-02T14:44:20Z</time>
      </trkpt>
      <trkpt lat="49.94664" lon="2.1991">
        <ele>51</ele>
        <time>2022-03-02T14:44:21Z</time>
      </trkpt>
      <trkpt lat="49.94665" lon="2.19908">
        <ele>51.1</ele>
        <time>2022-03-02T14:44:22Z</time>
      </trkpt>
      <trkpt lat="49.94666" lon="2.19907">
        <ele>51.1</ele>
        <time>2022-03-02T14:44:23Z</time>
      </trkpt>
      <trkpt lat="49.94667" lon="2.19905">
        <ele>51.2</ele>
        <time>2022-03-02T14:44:24Z</time>
      </trkpt>
      <trkpt lat="49.94669" lon="2.19903">
        <ele>51.2</ele>
        <time>2022-03-02T14:44:25Z</time>
      </trkpt>
      <trkpt lat="49.94669" lon="2.19902">
        <ele>51.2</ele>
        <time>2022-03-02T14:44:26Z</time>
      </trkpt>
      <trkpt lat="49.9467" lon="2.19901">
        <ele>51.3</ele>
        <time>2022-03-02T14:44:27Z</time>
      </trkpt>
      <trkpt lat="49.94672" lon="2.19899">
        <ele>51.3</ele>
        <time>2022-03-02T14:44:28Z</time>
      </trkpt>
      <trkpt lat="49.94672" lon="2.19898">
        <ele>51.3</ele>
        <time>2022-03-02T14:44:29Z</time>
      </trkpt>
      <trkpt lat="49.94673" lon="2.19897">
        <ele>51.4</ele>
        <time>2022-03-02T14:44:30Z</time>
      </trkpt>
      <trkpt lat="49.94674" lon="2.19896">
        <ele>51.4</ele>
        <time>2022-03-02T14:44:32Z</time>
      </trkpt>
      <trkpt lat="49.94675" lon="2.19894">
        <ele>51.4</ele>
        <time>2022-03-02T14:44:33Z</time>
      </trkpt>
      <trkpt lat="49.94675" lon="2.19893">
        <ele>51.5</ele>
        <time>2022-03-02T14:44:34Z</time>
      </trkpt>
      <trkpt lat="49.94676" lon="2.19891">
        <ele>51.5</ele>
        <time>2022-03-02T14:44:35Z</time>
      </trkpt>
      <trkpt lat="49.94677" lon="2.19889">
        <ele>51.5</ele>
        <time>2022-03-02T14:44:36Z</time>
      </trkpt>
      <trkpt lat="49.94678" lon="2.19888">
        <ele>51.6</ele>
        <time>2022-03-02T14:44:38Z</time>
      </trkpt>
      <trkpt lat="49.94679" lon="2.19886">
        <ele>51.6</ele>
        <time>2022-03-02T14:44:39Z</time>
      </trkpt>
      <trkpt lat="49.9468" lon="2.19884">
        <ele>51.7</ele>
        <time>2022-03-02T14:44:40Z</time>
      </trkpt>
      <trkpt lat="49.94681" lon="2.19883">
        <ele>51.7</ele>
        <time>2022-03-02T14:44:41Z</time>
      </trkpt>
      <trkpt lat="49.94681" lon="2.19882">
        <ele>51.7</ele>
        <time>2022-03-02T14:44:42Z</time>
      </trkpt>
      <trkpt lat="49.94682" lon="2.19881">
        <ele>51.7</ele>
        <time>2022-03-02T14:44:43Z</time>
      </trkpt>
      <trkpt lat="49.94683" lon="2.19879">
        <ele>51.8</ele>
        <time>2022-03-02T14:44:44Z</time>
      </trkpt>
      <trkpt lat="49.94683" lon="2.19878">
        <ele>51.8</ele>
        <time>2022-03-02T14:44:45Z</time>
      </trkpt>
      <trkpt lat="49.94685" lon="2.19875">
        <ele>51.9</ele>
        <time>2022-03-02T14:44:46Z</time>
      </trkpt>
      <trkpt lat="49.94685" lon="2.19873">
        <ele>51.9</ele>
        <time>2022-03-02T14:44:48Z</time>
      </trkpt>
      <trkpt lat="49.94686" lon="2.19872">
        <ele>51.9</ele>
        <time>2022-03-02T14:44:49Z</time>
      </trkpt>
      <trkpt lat="49.94686" lon="2.1987">
        <ele>51.9</ele>
        <time>2022-03-02T14:44:50Z</time>
      </trkpt>
      <trkpt lat="49.94687" lon="2.19869">
        <ele>52</ele>
        <time>2022-03-02T14:44:51Z</time>
      </trkpt>
      <trkpt lat="49.94687" lon="2.19867">
        <ele>52</ele>
        <time>2022-03-02T14:44:52Z</time>
      </trkpt>
      <trkpt lat="49.94688" lon="2.19865">
        <ele>52</ele>
        <time>2022-03-02T14:44:53Z</time>
      </trkpt>
      <trkpt lat="49.94689" lon="2.19863">
        <ele>52.1</ele>
        <time>2022-03-02T14:44:54Z</time>
      </trkpt>
      <trkpt lat="49.9469" lon="2.19861">
        <ele>52.1</ele>
        <time>2022-03-02T14:44:55Z</time>
      </trkpt>
      <trkpt lat="49.94691" lon="2.19859">
        <ele>52.1</ele>
        <time>2022-03-02T14:44:57Z</time>
      </trkpt>
      <trkpt lat="49.94691" lon="2.19857">
        <ele>52.2</ele>
        <time>2022-03-02T14:44:58Z</time>
      </trkpt>
      <trkpt lat="49.94692" lon="2.19855">
        <ele>52.2</ele>
        <time>2022-03-02T14:44:59Z</time>
      </trkpt>
      <trkpt lat="49.94692" lon="2.19854">
        <ele>52.2</ele>
        <time>2022-03-02T14:45:00Z</time>
      </trkpt>
      <trkpt lat="49.94693" lon="2.19851">
        <ele>52.2</ele>
        <time>2022-03-02T14:45:02Z</time>
      </trkpt>
      <trkpt lat="49.94694" lon="2.19849">
        <ele>52.3</ele>
        <time>2022-03-02T14:45:03Z</time>
      </trkpt>
      <trkpt lat="49.94694" lon="2.19847">
        <ele>52.3</ele>
        <time>2022-03-02T14:45:04Z</time>
      </trkpt>
      <trkpt lat="49.94695" lon="2.19844">
        <ele>52.4</ele>
        <time>2022-03-02T14:45:05Z</time>
      </trkpt>
      <trkpt lat="49.94696" lon="2.19843">
        <ele>52.4</ele>
        <time>2022-03-02T14:45:06Z</time>
      </trkpt>
      <trkpt lat="49.94696" lon="2.19842">
        <ele>52.4</ele>
        <time>2022-03-02T14:45:07Z</time>
      </trkpt>
      <trkpt lat="49.94697" lon="2.19841">
        <ele>52.4</ele>
        <time>2022-03-02T14:45:08Z</time>
      </trkpt>
      <trkpt lat="49.94698" lon="2.19839">
        <ele>52.4</ele>
        <time>2022-03-02T14:45:09Z</time>
      </trkpt>
      <trkpt lat="49.94698" lon="2.19837">
        <ele>52.5</ele>
        <time>2022-03-02T14:45:11Z</time>
      </trkpt>
      <trkpt lat="49.94699" lon="2.19835">
        <ele>52.5</ele>
        <time>2022-03-02T14:45:12Z</time>
      </trkpt>
      <trkpt lat="49.94699" lon="2.19834">
        <ele>52.5</ele>
        <time>2022-03-02T14:45:13Z</time>
      </trkpt>
      <trkpt lat="49.947" lon="2.19832">
        <ele>52.6</ele>
        <time>2022-03-02T14:45:14Z</time>
      </trkpt>
      <trkpt lat="49.94702" lon="2.19829">
        <ele>52.6</ele>
        <time>2022-03-02T14:45:16Z</time>
      </trkpt>
      <trkpt lat="49.94703" lon="2.19828">
        <ele>52.6</ele>
        <time>2022-03-02T14:45:17Z</time>
      </trkpt>
      <trkpt lat="49.94704" lon="2.19826">
        <ele>52.7</ele>
        <time>2022-03-02T14:45:18Z</time>
      </trkpt>
      <trkpt lat="49.94705" lon="2.19825">
        <ele>52.7</ele>
        <time>2022-03-02T14:45:19Z</time>
      </trkpt>
      <trkpt lat="49.94706" lon="2.19824">
        <ele>52.7</ele>
        <time>2022-03-02T14:45:20Z</time>
      </trkpt>
      <trkpt lat="49.94706" lon="2.19822">
        <ele>52.7</ele>
        <time>2022-03-02T14:45:21Z</time>
      </trkpt>
      <trkpt lat="49.94707" lon="2.19822">
        <ele>52.8</ele>
        <time>2022-03-02T14:45:22Z</time>
      </trkpt>
      <trkpt lat="49.94709" lon="2.1982">
        <ele>52.8</ele>
        <time>2022-03-02T14:45:24Z</time>
      </trkpt>
      <trkpt lat="49.94709" lon="2.19819">
        <ele>52.8</ele>
        <time>2022-03-02T14:45:25Z</time>
      </trkpt>
      <trkpt lat="49.9471" lon="2.19817">
        <ele>52.8</ele>
        <time>2022-03-02T14:45:26Z</time>
      </trkpt>
      <trkpt lat="49.94711" lon="2.19816">
        <ele>52.8</ele>
        <time>2022-03-02T14:45:27Z</time>
      </trkpt>
      <trkpt lat="49.94712" lon="2.19815">
        <ele>52.9</ele>
        <time>2022-03-02T14:45:28Z</time>
      </trkpt>
      <trkpt lat="49.94713" lon="2.19813">
        <ele>52.9</ele>
        <time>2022-03-02T14:45:30Z</time>
      </trkpt>
      <trkpt lat="49.94714" lon="2.19813">
        <ele>52.9</ele>
        <time>2022-03-02T14:45:31Z</time>
      </trkpt>
      <trkpt lat="49.94715" lon="2.19812">
        <ele>52.9</ele>
        <time>2022-03-02T14:45:32Z</time>
      </trkpt>
      <trkpt lat="49.94716" lon="2.19811">
        <ele>52.9</ele>
        <time>2022-03-02T14:45:33Z</time>
      </trkpt>
      <trkpt lat="49.94717" lon="2.19809">
        <ele>53</ele>
        <time>2022-03-02T14:45:34Z</time>
      </trkpt>
      <trkpt lat="49.94718" lon="2.19808">
        <ele>53</ele>
        <time>2022-03-02T14:45:35Z</time>
      </trkpt>
      <trkpt lat="49.94719" lon="2.19806">
        <ele>53</ele>
        <time>2022-03-02T14:45:36Z</time>
      </trkpt>
      <trkpt lat="49.94721" lon="2.19805">
        <ele>53</ele>
        <time>2022-03-02T14:45:37Z</time>
      </trkpt>
      <trkpt lat="49.94722" lon="2.19803">
        <ele>53</ele>
        <time>2022-03-02T14:45:38Z</time>
      </trkpt>
      <trkpt lat="49.94723" lon="2.19801">
        <ele>53.1</ele>
        <time>2022-03-02T14:45:40Z</time>
      </trkpt>
      <trkpt lat="49.94724" lon="2.198">
        <ele>53.1</ele>
        <time>2022-03-02T14:45:41Z</time>
      </trkpt>
      <trkpt lat="49.94725" lon="2.19798">
        <ele>53.1</ele>
        <time>2022-03-02T14:45:42Z</time>
      </trkpt>
      <trkpt lat="49.94726" lon="2.19796">
        <ele>53.1</ele>
        <time>2022-03-02T14:45:43Z</time>
      </trkpt>
      <trkpt lat="49.94727" lon="2.19794">
        <ele>53.2</ele>
        <time>2022-03-02T14:45:44Z</time>
      </trkpt>
      <trkpt lat="49.94729" lon="2.19792">
        <ele>53.2</ele>
        <time>2022-03-02T14:45:45Z</time>
      </trkpt>
      <trkpt lat="49.94729" lon="2.19791">
        <ele>53.2</ele>
        <time>2022-03-02T14:45:46Z</time>
      </trkpt>
      <trkpt lat="49.9473" lon="2.1979">
        <ele>53.2</ele>
        <time>2022-03-02T14:45:47Z</time>
      </trkpt>
      <trkpt lat="49.94731" lon="2.19788">
        <ele>53.2</ele>
        <time>2022-03-02T14:45:49Z</time>
      </trkpt>
      <trkpt lat="49.94732" lon="2.19787">
        <ele>53.2</ele>
        <time>2022-03-02T14:45:50Z</time>
      </trkpt>
      <trkpt lat="49.94733" lon="2.19786">
        <ele>53.2</ele>
        <time>2022-03-02T14:45:51Z</time>
      </trkpt>
      <trkpt lat="49.94734" lon="2.19783">
        <ele>53.2</ele>
        <time>2022-03-02T14:45:52Z</time>
      </trkpt>
      <trkpt lat="49.94735" lon="2.19782">
        <ele>53.3</ele>
        <time>2022-03-02T14:45:54Z</time>
      </trkpt>
      <trkpt lat="49.94735" lon="2.1978">
        <ele>53.3</ele>
        <time>2022-03-02T14:45:55Z</time>
      </trkpt>
      <trkpt lat="49.94736" lon="2.19779">
        <ele>53.3</ele>
        <time>2022-03-02T14:45:56Z</time>
      </trkpt>
      <trkpt lat="49.94737" lon="2.19777">
        <ele>53.3</ele>
        <time>2022-03-02T14:45:57Z</time>
      </trkpt>
      <trkpt lat="49.94738" lon="2.19775">
        <ele>53.3</ele>
        <time>2022-03-02T14:45:58Z</time>
      </trkpt>
      <trkpt lat="49.94739" lon="2.19774">
        <ele>53.3</ele>
        <time>2022-03-02T14:45:59Z</time>
      </trkpt>
      <trkpt lat="49.94739" lon="2.19773">
        <ele>53.3</ele>
        <time>2022-03-02T14:46:00Z</time>
      </trkpt>
      <trkpt lat="49.9474" lon="2.19771">
        <ele>53.3</ele>
        <time>2022-03-02T14:46:01Z</time>
      </trkpt>
      <trkpt lat="49.94741" lon="2.19769">
        <ele>53.3</ele>
        <time>2022-03-02T14:46:02Z</time>
      </trkpt>
      <trkpt lat="49.94742" lon="2.19766">
        <ele>53.3</ele>
        <time>2022-03-02T14:46:04Z</time>
      </trkpt>
      <trkpt lat="49.94743" lon="2.19765">
        <ele>53.4</ele>
        <time>2022-03-02T14:46:05Z</time>
      </trkpt>
      <trkpt lat="49.94744" lon="2.19764">
        <ele>53.4</ele>
        <time>2022-03-02T14:46:06Z</time>
      </trkpt>
      <trkpt lat="49.94744" lon="2.19763">
        <ele>53.4</ele>
        <time>2022-03-02T14:46:07Z</time>
      </trkpt>
      <trkpt lat="49.94745" lon="2.19761">
        <ele>53.4</ele>
        <time>2022-03-02T14:46:08Z</time>
      </trkpt>
      <trkpt lat="49.94746" lon="2.1976">
        <ele>53.4</ele>
        <time>2022-03-02T14:46:10Z</time>
      </trkpt>
      <trkpt lat="49.94747" lon="2.19758">
        <ele>53.4</ele>
        <time>2022-03-02T14:46:11Z</time>
      </trkpt>
      <trkpt lat="49.94748" lon="2.19757">
        <ele>53.4</ele>
        <time>2022-03-02T14:46:12Z</time>
      </trkpt>
      <trkpt lat="49.94749" lon="2.19755">
        <ele>53.4</ele>
        <time>2022-03-02T14:46:13Z</time>
      </trkpt>
      <trkpt lat="49.9475" lon="2.19753">
        <ele>53.4</ele>
        <time>2022-03-02T14:46:14Z</time>
      </trkpt>
      <trkpt lat="49.94752" lon="2.1975">
        <ele>53.4</ele>
        <time>2022-03-02T14:46:15Z</time>
      </trkpt>
      <trkpt lat="49.94753" lon="2.19749">
        <ele>53.4</ele>
        <time>2022-03-02T14:46:17Z</time>
      </trkpt>
      <trkpt lat="49.94754" lon="2.19748">
        <ele>53.4</ele>
        <time>2022-03-02T14:46:18Z</time>
      </trkpt>
      <trkpt lat="49.94755" lon="2.19747">
        <ele>53.4</ele>
        <time>2022-03-02T14:46:19Z</time>
      </trkpt>
      <trkpt lat="49.94755" lon="2.19745">
        <ele>53.4</ele>
        <time>2022-03-02T14:46:20Z</time>
      </trkpt>
      <trkpt lat="49.94757" lon="2.19743">
        <ele>53.4</ele>
        <time>2022-03-02T14:46:21Z</time>
      </trkpt>
      <trkpt lat="49.94758" lon="2.19742">
        <ele>53.4</ele>
        <time>2022-03-02T14:46:22Z</time>
      </trkpt>
      <trkpt lat="49.94758" lon="2.19742">
        <ele>53.4</ele>
        <time>2022-03-02T14:46:23Z</time>
      </trkpt>
      <trkpt lat="49.94759" lon="2.1974">
        <ele>53.5</ele>
        <time>2022-03-02T14:46:24Z</time>
      </trkpt>
      <trkpt lat="49.9476" lon="2.19738">
        <ele>53.5</ele>
        <time>2022-03-02T14:46:25Z</time>
      </trkpt>
      <trkpt lat="49.94761" lon="2.19736">
        <ele>53.5</ele>
        <time>2022-03-02T14:46:26Z</time>
      </trkpt>
      <trkpt lat="49.94762" lon="2.19735">
        <ele>53.5</ele>
        <time>2022-03-02T14:46:27Z</time>
      </trkpt>
      <trkpt lat="49.94762" lon="2.19734">
        <ele>53.5</ele>
        <time>2022-03-02T14:46:28Z</time>
      </trkpt>
      <trkpt lat="49.94764" lon="2.19731">
        <ele>53.5</ele>
        <time>2022-03-02T14:46:29Z</time>
      </trkpt>
      <trkpt lat="49.94765" lon="2.19729">
        <ele>53.5</ele>
        <time>2022-03-02T14:46:30Z</time>
      </trkpt>
      <trkpt lat="49.94766" lon="2.19727">
        <ele>53.5</ele>
        <time>2022-03-02T14:46:32Z</time>
      </trkpt>
      <trkpt lat="49.94767" lon="2.19726">
        <ele>53.5</ele>
        <time>2022-03-02T14:46:33Z</time>
      </trkpt>
      <trkpt lat="49.94767" lon="2.19725">
        <ele>53.5</ele>
        <time>2022-03-02T14:46:34Z</time>
      </trkpt>
      <trkpt lat="49.94768" lon="2.19723">
        <ele>53.5</ele>
        <time>2022-03-02T14:46:35Z</time>
      </trkpt>
      <trkpt lat="49.94769" lon="2.19722">
        <ele>53.5</ele>
        <time>2022-03-02T14:46:36Z</time>
      </trkpt>
      <trkpt lat="49.9477" lon="2.1972">
        <ele>53.5</ele>
        <time>2022-03-02T14:46:37Z</time>
      </trkpt>
      <trkpt lat="49.94771" lon="2.19719">
        <ele>53.5</ele>
        <time>2022-03-02T14:46:38Z</time>
      </trkpt>
      <trkpt lat="49.94772" lon="2.19716">
        <ele>53.5</ele>
        <time>2022-03-02T14:46:40Z</time>
      </trkpt>
      <trkpt lat="49.94773" lon="2.19715">
        <ele>53.5</ele>
        <time>2022-03-02T14:46:41Z</time>
      </trkpt>
      <trkpt lat="49.94774" lon="2.19714">
        <ele>53.5</ele>
        <time>2022-03-02T14:46:42Z</time>
      </trkpt>
      <trkpt lat="49.94775" lon="2.19713">
        <ele>53.5</ele>
        <time>2022-03-02T14:46:43Z</time>
      </trkpt>
      <trkpt lat="49.94776" lon="2.19712">
        <ele>53.5</ele>
        <time>2022-03-02T14:46:44Z</time>
      </trkpt>
      <trkpt lat="49.94777" lon="2.19711">
        <ele>53.5</ele>
        <time>2022-03-02T14:46:45Z</time>
      </trkpt>
      <trkpt lat="49.94778" lon="2.19709">
        <ele>53.5</ele>
        <time>2022-03-02T14:46:47Z</time>
      </trkpt>
      <trkpt lat="49.94779" lon="2.19708">
        <ele>53.5</ele>
        <time>2022-03-02T14:46:48Z</time>
      </trkpt>
      <trkpt lat="49.94779" lon="2.19706">
        <ele>53.5</ele>
        <time>2022-03-02T14:46:49Z</time>
      </trkpt>
      <trkpt lat="49.9478" lon="2.19705">
        <ele>53.5</ele>
        <time>2022-03-02T14:46:50Z</time>
      </trkpt>
      <trkpt lat="49.94781" lon="2.19703">
        <ele>53.5</ele>
        <time>2022-03-02T14:46:51Z</time>
      </trkpt>
      <trkpt lat="49.94782" lon="2.19701">
        <ele>53.5</ele>
        <time>2022-03-02T14:46:52Z</time>
      </trkpt>
      <trkpt lat="49.94783" lon="2.19699">
        <ele>53.5</ele>
        <time>2022-03-02T14:46:53Z</time>
      </trkpt>
      <trkpt lat="49.94783" lon="2.19698">
        <ele>53.5</ele>
        <time>2022-03-02T14:46:54Z</time>
      </trkpt>
      <trkpt lat="49.94784" lon="2.19697">
        <ele>53.5</ele>
        <time>2022-03-02T14:46:55Z</time>
      </trkpt>
      <trkpt lat="49.94785" lon="2.19695">
        <ele>53.5</ele>
        <time>2022-03-02T14:46:56Z</time>
      </trkpt>
      <trkpt lat="49.94785" lon="2.19694">
        <ele>53.5</ele>
        <time>2022-03-02T14:46:57Z</time>
      </trkpt>
      <trkpt lat="49.94786" lon="2.19692">
        <ele>53.5</ele>
        <time>2022-03-02T14:46:58Z</time>
      </trkpt>
      <trkpt lat="49.94787" lon="2.1969">
        <ele>53.5</ele>
        <time>2022-03-02T14:46:59Z</time>
      </trkpt>
      <trkpt lat="49.94788" lon="2.19688">
        <ele>53.5</ele>
        <time>2022-03-02T14:47:01Z</time>
      </trkpt>
      <trkpt lat="49.94789" lon="2.19686">
        <ele>53.5</ele>
        <time>2022-03-02T14:47:02Z</time>
      </trkpt>
      <trkpt lat="49.9479" lon="2.19685">
        <ele>53.5</ele>
        <time>2022-03-02T14:47:03Z</time>
      </trkpt>
      <trkpt lat="49.94791" lon="2.19684">
        <ele>53.5</ele>
        <time>2022-03-02T14:47:04Z</time>
      </trkpt>
      <trkpt lat="49.94792" lon="2.19683">
        <ele>53.5</ele>
        <time>2022-03-02T14:47:05Z</time>
      </trkpt>
      <trkpt lat="49.94792" lon="2.19681">
        <ele>53.5</ele>
        <time>2022-03-02T14:47:06Z</time>
      </trkpt>
      <trkpt lat="49.94794" lon="2.19679">
        <ele>53.5</ele>
        <time>2022-03-02T14:47:07Z</time>
      </trkpt>
      <trkpt lat="49.94794" lon="2.19678">
        <ele>53.5</ele>
        <time>2022-03-02T14:47:08Z</time>
      </trkpt>
      <trkpt lat="49.94795" lon="2.19677">
        <ele>53.5</ele>
        <time>2022-03-02T14:47:09Z</time>
      </trkpt>
      <trkpt lat="49.94796" lon="2.19675">
        <ele>53.5</ele>
        <time>2022-03-02T14:47:10Z</time>
      </trkpt>
      <trkpt lat="49.94797" lon="2.19673">
        <ele>53.5</ele>
        <time>2022-03-02T14:47:11Z</time>
      </trkpt>
      <trkpt lat="49.94799" lon="2.19671">
        <ele>53.5</ele>
        <time>2022-03-02T14:47:13Z</time>
      </trkpt>
      <trkpt lat="49.94799" lon="2.1967">
        <ele>53.5</ele>
        <time>2022-03-02T14:47:14Z</time>
      </trkpt>
      <trkpt lat="49.948" lon="2.19669">
        <ele>53.5</ele>
        <time>2022-03-02T14:47:15Z</time>
      </trkpt>
      <trkpt lat="49.94801" lon="2.19667">
        <ele>53.5</ele>
        <time>2022-03-02T14:47:16Z</time>
      </trkpt>
      <trkpt lat="49.94802" lon="2.19666">
        <ele>53.5</ele>
        <time>2022-03-02T14:47:17Z</time>
      </trkpt>
      <trkpt lat="49.94804" lon="2.19664">
        <ele>53.5</ele>
        <time>2022-03-02T14:47:18Z</time>
      </trkpt>
      <trkpt lat="49.94804" lon="2.19663">
        <ele>53.4</ele>
        <time>2022-03-02T14:47:19Z</time>
      </trkpt>
      <trkpt lat="49.94805" lon="2.19662">
        <ele>53.4</ele>
        <time>2022-03-02T14:47:20Z</time>
      </trkpt>
      <trkpt lat="49.94807" lon="2.1966">
        <ele>53.4</ele>
        <time>2022-03-02T14:47:22Z</time>
      </trkpt>
      <trkpt lat="49.94807" lon="2.19659">
        <ele>53.4</ele>
        <time>2022-03-02T14:47:23Z</time>
      </trkpt>
      <trkpt lat="49.94808" lon="2.19659">
        <ele>53.4</ele>
        <time>2022-03-02T14:47:24Z</time>
      </trkpt>
      <trkpt lat="49.9481" lon="2.19656">
        <ele>53.4</ele>
        <time>2022-03-02T14:47:25Z</time>
      </trkpt>
      <trkpt lat="49.9481" lon="2.19656">
        <ele>53.4</ele>
        <time>2022-03-02T14:47:26Z</time>
      </trkpt>
      <trkpt lat="49.94811" lon="2.19655">
        <ele>53.3</ele>
        <time>2022-03-02T14:47:27Z</time>
      </trkpt>
      <trkpt lat="49.94812" lon="2.19652">
        <ele>53.3</ele>
        <time>2022-03-02T14:47:28Z</time>
      </trkpt>
      <trkpt lat="49.94813" lon="2.19651">
        <ele>53.3</ele>
        <time>2022-03-02T14:47:29Z</time>
      </trkpt>
      <trkpt lat="49.94813" lon="2.1965">
        <ele>53.3</ele>
        <time>2022-03-02T14:47:30Z</time>
      </trkpt>
      <trkpt lat="49.94815" lon="2.19648">
        <ele>53.2</ele>
        <time>2022-03-02T14:47:31Z</time>
      </trkpt>
      <trkpt lat="49.94816" lon="2.19646">
        <ele>53.2</ele>
        <time>2022-03-02T14:47:32Z</time>
      </trkpt>
      <trkpt lat="49.94817" lon="2.19644">
        <ele>53.2</ele>
        <time>2022-03-02T14:47:34Z</time>
      </trkpt>
      <trkpt lat="49.94818" lon="2.19643">
        <ele>53.2</ele>
        <time>2022-03-02T14:47:35Z</time>
      </trkpt>
      <trkpt lat="49.94819" lon="2.19641">
        <ele>53.1</ele>
        <time>2022-03-02T14:47:36Z</time>
      </trkpt>
      <trkpt lat="49.9482" lon="2.1964">
        <ele>53.1</ele>
        <time>2022-03-02T14:47:37Z</time>
      </trkpt>
      <trkpt lat="49.9482" lon="2.19639">
        <ele>53.1</ele>
        <time>2022-03-02T14:47:38Z</time>
      </trkpt>
      <trkpt lat="49.94821" lon="2.19639">
        <ele>53.1</ele>
        <time>2022-03-02T14:47:39Z</time>
      </trkpt>
      <trkpt lat="49.94822" lon="2.19637">
        <ele>53.1</ele>
        <time>2022-03-02T14:47:40Z</time>
      </trkpt>
      <trkpt lat="49.94823" lon="2.19636">
        <ele>53.1</ele>
        <time>2022-03-02T14:47:41Z</time>
      </trkpt>
      <trkpt lat="49.94824" lon="2.19634">
        <ele>53.1</ele>
        <time>2022-03-02T14:47:42Z</time>
      </trkpt>
      <trkpt lat="49.94825" lon="2.19632">
        <ele>53</ele>
        <time>2022-03-02T14:47:43Z</time>
      </trkpt>
      <trkpt lat="49.94826" lon="2.1963">
        <ele>53</ele>
        <time>2022-03-02T14:47:45Z</time>
      </trkpt>
      <trkpt lat="49.94827" lon="2.19629">
        <ele>53</ele>
        <time>2022-03-02T14:47:46Z</time>
      </trkpt>
      <trkpt lat="49.94828" lon="2.19627">
        <ele>53</ele>
        <time>2022-03-02T14:47:47Z</time>
      </trkpt>
      <trkpt lat="49.94828" lon="2.19626">
        <ele>53</ele>
        <time>2022-03-02T14:47:48Z</time>
      </trkpt>
      <trkpt lat="49.94829" lon="2.19625">
        <ele>53</ele>
        <time>2022-03-02T14:47:49Z</time>
      </trkpt>
      <trkpt lat="49.9483" lon="2.19623">
        <ele>52.9</ele>
        <time>2022-03-02T14:47:50Z</time>
      </trkpt>
      <trkpt lat="49.94831" lon="2.19622">
        <ele>52.9</ele>
        <time>2022-03-02T14:47:51Z</time>
      </trkpt>
      <trkpt lat="49.94832" lon="2.19621">
        <ele>52.9</ele>
        <time>2022-03-02T14:47:53Z</time>
      </trkpt>
      <trkpt lat="49.94833" lon="2.1962">
        <ele>52.9</ele>
        <time>2022-03-02T14:47:54Z</time>
      </trkpt>
      <trkpt lat="49.94834" lon="2.19619">
        <ele>52.9</ele>
        <time>2022-03-02T14:47:55Z</time>
      </trkpt>
      <trkpt lat="49.94835" lon="2.19618">
        <ele>52.9</ele>
        <time>2022-03-02T14:47:56Z</time>
      </trkpt>
      <trkpt lat="49.94836" lon="2.19616">
        <ele>52.9</ele>
        <time>2022-03-02T14:47:57Z</time>
      </trkpt>
      <trkpt lat="49.94837" lon="2.19614">
        <ele>52.8</ele>
        <time>2022-03-02T14:47:58Z</time>
      </trkpt>
      <trkpt lat="49.94838" lon="2.19613">
        <ele>52.8</ele>
        <time>2022-03-02T14:48:00Z</time>
      </trkpt>
      <trkpt lat="49.9484" lon="2.19611">
        <ele>52.8</ele>
        <time>2022-03-02T14:48:01Z</time>
      </trkpt>
      <trkpt lat="49.94841" lon="2.19609">
        <ele>52.8</ele>
        <time>2022-03-02T14:48:02Z</time>
      </trkpt>
      <trkpt lat="49.94842" lon="2.19608">
        <ele>52.8</ele>
        <time>2022-03-02T14:48:04Z</time>
      </trkpt>
      <trkpt lat="49.94842" lon="2.19607">
        <ele>52.8</ele>
        <time>2022-03-02T14:48:05Z</time>
      </trkpt>
      <trkpt lat="49.94842" lon="2.19607">
        <ele>52.8</ele>
        <time>2022-03-02T14:48:06Z</time>
      </trkpt>
      <trkpt lat="49.94843" lon="2.19605">
        <ele>52.8</ele>
        <time>2022-03-02T14:48:08Z</time>
      </trkpt>
      <trkpt lat="49.94844" lon="2.19604">
        <ele>52.7</ele>
        <time>2022-03-02T14:48:09Z</time>
      </trkpt>
      <trkpt lat="49.94844" lon="2.19603">
        <ele>52.7</ele>
        <time>2022-03-02T14:48:10Z</time>
      </trkpt>
      <trkpt lat="49.94845" lon="2.19603">
        <ele>52.7</ele>
        <time>2022-03-02T14:48:11Z</time>
      </trkpt>
      <trkpt lat="49.94845" lon="2.19603">
        <ele>52.7</ele>
        <time>2022-03-02T14:48:12Z</time>
      </trkpt>
      <trkpt lat="49.94845" lon="2.19602">
        <ele>52.7</ele>
        <time>2022-03-02T14:48:13Z</time>
      </trkpt>
      <trkpt lat="49.94845" lon="2.19602">
        <ele>52.7</ele>
        <time>2022-03-02T14:48:14Z</time>
      </trkpt>
      <trkpt lat="49.94845" lon="2.19603">
        <ele>52.7</ele>
        <time>2022-03-02T14:48:15Z</time>
      </trkpt>
      <trkpt lat="49.94845" lon="2.19603">
        <ele>52.7</ele>
        <time>2022-03-02T14:48:16Z</time>
      </trkpt>
      <trkpt lat="49.94845" lon="2.19603">
        <ele>52.7</ele>
        <time>2022-03-02T14:48:17Z</time>
      </trkpt>
      <trkpt lat="49.94844" lon="2.19603">
        <ele>52.7</ele>
        <time>2022-03-02T14:48:18Z</time>
      </trkpt>
      <trkpt lat="49.94844" lon="2.19603">
        <ele>52.7</ele>
        <time>2022-03-02T14:48:19Z</time>
      </trkpt>
      <trkpt lat="49.94844" lon="2.19604">
        <ele>52.7</ele>
        <time>2022-03-02T14:48:20Z</time>
      </trkpt>
      <trkpt lat="49.94844" lon="2.19604">
        <ele>52.7</ele>
        <time>2022-03-02T14:48:21Z</time>
      </trkpt>
      <trkpt lat="49.94844" lon="2.19604">
        <ele>52.7</ele>
        <time>2022-03-02T14:48:22Z</time>
      </trkpt>
      <trkpt lat="49.94844" lon="2.19603">
        <ele>52.7</ele>
        <time>2022-03-02T14:48:23Z</time>
      </trkpt>
      <trkpt lat="49.94844" lon="2.19603">
        <ele>52.7</ele>
        <time>2022-03-02T14:48:24Z</time>
      </trkpt>
      <trkpt lat="49.94844" lon="2.19603">
        <ele>52.7</ele>
        <time>2022-03-02T14:48:25Z</time>
      </trkpt>
      <trkpt lat="49.94844" lon="2.19603">
        <ele>52.7</ele>
        <time>2022-03-02T14:48:26Z</time>
      </trkpt>
      <trkpt lat="49.94844" lon="2.19603">
        <ele>52.7</ele>
        <time>2022-03-02T14:48:27Z</time>
      </trkpt>
      <trkpt lat="49.94843" lon="2.19603">
        <ele>52.7</ele>
        <time>2022-03-02T14:48:28Z</time>
      </trkpt>
      <trkpt lat="49.94843" lon="2.19604">
        <ele>52.7</ele>
        <time>2022-03-02T14:48:29Z</time>
      </trkpt>
      <trkpt lat="49.94843" lon="2.19604">
        <ele>52.7</ele>
        <time>2022-03-02T14:48:30Z</time>
      </trkpt>
      <trkpt lat="49.94843" lon="2.19604">
        <ele>52.7</ele>
        <time>2022-03-02T14:48:31Z</time>
      </trkpt>
      <trkpt lat="49.94843" lon="2.19604">
        <ele>52.7</ele>
        <time>2022-03-02T14:48:32Z</time>
      </trkpt>
      <trkpt lat="49.94842" lon="2.19605">
        <ele>52.7</ele>
        <time>2022-03-02T14:48:33Z</time>
      </trkpt>
      <trkpt lat="49.94842" lon="2.19605">
        <ele>52.7</ele>
        <time>2022-03-02T14:48:34Z</time>
      </trkpt>
      <trkpt lat="49.94843" lon="2.19604">
        <ele>52.7</ele>
        <time>2022-03-02T14:48:35Z</time>
      </trkpt>
      <trkpt lat="49.94844" lon="2.19604">
        <ele>52.6</ele>
        <time>2022-03-02T14:48:37Z</time>
      </trkpt>
      <trkpt lat="49.94844" lon="2.19604">
        <ele>52.6</ele>
        <time>2022-03-02T14:48:38Z</time>
      </trkpt>
      <trkpt lat="49.94845" lon="2.19604">
        <ele>52.6</ele>
        <time>2022-03-02T14:48:39Z</time>
      </trkpt>
      <trkpt lat="49.94846" lon="2.19603">
        <ele>52.6</ele>
        <time>2022-03-02T14:48:40Z</time>
      </trkpt>
      <trkpt lat="49.94847" lon="2.19603">
        <ele>52.6</ele>
        <time>2022-03-02T14:48:41Z</time>
      </trkpt>
      <trkpt lat="49.94848" lon="2.19602">
        <ele>52.6</ele>
        <time>2022-03-02T14:48:43Z</time>
      </trkpt>
      <trkpt lat="49.94849" lon="2.19601">
        <ele>52.6</ele>
        <time>2022-03-02T14:48:44Z</time>
      </trkpt>
      <trkpt lat="49.94849" lon="2.196">
        <ele>52.6</ele>
        <time>2022-03-02T14:48:45Z</time>
      </trkpt>
      <trkpt lat="49.9485" lon="2.19599">
        <ele>52.6</ele>
        <time>2022-03-02T14:48:46Z</time>
      </trkpt>
      <trkpt lat="49.94851" lon="2.19597">
        <ele>52.5</ele>
        <time>2022-03-02T14:48:47Z</time>
      </trkpt>
      <trkpt lat="49.94851" lon="2.19596">
        <ele>52.5</ele>
        <time>2022-03-02T14:48:48Z</time>
      </trkpt>
      <trkpt lat="49.94852" lon="2.19595">
        <ele>52.5</ele>
        <time>2022-03-02T14:48:49Z</time>
      </trkpt>
      <trkpt lat="49.94852" lon="2.19594">
        <ele>52.5</ele>
        <time>2022-03-02T14:48:50Z</time>
      </trkpt>
      <trkpt lat="49.94853" lon="2.19593">
        <ele>52.5</ele>
        <time>2022-03-02T14:48:52Z</time>
      </trkpt>
      <trkpt lat="49.94854" lon="2.19592">
        <ele>52.5</ele>
        <time>2022-03-02T14:48:53Z</time>
      </trkpt>
      <trkpt lat="49.94854" lon="2.1959">
        <ele>52.5</ele>
        <time>2022-03-02T14:48:54Z</time>
      </trkpt>
      <trkpt lat="49.94855" lon="2.19589">
        <ele>52.5</ele>
        <time>2022-03-02T14:48:55Z</time>
      </trkpt>
      <trkpt lat="49.94856" lon="2.19588">
        <ele>52.5</ele>
        <time>2022-03-02T14:48:56Z</time>
      </trkpt>
      <trkpt lat="49.94857" lon="2.19586">
        <ele>52.5</ele>
        <time>2022-03-02T14:48:58Z</time>
      </trkpt>
      <trkpt lat="49.94857" lon="2.19585">
        <ele>52.5</ele>
        <time>2022-03-02T14:48:59Z</time>
      </trkpt>
      <trkpt lat="49.94858" lon="2.19584">
        <ele>52.4</ele>
        <time>2022-03-02T14:49:00Z</time>
      </trkpt>
      <trkpt lat="49.94859" lon="2.19583">
        <ele>52.4</ele>
        <time>2022-03-02T14:49:01Z</time>
      </trkpt>
      <trkpt lat="49.9486" lon="2.19582">
        <ele>52.4</ele>
        <time>2022-03-02T14:49:02Z</time>
      </trkpt>
      <trkpt lat="49.94861" lon="2.19581">
        <ele>52.4</ele>
        <time>2022-03-02T14:49:03Z</time>
      </trkpt>
      <trkpt lat="49.94861" lon="2.19579">
        <ele>52.4</ele>
        <time>2022-03-02T14:49:04Z</time>
      </trkpt>
      <trkpt lat="49.94862" lon="2.19578">
        <ele>52.4</ele>
        <time>2022-03-02T14:49:05Z</time>
      </trkpt>
      <trkpt lat="49.94863" lon="2.19577">
        <ele>52.4</ele>
        <time>2022-03-02T14:49:07Z</time>
      </trkpt>
      <trkpt lat="49.94864" lon="2.19575">
        <ele>52.4</ele>
        <time>2022-03-02T14:49:08Z</time>
      </trkpt>
      <trkpt lat="49.94864" lon="2.19572">
        <ele>52.4</ele>
        <time>2022-03-02T14:49:09Z</time>
      </trkpt>
      <trkpt lat="49.94865" lon="2.19571">
        <ele>52.4</ele>
        <time>2022-03-02T14:49:10Z</time>
      </trkpt>
      <trkpt lat="49.94865" lon="2.1957">
        <ele>52.4</ele>
        <time>2022-03-02T14:49:11Z</time>
      </trkpt>
      <trkpt lat="49.94866" lon="2.19569">
        <ele>52.4</ele>
        <time>2022-03-02T14:49:13Z</time>
      </trkpt>
      <trkpt lat="49.94866" lon="2.19568">
        <ele>52.4</ele>
        <time>2022-03-02T14:49:14Z</time>
      </trkpt>
      <trkpt lat="49.94866" lon="2.19567">
        <ele>52.4</ele>
        <time>2022-03-02T14:49:15Z</time>
      </trkpt>
      <trkpt lat="49.94866" lon="2.19565">
        <ele>52.4</ele>
        <time>2022-03-02T14:49:16Z</time>
      </trkpt>
      <trkpt lat="49.94867" lon="2.19564">
        <ele>52.4</ele>
        <time>2022-03-02T14:49:17Z</time>
      </trkpt>
      <trkpt lat="49.94867" lon="2.19562">
        <ele>52.4</ele>
        <time>2022-03-02T14:49:18Z</time>
      </trkpt>
      <trkpt lat="49.94868" lon="2.19561">
        <ele>52.4</ele>
        <time>2022-03-02T14:49:19Z</time>
      </trkpt>
      <trkpt lat="49.9487" lon="2.19559">
        <ele>52.4</ele>
        <time>2022-03-02T14:49:21Z</time>
      </trkpt>
      <trkpt lat="49.94871" lon="2.19558">
        <ele>52.4</ele>
        <time>2022-03-02T14:49:22Z</time>
      </trkpt>
      <trkpt lat="49.94871" lon="2.19557">
        <ele>52.4</ele>
        <time>2022-03-02T14:49:23Z</time>
      </trkpt>
      <trkpt lat="49.94873" lon="2.19556">
        <ele>52.4</ele>
        <time>2022-03-02T14:49:24Z</time>
      </trkpt>
      <trkpt lat="49.94874" lon="2.19556">
        <ele>52.4</ele>
        <time>2022-03-02T14:49:25Z</time>
      </trkpt>
      <trkpt lat="49.94875" lon="2.19555">
        <ele>52.4</ele>
        <time>2022-03-02T14:49:26Z</time>
      </trkpt>
      <trkpt lat="49.94876" lon="2.19554">
        <ele>52.4</ele>
        <time>2022-03-02T14:49:27Z</time>
      </trkpt>
      <trkpt lat="49.94876" lon="2.19554">
        <ele>52.4</ele>
        <time>2022-03-02T14:49:28Z</time>
      </trkpt>
      <trkpt lat="49.94877" lon="2.19552">
        <ele>52.4</ele>
        <time>2022-03-02T14:49:30Z</time>
      </trkpt>
      <trkpt lat="49.94878" lon="2.19551">
        <ele>52.4</ele>
        <time>2022-03-02T14:49:31Z</time>
      </trkpt>
      <trkpt lat="49.94879" lon="2.1955">
        <ele>52.4</ele>
        <time>2022-03-02T14:49:32Z</time>
      </trkpt>
      <trkpt lat="49.94879" lon="2.19548">
        <ele>52.4</ele>
        <time>2022-03-02T14:49:33Z</time>
      </trkpt>
      <trkpt lat="49.9488" lon="2.19546">
        <ele>52.4</ele>
        <time>2022-03-02T14:49:34Z</time>
      </trkpt>
      <trkpt lat="49.94881" lon="2.19545">
        <ele>52.4</ele>
        <time>2022-03-02T14:49:35Z</time>
      </trkpt>
      <trkpt lat="49.94882" lon="2.19543">
        <ele>52.4</ele>
        <time>2022-03-02T14:49:36Z</time>
      </trkpt>
      <trkpt lat="49.94883" lon="2.19542">
        <ele>52.4</ele>
        <time>2022-03-02T14:49:37Z</time>
      </trkpt>
      <trkpt lat="49.94884" lon="2.19541">
        <ele>52.4</ele>
        <time>2022-03-02T14:49:38Z</time>
      </trkpt>
      <trkpt lat="49.94885" lon="2.1954">
        <ele>52.4</ele>
        <time>2022-03-02T14:49:39Z</time>
      </trkpt>
      <trkpt lat="49.94886" lon="2.19538">
        <ele>52.4</ele>
        <time>2022-03-02T14:49:40Z</time>
      </trkpt>
      <trkpt lat="49.94887" lon="2.19537">
        <ele>52.5</ele>
        <time>2022-03-02T14:49:41Z</time>
      </trkpt>
      <trkpt lat="49.94888" lon="2.19536">
        <ele>52.5</ele>
        <time>2022-03-02T14:49:43Z</time>
      </trkpt>
      <trkpt lat="49.94889" lon="2.19535">
        <ele>52.5</ele>
        <time>2022-03-02T14:49:44Z</time>
      </trkpt>
      <trkpt lat="49.9489" lon="2.19533">
        <ele>52.5</ele>
        <time>2022-03-02T14:49:45Z</time>
      </trkpt>
      <trkpt lat="49.94891" lon="2.19533">
        <ele>52.5</ele>
        <time>2022-03-02T14:49:46Z</time>
      </trkpt>
      <trkpt lat="49.94892" lon="2.19532">
        <ele>52.5</ele>
        <time>2022-03-02T14:49:47Z</time>
      </trkpt>
      <trkpt lat="49.94893" lon="2.1953">
        <ele>52.5</ele>
        <time>2022-03-02T14:49:48Z</time>
      </trkpt>
      <trkpt lat="49.94894" lon="2.19529">
        <ele>52.5</ele>
        <time>2022-03-02T14:49:49Z</time>
      </trkpt>
      <trkpt lat="49.94895" lon="2.19527">
        <ele>52.5</ele>
        <time>2022-03-02T14:49:50Z</time>
      </trkpt>
      <trkpt lat="49.94896" lon="2.19526">
        <ele>52.5</ele>
        <time>2022-03-02T14:49:51Z</time>
      </trkpt>
      <trkpt lat="49.94897" lon="2.19525">
        <ele>52.6</ele>
        <time>2022-03-02T14:49:52Z</time>
      </trkpt>
      <trkpt lat="49.94898" lon="2.19524">
        <ele>52.6</ele>
        <time>2022-03-02T14:49:54Z</time>
      </trkpt>
      <trkpt lat="49.94899" lon="2.19523">
        <ele>52.6</ele>
        <time>2022-03-02T14:49:55Z</time>
      </trkpt>
      <trkpt lat="49.949" lon="2.19522">
        <ele>52.6</ele>
        <time>2022-03-02T14:49:56Z</time>
      </trkpt>
      <trkpt lat="49.94901" lon="2.1952">
        <ele>52.6</ele>
        <time>2022-03-02T14:49:57Z</time>
      </trkpt>
      <trkpt lat="49.94902" lon="2.19519">
        <ele>52.6</ele>
        <time>2022-03-02T14:49:58Z</time>
      </trkpt>
      <trkpt lat="49.94903" lon="2.19518">
        <ele>52.7</ele>
        <time>2022-03-02T14:49:59Z</time>
      </trkpt>
      <trkpt lat="49.94903" lon="2.19517">
        <ele>52.7</ele>
        <time>2022-03-02T14:50:00Z</time>
      </trkpt>
      <trkpt lat="49.94904" lon="2.19515">
        <ele>52.7</ele>
        <time>2022-03-02T14:50:01Z</time>
      </trkpt>
      <trkpt lat="49.94905" lon="2.19514">
        <ele>52.7</ele>
        <time>2022-03-02T14:50:02Z</time>
      </trkpt>
      <trkpt lat="49.94906" lon="2.19511">
        <ele>52.7</ele>
        <time>2022-03-02T14:50:04Z</time>
      </trkpt>
      <trkpt lat="49.94906" lon="2.1951">
        <ele>52.8</ele>
        <time>2022-03-02T14:50:05Z</time>
      </trkpt>
      <trkpt lat="49.94907" lon="2.19509">
        <ele>52.8</ele>
        <time>2022-03-02T14:50:06Z</time>
      </trkpt>
      <trkpt lat="49.94908" lon="2.19506">
        <ele>52.8</ele>
        <time>2022-03-02T14:50:07Z</time>
      </trkpt>
      <trkpt lat="49.94908" lon="2.19504">
        <ele>52.8</ele>
        <time>2022-03-02T14:50:08Z</time>
      </trkpt>
      <trkpt lat="49.94909" lon="2.19503">
        <ele>52.8</ele>
        <time>2022-03-02T14:50:09Z</time>
      </trkpt>
      <trkpt lat="49.94909" lon="2.19501">
        <ele>52.9</ele>
        <time>2022-03-02T14:50:10Z</time>
      </trkpt>
      <trkpt lat="49.9491" lon="2.19499">
        <ele>52.9</ele>
        <time>2022-03-02T14:50:11Z</time>
      </trkpt>
      <trkpt lat="49.94911" lon="2.19496">
        <ele>52.9</ele>
        <time>2022-03-02T14:50:13Z</time>
      </trkpt>
      <trkpt lat="49.94912" lon="2.19495">
        <ele>53</ele>
        <time>2022-03-02T14:50:14Z</time>
      </trkpt>
      <trkpt lat="49.94912" lon="2.19494">
        <ele>53</ele>
        <time>2022-03-02T14:50:15Z</time>
      </trkpt>
      <trkpt lat="49.94913" lon="2.19493">
        <ele>53</ele>
        <time>2022-03-02T14:50:16Z</time>
      </trkpt>
      <trkpt lat="49.94913" lon="2.19491">
        <ele>53</ele>
        <time>2022-03-02T14:50:17Z</time>
      </trkpt>
      <trkpt lat="49.94914" lon="2.19488">
        <ele>53.1</ele>
        <time>2022-03-02T14:50:19Z</time>
      </trkpt>
      <trkpt lat="49.94915" lon="2.19487">
        <ele>53.1</ele>
        <time>2022-03-02T14:50:20Z</time>
      </trkpt>
      <trkpt lat="49.94916" lon="2.19485">
        <ele>53.1</ele>
        <time>2022-03-02T14:50:21Z</time>
      </trkpt>
      <trkpt lat="49.94917" lon="2.19483">
        <ele>53.2</ele>
        <time>2022-03-02T14:50:22Z</time>
      </trkpt>
      <trkpt lat="49.94918" lon="2.19481">
        <ele>53.2</ele>
        <time>2022-03-02T14:50:23Z</time>
      </trkpt>
      <trkpt lat="49.94919" lon="2.19479">
        <ele>53.2</ele>
        <time>2022-03-02T14:50:25Z</time>
      </trkpt>
      <trkpt lat="49.9492" lon="2.19478">
        <ele>53.2</ele>
        <time>2022-03-02T14:50:26Z</time>
      </trkpt>
      <trkpt lat="49.9492" lon="2.19476">
        <ele>53.3</ele>
        <time>2022-03-02T14:50:27Z</time>
      </trkpt>
      <trkpt lat="49.94921" lon="2.19475">
        <ele>53.3</ele>
        <time>2022-03-02T14:50:28Z</time>
      </trkpt>
      <trkpt lat="49.94921" lon="2.19474">
        <ele>53.3</ele>
        <time>2022-03-02T14:50:29Z</time>
      </trkpt>
      <trkpt lat="49.94922" lon="2.19472">
        <ele>53.3</ele>
        <time>2022-03-02T14:50:30Z</time>
      </trkpt>
      <trkpt lat="49.94922" lon="2.1947">
        <ele>53.4</ele>
        <time>2022-03-02T14:50:32Z</time>
      </trkpt>
      <trkpt lat="49.94923" lon="2.19468">
        <ele>53.4</ele>
        <time>2022-03-02T14:50:33Z</time>
      </trkpt>
      <trkpt lat="49.94924" lon="2.19465">
        <ele>53.5</ele>
        <time>2022-03-02T14:50:34Z</time>
      </trkpt>
      <trkpt lat="49.94924" lon="2.19464">
        <ele>53.5</ele>
        <time>2022-03-02T14:50:35Z</time>
      </trkpt>
      <trkpt lat="49.94924" lon="2.19463">
        <ele>53.5</ele>
        <time>2022-03-02T14:50:36Z</time>
      </trkpt>
      <trkpt lat="49.94925" lon="2.19462">
        <ele>53.5</ele>
        <time>2022-03-02T14:50:37Z</time>
      </trkpt>
      <trkpt lat="49.94925" lon="2.19459">
        <ele>53.6</ele>
        <time>2022-03-02T14:50:38Z</time>
      </trkpt>
      <trkpt lat="49.94926" lon="2.19457">
        <ele>53.6</ele>
        <time>2022-03-02T14:50:40Z</time>
      </trkpt>
      <trkpt lat="49.94927" lon="2.19455">
        <ele>53.7</ele>
        <time>2022-03-02T14:50:41Z</time>
      </trkpt>
      <trkpt lat="49.94927" lon="2.19453">
        <ele>53.7</ele>
        <time>2022-03-02T14:50:42Z</time>
      </trkpt>
      <trkpt lat="49.94928" lon="2.19452">
        <ele>53.7</ele>
        <time>2022-03-02T14:50:43Z</time>
      </trkpt>
      <trkpt lat="49.94929" lon="2.1945">
        <ele>53.7</ele>
        <time>2022-03-02T14:50:44Z</time>
      </trkpt>
      <trkpt lat="49.94929" lon="2.19448">
        <ele>53.8</ele>
        <time>2022-03-02T14:50:45Z</time>
      </trkpt>
      <trkpt lat="49.9493" lon="2.19446">
        <ele>53.8</ele>
        <time>2022-03-02T14:50:47Z</time>
      </trkpt>
      <trkpt lat="49.94931" lon="2.19444">
        <ele>53.9</ele>
        <time>2022-03-02T14:50:48Z</time>
      </trkpt>
      <trkpt lat="49.94931" lon="2.19441">
        <ele>53.9</ele>
        <time>2022-03-02T14:50:49Z</time>
      </trkpt>
      <trkpt lat="49.94932" lon="2.19439">
        <ele>54</ele>
        <time>2022-03-02T14:50:50Z</time>
      </trkpt>
      <trkpt lat="49.94932" lon="2.19437">
        <ele>54</ele>
        <time>2022-03-02T14:50:51Z</time>
      </trkpt>
      <trkpt lat="49.94933" lon="2.19435">
        <ele>54.1</ele>
        <time>2022-03-02T14:50:52Z</time>
      </trkpt>
      <trkpt lat="49.94933" lon="2.19433">
        <ele>54.1</ele>
        <time>2022-03-02T14:50:53Z</time>
      </trkpt>
      <trkpt lat="49.94934" lon="2.19431">
        <ele>54.1</ele>
        <time>2022-03-02T14:50:55Z</time>
      </trkpt>
      <trkpt lat="49.94934" lon="2.1943">
        <ele>54.2</ele>
        <time>2022-03-02T14:50:56Z</time>
      </trkpt>
      <trkpt lat="49.94935" lon="2.19429">
        <ele>54.2</ele>
        <time>2022-03-02T14:50:57Z</time>
      </trkpt>
      <trkpt lat="49.94936" lon="2.19428">
        <ele>54.2</ele>
        <time>2022-03-02T14:50:58Z</time>
      </trkpt>
      <trkpt lat="49.94936" lon="2.19426">
        <ele>54.3</ele>
        <time>2022-03-02T14:50:59Z</time>
      </trkpt>
      <trkpt lat="49.94937" lon="2.19424">
        <ele>54.3</ele>
        <time>2022-03-02T14:51:00Z</time>
      </trkpt>
      <trkpt lat="49.94937" lon="2.19423">
        <ele>54.3</ele>
        <time>2022-03-02T14:51:01Z</time>
      </trkpt>
      <trkpt lat="49.94937" lon="2.19422">
        <ele>54.3</ele>
        <time>2022-03-02T14:51:02Z</time>
      </trkpt>
      <trkpt lat="49.94938" lon="2.19419">
        <ele>54.4</ele>
        <time>2022-03-02T14:51:03Z</time>
      </trkpt>
      <trkpt lat="49.94939" lon="2.19418">
        <ele>54.4</ele>
        <time>2022-03-02T14:51:04Z</time>
      </trkpt>
      <trkpt lat="49.94939" lon="2.19416">
        <ele>54.4</ele>
        <time>2022-03-02T14:51:06Z</time>
      </trkpt>
      <trkpt lat="49.9494" lon="2.19415">
        <ele>54.5</ele>
        <time>2022-03-02T14:51:07Z</time>
      </trkpt>
      <trkpt lat="49.9494" lon="2.19413">
        <ele>54.5</ele>
        <time>2022-03-02T14:51:08Z</time>
      </trkpt>
      <trkpt lat="49.9494" lon="2.19412">
        <ele>54.5</ele>
        <time>2022-03-02T14:51:09Z</time>
      </trkpt>
      <trkpt lat="49.94941" lon="2.19409">
        <ele>54.6</ele>
        <time>2022-03-02T14:51:10Z</time>
      </trkpt>
      <trkpt lat="49.94942" lon="2.19408">
        <ele>54.6</ele>
        <time>2022-03-02T14:51:11Z</time>
      </trkpt>
      <trkpt lat="49.94942" lon="2.19407">
        <ele>54.6</ele>
        <time>2022-03-02T14:51:12Z</time>
      </trkpt>
      <trkpt lat="49.94943" lon="2.19406">
        <ele>54.6</ele>
        <time>2022-03-02T14:51:13Z</time>
      </trkpt>
      <trkpt lat="49.94944" lon="2.19403">
        <ele>54.7</ele>
        <time>2022-03-02T14:51:15Z</time>
      </trkpt>
      <trkpt lat="49.94944" lon="2.19402">
        <ele>54.7</ele>
        <time>2022-03-02T14:51:16Z</time>
      </trkpt>
      <trkpt lat="49.94944" lon="2.19401">
        <ele>54.7</ele>
        <time>2022-03-02T14:51:17Z</time>
      </trkpt>
      <trkpt lat="49.94945" lon="2.194">
        <ele>54.8</ele>
        <time>2022-03-02T14:51:18Z</time>
      </trkpt>
      <trkpt lat="49.94946" lon="2.19398">
        <ele>54.8</ele>
        <time>2022-03-02T14:51:19Z</time>
      </trkpt>
      <trkpt lat="49.94946" lon="2.19397">
        <ele>54.8</ele>
        <time>2022-03-02T14:51:20Z</time>
      </trkpt>
      <trkpt lat="49.94947" lon="2.19395">
        <ele>54.9</ele>
        <time>2022-03-02T14:51:21Z</time>
      </trkpt>
      <trkpt lat="49.94947" lon="2.19392">
        <ele>54.9</ele>
        <time>2022-03-02T14:51:22Z</time>
      </trkpt>
      <trkpt lat="49.94948" lon="2.1939">
        <ele>55</ele>
        <time>2022-03-02T14:51:24Z</time>
      </trkpt>
      <trkpt lat="49.94949" lon="2.19387">
        <ele>55</ele>
        <time>2022-03-02T14:51:25Z</time>
      </trkpt>
      <trkpt lat="49.94949" lon="2.19385">
        <ele>55.1</ele>
        <time>2022-03-02T14:51:26Z</time>
      </trkpt>
      <trkpt lat="49.9495" lon="2.19384">
        <ele>55.1</ele>
        <time>2022-03-02T14:51:27Z</time>
      </trkpt>
      <trkpt lat="49.9495" lon="2.19382">
        <ele>55.1</ele>
        <time>2022-03-02T14:51:28Z</time>
      </trkpt>
      <trkpt lat="49.94952" lon="2.1938">
        <ele>55.2</ele>
        <time>2022-03-02T14:51:29Z</time>
      </trkpt>
      <trkpt lat="49.94952" lon="2.19379">
        <ele>55.2</ele>
        <time>2022-03-02T14:51:30Z</time>
      </trkpt>
      <trkpt lat="49.94953" lon="2.19377">
        <ele>55.3</ele>
        <time>2022-03-02T14:51:31Z</time>
      </trkpt>
      <trkpt lat="49.94953" lon="2.19376">
        <ele>55.3</ele>
        <time>2022-03-02T14:51:32Z</time>
      </trkpt>
      <trkpt lat="49.94953" lon="2.19375">
        <ele>55.3</ele>
        <time>2022-03-02T14:51:33Z</time>
      </trkpt>
      <trkpt lat="49.94954" lon="2.19373">
        <ele>55.3</ele>
        <time>2022-03-02T14:51:35Z</time>
      </trkpt>
      <trkpt lat="49.94955" lon="2.19371">
        <ele>55.4</ele>
        <time>2022-03-02T14:51:36Z</time>
      </trkpt>
      <trkpt lat="49.94956" lon="2.19369">
        <ele>55.4</ele>
        <time>2022-03-02T14:51:37Z</time>
      </trkpt>
      <trkpt lat="49.94957" lon="2.19367">
        <ele>55.5</ele>
        <time>2022-03-02T14:51:38Z</time>
      </trkpt>
      <trkpt lat="49.94957" lon="2.19365">
        <ele>55.5</ele>
        <time>2022-03-02T14:51:39Z</time>
      </trkpt>
      <trkpt lat="49.94958" lon="2.19363">
        <ele>55.5</ele>
        <time>2022-03-02T14:51:40Z</time>
      </trkpt>
      <trkpt lat="49.94959" lon="2.19361">
        <ele>55.6</ele>
        <time>2022-03-02T14:51:42Z</time>
      </trkpt>
      <trkpt lat="49.9496" lon="2.1936">
        <ele>55.6</ele>
        <time>2022-03-02T14:51:43Z</time>
      </trkpt>
      <trkpt lat="49.9496" lon="2.19359">
        <ele>55.6</ele>
        <time>2022-03-02T14:51:44Z</time>
      </trkpt>
      <trkpt lat="49.94961" lon="2.19358">
        <ele>55.6</ele>
        <time>2022-03-02T14:51:45Z</time>
      </trkpt>
      <trkpt lat="49.94962" lon="2.19355">
        <ele>55.7</ele>
        <time>2022-03-02T14:51:47Z</time>
      </trkpt>
      <trkpt lat="49.94963" lon="2.19354">
        <ele>55.7</ele>
        <time>2022-03-02T14:51:48Z</time>
      </trkpt>
      <trkpt lat="49.94963" lon="2.19353">
        <ele>55.7</ele>
        <time>2022-03-02T14:51:49Z</time>
      </trkpt>
      <trkpt lat="49.94964" lon="2.19351">
        <ele>55.8</ele>
        <time>2022-03-02T14:51:50Z</time>
      </trkpt>
      <trkpt lat="49.94964" lon="2.1935">
        <ele>55.8</ele>
        <time>2022-03-02T14:51:51Z</time>
      </trkpt>
      <trkpt lat="49.94965" lon="2.19348">
        <ele>55.8</ele>
        <time>2022-03-02T14:51:52Z</time>
      </trkpt>
      <trkpt lat="49.94965" lon="2.19347">
        <ele>55.8</ele>
        <time>2022-03-02T14:51:53Z</time>
      </trkpt>
      <trkpt lat="49.94966" lon="2.19345">
        <ele>55.9</ele>
        <time>2022-03-02T14:51:54Z</time>
      </trkpt>
      <trkpt lat="49.94967" lon="2.19344">
        <ele>55.9</ele>
        <time>2022-03-02T14:51:56Z</time>
      </trkpt>
      <trkpt lat="49.94967" lon="2.19342">
        <ele>55.9</ele>
        <time>2022-03-02T14:51:57Z</time>
      </trkpt>
      <trkpt lat="49.94968" lon="2.19341">
        <ele>56</ele>
        <time>2022-03-02T14:51:58Z</time>
      </trkpt>
      <trkpt lat="49.94969" lon="2.19339">
        <ele>56</ele>
        <time>2022-03-02T14:51:59Z</time>
      </trkpt>
      <trkpt lat="49.94969" lon="2.19338">
        <ele>56</ele>
        <time>2022-03-02T14:52:00Z</time>
      </trkpt>
      <trkpt lat="49.9497" lon="2.19337">
        <ele>56.1</ele>
        <time>2022-03-02T14:52:01Z</time>
      </trkpt>
      <trkpt lat="49.9497" lon="2.19336">
        <ele>56.1</ele>
        <time>2022-03-02T14:52:02Z</time>
      </trkpt>
      <trkpt lat="49.94971" lon="2.19334">
        <ele>56.1</ele>
        <time>2022-03-02T14:52:03Z</time>
      </trkpt>
      <trkpt lat="49.94971" lon="2.19332">
        <ele>56.1</ele>
        <time>2022-03-02T14:52:04Z</time>
      </trkpt>
      <trkpt lat="49.94972" lon="2.19331">
        <ele>56.2</ele>
        <time>2022-03-02T14:52:05Z</time>
      </trkpt>
      <trkpt lat="49.94972" lon="2.19329">
        <ele>56.2</ele>
        <time>2022-03-02T14:52:06Z</time>
      </trkpt>
      <trkpt lat="49.94973" lon="2.19326">
        <ele>56.3</ele>
        <time>2022-03-02T14:52:07Z</time>
      </trkpt>
      <trkpt lat="49.94974" lon="2.19325">
        <ele>56.3</ele>
        <time>2022-03-02T14:52:08Z</time>
      </trkpt>
      <trkpt lat="49.94974" lon="2.19323">
        <ele>56.3</ele>
        <time>2022-03-02T14:52:09Z</time>
      </trkpt>
      <trkpt lat="49.94975" lon="2.19321">
        <ele>56.4</ele>
        <time>2022-03-02T14:52:11Z</time>
      </trkpt>
      <trkpt lat="49.94975" lon="2.19318">
        <ele>56.4</ele>
        <time>2022-03-02T14:52:12Z</time>
      </trkpt>
      <trkpt lat="49.94976" lon="2.19316">
        <ele>56.4</ele>
        <time>2022-03-02T14:52:13Z</time>
      </trkpt>
      <trkpt lat="49.94977" lon="2.19314">
        <ele>56.5</ele>
        <time>2022-03-02T14:52:14Z</time>
      </trkpt>
      <trkpt lat="49.94978" lon="2.19312">
        <ele>56.5</ele>
        <time>2022-03-02T14:52:15Z</time>
      </trkpt>
      <trkpt lat="49.94979" lon="2.1931">
        <ele>56.6</ele>
        <time>2022-03-02T14:52:16Z</time>
      </trkpt>
      <trkpt lat="49.94979" lon="2.19309">
        <ele>56.6</ele>
        <time>2022-03-02T14:52:17Z</time>
      </trkpt>
      <trkpt lat="49.9498" lon="2.19307">
        <ele>56.6</ele>
        <time>2022-03-02T14:52:18Z</time>
      </trkpt>
      <trkpt lat="49.9498" lon="2.19306">
        <ele>56.7</ele>
        <time>2022-03-02T14:52:19Z</time>
      </trkpt>
      <trkpt lat="49.94981" lon="2.19304">
        <ele>56.7</ele>
        <time>2022-03-02T14:52:20Z</time>
      </trkpt>
      <trkpt lat="49.94981" lon="2.19302">
        <ele>56.7</ele>
        <time>2022-03-02T14:52:22Z</time>
      </trkpt>
      <trkpt lat="49.94982" lon="2.19301">
        <ele>56.7</ele>
        <time>2022-03-02T14:52:23Z</time>
      </trkpt>
      <trkpt lat="49.94983" lon="2.19299">
        <ele>56.8</ele>
        <time>2022-03-02T14:52:24Z</time>
      </trkpt>
      <trkpt lat="49.94983" lon="2.19297">
        <ele>56.8</ele>
        <time>2022-03-02T14:52:25Z</time>
      </trkpt>
      <trkpt lat="49.94984" lon="2.19296">
        <ele>56.8</ele>
        <time>2022-03-02T14:52:27Z</time>
      </trkpt>
      <trkpt lat="49.94985" lon="2.19294">
        <ele>56.9</ele>
        <time>2022-03-02T14:52:28Z</time>
      </trkpt>
      <trkpt lat="49.94985" lon="2.19292">
        <ele>56.9</ele>
        <time>2022-03-02T14:52:29Z</time>
      </trkpt>
      <trkpt lat="49.94986" lon="2.19291">
        <ele>56.9</ele>
        <time>2022-03-02T14:52:30Z</time>
      </trkpt>
      <trkpt lat="49.94987" lon="2.19289">
        <ele>56.9</ele>
        <time>2022-03-02T14:52:31Z</time>
      </trkpt>
      <trkpt lat="49.94987" lon="2.19288">
        <ele>57</ele>
        <time>2022-03-02T14:52:32Z</time>
      </trkpt>
      <trkpt lat="49.94988" lon="2.19286">
        <ele>57</ele>
        <time>2022-03-02T14:52:33Z</time>
      </trkpt>
      <trkpt lat="49.94988" lon="2.19285">
        <ele>57</ele>
        <time>2022-03-02T14:52:34Z</time>
      </trkpt>
      <trkpt lat="49.94989" lon="2.19283">
        <ele>57</ele>
        <time>2022-03-02T14:52:35Z</time>
      </trkpt>
      <trkpt lat="49.94989" lon="2.19281">
        <ele>57.1</ele>
        <time>2022-03-02T14:52:36Z</time>
      </trkpt>
      <trkpt lat="49.9499" lon="2.19279">
        <ele>57.1</ele>
        <time>2022-03-02T14:52:38Z</time>
      </trkpt>
      <trkpt lat="49.9499" lon="2.19277">
        <ele>57.1</ele>
        <time>2022-03-02T14:52:39Z</time>
      </trkpt>
      <trkpt lat="49.94991" lon="2.19276">
        <ele>57.2</ele>
        <time>2022-03-02T14:52:40Z</time>
      </trkpt>
      <trkpt lat="49.94991" lon="2.19275">
        <ele>57.2</ele>
        <time>2022-03-02T14:52:41Z</time>
      </trkpt>
      <trkpt lat="49.94992" lon="2.19272">
        <ele>57.2</ele>
        <time>2022-03-02T14:52:42Z</time>
      </trkpt>
      <trkpt lat="49.94992" lon="2.19271">
        <ele>57.2</ele>
        <time>2022-03-02T14:52:43Z</time>
      </trkpt>
      <trkpt lat="49.94993" lon="2.1927">
        <ele>57.2</ele>
        <time>2022-03-02T14:52:44Z</time>
      </trkpt>
      <trkpt lat="49.94994" lon="2.19266">
        <ele>57.3</ele>
        <time>2022-03-02T14:52:45Z</time>
      </trkpt>
      <trkpt lat="49.94994" lon="2.19265">
        <ele>57.3</ele>
        <time>2022-03-02T14:52:46Z</time>
      </trkpt>
      <trkpt lat="49.94995" lon="2.19264">
        <ele>57.3</ele>
        <time>2022-03-02T14:52:47Z</time>
      </trkpt>
      <trkpt lat="49.94995" lon="2.19262">
        <ele>57.4</ele>
        <time>2022-03-02T14:52:48Z</time>
      </trkpt>
      <trkpt lat="49.94996" lon="2.1926">
        <ele>57.4</ele>
        <time>2022-03-02T14:52:49Z</time>
      </trkpt>
      <trkpt lat="49.94997" lon="2.19258">
        <ele>57.4</ele>
        <time>2022-03-02T14:52:51Z</time>
      </trkpt>
      <trkpt lat="49.94998" lon="2.19256">
        <ele>57.5</ele>
        <time>2022-03-02T14:52:52Z</time>
      </trkpt>
      <trkpt lat="49.94999" lon="2.19253">
        <ele>57.5</ele>
        <time>2022-03-02T14:52:53Z</time>
      </trkpt>
      <trkpt lat="49.94999" lon="2.19252">
        <ele>57.5</ele>
        <time>2022-03-02T14:52:54Z</time>
      </trkpt>
      <trkpt lat="49.94999" lon="2.19251">
        <ele>57.5</ele>
        <time>2022-03-02T14:52:55Z</time>
      </trkpt>
      <trkpt lat="49.95" lon="2.19249">
        <ele>57.6</ele>
        <time>2022-03-02T14:52:56Z</time>
      </trkpt>
      <trkpt lat="49.95" lon="2.19247">
        <ele>57.6</ele>
        <time>2022-03-02T14:52:57Z</time>
      </trkpt>
      <trkpt lat="49.95001" lon="2.19246">
        <ele>57.6</ele>
        <time>2022-03-02T14:52:58Z</time>
      </trkpt>
      <trkpt lat="49.95001" lon="2.19245">
        <ele>57.6</ele>
        <time>2022-03-02T14:52:59Z</time>
      </trkpt>
      <trkpt lat="49.95002" lon="2.19243">
        <ele>57.7</ele>
        <time>2022-03-02T14:53:00Z</time>
      </trkpt>
      <trkpt lat="49.95002" lon="2.19241">
        <ele>57.7</ele>
        <time>2022-03-02T14:53:01Z</time>
      </trkpt>
      <trkpt lat="49.95003" lon="2.19239">
        <ele>57.7</ele>
        <time>2022-03-02T14:53:03Z</time>
      </trkpt>
      <trkpt lat="49.95003" lon="2.19237">
        <ele>57.7</ele>
        <time>2022-03-02T14:53:04Z</time>
      </trkpt>
      <trkpt lat="49.95004" lon="2.19235">
        <ele>57.8</ele>
        <time>2022-03-02T14:53:05Z</time>
      </trkpt>
      <trkpt lat="49.95005" lon="2.19233">
        <ele>57.8</ele>
        <time>2022-03-02T14:53:06Z</time>
      </trkpt>
      <trkpt lat="49.95005" lon="2.19232">
        <ele>57.8</ele>
        <time>2022-03-02T14:53:07Z</time>
      </trkpt>
      <trkpt lat="49.95006" lon="2.19231">
        <ele>57.8</ele>
        <time>2022-03-02T14:53:08Z</time>
      </trkpt>
      <trkpt lat="49.95007" lon="2.19229">
        <ele>57.9</ele>
        <time>2022-03-02T14:53:09Z</time>
      </trkpt>
      <trkpt lat="49.95007" lon="2.19228">
        <ele>57.9</ele>
        <time>2022-03-02T14:53:10Z</time>
      </trkpt>
      <trkpt lat="49.95008" lon="2.19227">
        <ele>57.9</ele>
        <time>2022-03-02T14:53:11Z</time>
      </trkpt>
      <trkpt lat="49.95008" lon="2.19225">
        <ele>57.9</ele>
        <time>2022-03-02T14:53:12Z</time>
      </trkpt>
      <trkpt lat="49.95009" lon="2.19224">
        <ele>57.9</ele>
        <time>2022-03-02T14:53:13Z</time>
      </trkpt>
      <trkpt lat="49.9501" lon="2.19221">
        <ele>58</ele>
        <time>2022-03-02T14:53:14Z</time>
      </trkpt>
      <trkpt lat="49.95011" lon="2.1922">
        <ele>58</ele>
        <time>2022-03-02T14:53:15Z</time>
      </trkpt>
      <trkpt lat="49.95011" lon="2.19219">
        <ele>58</ele>
        <time>2022-03-02T14:53:16Z</time>
      </trkpt>
      <trkpt lat="49.95012" lon="2.19217">
        <ele>58</ele>
        <time>2022-03-02T14:53:17Z</time>
      </trkpt>
      <trkpt lat="49.95013" lon="2.19214">
        <ele>58.1</ele>
        <time>2022-03-02T14:53:19Z</time>
      </trkpt>
      <trkpt lat="49.95014" lon="2.19213">
        <ele>58.1</ele>
        <time>2022-03-02T14:53:20Z</time>
      </trkpt>
      <trkpt lat="49.95014" lon="2.19211">
        <ele>58.1</ele>
        <time>2022-03-02T14:53:21Z</time>
      </trkpt>
      <trkpt lat="49.95014" lon="2.1921">
        <ele>58.1</ele>
        <time>2022-03-02T14:53:22Z</time>
      </trkpt>
      <trkpt lat="49.95016" lon="2.19208">
        <ele>58.2</ele>
        <time>2022-03-02T14:53:23Z</time>
      </trkpt>
      <trkpt lat="49.95016" lon="2.19206">
        <ele>58.2</ele>
        <time>2022-03-02T14:53:24Z</time>
      </trkpt>
      <trkpt lat="49.95016" lon="2.19205">
        <ele>58.2</ele>
        <time>2022-03-02T14:53:25Z</time>
      </trkpt>
      <trkpt lat="49.95017" lon="2.19203">
        <ele>58.2</ele>
        <time>2022-03-02T14:53:27Z</time>
      </trkpt>
      <trkpt lat="49.95018" lon="2.19202">
        <ele>58.3</ele>
        <time>2022-03-02T14:53:28Z</time>
      </trkpt>
      <trkpt lat="49.95018" lon="2.192">
        <ele>58.3</ele>
        <time>2022-03-02T14:53:29Z</time>
      </trkpt>
      <trkpt lat="49.95019" lon="2.19198">
        <ele>58.3</ele>
        <time>2022-03-02T14:53:30Z</time>
      </trkpt>
      <trkpt lat="49.9502" lon="2.19196">
        <ele>58.3</ele>
        <time>2022-03-02T14:53:31Z</time>
      </trkpt>
      <trkpt lat="49.95021" lon="2.19194">
        <ele>58.4</ele>
        <time>2022-03-02T14:53:32Z</time>
      </trkpt>
      <trkpt lat="49.95021" lon="2.19193">
        <ele>58.4</ele>
        <time>2022-03-02T14:53:33Z</time>
      </trkpt>
      <trkpt lat="49.95022" lon="2.19191">
        <ele>58.4</ele>
        <time>2022-03-02T14:53:34Z</time>
      </trkpt>
      <trkpt lat="49.95023" lon="2.1919">
        <ele>58.4</ele>
        <time>2022-03-02T14:53:35Z</time>
      </trkpt>
      <trkpt lat="49.95024" lon="2.19187">
        <ele>58.4</ele>
        <time>2022-03-02T14:53:36Z</time>
      </trkpt>
      <trkpt lat="49.95025" lon="2.19186">
        <ele>58.4</ele>
        <time>2022-03-02T14:53:37Z</time>
      </trkpt>
      <trkpt lat="49.95025" lon="2.19185">
        <ele>58.5</ele>
        <time>2022-03-02T14:53:38Z</time>
      </trkpt>
      <trkpt lat="49.95026" lon="2.19183">
        <ele>58.5</ele>
        <time>2022-03-02T14:53:40Z</time>
      </trkpt>
      <trkpt lat="49.95027" lon="2.19181">
        <ele>58.5</ele>
        <time>2022-03-02T14:53:41Z</time>
      </trkpt>
      <trkpt lat="49.95028" lon="2.19178">
        <ele>58.5</ele>
        <time>2022-03-02T14:53:42Z</time>
      </trkpt>
      <trkpt lat="49.95029" lon="2.19177">
        <ele>58.5</ele>
        <time>2022-03-02T14:53:43Z</time>
      </trkpt>
      <trkpt lat="49.95029" lon="2.19176">
        <ele>58.5</ele>
        <time>2022-03-02T14:53:44Z</time>
      </trkpt>
      <trkpt lat="49.9503" lon="2.19173">
        <ele>58.6</ele>
        <time>2022-03-02T14:53:45Z</time>
      </trkpt>
      <trkpt lat="49.95031" lon="2.19172">
        <ele>58.6</ele>
        <time>2022-03-02T14:53:46Z</time>
      </trkpt>
      <trkpt lat="49.95031" lon="2.19171">
        <ele>58.6</ele>
        <time>2022-03-02T14:53:47Z</time>
      </trkpt>
      <trkpt lat="49.95033" lon="2.19168">
        <ele>58.6</ele>
        <time>2022-03-02T14:53:48Z</time>
      </trkpt>
      <trkpt lat="49.95033" lon="2.19167">
        <ele>58.6</ele>
        <time>2022-03-02T14:53:50Z</time>
      </trkpt>
      <trkpt lat="49.95034" lon="2.19166">
        <ele>58.6</ele>
        <time>2022-03-02T14:53:51Z</time>
      </trkpt>
      <trkpt lat="49.95035" lon="2.19164">
        <ele>58.7</ele>
        <time>2022-03-02T14:53:52Z</time>
      </trkpt>
      <trkpt lat="49.95035" lon="2.19162">
        <ele>58.7</ele>
        <time>2022-03-02T14:53:53Z</time>
      </trkpt>
      <trkpt lat="49.95036" lon="2.19159">
        <ele>58.7</ele>
        <time>2022-03-02T14:53:54Z</time>
      </trkpt>
      <trkpt lat="49.95037" lon="2.19158">
        <ele>58.7</ele>
        <time>2022-03-02T14:53:55Z</time>
      </trkpt>
      <trkpt lat="49.95037" lon="2.19157">
        <ele>58.7</ele>
        <time>2022-03-02T14:53:56Z</time>
      </trkpt>
      <trkpt lat="49.95038" lon="2.19155">
        <ele>58.8</ele>
        <time>2022-03-02T14:53:57Z</time>
      </trkpt>
      <trkpt lat="49.95038" lon="2.19154">
        <ele>58.8</ele>
        <time>2022-03-02T14:53:58Z</time>
      </trkpt>
      <trkpt lat="49.95039" lon="2.19152">
        <ele>58.8</ele>
        <time>2022-03-02T14:54:00Z</time>
      </trkpt>
      <trkpt lat="49.9504" lon="2.1915">
        <ele>58.8</ele>
        <time>2022-03-02T14:54:01Z</time>
      </trkpt>
      <trkpt lat="49.9504" lon="2.19149">
        <ele>58.8</ele>
        <time>2022-03-02T14:54:02Z</time>
      </trkpt>
      <trkpt lat="49.95041" lon="2.19147">
        <ele>58.8</ele>
        <time>2022-03-02T14:54:03Z</time>
      </trkpt>
      <trkpt lat="49.95041" lon="2.19145">
        <ele>58.9</ele>
        <time>2022-03-02T14:54:04Z</time>
      </trkpt>
      <trkpt lat="49.95042" lon="2.19143">
        <ele>58.9</ele>
        <time>2022-03-02T14:54:05Z</time>
      </trkpt>
      <trkpt lat="49.95042" lon="2.19141">
        <ele>58.9</ele>
        <time>2022-03-02T14:54:07Z</time>
      </trkpt>
      <trkpt lat="49.95043" lon="2.19138">
        <ele>58.9</ele>
        <time>2022-03-02T14:54:08Z</time>
      </trkpt>
      <trkpt lat="49.95044" lon="2.19137">
        <ele>59</ele>
        <time>2022-03-02T14:54:09Z</time>
      </trkpt>
      <trkpt lat="49.95044" lon="2.19136">
        <ele>59</ele>
        <time>2022-03-02T14:54:10Z</time>
      </trkpt>
      <trkpt lat="49.95045" lon="2.19133">
        <ele>59</ele>
        <time>2022-03-02T14:54:11Z</time>
      </trkpt>
      <trkpt lat="49.95046" lon="2.19132">
        <ele>59</ele>
        <time>2022-03-02T14:54:12Z</time>
      </trkpt>
      <trkpt lat="49.95047" lon="2.1913">
        <ele>59</ele>
        <time>2022-03-02T14:54:13Z</time>
      </trkpt>
      <trkpt lat="49.95047" lon="2.19129">
        <ele>59</ele>
        <time>2022-03-02T14:54:14Z</time>
      </trkpt>
      <trkpt lat="49.95048" lon="2.19127">
        <ele>59.1</ele>
        <time>2022-03-02T14:54:15Z</time>
      </trkpt>
      <trkpt lat="49.95049" lon="2.19124">
        <ele>59.1</ele>
        <time>2022-03-02T14:54:16Z</time>
      </trkpt>
      <trkpt lat="49.9505" lon="2.19123">
        <ele>59.1</ele>
        <time>2022-03-02T14:54:17Z</time>
      </trkpt>
      <trkpt lat="49.9505" lon="2.19122">
        <ele>59.1</ele>
        <time>2022-03-02T14:54:18Z</time>
      </trkpt>
      <trkpt lat="49.95051" lon="2.1912">
        <ele>59.1</ele>
        <time>2022-03-02T14:54:20Z</time>
      </trkpt>
      <trkpt lat="49.95052" lon="2.19118">
        <ele>59.2</ele>
        <time>2022-03-02T14:54:21Z</time>
      </trkpt>
      <trkpt lat="49.95053" lon="2.19116">
        <ele>59.2</ele>
        <time>2022-03-02T14:54:22Z</time>
      </trkpt>
      <trkpt lat="49.95054" lon="2.19114">
        <ele>59.2</ele>
        <time>2022-03-02T14:54:23Z</time>
      </trkpt>
      <trkpt lat="49.95054" lon="2.19113">
        <ele>59.2</ele>
        <time>2022-03-02T14:54:24Z</time>
      </trkpt>
      <trkpt lat="49.95055" lon="2.19111">
        <ele>59.2</ele>
        <time>2022-03-02T14:54:25Z</time>
      </trkpt>
      <trkpt lat="49.95055" lon="2.1911">
        <ele>59.2</ele>
        <time>2022-03-02T14:54:26Z</time>
      </trkpt>
      <trkpt lat="49.95056" lon="2.19107">
        <ele>59.3</ele>
        <time>2022-03-02T14:54:27Z</time>
      </trkpt>
      <trkpt lat="49.95056" lon="2.19105">
        <ele>59.3</ele>
        <time>2022-03-02T14:54:28Z</time>
      </trkpt>
      <trkpt lat="49.95057" lon="2.19104">
        <ele>59.3</ele>
        <time>2022-03-02T14:54:29Z</time>
      </trkpt>
      <trkpt lat="49.95057" lon="2.19102">
        <ele>59.3</ele>
        <time>2022-03-02T14:54:30Z</time>
      </trkpt>
      <trkpt lat="49.95058" lon="2.191">
        <ele>59.3</ele>
        <time>2022-03-02T14:54:32Z</time>
      </trkpt>
      <trkpt lat="49.95059" lon="2.19098">
        <ele>59.3</ele>
        <time>2022-03-02T14:54:33Z</time>
      </trkpt>
      <trkpt lat="49.95059" lon="2.19096">
        <ele>59.4</ele>
        <time>2022-03-02T14:54:34Z</time>
      </trkpt>
      <trkpt lat="49.9506" lon="2.19095">
        <ele>59.4</ele>
        <time>2022-03-02T14:54:35Z</time>
      </trkpt>
      <trkpt lat="49.95061" lon="2.19092">
        <ele>59.4</ele>
        <time>2022-03-02T14:54:36Z</time>
      </trkpt>
      <trkpt lat="49.95061" lon="2.19091">
        <ele>59.4</ele>
        <time>2022-03-02T14:54:37Z</time>
      </trkpt>
      <trkpt lat="49.95062" lon="2.1909">
        <ele>59.4</ele>
        <time>2022-03-02T14:54:38Z</time>
      </trkpt>
      <trkpt lat="49.95062" lon="2.19088">
        <ele>59.4</ele>
        <time>2022-03-02T14:54:39Z</time>
      </trkpt>
      <trkpt lat="49.95063" lon="2.19087">
        <ele>59.4</ele>
        <time>2022-03-02T14:54:40Z</time>
      </trkpt>
      <trkpt lat="49.95063" lon="2.19085">
        <ele>59.5</ele>
        <time>2022-03-02T14:54:41Z</time>
      </trkpt>
      <trkpt lat="49.95064" lon="2.19082">
        <ele>59.5</ele>
        <time>2022-03-02T14:54:42Z</time>
      </trkpt>
      <trkpt lat="49.95065" lon="2.19081">
        <ele>59.5</ele>
        <time>2022-03-02T14:54:44Z</time>
      </trkpt>
      <trkpt lat="49.95065" lon="2.1908">
        <ele>59.5</ele>
        <time>2022-03-02T14:54:45Z</time>
      </trkpt>
      <trkpt lat="49.95066" lon="2.19078">
        <ele>59.5</ele>
        <time>2022-03-02T14:54:46Z</time>
      </trkpt>
      <trkpt lat="49.95066" lon="2.19077">
        <ele>59.6</ele>
        <time>2022-03-02T14:54:47Z</time>
      </trkpt>
      <trkpt lat="49.95067" lon="2.19075">
        <ele>59.6</ele>
        <time>2022-03-02T14:54:48Z</time>
      </trkpt>
      <trkpt lat="49.95069" lon="2.19072">
        <ele>59.6</ele>
        <time>2022-03-02T14:54:49Z</time>
      </trkpt>
      <trkpt lat="49.95069" lon="2.19071">
        <ele>59.6</ele>
        <time>2022-03-02T14:54:51Z</time>
      </trkpt>
      <trkpt lat="49.9507" lon="2.19069">
        <ele>59.7</ele>
        <time>2022-03-02T14:54:52Z</time>
      </trkpt>
      <trkpt lat="49.9507" lon="2.19068">
        <ele>59.7</ele>
        <time>2022-03-02T14:54:53Z</time>
      </trkpt>
      <trkpt lat="49.95071" lon="2.19066">
        <ele>59.7</ele>
        <time>2022-03-02T14:54:54Z</time>
      </trkpt>
      <trkpt lat="49.95072" lon="2.19065">
        <ele>59.7</ele>
        <time>2022-03-02T14:54:55Z</time>
      </trkpt>
      <trkpt lat="49.95073" lon="2.19063">
        <ele>59.7</ele>
        <time>2022-03-02T14:54:56Z</time>
      </trkpt>
      <trkpt lat="49.95074" lon="2.1906">
        <ele>59.8</ele>
        <time>2022-03-02T14:54:58Z</time>
      </trkpt>
      <trkpt lat="49.95075" lon="2.19059">
        <ele>59.8</ele>
        <time>2022-03-02T14:54:59Z</time>
      </trkpt>
      <trkpt lat="49.95075" lon="2.19058">
        <ele>59.8</ele>
        <time>2022-03-02T14:55:00Z</time>
      </trkpt>
      <trkpt lat="49.95076" lon="2.19057">
        <ele>59.8</ele>
        <time>2022-03-02T14:55:01Z</time>
      </trkpt>
      <trkpt lat="49.95076" lon="2.19056">
        <ele>59.8</ele>
        <time>2022-03-02T14:55:02Z</time>
      </trkpt>
      <trkpt lat="49.95077" lon="2.19054">
        <ele>59.8</ele>
        <time>2022-03-02T14:55:03Z</time>
      </trkpt>
      <trkpt lat="49.95077" lon="2.19053">
        <ele>59.8</ele>
        <time>2022-03-02T14:55:04Z</time>
      </trkpt>
      <trkpt lat="49.95078" lon="2.19052">
        <ele>59.8</ele>
        <time>2022-03-02T14:55:05Z</time>
      </trkpt>
      <trkpt lat="49.95078" lon="2.1905">
        <ele>59.8</ele>
        <time>2022-03-02T14:55:06Z</time>
      </trkpt>
      <trkpt lat="49.95079" lon="2.19048">
        <ele>59.9</ele>
        <time>2022-03-02T14:55:07Z</time>
      </trkpt>
      <trkpt lat="49.9508" lon="2.19046">
        <ele>59.9</ele>
        <time>2022-03-02T14:55:08Z</time>
      </trkpt>
      <trkpt lat="49.9508" lon="2.19045">
        <ele>59.9</ele>
        <time>2022-03-02T14:55:09Z</time>
      </trkpt>
      <trkpt lat="49.95081" lon="2.19043">
        <ele>59.9</ele>
        <time>2022-03-02T14:55:10Z</time>
      </trkpt>
      <trkpt lat="49.95082" lon="2.19041">
        <ele>59.9</ele>
        <time>2022-03-02T14:55:11Z</time>
      </trkpt>
      <trkpt lat="49.95082" lon="2.19039">
        <ele>59.9</ele>
        <time>2022-03-02T14:55:13Z</time>
      </trkpt>
      <trkpt lat="49.95082" lon="2.19037">
        <ele>60</ele>
        <time>2022-03-02T14:55:14Z</time>
      </trkpt>
      <trkpt lat="49.95083" lon="2.19034">
        <ele>60</ele>
        <time>2022-03-02T14:55:16Z</time>
      </trkpt>
      <trkpt lat="49.95084" lon="2.19033">
        <ele>60</ele>
        <time>2022-03-02T14:55:17Z</time>
      </trkpt>
      <trkpt lat="49.95084" lon="2.19031">
        <ele>60</ele>
        <time>2022-03-02T14:55:18Z</time>
      </trkpt>
      <trkpt lat="49.95085" lon="2.19029">
        <ele>60</ele>
        <time>2022-03-02T14:55:19Z</time>
      </trkpt>
      <trkpt lat="49.95086" lon="2.19026">
        <ele>60</ele>
        <time>2022-03-02T14:55:20Z</time>
      </trkpt>
      <trkpt lat="49.95086" lon="2.19024">
        <ele>60</ele>
        <time>2022-03-02T14:55:21Z</time>
      </trkpt>
      <trkpt lat="49.95086" lon="2.19023">
        <ele>60.1</ele>
        <time>2022-03-02T14:55:22Z</time>
      </trkpt>
      <trkpt lat="49.95087" lon="2.19021">
        <ele>60.1</ele>
        <time>2022-03-02T14:55:23Z</time>
      </trkpt>
      <trkpt lat="49.95088" lon="2.19019">
        <ele>60.1</ele>
        <time>2022-03-02T14:55:24Z</time>
      </trkpt>
      <trkpt lat="49.95089" lon="2.19016">
        <ele>60.1</ele>
        <time>2022-03-02T14:55:25Z</time>
      </trkpt>
      <trkpt lat="49.95089" lon="2.19015">
        <ele>60.1</ele>
        <time>2022-03-02T14:55:27Z</time>
      </trkpt>
      <trkpt lat="49.95089" lon="2.19013">
        <ele>60.1</ele>
        <time>2022-03-02T14:55:28Z</time>
      </trkpt>
      <trkpt lat="49.9509" lon="2.1901">
        <ele>60.2</ele>
        <time>2022-03-02T14:55:29Z</time>
      </trkpt>
      <trkpt lat="49.9509" lon="2.19009">
        <ele>60.2</ele>
        <time>2022-03-02T14:55:30Z</time>
      </trkpt>
      <trkpt lat="49.95091" lon="2.19008">
        <ele>60.2</ele>
        <time>2022-03-02T14:55:31Z</time>
      </trkpt>
      <trkpt lat="49.95091" lon="2.19005">
        <ele>60.2</ele>
        <time>2022-03-02T14:55:32Z</time>
      </trkpt>
      <trkpt lat="49.95092" lon="2.19003">
        <ele>60.2</ele>
        <time>2022-03-02T14:55:33Z</time>
      </trkpt>
      <trkpt lat="49.95093" lon="2.19001">
        <ele>60.2</ele>
        <time>2022-03-02T14:55:34Z</time>
      </trkpt>
      <trkpt lat="49.95093" lon="2.18999">
        <ele>60.2</ele>
        <time>2022-03-02T14:55:35Z</time>
      </trkpt>
      <trkpt lat="49.95094" lon="2.18997">
        <ele>60.2</ele>
        <time>2022-03-02T14:55:36Z</time>
      </trkpt>
      <trkpt lat="49.95095" lon="2.18995">
        <ele>60.2</ele>
        <time>2022-03-02T14:55:37Z</time>
      </trkpt>
      <trkpt lat="49.95095" lon="2.18993">
        <ele>60.2</ele>
        <time>2022-03-02T14:55:38Z</time>
      </trkpt>
      <trkpt lat="49.95096" lon="2.18991">
        <ele>60.3</ele>
        <time>2022-03-02T14:55:39Z</time>
      </trkpt>
      <trkpt lat="49.95096" lon="2.18988">
        <ele>60.3</ele>
        <time>2022-03-02T14:55:41Z</time>
      </trkpt>
      <trkpt lat="49.95097" lon="2.18986">
        <ele>60.3</ele>
        <time>2022-03-02T14:55:42Z</time>
      </trkpt>
      <trkpt lat="49.95098" lon="2.18984">
        <ele>60.3</ele>
        <time>2022-03-02T14:55:43Z</time>
      </trkpt>
      <trkpt lat="49.95098" lon="2.18982">
        <ele>60.3</ele>
        <time>2022-03-02T14:55:44Z</time>
      </trkpt>
      <trkpt lat="49.95099" lon="2.1898">
        <ele>60.3</ele>
        <time>2022-03-02T14:55:46Z</time>
      </trkpt>
      <trkpt lat="49.95099" lon="2.18978">
        <ele>60.3</ele>
        <time>2022-03-02T14:55:47Z</time>
      </trkpt>
      <trkpt lat="49.951" lon="2.18978">
        <ele>60.3</ele>
        <time>2022-03-02T14:55:48Z</time>
      </trkpt>
      <trkpt lat="49.95101" lon="2.18975">
        <ele>60.4</ele>
        <time>2022-03-02T14:55:49Z</time>
      </trkpt>
      <trkpt lat="49.95101" lon="2.18974">
        <ele>60.4</ele>
        <time>2022-03-02T14:55:50Z</time>
      </trkpt>
      <trkpt lat="49.95101" lon="2.18973">
        <ele>60.4</ele>
        <time>2022-03-02T14:55:51Z</time>
      </trkpt>
      <trkpt lat="49.95102" lon="2.1897">
        <ele>60.4</ele>
        <time>2022-03-02T14:55:52Z</time>
      </trkpt>
      <trkpt lat="49.95103" lon="2.18969">
        <ele>60.4</ele>
        <time>2022-03-02T14:55:53Z</time>
      </trkpt>
      <trkpt lat="49.95103" lon="2.18967">
        <ele>60.4</ele>
        <time>2022-03-02T14:55:54Z</time>
      </trkpt>
      <trkpt lat="49.95104" lon="2.18966">
        <ele>60.4</ele>
        <time>2022-03-02T14:55:55Z</time>
      </trkpt>
      <trkpt lat="49.95105" lon="2.18964">
        <ele>60.4</ele>
        <time>2022-03-02T14:55:57Z</time>
      </trkpt>
      <trkpt lat="49.95105" lon="2.18962">
        <ele>60.4</ele>
        <time>2022-03-02T14:55:58Z</time>
      </trkpt>
      <trkpt lat="49.95106" lon="2.18961">
        <ele>60.4</ele>
        <time>2022-03-02T14:55:59Z</time>
      </trkpt>
      <trkpt lat="49.95107" lon="2.18959">
        <ele>60.5</ele>
        <time>2022-03-02T14:56:00Z</time>
      </trkpt>
      <trkpt lat="49.95107" lon="2.18958">
        <ele>60.5</ele>
        <time>2022-03-02T14:56:01Z</time>
      </trkpt>
      <trkpt lat="49.95108" lon="2.18956">
        <ele>60.5</ele>
        <time>2022-03-02T14:56:02Z</time>
      </trkpt>
      <trkpt lat="49.95108" lon="2.18955">
        <ele>60.5</ele>
        <time>2022-03-02T14:56:04Z</time>
      </trkpt>
      <trkpt lat="49.95109" lon="2.18953">
        <ele>60.5</ele>
        <time>2022-03-02T14:56:05Z</time>
      </trkpt>
      <trkpt lat="49.95109" lon="2.18951">
        <ele>60.5</ele>
        <time>2022-03-02T14:56:06Z</time>
      </trkpt>
      <trkpt lat="49.9511" lon="2.1895">
        <ele>60.5</ele>
        <time>2022-03-02T14:56:07Z</time>
      </trkpt>
      <trkpt lat="49.9511" lon="2.18948">
        <ele>60.5</ele>
        <time>2022-03-02T14:56:08Z</time>
      </trkpt>
      <trkpt lat="49.95111" lon="2.18946">
        <ele>60.5</ele>
        <time>2022-03-02T14:56:09Z</time>
      </trkpt>
      <trkpt lat="49.95112" lon="2.18943">
        <ele>60.5</ele>
        <time>2022-03-02T14:56:10Z</time>
      </trkpt>
      <trkpt lat="49.95112" lon="2.18942">
        <ele>60.5</ele>
        <time>2022-03-02T14:56:12Z</time>
      </trkpt>
      <trkpt lat="49.95112" lon="2.1894">
        <ele>60.5</ele>
        <time>2022-03-02T14:56:13Z</time>
      </trkpt>
      <trkpt lat="49.95113" lon="2.18938">
        <ele>60.5</ele>
        <time>2022-03-02T14:56:15Z</time>
      </trkpt>
      <trkpt lat="49.95113" lon="2.18937">
        <ele>60.5</ele>
        <time>2022-03-02T14:56:16Z</time>
      </trkpt>
      <trkpt lat="49.95113" lon="2.18936">
        <ele>60.5</ele>
        <time>2022-03-02T14:56:17Z</time>
      </trkpt>
      <trkpt lat="49.95114" lon="2.18935">
        <ele>60.5</ele>
        <time>2022-03-02T14:56:19Z</time>
      </trkpt>
      <trkpt lat="49.95114" lon="2.18934">
        <ele>60.5</ele>
        <time>2022-03-02T14:56:20Z</time>
      </trkpt>
      <trkpt lat="49.95114" lon="2.18933">
        <ele>60.5</ele>
        <time>2022-03-02T14:56:21Z</time>
      </trkpt>
      <trkpt lat="49.95114" lon="2.18932">
        <ele>60.5</ele>
        <time>2022-03-02T14:56:22Z</time>
      </trkpt>
      <trkpt lat="49.95115" lon="2.1893">
        <ele>60.5</ele>
        <time>2022-03-02T14:56:24Z</time>
      </trkpt>
      <trkpt lat="49.95115" lon="2.18929">
        <ele>60.5</ele>
        <time>2022-03-02T14:56:25Z</time>
      </trkpt>
      <trkpt lat="49.95115" lon="2.18928">
        <ele>60.6</ele>
        <time>2022-03-02T14:56:26Z</time>
      </trkpt>
      <trkpt lat="49.95116" lon="2.18927">
        <ele>60.6</ele>
        <time>2022-03-02T14:56:27Z</time>
      </trkpt>
      <trkpt lat="49.95116" lon="2.18926">
        <ele>60.6</ele>
        <time>2022-03-02T14:56:28Z</time>
      </trkpt>
      <trkpt lat="49.95116" lon="2.18924">
        <ele>60.6</ele>
        <time>2022-03-02T14:56:30Z</time>
      </trkpt>
      <trkpt lat="49.95117" lon="2.18922">
        <ele>60.6</ele>
        <time>2022-03-02T14:56:31Z</time>
      </trkpt>
      <trkpt lat="49.95117" lon="2.18919">
        <ele>60.6</ele>
        <time>2022-03-02T14:56:32Z</time>
      </trkpt>
      <trkpt lat="49.95118" lon="2.18918">
        <ele>60.6</ele>
        <time>2022-03-02T14:56:33Z</time>
      </trkpt>
      <trkpt lat="49.95119" lon="2.18916">
        <ele>60.6</ele>
        <time>2022-03-02T14:56:34Z</time>
      </trkpt>
      <trkpt lat="49.95119" lon="2.18916">
        <ele>60.6</ele>
        <time>2022-03-02T14:56:36Z</time>
      </trkpt>
      <trkpt lat="49.95119" lon="2.18916">
        <ele>60.6</ele>
        <time>2022-03-02T14:56:37Z</time>
      </trkpt>
      <trkpt lat="49.95119" lon="2.18916">
        <ele>60.6</ele>
        <time>2022-03-02T14:56:38Z</time>
      </trkpt>
      <trkpt lat="49.95119" lon="2.18916">
        <ele>60.6</ele>
        <time>2022-03-02T14:56:39Z</time>
      </trkpt>
      <trkpt lat="49.95119" lon="2.18916">
        <ele>60.6</ele>
        <time>2022-03-02T14:56:40Z</time>
      </trkpt>
      <trkpt lat="49.95119" lon="2.18916">
        <ele>60.6</ele>
        <time>2022-03-02T14:56:42Z</time>
      </trkpt>
      <trkpt lat="49.95119" lon="2.18916">
        <ele>60.6</ele>
        <time>2022-03-02T14:56:43Z</time>
      </trkpt>
      <trkpt lat="49.95119" lon="2.18916">
        <ele>60.6</ele>
        <time>2022-03-02T14:56:44Z</time>
      </trkpt>
      <trkpt lat="49.95119" lon="2.18916">
        <ele>60.6</ele>
        <time>2022-03-02T14:56:45Z</time>
      </trkpt>
      <trkpt lat="49.95119" lon="2.18916">
        <ele>60.6</ele>
        <time>2022-03-02T14:56:46Z</time>
      </trkpt>
      <trkpt lat="49.95119" lon="2.18915">
        <ele>60.6</ele>
        <time>2022-03-02T14:56:47Z</time>
      </trkpt>
      <trkpt lat="49.95119" lon="2.18915">
        <ele>60.6</ele>
        <time>2022-03-02T14:56:48Z</time>
      </trkpt>
      <trkpt lat="49.95119" lon="2.18915">
        <ele>60.6</ele>
        <time>2022-03-02T14:56:49Z</time>
      </trkpt>
      <trkpt lat="49.95119" lon="2.18915">
        <ele>60.6</ele>
        <time>2022-03-02T14:56:50Z</time>
      </trkpt>
      <trkpt lat="49.95119" lon="2.18915">
        <ele>60.6</ele>
        <time>2022-03-02T14:56:51Z</time>
      </trkpt>
      <trkpt lat="49.95119" lon="2.18915">
        <ele>60.6</ele>
        <time>2022-03-02T14:56:52Z</time>
      </trkpt>
      <trkpt lat="49.95119" lon="2.18915">
        <ele>60.6</ele>
        <time>2022-03-02T14:56:53Z</time>
      </trkpt>
      <trkpt lat="49.95119" lon="2.18915">
        <ele>60.6</ele>
        <time>2022-03-02T14:56:54Z</time>
      </trkpt>
      <trkpt lat="49.95119" lon="2.18915">
        <ele>60.6</ele>
        <time>2022-03-02T14:56:55Z</time>
      </trkpt>
      <trkpt lat="49.95119" lon="2.18915">
        <ele>60.6</ele>
        <time>2022-03-02T14:56:56Z</time>
      </trkpt>
      <trkpt lat="49.95119" lon="2.18915">
        <ele>60.6</ele>
        <time>2022-03-02T14:56:57Z</time>
      </trkpt>
      <trkpt lat="49.95119" lon="2.18915">
        <ele>60.6</ele>
        <time>2022-03-02T14:56:58Z</time>
      </trkpt>
      <trkpt lat="49.95119" lon="2.18915">
        <ele>60.6</ele>
        <time>2022-03-02T14:56:59Z</time>
      </trkpt>
      <trkpt lat="49.95119" lon="2.18915">
        <ele>60.6</ele>
        <time>2022-03-02T14:57:00Z</time>
      </trkpt>
      <trkpt lat="49.95119" lon="2.18915">
        <ele>60.6</ele>
        <time>2022-03-02T14:57:01Z</time>
      </trkpt>
      <trkpt lat="49.95119" lon="2.18915">
        <ele>60.6</ele>
        <time>2022-03-02T14:57:02Z</time>
      </trkpt>
      <trkpt lat="49.95119" lon="2.18915">
        <ele>60.6</ele>
        <time>2022-03-02T14:57:03Z</time>
      </trkpt>
      <trkpt lat="49.95119" lon="2.18915">
        <ele>60.6</ele>
        <time>2022-03-02T14:57:04Z</time>
      </trkpt>
      <trkpt lat="49.95119" lon="2.18915">
        <ele>60.6</ele>
        <time>2022-03-02T14:57:05Z</time>
      </trkpt>
      <trkpt lat="49.95119" lon="2.18915">
        <ele>60.6</ele>
        <time>2022-03-02T14:57:06Z</time>
      </trkpt>
      <trkpt lat="49.95119" lon="2.18915">
        <ele>60.6</ele>
        <time>2022-03-02T14:57:07Z</time>
      </trkpt>
      <trkpt lat="49.95119" lon="2.18915">
        <ele>60.6</ele>
        <time>2022-03-02T14:57:08Z</time>
      </trkpt>
      <trkpt lat="49.95119" lon="2.18915">
        <ele>60.6</ele>
        <time>2022-03-02T14:57:09Z</time>
      </trkpt>
      <trkpt lat="49.95119" lon="2.18915">
        <ele>60.6</ele>
        <time>2022-03-02T14:57:10Z</time>
      </trkpt>
      <trkpt lat="49.95119" lon="2.18915">
        <ele>60.6</ele>
        <time>2022-03-02T14:57:11Z</time>
      </trkpt>
      <trkpt lat="49.95119" lon="2.18915">
        <ele>60.6</ele>
        <time>2022-03-02T14:57:12Z</time>
      </trkpt>
      <trkpt lat="49.95119" lon="2.18915">
        <ele>60.6</ele>
        <time>2022-03-02T14:57:13Z</time>
      </trkpt>
      <trkpt lat="49.95119" lon="2.18915">
        <ele>60.6</ele>
        <time>2022-03-02T14:57:14Z</time>
      </trkpt>
      <trkpt lat="49.95119" lon="2.18915">
        <ele>60.6</ele>
        <time>2022-03-02T14:57:15Z</time>
      </trkpt>
      <trkpt lat="49.95119" lon="2.18915">
        <ele>60.6</ele>
        <time>2022-03-02T14:57:16Z</time>
      </trkpt>
      <trkpt lat="49.95119" lon="2.18915">
        <ele>60.6</ele>
        <time>2022-03-02T14:57:17Z</time>
      </trkpt>
      <trkpt lat="49.95119" lon="2.18915">
        <ele>60.6</ele>
        <time>2022-03-02T14:57:18Z</time>
      </trkpt>
      <trkpt lat="49.95119" lon="2.18915">
        <ele>60.6</ele>
        <time>2022-03-02T14:57:19Z</time>
      </trkpt>
      <trkpt lat="49.95119" lon="2.18915">
        <ele>60.6</ele>
        <time>2022-03-02T14:57:20Z</time>
      </trkpt>
      <trkpt lat="49.95119" lon="2.18915">
        <ele>60.6</ele>
        <time>2022-03-02T14:57:21Z</time>
      </trkpt>
      <trkpt lat="49.95119" lon="2.18915">
        <ele>60.6</ele>
        <time>2022-03-02T14:57:22Z</time>
      </trkpt>
      <trkpt lat="49.95119" lon="2.18915">
        <ele>60.6</ele>
        <time>2022-03-02T14:57:23Z</time>
      </trkpt>
      <trkpt lat="49.95119" lon="2.18915">
        <ele>60.6</ele>
        <time>2022-03-02T14:57:24Z</time>
      </trkpt>
      <trkpt lat="49.95119" lon="2.18915">
        <ele>60.6</ele>
        <time>2022-03-02T14:57:25Z</time>
      </trkpt>
      <trkpt lat="49.95119" lon="2.18915">
        <ele>60.6</ele>
        <time>2022-03-02T14:57:26Z</time>
      </trkpt>
      <trkpt lat="49.95119" lon="2.18915">
        <ele>60.6</ele>
        <time>2022-03-02T14:57:27Z</time>
      </trkpt>
      <trkpt lat="49.95119" lon="2.18915">
        <ele>60.6</ele>
        <time>2022-03-02T14:57:28Z</time>
      </trkpt>
      <trkpt lat="49.95119" lon="2.18915">
        <ele>60.6</ele>
        <time>2022-03-02T14:57:29Z</time>
      </trkpt>
      <trkpt lat="49.9512" lon="2.18915">
        <ele>60.6</ele>
        <time>2022-03-02T14:57:30Z</time>
      </trkpt>
      <trkpt lat="49.9512" lon="2.18915">
        <ele>60.6</ele>
        <time>2022-03-02T14:57:31Z</time>
      </trkpt>
      <trkpt lat="49.9512" lon="2.18915">
        <ele>60.6</ele>
        <time>2022-03-02T14:57:32Z</time>
      </trkpt>
      <trkpt lat="49.9512" lon="2.18915">
        <ele>60.6</ele>
        <time>2022-03-02T14:57:33Z</time>
      </trkpt>
      <trkpt lat="49.9512" lon="2.18915">
        <ele>60.6</ele>
        <time>2022-03-02T14:57:34Z</time>
      </trkpt>
      <trkpt lat="49.9512" lon="2.18915">
        <ele>60.6</ele>
        <time>2022-03-02T14:57:35Z</time>
      </trkpt>
      <trkpt lat="49.9512" lon="2.18915">
        <ele>60.6</ele>
        <time>2022-03-02T14:57:36Z</time>
      </trkpt>
      <trkpt lat="49.9512" lon="2.18915">
        <ele>60.6</ele>
        <time>2022-03-02T14:57:37Z</time>
      </trkpt>
      <trkpt lat="49.9512" lon="2.18915">
        <ele>60.6</ele>
        <time>2022-03-02T14:57:38Z</time>
      </trkpt>
      <trkpt lat="49.9512" lon="2.18915">
        <ele>60.6</ele>
        <time>2022-03-02T14:57:39Z</time>
      </trkpt>
      <trkpt lat="49.9512" lon="2.18915">
        <ele>60.6</ele>
        <time>2022-03-02T14:57:40Z</time>
      </trkpt>
      <trkpt lat="49.9512" lon="2.18915">
        <ele>60.6</ele>
        <time>2022-03-02T14:57:41Z</time>
      </trkpt>
      <trkpt lat="49.9512" lon="2.18915">
        <ele>60.6</ele>
        <time>2022-03-02T14:57:42Z</time>
      </trkpt>
      <trkpt lat="49.9512" lon="2.18915">
        <ele>60.6</ele>
        <time>2022-03-02T14:57:43Z</time>
      </trkpt>
      <trkpt lat="49.9512" lon="2.18915">
        <ele>60.6</ele>
        <time>2022-03-02T14:57:44Z</time>
      </trkpt>
      <trkpt lat="49.9512" lon="2.18915">
        <ele>60.6</ele>
        <time>2022-03-02T14:57:45Z</time>
      </trkpt>
      <trkpt lat="49.9512" lon="2.18915">
        <ele>60.6</ele>
        <time>2022-03-02T14:57:46Z</time>
      </trkpt>
      <trkpt lat="49.9512" lon="2.18915">
        <ele>60.6</ele>
        <time>2022-03-02T14:57:47Z</time>
      </trkpt>
      <trkpt lat="49.9512" lon="2.18915">
        <ele>60.6</ele>
        <time>2022-03-02T14:57:48Z</time>
      </trkpt>
      <trkpt lat="49.9512" lon="2.18915">
        <ele>60.6</ele>
        <time>2022-03-02T14:57:49Z</time>
      </trkpt>
      <trkpt lat="49.9512" lon="2.18915">
        <ele>60.6</ele>
        <time>2022-03-02T14:57:50Z</time>
      </trkpt>
      <trkpt lat="49.9512" lon="2.18915">
        <ele>60.6</ele>
        <time>2022-03-02T14:57:51Z</time>
      </trkpt>
      <trkpt lat="49.9512" lon="2.18915">
        <ele>60.6</ele>
        <time>2022-03-02T14:57:52Z</time>
      </trkpt>
      <trkpt lat="49.9512" lon="2.18915">
        <ele>60.6</ele>
        <time>2022-03-02T14:57:53Z</time>
      </trkpt>
      <trkpt lat="49.9512" lon="2.18915">
        <ele>60.6</ele>
        <time>2022-03-02T14:57:54Z</time>
      </trkpt>
      <trkpt lat="49.9512" lon="2.18915">
        <ele>60.6</ele>
        <time>2022-03-02T14:57:55Z</time>
      </trkpt>
      <trkpt lat="49.9512" lon="2.18915">
        <ele>60.6</ele>
        <time>2022-03-02T14:57:56Z</time>
      </trkpt>
      <trkpt lat="49.9512" lon="2.18915">
        <ele>60.6</ele>
        <time>2022-03-02T14:57:57Z</time>
      </trkpt>
      <trkpt lat="49.9512" lon="2.18915">
        <ele>60.6</ele>
        <time>2022-03-02T14:57:58Z</time>
      </trkpt>
      <trkpt lat="49.9512" lon="2.18915">
        <ele>60.6</ele>
        <time>2022-03-02T14:57:59Z</time>
      </trkpt>
      <trkpt lat="49.9512" lon="2.18915">
        <ele>60.6</ele>
        <time>2022-03-02T14:58:00Z</time>
      </trkpt>
      <trkpt lat="49.9512" lon="2.18915">
        <ele>60.6</ele>
        <time>2022-03-02T14:58:01Z</time>
      </trkpt>
      <trkpt lat="49.9512" lon="2.18915">
        <ele>60.6</ele>
        <time>2022-03-02T14:58:02Z</time>
      </trkpt>
      <trkpt lat="49.9512" lon="2.18915">
        <ele>60.6</ele>
        <time>2022-03-02T14:58:03Z</time>
      </trkpt>
      <trkpt lat="49.9512" lon="2.18915">
        <ele>60.6</ele>
        <time>2022-03-02T14:58:04Z</time>
      </trkpt>
      <trkpt lat="49.9512" lon="2.18915">
        <ele>60.6</ele>
        <time>2022-03-02T14:58:05Z</time>
      </trkpt>
      <trkpt lat="49.9512" lon="2.18915">
        <ele>60.6</ele>
        <time>2022-03-02T14:58:06Z</time>
      </trkpt>
      <trkpt lat="49.9512" lon="2.18915">
        <ele>60.6</ele>
        <time>2022-03-02T14:58:07Z</time>
      </trkpt>
      <trkpt lat="49.9512" lon="2.18915">
        <ele>60.6</ele>
        <time>2022-03-02T14:58:08Z</time>
      </trkpt>
      <trkpt lat="49.9512" lon="2.18915">
        <ele>60.6</ele>
        <time>2022-03-02T14:58:09Z</time>
      </trkpt>
      <trkpt lat="49.9512" lon="2.18915">
        <ele>60.6</ele>
        <time>2022-03-02T14:58:10Z</time>
      </trkpt>
      <trkpt lat="49.9512" lon="2.18915">
        <ele>60.6</ele>
        <time>2022-03-02T14:58:11Z</time>
      </trkpt>
      <trkpt lat="49.9512" lon="2.18915">
        <ele>60.6</ele>
        <time>2022-03-02T14:58:12Z</time>
      </trkpt>
      <trkpt lat="49.9512" lon="2.18915">
        <ele>60.6</ele>
        <time>2022-03-02T14:58:13Z</time>
      </trkpt>
      <trkpt lat="49.9512" lon="2.18915">
        <ele>60.6</ele>
        <time>2022-03-02T14:58:14Z</time>
      </trkpt>
      <trkpt lat="49.9512" lon="2.18915">
        <ele>60.6</ele>
        <time>2022-03-02T14:58:15Z</time>
      </trkpt>
      <trkpt lat="49.9512" lon="2.18915">
        <ele>60.6</ele>
        <time>2022-03-02T14:58:16Z</time>
      </trkpt>
      <trkpt lat="49.9512" lon="2.18915">
        <ele>60.6</ele>
        <time>2022-03-02T14:58:17Z</time>
      </trkpt>
      <trkpt lat="49.9512" lon="2.18915">
        <ele>60.6</ele>
        <time>2022-03-02T14:58:18Z</time>
      </trkpt>
      <trkpt lat="49.9512" lon="2.18915">
        <ele>60.6</ele>
        <time>2022-03-02T14:58:19Z</time>
      </trkpt>
      <trkpt lat="49.9512" lon="2.18915">
        <ele>60.6</ele>
        <time>2022-03-02T14:58:20Z</time>
      </trkpt>
      <trkpt lat="49.9512" lon="2.18915">
        <ele>60.6</ele>
        <time>2022-03-02T14:58:21Z</time>
      </trkpt>
      <trkpt lat="49.9512" lon="2.18915">
        <ele>60.6</ele>
        <time>2022-03-02T14:58:22Z</time>
      </trkpt>
      <trkpt lat="49.9512" lon="2.18915">
        <ele>60.6</ele>
        <time>2022-03-02T14:58:23Z</time>
      </trkpt>
      <trkpt lat="49.9512" lon="2.18915">
        <ele>60.6</ele>
        <time>2022-03-02T14:58:24Z</time>
      </trkpt>
      <trkpt lat="49.9512" lon="2.18914">
        <ele>60.6</ele>
        <time>2022-03-02T14:58:25Z</time>
      </trkpt>
      <trkpt lat="49.9512" lon="2.18914">
        <ele>60.6</ele>
        <time>2022-03-02T14:58:26Z</time>
      </trkpt>
      <trkpt lat="49.9512" lon="2.18914">
        <ele>60.6</ele>
        <time>2022-03-02T14:58:27Z</time>
      </trkpt>
      <trkpt lat="49.9512" lon="2.18914">
        <ele>60.6</ele>
        <time>2022-03-02T14:58:28Z</time>
      </trkpt>
      <trkpt lat="49.9512" lon="2.18914">
        <ele>60.6</ele>
        <time>2022-03-02T14:58:29Z</time>
      </trkpt>
      <trkpt lat="49.9512" lon="2.18914">
        <ele>60.6</ele>
        <time>2022-03-02T14:58:30Z</time>
      </trkpt>
      <trkpt lat="49.9512" lon="2.18914">
        <ele>60.6</ele>
        <time>2022-03-02T14:58:31Z</time>
      </trkpt>
      <trkpt lat="49.9512" lon="2.18914">
        <ele>60.6</ele>
        <time>2022-03-02T14:58:32Z</time>
      </trkpt>
      <trkpt lat="49.9512" lon="2.18914">
        <ele>60.6</ele>
        <time>2022-03-02T14:58:33Z</time>
      </trkpt>
      <trkpt lat="49.9512" lon="2.18914">
        <ele>60.6</ele>
        <time>2022-03-02T14:58:34Z</time>
      </trkpt>
      <trkpt lat="49.9512" lon="2.18914">
        <ele>60.6</ele>
        <time>2022-03-02T14:58:35Z</time>
      </trkpt>
      <trkpt lat="49.9512" lon="2.18914">
        <ele>60.6</ele>
        <time>2022-03-02T14:58:36Z</time>
      </trkpt>
      <trkpt lat="49.9512" lon="2.18914">
        <ele>60.6</ele>
        <time>2022-03-02T14:58:37Z</time>
      </trkpt>
      <trkpt lat="49.9512" lon="2.18914">
        <ele>60.6</ele>
        <time>2022-03-02T14:58:38Z</time>
      </trkpt>
      <trkpt lat="49.9512" lon="2.18914">
        <ele>60.6</ele>
        <time>2022-03-02T14:58:39Z</time>
      </trkpt>
      <trkpt lat="49.9512" lon="2.18914">
        <ele>60.6</ele>
        <time>2022-03-02T14:58:40Z</time>
      </trkpt>
      <trkpt lat="49.9512" lon="2.18914">
        <ele>60.6</ele>
        <time>2022-03-02T14:58:41Z</time>
      </trkpt>
      <trkpt lat="49.9512" lon="2.18914">
        <ele>60.6</ele>
        <time>2022-03-02T14:58:42Z</time>
      </trkpt>
      <trkpt lat="49.9512" lon="2.18914">
        <ele>60.6</ele>
        <time>2022-03-02T14:58:43Z</time>
      </trkpt>
      <trkpt lat="49.9512" lon="2.18914">
        <ele>60.6</ele>
        <time>2022-03-02T14:58:44Z</time>
      </trkpt>
      <trkpt lat="49.9512" lon="2.18914">
        <ele>60.6</ele>
        <time>2022-03-02T14:58:45Z</time>
      </trkpt>
      <trkpt lat="49.9512" lon="2.18914">
        <ele>60.6</ele>
        <time>2022-03-02T14:58:46Z</time>
      </trkpt>
      <trkpt lat="49.9512" lon="2.18914">
        <ele>60.6</ele>
        <time>2022-03-02T14:58:47Z</time>
      </trkpt>
      <trkpt lat="49.9512" lon="2.18914">
        <ele>60.6</ele>
        <time>2022-03-02T14:58:48Z</time>
      </trkpt>
      <trkpt lat="49.9512" lon="2.18914">
        <ele>60.6</ele>
        <time>2022-03-02T14:58:49Z</time>
      </trkpt>
      <trkpt lat="49.9512" lon="2.18914">
        <ele>60.6</ele>
        <time>2022-03-02T14:58:50Z</time>
      </trkpt>
      <trkpt lat="49.9512" lon="2.18914">
        <ele>60.6</ele>
        <time>2022-03-02T14:58:51Z</time>
      </trkpt>
      <trkpt lat="49.9512" lon="2.18914">
        <ele>60.6</ele>
        <time>2022-03-02T14:58:52Z</time>
      </trkpt>
      <trkpt lat="49.95121" lon="2.18914">
        <ele>60.6</ele>
        <time>2022-03-02T14:58:53Z</time>
      </trkpt>
      <trkpt lat="49.95121" lon="2.18914">
        <ele>60.6</ele>
        <time>2022-03-02T14:58:54Z</time>
      </trkpt>
      <trkpt lat="49.95121" lon="2.18914">
        <ele>60.6</ele>
        <time>2022-03-02T14:58:55Z</time>
      </trkpt>
      <trkpt lat="49.95121" lon="2.18914">
        <ele>60.6</ele>
        <time>2022-03-02T14:58:56Z</time>
      </trkpt>
      <trkpt lat="49.95121" lon="2.18914">
        <ele>60.6</ele>
        <time>2022-03-02T14:58:57Z</time>
      </trkpt>
      <trkpt lat="49.95121" lon="2.18914">
        <ele>60.6</ele>
        <time>2022-03-02T14:58:58Z</time>
      </trkpt>
      <trkpt lat="49.95121" lon="2.18914">
        <ele>60.6</ele>
        <time>2022-03-02T14:58:59Z</time>
      </trkpt>
      <trkpt lat="49.95121" lon="2.18914">
        <ele>60.6</ele>
        <time>2022-03-02T14:59:00Z</time>
      </trkpt>
      <trkpt lat="49.95121" lon="2.18914">
        <ele>60.6</ele>
        <time>2022-03-02T14:59:01Z</time>
      </trkpt>
      <trkpt lat="49.95121" lon="2.18914">
        <ele>60.6</ele>
        <time>2022-03-02T14:59:02Z</time>
      </trkpt>
      <trkpt lat="49.95121" lon="2.18914">
        <ele>60.6</ele>
        <time>2022-03-02T14:59:03Z</time>
      </trkpt>
      <trkpt lat="49.95121" lon="2.18914">
        <ele>60.6</ele>
        <time>2022-03-02T14:59:04Z</time>
      </trkpt>
      <trkpt lat="49.95121" lon="2.18914">
        <ele>60.6</ele>
        <time>2022-03-02T14:59:05Z</time>
      </trkpt>
      <trkpt lat="49.95121" lon="2.18914">
        <ele>60.6</ele>
        <time>2022-03-02T14:59:06Z</time>
      </trkpt>
      <trkpt lat="49.95121" lon="2.18914">
        <ele>60.6</ele>
        <time>2022-03-02T14:59:07Z</time>
      </trkpt>
      <trkpt lat="49.95121" lon="2.18914">
        <ele>60.6</ele>
        <time>2022-03-02T14:59:08Z</time>
      </trkpt>
      <trkpt lat="49.95121" lon="2.18914">
        <ele>60.6</ele>
        <time>2022-03-02T14:59:09Z</time>
      </trkpt>
      <trkpt lat="49.95121" lon="2.18914">
        <ele>60.6</ele>
        <time>2022-03-02T14:59:10Z</time>
      </trkpt>
      <trkpt lat="49.95121" lon="2.18915">
        <ele>60.6</ele>
        <time>2022-03-02T14:59:11Z</time>
      </trkpt>
      <trkpt lat="49.95122" lon="2.18916">
        <ele>60.6</ele>
        <time>2022-03-02T14:59:12Z</time>
      </trkpt>
      <trkpt lat="49.95122" lon="2.18917">
        <ele>60.6</ele>
        <time>2022-03-02T14:59:13Z</time>
      </trkpt>
      <trkpt lat="49.95122" lon="2.18917">
        <ele>60.7</ele>
        <time>2022-03-02T14:59:14Z</time>
      </trkpt>
      <trkpt lat="49.95123" lon="2.18917">
        <ele>60.7</ele>
        <time>2022-03-02T14:59:15Z</time>
      </trkpt>
      <trkpt lat="49.95123" lon="2.18916">
        <ele>60.7</ele>
        <time>2022-03-02T14:59:16Z</time>
      </trkpt>
      <trkpt lat="49.95124" lon="2.18914">
        <ele>60.7</ele>
        <time>2022-03-02T14:59:17Z</time>
      </trkpt>
      <trkpt lat="49.95124" lon="2.18914">
        <ele>60.7</ele>
        <time>2022-03-02T14:59:18Z</time>
      </trkpt>
      <trkpt lat="49.95124" lon="2.18913">
        <ele>60.7</ele>
        <time>2022-03-02T14:59:19Z</time>
      </trkpt>
      <trkpt lat="49.95124" lon="2.18911">
        <ele>60.7</ele>
        <time>2022-03-02T14:59:21Z</time>
      </trkpt>
      <trkpt lat="49.95125" lon="2.1891">
        <ele>60.7</ele>
        <time>2022-03-02T14:59:22Z</time>
      </trkpt>
      <trkpt lat="49.95125" lon="2.18908">
        <ele>60.8</ele>
        <time>2022-03-02T14:59:23Z</time>
      </trkpt>
      <trkpt lat="49.95126" lon="2.18906">
        <ele>60.8</ele>
        <time>2022-03-02T14:59:25Z</time>
      </trkpt>
      <trkpt lat="49.95127" lon="2.18905">
        <ele>60.8</ele>
        <time>2022-03-02T14:59:26Z</time>
      </trkpt>
      <trkpt lat="49.95127" lon="2.18905">
        <ele>60.8</ele>
        <time>2022-03-02T14:59:27Z</time>
      </trkpt>
      <trkpt lat="49.95128" lon="2.18904">
        <ele>60.8</ele>
        <time>2022-03-02T14:59:28Z</time>
      </trkpt>
      <trkpt lat="49.95128" lon="2.18902">
        <ele>60.8</ele>
        <time>2022-03-02T14:59:30Z</time>
      </trkpt>
      <trkpt lat="49.95128" lon="2.18901">
        <ele>60.8</ele>
        <time>2022-03-02T14:59:31Z</time>
      </trkpt>
      <trkpt lat="49.95128" lon="2.18899">
        <ele>60.9</ele>
        <time>2022-03-02T14:59:32Z</time>
      </trkpt>
      <trkpt lat="49.95128" lon="2.18899">
        <ele>60.9</ele>
        <time>2022-03-02T14:59:33Z</time>
      </trkpt>
      <trkpt lat="49.95129" lon="2.18897">
        <ele>60.9</ele>
        <time>2022-03-02T14:59:34Z</time>
      </trkpt>
      <trkpt lat="49.95129" lon="2.18896">
        <ele>60.9</ele>
        <time>2022-03-02T14:59:36Z</time>
      </trkpt>
      <trkpt lat="49.9513" lon="2.18895">
        <ele>60.9</ele>
        <time>2022-03-02T14:59:37Z</time>
      </trkpt>
      <trkpt lat="49.9513" lon="2.18894">
        <ele>60.9</ele>
        <time>2022-03-02T14:59:38Z</time>
      </trkpt>
      <trkpt lat="49.95131" lon="2.18893">
        <ele>60.9</ele>
        <time>2022-03-02T14:59:40Z</time>
      </trkpt>
      <trkpt lat="49.95132" lon="2.18892">
        <ele>60.9</ele>
        <time>2022-03-02T14:59:41Z</time>
      </trkpt>
      <trkpt lat="49.95132" lon="2.18891">
        <ele>61</ele>
        <time>2022-03-02T14:59:42Z</time>
      </trkpt>
      <trkpt lat="49.95133" lon="2.1889">
        <ele>61</ele>
        <time>2022-03-02T14:59:43Z</time>
      </trkpt>
      <trkpt lat="49.95133" lon="2.18889">
        <ele>61</ele>
        <time>2022-03-02T14:59:44Z</time>
      </trkpt>
      <trkpt lat="49.95134" lon="2.18888">
        <ele>61</ele>
        <time>2022-03-02T14:59:45Z</time>
      </trkpt>
      <trkpt lat="49.95135" lon="2.18888">
        <ele>61</ele>
        <time>2022-03-02T14:59:46Z</time>
      </trkpt>
      <trkpt lat="49.95136" lon="2.18887">
        <ele>61</ele>
        <time>2022-03-02T14:59:48Z</time>
      </trkpt>
      <trkpt lat="49.95137" lon="2.18888">
        <ele>61</ele>
        <time>2022-03-02T14:59:49Z</time>
      </trkpt>
      <trkpt lat="49.95138" lon="2.18888">
        <ele>61</ele>
        <time>2022-03-02T14:59:50Z</time>
      </trkpt>
      <trkpt lat="49.95139" lon="2.18888">
        <ele>61</ele>
        <time>2022-03-02T14:59:51Z</time>
      </trkpt>
      <trkpt lat="49.9514" lon="2.1889">
        <ele>61</ele>
        <time>2022-03-02T14:59:52Z</time>
      </trkpt>
      <trkpt lat="49.95141" lon="2.18891">
        <ele>61</ele>
        <time>2022-03-02T14:59:53Z</time>
      </trkpt>
      <trkpt lat="49.95142" lon="2.18893">
        <ele>61</ele>
        <time>2022-03-02T14:59:55Z</time>
      </trkpt>
      <trkpt lat="49.95143" lon="2.18895">
        <ele>61</ele>
        <time>2022-03-02T14:59:56Z</time>
      </trkpt>
      <trkpt lat="49.95144" lon="2.18897">
        <ele>61</ele>
        <time>2022-03-02T14:59:57Z</time>
      </trkpt>
      <trkpt lat="49.95144" lon="2.18898">
        <ele>61</ele>
        <time>2022-03-02T14:59:58Z</time>
      </trkpt>
      <trkpt lat="49.95145" lon="2.18901">
        <ele>61</ele>
        <time>2022-03-02T14:59:59Z</time>
      </trkpt>
      <trkpt lat="49.95145" lon="2.18902">
        <ele>61</ele>
        <time>2022-03-02T15:00:01Z</time>
      </trkpt>
      <trkpt lat="49.95145" lon="2.18904">
        <ele>61</ele>
        <time>2022-03-02T15:00:02Z</time>
      </trkpt>
      <trkpt lat="49.95146" lon="2.18905">
        <ele>61</ele>
        <time>2022-03-02T15:00:03Z</time>
      </trkpt>
      <trkpt lat="49.95147" lon="2.18907">
        <ele>61</ele>
        <time>2022-03-02T15:00:04Z</time>
      </trkpt>
      <trkpt lat="49.95147" lon="2.18908">
        <ele>61</ele>
        <time>2022-03-02T15:00:05Z</time>
      </trkpt>
      <trkpt lat="49.95148" lon="2.18909">
        <ele>61</ele>
        <time>2022-03-02T15:00:06Z</time>
      </trkpt>
      <trkpt lat="49.95149" lon="2.1891">
        <ele>61</ele>
        <time>2022-03-02T15:00:07Z</time>
      </trkpt>
      <trkpt lat="49.95149" lon="2.18912">
        <ele>61</ele>
        <time>2022-03-02T15:00:08Z</time>
      </trkpt>
      <trkpt lat="49.95151" lon="2.18913">
        <ele>61</ele>
        <time>2022-03-02T15:00:10Z</time>
      </trkpt>
      <trkpt lat="49.95152" lon="2.18915">
        <ele>61</ele>
        <time>2022-03-02T15:00:11Z</time>
      </trkpt>
      <trkpt lat="49.95153" lon="2.18916">
        <ele>61.1</ele>
        <time>2022-03-02T15:00:12Z</time>
      </trkpt>
      <trkpt lat="49.95154" lon="2.18917">
        <ele>61.1</ele>
        <time>2022-03-02T15:00:13Z</time>
      </trkpt>
      <trkpt lat="49.95156" lon="2.18919">
        <ele>61.1</ele>
        <time>2022-03-02T15:00:14Z</time>
      </trkpt>
      <trkpt lat="49.95157" lon="2.1892">
        <ele>61.1</ele>
        <time>2022-03-02T15:00:15Z</time>
      </trkpt>
      <trkpt lat="49.95157" lon="2.1892">
        <ele>61.1</ele>
        <time>2022-03-02T15:00:16Z</time>
      </trkpt>
      <trkpt lat="49.95159" lon="2.18922">
        <ele>61.1</ele>
        <time>2022-03-02T15:00:17Z</time>
      </trkpt>
      <trkpt lat="49.9516" lon="2.18923">
        <ele>61.1</ele>
        <time>2022-03-02T15:00:18Z</time>
      </trkpt>
      <trkpt lat="49.95161" lon="2.18924">
        <ele>61.1</ele>
        <time>2022-03-02T15:00:20Z</time>
      </trkpt>
      <trkpt lat="49.95162" lon="2.18925">
        <ele>61.1</ele>
        <time>2022-03-02T15:00:21Z</time>
      </trkpt>
      <trkpt lat="49.95164" lon="2.18927">
        <ele>61.1</ele>
        <time>2022-03-02T15:00:22Z</time>
      </trkpt>
      <trkpt lat="49.95165" lon="2.18927">
        <ele>61.1</ele>
        <time>2022-03-02T15:00:23Z</time>
      </trkpt>
      <trkpt lat="49.95165" lon="2.18928">
        <ele>61.1</ele>
        <time>2022-03-02T15:00:24Z</time>
      </trkpt>
      <trkpt lat="49.95166" lon="2.18928">
        <ele>61.1</ele>
        <time>2022-03-02T15:00:25Z</time>
      </trkpt>
      <trkpt lat="49.95167" lon="2.18928">
        <ele>61.1</ele>
        <time>2022-03-02T15:00:26Z</time>
      </trkpt>
      <trkpt lat="49.95169" lon="2.18929">
        <ele>61.1</ele>
        <time>2022-03-02T15:00:27Z</time>
      </trkpt>
      <trkpt lat="49.9517" lon="2.1893">
        <ele>61.1</ele>
        <time>2022-03-02T15:00:28Z</time>
      </trkpt>
      <trkpt lat="49.95171" lon="2.18931">
        <ele>61.2</ele>
        <time>2022-03-02T15:00:30Z</time>
      </trkpt>
      <trkpt lat="49.95173" lon="2.18932">
        <ele>61.2</ele>
        <time>2022-03-02T15:00:31Z</time>
      </trkpt>
      <trkpt lat="49.95174" lon="2.18932">
        <ele>61.2</ele>
        <time>2022-03-02T15:00:32Z</time>
      </trkpt>
      <trkpt lat="49.95175" lon="2.18933">
        <ele>61.2</ele>
        <time>2022-03-02T15:00:33Z</time>
      </trkpt>
      <trkpt lat="49.95177" lon="2.18934">
        <ele>61.2</ele>
        <time>2022-03-02T15:00:34Z</time>
      </trkpt>
      <trkpt lat="49.95178" lon="2.18934">
        <ele>61.2</ele>
        <time>2022-03-02T15:00:35Z</time>
      </trkpt>
      <trkpt lat="49.95179" lon="2.18935">
        <ele>61.2</ele>
        <time>2022-03-02T15:00:36Z</time>
      </trkpt>
      <trkpt lat="49.95179" lon="2.18935">
        <ele>61.2</ele>
        <time>2022-03-02T15:00:37Z</time>
      </trkpt>
      <trkpt lat="49.95181" lon="2.18937">
        <ele>61.2</ele>
        <time>2022-03-02T15:00:38Z</time>
      </trkpt>
      <trkpt lat="49.95182" lon="2.18937">
        <ele>61.2</ele>
        <time>2022-03-02T15:00:39Z</time>
      </trkpt>
      <trkpt lat="49.95183" lon="2.18938">
        <ele>61.2</ele>
        <time>2022-03-02T15:00:40Z</time>
      </trkpt>
      <trkpt lat="49.95184" lon="2.18941">
        <ele>61.2</ele>
        <time>2022-03-02T15:00:41Z</time>
      </trkpt>
      <trkpt lat="49.95185" lon="2.18941">
        <ele>61.2</ele>
        <time>2022-03-02T15:00:42Z</time>
      </trkpt>
      <trkpt lat="49.95186" lon="2.18942">
        <ele>61.2</ele>
        <time>2022-03-02T15:00:43Z</time>
      </trkpt>
      <trkpt lat="49.95187" lon="2.18944">
        <ele>61.3</ele>
        <time>2022-03-02T15:00:45Z</time>
      </trkpt>
      <trkpt lat="49.95188" lon="2.18945">
        <ele>61.3</ele>
        <time>2022-03-02T15:00:46Z</time>
      </trkpt>
      <trkpt lat="49.9519" lon="2.18947">
        <ele>61.3</ele>
        <time>2022-03-02T15:00:47Z</time>
      </trkpt>
      <trkpt lat="49.9519" lon="2.18948">
        <ele>61.3</ele>
        <time>2022-03-02T15:00:48Z</time>
      </trkpt>
      <trkpt lat="49.95191" lon="2.18949">
        <ele>61.3</ele>
        <time>2022-03-02T15:00:49Z</time>
      </trkpt>
      <trkpt lat="49.95192" lon="2.1895">
        <ele>61.3</ele>
        <time>2022-03-02T15:00:51Z</time>
      </trkpt>
      <trkpt lat="49.95193" lon="2.18951">
        <ele>61.3</ele>
        <time>2022-03-02T15:00:52Z</time>
      </trkpt>
      <trkpt lat="49.95195" lon="2.18952">
        <ele>61.3</ele>
        <time>2022-03-02T15:00:53Z</time>
      </trkpt>
      <trkpt lat="49.95196" lon="2.18953">
        <ele>61.3</ele>
        <time>2022-03-02T15:00:54Z</time>
      </trkpt>
      <trkpt lat="49.95197" lon="2.18954">
        <ele>61.4</ele>
        <time>2022-03-02T15:00:55Z</time>
      </trkpt>
      <trkpt lat="49.95198" lon="2.18955">
        <ele>61.4</ele>
        <time>2022-03-02T15:00:56Z</time>
      </trkpt>
      <trkpt lat="49.95199" lon="2.18956">
        <ele>61.4</ele>
        <time>2022-03-02T15:00:57Z</time>
      </trkpt>
      <trkpt lat="49.952" lon="2.18957">
        <ele>61.4</ele>
        <time>2022-03-02T15:00:58Z</time>
      </trkpt>
      <trkpt lat="49.95201" lon="2.18958">
        <ele>61.4</ele>
        <time>2022-03-02T15:00:59Z</time>
      </trkpt>
      <trkpt lat="49.95203" lon="2.18959">
        <ele>61.4</ele>
        <time>2022-03-02T15:01:00Z</time>
      </trkpt>
      <trkpt lat="49.95204" lon="2.1896">
        <ele>61.4</ele>
        <time>2022-03-02T15:01:01Z</time>
      </trkpt>
      <trkpt lat="49.95205" lon="2.1896">
        <ele>61.4</ele>
        <time>2022-03-02T15:01:02Z</time>
      </trkpt>
      <trkpt lat="49.95206" lon="2.18962">
        <ele>61.5</ele>
        <time>2022-03-02T15:01:03Z</time>
      </trkpt>
      <trkpt lat="49.95207" lon="2.18963">
        <ele>61.5</ele>
        <time>2022-03-02T15:01:05Z</time>
      </trkpt>
      <trkpt lat="49.95208" lon="2.18964">
        <ele>61.5</ele>
        <time>2022-03-02T15:01:06Z</time>
      </trkpt>
      <trkpt lat="49.9521" lon="2.18965">
        <ele>61.5</ele>
        <time>2022-03-02T15:01:07Z</time>
      </trkpt>
      <trkpt lat="49.95212" lon="2.18966">
        <ele>61.5</ele>
        <time>2022-03-02T15:01:08Z</time>
      </trkpt>
      <trkpt lat="49.95213" lon="2.18966">
        <ele>61.5</ele>
        <time>2022-03-02T15:01:09Z</time>
      </trkpt>
      <trkpt lat="49.95214" lon="2.18966">
        <ele>61.6</ele>
        <time>2022-03-02T15:01:10Z</time>
      </trkpt>
      <trkpt lat="49.95215" lon="2.18968">
        <ele>61.6</ele>
        <time>2022-03-02T15:01:11Z</time>
      </trkpt>
      <trkpt lat="49.95216" lon="2.18969">
        <ele>61.6</ele>
        <time>2022-03-02T15:01:12Z</time>
      </trkpt>
      <trkpt lat="49.95217" lon="2.1897">
        <ele>61.6</ele>
        <time>2022-03-02T15:01:14Z</time>
      </trkpt>
      <trkpt lat="49.95217" lon="2.18971">
        <ele>61.6</ele>
        <time>2022-03-02T15:01:15Z</time>
      </trkpt>
      <trkpt lat="49.95218" lon="2.18972">
        <ele>61.6</ele>
        <time>2022-03-02T15:01:16Z</time>
      </trkpt>
      <trkpt lat="49.95219" lon="2.18973">
        <ele>61.6</ele>
        <time>2022-03-02T15:01:17Z</time>
      </trkpt>
      <trkpt lat="49.9522" lon="2.18974">
        <ele>61.6</ele>
        <time>2022-03-02T15:01:18Z</time>
      </trkpt>
      <trkpt lat="49.95221" lon="2.18976">
        <ele>61.7</ele>
        <time>2022-03-02T15:01:19Z</time>
      </trkpt>
      <trkpt lat="49.95222" lon="2.18977">
        <ele>61.7</ele>
        <time>2022-03-02T15:01:20Z</time>
      </trkpt>
      <trkpt lat="49.95223" lon="2.18978">
        <ele>61.7</ele>
        <time>2022-03-02T15:01:21Z</time>
      </trkpt>
      <trkpt lat="49.95225" lon="2.1898">
        <ele>61.7</ele>
        <time>2022-03-02T15:01:23Z</time>
      </trkpt>
      <trkpt lat="49.95226" lon="2.18981">
        <ele>61.7</ele>
        <time>2022-03-02T15:01:24Z</time>
      </trkpt>
      <trkpt lat="49.95226" lon="2.18982">
        <ele>61.7</ele>
        <time>2022-03-02T15:01:25Z</time>
      </trkpt>
      <trkpt lat="49.95227" lon="2.18982">
        <ele>61.7</ele>
        <time>2022-03-02T15:01:26Z</time>
      </trkpt>
      <trkpt lat="49.95229" lon="2.18985">
        <ele>61.8</ele>
        <time>2022-03-02T15:01:27Z</time>
      </trkpt>
      <trkpt lat="49.9523" lon="2.18985">
        <ele>61.8</ele>
        <time>2022-03-02T15:01:28Z</time>
      </trkpt>
      <trkpt lat="49.9523" lon="2.18986">
        <ele>61.8</ele>
        <time>2022-03-02T15:01:29Z</time>
      </trkpt>
      <trkpt lat="49.95232" lon="2.18988">
        <ele>61.8</ele>
        <time>2022-03-02T15:01:31Z</time>
      </trkpt>
      <trkpt lat="49.95233" lon="2.18989">
        <ele>61.8</ele>
        <time>2022-03-02T15:01:32Z</time>
      </trkpt>
      <trkpt lat="49.95235" lon="2.1899">
        <ele>61.9</ele>
        <time>2022-03-02T15:01:33Z</time>
      </trkpt>
      <trkpt lat="49.95236" lon="2.18991">
        <ele>61.9</ele>
        <time>2022-03-02T15:01:34Z</time>
      </trkpt>
      <trkpt lat="49.95236" lon="2.18991">
        <ele>61.9</ele>
        <time>2022-03-02T15:01:35Z</time>
      </trkpt>
      <trkpt lat="49.95237" lon="2.18992">
        <ele>61.9</ele>
        <time>2022-03-02T15:01:36Z</time>
      </trkpt>
      <trkpt lat="49.95238" lon="2.18993">
        <ele>61.9</ele>
        <time>2022-03-02T15:01:37Z</time>
      </trkpt>
      <trkpt lat="49.95239" lon="2.18994">
        <ele>61.9</ele>
        <time>2022-03-02T15:01:38Z</time>
      </trkpt>
      <trkpt lat="49.9524" lon="2.18995">
        <ele>61.9</ele>
        <time>2022-03-02T15:01:39Z</time>
      </trkpt>
      <trkpt lat="49.95241" lon="2.18996">
        <ele>61.9</ele>
        <time>2022-03-02T15:01:40Z</time>
      </trkpt>
      <trkpt lat="49.95242" lon="2.18996">
        <ele>62</ele>
        <time>2022-03-02T15:01:41Z</time>
      </trkpt>
      <trkpt lat="49.95243" lon="2.18997">
        <ele>62</ele>
        <time>2022-03-02T15:01:43Z</time>
      </trkpt>
      <trkpt lat="49.95244" lon="2.18998">
        <ele>62</ele>
        <time>2022-03-02T15:01:44Z</time>
      </trkpt>
      <trkpt lat="49.95245" lon="2.18999">
        <ele>62</ele>
        <time>2022-03-02T15:01:45Z</time>
      </trkpt>
      <trkpt lat="49.95246" lon="2.19">
        <ele>62</ele>
        <time>2022-03-02T15:01:46Z</time>
      </trkpt>
      <trkpt lat="49.95247" lon="2.19001">
        <ele>62</ele>
        <time>2022-03-02T15:01:47Z</time>
      </trkpt>
      <trkpt lat="49.95248" lon="2.19002">
        <ele>62</ele>
        <time>2022-03-02T15:01:48Z</time>
      </trkpt>
      <trkpt lat="49.95249" lon="2.19003">
        <ele>62.1</ele>
        <time>2022-03-02T15:01:49Z</time>
      </trkpt>
      <trkpt lat="49.9525" lon="2.19003">
        <ele>62.1</ele>
        <time>2022-03-02T15:01:50Z</time>
      </trkpt>
      <trkpt lat="49.95251" lon="2.19004">
        <ele>62.1</ele>
        <time>2022-03-02T15:01:51Z</time>
      </trkpt>
      <trkpt lat="49.95252" lon="2.19005">
        <ele>62.1</ele>
        <time>2022-03-02T15:01:52Z</time>
      </trkpt>
      <trkpt lat="49.95253" lon="2.19006">
        <ele>62.1</ele>
        <time>2022-03-02T15:01:53Z</time>
      </trkpt>
      <trkpt lat="49.95254" lon="2.19007">
        <ele>62.1</ele>
        <time>2022-03-02T15:01:55Z</time>
      </trkpt>
      <trkpt lat="49.95256" lon="2.19009">
        <ele>62.1</ele>
        <time>2022-03-02T15:01:56Z</time>
      </trkpt>
      <trkpt lat="49.95257" lon="2.1901">
        <ele>62.1</ele>
        <time>2022-03-02T15:01:57Z</time>
      </trkpt>
      <trkpt lat="49.95257" lon="2.19011">
        <ele>62.1</ele>
        <time>2022-03-02T15:01:58Z</time>
      </trkpt>
      <trkpt lat="49.95258" lon="2.19012">
        <ele>62.1</ele>
        <time>2022-03-02T15:01:59Z</time>
      </trkpt>
      <trkpt lat="49.95259" lon="2.19013">
        <ele>62.2</ele>
        <time>2022-03-02T15:02:00Z</time>
      </trkpt>
      <trkpt lat="49.9526" lon="2.19013">
        <ele>62.2</ele>
        <time>2022-03-02T15:02:01Z</time>
      </trkpt>
      <trkpt lat="49.95261" lon="2.19015">
        <ele>62.2</ele>
        <time>2022-03-02T15:02:03Z</time>
      </trkpt>
      <trkpt lat="49.95263" lon="2.19016">
        <ele>62.2</ele>
        <time>2022-03-02T15:02:04Z</time>
      </trkpt>
      <trkpt lat="49.95264" lon="2.19017">
        <ele>62.2</ele>
        <time>2022-03-02T15:02:05Z</time>
      </trkpt>
      <trkpt lat="49.95265" lon="2.19018">
        <ele>62.2</ele>
        <time>2022-03-02T15:02:06Z</time>
      </trkpt>
      <trkpt lat="49.95266" lon="2.19019">
        <ele>62.2</ele>
        <time>2022-03-02T15:02:07Z</time>
      </trkpt>
      <trkpt lat="49.95269" lon="2.19021">
        <ele>62.2</ele>
        <time>2022-03-02T15:02:09Z</time>
      </trkpt>
      <trkpt lat="49.9527" lon="2.19022">
        <ele>62.2</ele>
        <time>2022-03-02T15:02:10Z</time>
      </trkpt>
      <trkpt lat="49.95271" lon="2.19023">
        <ele>62.2</ele>
        <time>2022-03-02T15:02:11Z</time>
      </trkpt>
      <trkpt lat="49.95273" lon="2.19024">
        <ele>62.2</ele>
        <time>2022-03-02T15:02:12Z</time>
      </trkpt>
      <trkpt lat="49.95274" lon="2.19025">
        <ele>62.2</ele>
        <time>2022-03-02T15:02:13Z</time>
      </trkpt>
      <trkpt lat="49.95275" lon="2.19025">
        <ele>62.2</ele>
        <time>2022-03-02T15:02:14Z</time>
      </trkpt>
      <trkpt lat="49.95276" lon="2.19027">
        <ele>62.2</ele>
        <time>2022-03-02T15:02:15Z</time>
      </trkpt>
      <trkpt lat="49.95277" lon="2.19028">
        <ele>62.2</ele>
        <time>2022-03-02T15:02:16Z</time>
      </trkpt>
      <trkpt lat="49.95278" lon="2.19029">
        <ele>62.2</ele>
        <time>2022-03-02T15:02:17Z</time>
      </trkpt>
      <trkpt lat="49.9528" lon="2.19031">
        <ele>62.2</ele>
        <time>2022-03-02T15:02:19Z</time>
      </trkpt>
      <trkpt lat="49.9528" lon="2.19031">
        <ele>62.2</ele>
        <time>2022-03-02T15:02:20Z</time>
      </trkpt>
      <trkpt lat="49.95281" lon="2.19032">
        <ele>62.2</ele>
        <time>2022-03-02T15:02:21Z</time>
      </trkpt>
      <trkpt lat="49.95282" lon="2.19033">
        <ele>62.2</ele>
        <time>2022-03-02T15:02:22Z</time>
      </trkpt>
      <trkpt lat="49.95284" lon="2.19034">
        <ele>62.2</ele>
        <time>2022-03-02T15:02:23Z</time>
      </trkpt>
      <trkpt lat="49.95285" lon="2.19035">
        <ele>62.2</ele>
        <time>2022-03-02T15:02:24Z</time>
      </trkpt>
      <trkpt lat="49.95286" lon="2.19036">
        <ele>62.2</ele>
        <time>2022-03-02T15:02:25Z</time>
      </trkpt>
      <trkpt lat="49.95286" lon="2.19037">
        <ele>62.2</ele>
        <time>2022-03-02T15:02:26Z</time>
      </trkpt>
      <trkpt lat="49.95288" lon="2.19039">
        <ele>62.2</ele>
        <time>2022-03-02T15:02:27Z</time>
      </trkpt>
      <trkpt lat="49.95288" lon="2.1904">
        <ele>62.2</ele>
        <time>2022-03-02T15:02:28Z</time>
      </trkpt>
      <trkpt lat="49.95289" lon="2.19041">
        <ele>62.2</ele>
        <time>2022-03-02T15:02:29Z</time>
      </trkpt>
      <trkpt lat="49.9529" lon="2.19042">
        <ele>62.2</ele>
        <time>2022-03-02T15:02:31Z</time>
      </trkpt>
      <trkpt lat="49.95291" lon="2.19043">
        <ele>62.2</ele>
        <time>2022-03-02T15:02:32Z</time>
      </trkpt>
      <trkpt lat="49.95292" lon="2.19044">
        <ele>62.2</ele>
        <time>2022-03-02T15:02:33Z</time>
      </trkpt>
      <trkpt lat="49.95293" lon="2.19045">
        <ele>62.2</ele>
        <time>2022-03-02T15:02:34Z</time>
      </trkpt>
      <trkpt lat="49.95294" lon="2.19046">
        <ele>62.2</ele>
        <time>2022-03-02T15:02:35Z</time>
      </trkpt>
      <trkpt lat="49.95296" lon="2.19048">
        <ele>62.2</ele>
        <time>2022-03-02T15:02:36Z</time>
      </trkpt>
      <trkpt lat="49.95297" lon="2.19049">
        <ele>62.2</ele>
        <time>2022-03-02T15:02:37Z</time>
      </trkpt>
      <trkpt lat="49.95298" lon="2.1905">
        <ele>62.2</ele>
        <time>2022-03-02T15:02:38Z</time>
      </trkpt>
      <trkpt lat="49.95299" lon="2.19051">
        <ele>62.2</ele>
        <time>2022-03-02T15:02:39Z</time>
      </trkpt>
      <trkpt lat="49.953" lon="2.19052">
        <ele>62.2</ele>
        <time>2022-03-02T15:02:40Z</time>
      </trkpt>
      <trkpt lat="49.95301" lon="2.19052">
        <ele>62.2</ele>
        <time>2022-03-02T15:02:41Z</time>
      </trkpt>
      <trkpt lat="49.95302" lon="2.19054">
        <ele>62.2</ele>
        <time>2022-03-02T15:02:42Z</time>
      </trkpt>
      <trkpt lat="49.95304" lon="2.19055">
        <ele>62.2</ele>
        <time>2022-03-02T15:02:44Z</time>
      </trkpt>
      <trkpt lat="49.95305" lon="2.19057">
        <ele>62.2</ele>
        <time>2022-03-02T15:02:45Z</time>
      </trkpt>
      <trkpt lat="49.95306" lon="2.19059">
        <ele>62.2</ele>
        <time>2022-03-02T15:02:46Z</time>
      </trkpt>
      <trkpt lat="49.95307" lon="2.19059">
        <ele>62.2</ele>
        <time>2022-03-02T15:02:47Z</time>
      </trkpt>
      <trkpt lat="49.95308" lon="2.1906">
        <ele>62.2</ele>
        <time>2022-03-02T15:02:48Z</time>
      </trkpt>
      <trkpt lat="49.95309" lon="2.19061">
        <ele>62.2</ele>
        <time>2022-03-02T15:02:49Z</time>
      </trkpt>
      <trkpt lat="49.9531" lon="2.19062">
        <ele>62.2</ele>
        <time>2022-03-02T15:02:50Z</time>
      </trkpt>
      <trkpt lat="49.95311" lon="2.19062">
        <ele>62.2</ele>
        <time>2022-03-02T15:02:51Z</time>
      </trkpt>
      <trkpt lat="49.95312" lon="2.19064">
        <ele>62.2</ele>
        <time>2022-03-02T15:02:53Z</time>
      </trkpt>
      <trkpt lat="49.95313" lon="2.19065">
        <ele>62.2</ele>
        <time>2022-03-02T15:02:54Z</time>
      </trkpt>
      <trkpt lat="49.95315" lon="2.19066">
        <ele>62.2</ele>
        <time>2022-03-02T15:02:55Z</time>
      </trkpt>
      <trkpt lat="49.95316" lon="2.19067">
        <ele>62.2</ele>
        <time>2022-03-02T15:02:56Z</time>
      </trkpt>
      <trkpt lat="49.95316" lon="2.19068">
        <ele>62.2</ele>
        <time>2022-03-02T15:02:57Z</time>
      </trkpt>
      <trkpt lat="49.95318" lon="2.1907">
        <ele>62.2</ele>
        <time>2022-03-02T15:02:58Z</time>
      </trkpt>
      <trkpt lat="49.95319" lon="2.19071">
        <ele>62.2</ele>
        <time>2022-03-02T15:02:59Z</time>
      </trkpt>
      <trkpt lat="49.9532" lon="2.19071">
        <ele>62.2</ele>
        <time>2022-03-02T15:03:00Z</time>
      </trkpt>
      <trkpt lat="49.95321" lon="2.19072">
        <ele>62.3</ele>
        <time>2022-03-02T15:03:01Z</time>
      </trkpt>
      <trkpt lat="49.95322" lon="2.19072">
        <ele>62.3</ele>
        <time>2022-03-02T15:03:03Z</time>
      </trkpt>
      <trkpt lat="49.95323" lon="2.19073">
        <ele>62.3</ele>
        <time>2022-03-02T15:03:04Z</time>
      </trkpt>
      <trkpt lat="49.95323" lon="2.19074">
        <ele>62.3</ele>
        <time>2022-03-02T15:03:05Z</time>
      </trkpt>
      <trkpt lat="49.95324" lon="2.19074">
        <ele>62.3</ele>
        <time>2022-03-02T15:03:06Z</time>
      </trkpt>
      <trkpt lat="49.95325" lon="2.19075">
        <ele>62.3</ele>
        <time>2022-03-02T15:03:07Z</time>
      </trkpt>
      <trkpt lat="49.95326" lon="2.19076">
        <ele>62.3</ele>
        <time>2022-03-02T15:03:08Z</time>
      </trkpt>
      <trkpt lat="49.95327" lon="2.19077">
        <ele>62.3</ele>
        <time>2022-03-02T15:03:09Z</time>
      </trkpt>
      <trkpt lat="49.95328" lon="2.19077">
        <ele>62.3</ele>
        <time>2022-03-02T15:03:10Z</time>
      </trkpt>
      <trkpt lat="49.95329" lon="2.19078">
        <ele>62.3</ele>
        <time>2022-03-02T15:03:11Z</time>
      </trkpt>
      <trkpt lat="49.9533" lon="2.19079">
        <ele>62.3</ele>
        <time>2022-03-02T15:03:12Z</time>
      </trkpt>
      <trkpt lat="49.95331" lon="2.1908">
        <ele>62.3</ele>
        <time>2022-03-02T15:03:13Z</time>
      </trkpt>
      <trkpt lat="49.95332" lon="2.1908">
        <ele>62.3</ele>
        <time>2022-03-02T15:03:14Z</time>
      </trkpt>
      <trkpt lat="49.95333" lon="2.19082">
        <ele>62.3</ele>
        <time>2022-03-02T15:03:15Z</time>
      </trkpt>
      <trkpt lat="49.95334" lon="2.19083">
        <ele>62.3</ele>
        <time>2022-03-02T15:03:17Z</time>
      </trkpt>
      <trkpt lat="49.95335" lon="2.19084">
        <ele>62.3</ele>
        <time>2022-03-02T15:03:18Z</time>
      </trkpt>
      <trkpt lat="49.95336" lon="2.19085">
        <ele>62.3</ele>
        <time>2022-03-02T15:03:19Z</time>
      </trkpt>
      <trkpt lat="49.95337" lon="2.19086">
        <ele>62.3</ele>
        <time>2022-03-02T15:03:20Z</time>
      </trkpt>
      <trkpt lat="49.95338" lon="2.19089">
        <ele>62.3</ele>
        <time>2022-03-02T15:03:21Z</time>
      </trkpt>
      <trkpt lat="49.95339" lon="2.19089">
        <ele>62.4</ele>
        <time>2022-03-02T15:03:22Z</time>
      </trkpt>
      <trkpt lat="49.9534" lon="2.1909">
        <ele>62.4</ele>
        <time>2022-03-02T15:03:23Z</time>
      </trkpt>
      <trkpt lat="49.95341" lon="2.19091">
        <ele>62.4</ele>
        <time>2022-03-02T15:03:25Z</time>
      </trkpt>
      <trkpt lat="49.95342" lon="2.19092">
        <ele>62.4</ele>
        <time>2022-03-02T15:03:26Z</time>
      </trkpt>
      <trkpt lat="49.95343" lon="2.19092">
        <ele>62.4</ele>
        <time>2022-03-02T15:03:27Z</time>
      </trkpt>
      <trkpt lat="49.95345" lon="2.19092">
        <ele>62.3</ele>
        <time>2022-03-02T15:03:28Z</time>
      </trkpt>
      <trkpt lat="49.95346" lon="2.19092">
        <ele>62.3</ele>
        <time>2022-03-02T15:03:29Z</time>
      </trkpt>
      <trkpt lat="49.95347" lon="2.19092">
        <ele>62.3</ele>
        <time>2022-03-02T15:03:30Z</time>
      </trkpt>
      <trkpt lat="49.95349" lon="2.19091">
        <ele>62.3</ele>
        <time>2022-03-02T15:03:31Z</time>
      </trkpt>
      <trkpt lat="49.9535" lon="2.19089">
        <ele>62.3</ele>
        <time>2022-03-02T15:03:33Z</time>
      </trkpt>
      <trkpt lat="49.9535" lon="2.19087">
        <ele>62.3</ele>
        <time>2022-03-02T15:03:34Z</time>
      </trkpt>
      <trkpt lat="49.9535" lon="2.19084">
        <ele>62.2</ele>
        <time>2022-03-02T15:03:35Z</time>
      </trkpt>
      <trkpt lat="49.9535" lon="2.19082">
        <ele>62.2</ele>
        <time>2022-03-02T15:03:36Z</time>
      </trkpt>
      <trkpt lat="49.9535" lon="2.19079">
        <ele>62.2</ele>
        <time>2022-03-02T15:03:37Z</time>
      </trkpt>
      <trkpt lat="49.9535" lon="2.19075">
        <ele>62.1</ele>
        <time>2022-03-02T15:03:38Z</time>
      </trkpt>
      <trkpt lat="49.95349" lon="2.19071">
        <ele>62</ele>
        <time>2022-03-02T15:03:40Z</time>
      </trkpt>
      <trkpt lat="49.95348" lon="2.19067">
        <ele>62</ele>
        <time>2022-03-02T15:03:41Z</time>
      </trkpt>
      <trkpt lat="49.95347" lon="2.19065">
        <ele>61.9</ele>
        <time>2022-03-02T15:03:42Z</time>
      </trkpt>
      <trkpt lat="49.95345" lon="2.19061">
        <ele>61.8</ele>
        <time>2022-03-02T15:03:43Z</time>
      </trkpt>
      <trkpt lat="49.95345" lon="2.1906">
        <ele>61.8</ele>
        <time>2022-03-02T15:03:44Z</time>
      </trkpt>
      <trkpt lat="49.95342" lon="2.19055">
        <ele>61.7</ele>
        <time>2022-03-02T15:03:46Z</time>
      </trkpt>
      <trkpt lat="49.95342" lon="2.19054">
        <ele>61.7</ele>
        <time>2022-03-02T15:03:47Z</time>
      </trkpt>
      <trkpt lat="49.95341" lon="2.19053">
        <ele>61.7</ele>
        <time>2022-03-02T15:03:48Z</time>
      </trkpt>
      <trkpt lat="49.95341" lon="2.19052">
        <ele>61.7</ele>
        <time>2022-03-02T15:03:49Z</time>
      </trkpt>
      <trkpt lat="49.9534" lon="2.1905">
        <ele>61.6</ele>
        <time>2022-03-02T15:03:50Z</time>
      </trkpt>
      <trkpt lat="49.95339" lon="2.19049">
        <ele>61.6</ele>
        <time>2022-03-02T15:03:51Z</time>
      </trkpt>
      <trkpt lat="49.95339" lon="2.19048">
        <ele>61.6</ele>
        <time>2022-03-02T15:03:52Z</time>
      </trkpt>
      <trkpt lat="49.95338" lon="2.19047">
        <ele>61.6</ele>
        <time>2022-03-02T15:03:53Z</time>
      </trkpt>
      <trkpt lat="49.95337" lon="2.19046">
        <ele>61.6</ele>
        <time>2022-03-02T15:03:54Z</time>
      </trkpt>
      <trkpt lat="49.95337" lon="2.19045">
        <ele>61.5</ele>
        <time>2022-03-02T15:03:56Z</time>
      </trkpt>
      <trkpt lat="49.95336" lon="2.19044">
        <ele>61.5</ele>
        <time>2022-03-02T15:03:57Z</time>
      </trkpt>
      <trkpt lat="49.95336" lon="2.19043">
        <ele>61.5</ele>
        <time>2022-03-02T15:03:58Z</time>
      </trkpt>
      <trkpt lat="49.95335" lon="2.19042">
        <ele>61.5</ele>
        <time>2022-03-02T15:03:59Z</time>
      </trkpt>
      <trkpt lat="49.95334" lon="2.19041">
        <ele>61.5</ele>
        <time>2022-03-02T15:04:00Z</time>
      </trkpt>
      <trkpt lat="49.95334" lon="2.19039">
        <ele>61.4</ele>
        <time>2022-03-02T15:04:01Z</time>
      </trkpt>
      <trkpt lat="49.95334" lon="2.19038">
        <ele>61.4</ele>
        <time>2022-03-02T15:04:02Z</time>
      </trkpt>
      <trkpt lat="49.95333" lon="2.19037">
        <ele>61.4</ele>
        <time>2022-03-02T15:04:03Z</time>
      </trkpt>
      <trkpt lat="49.95332" lon="2.19035">
        <ele>61.4</ele>
        <time>2022-03-02T15:04:04Z</time>
      </trkpt>
      <trkpt lat="49.95332" lon="2.19034">
        <ele>61.4</ele>
        <time>2022-03-02T15:04:06Z</time>
      </trkpt>
      <trkpt lat="49.95331" lon="2.19033">
        <ele>61.3</ele>
        <time>2022-03-02T15:04:07Z</time>
      </trkpt>
      <trkpt lat="49.9533" lon="2.19031">
        <ele>61.3</ele>
        <time>2022-03-02T15:04:08Z</time>
      </trkpt>
      <trkpt lat="49.9533" lon="2.1903">
        <ele>61.3</ele>
        <time>2022-03-02T15:04:09Z</time>
      </trkpt>
      <trkpt lat="49.95329" lon="2.19028">
        <ele>61.3</ele>
        <time>2022-03-02T15:04:10Z</time>
      </trkpt>
      <trkpt lat="49.95329" lon="2.19026">
        <ele>61.3</ele>
        <time>2022-03-02T15:04:11Z</time>
      </trkpt>
      <trkpt lat="49.95328" lon="2.19024">
        <ele>61.2</ele>
        <time>2022-03-02T15:04:12Z</time>
      </trkpt>
      <trkpt lat="49.95327" lon="2.19022">
        <ele>61.2</ele>
        <time>2022-03-02T15:04:13Z</time>
      </trkpt>
      <trkpt lat="49.95327" lon="2.19019">
        <ele>61.2</ele>
        <time>2022-03-02T15:04:15Z</time>
      </trkpt>
      <trkpt lat="49.95326" lon="2.19018">
        <ele>61.2</ele>
        <time>2022-03-02T15:04:16Z</time>
      </trkpt>
      <trkpt lat="49.95326" lon="2.19017">
        <ele>61.2</ele>
        <time>2022-03-02T15:04:17Z</time>
      </trkpt>
      <trkpt lat="49.95325" lon="2.19014">
        <ele>61.1</ele>
        <time>2022-03-02T15:04:18Z</time>
      </trkpt>
      <trkpt lat="49.95325" lon="2.19013">
        <ele>61.1</ele>
        <time>2022-03-02T15:04:19Z</time>
      </trkpt>
      <trkpt lat="49.95325" lon="2.19011">
        <ele>61.1</ele>
        <time>2022-03-02T15:04:20Z</time>
      </trkpt>
      <trkpt lat="49.95325" lon="2.1901">
        <ele>61.1</ele>
        <time>2022-03-02T15:04:21Z</time>
      </trkpt>
      <trkpt lat="49.95324" lon="2.19008">
        <ele>61.1</ele>
        <time>2022-03-02T15:04:22Z</time>
      </trkpt>
      <trkpt lat="49.95323" lon="2.19007">
        <ele>61.1</ele>
        <time>2022-03-02T15:04:23Z</time>
      </trkpt>
      <trkpt lat="49.95323" lon="2.19005">
        <ele>61</ele>
        <time>2022-03-02T15:04:24Z</time>
      </trkpt>
      <trkpt lat="49.95322" lon="2.19003">
        <ele>61</ele>
        <time>2022-03-02T15:04:25Z</time>
      </trkpt>
      <trkpt lat="49.95321" lon="2.19001">
        <ele>61</ele>
        <time>2022-03-02T15:04:27Z</time>
      </trkpt>
      <trkpt lat="49.9532" lon="2.18998">
        <ele>61</ele>
        <time>2022-03-02T15:04:28Z</time>
      </trkpt>
      <trkpt lat="49.9532" lon="2.18995">
        <ele>60.9</ele>
        <time>2022-03-02T15:04:29Z</time>
      </trkpt>
      <trkpt lat="49.9532" lon="2.18994">
        <ele>60.9</ele>
        <time>2022-03-02T15:04:30Z</time>
      </trkpt>
      <trkpt lat="49.95319" lon="2.18993">
        <ele>60.9</ele>
        <time>2022-03-02T15:04:31Z</time>
      </trkpt>
      <trkpt lat="49.95319" lon="2.18992">
        <ele>60.9</ele>
        <time>2022-03-02T15:04:32Z</time>
      </trkpt>
      <trkpt lat="49.95318" lon="2.1899">
        <ele>60.9</ele>
        <time>2022-03-02T15:04:33Z</time>
      </trkpt>
      <trkpt lat="49.95318" lon="2.18988">
        <ele>60.8</ele>
        <time>2022-03-02T15:04:34Z</time>
      </trkpt>
      <trkpt lat="49.95317" lon="2.18986">
        <ele>60.8</ele>
        <time>2022-03-02T15:04:35Z</time>
      </trkpt>
      <trkpt lat="49.95317" lon="2.18984">
        <ele>60.8</ele>
        <time>2022-03-02T15:04:36Z</time>
      </trkpt>
      <trkpt lat="49.95316" lon="2.18982">
        <ele>60.8</ele>
        <time>2022-03-02T15:04:37Z</time>
      </trkpt>
      <trkpt lat="49.95315" lon="2.18981">
        <ele>60.7</ele>
        <time>2022-03-02T15:04:38Z</time>
      </trkpt>
      <trkpt lat="49.95314" lon="2.18978">
        <ele>60.7</ele>
        <time>2022-03-02T15:04:40Z</time>
      </trkpt>
      <trkpt lat="49.95314" lon="2.18977">
        <ele>60.7</ele>
        <time>2022-03-02T15:04:41Z</time>
      </trkpt>
      <trkpt lat="49.95313" lon="2.18976">
        <ele>60.7</ele>
        <time>2022-03-02T15:04:42Z</time>
      </trkpt>
      <trkpt lat="49.95312" lon="2.18973">
        <ele>60.6</ele>
        <time>2022-03-02T15:04:43Z</time>
      </trkpt>
      <trkpt lat="49.95312" lon="2.18972">
        <ele>60.6</ele>
        <time>2022-03-02T15:04:44Z</time>
      </trkpt>
      <trkpt lat="49.95312" lon="2.18971">
        <ele>60.6</ele>
        <time>2022-03-02T15:04:45Z</time>
      </trkpt>
      <trkpt lat="49.95311" lon="2.1897">
        <ele>60.6</ele>
        <time>2022-03-02T15:04:46Z</time>
      </trkpt>
      <trkpt lat="49.95311" lon="2.18967">
        <ele>60.6</ele>
        <time>2022-03-02T15:04:48Z</time>
      </trkpt>
      <trkpt lat="49.95311" lon="2.18966">
        <ele>60.6</ele>
        <time>2022-03-02T15:04:49Z</time>
      </trkpt>
      <trkpt lat="49.9531" lon="2.18964">
        <ele>60.5</ele>
        <time>2022-03-02T15:04:50Z</time>
      </trkpt>
      <trkpt lat="49.9531" lon="2.18962">
        <ele>60.5</ele>
        <time>2022-03-02T15:04:51Z</time>
      </trkpt>
      <trkpt lat="49.95309" lon="2.18961">
        <ele>60.5</ele>
        <time>2022-03-02T15:04:52Z</time>
      </trkpt>
      <trkpt lat="49.95308" lon="2.18958">
        <ele>60.5</ele>
        <time>2022-03-02T15:04:53Z</time>
      </trkpt>
      <trkpt lat="49.95308" lon="2.18957">
        <ele>60.4</ele>
        <time>2022-03-02T15:04:54Z</time>
      </trkpt>
      <trkpt lat="49.95308" lon="2.18956">
        <ele>60.4</ele>
        <time>2022-03-02T15:04:55Z</time>
      </trkpt>
      <trkpt lat="49.95306" lon="2.18953">
        <ele>60.4</ele>
        <time>2022-03-02T15:04:57Z</time>
      </trkpt>
      <trkpt lat="49.95306" lon="2.18951">
        <ele>60.4</ele>
        <time>2022-03-02T15:04:58Z</time>
      </trkpt>
      <trkpt lat="49.95306" lon="2.1895">
        <ele>60.4</ele>
        <time>2022-03-02T15:04:59Z</time>
      </trkpt>
      <trkpt lat="49.95305" lon="2.18949">
        <ele>60.3</ele>
        <time>2022-03-02T15:05:00Z</time>
      </trkpt>
      <trkpt lat="49.95304" lon="2.18946">
        <ele>60.3</ele>
        <time>2022-03-02T15:05:01Z</time>
      </trkpt>
      <trkpt lat="49.95304" lon="2.18945">
        <ele>60.3</ele>
        <time>2022-03-02T15:05:02Z</time>
      </trkpt>
      <trkpt lat="49.95303" lon="2.18943">
        <ele>60.3</ele>
        <time>2022-03-02T15:05:04Z</time>
      </trkpt>
      <trkpt lat="49.95302" lon="2.18941">
        <ele>60.2</ele>
        <time>2022-03-02T15:05:05Z</time>
      </trkpt>
      <trkpt lat="49.95301" lon="2.18941">
        <ele>60.2</ele>
        <time>2022-03-02T15:05:06Z</time>
      </trkpt>
      <trkpt lat="49.953" lon="2.18941">
        <ele>60.2</ele>
        <time>2022-03-02T15:05:07Z</time>
      </trkpt>
      <trkpt lat="49.953" lon="2.1894">
        <ele>60.2</ele>
        <time>2022-03-02T15:05:08Z</time>
      </trkpt>
      <trkpt lat="49.95301" lon="2.18942">
        <ele>60.2</ele>
        <time>2022-03-02T15:05:09Z</time>
      </trkpt>
      <trkpt lat="49.953" lon="2.18941">
        <ele>60.2</ele>
        <time>2022-03-02T15:05:10Z</time>
      </trkpt>
      <trkpt lat="49.953" lon="2.1894">
        <ele>60.1</ele>
        <time>2022-03-02T15:05:11Z</time>
      </trkpt>
      <trkpt lat="49.95299" lon="2.18938">
        <ele>60.1</ele>
        <time>2022-03-02T15:05:13Z</time>
      </trkpt>
      <trkpt lat="49.953" lon="2.18937">
        <ele>60.1</ele>
        <time>2022-03-02T15:05:14Z</time>
      </trkpt>
      <trkpt lat="49.95299" lon="2.18936">
        <ele>60.1</ele>
        <time>2022-03-02T15:05:15Z</time>
      </trkpt>
      <trkpt lat="49.95299" lon="2.18934">
        <ele>60.1</ele>
        <time>2022-03-02T15:05:16Z</time>
      </trkpt>
      <trkpt lat="49.95298" lon="2.18933">
        <ele>60.1</ele>
        <time>2022-03-02T15:05:17Z</time>
      </trkpt>
      <trkpt lat="49.95297" lon="2.18931">
        <ele>60</ele>
        <time>2022-03-02T15:05:18Z</time>
      </trkpt>
      <trkpt lat="49.95297" lon="2.1893">
        <ele>60</ele>
        <time>2022-03-02T15:05:19Z</time>
      </trkpt>
      <trkpt lat="49.95297" lon="2.18928">
        <ele>60</ele>
        <time>2022-03-02T15:05:20Z</time>
      </trkpt>
      <trkpt lat="49.95296" lon="2.18926">
        <ele>60</ele>
        <time>2022-03-02T15:05:21Z</time>
      </trkpt>
      <trkpt lat="49.95295" lon="2.18922">
        <ele>60</ele>
        <time>2022-03-02T15:05:22Z</time>
      </trkpt>
      <trkpt lat="49.95295" lon="2.1892">
        <ele>59.9</ele>
        <time>2022-03-02T15:05:24Z</time>
      </trkpt>
      <trkpt lat="49.95294" lon="2.18918">
        <ele>59.9</ele>
        <time>2022-03-02T15:05:25Z</time>
      </trkpt>
      <trkpt lat="49.95294" lon="2.18916">
        <ele>59.9</ele>
        <time>2022-03-02T15:05:26Z</time>
      </trkpt>
      <trkpt lat="49.95293" lon="2.18914">
        <ele>59.9</ele>
        <time>2022-03-02T15:05:27Z</time>
      </trkpt>
      <trkpt lat="49.95292" lon="2.18911">
        <ele>59.9</ele>
        <time>2022-03-02T15:05:28Z</time>
      </trkpt>
      <trkpt lat="49.95291" lon="2.18909">
        <ele>59.8</ele>
        <time>2022-03-02T15:05:29Z</time>
      </trkpt>
      <trkpt lat="49.95291" lon="2.18907">
        <ele>59.8</ele>
        <time>2022-03-02T15:05:30Z</time>
      </trkpt>
      <trkpt lat="49.9529" lon="2.18905">
        <ele>59.8</ele>
        <time>2022-03-02T15:05:31Z</time>
      </trkpt>
      <trkpt lat="49.95289" lon="2.18903">
        <ele>59.8</ele>
        <time>2022-03-02T15:05:32Z</time>
      </trkpt>
      <trkpt lat="49.95289" lon="2.189">
        <ele>59.8</ele>
        <time>2022-03-02T15:05:33Z</time>
      </trkpt>
      <trkpt lat="49.95288" lon="2.18898">
        <ele>59.8</ele>
        <time>2022-03-02T15:05:34Z</time>
      </trkpt>
      <trkpt lat="49.95288" lon="2.18896">
        <ele>59.7</ele>
        <time>2022-03-02T15:05:35Z</time>
      </trkpt>
      <trkpt lat="49.95287" lon="2.18894">
        <ele>59.7</ele>
        <time>2022-03-02T15:05:36Z</time>
      </trkpt>
      <trkpt lat="49.95286" lon="2.18892">
        <ele>59.7</ele>
        <time>2022-03-02T15:05:38Z</time>
      </trkpt>
      <trkpt lat="49.95285" lon="2.1889">
        <ele>59.7</ele>
        <time>2022-03-02T15:05:39Z</time>
      </trkpt>
      <trkpt lat="49.95284" lon="2.18888">
        <ele>59.7</ele>
        <time>2022-03-02T15:05:40Z</time>
      </trkpt>
      <trkpt lat="49.95284" lon="2.18886">
        <ele>59.6</ele>
        <time>2022-03-02T15:05:41Z</time>
      </trkpt>
      <trkpt lat="49.95283" lon="2.18884">
        <ele>59.6</ele>
        <time>2022-03-02T15:05:42Z</time>
      </trkpt>
      <trkpt lat="49.95282" lon="2.18883">
        <ele>59.6</ele>
        <time>2022-03-02T15:05:43Z</time>
      </trkpt>
      <trkpt lat="49.95281" lon="2.18881">
        <ele>59.6</ele>
        <time>2022-03-02T15:05:45Z</time>
      </trkpt>
      <trkpt lat="49.95281" lon="2.1888">
        <ele>59.6</ele>
        <time>2022-03-02T15:05:46Z</time>
      </trkpt>
      <trkpt lat="49.9528" lon="2.18878">
        <ele>59.6</ele>
        <time>2022-03-02T15:05:47Z</time>
      </trkpt>
      <trkpt lat="49.95279" lon="2.18877">
        <ele>59.6</ele>
        <time>2022-03-02T15:05:48Z</time>
      </trkpt>
      <trkpt lat="49.95278" lon="2.18875">
        <ele>59.5</ele>
        <time>2022-03-02T15:05:49Z</time>
      </trkpt>
      <trkpt lat="49.95277" lon="2.18871">
        <ele>59.5</ele>
        <time>2022-03-02T15:05:50Z</time>
      </trkpt>
      <trkpt lat="49.95277" lon="2.1887">
        <ele>59.5</ele>
        <time>2022-03-02T15:05:52Z</time>
      </trkpt>
      <trkpt lat="49.95276" lon="2.18868">
        <ele>59.5</ele>
        <time>2022-03-02T15:05:53Z</time>
      </trkpt>
      <trkpt lat="49.95276" lon="2.18867">
        <ele>59.5</ele>
        <time>2022-03-02T15:05:54Z</time>
      </trkpt>
      <trkpt lat="49.95275" lon="2.18865">
        <ele>59.4</ele>
        <time>2022-03-02T15:05:55Z</time>
      </trkpt>
      <trkpt lat="49.95275" lon="2.18863">
        <ele>59.4</ele>
        <time>2022-03-02T15:05:56Z</time>
      </trkpt>
      <trkpt lat="49.95274" lon="2.18861">
        <ele>59.4</ele>
        <time>2022-03-02T15:05:57Z</time>
      </trkpt>
      <trkpt lat="49.95274" lon="2.18859">
        <ele>59.4</ele>
        <time>2022-03-02T15:05:58Z</time>
      </trkpt>
      <trkpt lat="49.95273" lon="2.18858">
        <ele>59.4</ele>
        <time>2022-03-02T15:05:59Z</time>
      </trkpt>
      <trkpt lat="49.95273" lon="2.18856">
        <ele>59.4</ele>
        <time>2022-03-02T15:06:00Z</time>
      </trkpt>
      <trkpt lat="49.95272" lon="2.18853">
        <ele>59.3</ele>
        <time>2022-03-02T15:06:01Z</time>
      </trkpt>
      <trkpt lat="49.95272" lon="2.18851">
        <ele>59.3</ele>
        <time>2022-03-02T15:06:02Z</time>
      </trkpt>
      <trkpt lat="49.95271" lon="2.1885">
        <ele>59.3</ele>
        <time>2022-03-02T15:06:03Z</time>
      </trkpt>
      <trkpt lat="49.9527" lon="2.18847">
        <ele>59.3</ele>
        <time>2022-03-02T15:06:04Z</time>
      </trkpt>
      <trkpt lat="49.95269" lon="2.18845">
        <ele>59.3</ele>
        <time>2022-03-02T15:06:06Z</time>
      </trkpt>
      <trkpt lat="49.95268" lon="2.18843">
        <ele>59.2</ele>
        <time>2022-03-02T15:06:07Z</time>
      </trkpt>
      <trkpt lat="49.95267" lon="2.18841">
        <ele>59.2</ele>
        <time>2022-03-02T15:06:08Z</time>
      </trkpt>
      <trkpt lat="49.95267" lon="2.1884">
        <ele>59.2</ele>
        <time>2022-03-02T15:06:09Z</time>
      </trkpt>
      <trkpt lat="49.95266" lon="2.18838">
        <ele>59.2</ele>
        <time>2022-03-02T15:06:10Z</time>
      </trkpt>
      <trkpt lat="49.95265" lon="2.18837">
        <ele>59.2</ele>
        <time>2022-03-02T15:06:11Z</time>
      </trkpt>
      <trkpt lat="49.95264" lon="2.18835">
        <ele>59.2</ele>
        <time>2022-03-02T15:06:13Z</time>
      </trkpt>
      <trkpt lat="49.95264" lon="2.18834">
        <ele>59.1</ele>
        <time>2022-03-02T15:06:14Z</time>
      </trkpt>
      <trkpt lat="49.95263" lon="2.18833">
        <ele>59.1</ele>
        <time>2022-03-02T15:06:15Z</time>
      </trkpt>
      <trkpt lat="49.95263" lon="2.18832">
        <ele>59.1</ele>
        <time>2022-03-02T15:06:16Z</time>
      </trkpt>
      <trkpt lat="49.95262" lon="2.18829">
        <ele>59.1</ele>
        <time>2022-03-02T15:06:17Z</time>
      </trkpt>
      <trkpt lat="49.95261" lon="2.18828">
        <ele>59.1</ele>
        <time>2022-03-02T15:06:18Z</time>
      </trkpt>
      <trkpt lat="49.9526" lon="2.18825">
        <ele>59.1</ele>
        <time>2022-03-02T15:06:20Z</time>
      </trkpt>
      <trkpt lat="49.9526" lon="2.18823">
        <ele>59.1</ele>
        <time>2022-03-02T15:06:21Z</time>
      </trkpt>
      <trkpt lat="49.95259" lon="2.18822">
        <ele>59.1</ele>
        <time>2022-03-02T15:06:22Z</time>
      </trkpt>
      <trkpt lat="49.95259" lon="2.18819">
        <ele>59</ele>
        <time>2022-03-02T15:06:23Z</time>
      </trkpt>
      <trkpt lat="49.95258" lon="2.18818">
        <ele>59</ele>
        <time>2022-03-02T15:06:24Z</time>
      </trkpt>
      <trkpt lat="49.95258" lon="2.18817">
        <ele>59</ele>
        <time>2022-03-02T15:06:25Z</time>
      </trkpt>
      <trkpt lat="49.95257" lon="2.18815">
        <ele>59</ele>
        <time>2022-03-02T15:06:27Z</time>
      </trkpt>
      <trkpt lat="49.95256" lon="2.18813">
        <ele>59</ele>
        <time>2022-03-02T15:06:28Z</time>
      </trkpt>
      <trkpt lat="49.95255" lon="2.18811">
        <ele>59</ele>
        <time>2022-03-02T15:06:29Z</time>
      </trkpt>
      <trkpt lat="49.95255" lon="2.18809">
        <ele>59</ele>
        <time>2022-03-02T15:06:30Z</time>
      </trkpt>
      <trkpt lat="49.95254" lon="2.18808">
        <ele>58.9</ele>
        <time>2022-03-02T15:06:32Z</time>
      </trkpt>
      <trkpt lat="49.95254" lon="2.18806">
        <ele>58.9</ele>
        <time>2022-03-02T15:06:33Z</time>
      </trkpt>
      <trkpt lat="49.95253" lon="2.18805">
        <ele>58.9</ele>
        <time>2022-03-02T15:06:34Z</time>
      </trkpt>
      <trkpt lat="49.95253" lon="2.18803">
        <ele>58.9</ele>
        <time>2022-03-02T15:06:35Z</time>
      </trkpt>
      <trkpt lat="49.95252" lon="2.18802">
        <ele>58.9</ele>
        <time>2022-03-02T15:06:36Z</time>
      </trkpt>
      <trkpt lat="49.95251" lon="2.188">
        <ele>58.9</ele>
        <time>2022-03-02T15:06:37Z</time>
      </trkpt>
      <trkpt lat="49.9525" lon="2.18798">
        <ele>58.9</ele>
        <time>2022-03-02T15:06:39Z</time>
      </trkpt>
      <trkpt lat="49.95249" lon="2.18796">
        <ele>58.8</ele>
        <time>2022-03-02T15:06:40Z</time>
      </trkpt>
      <trkpt lat="49.95248" lon="2.18795">
        <ele>58.8</ele>
        <time>2022-03-02T15:06:41Z</time>
      </trkpt>
      <trkpt lat="49.95248" lon="2.18794">
        <ele>58.8</ele>
        <time>2022-03-02T15:06:42Z</time>
      </trkpt>
      <trkpt lat="49.95247" lon="2.18793">
        <ele>58.8</ele>
        <time>2022-03-02T15:06:43Z</time>
      </trkpt>
      <trkpt lat="49.95247" lon="2.18791">
        <ele>58.8</ele>
        <time>2022-03-02T15:06:44Z</time>
      </trkpt>
      <trkpt lat="49.95246" lon="2.1879">
        <ele>58.8</ele>
        <time>2022-03-02T15:06:45Z</time>
      </trkpt>
      <trkpt lat="49.95245" lon="2.18788">
        <ele>58.8</ele>
        <time>2022-03-02T15:06:47Z</time>
      </trkpt>
      <trkpt lat="49.95244" lon="2.18786">
        <ele>58.8</ele>
        <time>2022-03-02T15:06:48Z</time>
      </trkpt>
      <trkpt lat="49.95243" lon="2.18784">
        <ele>58.7</ele>
        <time>2022-03-02T15:06:49Z</time>
      </trkpt>
      <trkpt lat="49.95242" lon="2.18782">
        <ele>58.7</ele>
        <time>2022-03-02T15:06:50Z</time>
      </trkpt>
      <trkpt lat="49.95242" lon="2.18781">
        <ele>58.7</ele>
        <time>2022-03-02T15:06:51Z</time>
      </trkpt>
      <trkpt lat="49.95241" lon="2.18779">
        <ele>58.7</ele>
        <time>2022-03-02T15:06:52Z</time>
      </trkpt>
      <trkpt lat="49.9524" lon="2.18777">
        <ele>58.7</ele>
        <time>2022-03-02T15:06:54Z</time>
      </trkpt>
      <trkpt lat="49.95238" lon="2.18775">
        <ele>58.7</ele>
        <time>2022-03-02T15:06:55Z</time>
      </trkpt>
      <trkpt lat="49.95238" lon="2.18774">
        <ele>58.6</ele>
        <time>2022-03-02T15:06:56Z</time>
      </trkpt>
      <trkpt lat="49.95237" lon="2.18773">
        <ele>58.6</ele>
        <time>2022-03-02T15:06:57Z</time>
      </trkpt>
      <trkpt lat="49.95235" lon="2.18771">
        <ele>58.6</ele>
        <time>2022-03-02T15:06:58Z</time>
      </trkpt>
      <trkpt lat="49.95235" lon="2.1877">
        <ele>58.6</ele>
        <time>2022-03-02T15:06:59Z</time>
      </trkpt>
      <trkpt lat="49.95234" lon="2.18769">
        <ele>58.6</ele>
        <time>2022-03-02T15:07:00Z</time>
      </trkpt>
      <trkpt lat="49.95234" lon="2.18767">
        <ele>58.6</ele>
        <time>2022-03-02T15:07:01Z</time>
      </trkpt>
      <trkpt lat="49.95233" lon="2.18766">
        <ele>58.6</ele>
        <time>2022-03-02T15:07:02Z</time>
      </trkpt>
      <trkpt lat="49.95232" lon="2.18763">
        <ele>58.5</ele>
        <time>2022-03-02T15:07:04Z</time>
      </trkpt>
      <trkpt lat="49.95231" lon="2.18762">
        <ele>58.5</ele>
        <time>2022-03-02T15:07:05Z</time>
      </trkpt>
      <trkpt lat="49.9523" lon="2.1876">
        <ele>58.5</ele>
        <time>2022-03-02T15:07:06Z</time>
      </trkpt>
      <trkpt lat="49.95229" lon="2.18758">
        <ele>58.5</ele>
        <time>2022-03-02T15:07:07Z</time>
      </trkpt>
      <trkpt lat="49.95228" lon="2.18756">
        <ele>58.5</ele>
        <time>2022-03-02T15:07:08Z</time>
      </trkpt>
      <trkpt lat="49.95227" lon="2.18754">
        <ele>58.5</ele>
        <time>2022-03-02T15:07:10Z</time>
      </trkpt>
      <trkpt lat="49.95226" lon="2.18753">
        <ele>58.5</ele>
        <time>2022-03-02T15:07:11Z</time>
      </trkpt>
      <trkpt lat="49.95226" lon="2.18751">
        <ele>58.5</ele>
        <time>2022-03-02T15:07:12Z</time>
      </trkpt>
      <trkpt lat="49.95225" lon="2.1875">
        <ele>58.5</ele>
        <time>2022-03-02T15:07:13Z</time>
      </trkpt>
      <trkpt lat="49.95224" lon="2.18748">
        <ele>58.5</ele>
        <time>2022-03-02T15:07:14Z</time>
      </trkpt>
      <trkpt lat="49.95224" lon="2.18747">
        <ele>58.4</ele>
        <time>2022-03-02T15:07:15Z</time>
      </trkpt>
      <trkpt lat="49.95223" lon="2.18746">
        <ele>58.4</ele>
        <time>2022-03-02T15:07:16Z</time>
      </trkpt>
      <trkpt lat="49.95223" lon="2.18745">
        <ele>58.4</ele>
        <time>2022-03-02T15:07:17Z</time>
      </trkpt>
      <trkpt lat="49.95222" lon="2.18743">
        <ele>58.4</ele>
        <time>2022-03-02T15:07:18Z</time>
      </trkpt>
      <trkpt lat="49.95221" lon="2.18742">
        <ele>58.4</ele>
        <time>2022-03-02T15:07:19Z</time>
      </trkpt>
      <trkpt lat="49.9522" lon="2.1874">
        <ele>58.4</ele>
        <time>2022-03-02T15:07:20Z</time>
      </trkpt>
      <trkpt lat="49.95219" lon="2.18738">
        <ele>58.4</ele>
        <time>2022-03-02T15:07:22Z</time>
      </trkpt>
      <trkpt lat="49.95218" lon="2.18736">
        <ele>58.4</ele>
        <time>2022-03-02T15:07:23Z</time>
      </trkpt>
      <trkpt lat="49.95217" lon="2.18735">
        <ele>58.4</ele>
        <time>2022-03-02T15:07:24Z</time>
      </trkpt>
      <trkpt lat="49.95216" lon="2.18735">
        <ele>58.4</ele>
        <time>2022-03-02T15:07:25Z</time>
      </trkpt>
      <trkpt lat="49.95215" lon="2.18732">
        <ele>58.4</ele>
        <time>2022-03-02T15:07:26Z</time>
      </trkpt>
      <trkpt lat="49.95214" lon="2.18731">
        <ele>58.4</ele>
        <time>2022-03-02T15:07:27Z</time>
      </trkpt>
      <trkpt lat="49.95214" lon="2.1873">
        <ele>58.4</ele>
        <time>2022-03-02T15:07:28Z</time>
      </trkpt>
      <trkpt lat="49.95212" lon="2.18728">
        <ele>58.3</ele>
        <time>2022-03-02T15:07:29Z</time>
      </trkpt>
      <trkpt lat="49.95212" lon="2.18726">
        <ele>58.3</ele>
        <time>2022-03-02T15:07:30Z</time>
      </trkpt>
      <trkpt lat="49.95211" lon="2.18725">
        <ele>58.3</ele>
        <time>2022-03-02T15:07:31Z</time>
      </trkpt>
      <trkpt lat="49.95209" lon="2.18723">
        <ele>58.3</ele>
        <time>2022-03-02T15:07:32Z</time>
      </trkpt>
      <trkpt lat="49.95209" lon="2.18722">
        <ele>58.3</ele>
        <time>2022-03-02T15:07:34Z</time>
      </trkpt>
      <trkpt lat="49.95208" lon="2.1872">
        <ele>58.3</ele>
        <time>2022-03-02T15:07:35Z</time>
      </trkpt>
      <trkpt lat="49.95207" lon="2.18719">
        <ele>58.3</ele>
        <time>2022-03-02T15:07:36Z</time>
      </trkpt>
      <trkpt lat="49.95206" lon="2.18718">
        <ele>58.3</ele>
        <time>2022-03-02T15:07:37Z</time>
      </trkpt>
      <trkpt lat="49.95205" lon="2.18715">
        <ele>58.3</ele>
        <time>2022-03-02T15:07:38Z</time>
      </trkpt>
      <trkpt lat="49.95204" lon="2.18714">
        <ele>58.3</ele>
        <time>2022-03-02T15:07:39Z</time>
      </trkpt>
      <trkpt lat="49.95204" lon="2.18713">
        <ele>58.3</ele>
        <time>2022-03-02T15:07:41Z</time>
      </trkpt>
      <trkpt lat="49.95203" lon="2.18712">
        <ele>58.3</ele>
        <time>2022-03-02T15:07:42Z</time>
      </trkpt>
      <trkpt lat="49.95203" lon="2.1871">
        <ele>58.3</ele>
        <time>2022-03-02T15:07:43Z</time>
      </trkpt>
      <trkpt lat="49.95202" lon="2.18709">
        <ele>58.3</ele>
        <time>2022-03-02T15:07:44Z</time>
      </trkpt>
      <trkpt lat="49.95201" lon="2.18707">
        <ele>58.3</ele>
        <time>2022-03-02T15:07:45Z</time>
      </trkpt>
      <trkpt lat="49.952" lon="2.18705">
        <ele>58.3</ele>
        <time>2022-03-02T15:07:46Z</time>
      </trkpt>
      <trkpt lat="49.95199" lon="2.18703">
        <ele>58.3</ele>
        <time>2022-03-02T15:07:47Z</time>
      </trkpt>
      <trkpt lat="49.95197" lon="2.187">
        <ele>58.3</ele>
        <time>2022-03-02T15:07:49Z</time>
      </trkpt>
      <trkpt lat="49.95197" lon="2.18698">
        <ele>58.2</ele>
        <time>2022-03-02T15:07:50Z</time>
      </trkpt>
      <trkpt lat="49.95196" lon="2.18696">
        <ele>58.2</ele>
        <time>2022-03-02T15:07:51Z</time>
      </trkpt>
      <trkpt lat="49.95195" lon="2.18695">
        <ele>58.2</ele>
        <time>2022-03-02T15:07:52Z</time>
      </trkpt>
      <trkpt lat="49.95195" lon="2.18693">
        <ele>58.2</ele>
        <time>2022-03-02T15:07:53Z</time>
      </trkpt>
      <trkpt lat="49.95194" lon="2.18691">
        <ele>58.2</ele>
        <time>2022-03-02T15:07:55Z</time>
      </trkpt>
      <trkpt lat="49.95193" lon="2.18689">
        <ele>58.2</ele>
        <time>2022-03-02T15:07:56Z</time>
      </trkpt>
      <trkpt lat="49.95192" lon="2.18687">
        <ele>58.2</ele>
        <time>2022-03-02T15:07:57Z</time>
      </trkpt>
      <trkpt lat="49.95191" lon="2.18685">
        <ele>58.2</ele>
        <time>2022-03-02T15:07:58Z</time>
      </trkpt>
      <trkpt lat="49.9519" lon="2.18683">
        <ele>58.1</ele>
        <time>2022-03-02T15:07:59Z</time>
      </trkpt>
      <trkpt lat="49.9519" lon="2.18682">
        <ele>58.1</ele>
        <time>2022-03-02T15:08:00Z</time>
      </trkpt>
      <trkpt lat="49.95189" lon="2.1868">
        <ele>58.1</ele>
        <time>2022-03-02T15:08:02Z</time>
      </trkpt>
      <trkpt lat="49.95189" lon="2.18678">
        <ele>58.1</ele>
        <time>2022-03-02T15:08:03Z</time>
      </trkpt>
      <trkpt lat="49.95189" lon="2.18677">
        <ele>58.1</ele>
        <time>2022-03-02T15:08:04Z</time>
      </trkpt>
      <trkpt lat="49.95188" lon="2.18675">
        <ele>58.1</ele>
        <time>2022-03-02T15:08:05Z</time>
      </trkpt>
      <trkpt lat="49.95188" lon="2.18673">
        <ele>58.1</ele>
        <time>2022-03-02T15:08:06Z</time>
      </trkpt>
      <trkpt lat="49.95188" lon="2.18672">
        <ele>58.1</ele>
        <time>2022-03-02T15:08:07Z</time>
      </trkpt>
      <trkpt lat="49.95188" lon="2.18672">
        <ele>58.1</ele>
        <time>2022-03-02T15:08:08Z</time>
      </trkpt>
      <trkpt lat="49.95187" lon="2.18671">
        <ele>58.1</ele>
        <time>2022-03-02T15:08:09Z</time>
      </trkpt>
      <trkpt lat="49.95187" lon="2.18668">
        <ele>58.1</ele>
        <time>2022-03-02T15:08:11Z</time>
      </trkpt>
      <trkpt lat="49.95186" lon="2.18666">
        <ele>58.1</ele>
        <time>2022-03-02T15:08:12Z</time>
      </trkpt>
      <trkpt lat="49.95185" lon="2.18664">
        <ele>58</ele>
        <time>2022-03-02T15:08:13Z</time>
      </trkpt>
      <trkpt lat="49.95185" lon="2.18663">
        <ele>58</ele>
        <time>2022-03-02T15:08:14Z</time>
      </trkpt>
      <trkpt lat="49.95185" lon="2.18662">
        <ele>58</ele>
        <time>2022-03-02T15:08:15Z</time>
      </trkpt>
      <trkpt lat="49.95184" lon="2.1866">
        <ele>58</ele>
        <time>2022-03-02T15:08:16Z</time>
      </trkpt>
      <trkpt lat="49.95184" lon="2.18659">
        <ele>58</ele>
        <time>2022-03-02T15:08:17Z</time>
      </trkpt>
      <trkpt lat="49.95183" lon="2.18656">
        <ele>58</ele>
        <time>2022-03-02T15:08:18Z</time>
      </trkpt>
      <trkpt lat="49.95182" lon="2.18655">
        <ele>58</ele>
        <time>2022-03-02T15:08:20Z</time>
      </trkpt>
      <trkpt lat="49.95182" lon="2.18654">
        <ele>58</ele>
        <time>2022-03-02T15:08:21Z</time>
      </trkpt>
      <trkpt lat="49.95182" lon="2.18652">
        <ele>58</ele>
        <time>2022-03-02T15:08:22Z</time>
      </trkpt>
      <trkpt lat="49.95181" lon="2.18651">
        <ele>58</ele>
        <time>2022-03-02T15:08:23Z</time>
      </trkpt>
      <trkpt lat="49.95181" lon="2.18649">
        <ele>58</ele>
        <time>2022-03-02T15:08:24Z</time>
      </trkpt>
      <trkpt lat="49.9518" lon="2.18648">
        <ele>58</ele>
        <time>2022-03-02T15:08:25Z</time>
      </trkpt>
      <trkpt lat="49.9518" lon="2.18647">
        <ele>58</ele>
        <time>2022-03-02T15:08:26Z</time>
      </trkpt>
      <trkpt lat="49.9518" lon="2.18645">
        <ele>58</ele>
        <time>2022-03-02T15:08:27Z</time>
      </trkpt>
      <trkpt lat="49.95179" lon="2.18642">
        <ele>57.9</ele>
        <time>2022-03-02T15:08:28Z</time>
      </trkpt>
      <trkpt lat="49.95178" lon="2.18641">
        <ele>57.9</ele>
        <time>2022-03-02T15:08:29Z</time>
      </trkpt>
      <trkpt lat="49.95178" lon="2.18639">
        <ele>57.9</ele>
        <time>2022-03-02T15:08:30Z</time>
      </trkpt>
      <trkpt lat="49.95177" lon="2.18637">
        <ele>57.9</ele>
        <time>2022-03-02T15:08:31Z</time>
      </trkpt>
      <trkpt lat="49.95176" lon="2.18636">
        <ele>57.9</ele>
        <time>2022-03-02T15:08:32Z</time>
      </trkpt>
      <trkpt lat="49.95176" lon="2.18634">
        <ele>57.9</ele>
        <time>2022-03-02T15:08:34Z</time>
      </trkpt>
      <trkpt lat="49.95175" lon="2.18632">
        <ele>57.9</ele>
        <time>2022-03-02T15:08:35Z</time>
      </trkpt>
      <trkpt lat="49.95174" lon="2.1863">
        <ele>57.9</ele>
        <time>2022-03-02T15:08:36Z</time>
      </trkpt>
      <trkpt lat="49.95173" lon="2.18628">
        <ele>57.9</ele>
        <time>2022-03-02T15:08:37Z</time>
      </trkpt>
      <trkpt lat="49.95173" lon="2.18625">
        <ele>57.9</ele>
        <time>2022-03-02T15:08:38Z</time>
      </trkpt>
      <trkpt lat="49.95172" lon="2.18624">
        <ele>57.8</ele>
        <time>2022-03-02T15:08:39Z</time>
      </trkpt>
      <trkpt lat="49.95172" lon="2.18623">
        <ele>57.8</ele>
        <time>2022-03-02T15:08:40Z</time>
      </trkpt>
      <trkpt lat="49.95171" lon="2.18622">
        <ele>57.8</ele>
        <time>2022-03-02T15:08:41Z</time>
      </trkpt>
      <trkpt lat="49.95171" lon="2.1862">
        <ele>57.8</ele>
        <time>2022-03-02T15:08:42Z</time>
      </trkpt>
      <trkpt lat="49.9517" lon="2.18618">
        <ele>57.8</ele>
        <time>2022-03-02T15:08:43Z</time>
      </trkpt>
      <trkpt lat="49.95169" lon="2.18615">
        <ele>57.8</ele>
        <time>2022-03-02T15:08:44Z</time>
      </trkpt>
      <trkpt lat="49.95169" lon="2.18614">
        <ele>57.8</ele>
        <time>2022-03-02T15:08:45Z</time>
      </trkpt>
      <trkpt lat="49.95168" lon="2.18613">
        <ele>57.8</ele>
        <time>2022-03-02T15:08:46Z</time>
      </trkpt>
      <trkpt lat="49.95168" lon="2.18611">
        <ele>57.8</ele>
        <time>2022-03-02T15:08:47Z</time>
      </trkpt>
      <trkpt lat="49.95167" lon="2.18609">
        <ele>57.8</ele>
        <time>2022-03-02T15:08:49Z</time>
      </trkpt>
      <trkpt lat="49.95167" lon="2.18607">
        <ele>57.8</ele>
        <time>2022-03-02T15:08:50Z</time>
      </trkpt>
      <trkpt lat="49.95166" lon="2.18605">
        <ele>57.8</ele>
        <time>2022-03-02T15:08:51Z</time>
      </trkpt>
      <trkpt lat="49.95166" lon="2.18603">
        <ele>57.7</ele>
        <time>2022-03-02T15:08:52Z</time>
      </trkpt>
      <trkpt lat="49.95165" lon="2.18601">
        <ele>57.7</ele>
        <time>2022-03-02T15:08:53Z</time>
      </trkpt>
      <trkpt lat="49.95164" lon="2.18596">
        <ele>57.7</ele>
        <time>2022-03-02T15:08:55Z</time>
      </trkpt>
      <trkpt lat="49.95163" lon="2.18595">
        <ele>57.7</ele>
        <time>2022-03-02T15:08:56Z</time>
      </trkpt>
      <trkpt lat="49.95163" lon="2.18592">
        <ele>57.7</ele>
        <time>2022-03-02T15:08:57Z</time>
      </trkpt>
      <trkpt lat="49.95162" lon="2.18591">
        <ele>57.7</ele>
        <time>2022-03-02T15:08:58Z</time>
      </trkpt>
      <trkpt lat="49.95162" lon="2.1859">
        <ele>57.7</ele>
        <time>2022-03-02T15:08:59Z</time>
      </trkpt>
      <trkpt lat="49.95161" lon="2.18587">
        <ele>57.7</ele>
        <time>2022-03-02T15:09:00Z</time>
      </trkpt>
      <trkpt lat="49.95161" lon="2.18586">
        <ele>57.7</ele>
        <time>2022-03-02T15:09:01Z</time>
      </trkpt>
      <trkpt lat="49.95161" lon="2.18584">
        <ele>57.7</ele>
        <time>2022-03-02T15:09:02Z</time>
      </trkpt>
      <trkpt lat="49.9516" lon="2.18582">
        <ele>57.6</ele>
        <time>2022-03-02T15:09:04Z</time>
      </trkpt>
      <trkpt lat="49.9516" lon="2.18581">
        <ele>57.6</ele>
        <time>2022-03-02T15:09:05Z</time>
      </trkpt>
      <trkpt lat="49.9516" lon="2.1858">
        <ele>57.6</ele>
        <time>2022-03-02T15:09:06Z</time>
      </trkpt>
      <trkpt lat="49.95159" lon="2.18579">
        <ele>57.6</ele>
        <time>2022-03-02T15:09:07Z</time>
      </trkpt>
      <trkpt lat="49.95159" lon="2.18577">
        <ele>57.6</ele>
        <time>2022-03-02T15:09:08Z</time>
      </trkpt>
      <trkpt lat="49.95159" lon="2.18575">
        <ele>57.6</ele>
        <time>2022-03-02T15:09:09Z</time>
      </trkpt>
      <trkpt lat="49.95158" lon="2.18574">
        <ele>57.6</ele>
        <time>2022-03-02T15:09:10Z</time>
      </trkpt>
      <trkpt lat="49.95158" lon="2.18571">
        <ele>57.6</ele>
        <time>2022-03-02T15:09:11Z</time>
      </trkpt>
      <trkpt lat="49.95157" lon="2.1857">
        <ele>57.6</ele>
        <time>2022-03-02T15:09:12Z</time>
      </trkpt>
      <trkpt lat="49.95157" lon="2.18569">
        <ele>57.6</ele>
        <time>2022-03-02T15:09:13Z</time>
      </trkpt>
      <trkpt lat="49.95157" lon="2.18565">
        <ele>57.6</ele>
        <time>2022-03-02T15:09:14Z</time>
      </trkpt>
      <trkpt lat="49.95157" lon="2.18564">
        <ele>57.6</ele>
        <time>2022-03-02T15:09:15Z</time>
      </trkpt>
      <trkpt lat="49.95156" lon="2.18563">
        <ele>57.6</ele>
        <time>2022-03-02T15:09:16Z</time>
      </trkpt>
      <trkpt lat="49.95156" lon="2.1856">
        <ele>57.5</ele>
        <time>2022-03-02T15:09:18Z</time>
      </trkpt>
      <trkpt lat="49.95156" lon="2.18557">
        <ele>57.5</ele>
        <time>2022-03-02T15:09:19Z</time>
      </trkpt>
      <trkpt lat="49.95156" lon="2.18556">
        <ele>57.5</ele>
        <time>2022-03-02T15:09:20Z</time>
      </trkpt>
      <trkpt lat="49.95156" lon="2.18554">
        <ele>57.5</ele>
        <time>2022-03-02T15:09:21Z</time>
      </trkpt>
      <trkpt lat="49.95155" lon="2.18554">
        <ele>57.5</ele>
        <time>2022-03-02T15:09:22Z</time>
      </trkpt>
      <trkpt lat="49.95154" lon="2.18553">
        <ele>57.5</ele>
        <time>2022-03-02T15:09:24Z</time>
      </trkpt>
      <trkpt lat="49.95153" lon="2.1855">
        <ele>57.5</ele>
        <time>2022-03-02T15:09:25Z</time>
      </trkpt>
      <trkpt lat="49.95153" lon="2.18549">
        <ele>57.5</ele>
        <time>2022-03-02T15:09:26Z</time>
      </trkpt>
      <trkpt lat="49.95152" lon="2.18547">
        <ele>57.5</ele>
        <time>2022-03-02T15:09:27Z</time>
      </trkpt>
      <trkpt lat="49.95152" lon="2.18545">
        <ele>57.5</ele>
        <time>2022-03-02T15:09:28Z</time>
      </trkpt>
      <trkpt lat="49.95151" lon="2.18544">
        <ele>57.5</ele>
        <time>2022-03-02T15:09:29Z</time>
      </trkpt>
      <trkpt lat="49.9515" lon="2.18541">
        <ele>57.5</ele>
        <time>2022-03-02T15:09:31Z</time>
      </trkpt>
      <trkpt lat="49.95149" lon="2.18539">
        <ele>57.4</ele>
        <time>2022-03-02T15:09:32Z</time>
      </trkpt>
      <trkpt lat="49.95148" lon="2.18537">
        <ele>57.4</ele>
        <time>2022-03-02T15:09:33Z</time>
      </trkpt>
      <trkpt lat="49.95147" lon="2.18536">
        <ele>57.4</ele>
        <time>2022-03-02T15:09:34Z</time>
      </trkpt>
      <trkpt lat="49.95147" lon="2.18534">
        <ele>57.4</ele>
        <time>2022-03-02T15:09:35Z</time>
      </trkpt>
      <trkpt lat="49.95146" lon="2.18533">
        <ele>57.4</ele>
        <time>2022-03-02T15:09:36Z</time>
      </trkpt>
      <trkpt lat="49.95145" lon="2.18532">
        <ele>57.4</ele>
        <time>2022-03-02T15:09:37Z</time>
      </trkpt>
      <trkpt lat="49.95144" lon="2.18529">
        <ele>57.4</ele>
        <time>2022-03-02T15:09:39Z</time>
      </trkpt>
      <trkpt lat="49.95143" lon="2.18526">
        <ele>57.4</ele>
        <time>2022-03-02T15:09:40Z</time>
      </trkpt>
      <trkpt lat="49.95142" lon="2.18525">
        <ele>57.4</ele>
        <time>2022-03-02T15:09:41Z</time>
      </trkpt>
      <trkpt lat="49.95142" lon="2.18524">
        <ele>57.3</ele>
        <time>2022-03-02T15:09:42Z</time>
      </trkpt>
      <trkpt lat="49.95141" lon="2.18522">
        <ele>57.3</ele>
        <time>2022-03-02T15:09:43Z</time>
      </trkpt>
      <trkpt lat="49.95141" lon="2.1852">
        <ele>57.3</ele>
        <time>2022-03-02T15:09:45Z</time>
      </trkpt>
      <trkpt lat="49.95141" lon="2.18519">
        <ele>57.3</ele>
        <time>2022-03-02T15:09:46Z</time>
      </trkpt>
      <trkpt lat="49.9514" lon="2.18517">
        <ele>57.3</ele>
        <time>2022-03-02T15:09:47Z</time>
      </trkpt>
      <trkpt lat="49.9514" lon="2.18514">
        <ele>57.3</ele>
        <time>2022-03-02T15:09:49Z</time>
      </trkpt>
      <trkpt lat="49.95139" lon="2.18512">
        <ele>57.3</ele>
        <time>2022-03-02T15:09:50Z</time>
      </trkpt>
      <trkpt lat="49.95139" lon="2.18511">
        <ele>57.3</ele>
        <time>2022-03-02T15:09:51Z</time>
      </trkpt>
      <trkpt lat="49.95138" lon="2.18509">
        <ele>57.3</ele>
        <time>2022-03-02T15:09:52Z</time>
      </trkpt>
      <trkpt lat="49.95137" lon="2.18507">
        <ele>57.2</ele>
        <time>2022-03-02T15:09:53Z</time>
      </trkpt>
      <trkpt lat="49.95136" lon="2.18505">
        <ele>57.2</ele>
        <time>2022-03-02T15:09:54Z</time>
      </trkpt>
      <trkpt lat="49.95136" lon="2.18504">
        <ele>57.2</ele>
        <time>2022-03-02T15:09:55Z</time>
      </trkpt>
      <trkpt lat="49.95136" lon="2.18502">
        <ele>57.2</ele>
        <time>2022-03-02T15:09:56Z</time>
      </trkpt>
      <trkpt lat="49.95135" lon="2.185">
        <ele>57.2</ele>
        <time>2022-03-02T15:09:57Z</time>
      </trkpt>
      <trkpt lat="49.95135" lon="2.18498">
        <ele>57.2</ele>
        <time>2022-03-02T15:09:59Z</time>
      </trkpt>
      <trkpt lat="49.95135" lon="2.18497">
        <ele>57.2</ele>
        <time>2022-03-02T15:10:00Z</time>
      </trkpt>
      <trkpt lat="49.95134" lon="2.18495">
        <ele>57.2</ele>
        <time>2022-03-02T15:10:01Z</time>
      </trkpt>
      <trkpt lat="49.95134" lon="2.18493">
        <ele>57.2</ele>
        <time>2022-03-02T15:10:02Z</time>
      </trkpt>
      <trkpt lat="49.95133" lon="2.18491">
        <ele>57.2</ele>
        <time>2022-03-02T15:10:03Z</time>
      </trkpt>
      <trkpt lat="49.95132" lon="2.1849">
        <ele>57.2</ele>
        <time>2022-03-02T15:10:04Z</time>
      </trkpt>
      <trkpt lat="49.95132" lon="2.18489">
        <ele>57.1</ele>
        <time>2022-03-02T15:10:05Z</time>
      </trkpt>
      <trkpt lat="49.95131" lon="2.18486">
        <ele>57.1</ele>
        <time>2022-03-02T15:10:06Z</time>
      </trkpt>
      <trkpt lat="49.9513" lon="2.18484">
        <ele>57.1</ele>
        <time>2022-03-02T15:10:07Z</time>
      </trkpt>
      <trkpt lat="49.9513" lon="2.18483">
        <ele>57.1</ele>
        <time>2022-03-02T15:10:08Z</time>
      </trkpt>
      <trkpt lat="49.95129" lon="2.18481">
        <ele>57.1</ele>
        <time>2022-03-02T15:10:10Z</time>
      </trkpt>
      <trkpt lat="49.95129" lon="2.18479">
        <ele>57.1</ele>
        <time>2022-03-02T15:10:11Z</time>
      </trkpt>
      <trkpt lat="49.95128" lon="2.18477">
        <ele>57.1</ele>
        <time>2022-03-02T15:10:13Z</time>
      </trkpt>
      <trkpt lat="49.95127" lon="2.18474">
        <ele>57.1</ele>
        <time>2022-03-02T15:10:14Z</time>
      </trkpt>
      <trkpt lat="49.95126" lon="2.18473">
        <ele>57.1</ele>
        <time>2022-03-02T15:10:15Z</time>
      </trkpt>
      <trkpt lat="49.95126" lon="2.18472">
        <ele>57.1</ele>
        <time>2022-03-02T15:10:16Z</time>
      </trkpt>
      <trkpt lat="49.95125" lon="2.1847">
        <ele>57</ele>
        <time>2022-03-02T15:10:17Z</time>
      </trkpt>
      <trkpt lat="49.95124" lon="2.18468">
        <ele>57</ele>
        <time>2022-03-02T15:10:18Z</time>
      </trkpt>
      <trkpt lat="49.95124" lon="2.18467">
        <ele>57</ele>
        <time>2022-03-02T15:10:19Z</time>
      </trkpt>
      <trkpt lat="49.95123" lon="2.18465">
        <ele>57</ele>
        <time>2022-03-02T15:10:20Z</time>
      </trkpt>
      <trkpt lat="49.95123" lon="2.18463">
        <ele>57</ele>
        <time>2022-03-02T15:10:21Z</time>
      </trkpt>
      <trkpt lat="49.95122" lon="2.18461">
        <ele>57</ele>
        <time>2022-03-02T15:10:22Z</time>
      </trkpt>
      <trkpt lat="49.95122" lon="2.18459">
        <ele>57</ele>
        <time>2022-03-02T15:10:23Z</time>
      </trkpt>
      <trkpt lat="49.95121" lon="2.18457">
        <ele>57</ele>
        <time>2022-03-02T15:10:25Z</time>
      </trkpt>
      <trkpt lat="49.95121" lon="2.18456">
        <ele>57</ele>
        <time>2022-03-02T15:10:26Z</time>
      </trkpt>
      <trkpt lat="49.95121" lon="2.18455">
        <ele>57</ele>
        <time>2022-03-02T15:10:27Z</time>
      </trkpt>
      <trkpt lat="49.95119" lon="2.18452">
        <ele>57</ele>
        <time>2022-03-02T15:10:28Z</time>
      </trkpt>
      <trkpt lat="49.95119" lon="2.18451">
        <ele>57</ele>
        <time>2022-03-02T15:10:29Z</time>
      </trkpt>
      <trkpt lat="49.95119" lon="2.1845">
        <ele>57</ele>
        <time>2022-03-02T15:10:30Z</time>
      </trkpt>
      <trkpt lat="49.95117" lon="2.18447">
        <ele>57</ele>
        <time>2022-03-02T15:10:31Z</time>
      </trkpt>
      <trkpt lat="49.95117" lon="2.18446">
        <ele>57</ele>
        <time>2022-03-02T15:10:32Z</time>
      </trkpt>
      <trkpt lat="49.95117" lon="2.18445">
        <ele>57</ele>
        <time>2022-03-02T15:10:33Z</time>
      </trkpt>
      <trkpt lat="49.95116" lon="2.18442">
        <ele>57</ele>
        <time>2022-03-02T15:10:34Z</time>
      </trkpt>
      <trkpt lat="49.95115" lon="2.1844">
        <ele>57</ele>
        <time>2022-03-02T15:10:35Z</time>
      </trkpt>
      <trkpt lat="49.95115" lon="2.18439">
        <ele>57</ele>
        <time>2022-03-02T15:10:36Z</time>
      </trkpt>
      <trkpt lat="49.95114" lon="2.18437">
        <ele>56.9</ele>
        <time>2022-03-02T15:10:37Z</time>
      </trkpt>
      <trkpt lat="49.95114" lon="2.18436">
        <ele>56.9</ele>
        <time>2022-03-02T15:10:39Z</time>
      </trkpt>
      <trkpt lat="49.95114" lon="2.18434">
        <ele>56.9</ele>
        <time>2022-03-02T15:10:40Z</time>
      </trkpt>
      <trkpt lat="49.95113" lon="2.18433">
        <ele>56.9</ele>
        <time>2022-03-02T15:10:41Z</time>
      </trkpt>
      <trkpt lat="49.95113" lon="2.18431">
        <ele>56.9</ele>
        <time>2022-03-02T15:10:42Z</time>
      </trkpt>
      <trkpt lat="49.95112" lon="2.1843">
        <ele>56.9</ele>
        <time>2022-03-02T15:10:43Z</time>
      </trkpt>
      <trkpt lat="49.95111" lon="2.18427">
        <ele>56.9</ele>
        <time>2022-03-02T15:10:44Z</time>
      </trkpt>
      <trkpt lat="49.95111" lon="2.18426">
        <ele>56.9</ele>
        <time>2022-03-02T15:10:45Z</time>
      </trkpt>
      <trkpt lat="49.9511" lon="2.18424">
        <ele>56.9</ele>
        <time>2022-03-02T15:10:46Z</time>
      </trkpt>
      <trkpt lat="49.95109" lon="2.18421">
        <ele>56.8</ele>
        <time>2022-03-02T15:10:47Z</time>
      </trkpt>
      <trkpt lat="49.95109" lon="2.1842">
        <ele>56.8</ele>
        <time>2022-03-02T15:10:48Z</time>
      </trkpt>
      <trkpt lat="49.95109" lon="2.18419">
        <ele>56.8</ele>
        <time>2022-03-02T15:10:49Z</time>
      </trkpt>
      <trkpt lat="49.95108" lon="2.18416">
        <ele>56.8</ele>
        <time>2022-03-02T15:10:50Z</time>
      </trkpt>
      <trkpt lat="49.95108" lon="2.18415">
        <ele>56.8</ele>
        <time>2022-03-02T15:10:52Z</time>
      </trkpt>
      <trkpt lat="49.95107" lon="2.18414">
        <ele>56.8</ele>
        <time>2022-03-02T15:10:53Z</time>
      </trkpt>
      <trkpt lat="49.95106" lon="2.18411">
        <ele>56.8</ele>
        <time>2022-03-02T15:10:54Z</time>
      </trkpt>
      <trkpt lat="49.95106" lon="2.18409">
        <ele>56.8</ele>
        <time>2022-03-02T15:10:55Z</time>
      </trkpt>
      <trkpt lat="49.95106" lon="2.18408">
        <ele>56.7</ele>
        <time>2022-03-02T15:10:56Z</time>
      </trkpt>
      <trkpt lat="49.95105" lon="2.18407">
        <ele>56.7</ele>
        <time>2022-03-02T15:10:57Z</time>
      </trkpt>
      <trkpt lat="49.95104" lon="2.18405">
        <ele>56.7</ele>
        <time>2022-03-02T15:10:58Z</time>
      </trkpt>
      <trkpt lat="49.95104" lon="2.18404">
        <ele>56.7</ele>
        <time>2022-03-02T15:10:59Z</time>
      </trkpt>
      <trkpt lat="49.95102" lon="2.18401">
        <ele>56.7</ele>
        <time>2022-03-02T15:11:00Z</time>
      </trkpt>
      <trkpt lat="49.95102" lon="2.184">
        <ele>56.7</ele>
        <time>2022-03-02T15:11:02Z</time>
      </trkpt>
      <trkpt lat="49.95101" lon="2.18399">
        <ele>56.7</ele>
        <time>2022-03-02T15:11:03Z</time>
      </trkpt>
      <trkpt lat="49.951" lon="2.18397">
        <ele>56.7</ele>
        <time>2022-03-02T15:11:04Z</time>
      </trkpt>
      <trkpt lat="49.951" lon="2.18395">
        <ele>56.6</ele>
        <time>2022-03-02T15:11:05Z</time>
      </trkpt>
      <trkpt lat="49.95099" lon="2.18394">
        <ele>56.6</ele>
        <time>2022-03-02T15:11:06Z</time>
      </trkpt>
      <trkpt lat="49.95099" lon="2.18392">
        <ele>56.6</ele>
        <time>2022-03-02T15:11:07Z</time>
      </trkpt>
      <trkpt lat="49.95098" lon="2.18389">
        <ele>56.6</ele>
        <time>2022-03-02T15:11:09Z</time>
      </trkpt>
      <trkpt lat="49.95098" lon="2.18388">
        <ele>56.6</ele>
        <time>2022-03-02T15:11:10Z</time>
      </trkpt>
      <trkpt lat="49.95097" lon="2.18386">
        <ele>56.6</ele>
        <time>2022-03-02T15:11:11Z</time>
      </trkpt>
      <trkpt lat="49.95096" lon="2.18385">
        <ele>56.6</ele>
        <time>2022-03-02T15:11:12Z</time>
      </trkpt>
      <trkpt lat="49.95096" lon="2.18383">
        <ele>56.6</ele>
        <time>2022-03-02T15:11:13Z</time>
      </trkpt>
      <trkpt lat="49.95095" lon="2.18381">
        <ele>56.5</ele>
        <time>2022-03-02T15:11:14Z</time>
      </trkpt>
      <trkpt lat="49.95094" lon="2.18379">
        <ele>56.5</ele>
        <time>2022-03-02T15:11:16Z</time>
      </trkpt>
      <trkpt lat="49.95094" lon="2.18378">
        <ele>56.5</ele>
        <time>2022-03-02T15:11:17Z</time>
      </trkpt>
      <trkpt lat="49.95093" lon="2.18376">
        <ele>56.5</ele>
        <time>2022-03-02T15:11:18Z</time>
      </trkpt>
      <trkpt lat="49.95092" lon="2.18373">
        <ele>56.5</ele>
        <time>2022-03-02T15:11:19Z</time>
      </trkpt>
      <trkpt lat="49.95091" lon="2.18372">
        <ele>56.5</ele>
        <time>2022-03-02T15:11:20Z</time>
      </trkpt>
      <trkpt lat="49.95091" lon="2.18371">
        <ele>56.4</ele>
        <time>2022-03-02T15:11:21Z</time>
      </trkpt>
      <trkpt lat="49.9509" lon="2.18368">
        <ele>56.4</ele>
        <time>2022-03-02T15:11:22Z</time>
      </trkpt>
      <trkpt lat="49.95089" lon="2.18367">
        <ele>56.4</ele>
        <time>2022-03-02T15:11:23Z</time>
      </trkpt>
      <trkpt lat="49.95089" lon="2.18366">
        <ele>56.4</ele>
        <time>2022-03-02T15:11:24Z</time>
      </trkpt>
      <trkpt lat="49.95088" lon="2.18364">
        <ele>56.4</ele>
        <time>2022-03-02T15:11:25Z</time>
      </trkpt>
      <trkpt lat="49.95087" lon="2.18362">
        <ele>56.4</ele>
        <time>2022-03-02T15:11:26Z</time>
      </trkpt>
      <trkpt lat="49.95086" lon="2.1836">
        <ele>56.3</ele>
        <time>2022-03-02T15:11:28Z</time>
      </trkpt>
      <trkpt lat="49.95086" lon="2.18358">
        <ele>56.3</ele>
        <time>2022-03-02T15:11:29Z</time>
      </trkpt>
      <trkpt lat="49.95085" lon="2.18357">
        <ele>56.3</ele>
        <time>2022-03-02T15:11:30Z</time>
      </trkpt>
      <trkpt lat="49.95084" lon="2.18355">
        <ele>56.3</ele>
        <time>2022-03-02T15:11:31Z</time>
      </trkpt>
      <trkpt lat="49.95084" lon="2.18353">
        <ele>56.3</ele>
        <time>2022-03-02T15:11:32Z</time>
      </trkpt>
      <trkpt lat="49.95083" lon="2.1835">
        <ele>56.3</ele>
        <time>2022-03-02T15:11:33Z</time>
      </trkpt>
      <trkpt lat="49.95083" lon="2.18349">
        <ele>56.2</ele>
        <time>2022-03-02T15:11:34Z</time>
      </trkpt>
      <trkpt lat="49.95082" lon="2.18348">
        <ele>56.2</ele>
        <time>2022-03-02T15:11:35Z</time>
      </trkpt>
      <trkpt lat="49.95081" lon="2.18345">
        <ele>56.2</ele>
        <time>2022-03-02T15:11:36Z</time>
      </trkpt>
      <trkpt lat="49.95081" lon="2.18344">
        <ele>56.2</ele>
        <time>2022-03-02T15:11:38Z</time>
      </trkpt>
      <trkpt lat="49.9508" lon="2.18343">
        <ele>56.2</ele>
        <time>2022-03-02T15:11:39Z</time>
      </trkpt>
      <trkpt lat="49.9508" lon="2.18342">
        <ele>56.2</ele>
        <time>2022-03-02T15:11:40Z</time>
      </trkpt>
      <trkpt lat="49.95079" lon="2.18341">
        <ele>56.2</ele>
        <time>2022-03-02T15:11:41Z</time>
      </trkpt>
      <trkpt lat="49.95079" lon="2.18339">
        <ele>56.2</ele>
        <time>2022-03-02T15:11:42Z</time>
      </trkpt>
      <trkpt lat="49.95078" lon="2.18337">
        <ele>56.1</ele>
        <time>2022-03-02T15:11:43Z</time>
      </trkpt>
      <trkpt lat="49.95078" lon="2.18335">
        <ele>56.1</ele>
        <time>2022-03-02T15:11:45Z</time>
      </trkpt>
      <trkpt lat="49.95077" lon="2.18333">
        <ele>56.1</ele>
        <time>2022-03-02T15:11:46Z</time>
      </trkpt>
      <trkpt lat="49.95077" lon="2.18332">
        <ele>56.1</ele>
        <time>2022-03-02T15:11:47Z</time>
      </trkpt>
      <trkpt lat="49.95076" lon="2.1833">
        <ele>56.1</ele>
        <time>2022-03-02T15:11:48Z</time>
      </trkpt>
      <trkpt lat="49.95076" lon="2.18328">
        <ele>56.1</ele>
        <time>2022-03-02T15:11:49Z</time>
      </trkpt>
      <trkpt lat="49.95075" lon="2.18326">
        <ele>56.1</ele>
        <time>2022-03-02T15:11:50Z</time>
      </trkpt>
      <trkpt lat="49.95075" lon="2.18325">
        <ele>56</ele>
        <time>2022-03-02T15:11:52Z</time>
      </trkpt>
      <trkpt lat="49.95074" lon="2.18323">
        <ele>56</ele>
        <time>2022-03-02T15:11:53Z</time>
      </trkpt>
      <trkpt lat="49.95073" lon="2.18321">
        <ele>56</ele>
        <time>2022-03-02T15:11:54Z</time>
      </trkpt>
      <trkpt lat="49.95072" lon="2.18319">
        <ele>56</ele>
        <time>2022-03-02T15:11:55Z</time>
      </trkpt>
      <trkpt lat="49.95072" lon="2.18317">
        <ele>56</ele>
        <time>2022-03-02T15:11:56Z</time>
      </trkpt>
      <trkpt lat="49.95071" lon="2.18315">
        <ele>56</ele>
        <time>2022-03-02T15:11:57Z</time>
      </trkpt>
      <trkpt lat="49.95071" lon="2.18314">
        <ele>56</ele>
        <time>2022-03-02T15:11:58Z</time>
      </trkpt>
      <trkpt lat="49.95071" lon="2.18312">
        <ele>56</ele>
        <time>2022-03-02T15:11:59Z</time>
      </trkpt>
      <trkpt lat="49.9507" lon="2.18311">
        <ele>56</ele>
        <time>2022-03-02T15:12:00Z</time>
      </trkpt>
      <trkpt lat="49.9507" lon="2.18309">
        <ele>55.9</ele>
        <time>2022-03-02T15:12:01Z</time>
      </trkpt>
      <trkpt lat="49.95069" lon="2.18307">
        <ele>55.9</ele>
        <time>2022-03-02T15:12:02Z</time>
      </trkpt>
      <trkpt lat="49.95068" lon="2.18305">
        <ele>55.9</ele>
        <time>2022-03-02T15:12:03Z</time>
      </trkpt>
      <trkpt lat="49.95068" lon="2.18303">
        <ele>55.9</ele>
        <time>2022-03-02T15:12:05Z</time>
      </trkpt>
      <trkpt lat="49.95067" lon="2.18301">
        <ele>55.9</ele>
        <time>2022-03-02T15:12:06Z</time>
      </trkpt>
      <trkpt lat="49.95066" lon="2.18299">
        <ele>55.9</ele>
        <time>2022-03-02T15:12:07Z</time>
      </trkpt>
      <trkpt lat="49.95066" lon="2.18297">
        <ele>55.9</ele>
        <time>2022-03-02T15:12:08Z</time>
      </trkpt>
      <trkpt lat="49.95065" lon="2.18295">
        <ele>55.9</ele>
        <time>2022-03-02T15:12:09Z</time>
      </trkpt>
      <trkpt lat="49.95064" lon="2.18294">
        <ele>55.8</ele>
        <time>2022-03-02T15:12:10Z</time>
      </trkpt>
      <trkpt lat="49.95064" lon="2.18292">
        <ele>55.8</ele>
        <time>2022-03-02T15:12:11Z</time>
      </trkpt>
      <trkpt lat="49.95063" lon="2.18291">
        <ele>55.8</ele>
        <time>2022-03-02T15:12:12Z</time>
      </trkpt>
      <trkpt lat="49.95063" lon="2.1829">
        <ele>55.8</ele>
        <time>2022-03-02T15:12:13Z</time>
      </trkpt>
      <trkpt lat="49.95063" lon="2.18288">
        <ele>55.8</ele>
        <time>2022-03-02T15:12:14Z</time>
      </trkpt>
      <trkpt lat="49.95062" lon="2.18287">
        <ele>55.8</ele>
        <time>2022-03-02T15:12:15Z</time>
      </trkpt>
      <trkpt lat="49.95061" lon="2.18284">
        <ele>55.8</ele>
        <time>2022-03-02T15:12:16Z</time>
      </trkpt>
      <trkpt lat="49.9506" lon="2.18283">
        <ele>55.8</ele>
        <time>2022-03-02T15:12:18Z</time>
      </trkpt>
      <trkpt lat="49.9506" lon="2.18282">
        <ele>55.8</ele>
        <time>2022-03-02T15:12:19Z</time>
      </trkpt>
      <trkpt lat="49.95059" lon="2.1828">
        <ele>55.8</ele>
        <time>2022-03-02T15:12:20Z</time>
      </trkpt>
      <trkpt lat="49.95058" lon="2.18278">
        <ele>55.8</ele>
        <time>2022-03-02T15:12:21Z</time>
      </trkpt>
      <trkpt lat="49.95057" lon="2.18275">
        <ele>55.7</ele>
        <time>2022-03-02T15:12:22Z</time>
      </trkpt>
      <trkpt lat="49.95057" lon="2.18274">
        <ele>55.7</ele>
        <time>2022-03-02T15:12:23Z</time>
      </trkpt>
      <trkpt lat="49.95057" lon="2.18273">
        <ele>55.7</ele>
        <time>2022-03-02T15:12:24Z</time>
      </trkpt>
      <trkpt lat="49.95057" lon="2.18272">
        <ele>55.7</ele>
        <time>2022-03-02T15:12:25Z</time>
      </trkpt>
      <trkpt lat="49.95056" lon="2.18271">
        <ele>55.7</ele>
        <time>2022-03-02T15:12:26Z</time>
      </trkpt>
      <trkpt lat="49.95055" lon="2.1827">
        <ele>55.7</ele>
        <time>2022-03-02T15:12:27Z</time>
      </trkpt>
      <trkpt lat="49.95055" lon="2.18268">
        <ele>55.7</ele>
        <time>2022-03-02T15:12:28Z</time>
      </trkpt>
      <trkpt lat="49.95054" lon="2.18266">
        <ele>55.7</ele>
        <time>2022-03-02T15:12:29Z</time>
      </trkpt>
      <trkpt lat="49.95053" lon="2.18265">
        <ele>55.7</ele>
        <time>2022-03-02T15:12:31Z</time>
      </trkpt>
      <trkpt lat="49.95053" lon="2.18264">
        <ele>55.7</ele>
        <time>2022-03-02T15:12:32Z</time>
      </trkpt>
      <trkpt lat="49.95052" lon="2.18262">
        <ele>55.7</ele>
        <time>2022-03-02T15:12:33Z</time>
      </trkpt>
      <trkpt lat="49.95051" lon="2.1826">
        <ele>55.7</ele>
        <time>2022-03-02T15:12:34Z</time>
      </trkpt>
      <trkpt lat="49.95051" lon="2.18259">
        <ele>55.7</ele>
        <time>2022-03-02T15:12:35Z</time>
      </trkpt>
      <trkpt lat="49.9505" lon="2.18257">
        <ele>55.7</ele>
        <time>2022-03-02T15:12:36Z</time>
      </trkpt>
      <trkpt lat="49.95049" lon="2.18256">
        <ele>55.7</ele>
        <time>2022-03-02T15:12:37Z</time>
      </trkpt>
      <trkpt lat="49.95049" lon="2.18255">
        <ele>55.6</ele>
        <time>2022-03-02T15:12:38Z</time>
      </trkpt>
      <trkpt lat="49.95048" lon="2.18252">
        <ele>55.6</ele>
        <time>2022-03-02T15:12:39Z</time>
      </trkpt>
      <trkpt lat="49.95047" lon="2.18251">
        <ele>55.6</ele>
        <time>2022-03-02T15:12:40Z</time>
      </trkpt>
      <trkpt lat="49.95047" lon="2.1825">
        <ele>55.6</ele>
        <time>2022-03-02T15:12:41Z</time>
      </trkpt>
      <trkpt lat="49.95046" lon="2.18248">
        <ele>55.6</ele>
        <time>2022-03-02T15:12:43Z</time>
      </trkpt>
      <trkpt lat="49.95045" lon="2.18246">
        <ele>55.6</ele>
        <time>2022-03-02T15:12:44Z</time>
      </trkpt>
      <trkpt lat="49.95045" lon="2.18244">
        <ele>55.6</ele>
        <time>2022-03-02T15:12:45Z</time>
      </trkpt>
      <trkpt lat="49.95044" lon="2.18242">
        <ele>55.6</ele>
        <time>2022-03-02T15:12:46Z</time>
      </trkpt>
      <trkpt lat="49.95043" lon="2.1824">
        <ele>55.6</ele>
        <time>2022-03-02T15:12:47Z</time>
      </trkpt>
      <trkpt lat="49.95042" lon="2.18239">
        <ele>55.6</ele>
        <time>2022-03-02T15:12:48Z</time>
      </trkpt>
      <trkpt lat="49.95042" lon="2.18239">
        <ele>55.6</ele>
        <time>2022-03-02T15:12:49Z</time>
      </trkpt>
      <trkpt lat="49.95041" lon="2.18237">
        <ele>55.6</ele>
        <time>2022-03-02T15:12:50Z</time>
      </trkpt>
      <trkpt lat="49.9504" lon="2.18235">
        <ele>55.6</ele>
        <time>2022-03-02T15:12:51Z</time>
      </trkpt>
      <trkpt lat="49.95039" lon="2.18233">
        <ele>55.6</ele>
        <time>2022-03-02T15:12:53Z</time>
      </trkpt>
      <trkpt lat="49.95039" lon="2.18232">
        <ele>55.6</ele>
        <time>2022-03-02T15:12:54Z</time>
      </trkpt>
      <trkpt lat="49.95038" lon="2.18231">
        <ele>55.6</ele>
        <time>2022-03-02T15:12:55Z</time>
      </trkpt>
      <trkpt lat="49.95037" lon="2.18229">
        <ele>55.6</ele>
        <time>2022-03-02T15:12:56Z</time>
      </trkpt>
      <trkpt lat="49.95036" lon="2.18228">
        <ele>55.6</ele>
        <time>2022-03-02T15:12:57Z</time>
      </trkpt>
      <trkpt lat="49.95036" lon="2.18227">
        <ele>55.6</ele>
        <time>2022-03-02T15:12:58Z</time>
      </trkpt>
      <trkpt lat="49.95035" lon="2.18224">
        <ele>55.6</ele>
        <time>2022-03-02T15:12:59Z</time>
      </trkpt>
      <trkpt lat="49.95034" lon="2.18223">
        <ele>55.6</ele>
        <time>2022-03-02T15:13:01Z</time>
      </trkpt>
      <trkpt lat="49.95034" lon="2.18222">
        <ele>55.7</ele>
        <time>2022-03-02T15:13:02Z</time>
      </trkpt>
      <trkpt lat="49.95033" lon="2.1822">
        <ele>55.7</ele>
        <time>2022-03-02T15:13:03Z</time>
      </trkpt>
      <trkpt lat="49.95032" lon="2.18218">
        <ele>55.7</ele>
        <time>2022-03-02T15:13:04Z</time>
      </trkpt>
      <trkpt lat="49.95032" lon="2.18215">
        <ele>55.7</ele>
        <time>2022-03-02T15:13:05Z</time>
      </trkpt>
      <trkpt lat="49.95032" lon="2.18214">
        <ele>55.7</ele>
        <time>2022-03-02T15:13:06Z</time>
      </trkpt>
      <trkpt lat="49.95031" lon="2.18213">
        <ele>55.7</ele>
        <time>2022-03-02T15:13:08Z</time>
      </trkpt>
      <trkpt lat="49.95031" lon="2.18212">
        <ele>55.7</ele>
        <time>2022-03-02T15:13:09Z</time>
      </trkpt>
      <trkpt lat="49.95031" lon="2.1821">
        <ele>55.7</ele>
        <time>2022-03-02T15:13:10Z</time>
      </trkpt>
      <trkpt lat="49.95031" lon="2.18207">
        <ele>55.7</ele>
        <time>2022-03-02T15:13:11Z</time>
      </trkpt>
      <trkpt lat="49.95031" lon="2.18205">
        <ele>55.7</ele>
        <time>2022-03-02T15:13:13Z</time>
      </trkpt>
      <trkpt lat="49.95031" lon="2.18203">
        <ele>55.7</ele>
        <time>2022-03-02T15:13:14Z</time>
      </trkpt>
      <trkpt lat="49.95032" lon="2.18202">
        <ele>55.8</ele>
        <time>2022-03-02T15:13:15Z</time>
      </trkpt>
      <trkpt lat="49.95032" lon="2.18201">
        <ele>55.8</ele>
        <time>2022-03-02T15:13:16Z</time>
      </trkpt>
      <trkpt lat="49.95032" lon="2.18198">
        <ele>55.8</ele>
        <time>2022-03-02T15:13:17Z</time>
      </trkpt>
      <trkpt lat="49.95032" lon="2.18196">
        <ele>55.8</ele>
        <time>2022-03-02T15:13:19Z</time>
      </trkpt>
      <trkpt lat="49.95031" lon="2.18194">
        <ele>55.8</ele>
        <time>2022-03-02T15:13:20Z</time>
      </trkpt>
      <trkpt lat="49.95031" lon="2.18192">
        <ele>55.8</ele>
        <time>2022-03-02T15:13:21Z</time>
      </trkpt>
      <trkpt lat="49.95031" lon="2.1819">
        <ele>55.8</ele>
        <time>2022-03-02T15:13:22Z</time>
      </trkpt>
      <trkpt lat="49.95031" lon="2.18189">
        <ele>55.7</ele>
        <time>2022-03-02T15:13:23Z</time>
      </trkpt>
      <trkpt lat="49.95031" lon="2.18188">
        <ele>55.7</ele>
        <time>2022-03-02T15:13:24Z</time>
      </trkpt>
      <trkpt lat="49.95031" lon="2.18186">
        <ele>55.7</ele>
        <time>2022-03-02T15:13:25Z</time>
      </trkpt>
      <trkpt lat="49.95031" lon="2.18184">
        <ele>55.7</ele>
        <time>2022-03-02T15:13:27Z</time>
      </trkpt>
      <trkpt lat="49.95032" lon="2.18183">
        <ele>55.7</ele>
        <time>2022-03-02T15:13:28Z</time>
      </trkpt>
      <trkpt lat="49.95032" lon="2.18181">
        <ele>55.7</ele>
        <time>2022-03-02T15:13:29Z</time>
      </trkpt>
      <trkpt lat="49.95031" lon="2.18179">
        <ele>55.7</ele>
        <time>2022-03-02T15:13:30Z</time>
      </trkpt>
      <trkpt lat="49.95031" lon="2.18177">
        <ele>55.7</ele>
        <time>2022-03-02T15:13:31Z</time>
      </trkpt>
      <trkpt lat="49.95031" lon="2.18176">
        <ele>55.7</ele>
        <time>2022-03-02T15:13:32Z</time>
      </trkpt>
      <trkpt lat="49.95031" lon="2.18174">
        <ele>55.7</ele>
        <time>2022-03-02T15:13:33Z</time>
      </trkpt>
      <trkpt lat="49.9503" lon="2.18173">
        <ele>55.7</ele>
        <time>2022-03-02T15:13:34Z</time>
      </trkpt>
      <trkpt lat="49.9503" lon="2.18172">
        <ele>55.7</ele>
        <time>2022-03-02T15:13:35Z</time>
      </trkpt>
      <trkpt lat="49.9503" lon="2.1817">
        <ele>55.7</ele>
        <time>2022-03-02T15:13:37Z</time>
      </trkpt>
      <trkpt lat="49.9503" lon="2.18169">
        <ele>55.7</ele>
        <time>2022-03-02T15:13:38Z</time>
      </trkpt>
      <trkpt lat="49.9503" lon="2.18167">
        <ele>55.7</ele>
        <time>2022-03-02T15:13:39Z</time>
      </trkpt>
      <trkpt lat="49.9503" lon="2.18165">
        <ele>55.7</ele>
        <time>2022-03-02T15:13:40Z</time>
      </trkpt>
      <trkpt lat="49.9503" lon="2.18162">
        <ele>55.7</ele>
        <time>2022-03-02T15:13:42Z</time>
      </trkpt>
      <trkpt lat="49.9503" lon="2.1816">
        <ele>55.7</ele>
        <time>2022-03-02T15:13:43Z</time>
      </trkpt>
      <trkpt lat="49.9503" lon="2.18159">
        <ele>55.7</ele>
        <time>2022-03-02T15:13:44Z</time>
      </trkpt>
      <trkpt lat="49.9503" lon="2.18157">
        <ele>55.7</ele>
        <time>2022-03-02T15:13:45Z</time>
      </trkpt>
      <trkpt lat="49.9503" lon="2.18155">
        <ele>55.7</ele>
        <time>2022-03-02T15:13:46Z</time>
      </trkpt>
      <trkpt lat="49.9503" lon="2.18152">
        <ele>55.7</ele>
        <time>2022-03-02T15:13:48Z</time>
      </trkpt>
      <trkpt lat="49.95031" lon="2.18153">
        <ele>55.7</ele>
        <time>2022-03-02T15:13:49Z</time>
      </trkpt>
      <trkpt lat="49.95032" lon="2.18154">
        <ele>55.7</ele>
        <time>2022-03-02T15:13:50Z</time>
      </trkpt>
      <trkpt lat="49.95032" lon="2.18156">
        <ele>55.7</ele>
        <time>2022-03-02T15:13:51Z</time>
      </trkpt>
      <trkpt lat="49.95032" lon="2.18159">
        <ele>55.7</ele>
        <time>2022-03-02T15:13:52Z</time>
      </trkpt>
      <trkpt lat="49.95032" lon="2.18161">
        <ele>55.7</ele>
        <time>2022-03-02T15:13:53Z</time>
      </trkpt>
      <trkpt lat="49.95032" lon="2.18162">
        <ele>55.7</ele>
        <time>2022-03-02T15:13:55Z</time>
      </trkpt>
      <trkpt lat="49.95032" lon="2.18164">
        <ele>55.7</ele>
        <time>2022-03-02T15:13:56Z</time>
      </trkpt>
      <trkpt lat="49.95032" lon="2.18166">
        <ele>55.7</ele>
        <time>2022-03-02T15:13:57Z</time>
      </trkpt>
      <trkpt lat="49.95032" lon="2.18167">
        <ele>55.7</ele>
        <time>2022-03-02T15:13:58Z</time>
      </trkpt>
      <trkpt lat="49.95032" lon="2.18171">
        <ele>55.7</ele>
        <time>2022-03-02T15:13:59Z</time>
      </trkpt>
      <trkpt lat="49.95032" lon="2.18172">
        <ele>55.7</ele>
        <time>2022-03-02T15:14:00Z</time>
      </trkpt>
      <trkpt lat="49.95033" lon="2.18174">
        <ele>55.7</ele>
        <time>2022-03-02T15:14:01Z</time>
      </trkpt>
      <trkpt lat="49.95033" lon="2.18178">
        <ele>55.7</ele>
        <time>2022-03-02T15:14:02Z</time>
      </trkpt>
      <trkpt lat="49.95033" lon="2.1818">
        <ele>55.7</ele>
        <time>2022-03-02T15:14:03Z</time>
      </trkpt>
      <trkpt lat="49.95033" lon="2.18184">
        <ele>55.7</ele>
        <time>2022-03-02T15:14:05Z</time>
      </trkpt>
      <trkpt lat="49.95033" lon="2.18185">
        <ele>55.7</ele>
        <time>2022-03-02T15:14:06Z</time>
      </trkpt>
      <trkpt lat="49.95033" lon="2.18188">
        <ele>55.7</ele>
        <time>2022-03-02T15:14:07Z</time>
      </trkpt>
      <trkpt lat="49.95034" lon="2.18191">
        <ele>55.7</ele>
        <time>2022-03-02T15:14:08Z</time>
      </trkpt>
      <trkpt lat="49.95036" lon="2.18195">
        <ele>55.6</ele>
        <time>2022-03-02T15:14:09Z</time>
      </trkpt>
      <trkpt lat="49.95037" lon="2.18196">
        <ele>55.6</ele>
        <time>2022-03-02T15:14:10Z</time>
      </trkpt>
      <trkpt lat="49.95039" lon="2.18198">
        <ele>55.6</ele>
        <time>2022-03-02T15:14:11Z</time>
      </trkpt>
      <trkpt lat="49.95041" lon="2.18199">
        <ele>55.6</ele>
        <time>2022-03-02T15:14:13Z</time>
      </trkpt>
      <trkpt lat="49.95042" lon="2.182">
        <ele>55.6</ele>
        <time>2022-03-02T15:14:14Z</time>
      </trkpt>
      <trkpt lat="49.95044" lon="2.182">
        <ele>55.6</ele>
        <time>2022-03-02T15:14:15Z</time>
      </trkpt>
      <trkpt lat="49.95045" lon="2.18201">
        <ele>55.6</ele>
        <time>2022-03-02T15:14:16Z</time>
      </trkpt>
      <trkpt lat="49.95046" lon="2.182">
        <ele>55.6</ele>
        <time>2022-03-02T15:14:17Z</time>
      </trkpt>
      <trkpt lat="49.95047" lon="2.182">
        <ele>55.6</ele>
        <time>2022-03-02T15:14:18Z</time>
      </trkpt>
      <trkpt lat="49.95048" lon="2.182">
        <ele>55.6</ele>
        <time>2022-03-02T15:14:19Z</time>
      </trkpt>
      <trkpt lat="49.95049" lon="2.18197">
        <ele>55.6</ele>
        <time>2022-03-02T15:14:21Z</time>
      </trkpt>
      <trkpt lat="49.95049" lon="2.18196">
        <ele>55.6</ele>
        <time>2022-03-02T15:14:22Z</time>
      </trkpt>
      <trkpt lat="49.95048" lon="2.18194">
        <ele>55.6</ele>
        <time>2022-03-02T15:14:23Z</time>
      </trkpt>
      <trkpt lat="49.95049" lon="2.18193">
        <ele>55.6</ele>
        <time>2022-03-02T15:14:24Z</time>
      </trkpt>
      <trkpt lat="49.95049" lon="2.18192">
        <ele>55.6</ele>
        <time>2022-03-02T15:14:25Z</time>
      </trkpt>
      <trkpt lat="49.95049" lon="2.18192">
        <ele>55.6</ele>
        <time>2022-03-02T15:14:26Z</time>
      </trkpt>
      <trkpt lat="49.95049" lon="2.18193">
        <ele>55.6</ele>
        <time>2022-03-02T15:14:27Z</time>
      </trkpt>
      <trkpt lat="49.95049" lon="2.18195">
        <ele>55.6</ele>
        <time>2022-03-02T15:14:29Z</time>
      </trkpt>
      <trkpt lat="49.95049" lon="2.18196">
        <ele>55.6</ele>
        <time>2022-03-02T15:14:30Z</time>
      </trkpt>
      <trkpt lat="49.95048" lon="2.18196">
        <ele>55.6</ele>
        <time>2022-03-02T15:14:31Z</time>
      </trkpt>
      <trkpt lat="49.95047" lon="2.18197">
        <ele>55.6</ele>
        <time>2022-03-02T15:14:32Z</time>
      </trkpt>
      <trkpt lat="49.95047" lon="2.18197">
        <ele>55.6</ele>
        <time>2022-03-02T15:14:33Z</time>
      </trkpt>
      <trkpt lat="49.95047" lon="2.18198">
        <ele>55.6</ele>
        <time>2022-03-02T15:14:34Z</time>
      </trkpt>
      <trkpt lat="49.95046" lon="2.18198">
        <ele>55.6</ele>
        <time>2022-03-02T15:14:35Z</time>
      </trkpt>
      <trkpt lat="49.95046" lon="2.18198">
        <ele>55.6</ele>
        <time>2022-03-02T15:14:36Z</time>
      </trkpt>
      <trkpt lat="49.95045" lon="2.18199">
        <ele>55.6</ele>
        <time>2022-03-02T15:14:37Z</time>
      </trkpt>
      <trkpt lat="49.95045" lon="2.18199">
        <ele>55.6</ele>
        <time>2022-03-02T15:14:38Z</time>
      </trkpt>
      <trkpt lat="49.95045" lon="2.18199">
        <ele>55.6</ele>
        <time>2022-03-02T15:14:39Z</time>
      </trkpt>
      <trkpt lat="49.95045" lon="2.18199">
        <ele>55.6</ele>
        <time>2022-03-02T15:14:40Z</time>
      </trkpt>
      <trkpt lat="49.95045" lon="2.18199">
        <ele>55.6</ele>
        <time>2022-03-02T15:14:41Z</time>
      </trkpt>
      <trkpt lat="49.95044" lon="2.18199">
        <ele>55.6</ele>
        <time>2022-03-02T15:14:42Z</time>
      </trkpt>
      <trkpt lat="49.95044" lon="2.18198">
        <ele>55.6</ele>
        <time>2022-03-02T15:14:43Z</time>
      </trkpt>
      <trkpt lat="49.95044" lon="2.18198">
        <ele>55.6</ele>
        <time>2022-03-02T15:14:44Z</time>
      </trkpt>
      <trkpt lat="49.95044" lon="2.18198">
        <ele>55.6</ele>
        <time>2022-03-02T15:14:45Z</time>
      </trkpt>
      <trkpt lat="49.95044" lon="2.18198">
        <ele>55.6</ele>
        <time>2022-03-02T15:14:46Z</time>
      </trkpt>
      <trkpt lat="49.95044" lon="2.18197">
        <ele>55.6</ele>
        <time>2022-03-02T15:14:47Z</time>
      </trkpt>
      <trkpt lat="49.95044" lon="2.18197">
        <ele>55.6</ele>
        <time>2022-03-02T15:14:48Z</time>
      </trkpt>
      <trkpt lat="49.95044" lon="2.18197">
        <ele>55.6</ele>
        <time>2022-03-02T15:14:49Z</time>
      </trkpt>
      <trkpt lat="49.95044" lon="2.18197">
        <ele>55.6</ele>
        <time>2022-03-02T15:14:50Z</time>
      </trkpt>
      <trkpt lat="49.95044" lon="2.18196">
        <ele>55.6</ele>
        <time>2022-03-02T15:14:51Z</time>
      </trkpt>
      <trkpt lat="49.95044" lon="2.18196">
        <ele>55.6</ele>
        <time>2022-03-02T15:14:52Z</time>
      </trkpt>
      <trkpt lat="49.95044" lon="2.18196">
        <ele>55.6</ele>
        <time>2022-03-02T15:14:53Z</time>
      </trkpt>
      <trkpt lat="49.95044" lon="2.18196">
        <ele>55.6</ele>
        <time>2022-03-02T15:14:54Z</time>
      </trkpt>
      <trkpt lat="49.95044" lon="2.18196">
        <ele>55.6</ele>
        <time>2022-03-02T15:14:55Z</time>
      </trkpt>
      <trkpt lat="49.95044" lon="2.18196">
        <ele>55.6</ele>
        <time>2022-03-02T15:14:56Z</time>
      </trkpt>
      <trkpt lat="49.95044" lon="2.18196">
        <ele>55.6</ele>
        <time>2022-03-02T15:14:57Z</time>
      </trkpt>
      <trkpt lat="49.95044" lon="2.18196">
        <ele>55.6</ele>
        <time>2022-03-02T15:14:58Z</time>
      </trkpt>
      <trkpt lat="49.95044" lon="2.18196">
        <ele>55.6</ele>
        <time>2022-03-02T15:14:59Z</time>
      </trkpt>
      <trkpt lat="49.95044" lon="2.18196">
        <ele>55.6</ele>
        <time>2022-03-02T15:15:00Z</time>
      </trkpt>
      <trkpt lat="49.95044" lon="2.18196">
        <ele>55.6</ele>
        <time>2022-03-02T15:15:01Z</time>
      </trkpt>
      <trkpt lat="49.95044" lon="2.18196">
        <ele>55.6</ele>
        <time>2022-03-02T15:15:02Z</time>
      </trkpt>
      <trkpt lat="49.95044" lon="2.18196">
        <ele>55.6</ele>
        <time>2022-03-02T15:15:03Z</time>
      </trkpt>
      <trkpt lat="49.95044" lon="2.18196">
        <ele>55.6</ele>
        <time>2022-03-02T15:15:04Z</time>
      </trkpt>
      <trkpt lat="49.95044" lon="2.18196">
        <ele>55.6</ele>
        <time>2022-03-02T15:15:05Z</time>
      </trkpt>
      <trkpt lat="49.95044" lon="2.18196">
        <ele>55.6</ele>
        <time>2022-03-02T15:15:06Z</time>
      </trkpt>
      <trkpt lat="49.95044" lon="2.18196">
        <ele>55.6</ele>
        <time>2022-03-02T15:15:07Z</time>
      </trkpt>
      <trkpt lat="49.95044" lon="2.18196">
        <ele>55.6</ele>
        <time>2022-03-02T15:15:08Z</time>
      </trkpt>
      <trkpt lat="49.95044" lon="2.18196">
        <ele>55.6</ele>
        <time>2022-03-02T15:15:09Z</time>
      </trkpt>
      <trkpt lat="49.95044" lon="2.18196">
        <ele>55.6</ele>
        <time>2022-03-02T15:15:10Z</time>
      </trkpt>
      <trkpt lat="49.95044" lon="2.18196">
        <ele>55.6</ele>
        <time>2022-03-02T15:15:11Z</time>
      </trkpt>
      <trkpt lat="49.95044" lon="2.18196">
        <ele>55.6</ele>
        <time>2022-03-02T15:15:12Z</time>
      </trkpt>
      <trkpt lat="49.95044" lon="2.18196">
        <ele>55.6</ele>
        <time>2022-03-02T15:15:13Z</time>
      </trkpt>
      <trkpt lat="49.95044" lon="2.18196">
        <ele>55.6</ele>
        <time>2022-03-02T15:15:14Z</time>
      </trkpt>
      <trkpt lat="49.95043" lon="2.18196">
        <ele>55.6</ele>
        <time>2022-03-02T15:15:15Z</time>
      </trkpt>
      <trkpt lat="49.95043" lon="2.18196">
        <ele>55.6</ele>
        <time>2022-03-02T15:15:16Z</time>
      </trkpt>
      <trkpt lat="49.95043" lon="2.18197">
        <ele>55.6</ele>
        <time>2022-03-02T15:15:17Z</time>
      </trkpt>
      <trkpt lat="49.95043" lon="2.18197">
        <ele>55.6</ele>
        <time>2022-03-02T15:15:18Z</time>
      </trkpt>
      <trkpt lat="49.95043" lon="2.18197">
        <ele>55.6</ele>
        <time>2022-03-02T15:15:19Z</time>
      </trkpt>
      <trkpt lat="49.95043" lon="2.18197">
        <ele>55.6</ele>
        <time>2022-03-02T15:15:20Z</time>
      </trkpt>
      <trkpt lat="49.95044" lon="2.18196">
        <ele>55.6</ele>
        <time>2022-03-02T15:15:22Z</time>
      </trkpt>
      <trkpt lat="49.95044" lon="2.18196">
        <ele>55.6</ele>
        <time>2022-03-02T15:15:23Z</time>
      </trkpt>
      <trkpt lat="49.95044" lon="2.18196">
        <ele>55.6</ele>
        <time>2022-03-02T15:15:24Z</time>
      </trkpt>
      <trkpt lat="49.95044" lon="2.18197">
        <ele>55.6</ele>
        <time>2022-03-02T15:15:25Z</time>
      </trkpt>
      <trkpt lat="49.95044" lon="2.18197">
        <ele>55.6</ele>
        <time>2022-03-02T15:15:26Z</time>
      </trkpt>
      <trkpt lat="49.95044" lon="2.18197">
        <ele>55.6</ele>
        <time>2022-03-02T15:15:27Z</time>
      </trkpt>
      <trkpt lat="49.95044" lon="2.18197">
        <ele>55.6</ele>
        <time>2022-03-02T15:15:28Z</time>
      </trkpt>
      <trkpt lat="49.95044" lon="2.18197">
        <ele>55.6</ele>
        <time>2022-03-02T15:15:29Z</time>
      </trkpt>
      <trkpt lat="49.95044" lon="2.18197">
        <ele>55.6</ele>
        <time>2022-03-02T15:15:30Z</time>
      </trkpt>
      <trkpt lat="49.95044" lon="2.18197">
        <ele>55.6</ele>
        <time>2022-03-02T15:15:31Z</time>
      </trkpt>
      <trkpt lat="49.95044" lon="2.18197">
        <ele>55.6</ele>
        <time>2022-03-02T15:15:32Z</time>
      </trkpt>
      <trkpt lat="49.95044" lon="2.18198">
        <ele>55.6</ele>
        <time>2022-03-02T15:15:33Z</time>
      </trkpt>
      <trkpt lat="49.95044" lon="2.18198">
        <ele>55.6</ele>
        <time>2022-03-02T15:15:34Z</time>
      </trkpt>
      <trkpt lat="49.95044" lon="2.18197">
        <ele>55.6</ele>
        <time>2022-03-02T15:15:35Z</time>
      </trkpt>
      <trkpt lat="49.95044" lon="2.18197">
        <ele>55.6</ele>
        <time>2022-03-02T15:15:37Z</time>
      </trkpt>
      <trkpt lat="49.95044" lon="2.18196">
        <ele>55.6</ele>
        <time>2022-03-02T15:15:38Z</time>
      </trkpt>
      <trkpt lat="49.95045" lon="2.18197">
        <ele>55.6</ele>
        <time>2022-03-02T15:15:39Z</time>
      </trkpt>
      <trkpt lat="49.95044" lon="2.18198">
        <ele>55.6</ele>
        <time>2022-03-02T15:15:40Z</time>
      </trkpt>
      <trkpt lat="49.95045" lon="2.18199">
        <ele>55.6</ele>
        <time>2022-03-02T15:15:41Z</time>
      </trkpt>
      <trkpt lat="49.95045" lon="2.18201">
        <ele>55.6</ele>
        <time>2022-03-02T15:15:43Z</time>
      </trkpt>
      <trkpt lat="49.95047" lon="2.18199">
        <ele>55.6</ele>
        <time>2022-03-02T15:15:44Z</time>
      </trkpt>
      <trkpt lat="49.95047" lon="2.18199">
        <ele>55.6</ele>
        <time>2022-03-02T15:15:45Z</time>
      </trkpt>
      <trkpt lat="49.95047" lon="2.18199">
        <ele>55.6</ele>
        <time>2022-03-02T15:15:46Z</time>
      </trkpt>
      <trkpt lat="49.95045" lon="2.182">
        <ele>55.6</ele>
        <time>2022-03-02T15:15:47Z</time>
      </trkpt>
      <trkpt lat="49.95044" lon="2.18201">
        <ele>55.6</ele>
        <time>2022-03-02T15:15:48Z</time>
      </trkpt>
      <trkpt lat="49.95045" lon="2.18202">
        <ele>55.6</ele>
        <time>2022-03-02T15:15:50Z</time>
      </trkpt>
      <trkpt lat="49.95046" lon="2.18202">
        <ele>55.6</ele>
        <time>2022-03-02T15:15:51Z</time>
      </trkpt>
      <trkpt lat="49.95046" lon="2.18201">
        <ele>55.6</ele>
        <time>2022-03-02T15:15:53Z</time>
      </trkpt>
      <trkpt lat="49.95046" lon="2.18201">
        <ele>55.6</ele>
        <time>2022-03-02T15:15:54Z</time>
      </trkpt>
      <trkpt lat="49.95045" lon="2.182">
        <ele>55.6</ele>
        <time>2022-03-02T15:15:55Z</time>
      </trkpt>
      <trkpt lat="49.95044" lon="2.182">
        <ele>55.6</ele>
        <time>2022-03-02T15:15:56Z</time>
      </trkpt>
      <trkpt lat="49.95044" lon="2.18199">
        <ele>55.6</ele>
        <time>2022-03-02T15:15:57Z</time>
      </trkpt>
      <trkpt lat="49.95043" lon="2.18198">
        <ele>55.6</ele>
        <time>2022-03-02T15:15:58Z</time>
      </trkpt>
      <trkpt lat="49.95043" lon="2.18198">
        <ele>55.6</ele>
        <time>2022-03-02T15:15:59Z</time>
      </trkpt>
      <trkpt lat="49.95043" lon="2.18198">
        <ele>55.6</ele>
        <time>2022-03-02T15:16:00Z</time>
      </trkpt>
      <trkpt lat="49.95043" lon="2.18198">
        <ele>55.6</ele>
        <time>2022-03-02T15:16:01Z</time>
      </trkpt>
      <trkpt lat="49.95043" lon="2.18197">
        <ele>55.6</ele>
        <time>2022-03-02T15:16:02Z</time>
      </trkpt>
      <trkpt lat="49.95043" lon="2.18197">
        <ele>55.6</ele>
        <time>2022-03-02T15:16:03Z</time>
      </trkpt>
      <trkpt lat="49.95043" lon="2.18197">
        <ele>55.6</ele>
        <time>2022-03-02T15:16:04Z</time>
      </trkpt>
      <trkpt lat="49.95043" lon="2.18197">
        <ele>55.6</ele>
        <time>2022-03-02T15:16:05Z</time>
      </trkpt>
      <trkpt lat="49.95043" lon="2.18197">
        <ele>55.6</ele>
        <time>2022-03-02T15:16:06Z</time>
      </trkpt>
      <trkpt lat="49.95043" lon="2.18197">
        <ele>55.6</ele>
        <time>2022-03-02T15:16:07Z</time>
      </trkpt>
      <trkpt lat="49.95043" lon="2.18197">
        <ele>55.6</ele>
        <time>2022-03-02T15:16:08Z</time>
      </trkpt>
      <trkpt lat="49.95043" lon="2.18196">
        <ele>55.5</ele>
        <time>2022-03-02T15:16:09Z</time>
      </trkpt>
      <trkpt lat="49.95042" lon="2.18195">
        <ele>55.5</ele>
        <time>2022-03-02T15:16:10Z</time>
      </trkpt>
      <trkpt lat="49.95041" lon="2.18195">
        <ele>55.5</ele>
        <time>2022-03-02T15:16:11Z</time>
      </trkpt>
      <trkpt lat="49.95041" lon="2.18195">
        <ele>55.5</ele>
        <time>2022-03-02T15:16:12Z</time>
      </trkpt>
      <trkpt lat="49.95041" lon="2.18194">
        <ele>55.5</ele>
        <time>2022-03-02T15:16:13Z</time>
      </trkpt>
      <trkpt lat="49.9504" lon="2.18194">
        <ele>55.5</ele>
        <time>2022-03-02T15:16:14Z</time>
      </trkpt>
      <trkpt lat="49.9504" lon="2.18192">
        <ele>55.5</ele>
        <time>2022-03-02T15:16:15Z</time>
      </trkpt>
      <trkpt lat="49.95039" lon="2.18191">
        <ele>55.5</ele>
        <time>2022-03-02T15:16:16Z</time>
      </trkpt>
      <trkpt lat="49.95039" lon="2.18191">
        <ele>55.5</ele>
        <time>2022-03-02T15:16:17Z</time>
      </trkpt>
      <trkpt lat="49.95039" lon="2.1819">
        <ele>55.5</ele>
        <time>2022-03-02T15:16:18Z</time>
      </trkpt>
      <trkpt lat="49.95038" lon="2.1819">
        <ele>55.5</ele>
        <time>2022-03-02T15:16:19Z</time>
      </trkpt>
      <trkpt lat="49.95038" lon="2.18189">
        <ele>55.5</ele>
        <time>2022-03-02T15:16:20Z</time>
      </trkpt>
      <trkpt lat="49.95038" lon="2.18187">
        <ele>55.5</ele>
        <time>2022-03-02T15:16:21Z</time>
      </trkpt>
      <trkpt lat="49.95037" lon="2.18185">
        <ele>55.5</ele>
        <time>2022-03-02T15:16:22Z</time>
      </trkpt>
      <trkpt lat="49.95037" lon="2.18184">
        <ele>55.5</ele>
        <time>2022-03-02T15:16:23Z</time>
      </trkpt>
      <trkpt lat="49.95038" lon="2.18183">
        <ele>55.5</ele>
        <time>2022-03-02T15:16:24Z</time>
      </trkpt>
      <trkpt lat="49.95039" lon="2.18182">
        <ele>55.5</ele>
        <time>2022-03-02T15:16:25Z</time>
      </trkpt>
      <trkpt lat="49.95039" lon="2.1818">
        <ele>55.5</ele>
        <time>2022-03-02T15:16:26Z</time>
      </trkpt>
      <trkpt lat="49.95039" lon="2.18178">
        <ele>55.5</ele>
        <time>2022-03-02T15:16:27Z</time>
      </trkpt>
      <trkpt lat="49.95039" lon="2.18176">
        <ele>55.4</ele>
        <time>2022-03-02T15:16:28Z</time>
      </trkpt>
      <trkpt lat="49.95038" lon="2.18174">
        <ele>55.4</ele>
        <time>2022-03-02T15:16:29Z</time>
      </trkpt>
      <trkpt lat="49.95038" lon="2.18172">
        <ele>55.4</ele>
        <time>2022-03-02T15:16:30Z</time>
      </trkpt>
      <trkpt lat="49.95038" lon="2.18169">
        <ele>55.3</ele>
        <time>2022-03-02T15:16:32Z</time>
      </trkpt>
      <trkpt lat="49.95037" lon="2.18168">
        <ele>55.3</ele>
        <time>2022-03-02T15:16:33Z</time>
      </trkpt>
      <trkpt lat="49.95038" lon="2.18167">
        <ele>55.3</ele>
        <time>2022-03-02T15:16:34Z</time>
      </trkpt>
      <trkpt lat="49.95038" lon="2.18165">
        <ele>55.3</ele>
        <time>2022-03-02T15:16:35Z</time>
      </trkpt>
      <trkpt lat="49.95038" lon="2.18164">
        <ele>55.3</ele>
        <time>2022-03-02T15:16:36Z</time>
      </trkpt>
      <trkpt lat="49.95038" lon="2.1816">
        <ele>55.3</ele>
        <time>2022-03-02T15:16:37Z</time>
      </trkpt>
      <trkpt lat="49.95038" lon="2.18156">
        <ele>55.2</ele>
        <time>2022-03-02T15:16:38Z</time>
      </trkpt>
      <trkpt lat="49.95037" lon="2.18154">
        <ele>55.2</ele>
        <time>2022-03-02T15:16:39Z</time>
      </trkpt>
      <trkpt lat="49.95036" lon="2.18148">
        <ele>55.2</ele>
        <time>2022-03-02T15:16:41Z</time>
      </trkpt>
      <trkpt lat="49.95036" lon="2.18147">
        <ele>55.2</ele>
        <time>2022-03-02T15:16:42Z</time>
      </trkpt>
      <trkpt lat="49.95036" lon="2.18145">
        <ele>55.1</ele>
        <time>2022-03-02T15:16:43Z</time>
      </trkpt>
      <trkpt lat="49.95036" lon="2.18142">
        <ele>55.1</ele>
        <time>2022-03-02T15:16:44Z</time>
      </trkpt>
      <trkpt lat="49.95035" lon="2.18139">
        <ele>55.1</ele>
        <time>2022-03-02T15:16:45Z</time>
      </trkpt>
      <trkpt lat="49.95034" lon="2.18136">
        <ele>55.1</ele>
        <time>2022-03-02T15:16:47Z</time>
      </trkpt>
      <trkpt lat="49.95034" lon="2.18134">
        <ele>55</ele>
        <time>2022-03-02T15:16:48Z</time>
      </trkpt>
      <trkpt lat="49.95033" lon="2.18131">
        <ele>55</ele>
        <time>2022-03-02T15:16:49Z</time>
      </trkpt>
      <trkpt lat="49.95033" lon="2.18129">
        <ele>55</ele>
        <time>2022-03-02T15:16:50Z</time>
      </trkpt>
      <trkpt lat="49.95033" lon="2.18127">
        <ele>54.9</ele>
        <time>2022-03-02T15:16:51Z</time>
      </trkpt>
      <trkpt lat="49.95033" lon="2.18124">
        <ele>54.9</ele>
        <time>2022-03-02T15:16:52Z</time>
      </trkpt>
      <trkpt lat="49.95034" lon="2.18122">
        <ele>54.9</ele>
        <time>2022-03-02T15:16:53Z</time>
      </trkpt>
      <trkpt lat="49.95034" lon="2.18121">
        <ele>54.9</ele>
        <time>2022-03-02T15:16:54Z</time>
      </trkpt>
      <trkpt lat="49.95034" lon="2.18118">
        <ele>54.8</ele>
        <time>2022-03-02T15:16:55Z</time>
      </trkpt>
      <trkpt lat="49.95034" lon="2.18117">
        <ele>54.8</ele>
        <time>2022-03-02T15:16:56Z</time>
      </trkpt>
      <trkpt lat="49.95035" lon="2.18115">
        <ele>54.8</ele>
        <time>2022-03-02T15:16:57Z</time>
      </trkpt>
      <trkpt lat="49.95035" lon="2.18112">
        <ele>54.7</ele>
        <time>2022-03-02T15:16:58Z</time>
      </trkpt>
      <trkpt lat="49.95035" lon="2.18111">
        <ele>54.7</ele>
        <time>2022-03-02T15:16:59Z</time>
      </trkpt>
      <trkpt lat="49.95036" lon="2.18109">
        <ele>54.7</ele>
        <time>2022-03-02T15:17:00Z</time>
      </trkpt>
      <trkpt lat="49.95036" lon="2.18106">
        <ele>54.7</ele>
        <time>2022-03-02T15:17:01Z</time>
      </trkpt>
      <trkpt lat="49.95036" lon="2.18105">
        <ele>54.7</ele>
        <time>2022-03-02T15:17:02Z</time>
      </trkpt>
      <trkpt lat="49.95036" lon="2.18104">
        <ele>54.6</ele>
        <time>2022-03-02T15:17:03Z</time>
      </trkpt>
      <trkpt lat="49.95036" lon="2.18101">
        <ele>54.6</ele>
        <time>2022-03-02T15:17:05Z</time>
      </trkpt>
      <trkpt lat="49.95036" lon="2.18099">
        <ele>54.6</ele>
        <time>2022-03-02T15:17:06Z</time>
      </trkpt>
      <trkpt lat="49.95036" lon="2.18097">
        <ele>54.6</ele>
        <time>2022-03-02T15:17:07Z</time>
      </trkpt>
      <trkpt lat="49.95036" lon="2.18095">
        <ele>54.5</ele>
        <time>2022-03-02T15:17:08Z</time>
      </trkpt>
      <trkpt lat="49.95035" lon="2.18093">
        <ele>54.5</ele>
        <time>2022-03-02T15:17:09Z</time>
      </trkpt>
      <trkpt lat="49.95035" lon="2.1809">
        <ele>54.5</ele>
        <time>2022-03-02T15:17:10Z</time>
      </trkpt>
      <trkpt lat="49.95035" lon="2.18088">
        <ele>54.5</ele>
        <time>2022-03-02T15:17:11Z</time>
      </trkpt>
      <trkpt lat="49.95035" lon="2.18086">
        <ele>54.4</ele>
        <time>2022-03-02T15:17:12Z</time>
      </trkpt>
      <trkpt lat="49.95035" lon="2.18084">
        <ele>54.4</ele>
        <time>2022-03-02T15:17:14Z</time>
      </trkpt>
      <trkpt lat="49.95035" lon="2.18082">
        <ele>54.4</ele>
        <time>2022-03-02T15:17:15Z</time>
      </trkpt>
      <trkpt lat="49.95035" lon="2.1808">
        <ele>54.4</ele>
        <time>2022-03-02T15:17:16Z</time>
      </trkpt>
      <trkpt lat="49.95035" lon="2.18077">
        <ele>54.4</ele>
        <time>2022-03-02T15:17:17Z</time>
      </trkpt>
      <trkpt lat="49.95035" lon="2.18075">
        <ele>54.3</ele>
        <time>2022-03-02T15:17:18Z</time>
      </trkpt>
      <trkpt lat="49.95035" lon="2.18072">
        <ele>54.3</ele>
        <time>2022-03-02T15:17:20Z</time>
      </trkpt>
      <trkpt lat="49.95035" lon="2.1807">
        <ele>54.3</ele>
        <time>2022-03-02T15:17:21Z</time>
      </trkpt>
      <trkpt lat="49.95035" lon="2.18066">
        <ele>54.3</ele>
        <time>2022-03-02T15:17:22Z</time>
      </trkpt>
      <trkpt lat="49.95035" lon="2.18065">
        <ele>54.3</ele>
        <time>2022-03-02T15:17:23Z</time>
      </trkpt>
      <trkpt lat="49.95035" lon="2.18063">
        <ele>54.2</ele>
        <time>2022-03-02T15:17:24Z</time>
      </trkpt>
      <trkpt lat="49.95035" lon="2.1806">
        <ele>54.2</ele>
        <time>2022-03-02T15:17:25Z</time>
      </trkpt>
      <trkpt lat="49.95035" lon="2.18059">
        <ele>54.2</ele>
        <time>2022-03-02T15:17:26Z</time>
      </trkpt>
      <trkpt lat="49.95036" lon="2.18057">
        <ele>54.2</ele>
        <time>2022-03-02T15:17:27Z</time>
      </trkpt>
      <trkpt lat="49.95036" lon="2.18054">
        <ele>54.2</ele>
        <time>2022-03-02T15:17:29Z</time>
      </trkpt>
      <trkpt lat="49.95036" lon="2.18052">
        <ele>54.2</ele>
        <time>2022-03-02T15:17:30Z</time>
      </trkpt>
      <trkpt lat="49.95036" lon="2.18049">
        <ele>54.2</ele>
        <time>2022-03-02T15:17:31Z</time>
      </trkpt>
      <trkpt lat="49.95036" lon="2.18047">
        <ele>54.1</ele>
        <time>2022-03-02T15:17:32Z</time>
      </trkpt>
      <trkpt lat="49.95036" lon="2.18044">
        <ele>54.1</ele>
        <time>2022-03-02T15:17:33Z</time>
      </trkpt>
      <trkpt lat="49.95036" lon="2.18042">
        <ele>54.1</ele>
        <time>2022-03-02T15:17:34Z</time>
      </trkpt>
      <trkpt lat="49.95036" lon="2.18041">
        <ele>54.1</ele>
        <time>2022-03-02T15:17:35Z</time>
      </trkpt>
      <trkpt lat="49.95036" lon="2.18039">
        <ele>54.1</ele>
        <time>2022-03-02T15:17:36Z</time>
      </trkpt>
      <trkpt lat="49.95036" lon="2.18037">
        <ele>54.1</ele>
        <time>2022-03-02T15:17:37Z</time>
      </trkpt>
      <trkpt lat="49.95036" lon="2.18034">
        <ele>54.1</ele>
        <time>2022-03-02T15:17:39Z</time>
      </trkpt>
      <trkpt lat="49.95036" lon="2.18033">
        <ele>54.1</ele>
        <time>2022-03-02T15:17:40Z</time>
      </trkpt>
      <trkpt lat="49.95037" lon="2.18031">
        <ele>54.1</ele>
        <time>2022-03-02T15:17:41Z</time>
      </trkpt>
      <trkpt lat="49.95037" lon="2.18029">
        <ele>54.1</ele>
        <time>2022-03-02T15:17:42Z</time>
      </trkpt>
      <trkpt lat="49.95037" lon="2.18027">
        <ele>54</ele>
        <time>2022-03-02T15:17:43Z</time>
      </trkpt>
      <trkpt lat="49.95037" lon="2.18025">
        <ele>54</ele>
        <time>2022-03-02T15:17:44Z</time>
      </trkpt>
      <trkpt lat="49.95037" lon="2.18023">
        <ele>54</ele>
        <time>2022-03-02T15:17:45Z</time>
      </trkpt>
      <trkpt lat="49.95037" lon="2.18021">
        <ele>54</ele>
        <time>2022-03-02T15:17:46Z</time>
      </trkpt>
      <trkpt lat="49.95037" lon="2.18018">
        <ele>54</ele>
        <time>2022-03-02T15:17:47Z</time>
      </trkpt>
      <trkpt lat="49.95037" lon="2.18015">
        <ele>54</ele>
        <time>2022-03-02T15:17:48Z</time>
      </trkpt>
      <trkpt lat="49.95037" lon="2.18014">
        <ele>54</ele>
        <time>2022-03-02T15:17:49Z</time>
      </trkpt>
      <trkpt lat="49.95037" lon="2.18013">
        <ele>54</ele>
        <time>2022-03-02T15:17:50Z</time>
      </trkpt>
      <trkpt lat="49.95037" lon="2.1801">
        <ele>54</ele>
        <time>2022-03-02T15:17:52Z</time>
      </trkpt>
      <trkpt lat="49.95037" lon="2.18008">
        <ele>53.9</ele>
        <time>2022-03-02T15:17:53Z</time>
      </trkpt>
      <trkpt lat="49.95037" lon="2.18006">
        <ele>53.9</ele>
        <time>2022-03-02T15:17:54Z</time>
      </trkpt>
      <trkpt lat="49.95037" lon="2.18004">
        <ele>53.9</ele>
        <time>2022-03-02T15:17:55Z</time>
      </trkpt>
      <trkpt lat="49.95037" lon="2.18">
        <ele>53.9</ele>
        <time>2022-03-02T15:17:56Z</time>
      </trkpt>
      <trkpt lat="49.95037" lon="2.17998">
        <ele>53.9</ele>
        <time>2022-03-02T15:17:58Z</time>
      </trkpt>
      <trkpt lat="49.95037" lon="2.17996">
        <ele>53.9</ele>
        <time>2022-03-02T15:17:59Z</time>
      </trkpt>
      <trkpt lat="49.95037" lon="2.17995">
        <ele>53.9</ele>
        <time>2022-03-02T15:18:00Z</time>
      </trkpt>
      <trkpt lat="49.95038" lon="2.17993">
        <ele>53.8</ele>
        <time>2022-03-02T15:18:01Z</time>
      </trkpt>
      <trkpt lat="49.95037" lon="2.1799">
        <ele>53.8</ele>
        <time>2022-03-02T15:18:02Z</time>
      </trkpt>
      <trkpt lat="49.95037" lon="2.17988">
        <ele>53.8</ele>
        <time>2022-03-02T15:18:03Z</time>
      </trkpt>
      <trkpt lat="49.95037" lon="2.17987">
        <ele>53.8</ele>
        <time>2022-03-02T15:18:04Z</time>
      </trkpt>
      <trkpt lat="49.95036" lon="2.17985">
        <ele>53.8</ele>
        <time>2022-03-02T15:18:05Z</time>
      </trkpt>
      <trkpt lat="49.95036" lon="2.17983">
        <ele>53.8</ele>
        <time>2022-03-02T15:18:06Z</time>
      </trkpt>
      <trkpt lat="49.95036" lon="2.1798">
        <ele>53.7</ele>
        <time>2022-03-02T15:18:07Z</time>
      </trkpt>
      <trkpt lat="49.95037" lon="2.17979">
        <ele>53.7</ele>
        <time>2022-03-02T15:18:08Z</time>
      </trkpt>
      <trkpt lat="49.95037" lon="2.17977">
        <ele>53.7</ele>
        <time>2022-03-02T15:18:09Z</time>
      </trkpt>
      <trkpt lat="49.95037" lon="2.17975">
        <ele>53.7</ele>
        <time>2022-03-02T15:18:10Z</time>
      </trkpt>
      <trkpt lat="49.95038" lon="2.17973">
        <ele>53.7</ele>
        <time>2022-03-02T15:18:11Z</time>
      </trkpt>
      <trkpt lat="49.95039" lon="2.1797">
        <ele>53.7</ele>
        <time>2022-03-02T15:18:13Z</time>
      </trkpt>
      <trkpt lat="49.95039" lon="2.17968">
        <ele>53.6</ele>
        <time>2022-03-02T15:18:14Z</time>
      </trkpt>
      <trkpt lat="49.95039" lon="2.17966">
        <ele>53.6</ele>
        <time>2022-03-02T15:18:15Z</time>
      </trkpt>
      <trkpt lat="49.95039" lon="2.17964">
        <ele>53.6</ele>
        <time>2022-03-02T15:18:16Z</time>
      </trkpt>
      <trkpt lat="49.95039" lon="2.17963">
        <ele>53.6</ele>
        <time>2022-03-02T15:18:17Z</time>
      </trkpt>
      <trkpt lat="49.95039" lon="2.1796">
        <ele>53.6</ele>
        <time>2022-03-02T15:18:18Z</time>
      </trkpt>
      <trkpt lat="49.95039" lon="2.17958">
        <ele>53.6</ele>
        <time>2022-03-02T15:18:19Z</time>
      </trkpt>
      <trkpt lat="49.95039" lon="2.17957">
        <ele>53.6</ele>
        <time>2022-03-02T15:18:20Z</time>
      </trkpt>
      <trkpt lat="49.95039" lon="2.17954">
        <ele>53.6</ele>
        <time>2022-03-02T15:18:21Z</time>
      </trkpt>
      <trkpt lat="49.95039" lon="2.17952">
        <ele>53.6</ele>
        <time>2022-03-02T15:18:22Z</time>
      </trkpt>
      <trkpt lat="49.95038" lon="2.17951">
        <ele>53.5</ele>
        <time>2022-03-02T15:18:23Z</time>
      </trkpt>
      <trkpt lat="49.95038" lon="2.17947">
        <ele>53.5</ele>
        <time>2022-03-02T15:18:24Z</time>
      </trkpt>
      <trkpt lat="49.95038" lon="2.17946">
        <ele>53.5</ele>
        <time>2022-03-02T15:18:25Z</time>
      </trkpt>
      <trkpt lat="49.95038" lon="2.17944">
        <ele>53.5</ele>
        <time>2022-03-02T15:18:26Z</time>
      </trkpt>
      <trkpt lat="49.95038" lon="2.17941">
        <ele>53.5</ele>
        <time>2022-03-02T15:18:27Z</time>
      </trkpt>
      <trkpt lat="49.95038" lon="2.1794">
        <ele>53.5</ele>
        <time>2022-03-02T15:18:28Z</time>
      </trkpt>
      <trkpt lat="49.95038" lon="2.17938">
        <ele>53.5</ele>
        <time>2022-03-02T15:18:29Z</time>
      </trkpt>
      <trkpt lat="49.95038" lon="2.17936">
        <ele>53.4</ele>
        <time>2022-03-02T15:18:30Z</time>
      </trkpt>
      <trkpt lat="49.95037" lon="2.17934">
        <ele>53.4</ele>
        <time>2022-03-02T15:18:31Z</time>
      </trkpt>
      <trkpt lat="49.95037" lon="2.17931">
        <ele>53.4</ele>
        <time>2022-03-02T15:18:32Z</time>
      </trkpt>
      <trkpt lat="49.95037" lon="2.17929">
        <ele>53.4</ele>
        <time>2022-03-02T15:18:33Z</time>
      </trkpt>
      <trkpt lat="49.95036" lon="2.17928">
        <ele>53.3</ele>
        <time>2022-03-02T15:18:34Z</time>
      </trkpt>
      <trkpt lat="49.95036" lon="2.17926">
        <ele>53.3</ele>
        <time>2022-03-02T15:18:35Z</time>
      </trkpt>
      <trkpt lat="49.95036" lon="2.17923">
        <ele>53.3</ele>
        <time>2022-03-02T15:18:36Z</time>
      </trkpt>
      <trkpt lat="49.95036" lon="2.17921">
        <ele>53.3</ele>
        <time>2022-03-02T15:18:37Z</time>
      </trkpt>
      <trkpt lat="49.95036" lon="2.17919">
        <ele>53.2</ele>
        <time>2022-03-02T15:18:38Z</time>
      </trkpt>
      <trkpt lat="49.95036" lon="2.17914">
        <ele>53.2</ele>
        <time>2022-03-02T15:18:40Z</time>
      </trkpt>
      <trkpt lat="49.95036" lon="2.17913">
        <ele>53.2</ele>
        <time>2022-03-02T15:18:41Z</time>
      </trkpt>
      <trkpt lat="49.95035" lon="2.1791">
        <ele>53.1</ele>
        <time>2022-03-02T15:18:42Z</time>
      </trkpt>
      <trkpt lat="49.95035" lon="2.17908">
        <ele>53.1</ele>
        <time>2022-03-02T15:18:43Z</time>
      </trkpt>
      <trkpt lat="49.95035" lon="2.17907">
        <ele>53.1</ele>
        <time>2022-03-02T15:18:44Z</time>
      </trkpt>
      <trkpt lat="49.95035" lon="2.17904">
        <ele>53.1</ele>
        <time>2022-03-02T15:18:45Z</time>
      </trkpt>
      <trkpt lat="49.95035" lon="2.17902">
        <ele>53.1</ele>
        <time>2022-03-02T15:18:46Z</time>
      </trkpt>
      <trkpt lat="49.95035" lon="2.17899">
        <ele>53.1</ele>
        <time>2022-03-02T15:18:47Z</time>
      </trkpt>
      <trkpt lat="49.95035" lon="2.17897">
        <ele>53</ele>
        <time>2022-03-02T15:18:48Z</time>
      </trkpt>
      <trkpt lat="49.95034" lon="2.17894">
        <ele>53</ele>
        <time>2022-03-02T15:18:50Z</time>
      </trkpt>
      <trkpt lat="49.95034" lon="2.17892">
        <ele>53</ele>
        <time>2022-03-02T15:18:51Z</time>
      </trkpt>
      <trkpt lat="49.95034" lon="2.1789">
        <ele>53</ele>
        <time>2022-03-02T15:18:52Z</time>
      </trkpt>
      <trkpt lat="49.95034" lon="2.17888">
        <ele>53</ele>
        <time>2022-03-02T15:18:53Z</time>
      </trkpt>
      <trkpt lat="49.95034" lon="2.17885">
        <ele>52.9</ele>
        <time>2022-03-02T15:18:54Z</time>
      </trkpt>
      <trkpt lat="49.95034" lon="2.17883">
        <ele>52.9</ele>
        <time>2022-03-02T15:18:55Z</time>
      </trkpt>
      <trkpt lat="49.95034" lon="2.17882">
        <ele>52.9</ele>
        <time>2022-03-02T15:18:56Z</time>
      </trkpt>
      <trkpt lat="49.95033" lon="2.17879">
        <ele>52.9</ele>
        <time>2022-03-02T15:18:57Z</time>
      </trkpt>
      <trkpt lat="49.95033" lon="2.17878">
        <ele>52.9</ele>
        <time>2022-03-02T15:18:58Z</time>
      </trkpt>
      <trkpt lat="49.95032" lon="2.17877">
        <ele>52.8</ele>
        <time>2022-03-02T15:18:59Z</time>
      </trkpt>
      <trkpt lat="49.95032" lon="2.17874">
        <ele>52.8</ele>
        <time>2022-03-02T15:19:00Z</time>
      </trkpt>
      <trkpt lat="49.95032" lon="2.17873">
        <ele>52.8</ele>
        <time>2022-03-02T15:19:01Z</time>
      </trkpt>
      <trkpt lat="49.95031" lon="2.1787">
        <ele>52.8</ele>
        <time>2022-03-02T15:19:02Z</time>
      </trkpt>
      <trkpt lat="49.95031" lon="2.17868">
        <ele>52.7</ele>
        <time>2022-03-02T15:19:04Z</time>
      </trkpt>
      <trkpt lat="49.95031" lon="2.17866">
        <ele>52.7</ele>
        <time>2022-03-02T15:19:05Z</time>
      </trkpt>
      <trkpt lat="49.9503" lon="2.17864">
        <ele>52.7</ele>
        <time>2022-03-02T15:19:06Z</time>
      </trkpt>
      <trkpt lat="49.9503" lon="2.17862">
        <ele>52.7</ele>
        <time>2022-03-02T15:19:07Z</time>
      </trkpt>
      <trkpt lat="49.9503" lon="2.1786">
        <ele>52.6</ele>
        <time>2022-03-02T15:19:08Z</time>
      </trkpt>
      <trkpt lat="49.9503" lon="2.17858">
        <ele>52.6</ele>
        <time>2022-03-02T15:19:09Z</time>
      </trkpt>
      <trkpt lat="49.95029" lon="2.17857">
        <ele>52.6</ele>
        <time>2022-03-02T15:19:10Z</time>
      </trkpt>
      <trkpt lat="49.95029" lon="2.17855">
        <ele>52.6</ele>
        <time>2022-03-02T15:19:11Z</time>
      </trkpt>
      <trkpt lat="49.95029" lon="2.17853">
        <ele>52.6</ele>
        <time>2022-03-02T15:19:12Z</time>
      </trkpt>
      <trkpt lat="49.95029" lon="2.17852">
        <ele>52.5</ele>
        <time>2022-03-02T15:19:13Z</time>
      </trkpt>
      <trkpt lat="49.95029" lon="2.1785">
        <ele>52.5</ele>
        <time>2022-03-02T15:19:14Z</time>
      </trkpt>
      <trkpt lat="49.95028" lon="2.17849">
        <ele>52.5</ele>
        <time>2022-03-02T15:19:15Z</time>
      </trkpt>
      <trkpt lat="49.95028" lon="2.17845">
        <ele>52.5</ele>
        <time>2022-03-02T15:19:16Z</time>
      </trkpt>
      <trkpt lat="49.95028" lon="2.17844">
        <ele>52.4</ele>
        <time>2022-03-02T15:19:17Z</time>
      </trkpt>
      <trkpt lat="49.95028" lon="2.17842">
        <ele>52.4</ele>
        <time>2022-03-02T15:19:18Z</time>
      </trkpt>
      <trkpt lat="49.95027" lon="2.1784">
        <ele>52.4</ele>
        <time>2022-03-02T15:19:19Z</time>
      </trkpt>
      <trkpt lat="49.95027" lon="2.17838">
        <ele>52.4</ele>
        <time>2022-03-02T15:19:20Z</time>
      </trkpt>
      <trkpt lat="49.95026" lon="2.17835">
        <ele>52.4</ele>
        <time>2022-03-02T15:19:21Z</time>
      </trkpt>
      <trkpt lat="49.95026" lon="2.17833">
        <ele>52.3</ele>
        <time>2022-03-02T15:19:22Z</time>
      </trkpt>
      <trkpt lat="49.95026" lon="2.17832">
        <ele>52.3</ele>
        <time>2022-03-02T15:19:23Z</time>
      </trkpt>
      <trkpt lat="49.95026" lon="2.1783">
        <ele>52.3</ele>
        <time>2022-03-02T15:19:24Z</time>
      </trkpt>
      <trkpt lat="49.95025" lon="2.17827">
        <ele>52.3</ele>
        <time>2022-03-02T15:19:26Z</time>
      </trkpt>
      <trkpt lat="49.95025" lon="2.17825">
        <ele>52.3</ele>
        <time>2022-03-02T15:19:27Z</time>
      </trkpt>
      <trkpt lat="49.95024" lon="2.17822">
        <ele>52.3</ele>
        <time>2022-03-02T15:19:28Z</time>
      </trkpt>
      <trkpt lat="49.95023" lon="2.1782">
        <ele>52.2</ele>
        <time>2022-03-02T15:19:29Z</time>
      </trkpt>
      <trkpt lat="49.95023" lon="2.17818">
        <ele>52.2</ele>
        <time>2022-03-02T15:19:30Z</time>
      </trkpt>
      <trkpt lat="49.95023" lon="2.17817">
        <ele>52.2</ele>
        <time>2022-03-02T15:19:31Z</time>
      </trkpt>
      <trkpt lat="49.95022" lon="2.17815">
        <ele>52.2</ele>
        <time>2022-03-02T15:19:32Z</time>
      </trkpt>
      <trkpt lat="49.95022" lon="2.17813">
        <ele>52.2</ele>
        <time>2022-03-02T15:19:33Z</time>
      </trkpt>
      <trkpt lat="49.95022" lon="2.17811">
        <ele>52.2</ele>
        <time>2022-03-02T15:19:34Z</time>
      </trkpt>
      <trkpt lat="49.95021" lon="2.17808">
        <ele>52.1</ele>
        <time>2022-03-02T15:19:35Z</time>
      </trkpt>
      <trkpt lat="49.95021" lon="2.17806">
        <ele>52.1</ele>
        <time>2022-03-02T15:19:36Z</time>
      </trkpt>
      <trkpt lat="49.9502" lon="2.17804">
        <ele>52.1</ele>
        <time>2022-03-02T15:19:37Z</time>
      </trkpt>
      <trkpt lat="49.95019" lon="2.17802">
        <ele>52.1</ele>
        <time>2022-03-02T15:19:38Z</time>
      </trkpt>
      <trkpt lat="49.95019" lon="2.17799">
        <ele>52</ele>
        <time>2022-03-02T15:19:40Z</time>
      </trkpt>
      <trkpt lat="49.95018" lon="2.17797">
        <ele>52</ele>
        <time>2022-03-02T15:19:41Z</time>
      </trkpt>
      <trkpt lat="49.95018" lon="2.17795">
        <ele>52</ele>
        <time>2022-03-02T15:19:42Z</time>
      </trkpt>
      <trkpt lat="49.95017" lon="2.17793">
        <ele>52</ele>
        <time>2022-03-02T15:19:43Z</time>
      </trkpt>
      <trkpt lat="49.95016" lon="2.17791">
        <ele>52</ele>
        <time>2022-03-02T15:19:44Z</time>
      </trkpt>
      <trkpt lat="49.95016" lon="2.1779">
        <ele>51.9</ele>
        <time>2022-03-02T15:19:45Z</time>
      </trkpt>
      <trkpt lat="49.95015" lon="2.17788">
        <ele>51.9</ele>
        <time>2022-03-02T15:19:46Z</time>
      </trkpt>
      <trkpt lat="49.95015" lon="2.17787">
        <ele>51.9</ele>
        <time>2022-03-02T15:19:47Z</time>
      </trkpt>
      <trkpt lat="49.95014" lon="2.17785">
        <ele>51.9</ele>
        <time>2022-03-02T15:19:48Z</time>
      </trkpt>
      <trkpt lat="49.95013" lon="2.17783">
        <ele>51.8</ele>
        <time>2022-03-02T15:19:49Z</time>
      </trkpt>
      <trkpt lat="49.95012" lon="2.17781">
        <ele>51.8</ele>
        <time>2022-03-02T15:19:50Z</time>
      </trkpt>
      <trkpt lat="49.95012" lon="2.1778">
        <ele>51.8</ele>
        <time>2022-03-02T15:19:51Z</time>
      </trkpt>
      <trkpt lat="49.95012" lon="2.17778">
        <ele>51.8</ele>
        <time>2022-03-02T15:19:52Z</time>
      </trkpt>
      <trkpt lat="49.95011" lon="2.17775">
        <ele>51.7</ele>
        <time>2022-03-02T15:19:53Z</time>
      </trkpt>
      <trkpt lat="49.95011" lon="2.17774">
        <ele>51.7</ele>
        <time>2022-03-02T15:19:54Z</time>
      </trkpt>
      <trkpt lat="49.9501" lon="2.17773">
        <ele>51.7</ele>
        <time>2022-03-02T15:19:55Z</time>
      </trkpt>
      <trkpt lat="49.9501" lon="2.17771">
        <ele>51.6</ele>
        <time>2022-03-02T15:19:56Z</time>
      </trkpt>
      <trkpt lat="49.9501" lon="2.17769">
        <ele>51.6</ele>
        <time>2022-03-02T15:19:57Z</time>
      </trkpt>
      <trkpt lat="49.95009" lon="2.17768">
        <ele>51.6</ele>
        <time>2022-03-02T15:19:58Z</time>
      </trkpt>
      <trkpt lat="49.95009" lon="2.17765">
        <ele>51.6</ele>
        <time>2022-03-02T15:20:00Z</time>
      </trkpt>
      <trkpt lat="49.95009" lon="2.17764">
        <ele>51.5</ele>
        <time>2022-03-02T15:20:01Z</time>
      </trkpt>
      <trkpt lat="49.95008" lon="2.17762">
        <ele>51.5</ele>
        <time>2022-03-02T15:20:02Z</time>
      </trkpt>
      <trkpt lat="49.95008" lon="2.1776">
        <ele>51.5</ele>
        <time>2022-03-02T15:20:03Z</time>
      </trkpt>
      <trkpt lat="49.95008" lon="2.17758">
        <ele>51.4</ele>
        <time>2022-03-02T15:20:04Z</time>
      </trkpt>
      <trkpt lat="49.95007" lon="2.17757">
        <ele>51.4</ele>
        <time>2022-03-02T15:20:05Z</time>
      </trkpt>
      <trkpt lat="49.95007" lon="2.17755">
        <ele>51.4</ele>
        <time>2022-03-02T15:20:06Z</time>
      </trkpt>
      <trkpt lat="49.95007" lon="2.17753">
        <ele>51.3</ele>
        <time>2022-03-02T15:20:07Z</time>
      </trkpt>
      <trkpt lat="49.95005" lon="2.17749">
        <ele>51.3</ele>
        <time>2022-03-02T15:20:09Z</time>
      </trkpt>
      <trkpt lat="49.95005" lon="2.17748">
        <ele>51.2</ele>
        <time>2022-03-02T15:20:10Z</time>
      </trkpt>
      <trkpt lat="49.95004" lon="2.17745">
        <ele>51.2</ele>
        <time>2022-03-02T15:20:11Z</time>
      </trkpt>
      <trkpt lat="49.95003" lon="2.17743">
        <ele>51.2</ele>
        <time>2022-03-02T15:20:12Z</time>
      </trkpt>
      <trkpt lat="49.95003" lon="2.1774">
        <ele>51.1</ele>
        <time>2022-03-02T15:20:13Z</time>
      </trkpt>
      <trkpt lat="49.95002" lon="2.17739">
        <ele>51.1</ele>
        <time>2022-03-02T15:20:14Z</time>
      </trkpt>
      <trkpt lat="49.95002" lon="2.17737">
        <ele>51.1</ele>
        <time>2022-03-02T15:20:15Z</time>
      </trkpt>
      <trkpt lat="49.95001" lon="2.17736">
        <ele>51</ele>
        <time>2022-03-02T15:20:16Z</time>
      </trkpt>
      <trkpt lat="49.95" lon="2.17734">
        <ele>51</ele>
        <time>2022-03-02T15:20:17Z</time>
      </trkpt>
      <trkpt lat="49.94999" lon="2.17732">
        <ele>51</ele>
        <time>2022-03-02T15:20:18Z</time>
      </trkpt>
      <trkpt lat="49.94999" lon="2.1773">
        <ele>51</ele>
        <time>2022-03-02T15:20:19Z</time>
      </trkpt>
      <trkpt lat="49.94998" lon="2.17727">
        <ele>50.9</ele>
        <time>2022-03-02T15:20:20Z</time>
      </trkpt>
      <trkpt lat="49.94997" lon="2.17726">
        <ele>50.9</ele>
        <time>2022-03-02T15:20:21Z</time>
      </trkpt>
      <trkpt lat="49.94997" lon="2.17725">
        <ele>50.9</ele>
        <time>2022-03-02T15:20:22Z</time>
      </trkpt>
      <trkpt lat="49.94996" lon="2.17723">
        <ele>50.8</ele>
        <time>2022-03-02T15:20:23Z</time>
      </trkpt>
      <trkpt lat="49.94995" lon="2.17721">
        <ele>50.8</ele>
        <time>2022-03-02T15:20:24Z</time>
      </trkpt>
      <trkpt lat="49.94994" lon="2.17719">
        <ele>50.8</ele>
        <time>2022-03-02T15:20:25Z</time>
      </trkpt>
      <trkpt lat="49.94994" lon="2.17717">
        <ele>50.8</ele>
        <time>2022-03-02T15:20:27Z</time>
      </trkpt>
      <trkpt lat="49.94993" lon="2.17715">
        <ele>50.7</ele>
        <time>2022-03-02T15:20:28Z</time>
      </trkpt>
      <trkpt lat="49.94992" lon="2.17713">
        <ele>50.7</ele>
        <time>2022-03-02T15:20:29Z</time>
      </trkpt>
      <trkpt lat="49.94991" lon="2.17712">
        <ele>50.7</ele>
        <time>2022-03-02T15:20:30Z</time>
      </trkpt>
      <trkpt lat="49.9499" lon="2.1771">
        <ele>50.6</ele>
        <time>2022-03-02T15:20:31Z</time>
      </trkpt>
      <trkpt lat="49.94989" lon="2.17708">
        <ele>50.6</ele>
        <time>2022-03-02T15:20:32Z</time>
      </trkpt>
      <trkpt lat="49.94989" lon="2.17706">
        <ele>50.6</ele>
        <time>2022-03-02T15:20:33Z</time>
      </trkpt>
      <trkpt lat="49.94988" lon="2.17704">
        <ele>50.5</ele>
        <time>2022-03-02T15:20:34Z</time>
      </trkpt>
      <trkpt lat="49.94987" lon="2.17703">
        <ele>50.5</ele>
        <time>2022-03-02T15:20:35Z</time>
      </trkpt>
      <trkpt lat="49.94986" lon="2.17702">
        <ele>50.5</ele>
        <time>2022-03-02T15:20:36Z</time>
      </trkpt>
      <trkpt lat="49.94985" lon="2.17699">
        <ele>50.4</ele>
        <time>2022-03-02T15:20:37Z</time>
      </trkpt>
      <trkpt lat="49.94985" lon="2.17698">
        <ele>50.4</ele>
        <time>2022-03-02T15:20:38Z</time>
      </trkpt>
      <trkpt lat="49.94984" lon="2.17697">
        <ele>50.4</ele>
        <time>2022-03-02T15:20:39Z</time>
      </trkpt>
      <trkpt lat="49.94983" lon="2.17695">
        <ele>50.4</ele>
        <time>2022-03-02T15:20:40Z</time>
      </trkpt>
      <trkpt lat="49.94983" lon="2.17694">
        <ele>50.3</ele>
        <time>2022-03-02T15:20:41Z</time>
      </trkpt>
      <trkpt lat="49.94981" lon="2.17691">
        <ele>50.3</ele>
        <time>2022-03-02T15:20:42Z</time>
      </trkpt>
      <trkpt lat="49.94981" lon="2.1769">
        <ele>50.3</ele>
        <time>2022-03-02T15:20:43Z</time>
      </trkpt>
      <trkpt lat="49.9498" lon="2.17689">
        <ele>50.2</ele>
        <time>2022-03-02T15:20:44Z</time>
      </trkpt>
      <trkpt lat="49.94979" lon="2.17687">
        <ele>50.2</ele>
        <time>2022-03-02T15:20:45Z</time>
      </trkpt>
      <trkpt lat="49.94979" lon="2.17685">
        <ele>50.1</ele>
        <time>2022-03-02T15:20:46Z</time>
      </trkpt>
      <trkpt lat="49.94977" lon="2.17682">
        <ele>50.1</ele>
        <time>2022-03-02T15:20:47Z</time>
      </trkpt>
      <trkpt lat="49.94977" lon="2.1768">
        <ele>50</ele>
        <time>2022-03-02T15:20:49Z</time>
      </trkpt>
      <trkpt lat="49.94976" lon="2.17678">
        <ele>50</ele>
        <time>2022-03-02T15:20:50Z</time>
      </trkpt>
      <trkpt lat="49.94975" lon="2.17677">
        <ele>49.9</ele>
        <time>2022-03-02T15:20:51Z</time>
      </trkpt>
      <trkpt lat="49.94975" lon="2.17675">
        <ele>49.9</ele>
        <time>2022-03-02T15:20:52Z</time>
      </trkpt>
      <trkpt lat="49.94974" lon="2.17673">
        <ele>49.8</ele>
        <time>2022-03-02T15:20:54Z</time>
      </trkpt>
      <trkpt lat="49.94973" lon="2.17672">
        <ele>49.8</ele>
        <time>2022-03-02T15:20:55Z</time>
      </trkpt>
      <trkpt lat="49.94972" lon="2.17669">
        <ele>49.7</ele>
        <time>2022-03-02T15:20:56Z</time>
      </trkpt>
      <trkpt lat="49.94972" lon="2.17667">
        <ele>49.7</ele>
        <time>2022-03-02T15:20:57Z</time>
      </trkpt>
      <trkpt lat="49.94971" lon="2.17666">
        <ele>49.7</ele>
        <time>2022-03-02T15:20:58Z</time>
      </trkpt>
      <trkpt lat="49.9497" lon="2.17664">
        <ele>49.6</ele>
        <time>2022-03-02T15:20:59Z</time>
      </trkpt>
      <trkpt lat="49.9497" lon="2.17663">
        <ele>49.6</ele>
        <time>2022-03-02T15:21:00Z</time>
      </trkpt>
      <trkpt lat="49.94969" lon="2.17662">
        <ele>49.5</ele>
        <time>2022-03-02T15:21:01Z</time>
      </trkpt>
      <trkpt lat="49.94968" lon="2.1766">
        <ele>49.5</ele>
        <time>2022-03-02T15:21:02Z</time>
      </trkpt>
      <trkpt lat="49.94967" lon="2.17659">
        <ele>49.4</ele>
        <time>2022-03-02T15:21:03Z</time>
      </trkpt>
      <trkpt lat="49.94967" lon="2.17658">
        <ele>49.4</ele>
        <time>2022-03-02T15:21:04Z</time>
      </trkpt>
      <trkpt lat="49.94966" lon="2.17657">
        <ele>49.4</ele>
        <time>2022-03-02T15:21:05Z</time>
      </trkpt>
      <trkpt lat="49.94965" lon="2.17655">
        <ele>49.3</ele>
        <time>2022-03-02T15:21:06Z</time>
      </trkpt>
      <trkpt lat="49.94964" lon="2.17654">
        <ele>49.3</ele>
        <time>2022-03-02T15:21:07Z</time>
      </trkpt>
      <trkpt lat="49.94963" lon="2.17651">
        <ele>49.2</ele>
        <time>2022-03-02T15:21:08Z</time>
      </trkpt>
      <trkpt lat="49.94962" lon="2.17649">
        <ele>49.1</ele>
        <time>2022-03-02T15:21:10Z</time>
      </trkpt>
      <trkpt lat="49.94962" lon="2.17648">
        <ele>49.1</ele>
        <time>2022-03-02T15:21:11Z</time>
      </trkpt>
      <trkpt lat="49.94961" lon="2.17646">
        <ele>49</ele>
        <time>2022-03-02T15:21:12Z</time>
      </trkpt>
      <trkpt lat="49.94961" lon="2.17645">
        <ele>49</ele>
        <time>2022-03-02T15:21:13Z</time>
      </trkpt>
      <trkpt lat="49.9496" lon="2.17643">
        <ele>48.9</ele>
        <time>2022-03-02T15:21:15Z</time>
      </trkpt>
      <trkpt lat="49.94959" lon="2.1764">
        <ele>48.8</ele>
        <time>2022-03-02T15:21:16Z</time>
      </trkpt>
      <trkpt lat="49.94957" lon="2.17638">
        <ele>48.7</ele>
        <time>2022-03-02T15:21:17Z</time>
      </trkpt>
      <trkpt lat="49.94957" lon="2.17636">
        <ele>48.7</ele>
        <time>2022-03-02T15:21:18Z</time>
      </trkpt>
      <trkpt lat="49.94956" lon="2.17635">
        <ele>48.7</ele>
        <time>2022-03-02T15:21:19Z</time>
      </trkpt>
      <trkpt lat="49.94956" lon="2.17633">
        <ele>48.6</ele>
        <time>2022-03-02T15:21:20Z</time>
      </trkpt>
      <trkpt lat="49.94955" lon="2.17631">
        <ele>48.5</ele>
        <time>2022-03-02T15:21:22Z</time>
      </trkpt>
      <trkpt lat="49.94955" lon="2.1763">
        <ele>48.5</ele>
        <time>2022-03-02T15:21:23Z</time>
      </trkpt>
      <trkpt lat="49.94954" lon="2.17629">
        <ele>48.4</ele>
        <time>2022-03-02T15:21:24Z</time>
      </trkpt>
      <trkpt lat="49.94953" lon="2.17627">
        <ele>48.4</ele>
        <time>2022-03-02T15:21:25Z</time>
      </trkpt>
      <trkpt lat="49.94953" lon="2.17626">
        <ele>48.3</ele>
        <time>2022-03-02T15:21:26Z</time>
      </trkpt>
      <trkpt lat="49.94952" lon="2.17624">
        <ele>48.3</ele>
        <time>2022-03-02T15:21:27Z</time>
      </trkpt>
      <trkpt lat="49.94952" lon="2.17623">
        <ele>48.2</ele>
        <time>2022-03-02T15:21:28Z</time>
      </trkpt>
      <trkpt lat="49.94951" lon="2.17622">
        <ele>48.2</ele>
        <time>2022-03-02T15:21:29Z</time>
      </trkpt>
      <trkpt lat="49.9495" lon="2.1762">
        <ele>48.1</ele>
        <time>2022-03-02T15:21:30Z</time>
      </trkpt>
      <trkpt lat="49.9495" lon="2.17618">
        <ele>48</ele>
        <time>2022-03-02T15:21:31Z</time>
      </trkpt>
      <trkpt lat="49.94949" lon="2.17616">
        <ele>47.9</ele>
        <time>2022-03-02T15:21:32Z</time>
      </trkpt>
      <trkpt lat="49.94948" lon="2.17614">
        <ele>47.9</ele>
        <time>2022-03-02T15:21:34Z</time>
      </trkpt>
      <trkpt lat="49.94947" lon="2.17612">
        <ele>47.8</ele>
        <time>2022-03-02T15:21:35Z</time>
      </trkpt>
      <trkpt lat="49.94947" lon="2.1761">
        <ele>47.7</ele>
        <time>2022-03-02T15:21:36Z</time>
      </trkpt>
      <trkpt lat="49.94946" lon="2.17608">
        <ele>47.6</ele>
        <time>2022-03-02T15:21:37Z</time>
      </trkpt>
      <trkpt lat="49.94945" lon="2.17606">
        <ele>47.6</ele>
        <time>2022-03-02T15:21:38Z</time>
      </trkpt>
      <trkpt lat="49.94945" lon="2.17605">
        <ele>47.5</ele>
        <time>2022-03-02T15:21:39Z</time>
      </trkpt>
      <trkpt lat="49.94944" lon="2.17603">
        <ele>47.4</ele>
        <time>2022-03-02T15:21:40Z</time>
      </trkpt>
      <trkpt lat="49.94943" lon="2.17601">
        <ele>47.4</ele>
        <time>2022-03-02T15:21:41Z</time>
      </trkpt>
      <trkpt lat="49.94943" lon="2.17599">
        <ele>47.3</ele>
        <time>2022-03-02T15:21:42Z</time>
      </trkpt>
      <trkpt lat="49.94942" lon="2.17597">
        <ele>47.2</ele>
        <time>2022-03-02T15:21:43Z</time>
      </trkpt>
      <trkpt lat="49.94942" lon="2.17595">
        <ele>47.1</ele>
        <time>2022-03-02T15:21:44Z</time>
      </trkpt>
      <trkpt lat="49.94941" lon="2.17593">
        <ele>47</ele>
        <time>2022-03-02T15:21:46Z</time>
      </trkpt>
      <trkpt lat="49.9494" lon="2.17592">
        <ele>47</ele>
        <time>2022-03-02T15:21:47Z</time>
      </trkpt>
      <trkpt lat="49.9494" lon="2.1759">
        <ele>46.9</ele>
        <time>2022-03-02T15:21:48Z</time>
      </trkpt>
      <trkpt lat="49.94939" lon="2.17589">
        <ele>46.8</ele>
        <time>2022-03-02T15:21:49Z</time>
      </trkpt>
      <trkpt lat="49.94938" lon="2.17587">
        <ele>46.8</ele>
        <time>2022-03-02T15:21:50Z</time>
      </trkpt>
      <trkpt lat="49.94938" lon="2.17585">
        <ele>46.7</ele>
        <time>2022-03-02T15:21:51Z</time>
      </trkpt>
      <trkpt lat="49.94937" lon="2.17584">
        <ele>46.6</ele>
        <time>2022-03-02T15:21:52Z</time>
      </trkpt>
      <trkpt lat="49.94936" lon="2.17581">
        <ele>46.5</ele>
        <time>2022-03-02T15:21:53Z</time>
      </trkpt>
      <trkpt lat="49.94936" lon="2.17579">
        <ele>46.4</ele>
        <time>2022-03-02T15:21:54Z</time>
      </trkpt>
      <trkpt lat="49.94936" lon="2.17578">
        <ele>46.4</ele>
        <time>2022-03-02T15:21:55Z</time>
      </trkpt>
      <trkpt lat="49.94935" lon="2.17576">
        <ele>46.3</ele>
        <time>2022-03-02T15:21:56Z</time>
      </trkpt>
      <trkpt lat="49.94934" lon="2.17573">
        <ele>46.1</ele>
        <time>2022-03-02T15:21:58Z</time>
      </trkpt>
      <trkpt lat="49.94934" lon="2.17571">
        <ele>46</ele>
        <time>2022-03-02T15:21:59Z</time>
      </trkpt>
      <trkpt lat="49.94933" lon="2.17569">
        <ele>45.9</ele>
        <time>2022-03-02T15:22:00Z</time>
      </trkpt>
      <trkpt lat="49.94932" lon="2.17567">
        <ele>45.8</ele>
        <time>2022-03-02T15:22:01Z</time>
      </trkpt>
      <trkpt lat="49.94932" lon="2.17565">
        <ele>45.7</ele>
        <time>2022-03-02T15:22:02Z</time>
      </trkpt>
      <trkpt lat="49.94931" lon="2.17563">
        <ele>45.6</ele>
        <time>2022-03-02T15:22:04Z</time>
      </trkpt>
      <trkpt lat="49.94931" lon="2.17561">
        <ele>45.6</ele>
        <time>2022-03-02T15:22:05Z</time>
      </trkpt>
      <trkpt lat="49.9493" lon="2.17559">
        <ele>45.4</ele>
        <time>2022-03-02T15:22:06Z</time>
      </trkpt>
      <trkpt lat="49.9493" lon="2.17557">
        <ele>45.3</ele>
        <time>2022-03-02T15:22:07Z</time>
      </trkpt>
      <trkpt lat="49.94929" lon="2.17554">
        <ele>45.1</ele>
        <time>2022-03-02T15:22:08Z</time>
      </trkpt>
      <trkpt lat="49.94929" lon="2.17552">
        <ele>45.1</ele>
        <time>2022-03-02T15:22:09Z</time>
      </trkpt>
      <trkpt lat="49.94928" lon="2.17551">
        <ele>45</ele>
        <time>2022-03-02T15:22:10Z</time>
      </trkpt>
      <trkpt lat="49.94928" lon="2.17549">
        <ele>44.9</ele>
        <time>2022-03-02T15:22:11Z</time>
      </trkpt>
      <trkpt lat="49.94927" lon="2.17546">
        <ele>44.7</ele>
        <time>2022-03-02T15:22:13Z</time>
      </trkpt>
      <trkpt lat="49.94927" lon="2.17544">
        <ele>44.6</ele>
        <time>2022-03-02T15:22:14Z</time>
      </trkpt>
      <trkpt lat="49.94926" lon="2.17542">
        <ele>44.5</ele>
        <time>2022-03-02T15:22:15Z</time>
      </trkpt>
      <trkpt lat="49.94926" lon="2.17539">
        <ele>44.3</ele>
        <time>2022-03-02T15:22:16Z</time>
      </trkpt>
      <trkpt lat="49.94925" lon="2.17538">
        <ele>44.2</ele>
        <time>2022-03-02T15:22:17Z</time>
      </trkpt>
      <trkpt lat="49.94925" lon="2.17536">
        <ele>44.1</ele>
        <time>2022-03-02T15:22:18Z</time>
      </trkpt>
      <trkpt lat="49.94925" lon="2.17535">
        <ele>44</ele>
        <time>2022-03-02T15:22:19Z</time>
      </trkpt>
      <trkpt lat="49.94924" lon="2.17533">
        <ele>43.9</ele>
        <time>2022-03-02T15:22:20Z</time>
      </trkpt>
      <trkpt lat="49.94924" lon="2.17531">
        <ele>43.8</ele>
        <time>2022-03-02T15:22:22Z</time>
      </trkpt>
      <trkpt lat="49.94923" lon="2.17528">
        <ele>43.6</ele>
        <time>2022-03-02T15:22:23Z</time>
      </trkpt>
      <trkpt lat="49.94923" lon="2.17527">
        <ele>43.5</ele>
        <time>2022-03-02T15:22:24Z</time>
      </trkpt>
      <trkpt lat="49.94923" lon="2.17525">
        <ele>43.4</ele>
        <time>2022-03-02T15:22:25Z</time>
      </trkpt>
      <trkpt lat="49.94922" lon="2.17524">
        <ele>43.3</ele>
        <time>2022-03-02T15:22:26Z</time>
      </trkpt>
      <trkpt lat="49.94922" lon="2.17522">
        <ele>43.2</ele>
        <time>2022-03-02T15:22:27Z</time>
      </trkpt>
      <trkpt lat="49.94921" lon="2.1752">
        <ele>43.1</ele>
        <time>2022-03-02T15:22:28Z</time>
      </trkpt>
      <trkpt lat="49.94921" lon="2.17519">
        <ele>43</ele>
        <time>2022-03-02T15:22:29Z</time>
      </trkpt>
      <trkpt lat="49.9492" lon="2.17517">
        <ele>42.8</ele>
        <time>2022-03-02T15:22:31Z</time>
      </trkpt>
      <trkpt lat="49.94919" lon="2.17513">
        <ele>42.6</ele>
        <time>2022-03-02T15:22:32Z</time>
      </trkpt>
      <trkpt lat="49.94919" lon="2.17512">
        <ele>42.6</ele>
        <time>2022-03-02T15:22:33Z</time>
      </trkpt>
      <trkpt lat="49.94918" lon="2.17511">
        <ele>42.5</ele>
        <time>2022-03-02T15:22:34Z</time>
      </trkpt>
      <trkpt lat="49.94918" lon="2.17509">
        <ele>42.4</ele>
        <time>2022-03-02T15:22:35Z</time>
      </trkpt>
      <trkpt lat="49.94917" lon="2.17508">
        <ele>42.3</ele>
        <time>2022-03-02T15:22:36Z</time>
      </trkpt>
      <trkpt lat="49.94917" lon="2.17507">
        <ele>42.2</ele>
        <time>2022-03-02T15:22:37Z</time>
      </trkpt>
      <trkpt lat="49.94916" lon="2.17506">
        <ele>42.1</ele>
        <time>2022-03-02T15:22:38Z</time>
      </trkpt>
      <trkpt lat="49.94915" lon="2.17504">
        <ele>41.9</ele>
        <time>2022-03-02T15:22:39Z</time>
      </trkpt>
      <trkpt lat="49.94914" lon="2.17503">
        <ele>41.8</ele>
        <time>2022-03-02T15:22:40Z</time>
      </trkpt>
      <trkpt lat="49.94914" lon="2.17501">
        <ele>41.7</ele>
        <time>2022-03-02T15:22:41Z</time>
      </trkpt>
      <trkpt lat="49.94913" lon="2.175">
        <ele>41.6</ele>
        <time>2022-03-02T15:22:42Z</time>
      </trkpt>
      <trkpt lat="49.94912" lon="2.17498">
        <ele>41.5</ele>
        <time>2022-03-02T15:22:44Z</time>
      </trkpt>
      <trkpt lat="49.94911" lon="2.17495">
        <ele>41.3</ele>
        <time>2022-03-02T15:22:45Z</time>
      </trkpt>
      <trkpt lat="49.94911" lon="2.17494">
        <ele>41.2</ele>
        <time>2022-03-02T15:22:46Z</time>
      </trkpt>
      <trkpt lat="49.94911" lon="2.17493">
        <ele>41.1</ele>
        <time>2022-03-02T15:22:47Z</time>
      </trkpt>
      <trkpt lat="49.9491" lon="2.17491">
        <ele>41</ele>
        <time>2022-03-02T15:22:48Z</time>
      </trkpt>
      <trkpt lat="49.9491" lon="2.1749">
        <ele>40.9</ele>
        <time>2022-03-02T15:22:49Z</time>
      </trkpt>
      <trkpt lat="49.94909" lon="2.17489">
        <ele>40.8</ele>
        <time>2022-03-02T15:22:50Z</time>
      </trkpt>
      <trkpt lat="49.94908" lon="2.17487">
        <ele>40.7</ele>
        <time>2022-03-02T15:22:51Z</time>
      </trkpt>
      <trkpt lat="49.94908" lon="2.17486">
        <ele>40.6</ele>
        <time>2022-03-02T15:22:52Z</time>
      </trkpt>
      <trkpt lat="49.94907" lon="2.17484">
        <ele>40.5</ele>
        <time>2022-03-02T15:22:53Z</time>
      </trkpt>
      <trkpt lat="49.94907" lon="2.17483">
        <ele>40.4</ele>
        <time>2022-03-02T15:22:54Z</time>
      </trkpt>
      <trkpt lat="49.94906" lon="2.17481">
        <ele>40.3</ele>
        <time>2022-03-02T15:22:55Z</time>
      </trkpt>
      <trkpt lat="49.94906" lon="2.1748">
        <ele>40.2</ele>
        <time>2022-03-02T15:22:56Z</time>
      </trkpt>
      <trkpt lat="49.94904" lon="2.17477">
        <ele>39.9</ele>
        <time>2022-03-02T15:22:57Z</time>
      </trkpt>
      <trkpt lat="49.94904" lon="2.17475">
        <ele>39.8</ele>
        <time>2022-03-02T15:22:59Z</time>
      </trkpt>
      <trkpt lat="49.94903" lon="2.17474">
        <ele>39.7</ele>
        <time>2022-03-02T15:23:00Z</time>
      </trkpt>
      <trkpt lat="49.94903" lon="2.17472">
        <ele>39.6</ele>
        <time>2022-03-02T15:23:01Z</time>
      </trkpt>
      <trkpt lat="49.94902" lon="2.17471">
        <ele>39.5</ele>
        <time>2022-03-02T15:23:02Z</time>
      </trkpt>
      <trkpt lat="49.94901" lon="2.17468">
        <ele>39.3</ele>
        <time>2022-03-02T15:23:03Z</time>
      </trkpt>
      <trkpt lat="49.94901" lon="2.17467">
        <ele>39.2</ele>
        <time>2022-03-02T15:23:04Z</time>
      </trkpt>
      <trkpt lat="49.949" lon="2.17466">
        <ele>39.1</ele>
        <time>2022-03-02T15:23:05Z</time>
      </trkpt>
      <trkpt lat="49.94899" lon="2.17463">
        <ele>38.9</ele>
        <time>2022-03-02T15:23:07Z</time>
      </trkpt>
      <trkpt lat="49.94898" lon="2.17462">
        <ele>38.8</ele>
        <time>2022-03-02T15:23:08Z</time>
      </trkpt>
      <trkpt lat="49.94897" lon="2.1746">
        <ele>38.6</ele>
        <time>2022-03-02T15:23:09Z</time>
      </trkpt>
      <trkpt lat="49.94896" lon="2.17457">
        <ele>38.4</ele>
        <time>2022-03-02T15:23:11Z</time>
      </trkpt>
      <trkpt lat="49.94895" lon="2.17456">
        <ele>38.3</ele>
        <time>2022-03-02T15:23:12Z</time>
      </trkpt>
      <trkpt lat="49.94894" lon="2.17454">
        <ele>38.1</ele>
        <time>2022-03-02T15:23:13Z</time>
      </trkpt>
      <trkpt lat="49.94893" lon="2.17451">
        <ele>37.9</ele>
        <time>2022-03-02T15:23:14Z</time>
      </trkpt>
      <trkpt lat="49.94892" lon="2.1745">
        <ele>37.8</ele>
        <time>2022-03-02T15:23:15Z</time>
      </trkpt>
      <trkpt lat="49.94891" lon="2.17449">
        <ele>37.7</ele>
        <time>2022-03-02T15:23:16Z</time>
      </trkpt>
      <trkpt lat="49.9489" lon="2.17446">
        <ele>37.5</ele>
        <time>2022-03-02T15:23:17Z</time>
      </trkpt>
      <trkpt lat="49.94889" lon="2.17445">
        <ele>37.4</ele>
        <time>2022-03-02T15:23:18Z</time>
      </trkpt>
      <trkpt lat="49.94889" lon="2.17444">
        <ele>37.3</ele>
        <time>2022-03-02T15:23:19Z</time>
      </trkpt>
      <trkpt lat="49.94888" lon="2.17442">
        <ele>37.1</ele>
        <time>2022-03-02T15:23:20Z</time>
      </trkpt>
      <trkpt lat="49.94887" lon="2.17441">
        <ele>36.9</ele>
        <time>2022-03-02T15:23:21Z</time>
      </trkpt>
      <trkpt lat="49.94885" lon="2.17439">
        <ele>36.7</ele>
        <time>2022-03-02T15:23:22Z</time>
      </trkpt>
      <trkpt lat="49.94885" lon="2.17438">
        <ele>36.6</ele>
        <time>2022-03-02T15:23:23Z</time>
      </trkpt>
      <trkpt lat="49.94884" lon="2.17437">
        <ele>36.5</ele>
        <time>2022-03-02T15:23:24Z</time>
      </trkpt>
      <trkpt lat="49.94882" lon="2.17435">
        <ele>36.3</ele>
        <time>2022-03-02T15:23:26Z</time>
      </trkpt>
      <trkpt lat="49.94881" lon="2.17433">
        <ele>36.2</ele>
        <time>2022-03-02T15:23:27Z</time>
      </trkpt>
      <trkpt lat="49.9488" lon="2.17431">
        <ele>36</ele>
        <time>2022-03-02T15:23:28Z</time>
      </trkpt>
      <trkpt lat="49.94879" lon="2.17429">
        <ele>35.8</ele>
        <time>2022-03-02T15:23:29Z</time>
      </trkpt>
      <trkpt lat="49.94877" lon="2.17427">
        <ele>35.6</ele>
        <time>2022-03-02T15:23:30Z</time>
      </trkpt>
      <trkpt lat="49.94876" lon="2.17426">
        <ele>35.5</ele>
        <time>2022-03-02T15:23:31Z</time>
      </trkpt>
      <trkpt lat="49.94876" lon="2.17425">
        <ele>35.3</ele>
        <time>2022-03-02T15:23:32Z</time>
      </trkpt>
      <trkpt lat="49.94875" lon="2.17424">
        <ele>35.2</ele>
        <time>2022-03-02T15:23:33Z</time>
      </trkpt>
      <trkpt lat="49.94874" lon="2.17422">
        <ele>35.1</ele>
        <time>2022-03-02T15:23:34Z</time>
      </trkpt>
      <trkpt lat="49.94872" lon="2.17421">
        <ele>34.9</ele>
        <time>2022-03-02T15:23:36Z</time>
      </trkpt>
      <trkpt lat="49.94871" lon="2.17419">
        <ele>34.8</ele>
        <time>2022-03-02T15:23:37Z</time>
      </trkpt>
      <trkpt lat="49.9487" lon="2.17417">
        <ele>34.5</ele>
        <time>2022-03-02T15:23:38Z</time>
      </trkpt>
      <trkpt lat="49.94869" lon="2.17416">
        <ele>34.5</ele>
        <time>2022-03-02T15:23:39Z</time>
      </trkpt>
      <trkpt lat="49.94869" lon="2.17415">
        <ele>34.4</ele>
        <time>2022-03-02T15:23:40Z</time>
      </trkpt>
      <trkpt lat="49.94868" lon="2.17414">
        <ele>34.3</ele>
        <time>2022-03-02T15:23:41Z</time>
      </trkpt>
      <trkpt lat="49.94867" lon="2.17413">
        <ele>34.2</ele>
        <time>2022-03-02T15:23:42Z</time>
      </trkpt>
      <trkpt lat="49.94866" lon="2.17412">
        <ele>34</ele>
        <time>2022-03-02T15:23:43Z</time>
      </trkpt>
      <trkpt lat="49.94865" lon="2.1741">
        <ele>33.8</ele>
        <time>2022-03-02T15:23:45Z</time>
      </trkpt>
      <trkpt lat="49.94864" lon="2.17408">
        <ele>33.7</ele>
        <time>2022-03-02T15:23:46Z</time>
      </trkpt>
      <trkpt lat="49.94863" lon="2.17406">
        <ele>33.5</ele>
        <time>2022-03-02T15:23:47Z</time>
      </trkpt>
      <trkpt lat="49.94862" lon="2.17405">
        <ele>33.4</ele>
        <time>2022-03-02T15:23:48Z</time>
      </trkpt>
      <trkpt lat="49.94861" lon="2.17404">
        <ele>33.3</ele>
        <time>2022-03-02T15:23:49Z</time>
      </trkpt>
      <trkpt lat="49.9486" lon="2.17401">
        <ele>33.1</ele>
        <time>2022-03-02T15:23:50Z</time>
      </trkpt>
      <trkpt lat="49.9486" lon="2.174">
        <ele>33</ele>
        <time>2022-03-02T15:23:51Z</time>
      </trkpt>
      <trkpt lat="49.94859" lon="2.17399">
        <ele>32.9</ele>
        <time>2022-03-02T15:23:52Z</time>
      </trkpt>
      <trkpt lat="49.94858" lon="2.17397">
        <ele>32.7</ele>
        <time>2022-03-02T15:23:54Z</time>
      </trkpt>
      <trkpt lat="49.94857" lon="2.17396">
        <ele>32.6</ele>
        <time>2022-03-02T15:23:55Z</time>
      </trkpt>
      <trkpt lat="49.94857" lon="2.17395">
        <ele>32.5</ele>
        <time>2022-03-02T15:23:56Z</time>
      </trkpt>
      <trkpt lat="49.94856" lon="2.17394">
        <ele>32.4</ele>
        <time>2022-03-02T15:23:57Z</time>
      </trkpt>
      <trkpt lat="49.94855" lon="2.17394">
        <ele>32.3</ele>
        <time>2022-03-02T15:23:58Z</time>
      </trkpt>
      <trkpt lat="49.94854" lon="2.17393">
        <ele>32.2</ele>
        <time>2022-03-02T15:23:59Z</time>
      </trkpt>
      <trkpt lat="49.94854" lon="2.17392">
        <ele>32.1</ele>
        <time>2022-03-02T15:24:00Z</time>
      </trkpt>
      <trkpt lat="49.94853" lon="2.17391">
        <ele>32</ele>
        <time>2022-03-02T15:24:01Z</time>
      </trkpt>
      <trkpt lat="49.94852" lon="2.17389">
        <ele>31.9</ele>
        <time>2022-03-02T15:24:02Z</time>
      </trkpt>
      <trkpt lat="49.94851" lon="2.17388">
        <ele>31.8</ele>
        <time>2022-03-02T15:24:03Z</time>
      </trkpt>
      <trkpt lat="49.94851" lon="2.17387">
        <ele>31.7</ele>
        <time>2022-03-02T15:24:05Z</time>
      </trkpt>
      <trkpt lat="49.9485" lon="2.17386">
        <ele>31.6</ele>
        <time>2022-03-02T15:24:06Z</time>
      </trkpt>
      <trkpt lat="49.94849" lon="2.17384">
        <ele>31.4</ele>
        <time>2022-03-02T15:24:07Z</time>
      </trkpt>
      <trkpt lat="49.94849" lon="2.17383">
        <ele>31.4</ele>
        <time>2022-03-02T15:24:08Z</time>
      </trkpt>
      <trkpt lat="49.94849" lon="2.17383">
        <ele>31.3</ele>
        <time>2022-03-02T15:24:09Z</time>
      </trkpt>
      <trkpt lat="49.94848" lon="2.17382">
        <ele>31.2</ele>
        <time>2022-03-02T15:24:10Z</time>
      </trkpt>
      <trkpt lat="49.94848" lon="2.17381">
        <ele>31.2</ele>
        <time>2022-03-02T15:24:11Z</time>
      </trkpt>
      <trkpt lat="49.94847" lon="2.17378">
        <ele>31</ele>
        <time>2022-03-02T15:24:13Z</time>
      </trkpt>
      <trkpt lat="49.94847" lon="2.17377">
        <ele>30.9</ele>
        <time>2022-03-02T15:24:14Z</time>
      </trkpt>
      <trkpt lat="49.94847" lon="2.17376">
        <ele>30.8</ele>
        <time>2022-03-02T15:24:15Z</time>
      </trkpt>
      <trkpt lat="49.94846" lon="2.17374">
        <ele>30.7</ele>
        <time>2022-03-02T15:24:16Z</time>
      </trkpt>
      <trkpt lat="49.94846" lon="2.17372">
        <ele>30.5</ele>
        <time>2022-03-02T15:24:17Z</time>
      </trkpt>
      <trkpt lat="49.94846" lon="2.1737">
        <ele>30.4</ele>
        <time>2022-03-02T15:24:18Z</time>
      </trkpt>
      <trkpt lat="49.94846" lon="2.17367">
        <ele>30.2</ele>
        <time>2022-03-02T15:24:20Z</time>
      </trkpt>
      <trkpt lat="49.94846" lon="2.17365">
        <ele>30.1</ele>
        <time>2022-03-02T15:24:21Z</time>
      </trkpt>
      <trkpt lat="49.94846" lon="2.17362">
        <ele>29.9</ele>
        <time>2022-03-02T15:24:22Z</time>
      </trkpt>
      <trkpt lat="49.94846" lon="2.1736">
        <ele>29.8</ele>
        <time>2022-03-02T15:24:23Z</time>
      </trkpt>
      <trkpt lat="49.94846" lon="2.17358">
        <ele>29.7</ele>
        <time>2022-03-02T15:24:24Z</time>
      </trkpt>
      <trkpt lat="49.94845" lon="2.17355">
        <ele>29.4</ele>
        <time>2022-03-02T15:24:25Z</time>
      </trkpt>
      <trkpt lat="49.94845" lon="2.17353">
        <ele>29.3</ele>
        <time>2022-03-02T15:24:26Z</time>
      </trkpt>
      <trkpt lat="49.94845" lon="2.17352">
        <ele>29.3</ele>
        <time>2022-03-02T15:24:27Z</time>
      </trkpt>
      <trkpt lat="49.94845" lon="2.17349">
        <ele>29</ele>
        <time>2022-03-02T15:24:28Z</time>
      </trkpt>
      <trkpt lat="49.94845" lon="2.17347">
        <ele>28.9</ele>
        <time>2022-03-02T15:24:29Z</time>
      </trkpt>
      <trkpt lat="49.94845" lon="2.17346">
        <ele>28.8</ele>
        <time>2022-03-02T15:24:30Z</time>
      </trkpt>
      <trkpt lat="49.94845" lon="2.17341">
        <ele>28.5</ele>
        <time>2022-03-02T15:24:31Z</time>
      </trkpt>
      <trkpt lat="49.94845" lon="2.1734">
        <ele>28.4</ele>
        <time>2022-03-02T15:24:32Z</time>
      </trkpt>
      <trkpt lat="49.94845" lon="2.17333">
        <ele>28</ele>
        <time>2022-03-02T15:24:34Z</time>
      </trkpt>
      <trkpt lat="49.94846" lon="2.17331">
        <ele>27.9</ele>
        <time>2022-03-02T15:24:35Z</time>
      </trkpt>
      <trkpt lat="49.94846" lon="2.17329">
        <ele>27.7</ele>
        <time>2022-03-02T15:24:36Z</time>
      </trkpt>
      <trkpt lat="49.94846" lon="2.17325">
        <ele>27.4</ele>
        <time>2022-03-02T15:24:37Z</time>
      </trkpt>
      <trkpt lat="49.94846" lon="2.17323">
        <ele>27.3</ele>
        <time>2022-03-02T15:24:38Z</time>
      </trkpt>
      <trkpt lat="49.94846" lon="2.1732">
        <ele>27.1</ele>
        <time>2022-03-02T15:24:39Z</time>
      </trkpt>
      <trkpt lat="49.94846" lon="2.17318">
        <ele>26.9</ele>
        <time>2022-03-02T15:24:40Z</time>
      </trkpt>
      <trkpt lat="49.94847" lon="2.17316">
        <ele>26.8</ele>
        <time>2022-03-02T15:24:41Z</time>
      </trkpt>
      <trkpt lat="49.94848" lon="2.17313">
        <ele>26.6</ele>
        <time>2022-03-02T15:24:43Z</time>
      </trkpt>
      <trkpt lat="49.94848" lon="2.1731">
        <ele>26.4</ele>
        <time>2022-03-02T15:24:44Z</time>
      </trkpt>
      <trkpt lat="49.94848" lon="2.17308">
        <ele>26.3</ele>
        <time>2022-03-02T15:24:45Z</time>
      </trkpt>
      <trkpt lat="49.94849" lon="2.17306">
        <ele>26.1</ele>
        <time>2022-03-02T15:24:46Z</time>
      </trkpt>
      <trkpt lat="49.9485" lon="2.17304">
        <ele>25.9</ele>
        <time>2022-03-02T15:24:47Z</time>
      </trkpt>
      <trkpt lat="49.94851" lon="2.17302">
        <ele>25.8</ele>
        <time>2022-03-02T15:24:48Z</time>
      </trkpt>
      <trkpt lat="49.94852" lon="2.173">
        <ele>25.6</ele>
        <time>2022-03-02T15:24:49Z</time>
      </trkpt>
      <trkpt lat="49.94852" lon="2.17298">
        <ele>25.5</ele>
        <time>2022-03-02T15:24:51Z</time>
      </trkpt>
      <trkpt lat="49.94853" lon="2.17296">
        <ele>25.3</ele>
        <time>2022-03-02T15:24:52Z</time>
      </trkpt>
      <trkpt lat="49.94854" lon="2.17295">
        <ele>25.2</ele>
        <time>2022-03-02T15:24:53Z</time>
      </trkpt>
      <trkpt lat="49.94855" lon="2.17294">
        <ele>25.1</ele>
        <time>2022-03-02T15:24:54Z</time>
      </trkpt>
      <trkpt lat="49.94856" lon="2.17292">
        <ele>25</ele>
        <time>2022-03-02T15:24:55Z</time>
      </trkpt>
      <trkpt lat="49.94857" lon="2.1729">
        <ele>24.8</ele>
        <time>2022-03-02T15:24:56Z</time>
      </trkpt>
      <trkpt lat="49.94857" lon="2.17289">
        <ele>24.7</ele>
        <time>2022-03-02T15:24:57Z</time>
      </trkpt>
      <trkpt lat="49.94858" lon="2.17288">
        <ele>24.6</ele>
        <time>2022-03-02T15:24:58Z</time>
      </trkpt>
      <trkpt lat="49.94859" lon="2.17285">
        <ele>24.4</ele>
        <time>2022-03-02T15:24:59Z</time>
      </trkpt>
      <trkpt lat="49.94859" lon="2.17284">
        <ele>24.3</ele>
        <time>2022-03-02T15:25:00Z</time>
      </trkpt>
      <trkpt lat="49.9486" lon="2.17283">
        <ele>24.2</ele>
        <time>2022-03-02T15:25:01Z</time>
      </trkpt>
      <trkpt lat="49.94861" lon="2.17281">
        <ele>24</ele>
        <time>2022-03-02T15:25:02Z</time>
      </trkpt>
      <trkpt lat="49.94862" lon="2.1728">
        <ele>23.9</ele>
        <time>2022-03-02T15:25:03Z</time>
      </trkpt>
      <trkpt lat="49.94863" lon="2.17279">
        <ele>23.8</ele>
        <time>2022-03-02T15:25:04Z</time>
      </trkpt>
      <trkpt lat="49.94864" lon="2.17276">
        <ele>23.6</ele>
        <time>2022-03-02T15:25:05Z</time>
      </trkpt>
      <trkpt lat="49.94864" lon="2.17275">
        <ele>23.5</ele>
        <time>2022-03-02T15:25:06Z</time>
      </trkpt>
      <trkpt lat="49.94865" lon="2.17274">
        <ele>23.5</ele>
        <time>2022-03-02T15:25:07Z</time>
      </trkpt>
      <trkpt lat="49.94866" lon="2.17271">
        <ele>23.2</ele>
        <time>2022-03-02T15:25:08Z</time>
      </trkpt>
      <trkpt lat="49.94867" lon="2.17269">
        <ele>23.1</ele>
        <time>2022-03-02T15:25:10Z</time>
      </trkpt>
      <trkpt lat="49.94867" lon="2.17268">
        <ele>23</ele>
        <time>2022-03-02T15:25:11Z</time>
      </trkpt>
      <trkpt lat="49.94868" lon="2.17267">
        <ele>22.9</ele>
        <time>2022-03-02T15:25:12Z</time>
      </trkpt>
      <trkpt lat="49.94869" lon="2.17266">
        <ele>22.7</ele>
        <time>2022-03-02T15:25:13Z</time>
      </trkpt>
      <trkpt lat="49.9487" lon="2.17263">
        <ele>22.5</ele>
        <time>2022-03-02T15:25:15Z</time>
      </trkpt>
      <trkpt lat="49.94871" lon="2.17262">
        <ele>22.4</ele>
        <time>2022-03-02T15:25:16Z</time>
      </trkpt>
      <trkpt lat="49.94871" lon="2.17262">
        <ele>22.3</ele>
        <time>2022-03-02T15:25:17Z</time>
      </trkpt>
      <trkpt lat="49.94873" lon="2.17259">
        <ele>22.1</ele>
        <time>2022-03-02T15:25:18Z</time>
      </trkpt>
      <trkpt lat="49.94873" lon="2.17258">
        <ele>22</ele>
        <time>2022-03-02T15:25:19Z</time>
      </trkpt>
      <trkpt lat="49.94874" lon="2.17257">
        <ele>21.9</ele>
        <time>2022-03-02T15:25:20Z</time>
      </trkpt>
      <trkpt lat="49.94875" lon="2.17254">
        <ele>21.8</ele>
        <time>2022-03-02T15:25:21Z</time>
      </trkpt>
      <trkpt lat="49.94875" lon="2.17253">
        <ele>21.7</ele>
        <time>2022-03-02T15:25:22Z</time>
      </trkpt>
      <trkpt lat="49.94875" lon="2.17252">
        <ele>21.7</ele>
        <time>2022-03-02T15:25:23Z</time>
      </trkpt>
      <trkpt lat="49.94876" lon="2.17249">
        <ele>21.5</ele>
        <time>2022-03-02T15:25:24Z</time>
      </trkpt>
      <trkpt lat="49.94876" lon="2.17247">
        <ele>21.4</ele>
        <time>2022-03-02T15:25:25Z</time>
      </trkpt>
      <trkpt lat="49.94876" lon="2.17246">
        <ele>21.3</ele>
        <time>2022-03-02T15:25:26Z</time>
      </trkpt>
      <trkpt lat="49.94876" lon="2.17244">
        <ele>21.2</ele>
        <time>2022-03-02T15:25:27Z</time>
      </trkpt>
      <trkpt lat="49.94876" lon="2.17242">
        <ele>21.2</ele>
        <time>2022-03-02T15:25:28Z</time>
      </trkpt>
      <trkpt lat="49.94877" lon="2.1724">
        <ele>21.1</ele>
        <time>2022-03-02T15:25:29Z</time>
      </trkpt>
      <trkpt lat="49.94877" lon="2.17238">
        <ele>20.9</ele>
        <time>2022-03-02T15:25:30Z</time>
      </trkpt>
      <trkpt lat="49.94877" lon="2.17236">
        <ele>20.8</ele>
        <time>2022-03-02T15:25:31Z</time>
      </trkpt>
      <trkpt lat="49.94878" lon="2.17232">
        <ele>20.7</ele>
        <time>2022-03-02T15:25:32Z</time>
      </trkpt>
      <trkpt lat="49.94878" lon="2.17231">
        <ele>20.6</ele>
        <time>2022-03-02T15:25:34Z</time>
      </trkpt>
      <trkpt lat="49.94878" lon="2.17229">
        <ele>20.6</ele>
        <time>2022-03-02T15:25:35Z</time>
      </trkpt>
      <trkpt lat="49.94878" lon="2.17227">
        <ele>20.6</ele>
        <time>2022-03-02T15:25:36Z</time>
      </trkpt>
      <trkpt lat="49.94878" lon="2.17225">
        <ele>20.5</ele>
        <time>2022-03-02T15:25:37Z</time>
      </trkpt>
      <trkpt lat="49.94878" lon="2.17223">
        <ele>20.5</ele>
        <time>2022-03-02T15:25:38Z</time>
      </trkpt>
      <trkpt lat="49.94878" lon="2.1722">
        <ele>20.4</ele>
        <time>2022-03-02T15:25:39Z</time>
      </trkpt>
      <trkpt lat="49.94878" lon="2.17218">
        <ele>20.4</ele>
        <time>2022-03-02T15:25:40Z</time>
      </trkpt>
      <trkpt lat="49.94878" lon="2.17216">
        <ele>20.3</ele>
        <time>2022-03-02T15:25:41Z</time>
      </trkpt>
      <trkpt lat="49.94879" lon="2.17212">
        <ele>20.2</ele>
        <time>2022-03-02T15:25:43Z</time>
      </trkpt>
      <trkpt lat="49.94879" lon="2.17211">
        <ele>20.2</ele>
        <time>2022-03-02T15:25:44Z</time>
      </trkpt>
      <trkpt lat="49.9488" lon="2.17208">
        <ele>20.1</ele>
        <time>2022-03-02T15:25:45Z</time>
      </trkpt>
      <trkpt lat="49.9488" lon="2.17206">
        <ele>20.1</ele>
        <time>2022-03-02T15:25:46Z</time>
      </trkpt>
      <trkpt lat="49.94881" lon="2.17205">
        <ele>20</ele>
        <time>2022-03-02T15:25:47Z</time>
      </trkpt>
      <trkpt lat="49.94882" lon="2.17201">
        <ele>19.9</ele>
        <time>2022-03-02T15:25:48Z</time>
      </trkpt>
      <trkpt lat="49.94882" lon="2.172">
        <ele>19.9</ele>
        <time>2022-03-02T15:25:50Z</time>
      </trkpt>
      <trkpt lat="49.94883" lon="2.17198">
        <ele>19.9</ele>
        <time>2022-03-02T15:25:51Z</time>
      </trkpt>
      <trkpt lat="49.94884" lon="2.17197">
        <ele>19.8</ele>
        <time>2022-03-02T15:25:52Z</time>
      </trkpt>
      <trkpt lat="49.94884" lon="2.17195">
        <ele>19.8</ele>
        <time>2022-03-02T15:25:53Z</time>
      </trkpt>
      <trkpt lat="49.94885" lon="2.17193">
        <ele>19.7</ele>
        <time>2022-03-02T15:25:54Z</time>
      </trkpt>
      <trkpt lat="49.94886" lon="2.17192">
        <ele>19.7</ele>
        <time>2022-03-02T15:25:55Z</time>
      </trkpt>
      <trkpt lat="49.94888" lon="2.17191">
        <ele>19.6</ele>
        <time>2022-03-02T15:25:56Z</time>
      </trkpt>
      <trkpt lat="49.94889" lon="2.17189">
        <ele>19.6</ele>
        <time>2022-03-02T15:25:58Z</time>
      </trkpt>
      <trkpt lat="49.94891" lon="2.17188">
        <ele>19.5</ele>
        <time>2022-03-02T15:25:59Z</time>
      </trkpt>
      <trkpt lat="49.94892" lon="2.17187">
        <ele>19.5</ele>
        <time>2022-03-02T15:26:00Z</time>
      </trkpt>
      <trkpt lat="49.94893" lon="2.17186">
        <ele>19.4</ele>
        <time>2022-03-02T15:26:01Z</time>
      </trkpt>
      <trkpt lat="49.94894" lon="2.17184">
        <ele>19.4</ele>
        <time>2022-03-02T15:26:02Z</time>
      </trkpt>
      <trkpt lat="49.94895" lon="2.17182">
        <ele>19.3</ele>
        <time>2022-03-02T15:26:03Z</time>
      </trkpt>
      <trkpt lat="49.94896" lon="2.17181">
        <ele>19.3</ele>
        <time>2022-03-02T15:26:04Z</time>
      </trkpt>
      <trkpt lat="49.94897" lon="2.1718">
        <ele>19.2</ele>
        <time>2022-03-02T15:26:05Z</time>
      </trkpt>
      <trkpt lat="49.94898" lon="2.17179">
        <ele>19.2</ele>
        <time>2022-03-02T15:26:07Z</time>
      </trkpt>
      <trkpt lat="49.94899" lon="2.17177">
        <ele>19.1</ele>
        <time>2022-03-02T15:26:08Z</time>
      </trkpt>
      <trkpt lat="49.94899" lon="2.17176">
        <ele>19.1</ele>
        <time>2022-03-02T15:26:09Z</time>
      </trkpt>
      <trkpt lat="49.949" lon="2.17175">
        <ele>19.1</ele>
        <time>2022-03-02T15:26:10Z</time>
      </trkpt>
      <trkpt lat="49.949" lon="2.17174">
        <ele>19</ele>
        <time>2022-03-02T15:26:11Z</time>
      </trkpt>
      <trkpt lat="49.94902" lon="2.17171">
        <ele>19</ele>
        <time>2022-03-02T15:26:12Z</time>
      </trkpt>
      <trkpt lat="49.94902" lon="2.1717">
        <ele>18.9</ele>
        <time>2022-03-02T15:26:13Z</time>
      </trkpt>
      <trkpt lat="49.94903" lon="2.17169">
        <ele>18.9</ele>
        <time>2022-03-02T15:26:14Z</time>
      </trkpt>
      <trkpt lat="49.94903" lon="2.17168">
        <ele>18.9</ele>
        <time>2022-03-02T15:26:15Z</time>
      </trkpt>
      <trkpt lat="49.94904" lon="2.17167">
        <ele>18.8</ele>
        <time>2022-03-02T15:26:16Z</time>
      </trkpt>
      <trkpt lat="49.94905" lon="2.17166">
        <ele>18.8</ele>
        <time>2022-03-02T15:26:17Z</time>
      </trkpt>
      <trkpt lat="49.94906" lon="2.17165">
        <ele>18.7</ele>
        <time>2022-03-02T15:26:18Z</time>
      </trkpt>
      <trkpt lat="49.94907" lon="2.17163">
        <ele>18.7</ele>
        <time>2022-03-02T15:26:19Z</time>
      </trkpt>
      <trkpt lat="49.94908" lon="2.17162">
        <ele>18.7</ele>
        <time>2022-03-02T15:26:20Z</time>
      </trkpt>
      <trkpt lat="49.94909" lon="2.17159">
        <ele>18.6</ele>
        <time>2022-03-02T15:26:21Z</time>
      </trkpt>
      <trkpt lat="49.9491" lon="2.17158">
        <ele>18.6</ele>
        <time>2022-03-02T15:26:23Z</time>
      </trkpt>
      <trkpt lat="49.9491" lon="2.17157">
        <ele>18.5</ele>
        <time>2022-03-02T15:26:24Z</time>
      </trkpt>
      <trkpt lat="49.94911" lon="2.17156">
        <ele>18.5</ele>
        <time>2022-03-02T15:26:25Z</time>
      </trkpt>
      <trkpt lat="49.94912" lon="2.17154">
        <ele>18.5</ele>
        <time>2022-03-02T15:26:26Z</time>
      </trkpt>
      <trkpt lat="49.94912" lon="2.17153">
        <ele>18.4</ele>
        <time>2022-03-02T15:26:27Z</time>
      </trkpt>
      <trkpt lat="49.94913" lon="2.17151">
        <ele>18.4</ele>
        <time>2022-03-02T15:26:29Z</time>
      </trkpt>
      <trkpt lat="49.94914" lon="2.1715">
        <ele>18.4</ele>
        <time>2022-03-02T15:26:30Z</time>
      </trkpt>
      <trkpt lat="49.94914" lon="2.17149">
        <ele>18.3</ele>
        <time>2022-03-02T15:26:31Z</time>
      </trkpt>
      <trkpt lat="49.94915" lon="2.17147">
        <ele>18.3</ele>
        <time>2022-03-02T15:26:32Z</time>
      </trkpt>
      <trkpt lat="49.94916" lon="2.17146">
        <ele>18.3</ele>
        <time>2022-03-02T15:26:33Z</time>
      </trkpt>
      <trkpt lat="49.94916" lon="2.17145">
        <ele>18.2</ele>
        <time>2022-03-02T15:26:34Z</time>
      </trkpt>
      <trkpt lat="49.94916" lon="2.17143">
        <ele>18.2</ele>
        <time>2022-03-02T15:26:35Z</time>
      </trkpt>
      <trkpt lat="49.94917" lon="2.17142">
        <ele>18.2</ele>
        <time>2022-03-02T15:26:36Z</time>
      </trkpt>
      <trkpt lat="49.94917" lon="2.1714">
        <ele>18.1</ele>
        <time>2022-03-02T15:26:37Z</time>
      </trkpt>
      <trkpt lat="49.94917" lon="2.17139">
        <ele>18.1</ele>
        <time>2022-03-02T15:26:38Z</time>
      </trkpt>
      <trkpt lat="49.94917" lon="2.17137">
        <ele>18.1</ele>
        <time>2022-03-02T15:26:39Z</time>
      </trkpt>
      <trkpt lat="49.94917" lon="2.17135">
        <ele>18.1</ele>
        <time>2022-03-02T15:26:40Z</time>
      </trkpt>
      <trkpt lat="49.94917" lon="2.17133">
        <ele>18</ele>
        <time>2022-03-02T15:26:41Z</time>
      </trkpt>
      <trkpt lat="49.94917" lon="2.17131">
        <ele>18</ele>
        <time>2022-03-02T15:26:43Z</time>
      </trkpt>
      <trkpt lat="49.94918" lon="2.17128">
        <ele>17.9</ele>
        <time>2022-03-02T15:26:44Z</time>
      </trkpt>
      <trkpt lat="49.94918" lon="2.17127">
        <ele>17.9</ele>
        <time>2022-03-02T15:26:45Z</time>
      </trkpt>
      <trkpt lat="49.94918" lon="2.17125">
        <ele>17.9</ele>
        <time>2022-03-02T15:26:46Z</time>
      </trkpt>
      <trkpt lat="49.94918" lon="2.17124">
        <ele>17.8</ele>
        <time>2022-03-02T15:26:47Z</time>
      </trkpt>
      <trkpt lat="49.94919" lon="2.17121">
        <ele>17.8</ele>
        <time>2022-03-02T15:26:49Z</time>
      </trkpt>
      <trkpt lat="49.94919" lon="2.1712">
        <ele>17.8</ele>
        <time>2022-03-02T15:26:50Z</time>
      </trkpt>
      <trkpt lat="49.9492" lon="2.17118">
        <ele>17.7</ele>
        <time>2022-03-02T15:26:51Z</time>
      </trkpt>
      <trkpt lat="49.9492" lon="2.17116">
        <ele>17.7</ele>
        <time>2022-03-02T15:26:52Z</time>
      </trkpt>
      <trkpt lat="49.94921" lon="2.17113">
        <ele>17.7</ele>
        <time>2022-03-02T15:26:53Z</time>
      </trkpt>
      <trkpt lat="49.94921" lon="2.17112">
        <ele>17.6</ele>
        <time>2022-03-02T15:26:54Z</time>
      </trkpt>
      <trkpt lat="49.94922" lon="2.17111">
        <ele>17.6</ele>
        <time>2022-03-02T15:26:55Z</time>
      </trkpt>
      <trkpt lat="49.94922" lon="2.17108">
        <ele>17.6</ele>
        <time>2022-03-02T15:26:56Z</time>
      </trkpt>
      <trkpt lat="49.94923" lon="2.17107">
        <ele>17.5</ele>
        <time>2022-03-02T15:26:57Z</time>
      </trkpt>
      <trkpt lat="49.94923" lon="2.17106">
        <ele>17.5</ele>
        <time>2022-03-02T15:26:58Z</time>
      </trkpt>
      <trkpt lat="49.94924" lon="2.17104">
        <ele>17.5</ele>
        <time>2022-03-02T15:26:59Z</time>
      </trkpt>
      <trkpt lat="49.94924" lon="2.17102">
        <ele>17.4</ele>
        <time>2022-03-02T15:27:00Z</time>
      </trkpt>
      <trkpt lat="49.94925" lon="2.17099">
        <ele>17.4</ele>
        <time>2022-03-02T15:27:02Z</time>
      </trkpt>
      <trkpt lat="49.94925" lon="2.17097">
        <ele>17.4</ele>
        <time>2022-03-02T15:27:03Z</time>
      </trkpt>
      <trkpt lat="49.94926" lon="2.17096">
        <ele>17.3</ele>
        <time>2022-03-02T15:27:04Z</time>
      </trkpt>
      <trkpt lat="49.94926" lon="2.17094">
        <ele>17.3</ele>
        <time>2022-03-02T15:27:05Z</time>
      </trkpt>
      <trkpt lat="49.94926" lon="2.17092">
        <ele>17.3</ele>
        <time>2022-03-02T15:27:06Z</time>
      </trkpt>
      <trkpt lat="49.94926" lon="2.17089">
        <ele>17.3</ele>
        <time>2022-03-02T15:27:07Z</time>
      </trkpt>
      <trkpt lat="49.94926" lon="2.17087">
        <ele>17.3</ele>
        <time>2022-03-02T15:27:08Z</time>
      </trkpt>
      <trkpt lat="49.94927" lon="2.17085">
        <ele>17.3</ele>
        <time>2022-03-02T15:27:09Z</time>
      </trkpt>
      <trkpt lat="49.94927" lon="2.17082">
        <ele>17.3</ele>
        <time>2022-03-02T15:27:10Z</time>
      </trkpt>
      <trkpt lat="49.94927" lon="2.1708">
        <ele>17.3</ele>
        <time>2022-03-02T15:27:12Z</time>
      </trkpt>
      <trkpt lat="49.94928" lon="2.17079">
        <ele>17.3</ele>
        <time>2022-03-02T15:27:13Z</time>
      </trkpt>
      <trkpt lat="49.94928" lon="2.17077">
        <ele>17.3</ele>
        <time>2022-03-02T15:27:14Z</time>
      </trkpt>
      <trkpt lat="49.94927" lon="2.17074">
        <ele>17.3</ele>
        <time>2022-03-02T15:27:15Z</time>
      </trkpt>
      <trkpt lat="49.94927" lon="2.17073">
        <ele>17.3</ele>
        <time>2022-03-02T15:27:16Z</time>
      </trkpt>
      <trkpt lat="49.94927" lon="2.17072">
        <ele>17.3</ele>
        <time>2022-03-02T15:27:17Z</time>
      </trkpt>
      <trkpt lat="49.94926" lon="2.1707">
        <ele>17.3</ele>
        <time>2022-03-02T15:27:18Z</time>
      </trkpt>
      <trkpt lat="49.94926" lon="2.17068">
        <ele>17.3</ele>
        <time>2022-03-02T15:27:19Z</time>
      </trkpt>
      <trkpt lat="49.94925" lon="2.17066">
        <ele>17.3</ele>
        <time>2022-03-02T15:27:20Z</time>
      </trkpt>
      <trkpt lat="49.94924" lon="2.17065">
        <ele>17.3</ele>
        <time>2022-03-02T15:27:21Z</time>
      </trkpt>
      <trkpt lat="49.94922" lon="2.17064">
        <ele>17.3</ele>
        <time>2022-03-02T15:27:23Z</time>
      </trkpt>
      <trkpt lat="49.94922" lon="2.17064">
        <ele>17.3</ele>
        <time>2022-03-02T15:27:24Z</time>
      </trkpt>
      <trkpt lat="49.94921" lon="2.17063">
        <ele>17.3</ele>
        <time>2022-03-02T15:27:25Z</time>
      </trkpt>
      <trkpt lat="49.9492" lon="2.17063">
        <ele>17.3</ele>
        <time>2022-03-02T15:27:26Z</time>
      </trkpt>
      <trkpt lat="49.94919" lon="2.17063">
        <ele>17.3</ele>
        <time>2022-03-02T15:27:27Z</time>
      </trkpt>
      <trkpt lat="49.94918" lon="2.17063">
        <ele>17.3</ele>
        <time>2022-03-02T15:27:28Z</time>
      </trkpt>
      <trkpt lat="49.94917" lon="2.17063">
        <ele>17.3</ele>
        <time>2022-03-02T15:27:29Z</time>
      </trkpt>
      <trkpt lat="49.94916" lon="2.17063">
        <ele>17.3</ele>
        <time>2022-03-02T15:27:31Z</time>
      </trkpt>
      <trkpt lat="49.94915" lon="2.17063">
        <ele>17.3</ele>
        <time>2022-03-02T15:27:32Z</time>
      </trkpt>
      <trkpt lat="49.94914" lon="2.17063">
        <ele>17.3</ele>
        <time>2022-03-02T15:27:33Z</time>
      </trkpt>
      <trkpt lat="49.94913" lon="2.17063">
        <ele>17.3</ele>
        <time>2022-03-02T15:27:34Z</time>
      </trkpt>
      <trkpt lat="49.94912" lon="2.17063">
        <ele>17.3</ele>
        <time>2022-03-02T15:27:35Z</time>
      </trkpt>
      <trkpt lat="49.94911" lon="2.17063">
        <ele>17.3</ele>
        <time>2022-03-02T15:27:36Z</time>
      </trkpt>
      <trkpt lat="49.9491" lon="2.17063">
        <ele>17.3</ele>
        <time>2022-03-02T15:27:38Z</time>
      </trkpt>
      <trkpt lat="49.94909" lon="2.17063">
        <ele>17.3</ele>
        <time>2022-03-02T15:27:39Z</time>
      </trkpt>
      <trkpt lat="49.94908" lon="2.17062">
        <ele>17.3</ele>
        <time>2022-03-02T15:27:40Z</time>
      </trkpt>
      <trkpt lat="49.94908" lon="2.17061">
        <ele>17.3</ele>
        <time>2022-03-02T15:27:41Z</time>
      </trkpt>
      <trkpt lat="49.94907" lon="2.1706">
        <ele>17.3</ele>
        <time>2022-03-02T15:27:42Z</time>
      </trkpt>
      <trkpt lat="49.94906" lon="2.17058">
        <ele>17.3</ele>
        <time>2022-03-02T15:27:43Z</time>
      </trkpt>
      <trkpt lat="49.94906" lon="2.17057">
        <ele>17.3</ele>
        <time>2022-03-02T15:27:45Z</time>
      </trkpt>
      <trkpt lat="49.94905" lon="2.17056">
        <ele>17.3</ele>
        <time>2022-03-02T15:27:46Z</time>
      </trkpt>
      <trkpt lat="49.94905" lon="2.17056">
        <ele>17.3</ele>
        <time>2022-03-02T15:27:47Z</time>
      </trkpt>
      <trkpt lat="49.94904" lon="2.17055">
        <ele>17.3</ele>
        <time>2022-03-02T15:27:48Z</time>
      </trkpt>
      <trkpt lat="49.94903" lon="2.17055">
        <ele>17.3</ele>
        <time>2022-03-02T15:27:49Z</time>
      </trkpt>
      <trkpt lat="49.94903" lon="2.17055">
        <ele>17.3</ele>
        <time>2022-03-02T15:27:50Z</time>
      </trkpt>
      <trkpt lat="49.94903" lon="2.17055">
        <ele>17.3</ele>
        <time>2022-03-02T15:27:51Z</time>
      </trkpt>
      <trkpt lat="49.94903" lon="2.17055">
        <ele>17.3</ele>
        <time>2022-03-02T15:27:52Z</time>
      </trkpt>
      <trkpt lat="49.94903" lon="2.17056">
        <ele>17.3</ele>
        <time>2022-03-02T15:27:53Z</time>
      </trkpt>
      <trkpt lat="49.94903" lon="2.17056">
        <ele>17.3</ele>
        <time>2022-03-02T15:27:54Z</time>
      </trkpt>
      <trkpt lat="49.94902" lon="2.17056">
        <ele>17.3</ele>
        <time>2022-03-02T15:27:55Z</time>
      </trkpt>
      <trkpt lat="49.94902" lon="2.17057">
        <ele>17.3</ele>
        <time>2022-03-02T15:27:56Z</time>
      </trkpt>
      <trkpt lat="49.94902" lon="2.17057">
        <ele>17.3</ele>
        <time>2022-03-02T15:27:57Z</time>
      </trkpt>
      <trkpt lat="49.94902" lon="2.17057">
        <ele>17.3</ele>
        <time>2022-03-02T15:27:58Z</time>
      </trkpt>
      <trkpt lat="49.94902" lon="2.17057">
        <ele>17.3</ele>
        <time>2022-03-02T15:27:59Z</time>
      </trkpt>
      <trkpt lat="49.94902" lon="2.17057">
        <ele>17.3</ele>
        <time>2022-03-02T15:28:00Z</time>
      </trkpt>
      <trkpt lat="49.94902" lon="2.17058">
        <ele>17.3</ele>
        <time>2022-03-02T15:28:01Z</time>
      </trkpt>
      <trkpt lat="49.94902" lon="2.17058">
        <ele>17.3</ele>
        <time>2022-03-02T15:28:02Z</time>
      </trkpt>
      <trkpt lat="49.94902" lon="2.17058">
        <ele>17.3</ele>
        <time>2022-03-02T15:28:03Z</time>
      </trkpt>
      <trkpt lat="49.94902" lon="2.17057">
        <ele>17.3</ele>
        <time>2022-03-02T15:28:04Z</time>
      </trkpt>
      <trkpt lat="49.94902" lon="2.17057">
        <ele>17.3</ele>
        <time>2022-03-02T15:28:05Z</time>
      </trkpt>
      <trkpt lat="49.94902" lon="2.17057">
        <ele>17.3</ele>
        <time>2022-03-02T15:28:06Z</time>
      </trkpt>
      <trkpt lat="49.94903" lon="2.17057">
        <ele>17.3</ele>
        <time>2022-03-02T15:28:07Z</time>
      </trkpt>
      <trkpt lat="49.94903" lon="2.17057">
        <ele>17.3</ele>
        <time>2022-03-02T15:28:08Z</time>
      </trkpt>
      <trkpt lat="49.94904" lon="2.17057">
        <ele>17.3</ele>
        <time>2022-03-02T15:28:09Z</time>
      </trkpt>
      <trkpt lat="49.94904" lon="2.17057">
        <ele>17.3</ele>
        <time>2022-03-02T15:28:10Z</time>
      </trkpt>
      <trkpt lat="49.94904" lon="2.17057">
        <ele>17.3</ele>
        <time>2022-03-02T15:28:11Z</time>
      </trkpt>
      <trkpt lat="49.94904" lon="2.17056">
        <ele>17.3</ele>
        <time>2022-03-02T15:28:12Z</time>
      </trkpt>
      <trkpt lat="49.94905" lon="2.17056">
        <ele>17.3</ele>
        <time>2022-03-02T15:28:13Z</time>
      </trkpt>
      <trkpt lat="49.94905" lon="2.17056">
        <ele>17.3</ele>
        <time>2022-03-02T15:28:14Z</time>
      </trkpt>
      <trkpt lat="49.94905" lon="2.17056">
        <ele>17.3</ele>
        <time>2022-03-02T15:28:15Z</time>
      </trkpt>
      <trkpt lat="49.94905" lon="2.17057">
        <ele>17.3</ele>
        <time>2022-03-02T15:28:16Z</time>
      </trkpt>
      <trkpt lat="49.94904" lon="2.17057">
        <ele>17.3</ele>
        <time>2022-03-02T15:28:17Z</time>
      </trkpt>
      <trkpt lat="49.94903" lon="2.17056">
        <ele>17.3</ele>
        <time>2022-03-02T15:28:18Z</time>
      </trkpt>
      <trkpt lat="49.94903" lon="2.17056">
        <ele>17.3</ele>
        <time>2022-03-02T15:28:19Z</time>
      </trkpt>
      <trkpt lat="49.94904" lon="2.17055">
        <ele>17.3</ele>
        <time>2022-03-02T15:28:20Z</time>
      </trkpt>
      <trkpt lat="49.94904" lon="2.17054">
        <ele>17.3</ele>
        <time>2022-03-02T15:28:21Z</time>
      </trkpt>
      <trkpt lat="49.94905" lon="2.17054">
        <ele>17.3</ele>
        <time>2022-03-02T15:28:22Z</time>
      </trkpt>
      <trkpt lat="49.94905" lon="2.17053">
        <ele>17.3</ele>
        <time>2022-03-02T15:28:23Z</time>
      </trkpt>
      <trkpt lat="49.94905" lon="2.17053">
        <ele>17.3</ele>
        <time>2022-03-02T15:28:24Z</time>
      </trkpt>
      <trkpt lat="49.94905" lon="2.17053">
        <ele>17.3</ele>
        <time>2022-03-02T15:28:25Z</time>
      </trkpt>
      <trkpt lat="49.94905" lon="2.17052">
        <ele>17.3</ele>
        <time>2022-03-02T15:28:26Z</time>
      </trkpt>
      <trkpt lat="49.94905" lon="2.17052">
        <ele>17.3</ele>
        <time>2022-03-02T15:28:27Z</time>
      </trkpt>
      <trkpt lat="49.94905" lon="2.17051">
        <ele>17.3</ele>
        <time>2022-03-02T15:28:28Z</time>
      </trkpt>
      <trkpt lat="49.94905" lon="2.1705">
        <ele>17.3</ele>
        <time>2022-03-02T15:28:29Z</time>
      </trkpt>
      <trkpt lat="49.94905" lon="2.1705">
        <ele>17.3</ele>
        <time>2022-03-02T15:28:30Z</time>
      </trkpt>
      <trkpt lat="49.94905" lon="2.1705">
        <ele>17.3</ele>
        <time>2022-03-02T15:28:31Z</time>
      </trkpt>
      <trkpt lat="49.94905" lon="2.1705">
        <ele>17.3</ele>
        <time>2022-03-02T15:28:32Z</time>
      </trkpt>
      <trkpt lat="49.94905" lon="2.17051">
        <ele>17.3</ele>
        <time>2022-03-02T15:28:33Z</time>
      </trkpt>
      <trkpt lat="49.94905" lon="2.17052">
        <ele>17.3</ele>
        <time>2022-03-02T15:28:34Z</time>
      </trkpt>
      <trkpt lat="49.94905" lon="2.17052">
        <ele>17.3</ele>
        <time>2022-03-02T15:28:35Z</time>
      </trkpt>
      <trkpt lat="49.94905" lon="2.17053">
        <ele>17.3</ele>
        <time>2022-03-02T15:28:36Z</time>
      </trkpt>
      <trkpt lat="49.94905" lon="2.17053">
        <ele>17.3</ele>
        <time>2022-03-02T15:28:37Z</time>
      </trkpt>
      <trkpt lat="49.94905" lon="2.17053">
        <ele>17.3</ele>
        <time>2022-03-02T15:28:38Z</time>
      </trkpt>
      <trkpt lat="49.94905" lon="2.17053">
        <ele>17.3</ele>
        <time>2022-03-02T15:28:39Z</time>
      </trkpt>
      <trkpt lat="49.94905" lon="2.17053">
        <ele>17.3</ele>
        <time>2022-03-02T15:28:40Z</time>
      </trkpt>
      <trkpt lat="49.94905" lon="2.17053">
        <ele>17.3</ele>
        <time>2022-03-02T15:28:41Z</time>
      </trkpt>
      <trkpt lat="49.94905" lon="2.17054">
        <ele>17.3</ele>
        <time>2022-03-02T15:28:42Z</time>
      </trkpt>
      <trkpt lat="49.94905" lon="2.17054">
        <ele>17.3</ele>
        <time>2022-03-02T15:28:43Z</time>
      </trkpt>
      <trkpt lat="49.94905" lon="2.17054">
        <ele>17.3</ele>
        <time>2022-03-02T15:28:44Z</time>
      </trkpt>
      <trkpt lat="49.94905" lon="2.17054">
        <ele>17.3</ele>
        <time>2022-03-02T15:28:45Z</time>
      </trkpt>
      <trkpt lat="49.94905" lon="2.17054">
        <ele>17.3</ele>
        <time>2022-03-02T15:28:46Z</time>
      </trkpt>
      <trkpt lat="49.94905" lon="2.17054">
        <ele>17.3</ele>
        <time>2022-03-02T15:28:47Z</time>
      </trkpt>
      <trkpt lat="49.94905" lon="2.17054">
        <ele>17.3</ele>
        <time>2022-03-02T15:28:48Z</time>
      </trkpt>
      <trkpt lat="49.94905" lon="2.17054">
        <ele>17.3</ele>
        <time>2022-03-02T15:28:49Z</time>
      </trkpt>
      <trkpt lat="49.94904" lon="2.17054">
        <ele>17.3</ele>
        <time>2022-03-02T15:28:50Z</time>
      </trkpt>
      <trkpt lat="49.94904" lon="2.17054">
        <ele>17.3</ele>
        <time>2022-03-02T15:28:51Z</time>
      </trkpt>
      <trkpt lat="49.94904" lon="2.17053">
        <ele>17.3</ele>
        <time>2022-03-02T15:28:52Z</time>
      </trkpt>
      <trkpt lat="49.94904" lon="2.17053">
        <ele>17.3</ele>
        <time>2022-03-02T15:28:53Z</time>
      </trkpt>
      <trkpt lat="49.94904" lon="2.17053">
        <ele>17.3</ele>
        <time>2022-03-02T15:28:54Z</time>
      </trkpt>
      <trkpt lat="49.94904" lon="2.17053">
        <ele>17.3</ele>
        <time>2022-03-02T15:28:55Z</time>
      </trkpt>
      <trkpt lat="49.94904" lon="2.17053">
        <ele>17.3</ele>
        <time>2022-03-02T15:28:56Z</time>
      </trkpt>
      <trkpt lat="49.94904" lon="2.17053">
        <ele>17.3</ele>
        <time>2022-03-02T15:28:57Z</time>
      </trkpt>
      <trkpt lat="49.94904" lon="2.17053">
        <ele>17.3</ele>
        <time>2022-03-02T15:28:58Z</time>
      </trkpt>
      <trkpt lat="49.94904" lon="2.17053">
        <ele>17.3</ele>
        <time>2022-03-02T15:28:59Z</time>
      </trkpt>
      <trkpt lat="49.94904" lon="2.17053">
        <ele>17.3</ele>
        <time>2022-03-02T15:29:00Z</time>
      </trkpt>
      <trkpt lat="49.94904" lon="2.17053">
        <ele>17.3</ele>
        <time>2022-03-02T15:29:01Z</time>
      </trkpt>
      <trkpt lat="49.94904" lon="2.17053">
        <ele>17.3</ele>
        <time>2022-03-02T15:29:02Z</time>
      </trkpt>
      <trkpt lat="49.94904" lon="2.17053">
        <ele>17.3</ele>
        <time>2022-03-02T15:29:03Z</time>
      </trkpt>
      <trkpt lat="49.94904" lon="2.17053">
        <ele>17.3</ele>
        <time>2022-03-02T15:29:04Z</time>
      </trkpt>
      <trkpt lat="49.94904" lon="2.17053">
        <ele>17.3</ele>
        <time>2022-03-02T15:29:05Z</time>
      </trkpt>
      <trkpt lat="49.94904" lon="2.17053">
        <ele>17.3</ele>
        <time>2022-03-02T15:29:06Z</time>
      </trkpt>
      <trkpt lat="49.94904" lon="2.17053">
        <ele>17.3</ele>
        <time>2022-03-02T15:29:07Z</time>
      </trkpt>
      <trkpt lat="49.94904" lon="2.17053">
        <ele>17.3</ele>
        <time>2022-03-02T15:29:08Z</time>
      </trkpt>
      <trkpt lat="49.94904" lon="2.17053">
        <ele>17.3</ele>
        <time>2022-03-02T15:29:09Z</time>
      </trkpt>
      <trkpt lat="49.94904" lon="2.17053">
        <ele>17.3</ele>
        <time>2022-03-02T15:29:10Z</time>
      </trkpt>
      <trkpt lat="49.94904" lon="2.17053">
        <ele>17.3</ele>
        <time>2022-03-02T15:29:11Z</time>
      </trkpt>
      <trkpt lat="49.94904" lon="2.17053">
        <ele>17.3</ele>
        <time>2022-03-02T15:29:12Z</time>
      </trkpt>
      <trkpt lat="49.94904" lon="2.17053">
        <ele>17.3</ele>
        <time>2022-03-02T15:29:13Z</time>
      </trkpt>
      <trkpt lat="49.94904" lon="2.17053">
        <ele>17.3</ele>
        <time>2022-03-02T15:29:14Z</time>
      </trkpt>
      <trkpt lat="49.94904" lon="2.17053">
        <ele>17.3</ele>
        <time>2022-03-02T15:29:15Z</time>
      </trkpt>
      <trkpt lat="49.94904" lon="2.17053">
        <ele>17.3</ele>
        <time>2022-03-02T15:29:16Z</time>
      </trkpt>
      <trkpt lat="49.94904" lon="2.17053">
        <ele>17.3</ele>
        <time>2022-03-02T15:29:17Z</time>
      </trkpt>
      <trkpt lat="49.94904" lon="2.17053">
        <ele>17.3</ele>
        <time>2022-03-02T15:29:18Z</time>
      </trkpt>
      <trkpt lat="49.94904" lon="2.17053">
        <ele>17.3</ele>
        <time>2022-03-02T15:29:19Z</time>
      </trkpt>
      <trkpt lat="49.94904" lon="2.17053">
        <ele>17.3</ele>
        <time>2022-03-02T15:29:20Z</time>
      </trkpt>
      <trkpt lat="49.94904" lon="2.17053">
        <ele>17.3</ele>
        <time>2022-03-02T15:29:21Z</time>
      </trkpt>
      <trkpt lat="49.94904" lon="2.17053">
        <ele>17.3</ele>
        <time>2022-03-02T15:29:22Z</time>
      </trkpt>
      <trkpt lat="49.94904" lon="2.17053">
        <ele>17.3</ele>
        <time>2022-03-02T15:29:23Z</time>
      </trkpt>
      <trkpt lat="49.94904" lon="2.17053">
        <ele>17.3</ele>
        <time>2022-03-02T15:29:24Z</time>
      </trkpt>
      <trkpt lat="49.94904" lon="2.17053">
        <ele>17.3</ele>
        <time>2022-03-02T15:29:25Z</time>
      </trkpt>
      <trkpt lat="49.94904" lon="2.17053">
        <ele>17.3</ele>
        <time>2022-03-02T15:29:26Z</time>
      </trkpt>
      <trkpt lat="49.94904" lon="2.17053">
        <ele>17.3</ele>
        <time>2022-03-02T15:29:27Z</time>
      </trkpt>
      <trkpt lat="49.94904" lon="2.17053">
        <ele>17.3</ele>
        <time>2022-03-02T15:29:28Z</time>
      </trkpt>
      <trkpt lat="49.94904" lon="2.17053">
        <ele>17.3</ele>
        <time>2022-03-02T15:29:29Z</time>
      </trkpt>
      <trkpt lat="49.94904" lon="2.17053">
        <ele>17.3</ele>
        <time>2022-03-02T15:29:30Z</time>
      </trkpt>
      <trkpt lat="49.94904" lon="2.17053">
        <ele>17.3</ele>
        <time>2022-03-02T15:29:31Z</time>
      </trkpt>
      <trkpt lat="49.94904" lon="2.17053">
        <ele>17.3</ele>
        <time>2022-03-02T15:29:32Z</time>
      </trkpt>
      <trkpt lat="49.94904" lon="2.17053">
        <ele>17.3</ele>
        <time>2022-03-02T15:29:33Z</time>
      </trkpt>
      <trkpt lat="49.94904" lon="2.17053">
        <ele>17.3</ele>
        <time>2022-03-02T15:29:34Z</time>
      </trkpt>
      <trkpt lat="49.94904" lon="2.17053">
        <ele>17.3</ele>
        <time>2022-03-02T15:29:35Z</time>
      </trkpt>
      <trkpt lat="49.94904" lon="2.17053">
        <ele>17.3</ele>
        <time>2022-03-02T15:29:36Z</time>
      </trkpt>
      <trkpt lat="49.94904" lon="2.17053">
        <ele>17.3</ele>
        <time>2022-03-02T15:29:37Z</time>
      </trkpt>
      <trkpt lat="49.94904" lon="2.17053">
        <ele>17.3</ele>
        <time>2022-03-02T15:29:38Z</time>
      </trkpt>
      <trkpt lat="49.94904" lon="2.17053">
        <ele>17.3</ele>
        <time>2022-03-02T15:29:39Z</time>
      </trkpt>
      <trkpt lat="49.94904" lon="2.17053">
        <ele>17.3</ele>
        <time>2022-03-02T15:29:40Z</time>
      </trkpt>
      <trkpt lat="49.94904" lon="2.17053">
        <ele>17.3</ele>
        <time>2022-03-02T15:29:41Z</time>
      </trkpt>
      <trkpt lat="49.94904" lon="2.17053">
        <ele>17.3</ele>
        <time>2022-03-02T15:29:42Z</time>
      </trkpt>
      <trkpt lat="49.94904" lon="2.17053">
        <ele>17.3</ele>
        <time>2022-03-02T15:29:43Z</time>
      </trkpt>
      <trkpt lat="49.94904" lon="2.17053">
        <ele>17.3</ele>
        <time>2022-03-02T15:29:44Z</time>
      </trkpt>
      <trkpt lat="49.94904" lon="2.17053">
        <ele>17.3</ele>
        <time>2022-03-02T15:29:45Z</time>
      </trkpt>
      <trkpt lat="49.94904" lon="2.17053">
        <ele>17.3</ele>
        <time>2022-03-02T15:29:46Z</time>
      </trkpt>
      <trkpt lat="49.94904" lon="2.17053">
        <ele>17.3</ele>
        <time>2022-03-02T15:29:47Z</time>
      </trkpt>
      <trkpt lat="49.94904" lon="2.17053">
        <ele>17.3</ele>
        <time>2022-03-02T15:29:48Z</time>
      </trkpt>
      <trkpt lat="49.94904" lon="2.17053">
        <ele>17.3</ele>
        <time>2022-03-02T15:29:49Z</time>
      </trkpt>
      <trkpt lat="49.94904" lon="2.17053">
        <ele>17.3</ele>
        <time>2022-03-02T15:29:50Z</time>
      </trkpt>
      <trkpt lat="49.94904" lon="2.17053">
        <ele>17.3</ele>
        <time>2022-03-02T15:29:51Z</time>
      </trkpt>
      <trkpt lat="49.94904" lon="2.17053">
        <ele>17.3</ele>
        <time>2022-03-02T15:29:52Z</time>
      </trkpt>
      <trkpt lat="49.94904" lon="2.17053">
        <ele>17.3</ele>
        <time>2022-03-02T15:29:53Z</time>
      </trkpt>
      <trkpt lat="49.94904" lon="2.17053">
        <ele>17.3</ele>
        <time>2022-03-02T15:29:54Z</time>
      </trkpt>
      <trkpt lat="49.94904" lon="2.17053">
        <ele>17.3</ele>
        <time>2022-03-02T15:29:55Z</time>
      </trkpt>
      <trkpt lat="49.94904" lon="2.17053">
        <ele>17.3</ele>
        <time>2022-03-02T15:29:56Z</time>
      </trkpt>
      <trkpt lat="49.94904" lon="2.17053">
        <ele>17.3</ele>
        <time>2022-03-02T15:29:57Z</time>
      </trkpt>
      <trkpt lat="49.94904" lon="2.17053">
        <ele>17.3</ele>
        <time>2022-03-02T15:29:58Z</time>
      </trkpt>
      <trkpt lat="49.94904" lon="2.17053">
        <ele>17.3</ele>
        <time>2022-03-02T15:29:59Z</time>
      </trkpt>
      <trkpt lat="49.94904" lon="2.17053">
        <ele>17.3</ele>
        <time>2022-03-02T15:30:00Z</time>
      </trkpt>
      <trkpt lat="49.94904" lon="2.17053">
        <ele>17.3</ele>
        <time>2022-03-02T15:30:01Z</time>
      </trkpt>
      <trkpt lat="49.94904" lon="2.17053">
        <ele>17.3</ele>
        <time>2022-03-02T15:30:02Z</time>
      </trkpt>
      <trkpt lat="49.94904" lon="2.17053">
        <ele>17.3</ele>
        <time>2022-03-02T15:30:03Z</time>
      </trkpt>
      <trkpt lat="49.94904" lon="2.17053">
        <ele>17.3</ele>
        <time>2022-03-02T15:30:04Z</time>
      </trkpt>
      <trkpt lat="49.94904" lon="2.17053">
        <ele>17.3</ele>
        <time>2022-03-02T15:30:05Z</time>
      </trkpt>
      <trkpt lat="49.94904" lon="2.17053">
        <ele>17.3</ele>
        <time>2022-03-02T15:30:06Z</time>
      </trkpt>
      <trkpt lat="49.94904" lon="2.17053">
        <ele>17.3</ele>
        <time>2022-03-02T15:30:07Z</time>
      </trkpt>
      <trkpt lat="49.94904" lon="2.17053">
        <ele>17.3</ele>
        <time>2022-03-02T15:30:08Z</time>
      </trkpt>
      <trkpt lat="49.94904" lon="2.17053">
        <ele>17.3</ele>
        <time>2022-03-02T15:30:09Z</time>
      </trkpt>
      <trkpt lat="49.94904" lon="2.17053">
        <ele>17.3</ele>
        <time>2022-03-02T15:30:10Z</time>
      </trkpt>
      <trkpt lat="49.94904" lon="2.17053">
        <ele>17.3</ele>
        <time>2022-03-02T15:30:11Z</time>
      </trkpt>
      <trkpt lat="49.94904" lon="2.17053">
        <ele>17.3</ele>
        <time>2022-03-02T15:30:12Z</time>
      </trkpt>
      <trkpt lat="49.94904" lon="2.17053">
        <ele>17.3</ele>
        <time>2022-03-02T15:30:13Z</time>
      </trkpt>
      <trkpt lat="49.94904" lon="2.17053">
        <ele>17.3</ele>
        <time>2022-03-02T15:30:14Z</time>
      </trkpt>
      <trkpt lat="49.94904" lon="2.17053">
        <ele>17.3</ele>
        <time>2022-03-02T15:30:15Z</time>
      </trkpt>
      <trkpt lat="49.94904" lon="2.17053">
        <ele>17.3</ele>
        <time>2022-03-02T15:30:16Z</time>
      </trkpt>
      <trkpt lat="49.94904" lon="2.17053">
        <ele>17.3</ele>
        <time>2022-03-02T15:30:17Z</time>
      </trkpt>
      <trkpt lat="49.94904" lon="2.17053">
        <ele>17.3</ele>
        <time>2022-03-02T15:30:18Z</time>
      </trkpt>
      <trkpt lat="49.94904" lon="2.17053">
        <ele>17.3</ele>
        <time>2022-03-02T15:30:19Z</time>
      </trkpt>
      <trkpt lat="49.94904" lon="2.17053">
        <ele>17.3</ele>
        <time>2022-03-02T15:30:20Z</time>
      </trkpt>
      <trkpt lat="49.94904" lon="2.17053">
        <ele>17.3</ele>
        <time>2022-03-02T15:30:21Z</time>
      </trkpt>
      <trkpt lat="49.94905" lon="2.17054">
        <ele>17.3</ele>
        <time>2022-03-02T15:30:22Z</time>
      </trkpt>
      <trkpt lat="49.94906" lon="2.17054">
        <ele>17.3</ele>
        <time>2022-03-02T15:30:23Z</time>
      </trkpt>
      <trkpt lat="49.94906" lon="2.17053">
        <ele>17.3</ele>
        <time>2022-03-02T15:30:24Z</time>
      </trkpt>
      <trkpt lat="49.94906" lon="2.17054">
        <ele>17.3</ele>
        <time>2022-03-02T15:30:25Z</time>
      </trkpt>
      <trkpt lat="49.94907" lon="2.17054">
        <ele>17.3</ele>
        <time>2022-03-02T15:30:26Z</time>
      </trkpt>
      <trkpt lat="49.94907" lon="2.17054">
        <ele>17.3</ele>
        <time>2022-03-02T15:30:27Z</time>
      </trkpt>
      <trkpt lat="49.94907" lon="2.17054">
        <ele>17.3</ele>
        <time>2022-03-02T15:30:28Z</time>
      </trkpt>
      <trkpt lat="49.94907" lon="2.17054">
        <ele>17.3</ele>
        <time>2022-03-02T15:30:29Z</time>
      </trkpt>
      <trkpt lat="49.94907" lon="2.17054">
        <ele>17.3</ele>
        <time>2022-03-02T15:30:30Z</time>
      </trkpt>
      <trkpt lat="49.94907" lon="2.17054">
        <ele>17.3</ele>
        <time>2022-03-02T15:30:31Z</time>
      </trkpt>
      <trkpt lat="49.94907" lon="2.17054">
        <ele>17.3</ele>
        <time>2022-03-02T15:30:32Z</time>
      </trkpt>
      <trkpt lat="49.94907" lon="2.17054">
        <ele>17.3</ele>
        <time>2022-03-02T15:30:33Z</time>
      </trkpt>
      <trkpt lat="49.94907" lon="2.17054">
        <ele>17.3</ele>
        <time>2022-03-02T15:30:34Z</time>
      </trkpt>
      <trkpt lat="49.94907" lon="2.17054">
        <ele>17.3</ele>
        <time>2022-03-02T15:30:35Z</time>
      </trkpt>
      <trkpt lat="49.94907" lon="2.17054">
        <ele>17.3</ele>
        <time>2022-03-02T15:30:36Z</time>
      </trkpt>
      <trkpt lat="49.94907" lon="2.17054">
        <ele>17.3</ele>
        <time>2022-03-02T15:30:37Z</time>
      </trkpt>
      <trkpt lat="49.94907" lon="2.17054">
        <ele>17.3</ele>
        <time>2022-03-02T15:30:38Z</time>
      </trkpt>
      <trkpt lat="49.94907" lon="2.17054">
        <ele>17.3</ele>
        <time>2022-03-02T15:30:39Z</time>
      </trkpt>
      <trkpt lat="49.94907" lon="2.17054">
        <ele>17.3</ele>
        <time>2022-03-02T15:30:40Z</time>
      </trkpt>
      <trkpt lat="49.94907" lon="2.17054">
        <ele>17.3</ele>
        <time>2022-03-02T15:30:41Z</time>
      </trkpt>
      <trkpt lat="49.94907" lon="2.17054">
        <ele>17.3</ele>
        <time>2022-03-02T15:30:42Z</time>
      </trkpt>
      <trkpt lat="49.94907" lon="2.17054">
        <ele>17.3</ele>
        <time>2022-03-02T15:30:43Z</time>
      </trkpt>
      <trkpt lat="49.94907" lon="2.17054">
        <ele>17.3</ele>
        <time>2022-03-02T15:30:44Z</time>
      </trkpt>
      <trkpt lat="49.94907" lon="2.17054">
        <ele>17.3</ele>
        <time>2022-03-02T15:30:45Z</time>
      </trkpt>
      <trkpt lat="49.94907" lon="2.17054">
        <ele>17.3</ele>
        <time>2022-03-02T15:30:46Z</time>
      </trkpt>
      <trkpt lat="49.94907" lon="2.17054">
        <ele>17.3</ele>
        <time>2022-03-02T15:30:47Z</time>
      </trkpt>
      <trkpt lat="49.94907" lon="2.17054">
        <ele>17.3</ele>
        <time>2022-03-02T15:30:48Z</time>
      </trkpt>
      <trkpt lat="49.94907" lon="2.17054">
        <ele>17.3</ele>
        <time>2022-03-02T15:30:49Z</time>
      </trkpt>
      <trkpt lat="49.94907" lon="2.17054">
        <ele>17.3</ele>
        <time>2022-03-02T15:30:50Z</time>
      </trkpt>
      <trkpt lat="49.94907" lon="2.17054">
        <ele>17.3</ele>
        <time>2022-03-02T15:30:51Z</time>
      </trkpt>
      <trkpt lat="49.94907" lon="2.17054">
        <ele>17.3</ele>
        <time>2022-03-02T15:30:52Z</time>
      </trkpt>
      <trkpt lat="49.94907" lon="2.17054">
        <ele>17.3</ele>
        <time>2022-03-02T15:30:53Z</time>
      </trkpt>
      <trkpt lat="49.94907" lon="2.17054">
        <ele>17.3</ele>
        <time>2022-03-02T15:30:54Z</time>
      </trkpt>
      <trkpt lat="49.94907" lon="2.17054">
        <ele>17.3</ele>
        <time>2022-03-02T15:30:55Z</time>
      </trkpt>
      <trkpt lat="49.94907" lon="2.17054">
        <ele>17.3</ele>
        <time>2022-03-02T15:30:56Z</time>
      </trkpt>
      <trkpt lat="49.94907" lon="2.17054">
        <ele>17.3</ele>
        <time>2022-03-02T15:30:57Z</time>
      </trkpt>
      <trkpt lat="49.94907" lon="2.17054">
        <ele>17.3</ele>
        <time>2022-03-02T15:30:58Z</time>
      </trkpt>
      <trkpt lat="49.94907" lon="2.17054">
        <ele>17.3</ele>
        <time>2022-03-02T15:30:59Z</time>
      </trkpt>
      <trkpt lat="49.94907" lon="2.17054">
        <ele>17.3</ele>
        <time>2022-03-02T15:31:00Z</time>
      </trkpt>
      <trkpt lat="49.94907" lon="2.17054">
        <ele>17.3</ele>
        <time>2022-03-02T15:31:01Z</time>
      </trkpt>
      <trkpt lat="49.94907" lon="2.17054">
        <ele>17.3</ele>
        <time>2022-03-02T15:31:02Z</time>
      </trkpt>
      <trkpt lat="49.94907" lon="2.17054">
        <ele>17.3</ele>
        <time>2022-03-02T15:31:03Z</time>
      </trkpt>
      <trkpt lat="49.94907" lon="2.17054">
        <ele>17.3</ele>
        <time>2022-03-02T15:31:04Z</time>
      </trkpt>
      <trkpt lat="49.94907" lon="2.17054">
        <ele>17.3</ele>
        <time>2022-03-02T15:31:05Z</time>
      </trkpt>
      <trkpt lat="49.94907" lon="2.17054">
        <ele>17.3</ele>
        <time>2022-03-02T15:31:06Z</time>
      </trkpt>
      <trkpt lat="49.94907" lon="2.17054">
        <ele>17.3</ele>
        <time>2022-03-02T15:31:07Z</time>
      </trkpt>
      <trkpt lat="49.94907" lon="2.17054">
        <ele>17.3</ele>
        <time>2022-03-02T15:31:08Z</time>
      </trkpt>
      <trkpt lat="49.94907" lon="2.17054">
        <ele>17.3</ele>
        <time>2022-03-02T15:31:09Z</time>
      </trkpt>
      <trkpt lat="49.94907" lon="2.17054">
        <ele>17.3</ele>
        <time>2022-03-02T15:31:10Z</time>
      </trkpt>
      <trkpt lat="49.94907" lon="2.17054">
        <ele>17.3</ele>
        <time>2022-03-02T15:31:11Z</time>
      </trkpt>
      <trkpt lat="49.94907" lon="2.17054">
        <ele>17.3</ele>
        <time>2022-03-02T15:31:12Z</time>
      </trkpt>
      <trkpt lat="49.94907" lon="2.17054">
        <ele>17.3</ele>
        <time>2022-03-02T15:31:13Z</time>
      </trkpt>
      <trkpt lat="49.94907" lon="2.17054">
        <ele>17.3</ele>
        <time>2022-03-02T15:31:14Z</time>
      </trkpt>
      <trkpt lat="49.94907" lon="2.17054">
        <ele>17.3</ele>
        <time>2022-03-02T15:31:15Z</time>
      </trkpt>
      <trkpt lat="49.94907" lon="2.17054">
        <ele>17.3</ele>
        <time>2022-03-02T15:31:16Z</time>
      </trkpt>
      <trkpt lat="49.94907" lon="2.17054">
        <ele>17.3</ele>
        <time>2022-03-02T15:31:17Z</time>
      </trkpt>
      <trkpt lat="49.94907" lon="2.17054">
        <ele>17.3</ele>
        <time>2022-03-02T15:31:18Z</time>
      </trkpt>
      <trkpt lat="49.94907" lon="2.17054">
        <ele>17.3</ele>
        <time>2022-03-02T15:31:19Z</time>
      </trkpt>
      <trkpt lat="49.94907" lon="2.17054">
        <ele>17.3</ele>
        <time>2022-03-02T15:31:20Z</time>
      </trkpt>
      <trkpt lat="49.94907" lon="2.17054">
        <ele>17.3</ele>
        <time>2022-03-02T15:31:21Z</time>
      </trkpt>
      <trkpt lat="49.94907" lon="2.17054">
        <ele>17.3</ele>
        <time>2022-03-02T15:31:22Z</time>
      </trkpt>
      <trkpt lat="49.94907" lon="2.17054">
        <ele>17.3</ele>
        <time>2022-03-02T15:31:23Z</time>
      </trkpt>
      <trkpt lat="49.94907" lon="2.17054">
        <ele>17.3</ele>
        <time>2022-03-02T15:31:24Z</time>
      </trkpt>
      <trkpt lat="49.94907" lon="2.17054">
        <ele>17.3</ele>
        <time>2022-03-02T15:31:25Z</time>
      </trkpt>
      <trkpt lat="49.94907" lon="2.17054">
        <ele>17.3</ele>
        <time>2022-03-02T15:31:26Z</time>
      </trkpt>
      <trkpt lat="49.94907" lon="2.17054">
        <ele>17.3</ele>
        <time>2022-03-02T15:31:27Z</time>
      </trkpt>
      <trkpt lat="49.94907" lon="2.17054">
        <ele>17.3</ele>
        <time>2022-03-02T15:31:28Z</time>
      </trkpt>
      <trkpt lat="49.94907" lon="2.17054">
        <ele>17.3</ele>
        <time>2022-03-02T15:31:29Z</time>
      </trkpt>
      <trkpt lat="49.94907" lon="2.17054">
        <ele>17.3</ele>
        <time>2022-03-02T15:31:30Z</time>
      </trkpt>
      <trkpt lat="49.94907" lon="2.17054">
        <ele>17.3</ele>
        <time>2022-03-02T15:31:31Z</time>
      </trkpt>
      <trkpt lat="49.94907" lon="2.17054">
        <ele>17.3</ele>
        <time>2022-03-02T15:31:32Z</time>
      </trkpt>
      <trkpt lat="49.94907" lon="2.17054">
        <ele>17.3</ele>
        <time>2022-03-02T15:31:33Z</time>
      </trkpt>
      <trkpt lat="49.94907" lon="2.17054">
        <ele>17.3</ele>
        <time>2022-03-02T15:31:34Z</time>
      </trkpt>
      <trkpt lat="49.94907" lon="2.17054">
        <ele>17.3</ele>
        <time>2022-03-02T15:31:35Z</time>
      </trkpt>
      <trkpt lat="49.94907" lon="2.17054">
        <ele>17.3</ele>
        <time>2022-03-02T15:31:36Z</time>
      </trkpt>
      <trkpt lat="49.94907" lon="2.17054">
        <ele>17.3</ele>
        <time>2022-03-02T15:31:37Z</time>
      </trkpt>
      <trkpt lat="49.94907" lon="2.17054">
        <ele>17.3</ele>
        <time>2022-03-02T15:31:38Z</time>
      </trkpt>
      <trkpt lat="49.94907" lon="2.17054">
        <ele>17.3</ele>
        <time>2022-03-02T15:31:39Z</time>
      </trkpt>
      <trkpt lat="49.94907" lon="2.17054">
        <ele>17.3</ele>
        <time>2022-03-02T15:31:40Z</time>
      </trkpt>
      <trkpt lat="49.94907" lon="2.17054">
        <ele>17.3</ele>
        <time>2022-03-02T15:31:41Z</time>
      </trkpt>
      <trkpt lat="49.94907" lon="2.17054">
        <ele>17.3</ele>
        <time>2022-03-02T15:31:42Z</time>
      </trkpt>
      <trkpt lat="49.94907" lon="2.17054">
        <ele>17.3</ele>
        <time>2022-03-02T15:31:43Z</time>
      </trkpt>
      <trkpt lat="49.94907" lon="2.17054">
        <ele>17.3</ele>
        <time>2022-03-02T15:31:44Z</time>
      </trkpt>
      <trkpt lat="49.94907" lon="2.17054">
        <ele>17.3</ele>
        <time>2022-03-02T15:31:45Z</time>
      </trkpt>
      <trkpt lat="49.94907" lon="2.17054">
        <ele>17.3</ele>
        <time>2022-03-02T15:31:46Z</time>
      </trkpt>
      <trkpt lat="49.94907" lon="2.17054">
        <ele>17.3</ele>
        <time>2022-03-02T15:31:47Z</time>
      </trkpt>
      <trkpt lat="49.94907" lon="2.17054">
        <ele>17.3</ele>
        <time>2022-03-02T15:31:48Z</time>
      </trkpt>
      <trkpt lat="49.94907" lon="2.17054">
        <ele>17.3</ele>
        <time>2022-03-02T15:31:49Z</time>
      </trkpt>
      <trkpt lat="49.94907" lon="2.17054">
        <ele>17.3</ele>
        <time>2022-03-02T15:31:50Z</time>
      </trkpt>
      <trkpt lat="49.94907" lon="2.17054">
        <ele>17.3</ele>
        <time>2022-03-02T15:31:51Z</time>
      </trkpt>
      <trkpt lat="49.94907" lon="2.17054">
        <ele>17.3</ele>
        <time>2022-03-02T15:31:52Z</time>
      </trkpt>
      <trkpt lat="49.94907" lon="2.17054">
        <ele>17.3</ele>
        <time>2022-03-02T15:31:53Z</time>
      </trkpt>
      <trkpt lat="49.94907" lon="2.17054">
        <ele>17.3</ele>
        <time>2022-03-02T15:31:54Z</time>
      </trkpt>
      <trkpt lat="49.94907" lon="2.17054">
        <ele>17.3</ele>
        <time>2022-03-02T15:31:55Z</time>
      </trkpt>
      <trkpt lat="49.94907" lon="2.17054">
        <ele>17.3</ele>
        <time>2022-03-02T15:31:56Z</time>
      </trkpt>
      <trkpt lat="49.94907" lon="2.17054">
        <ele>17.3</ele>
        <time>2022-03-02T15:31:57Z</time>
      </trkpt>
      <trkpt lat="49.94907" lon="2.17054">
        <ele>17.3</ele>
        <time>2022-03-02T15:31:58Z</time>
      </trkpt>
      <trkpt lat="49.94907" lon="2.17054">
        <ele>17.3</ele>
        <time>2022-03-02T15:31:59Z</time>
      </trkpt>
      <trkpt lat="49.94907" lon="2.17054">
        <ele>17.3</ele>
        <time>2022-03-02T15:32:00Z</time>
      </trkpt>
      <trkpt lat="49.94907" lon="2.17054">
        <ele>17.3</ele>
        <time>2022-03-02T15:32:01Z</time>
      </trkpt>
      <trkpt lat="49.94907" lon="2.17054">
        <ele>17.3</ele>
        <time>2022-03-02T15:32:02Z</time>
      </trkpt>
      <trkpt lat="49.94907" lon="2.17054">
        <ele>17.3</ele>
        <time>2022-03-02T15:32:03Z</time>
      </trkpt>
      <trkpt lat="49.94907" lon="2.17054">
        <ele>17.3</ele>
        <time>2022-03-02T15:32:04Z</time>
      </trkpt>
      <trkpt lat="49.94907" lon="2.17054">
        <ele>17.3</ele>
        <time>2022-03-02T15:32:05Z</time>
      </trkpt>
      <trkpt lat="49.94907" lon="2.17054">
        <ele>17.3</ele>
        <time>2022-03-02T15:32:06Z</time>
      </trkpt>
      <trkpt lat="49.94907" lon="2.17054">
        <ele>17.3</ele>
        <time>2022-03-02T15:32:07Z</time>
      </trkpt>
      <trkpt lat="49.94907" lon="2.17054">
        <ele>17.3</ele>
        <time>2022-03-02T15:32:08Z</time>
      </trkpt>
      <trkpt lat="49.94907" lon="2.17054">
        <ele>17.3</ele>
        <time>2022-03-02T15:32:09Z</time>
      </trkpt>
      <trkpt lat="49.94907" lon="2.17054">
        <ele>17.3</ele>
        <time>2022-03-02T15:32:10Z</time>
      </trkpt>
      <trkpt lat="49.94907" lon="2.17054">
        <ele>17.3</ele>
        <time>2022-03-02T15:32:11Z</time>
      </trkpt>
      <trkpt lat="49.94907" lon="2.17054">
        <ele>17.3</ele>
        <time>2022-03-02T15:32:12Z</time>
      </trkpt>
      <trkpt lat="49.94907" lon="2.17054">
        <ele>17.3</ele>
        <time>2022-03-02T15:32:13Z</time>
      </trkpt>
      <trkpt lat="49.94907" lon="2.17054">
        <ele>17.3</ele>
        <time>2022-03-02T15:32:14Z</time>
      </trkpt>
      <trkpt lat="49.94907" lon="2.17054">
        <ele>17.3</ele>
        <time>2022-03-02T15:32:15Z</time>
      </trkpt>
      <trkpt lat="49.94907" lon="2.17054">
        <ele>17.3</ele>
        <time>2022-03-02T15:32:16Z</time>
      </trkpt>
      <trkpt lat="49.94907" lon="2.17054">
        <ele>17.3</ele>
        <time>2022-03-02T15:32:17Z</time>
      </trkpt>
      <trkpt lat="49.94907" lon="2.17054">
        <ele>17.3</ele>
        <time>2022-03-02T15:32:18Z</time>
      </trkpt>
      <trkpt lat="49.94907" lon="2.17054">
        <ele>17.3</ele>
        <time>2022-03-02T15:32:19Z</time>
      </trkpt>
      <trkpt lat="49.94907" lon="2.17054">
        <ele>17.3</ele>
        <time>2022-03-02T15:32:20Z</time>
      </trkpt>
      <trkpt lat="49.94907" lon="2.17054">
        <ele>17.3</ele>
        <time>2022-03-02T15:32:21Z</time>
      </trkpt>
      <trkpt lat="49.94907" lon="2.17054">
        <ele>17.3</ele>
        <time>2022-03-02T15:32:22Z</time>
      </trkpt>
      <trkpt lat="49.94907" lon="2.17054">
        <ele>17.3</ele>
        <time>2022-03-02T15:32:23Z</time>
      </trkpt>
      <trkpt lat="49.94907" lon="2.17054">
        <ele>17.3</ele>
        <time>2022-03-02T15:32:24Z</time>
      </trkpt>
      <trkpt lat="49.94907" lon="2.17054">
        <ele>17.3</ele>
        <time>2022-03-02T15:32:25Z</time>
      </trkpt>
      <trkpt lat="49.94907" lon="2.17054">
        <ele>17.3</ele>
        <time>2022-03-02T15:32:26Z</time>
      </trkpt>
      <trkpt lat="49.94907" lon="2.17054">
        <ele>17.3</ele>
        <time>2022-03-02T15:32:27Z</time>
      </trkpt>
      <trkpt lat="49.94907" lon="2.17054">
        <ele>17.3</ele>
        <time>2022-03-02T15:32:29Z</time>
      </trkpt>
    </trkseg>
  </trk>
</gpx>